<?xml version="1.0" encoding="UTF-8" standalone="no" ?>
<gpx xmlns="http://www.topografix.com/GPX/1/1" creator="MapSource 6.16.3" version="1.1" xmlns:xsi="http://www.w3.org/2001/XMLSchema-instance" xsi:schemaLocation="http://www.topografix.com/GPX/1/1 http://www.topografix.com/GPX/1/1/gpx.xsd">

  <metadata>
    <link href="http://www.garmin.com">
      <text>Garmin International</text>
    </link>
    <time>2011-08-20T17:49:07Z</time>
    <bounds maxlat="55.060337036848068" maxlon="27.45221296325326" minlat="54.676773017272353" minlon="26.344137014821172"/>
  </metadata>

  <rte>
    <name>От Город до Город</name>
    <extensions>
      <gpxx:RouteExtension xmlns:gpxx="http://www.garmin.com/xmlschemas/GpxExtensions/v3">
        <gpxx:IsAutoNamed>true</gpxx:IsAutoNamed>
        <gpxx:DisplayColor>Magenta</gpxx:DisplayColor>
      </gpxx:RouteExtension>
    </extensions>
    <rtept lat="54.798138029873371" lon="26.784391030669212">
      <time>2011-08-20T17:16:19Z</time>
      <name>Город</name>
      <cmt>Город</cmt>
      <desc>Город</desc>
      <sym>Waypoint</sym>
      <extensions>
        <gpxx:RoutePointExtension xmlns:gpxx="http://www.garmin.com/xmlschemas/GpxExtensions/v3">
          <gpxx:Subclass>8810000075030680D20103261300B2F7F30B</gpxx:Subclass>
        </gpxx:RoutePointExtension>
      </extensions>
    </rtept>
  </rte>

  <trk>
    <name>15-АВГ-11 22:25:34</name>
    <extensions>
      <gpxx:TrackExtension xmlns:gpxx="http://www.garmin.com/xmlschemas/GpxExtensions/v3">
        <gpxx:DisplayColor>Red</gpxx:DisplayColor>
      </gpxx:TrackExtension>
    </extensions>
    <trkseg>
      <trkpt lat="54.713122984394431" lon="27.142728958278894">
        <ele>193.84</ele>
        <time>2011-08-15T13:47:36Z</time>
      </trkpt>
      <trkpt lat="54.713028017431498" lon="27.142657963559031">
        <ele>195.28</ele>
        <time>2011-08-15T13:48:08Z</time>
      </trkpt>
      <trkpt lat="54.713023994117975" lon="27.142533995211124">
        <ele>198.16999999999999</ele>
        <time>2011-08-15T13:48:12Z</time>
      </trkpt>
      <trkpt lat="54.713028017431498" lon="27.141929995268583">
        <ele>202.00999999999999</ele>
        <time>2011-08-15T13:48:20Z</time>
      </trkpt>
      <trkpt lat="54.713046960532665" lon="27.141396990045905">
        <ele>203.94</ele>
        <time>2011-08-15T13:48:26Z</time>
      </trkpt>
      <trkpt lat="54.713070010766387" lon="27.139692027121782">
        <ele>204.90000000000001</ele>
        <time>2011-08-15T13:48:43Z</time>
      </trkpt>
      <trkpt lat="54.7130779735744" lon="27.137629995122552">
        <ele>202.49000000000001</ele>
        <time>2011-08-15T13:49:03Z</time>
      </trkpt>
      <trkpt lat="54.713013013824821" lon="27.135445000603795">
        <ele>199.61000000000001</ele>
        <time>2011-08-15T13:49:23Z</time>
      </trkpt>
      <trkpt lat="54.712959034368396" lon="27.133539039641619">
        <ele>198.16999999999999</ele>
        <time>2011-08-15T13:49:41Z</time>
      </trkpt>
      <trkpt lat="54.712951993569732" lon="27.131968019530177">
        <ele>198.65000000000001</ele>
        <time>2011-08-15T13:49:57Z</time>
      </trkpt>
      <trkpt lat="54.712989963591099" lon="27.130489032715559">
        <ele>198.65000000000001</ele>
        <time>2011-08-15T13:50:14Z</time>
      </trkpt>
      <trkpt lat="54.71305500715971" lon="27.13004101999104">
        <ele>198.16999999999999</ele>
        <time>2011-08-15T13:50:19Z</time>
      </trkpt>
      <trkpt lat="54.713061964139342" lon="27.129969019442797">
        <ele>197.69</ele>
        <time>2011-08-15T13:50:20Z</time>
      </trkpt>
      <trkpt lat="54.713080991059542" lon="27.129817977547646">
        <ele>198.65000000000001</ele>
        <time>2011-08-15T13:50:28Z</time>
      </trkpt>
      <trkpt lat="54.713085014373064" lon="27.129799034446478">
        <ele>197.69</ele>
        <time>2011-08-15T13:50:38Z</time>
      </trkpt>
      <trkpt lat="54.713089037686586" lon="27.129775984212756">
        <ele>198.16999999999999</ele>
        <time>2011-08-15T13:50:39Z</time>
      </trkpt>
      <trkpt lat="54.713089037686586" lon="27.129753017798066">
        <ele>198.16999999999999</ele>
        <time>2011-08-15T13:50:40Z</time>
      </trkpt>
      <trkpt lat="54.713085014373064" lon="27.129731979221106">
        <ele>197.69</ele>
        <time>2011-08-15T13:50:41Z</time>
      </trkpt>
      <trkpt lat="54.713080991059542" lon="27.129726028069854">
        <ele>197.21000000000001</ele>
        <time>2011-08-15T13:50:52Z</time>
      </trkpt>
      <trkpt lat="54.713080991059542" lon="27.129726028069854">
        <ele>197.21000000000001</ele>
        <time>2011-08-15T13:51:18Z</time>
      </trkpt>
      <trkpt lat="54.713085014373064" lon="27.129728039726615">
        <ele>197.69</ele>
        <time>2011-08-15T13:51:42Z</time>
      </trkpt>
      <trkpt lat="54.713080991059542" lon="27.129726028069854">
        <ele>197.69</ele>
        <time>2011-08-15T13:52:07Z</time>
      </trkpt>
      <trkpt lat="54.713080991059542" lon="27.129726028069854">
        <ele>197.69</ele>
        <time>2011-08-15T13:52:32Z</time>
      </trkpt>
      <trkpt lat="54.7130779735744" lon="27.129733990877867">
        <ele>197.21000000000001</ele>
        <time>2011-08-15T13:52:59Z</time>
      </trkpt>
      <trkpt lat="54.7130779735744" lon="27.129731979221106">
        <ele>197.21000000000001</ele>
        <time>2011-08-15T13:53:29Z</time>
      </trkpt>
      <trkpt lat="54.7130779735744" lon="27.129731979221106">
        <ele>196.72999999999999</ele>
        <time>2011-08-15T13:53:54Z</time>
      </trkpt>
      <trkpt lat="54.7130779735744" lon="27.129726028069854">
        <ele>197.21000000000001</ele>
        <time>2011-08-15T13:54:21Z</time>
      </trkpt>
      <trkpt lat="54.7130779735744" lon="27.129728039726615">
        <ele>197.21000000000001</ele>
        <time>2011-08-15T13:54:51Z</time>
      </trkpt>
      <trkpt lat="54.7130779735744" lon="27.129728039726615">
        <ele>196.72999999999999</ele>
        <time>2011-08-15T13:55:19Z</time>
      </trkpt>
      <trkpt lat="54.713080991059542" lon="27.129733990877867">
        <ele>196.72999999999999</ele>
        <time>2011-08-15T13:55:52Z</time>
      </trkpt>
      <trkpt lat="54.713085014373064" lon="27.129731979221106">
        <ele>197.21000000000001</ele>
        <time>2011-08-15T13:56:21Z</time>
      </trkpt>
      <trkpt lat="54.713080991059542" lon="27.129729967564344">
        <ele>197.21000000000001</ele>
        <time>2011-08-15T13:56:47Z</time>
      </trkpt>
      <trkpt lat="54.713080991059542" lon="27.129729967564344">
        <ele>196.72999999999999</ele>
        <time>2011-08-15T13:57:20Z</time>
      </trkpt>
      <trkpt lat="54.713085014373064" lon="27.129729967564344">
        <ele>197.69</ele>
        <time>2011-08-15T13:57:52Z</time>
      </trkpt>
      <trkpt lat="54.7130779735744" lon="27.129738014191389">
        <ele>198.16999999999999</ele>
        <time>2011-08-15T13:58:24Z</time>
      </trkpt>
      <trkpt lat="54.713080991059542" lon="27.12974002584815">
        <ele>197.69</ele>
        <time>2011-08-15T13:58:53Z</time>
      </trkpt>
      <trkpt lat="54.713080991059542" lon="27.12974002584815">
        <ele>198.16999999999999</ele>
        <time>2011-08-15T13:59:21Z</time>
      </trkpt>
      <trkpt lat="54.713085014373064" lon="27.129757041111588">
        <ele>197.69</ele>
        <time>2011-08-15T13:59:53Z</time>
      </trkpt>
      <trkpt lat="54.713080991059542" lon="27.129765003919601">
        <ele>197.69</ele>
        <time>2011-08-15T14:00:22Z</time>
      </trkpt>
      <trkpt lat="54.713085014373064" lon="27.129766009747982">
        <ele>197.69</ele>
        <time>2011-08-15T14:00:53Z</time>
      </trkpt>
      <trkpt lat="54.713100017979741" lon="27.12974002584815">
        <ele>198.16999999999999</ele>
        <time>2011-08-15T14:01:07Z</time>
      </trkpt>
      <trkpt lat="54.713100017979741" lon="27.12974002584815">
        <ele>198.16999999999999</ele>
        <time>2011-08-15T14:01:29Z</time>
      </trkpt>
      <trkpt lat="54.713107980787754" lon="27.129731979221106">
        <ele>198.16999999999999</ele>
        <time>2011-08-15T14:01:52Z</time>
      </trkpt>
      <trkpt lat="54.713104041293263" lon="27.129726028069854">
        <ele>196.72999999999999</ele>
        <time>2011-08-15T14:02:06Z</time>
      </trkpt>
      <trkpt lat="54.713104041293263" lon="27.129726028069854">
        <ele>198.65000000000001</ele>
        <time>2011-08-15T14:02:08Z</time>
      </trkpt>
      <trkpt lat="54.713116027414799" lon="27.129714963957667">
        <ele>198.65000000000001</ele>
        <time>2011-08-15T14:02:21Z</time>
      </trkpt>
      <trkpt lat="54.713134970515966" lon="27.129674982279539">
        <ele>198.16999999999999</ele>
        <time>2011-08-15T14:02:27Z</time>
      </trkpt>
      <trkpt lat="54.713142011314631" lon="27.12965402752161">
        <ele>198.65000000000001</ele>
        <time>2011-08-15T14:02:28Z</time>
      </trkpt>
      <trkpt lat="54.713153997436166" lon="27.129630977287889">
        <ele>198.65000000000001</ele>
        <time>2011-08-15T14:02:29Z</time>
      </trkpt>
      <trkpt lat="54.713164977729321" lon="27.129601975902915">
        <ele>198.65000000000001</ele>
        <time>2011-08-15T14:02:30Z</time>
      </trkpt>
      <trkpt lat="54.713180987164378" lon="27.12956802919507">
        <ele>198.65000000000001</ele>
        <time>2011-08-15T14:02:31Z</time>
      </trkpt>
      <trkpt lat="54.713309984654188" lon="27.128951959311962">
        <ele>198.16999999999999</ele>
        <time>2011-08-15T14:02:43Z</time>
      </trkpt>
      <trkpt lat="54.713444011285901" lon="27.128339996561408">
        <ele>197.69</ele>
        <time>2011-08-15T14:02:53Z</time>
      </trkpt>
      <trkpt lat="54.713516011834145" lon="27.127882009372115">
        <ele>196.25</ele>
        <time>2011-08-15T14:02:59Z</time>
      </trkpt>
      <trkpt lat="54.713584994897246" lon="27.12735403329134">
        <ele>194.31999999999999</ele>
        <time>2011-08-15T14:03:05Z</time>
      </trkpt>
      <trkpt lat="54.713595975190401" lon="27.1272680349648">
        <ele>194.80000000000001</ele>
        <time>2011-08-15T14:03:06Z</time>
      </trkpt>
      <trkpt lat="54.713683985173702" lon="27.126693958416581">
        <ele>194.80000000000001</ele>
        <time>2011-08-15T14:03:13Z</time>
      </trkpt>
      <trkpt lat="54.713698988780379" lon="27.126617012545466">
        <ele>194.31999999999999</ele>
        <time>2011-08-15T14:03:14Z</time>
      </trkpt>
      <trkpt lat="54.713749028742313" lon="27.126375027000904">
        <ele>194.31999999999999</ele>
        <time>2011-08-15T14:03:17Z</time>
      </trkpt>
      <trkpt lat="54.71380602568388" lon="27.12514297105372">
        <ele>195.77000000000001</ele>
        <time>2011-08-15T14:03:32Z</time>
      </trkpt>
      <trkpt lat="54.713818011805415" lon="27.124925963580608">
        <ele>195.28</ele>
        <time>2011-08-15T14:03:35Z</time>
      </trkpt>
      <trkpt lat="54.713879032060504" lon="27.124148961156607">
        <ele>195.77000000000001</ele>
        <time>2011-08-15T14:03:46Z</time>
      </trkpt>
      <trkpt lat="54.713932005688548" lon="27.123502967879176">
        <ele>196.72999999999999</ele>
        <time>2011-08-15T14:03:55Z</time>
      </trkpt>
      <trkpt lat="54.713966036215425" lon="27.12222296744585">
        <ele>196.25</ele>
        <time>2011-08-15T14:04:12Z</time>
      </trkpt>
      <trkpt lat="54.713963018730283" lon="27.12134001776576">
        <ele>195.28</ele>
        <time>2011-08-15T14:04:23Z</time>
      </trkpt>
      <trkpt lat="54.713947009295225" lon="27.121188975870609">
        <ele>194.80000000000001</ele>
        <time>2011-08-15T14:04:25Z</time>
      </trkpt>
      <trkpt lat="54.713923959061503" lon="27.119930014014244">
        <ele>193.36000000000001</ele>
        <time>2011-08-15T14:04:40Z</time>
      </trkpt>
      <trkpt lat="54.713917002081871" lon="27.118846988305449">
        <ele>191.91999999999999</ele>
        <time>2011-08-15T14:04:56Z</time>
      </trkpt>
      <trkpt lat="54.713927982375026" lon="27.118065040558577">
        <ele>191.44</ele>
        <time>2011-08-15T14:05:11Z</time>
      </trkpt>
      <trkpt lat="54.713927982375026" lon="27.118065040558577">
        <ele>192.40000000000001</ele>
        <time>2011-08-15T14:05:33Z</time>
      </trkpt>
      <trkpt lat="54.713951032608747" lon="27.118036039173603">
        <ele>191.91999999999999</ele>
        <time>2011-08-15T14:05:57Z</time>
      </trkpt>
      <trkpt lat="54.713951032608747" lon="27.118036039173603">
        <ele>191.44</ele>
        <time>2011-08-15T14:06:33Z</time>
      </trkpt>
      <trkpt lat="54.713954972103238" lon="27.118034027516842">
        <ele>190.96000000000001</ele>
        <time>2011-08-15T14:07:03Z</time>
      </trkpt>
      <trkpt lat="54.713954972103238" lon="27.118034027516842">
        <ele>194.80000000000001</ele>
        <time>2011-08-15T14:07:30Z</time>
      </trkpt>
      <trkpt lat="54.713954972103238" lon="27.118034027516842">
        <ele>191.44</ele>
        <time>2011-08-15T14:07:31Z</time>
      </trkpt>
      <trkpt lat="54.713963018730283" lon="27.118028998374939">
        <ele>191.44</ele>
        <time>2011-08-15T14:07:52Z</time>
      </trkpt>
      <trkpt lat="54.713954972103238" lon="27.118019023910165">
        <ele>190.96000000000001</ele>
        <time>2011-08-15T14:08:24Z</time>
      </trkpt>
      <trkpt lat="54.713954972103238" lon="27.118019023910165">
        <ele>191.44</ele>
        <time>2011-08-15T14:08:47Z</time>
      </trkpt>
      <trkpt lat="54.713954972103238" lon="27.118019023910165">
        <ele>191.44</ele>
        <time>2011-08-15T14:08:48Z</time>
      </trkpt>
      <trkpt lat="54.71395899541676" lon="27.117927996441722">
        <ele>190.96000000000001</ele>
        <time>2011-08-15T14:08:52Z</time>
      </trkpt>
      <trkpt lat="54.713951032608747" lon="27.117207990959287">
        <ele>190.47999999999999</ele>
        <time>2011-08-15T14:09:03Z</time>
      </trkpt>
      <trkpt lat="54.71395899541676" lon="27.116909008473158">
        <ele>190</ele>
        <time>2011-08-15T14:09:07Z</time>
      </trkpt>
      <trkpt lat="54.71395899541676" lon="27.115816008299589">
        <ele>189.03999999999999</ele>
        <time>2011-08-15T14:09:21Z</time>
      </trkpt>
      <trkpt lat="54.713901998475194" lon="27.115521971136332">
        <ele>189.03999999999999</ele>
        <time>2011-08-15T14:09:25Z</time>
      </trkpt>
      <trkpt lat="54.713821029290557" lon="27.11530496366322">
        <ele>190</ele>
        <time>2011-08-15T14:09:29Z</time>
      </trkpt>
      <trkpt lat="54.713947009295225" lon="27.114996006712317">
        <ele>188.56</ele>
        <time>2011-08-15T14:09:36Z</time>
      </trkpt>
      <trkpt lat="54.714660979807377" lon="27.114523015916348">
        <ele>187.59</ele>
        <time>2011-08-15T14:09:55Z</time>
      </trkpt>
      <trkpt lat="54.71537402831018" lon="27.114058993756771">
        <ele>187.59</ele>
        <time>2011-08-15T14:10:13Z</time>
      </trkpt>
      <trkpt lat="54.715935029089451" lon="27.113637970760465">
        <ele>188.08000000000001</ele>
        <time>2011-08-15T14:10:27Z</time>
      </trkpt>
      <trkpt lat="54.716544980183244" lon="27.113333037123084">
        <ele>187.59</ele>
        <time>2011-08-15T14:10:41Z</time>
      </trkpt>
      <trkpt lat="54.716746984049678" lon="27.113248966634274">
        <ele>187.59</ele>
        <time>2011-08-15T14:10:46Z</time>
      </trkpt>
      <trkpt lat="54.717452991753817" lon="27.112972028553486">
        <ele>187.11000000000001</ele>
        <time>2011-08-15T14:11:02Z</time>
      </trkpt>
      <trkpt lat="54.718181965872645" lon="27.112656030803919">
        <ele>186.15000000000001</ele>
        <time>2011-08-15T14:11:18Z</time>
      </trkpt>
      <trkpt lat="54.718967014923692" lon="27.112384960055351">
        <ele>185.66999999999999</ele>
        <time>2011-08-15T14:11:35Z</time>
      </trkpt>
      <trkpt lat="54.719158038496971" lon="27.112350007519126">
        <ele>185.19</ele>
        <time>2011-08-15T14:11:39Z</time>
      </trkpt>
      <trkpt lat="54.719673022627831" lon="27.112366016954184">
        <ele>185.19</ele>
        <time>2011-08-15T14:11:50Z</time>
      </trkpt>
      <trkpt lat="54.719939986243844" lon="27.112148003652692">
        <ele>185.19</ele>
        <time>2011-08-15T14:11:57Z</time>
      </trkpt>
      <trkpt lat="54.720256989821792" lon="27.111537968739867">
        <ele>184.71000000000001</ele>
        <time>2011-08-15T14:12:07Z</time>
      </trkpt>
      <trkpt lat="54.720417000353336" lon="27.111374018713832">
        <ele>184.22999999999999</ele>
        <time>2011-08-15T14:12:11Z</time>
      </trkpt>
      <trkpt lat="54.721165001392365" lon="27.110975040122867">
        <ele>182.31</ele>
        <time>2011-08-15T14:12:29Z</time>
      </trkpt>
      <trkpt lat="54.721675962209702" lon="27.110736994072795">
        <ele>180.38</ele>
        <time>2011-08-15T14:12:42Z</time>
      </trkpt>
      <trkpt lat="54.722218019887805" lon="27.11046801880002">
        <ele>177.5</ele>
        <time>2011-08-15T14:12:54Z</time>
      </trkpt>
      <trkpt lat="54.72296099178493" lon="27.110089994966984">
        <ele>176.53999999999999</ele>
        <time>2011-08-15T14:13:10Z</time>
      </trkpt>
      <trkpt lat="54.723506988957524" lon="27.109777014702559">
        <ele>177.02000000000001</ele>
        <time>2011-08-15T14:13:25Z</time>
      </trkpt>
      <trkpt lat="54.72381996922195" lon="27.109599988907576">
        <ele>176.53999999999999</ele>
        <time>2011-08-15T14:13:39Z</time>
      </trkpt>
      <trkpt lat="54.72425096668303" lon="27.109390022233129">
        <ele>176.53999999999999</ele>
        <time>2011-08-15T14:13:54Z</time>
      </trkpt>
      <trkpt lat="54.724747007712722" lon="27.108988026157022">
        <ele>176.06</ele>
        <time>2011-08-15T14:14:11Z</time>
      </trkpt>
      <trkpt lat="54.724956974387169" lon="27.108557028695941">
        <ele>177.02000000000001</ele>
        <time>2011-08-15T14:14:23Z</time>
      </trkpt>
      <trkpt lat="54.725163001567125" lon="27.108016982674599">
        <ele>177.02000000000001</ele>
        <time>2011-08-15T14:14:39Z</time>
      </trkpt>
      <trkpt lat="54.725390989333391" lon="27.107447013258934">
        <ele>176.53999999999999</ele>
        <time>2011-08-15T14:14:54Z</time>
      </trkpt>
      <trkpt lat="54.725754009559751" lon="27.106525003910065">
        <ele>176.06</ele>
        <time>2011-08-15T14:15:16Z</time>
      </trkpt>
      <trkpt lat="54.726020973175764" lon="27.105855960398912">
        <ele>176.06</ele>
        <time>2011-08-15T14:15:32Z</time>
      </trkpt>
      <trkpt lat="54.726444007828832" lon="27.10479699075222">
        <ele>175.58000000000001</ele>
        <time>2011-08-15T14:15:54Z</time>
      </trkpt>
      <trkpt lat="54.726852038875222" lon="27.103774985298514">
        <ele>175.58000000000001</ele>
        <time>2011-08-15T14:16:14Z</time>
      </trkpt>
      <trkpt lat="54.727229978889227" lon="27.102846018970013">
        <ele>174.62</ele>
        <time>2011-08-15T14:16:32Z</time>
      </trkpt>
      <trkpt lat="54.727680003270507" lon="27.10174597799778">
        <ele>175.09999999999999</ele>
        <time>2011-08-15T14:16:52Z</time>
      </trkpt>
      <trkpt lat="54.728058027103543" lon="27.100706035271287">
        <ele>176.06</ele>
        <time>2011-08-15T14:17:12Z</time>
      </trkpt>
      <trkpt lat="54.727832973003387" lon="27.100342009216547">
        <ele>175.58000000000001</ele>
        <time>2011-08-15T14:17:21Z</time>
      </trkpt>
      <trkpt lat="54.727057982236147" lon="27.099470039829612">
        <ele>175.09999999999999</ele>
        <time>2011-08-15T14:17:44Z</time>
      </trkpt>
      <trkpt lat="54.726994028314948" lon="27.099385969340801">
        <ele>175.58000000000001</ele>
        <time>2011-08-15T14:17:46Z</time>
      </trkpt>
      <trkpt lat="54.726901995018125" lon="27.099246997386217">
        <ele>175.58000000000001</ele>
        <time>2011-08-15T14:17:49Z</time>
      </trkpt>
      <trkpt lat="54.726631008088589" lon="27.09824200719595">
        <ele>175.09999999999999</ele>
        <time>2011-08-15T14:18:05Z</time>
      </trkpt>
      <trkpt lat="54.726421041414142" lon="27.096861004829407">
        <ele>176.06</ele>
        <time>2011-08-15T14:18:24Z</time>
      </trkpt>
      <trkpt lat="54.726173020899296" lon="27.095302976667881">
        <ele>175.09999999999999</ele>
        <time>2011-08-15T14:18:44Z</time>
      </trkpt>
      <trkpt lat="54.726143013685942" lon="27.095139026641846">
        <ele>175.09999999999999</ele>
        <time>2011-08-15T14:18:46Z</time>
      </trkpt>
      <trkpt lat="54.726101020351052" lon="27.094758991152048">
        <ele>175.09999999999999</ele>
        <time>2011-08-15T14:18:51Z</time>
      </trkpt>
      <trkpt lat="54.725718973204494" lon="27.093641012907028">
        <ele>175.09999999999999</ele>
        <time>2011-08-15T14:19:08Z</time>
      </trkpt>
      <trkpt lat="54.72564697265625" lon="27.093439009040594">
        <ele>175.09999999999999</ele>
        <time>2011-08-15T14:19:11Z</time>
      </trkpt>
      <trkpt lat="54.725193008780479" lon="27.092214999720454">
        <ele>174.62</ele>
        <time>2011-08-15T14:19:29Z</time>
      </trkpt>
      <trkpt lat="54.724808027967811" lon="27.091189976781607">
        <ele>174.62</ele>
        <time>2011-08-15T14:19:45Z</time>
      </trkpt>
      <trkpt lat="54.724617004394531" lon="27.090763002634048">
        <ele>175.09999999999999</ele>
        <time>2011-08-15T14:19:52Z</time>
      </trkpt>
      <trkpt lat="54.724522037431598" lon="27.090499978512526">
        <ele>175.09999999999999</ele>
        <time>2011-08-15T14:19:56Z</time>
      </trkpt>
      <trkpt lat="54.724144013598561" lon="27.089472021907568">
        <ele>175.09999999999999</ele>
        <time>2011-08-15T14:20:12Z</time>
      </trkpt>
      <trkpt lat="54.723888030275702" lon="27.088820999488235">
        <ele>174.62</ele>
        <time>2011-08-15T14:20:22Z</time>
      </trkpt>
      <trkpt lat="54.723506988957524" lon="27.087821960449219">
        <ele>174.13999999999999</ele>
        <time>2011-08-15T14:20:38Z</time>
      </trkpt>
      <trkpt lat="54.723407998681068" lon="27.087554996833205">
        <ele>174.62</ele>
        <time>2011-08-15T14:20:42Z</time>
      </trkpt>
      <trkpt lat="54.723309008404613" lon="27.087291972711682">
        <ele>174.62</ele>
        <time>2011-08-15T14:20:46Z</time>
      </trkpt>
      <trkpt lat="54.722897037863731" lon="27.086178017780185">
        <ele>175.09999999999999</ele>
        <time>2011-08-15T14:21:03Z</time>
      </trkpt>
      <trkpt lat="54.722667960450053" lon="27.085056016221642">
        <ele>174.62</ele>
        <time>2011-08-15T14:21:18Z</time>
      </trkpt>
      <trkpt lat="54.722640970721841" lon="27.084351014345884">
        <ele>174.13999999999999</ele>
        <time>2011-08-15T14:21:27Z</time>
      </trkpt>
      <trkpt lat="54.72263703122735" lon="27.084029987454414">
        <ele>174.62</ele>
        <time>2011-08-15T14:21:31Z</time>
      </trkpt>
      <trkpt lat="54.722603000700474" lon="27.083066990599036">
        <ele>175.09999999999999</ele>
        <time>2011-08-15T14:21:46Z</time>
      </trkpt>
      <trkpt lat="54.722603000700474" lon="27.08303296007216">
        <ele>175.09999999999999</ele>
        <time>2011-08-15T14:22:00Z</time>
      </trkpt>
      <trkpt lat="54.722603000700474" lon="27.082936987280846">
        <ele>175.09999999999999</ele>
        <time>2011-08-15T14:22:13Z</time>
      </trkpt>
      <trkpt lat="54.722603000700474" lon="27.082890970632434">
        <ele>175.09999999999999</ele>
        <time>2011-08-15T14:22:30Z</time>
      </trkpt>
      <trkpt lat="54.722603000700474" lon="27.082889964804053">
        <ele>174.62</ele>
        <time>2011-08-15T14:23:05Z</time>
      </trkpt>
      <trkpt lat="54.722598977386951" lon="27.082890970632434">
        <ele>174.62</ele>
        <time>2011-08-15T14:23:08Z</time>
      </trkpt>
      <trkpt lat="54.722565030679107" lon="27.082290994003415">
        <ele>174.62</ele>
        <time>2011-08-15T14:23:21Z</time>
      </trkpt>
      <trkpt lat="54.72255296073854" lon="27.081281980499625">
        <ele>175.09999999999999</ele>
        <time>2011-08-15T14:23:38Z</time>
      </trkpt>
      <trkpt lat="54.722622027620673" lon="27.080656019970775">
        <ele>174.62</ele>
        <time>2011-08-15T14:23:49Z</time>
      </trkpt>
      <trkpt lat="54.722640970721841" lon="27.080069035291672">
        <ele>174.62</ele>
        <time>2011-08-15T14:23:59Z</time>
      </trkpt>
      <trkpt lat="54.722691010683775" lon="27.079042000696063">
        <ele>174.62</ele>
        <time>2011-08-15T14:24:14Z</time>
      </trkpt>
      <trkpt lat="54.722770974040031" lon="27.077894015237689">
        <ele>174.13999999999999</ele>
        <time>2011-08-15T14:24:30Z</time>
      </trkpt>
      <trkpt lat="54.722790000960231" lon="27.077593021094799">
        <ele>174.13999999999999</ele>
        <time>2011-08-15T14:24:34Z</time>
      </trkpt>
      <trkpt lat="54.722800981253386" lon="27.077243998646736">
        <ele>174.13999999999999</ele>
        <time>2011-08-15T14:24:39Z</time>
      </trkpt>
      <trkpt lat="54.722884967923164" lon="27.075985036790371">
        <ele>175.09999999999999</ele>
        <time>2011-08-15T14:24:56Z</time>
      </trkpt>
      <trkpt lat="54.722903994843364" lon="27.075675996020436">
        <ele>174.62</ele>
        <time>2011-08-15T14:25:00Z</time>
      </trkpt>
      <trkpt lat="54.723029974848032" lon="27.073967009782791">
        <ele>174.62</ele>
        <time>2011-08-15T14:25:21Z</time>
      </trkpt>
      <trkpt lat="54.722954034805298" lon="27.072494979947805">
        <ele>174.13999999999999</ele>
        <time>2011-08-15T14:25:39Z</time>
      </trkpt>
      <trkpt lat="54.722923021763563" lon="27.07224695943296">
        <ele>174.13999999999999</ele>
        <time>2011-08-15T14:25:42Z</time>
      </trkpt>
      <trkpt lat="54.722897037863731" lon="27.072088038548827">
        <ele>174.62</ele>
        <time>2011-08-15T14:25:44Z</time>
      </trkpt>
      <trkpt lat="54.72285102121532" lon="27.071680007502437">
        <ele>174.62</ele>
        <time>2011-08-15T14:25:49Z</time>
      </trkpt>
      <trkpt lat="54.72270199097693" lon="27.070308979600668">
        <ele>174.13999999999999</ele>
        <time>2011-08-15T14:26:05Z</time>
      </trkpt>
      <trkpt lat="54.722649017348886" lon="27.069774968549609">
        <ele>173.66</ele>
        <time>2011-08-15T14:26:11Z</time>
      </trkpt>
      <trkpt lat="54.722610041499138" lon="27.069444973021746">
        <ele>173.66</ele>
        <time>2011-08-15T14:26:15Z</time>
      </trkpt>
      <trkpt lat="54.722462017089128" lon="27.068107975646853">
        <ele>173.16999999999999</ele>
        <time>2011-08-15T14:26:32Z</time>
      </trkpt>
      <trkpt lat="54.722354980185628" lon="27.066888995468616">
        <ele>173.66</ele>
        <time>2011-08-15T14:26:48Z</time>
      </trkpt>
      <trkpt lat="54.722369983792305" lon="27.066594958305359">
        <ele>173.66</ele>
        <time>2011-08-15T14:26:53Z</time>
      </trkpt>
      <trkpt lat="54.722610041499138" lon="27.06539198756218">
        <ele>173.16999999999999</ele>
        <time>2011-08-15T14:27:12Z</time>
      </trkpt>
      <trkpt lat="54.722824031487107" lon="27.064375011250377">
        <ele>173.16999999999999</ele>
        <time>2011-08-15T14:27:31Z</time>
      </trkpt>
      <trkpt lat="54.722999967634678" lon="27.063568001613021">
        <ele>173.66</ele>
        <time>2011-08-15T14:27:47Z</time>
      </trkpt>
      <trkpt lat="54.7231749817729" lon="27.062703995034099">
        <ele>173.16999999999999</ele>
        <time>2011-08-15T14:28:03Z</time>
      </trkpt>
      <trkpt lat="54.723396012559533" lon="27.061728006228805">
        <ele>172.69</ele>
        <time>2011-08-15T14:28:21Z</time>
      </trkpt>
      <trkpt lat="54.723575972020626" lon="27.060903981328011">
        <ele>173.16999999999999</ele>
        <time>2011-08-15T14:28:38Z</time>
      </trkpt>
      <trkpt lat="54.723598016425967" lon="27.060790993273258">
        <ele>173.16999999999999</ele>
        <time>2011-08-15T14:28:41Z</time>
      </trkpt>
      <trkpt lat="54.723575972020626" lon="27.060702983289957">
        <ele>173.16999999999999</ele>
        <time>2011-08-15T14:28:45Z</time>
      </trkpt>
      <trkpt lat="54.723487962037325" lon="27.060635006055236">
        <ele>173.66</ele>
        <time>2011-08-15T14:28:59Z</time>
      </trkpt>
      <trkpt lat="54.72345401532948" lon="27.060618996620178">
        <ele>173.66</ele>
        <time>2011-08-15T14:29:11Z</time>
      </trkpt>
      <trkpt lat="54.72311002202332" lon="27.060426967218518">
        <ele>173.16999999999999</ele>
        <time>2011-08-15T14:29:27Z</time>
      </trkpt>
      <trkpt lat="54.72296099178493" lon="27.060096971690655">
        <ele>173.16999999999999</ele>
        <time>2011-08-15T14:29:40Z</time>
      </trkpt>
      <trkpt lat="54.722935007885098" lon="27.059510992839932">
        <ele>172.69</ele>
        <time>2011-08-15T14:29:54Z</time>
      </trkpt>
      <trkpt lat="54.722918998450041" lon="27.058640029281378">
        <ele>173.16999999999999</ele>
        <time>2011-08-15T14:30:09Z</time>
      </trkpt>
      <trkpt lat="54.72287398763001" lon="27.057151990011334">
        <ele>173.16999999999999</ele>
        <time>2011-08-15T14:30:31Z</time>
      </trkpt>
      <trkpt lat="54.722839035093784" lon="27.056095032021403">
        <ele>173.66</ele>
        <time>2011-08-15T14:30:46Z</time>
      </trkpt>
      <trkpt lat="54.722782038152218" lon="27.054596012458205">
        <ele>173.66</ele>
        <time>2011-08-15T14:31:07Z</time>
      </trkpt>
      <trkpt lat="54.722733004018664" lon="27.053459007292986">
        <ele>173.66</ele>
        <time>2011-08-15T14:31:23Z</time>
      </trkpt>
      <trkpt lat="54.722710037603974" lon="27.052481006830931">
        <ele>174.62</ele>
        <time>2011-08-15T14:31:37Z</time>
      </trkpt>
      <trkpt lat="54.722652034834027" lon="27.051267977803946">
        <ele>175.58000000000001</ele>
        <time>2011-08-15T14:31:54Z</time>
      </trkpt>
      <trkpt lat="54.722629990428686" lon="27.050787024199963">
        <ele>175.58000000000001</ele>
        <time>2011-08-15T14:32:01Z</time>
      </trkpt>
      <trkpt lat="54.722583973780274" lon="27.049423037096858">
        <ele>175.09999999999999</ele>
        <time>2011-08-15T14:32:19Z</time>
      </trkpt>
      <trkpt lat="54.722534017637372" lon="27.047742968425155">
        <ele>175.09999999999999</ele>
        <time>2011-08-15T14:32:41Z</time>
      </trkpt>
      <trkpt lat="54.722514990717173" lon="27.047281041741371">
        <ele>175.09999999999999</ele>
        <time>2011-08-15T14:32:47Z</time>
      </trkpt>
      <trkpt lat="54.722477020695806" lon="27.045974973589182">
        <ele>175.58000000000001</ele>
        <time>2011-08-15T14:33:04Z</time>
      </trkpt>
      <trkpt lat="54.72242396324873" lon="27.044632025063038">
        <ele>176.53999999999999</ele>
        <time>2011-08-15T14:33:22Z</time>
      </trkpt>
      <trkpt lat="54.722374007105827" lon="27.043246999382973">
        <ele>177.97999999999999</ele>
        <time>2011-08-15T14:33:41Z</time>
      </trkpt>
      <trkpt lat="54.722354980185628" lon="27.042741989716887">
        <ele>177.97999999999999</ele>
        <time>2011-08-15T14:33:48Z</time>
      </trkpt>
      <trkpt lat="54.722312986850739" lon="27.041619988158345">
        <ele>178.46000000000001</ele>
        <time>2011-08-15T14:34:03Z</time>
      </trkpt>
      <trkpt lat="54.722255989909172" lon="27.04029799439013">
        <ele>179.41999999999999</ele>
        <time>2011-08-15T14:34:22Z</time>
      </trkpt>
      <trkpt lat="54.72220603376627" lon="27.039014976471663">
        <ele>179.41999999999999</ele>
        <time>2011-08-15T14:34:40Z</time>
      </trkpt>
      <trkpt lat="54.722167979925871" lon="27.037707986310124">
        <ele>179.90000000000001</ele>
        <time>2011-08-15T14:34:59Z</time>
      </trkpt>
      <trkpt lat="54.722134033218026" lon="27.036698972806334">
        <ele>181.34999999999999</ele>
        <time>2011-08-15T14:35:14Z</time>
      </trkpt>
      <trkpt lat="54.722088016569614" lon="27.03555098734796">
        <ele>182.78999999999999</ele>
        <time>2011-08-15T14:35:31Z</time>
      </trkpt>
      <trkpt lat="54.72192800603807" lon="27.034385986626148">
        <ele>185.19</ele>
        <time>2011-08-15T14:35:51Z</time>
      </trkpt>
      <trkpt lat="54.721534978598356" lon="27.033459031954408">
        <ele>187.11000000000001</ele>
        <time>2011-08-15T14:36:10Z</time>
      </trkpt>
      <trkpt lat="54.721272038295865" lon="27.032845979556441">
        <ele>190.47999999999999</ele>
        <time>2011-08-15T14:36:24Z</time>
      </trkpt>
      <trkpt lat="54.721030974760652" lon="27.032309034839272">
        <ele>193.36000000000001</ele>
        <time>2011-08-15T14:36:39Z</time>
      </trkpt>
      <trkpt lat="54.720821008086205" lon="27.031838977709413">
        <ele>195.77000000000001</ele>
        <time>2011-08-15T14:36:55Z</time>
      </trkpt>
      <trkpt lat="54.720551026985049" lon="27.031276971101761">
        <ele>197.69</ele>
        <time>2011-08-15T14:37:12Z</time>
      </trkpt>
      <trkpt lat="54.72031801007688" lon="27.030796017497778">
        <ele>198.16999999999999</ele>
        <time>2011-08-15T14:37:26Z</time>
      </trkpt>
      <trkpt lat="54.720195969566703" lon="27.030552020296454">
        <ele>198.65000000000001</ele>
        <time>2011-08-15T14:37:33Z</time>
      </trkpt>
      <trkpt lat="54.720111982896924" lon="27.03039200976491">
        <ele>199.13</ele>
        <time>2011-08-15T14:37:38Z</time>
      </trkpt>
      <trkpt lat="54.719783999025822" lon="27.029686002060771">
        <ele>198.16999999999999</ele>
        <time>2011-08-15T14:37:55Z</time>
      </trkpt>
      <trkpt lat="54.719273038208485" lon="27.028570035472512">
        <ele>197.21000000000001</ele>
        <time>2011-08-15T14:38:15Z</time>
      </trkpt>
      <trkpt lat="54.718944970518351" lon="27.027876013889909">
        <ele>196.72999999999999</ele>
        <time>2011-08-15T14:38:27Z</time>
      </trkpt>
      <trkpt lat="54.718754030764103" lon="27.027487009763718">
        <ele>196.25</ele>
        <time>2011-08-15T14:38:34Z</time>
      </trkpt>
      <trkpt lat="54.718242986127734" lon="27.02639602124691">
        <ele>195.28</ele>
        <time>2011-08-15T14:38:52Z</time>
      </trkpt>
      <trkpt lat="54.718211973085999" lon="27.026343969628215">
        <ele>195.28</ele>
        <time>2011-08-15T14:38:53Z</time>
      </trkpt>
      <trkpt lat="54.717662958428264" lon="27.025173017755151">
        <ele>194.31999999999999</ele>
        <time>2011-08-15T14:39:13Z</time>
      </trkpt>
      <trkpt lat="54.71752499230206" lon="27.024868000298738">
        <ele>194.31999999999999</ele>
        <time>2011-08-15T14:39:18Z</time>
      </trkpt>
      <trkpt lat="54.717021994292736" lon="27.02383803203702">
        <ele>194.31999999999999</ele>
        <time>2011-08-15T14:39:36Z</time>
      </trkpt>
      <trkpt lat="54.716456970199943" lon="27.022580998018384">
        <ele>194.31999999999999</ele>
        <time>2011-08-15T14:39:57Z</time>
      </trkpt>
      <trkpt lat="54.716285979375243" lon="27.022152012214065">
        <ele>193.36000000000001</ele>
        <time>2011-08-15T14:40:04Z</time>
      </trkpt>
      <trkpt lat="54.716190006583929" lon="27.021322036162019">
        <ele>194.31999999999999</ele>
        <time>2011-08-15T14:40:15Z</time>
      </trkpt>
      <trkpt lat="54.716144995763898" lon="27.019798038527369">
        <ele>192.88</ele>
        <time>2011-08-15T14:40:35Z</time>
      </trkpt>
      <trkpt lat="54.716095039620996" lon="27.018302958458662">
        <ele>190.96000000000001</ele>
        <time>2011-08-15T14:40:53Z</time>
      </trkpt>
      <trkpt lat="54.716029996052384" lon="27.016612999141216">
        <ele>189.03999999999999</ele>
        <time>2011-08-15T14:41:12Z</time>
      </trkpt>
      <trkpt lat="54.715968975797296" lon="27.014937959611416">
        <ele>187.59</ele>
        <time>2011-08-15T14:41:31Z</time>
      </trkpt>
      <trkpt lat="54.715926982462406" lon="27.013772958889604">
        <ele>186.63</ele>
        <time>2011-08-15T14:41:45Z</time>
      </trkpt>
      <trkpt lat="54.715857999399304" lon="27.012299001216888">
        <ele>185.66999999999999</ele>
        <time>2011-08-15T14:42:02Z</time>
      </trkpt>
      <trkpt lat="54.71580502577126" lon="27.010746002197266">
        <ele>184.71000000000001</ele>
        <time>2011-08-15T14:42:20Z</time>
      </trkpt>
      <trkpt lat="54.715796979144216" lon="27.010581968352199">
        <ele>184.22999999999999</ele>
        <time>2011-08-15T14:42:22Z</time>
      </trkpt>
      <trkpt lat="54.715781975537539" lon="27.010426986962557">
        <ele>184.22999999999999</ele>
        <time>2011-08-15T14:42:24Z</time>
      </trkpt>
      <trkpt lat="54.715785998851061" lon="27.009877972304821">
        <ele>183.75</ele>
        <time>2011-08-15T14:42:31Z</time>
      </trkpt>
      <trkpt lat="54.715832015499473" lon="27.008567964658141">
        <ele>182.78999999999999</ele>
        <time>2011-08-15T14:42:47Z</time>
      </trkpt>
      <trkpt lat="54.715899992734194" lon="27.007161984220147">
        <ele>180.87</ele>
        <time>2011-08-15T14:43:03Z</time>
      </trkpt>
      <trkpt lat="54.716025972738862" lon="27.006235029548407">
        <ele>180.87</ele>
        <time>2011-08-15T14:43:14Z</time>
      </trkpt>
      <trkpt lat="54.716248009353876" lon="27.004913035780191">
        <ele>179.90000000000001</ele>
        <time>2011-08-15T14:43:30Z</time>
      </trkpt>
      <trkpt lat="54.716423023492098" lon="27.00375197455287">
        <ele>179.41999999999999</ele>
        <time>2011-08-15T14:43:44Z</time>
      </trkpt>
      <trkpt lat="54.7166439704597" lon="27.002370972186327">
        <ele>179.90000000000001</ele>
        <time>2011-08-15T14:44:01Z</time>
      </trkpt>
      <trkpt lat="54.716866007074714" lon="27.000907994806767">
        <ele>178.94</ele>
        <time>2011-08-15T14:44:19Z</time>
      </trkpt>
      <trkpt lat="54.716948987916112" lon="27.000359985977411">
        <ele>179.41999999999999</ele>
        <time>2011-08-15T14:44:26Z</time>
      </trkpt>
      <trkpt lat="54.716972038149834" lon="26.999982967972755">
        <ele>178.94</ele>
        <time>2011-08-15T14:44:31Z</time>
      </trkpt>
      <trkpt lat="54.717193990945816" lon="26.998635996133089">
        <ele>180.87</ele>
        <time>2011-08-15T14:44:50Z</time>
      </trkpt>
      <trkpt lat="54.717219974845648" lon="26.998493000864983">
        <ele>180.87</ele>
        <time>2011-08-15T14:44:52Z</time>
      </trkpt>
      <trkpt lat="54.71724696457386" lon="26.998357968404889">
        <ele>180.38</ele>
        <time>2011-08-15T14:44:54Z</time>
      </trkpt>
      <trkpt lat="54.717322988435626" lon="26.997857987880707">
        <ele>181.34999999999999</ele>
        <time>2011-08-15T14:45:01Z</time>
      </trkpt>
      <trkpt lat="54.717505965381861" lon="26.996678989380598">
        <ele>182.31</ele>
        <time>2011-08-15T14:45:17Z</time>
      </trkpt>
      <trkpt lat="54.71756698563695" lon="26.996301971375942">
        <ele>182.78999999999999</ele>
        <time>2011-08-15T14:45:22Z</time>
      </trkpt>
      <trkpt lat="54.717804025858641" lon="26.994783002883196">
        <ele>183.75</ele>
        <time>2011-08-15T14:45:42Z</time>
      </trkpt>
      <trkpt lat="54.717834033071995" lon="26.993711041286588">
        <ele>183.75</ele>
        <time>2011-08-15T14:45:56Z</time>
      </trkpt>
      <trkpt lat="54.717777036130428" lon="26.992221996188164">
        <ele>182.31</ele>
        <time>2011-08-15T14:46:13Z</time>
      </trkpt>
      <trkpt lat="54.71773898229003" lon="26.991050960496068">
        <ele>183.75</ele>
        <time>2011-08-15T14:46:29Z</time>
      </trkpt>
      <trkpt lat="54.717734958976507" lon="26.990294996649027">
        <ele>182.78999999999999</ele>
        <time>2011-08-15T14:46:41Z</time>
      </trkpt>
      <trkpt lat="54.717728001996875" lon="26.989683033898473">
        <ele>182.78999999999999</ele>
        <time>2011-08-15T14:46:51Z</time>
      </trkpt>
      <trkpt lat="54.717731019482017" lon="26.989107029512525">
        <ele>178.46000000000001</ele>
        <time>2011-08-15T14:47:01Z</time>
      </trkpt>
      <trkpt lat="54.717731019482017" lon="26.989046009257436">
        <ele>182.78999999999999</ele>
        <time>2011-08-15T14:47:02Z</time>
      </trkpt>
      <trkpt lat="54.717743005603552" lon="26.988920029252768">
        <ele>182.31</ele>
        <time>2011-08-15T14:47:04Z</time>
      </trkpt>
      <trkpt lat="54.717792961746454" lon="26.988487020134926">
        <ele>181.83000000000001</ele>
        <time>2011-08-15T14:47:10Z</time>
      </trkpt>
      <trkpt lat="54.717822968959808" lon="26.987815964967012">
        <ele>181.83000000000001</ele>
        <time>2011-08-15T14:47:18Z</time>
      </trkpt>
      <trkpt lat="54.717826992273331" lon="26.987660983577371">
        <ele>181.83000000000001</ele>
        <time>2011-08-15T14:47:20Z</time>
      </trkpt>
      <trkpt lat="54.717822968959808" lon="26.987584959715605">
        <ele>182.31</ele>
        <time>2011-08-15T14:47:21Z</time>
      </trkpt>
      <trkpt lat="54.717826992273331" lon="26.987507008016109">
        <ele>182.31</ele>
        <time>2011-08-15T14:47:22Z</time>
      </trkpt>
      <trkpt lat="54.717837972566485" lon="26.987350014969707">
        <ele>182.31</ele>
        <time>2011-08-15T14:47:24Z</time>
      </trkpt>
      <trkpt lat="54.717837972566485" lon="26.987267034128308">
        <ele>181.83000000000001</ele>
        <time>2011-08-15T14:47:25Z</time>
      </trkpt>
      <trkpt lat="54.717837972566485" lon="26.98718598112464">
        <ele>181.34999999999999</ele>
        <time>2011-08-15T14:47:26Z</time>
      </trkpt>
      <trkpt lat="54.717841995880008" lon="26.987106017768383">
        <ele>181.34999999999999</ele>
        <time>2011-08-15T14:47:27Z</time>
      </trkpt>
      <trkpt lat="54.71784601919353" lon="26.987027982249856">
        <ele>181.83000000000001</ele>
        <time>2011-08-15T14:47:28Z</time>
      </trkpt>
      <trkpt lat="54.71784601919353" lon="26.986950030550361">
        <ele>181.83000000000001</ele>
        <time>2011-08-15T14:47:29Z</time>
      </trkpt>
      <trkpt lat="54.717849958688021" lon="26.986871995031834">
        <ele>181.83000000000001</ele>
        <time>2011-08-15T14:47:30Z</time>
      </trkpt>
      <trkpt lat="54.717861022800207" lon="26.985884020105004">
        <ele>180.87</ele>
        <time>2011-08-15T14:47:44Z</time>
      </trkpt>
      <trkpt lat="54.717879965901375" lon="26.984954969957471">
        <ele>179.41999999999999</ele>
        <time>2011-08-15T14:47:57Z</time>
      </trkpt>
      <trkpt lat="54.717883989214897" lon="26.984883975237608">
        <ele>179.41999999999999</ele>
        <time>2011-08-15T14:47:58Z</time>
      </trkpt>
      <trkpt lat="54.717915002256632" lon="26.983632976189256">
        <ele>177.5</ele>
        <time>2011-08-15T14:48:15Z</time>
      </trkpt>
      <trkpt lat="54.717918019741774" lon="26.983553012832999">
        <ele>177.5</ele>
        <time>2011-08-15T14:48:16Z</time>
      </trkpt>
      <trkpt lat="54.717925982549787" lon="26.983471037819982">
        <ele>177.02000000000001</ele>
        <time>2011-08-15T14:48:17Z</time>
      </trkpt>
      <trkpt lat="54.717952972277999" lon="26.982344007119536">
        <ele>177.02000000000001</ele>
        <time>2011-08-15T14:48:31Z</time>
      </trkpt>
      <trkpt lat="54.717952972277999" lon="26.982271000742912">
        <ele>176.53999999999999</ele>
        <time>2011-08-15T14:48:32Z</time>
      </trkpt>
      <trkpt lat="54.717979039996862" lon="26.981155034154654">
        <ele>176.06</ele>
        <time>2011-08-15T14:48:47Z</time>
      </trkpt>
      <trkpt lat="54.717991026118398" lon="26.98095696978271">
        <ele>176.53999999999999</ele>
        <time>2011-08-15T14:48:55Z</time>
      </trkpt>
      <trkpt lat="54.717991026118398" lon="26.98095696978271">
        <ele>173.16999999999999</ele>
        <time>2011-08-15T14:48:59Z</time>
      </trkpt>
      <trkpt lat="54.717991026118398" lon="26.98095696978271">
        <ele>177.02000000000001</ele>
        <time>2011-08-15T14:49:00Z</time>
      </trkpt>
      <trkpt lat="54.717991026118398" lon="26.98095696978271">
        <ele>178.46000000000001</ele>
        <time>2011-08-15T14:49:03Z</time>
      </trkpt>
      <trkpt lat="54.717991026118398" lon="26.98095696978271">
        <ele>176.06</ele>
        <time>2011-08-15T14:49:05Z</time>
      </trkpt>
      <trkpt lat="54.717991026118398" lon="26.98095696978271">
        <ele>177.02000000000001</ele>
        <time>2011-08-15T14:49:11Z</time>
      </trkpt>
      <trkpt lat="54.717994965612888" lon="26.980943977832794">
        <ele>176.53999999999999</ele>
        <time>2011-08-15T14:49:14Z</time>
      </trkpt>
      <trkpt lat="54.717998988926411" lon="26.980899972841144">
        <ele>176.53999999999999</ele>
        <time>2011-08-15T14:49:16Z</time>
      </trkpt>
      <trkpt lat="54.717998988926411" lon="26.980865020304918">
        <ele>174.13999999999999</ele>
        <time>2011-08-15T14:49:17Z</time>
      </trkpt>
      <trkpt lat="54.717998988926411" lon="26.980824032798409">
        <ele>177.02000000000001</ele>
        <time>2011-08-15T14:49:18Z</time>
      </trkpt>
      <trkpt lat="54.718036958947778" lon="26.980387000367045">
        <ele>176.06</ele>
        <time>2011-08-15T14:49:25Z</time>
      </trkpt>
      <trkpt lat="54.718033019453287" lon="26.980103021487594">
        <ele>176.06</ele>
        <time>2011-08-15T14:49:29Z</time>
      </trkpt>
      <trkpt lat="54.718036958947778" lon="26.980032026767731">
        <ele>176.06</ele>
        <time>2011-08-15T14:49:30Z</time>
      </trkpt>
      <trkpt lat="54.718043999746442" lon="26.979958014562726">
        <ele>176.06</ele>
        <time>2011-08-15T14:49:31Z</time>
      </trkpt>
      <trkpt lat="54.718043999746442" lon="26.979878973215818">
        <ele>176.06</ele>
        <time>2011-08-15T14:49:32Z</time>
      </trkpt>
      <trkpt lat="54.718048023059964" lon="26.979801021516323">
        <ele>176.53999999999999</ele>
        <time>2011-08-15T14:49:33Z</time>
      </trkpt>
      <trkpt lat="54.718048023059964" lon="26.979568004608154">
        <ele>176.06</ele>
        <time>2011-08-15T14:49:36Z</time>
      </trkpt>
      <trkpt lat="54.718048023059964" lon="26.979491980746388">
        <ele>176.53999999999999</ele>
        <time>2011-08-15T14:49:37Z</time>
      </trkpt>
      <trkpt lat="54.718060009181499" lon="26.978336032480001">
        <ele>177.02000000000001</ele>
        <time>2011-08-15T14:49:52Z</time>
      </trkpt>
      <trkpt lat="54.718063026666641" lon="26.978104021400213">
        <ele>177.5</ele>
        <time>2011-08-15T14:49:55Z</time>
      </trkpt>
      <trkpt lat="54.718060009181499" lon="26.978024980053306">
        <ele>177.5</ele>
        <time>2011-08-15T14:49:56Z</time>
      </trkpt>
      <trkpt lat="54.718051962554455" lon="26.977115962654352">
        <ele>177.97999999999999</ele>
        <time>2011-08-15T14:50:09Z</time>
      </trkpt>
      <trkpt lat="54.71803997643292" lon="26.97706600651145">
        <ele>176.06</ele>
        <time>2011-08-15T14:50:18Z</time>
      </trkpt>
      <trkpt lat="54.71803997643292" lon="26.97706600651145">
        <ele>179.41999999999999</ele>
        <time>2011-08-15T14:50:19Z</time>
      </trkpt>
      <trkpt lat="54.71803997643292" lon="26.97706600651145">
        <ele>179.41999999999999</ele>
        <time>2011-08-15T14:50:20Z</time>
      </trkpt>
      <trkpt lat="54.71803997643292" lon="26.97706600651145">
        <ele>174.13999999999999</ele>
        <time>2011-08-15T14:50:24Z</time>
      </trkpt>
      <trkpt lat="54.71803997643292" lon="26.97706600651145">
        <ele>178.46000000000001</ele>
        <time>2011-08-15T14:50:25Z</time>
      </trkpt>
      <trkpt lat="54.71803997643292" lon="26.97706600651145">
        <ele>177.97999999999999</ele>
        <time>2011-08-15T14:50:26Z</time>
      </trkpt>
      <trkpt lat="54.71803997643292" lon="26.977026024833322">
        <ele>177.97999999999999</ele>
        <time>2011-08-15T14:50:28Z</time>
      </trkpt>
      <trkpt lat="54.71803997643292" lon="26.976994005963206">
        <ele>177.97999999999999</ele>
        <time>2011-08-15T14:50:29Z</time>
      </trkpt>
      <trkpt lat="54.71803997643292" lon="26.976952012628317">
        <ele>177.5</ele>
        <time>2011-08-15T14:50:30Z</time>
      </trkpt>
      <trkpt lat="54.718028996139765" lon="26.976037966087461">
        <ele>177.02000000000001</ele>
        <time>2011-08-15T14:50:43Z</time>
      </trkpt>
      <trkpt lat="54.718021033331752" lon="26.975874016061425">
        <ele>177.02000000000001</ele>
        <time>2011-08-15T14:50:45Z</time>
      </trkpt>
      <trkpt lat="54.717994965612888" lon="26.975561035797">
        <ele>177.5</ele>
        <time>2011-08-15T14:50:49Z</time>
      </trkpt>
      <trkpt lat="54.717991026118398" lon="26.975489035248756">
        <ele>177.5</ele>
        <time>2011-08-15T14:50:50Z</time>
      </trkpt>
      <trkpt lat="54.717987002804875" lon="26.975414017215371">
        <ele>177.02000000000001</ele>
        <time>2011-08-15T14:50:51Z</time>
      </trkpt>
      <trkpt lat="54.717991026118398" lon="26.975342016667128">
        <ele>177.5</ele>
        <time>2011-08-15T14:50:52Z</time>
      </trkpt>
      <trkpt lat="54.717991026118398" lon="26.975265992805362">
        <ele>177.02000000000001</ele>
        <time>2011-08-15T14:50:53Z</time>
      </trkpt>
      <trkpt lat="54.717991026118398" lon="26.975187035277486">
        <ele>177.02000000000001</ele>
        <time>2011-08-15T14:50:54Z</time>
      </trkpt>
      <trkpt lat="54.717982979491353" lon="26.97493901476264">
        <ele>177.02000000000001</ele>
        <time>2011-08-15T14:50:57Z</time>
      </trkpt>
      <trkpt lat="54.717945009469986" lon="26.973622972145677">
        <ele>175.58000000000001</ele>
        <time>2011-08-15T14:51:15Z</time>
      </trkpt>
      <trkpt lat="54.717918019741774" lon="26.972956024110317">
        <ele>174.13999999999999</ele>
        <time>2011-08-15T14:51:23Z</time>
      </trkpt>
      <trkpt lat="54.717915002256632" lon="26.972873965278268">
        <ele>173.66</ele>
        <time>2011-08-15T14:51:24Z</time>
      </trkpt>
      <trkpt lat="54.717849958688021" lon="26.971034975722432">
        <ele>172.69</ele>
        <time>2011-08-15T14:51:45Z</time>
      </trkpt>
      <trkpt lat="54.717841995880008" lon="26.970959035679698">
        <ele>172.21000000000001</ele>
        <time>2011-08-15T14:51:46Z</time>
      </trkpt>
      <trkpt lat="54.717822968959808" lon="26.970662986859679">
        <ele>171.72999999999999</ele>
        <time>2011-08-15T14:51:50Z</time>
      </trkpt>
      <trkpt lat="54.717815006151795" lon="26.970443967729807">
        <ele>171.72999999999999</ele>
        <time>2011-08-15T14:51:53Z</time>
      </trkpt>
      <trkpt lat="54.717804025858641" lon="26.970079019665718">
        <ele>171.25</ele>
        <time>2011-08-15T14:51:58Z</time>
      </trkpt>
      <trkpt lat="54.717792961746454" lon="26.969118034467101">
        <ele>170.28999999999999</ele>
        <time>2011-08-15T14:52:11Z</time>
      </trkpt>
      <trkpt lat="54.717708975076675" lon="26.967823030427098">
        <ele>170.28999999999999</ele>
        <time>2011-08-15T14:52:29Z</time>
      </trkpt>
      <trkpt lat="54.717514012008905" lon="26.966803036630154">
        <ele>171.25</ele>
        <time>2011-08-15T14:52:46Z</time>
      </trkpt>
      <trkpt lat="54.717318965122104" lon="26.96630297228694">
        <ele>171.25</ele>
        <time>2011-08-15T14:52:56Z</time>
      </trkpt>
      <trkpt lat="54.71705200150609" lon="26.965411975979805">
        <ele>171.72999999999999</ele>
        <time>2011-08-15T14:53:11Z</time>
      </trkpt>
      <trkpt lat="54.716827031224966" lon="26.964699011296034">
        <ele>169.81</ele>
        <time>2011-08-15T14:53:23Z</time>
      </trkpt>
      <trkpt lat="54.716640030965209" lon="26.963942963629961">
        <ele>171.72999999999999</ele>
        <time>2011-08-15T14:53:35Z</time>
      </trkpt>
      <trkpt lat="54.716533999890089" lon="26.963208960369229">
        <ele>171.72999999999999</ele>
        <time>2011-08-15T14:53:46Z</time>
      </trkpt>
      <trkpt lat="54.716419000178576" lon="26.96247898042202">
        <ele>172.21000000000001</ele>
        <time>2011-08-15T14:53:58Z</time>
      </trkpt>
      <trkpt lat="54.716315986588597" lon="26.961622014641762">
        <ele>171.72999999999999</ele>
        <time>2011-08-15T14:54:11Z</time>
      </trkpt>
      <trkpt lat="54.716227976605296" lon="26.960804024711251">
        <ele>171.72999999999999</ele>
        <time>2011-08-15T14:54:23Z</time>
      </trkpt>
      <trkpt lat="54.716103002429008" lon="26.95989802479744">
        <ele>171.72999999999999</ele>
        <time>2011-08-15T14:54:36Z</time>
      </trkpt>
      <trkpt lat="54.715980961918831" lon="26.959069976583123">
        <ele>172.69</ele>
        <time>2011-08-15T14:54:49Z</time>
      </trkpt>
      <trkpt lat="54.715874008834362" lon="26.95815802551806">
        <ele>172.69</ele>
        <time>2011-08-15T14:55:03Z</time>
      </trkpt>
      <trkpt lat="54.715739982202649" lon="26.957224030047655">
        <ele>173.16999999999999</ele>
        <time>2011-08-15T14:55:18Z</time>
      </trkpt>
      <trkpt lat="54.715598998591304" lon="26.956368992105126">
        <ele>173.16999999999999</ele>
        <time>2011-08-15T14:55:32Z</time>
      </trkpt>
      <trkpt lat="54.715480981394649" lon="26.955484030768275">
        <ele>172.69</ele>
        <time>2011-08-15T14:55:46Z</time>
      </trkpt>
      <trkpt lat="54.715449968352914" lon="26.95528001524508">
        <ele>172.69</ele>
        <time>2011-08-15T14:55:49Z</time>
      </trkpt>
      <trkpt lat="54.715405041351914" lon="26.954940967261791">
        <ele>172.69</ele>
        <time>2011-08-15T14:55:54Z</time>
      </trkpt>
      <trkpt lat="54.715335974469781" lon="26.954392958432436">
        <ele>172.21000000000001</ele>
        <time>2011-08-15T14:56:02Z</time>
      </trkpt>
      <trkpt lat="54.715290041640401" lon="26.954019963741302">
        <ele>171.72999999999999</ele>
        <time>2011-08-15T14:56:07Z</time>
      </trkpt>
      <trkpt lat="54.715178981423378" lon="26.953464997932315">
        <ele>171.72999999999999</ele>
        <time>2011-08-15T14:56:14Z</time>
      </trkpt>
      <trkpt lat="54.715057024732232" lon="26.952683972194791">
        <ele>170.77000000000001</ele>
        <time>2011-08-15T14:56:24Z</time>
      </trkpt>
      <trkpt lat="54.714996004477143" lon="26.952374009415507">
        <ele>170.77000000000001</ele>
        <time>2011-08-15T14:56:28Z</time>
      </trkpt>
      <trkpt lat="54.714886033907533" lon="26.951796999201179">
        <ele>170.28999999999999</ele>
        <time>2011-08-15T14:56:36Z</time>
      </trkpt>
      <trkpt lat="54.714756030589342" lon="26.950951013714075">
        <ele>170.28999999999999</ele>
        <time>2011-08-15T14:56:48Z</time>
      </trkpt>
      <trkpt lat="54.714744966477156" lon="26.950873984023929">
        <ele>170.77000000000001</ele>
        <time>2011-08-15T14:56:49Z</time>
      </trkpt>
      <trkpt lat="54.714671960100532" lon="26.950337961316109">
        <ele>170.28999999999999</ele>
        <time>2011-08-15T14:56:56Z</time>
      </trkpt>
      <trkpt lat="54.714596020057797" lon="26.949981981888413">
        <ele>170.28999999999999</ele>
        <time>2011-08-15T14:57:01Z</time>
      </trkpt>
      <trkpt lat="54.714565007016063" lon="26.949664978310466">
        <ele>170.28999999999999</ele>
        <time>2011-08-15T14:57:05Z</time>
      </trkpt>
      <trkpt lat="54.714470040053129" lon="26.949200034141541">
        <ele>169.81</ele>
        <time>2011-08-15T14:57:11Z</time>
      </trkpt>
      <trkpt lat="54.714412959292531" lon="26.948956958949566">
        <ele>169.81</ele>
        <time>2011-08-15T14:57:14Z</time>
      </trkpt>
      <trkpt lat="54.714336013421416" lon="26.948549011722207">
        <ele>170.28999999999999</ele>
        <time>2011-08-15T14:57:19Z</time>
      </trkpt>
      <trkpt lat="54.714191006496549" lon="26.948228990659118">
        <ele>169.81</ele>
        <time>2011-08-15T14:57:24Z</time>
      </trkpt>
      <trkpt lat="54.714038958773017" lon="26.947936965152621">
        <ele>170.28999999999999</ele>
        <time>2011-08-15T14:57:29Z</time>
      </trkpt>
      <trkpt lat="54.71393602900207" lon="26.947778966277838">
        <ele>169.81</ele>
        <time>2011-08-15T14:57:32Z</time>
      </trkpt>
      <trkpt lat="54.713481981307268" lon="26.947144037112594">
        <ele>175.09999999999999</ele>
        <time>2011-08-15T14:57:45Z</time>
      </trkpt>
      <trkpt lat="54.713454991579056" lon="26.947103971615434">
        <ele>171.25</ele>
        <time>2011-08-15T14:57:46Z</time>
      </trkpt>
      <trkpt lat="54.713428001850843" lon="26.947069019079208">
        <ele>174.13999999999999</ele>
        <time>2011-08-15T14:57:47Z</time>
      </trkpt>
      <trkpt lat="54.713402017951012" lon="26.947034988552332">
        <ele>170.28999999999999</ele>
        <time>2011-08-15T14:57:48Z</time>
      </trkpt>
      <trkpt lat="54.713038997724652" lon="26.946468036621809">
        <ele>170.28999999999999</ele>
        <time>2011-08-15T14:58:00Z</time>
      </trkpt>
      <trkpt lat="54.712440026924014" lon="26.945535968989134">
        <ele>170.28999999999999</ele>
        <time>2011-08-15T14:58:18Z</time>
      </trkpt>
      <trkpt lat="54.712154036387801" lon="26.945094997063279">
        <ele>169.81</ele>
        <time>2011-08-15T14:58:27Z</time>
      </trkpt>
      <trkpt lat="54.712105002254248" lon="26.944765001535416">
        <ele>170.77000000000001</ele>
        <time>2011-08-15T14:58:35Z</time>
      </trkpt>
      <trkpt lat="54.712105002254248" lon="26.944765001535416">
        <ele>170.77000000000001</ele>
        <time>2011-08-15T14:58:51Z</time>
      </trkpt>
      <trkpt lat="54.712105002254248" lon="26.944762989878654">
        <ele>170.28999999999999</ele>
        <time>2011-08-15T14:59:17Z</time>
      </trkpt>
      <trkpt lat="54.712115982547402" lon="26.944757038727403">
        <ele>170.28999999999999</ele>
        <time>2011-08-15T14:59:28Z</time>
      </trkpt>
      <trkpt lat="54.712241962552071" lon="26.944657964631915">
        <ele>170.28999999999999</ele>
        <time>2011-08-15T14:59:36Z</time>
      </trkpt>
      <trkpt lat="54.712658040225506" lon="26.94432302378118">
        <ele>169.81</ele>
        <time>2011-08-15T14:59:53Z</time>
      </trkpt>
      <trkpt lat="54.713219041004777" lon="26.943814996629953">
        <ele>169.33000000000001</ele>
        <time>2011-08-15T15:00:10Z</time>
      </trkpt>
      <trkpt lat="54.713843995705247" lon="26.943285008892417">
        <ele>169.33000000000001</ele>
        <time>2011-08-15T15:00:28Z</time>
      </trkpt>
      <trkpt lat="54.714446989819407" lon="26.942779999226332">
        <ele>168.37</ele>
        <time>2011-08-15T15:00:44Z</time>
      </trkpt>
      <trkpt lat="54.715057024732232" lon="26.942293010652065">
        <ele>167.88999999999999</ele>
        <time>2011-08-15T15:01:01Z</time>
      </trkpt>
      <trkpt lat="54.715423984453082" lon="26.941938037052751">
        <ele>167.41</ele>
        <time>2011-08-15T15:01:12Z</time>
      </trkpt>
      <trkpt lat="54.715857999399304" lon="26.941446019336581">
        <ele>166.93000000000001</ele>
        <time>2011-08-15T15:01:26Z</time>
      </trkpt>
      <trkpt lat="54.716052962467074" lon="26.941049974411726">
        <ele>165.96000000000001</ele>
        <time>2011-08-15T15:01:38Z</time>
      </trkpt>
      <trkpt lat="54.716098979115486" lon="26.940473970025778">
        <ele>165.47999999999999</ele>
        <time>2011-08-15T15:01:50Z</time>
      </trkpt>
      <trkpt lat="54.716137032955885" lon="26.939767962321639">
        <ele>165</ele>
        <time>2011-08-15T15:02:01Z</time>
      </trkpt>
      <trkpt lat="54.716164022684097" lon="26.939047034829855">
        <ele>165.96000000000001</ele>
        <time>2011-08-15T15:02:12Z</time>
      </trkpt>
      <trkpt lat="54.71617097966373" lon="26.938992971554399">
        <ele>165.96000000000001</ele>
        <time>2011-08-15T15:02:13Z</time>
      </trkpt>
      <trkpt lat="54.716309029608965" lon="26.938725002110004">
        <ele>164.52000000000001</ele>
        <time>2011-08-15T15:02:25Z</time>
      </trkpt>
      <trkpt lat="54.716330990195274" lon="26.938678985461593">
        <ele>164.03999999999999</ele>
        <time>2011-08-15T15:02:34Z</time>
      </trkpt>
      <trkpt lat="54.716362003237009" lon="26.938592987135053">
        <ele>164.03999999999999</ele>
        <time>2011-08-15T15:02:38Z</time>
      </trkpt>
      <trkpt lat="54.716507010161877" lon="26.9382209982723">
        <ele>164.03999999999999</ele>
        <time>2011-08-15T15:02:52Z</time>
      </trkpt>
      <trkpt lat="54.716640030965209" lon="26.937912041321397">
        <ele>165.96000000000001</ele>
        <time>2011-08-15T15:03:05Z</time>
      </trkpt>
      <trkpt lat="54.7167700342834" lon="26.937605012208223">
        <ele>166.93000000000001</ele>
        <time>2011-08-15T15:03:15Z</time>
      </trkpt>
      <trkpt lat="54.717036997899413" lon="26.937396973371506">
        <ele>168.84999999999999</ele>
        <time>2011-08-15T15:03:28Z</time>
      </trkpt>
      <trkpt lat="54.717346038669348" lon="26.937196981161833">
        <ele>170.77000000000001</ele>
        <time>2011-08-15T15:03:42Z</time>
      </trkpt>
      <trkpt lat="54.717765972018242" lon="26.936851982027292">
        <ele>171.72999999999999</ele>
        <time>2011-08-15T15:03:58Z</time>
      </trkpt>
      <trkpt lat="54.718117006123066" lon="26.936356024816632">
        <ele>173.16999999999999</ele>
        <time>2011-08-15T15:04:14Z</time>
      </trkpt>
      <trkpt lat="54.717967975884676" lon="26.935982024297118">
        <ele>173.66</ele>
        <time>2011-08-15T15:04:23Z</time>
      </trkpt>
      <trkpt lat="54.717503031715751" lon="26.93547198548913">
        <ele>173.66</ele>
        <time>2011-08-15T15:04:39Z</time>
      </trkpt>
      <trkpt lat="54.716938007622957" lon="26.934895981103182">
        <ele>174.13999999999999</ele>
        <time>2011-08-15T15:04:56Z</time>
      </trkpt>
      <trkpt lat="54.716704990714788" lon="26.934680985286832">
        <ele>174.62</ele>
        <time>2011-08-15T15:05:08Z</time>
      </trkpt>
      <trkpt lat="54.71662100404501" lon="26.934629017487168">
        <ele>174.62</ele>
        <time>2011-08-15T15:05:21Z</time>
      </trkpt>
      <trkpt lat="54.716613963246346" lon="26.934619965031743">
        <ele>174.62</ele>
        <time>2011-08-15T15:05:22Z</time>
      </trkpt>
      <trkpt lat="54.716606000438333" lon="26.934604961425066">
        <ele>175.09999999999999</ele>
        <time>2011-08-15T15:05:23Z</time>
      </trkpt>
      <trkpt lat="54.716598959639668" lon="26.934586018323898">
        <ele>175.09999999999999</ele>
        <time>2011-08-15T15:05:24Z</time>
      </trkpt>
      <trkpt lat="54.716586973518133" lon="26.934564979746938">
        <ele>175.09999999999999</ele>
        <time>2011-08-15T15:05:25Z</time>
      </trkpt>
      <trkpt lat="54.716568030416965" lon="26.934544024989009">
        <ele>174.62</ele>
        <time>2011-08-15T15:05:26Z</time>
      </trkpt>
      <trkpt lat="54.716445989906788" lon="26.934409998357296">
        <ele>174.13999999999999</ele>
        <time>2011-08-15T15:05:30Z</time>
      </trkpt>
      <trkpt lat="54.716408019885421" lon="26.934372028335929">
        <ele>174.13999999999999</ele>
        <time>2011-08-15T15:05:31Z</time>
      </trkpt>
      <trkpt lat="54.715862022712827" lon="26.933789988979697">
        <ele>173.16999999999999</ele>
        <time>2011-08-15T15:05:44Z</time>
      </trkpt>
      <trkpt lat="54.715640991926193" lon="26.933532999828458">
        <ele>177.5</ele>
        <time>2011-08-15T15:05:52Z</time>
      </trkpt>
      <trkpt lat="54.715618025511503" lon="26.933503998443484">
        <ele>171.25</ele>
        <time>2011-08-15T15:05:53Z</time>
      </trkpt>
      <trkpt lat="54.715594975277781" lon="26.93347399123013">
        <ele>173.66</ele>
        <time>2011-08-15T15:05:54Z</time>
      </trkpt>
      <trkpt lat="54.715133970603347" lon="26.93291500210762">
        <ele>173.66</ele>
        <time>2011-08-15T15:06:13Z</time>
      </trkpt>
      <trkpt lat="54.714725017547607" lon="26.932391971349716">
        <ele>172.21000000000001</ele>
        <time>2011-08-15T15:06:26Z</time>
      </trkpt>
      <trkpt lat="54.714699033647776" lon="26.932343021035194">
        <ele>172.69</ele>
        <time>2011-08-15T15:06:27Z</time>
      </trkpt>
      <trkpt lat="54.714642036706209" lon="26.932237995788455">
        <ele>172.69</ele>
        <time>2011-08-15T15:06:29Z</time>
      </trkpt>
      <trkpt lat="54.714618986472487" lon="26.932182004675269">
        <ele>172.69</ele>
        <time>2011-08-15T15:06:30Z</time>
      </trkpt>
      <trkpt lat="54.714340036734939" lon="26.93128396756947">
        <ele>172.69</ele>
        <time>2011-08-15T15:06:45Z</time>
      </trkpt>
      <trkpt lat="54.714030995965004" lon="26.930205971002579">
        <ele>173.16999999999999</ele>
        <time>2011-08-15T15:07:02Z</time>
      </trkpt>
      <trkpt lat="54.713707035407424" lon="26.929015992209315">
        <ele>176.53999999999999</ele>
        <time>2011-08-15T15:07:19Z</time>
      </trkpt>
      <trkpt lat="54.713688008487225" lon="26.928943991661072">
        <ele>170.77000000000001</ele>
        <time>2011-08-15T15:07:20Z</time>
      </trkpt>
      <trkpt lat="54.713673004880548" lon="26.928872996941209">
        <ele>177.02000000000001</ele>
        <time>2011-08-15T15:07:21Z</time>
      </trkpt>
      <trkpt lat="54.713661018759012" lon="26.928802002221346">
        <ele>173.66</ele>
        <time>2011-08-15T15:07:22Z</time>
      </trkpt>
      <trkpt lat="54.713631011545658" lon="26.928666969761252">
        <ele>172.69</ele>
        <time>2011-08-15T15:07:24Z</time>
      </trkpt>
      <trkpt lat="54.713284000754356" lon="26.927257971838117">
        <ele>172.21000000000001</ele>
        <time>2011-08-15T15:07:43Z</time>
      </trkpt>
      <trkpt lat="54.712959034368396" lon="26.9258479680866">
        <ele>172.21000000000001</ele>
        <time>2011-08-15T15:08:01Z</time>
      </trkpt>
      <trkpt lat="54.712676983326674" lon="26.924581965431571">
        <ele>171.25</ele>
        <time>2011-08-15T15:08:17Z</time>
      </trkpt>
      <trkpt lat="54.712482020258904" lon="26.923692980781198">
        <ele>171.25</ele>
        <time>2011-08-15T15:08:28Z</time>
      </trkpt>
      <trkpt lat="54.712146995589137" lon="26.922164959833026">
        <ele>170.77000000000001</ele>
        <time>2011-08-15T15:08:47Z</time>
      </trkpt>
      <trkpt lat="54.711819011718035" lon="26.920654037967324">
        <ele>170.28999999999999</ele>
        <time>2011-08-15T15:09:05Z</time>
      </trkpt>
      <trkpt lat="54.711472000926733" lon="26.919087963178754">
        <ele>170.28999999999999</ele>
        <time>2011-08-15T15:09:24Z</time>
      </trkpt>
      <trkpt lat="54.711139993742108" lon="26.917649963870645">
        <ele>170.77000000000001</ele>
        <time>2011-08-15T15:09:41Z</time>
      </trkpt>
      <trkpt lat="54.710761969909072" lon="26.915991017594934">
        <ele>169.81</ele>
        <time>2011-08-15T15:10:01Z</time>
      </trkpt>
      <trkpt lat="54.710429962724447" lon="26.914542960003018">
        <ele>170.28999999999999</ele>
        <time>2011-08-15T15:10:18Z</time>
      </trkpt>
      <trkpt lat="54.71011002548039" lon="26.913121975958347">
        <ele>168.84999999999999</ele>
        <time>2011-08-15T15:10:35Z</time>
      </trkpt>
      <trkpt lat="54.709697971120477" lon="26.91145297139883">
        <ele>167.88999999999999</ele>
        <time>2011-08-15T15:10:55Z</time>
      </trkpt>
      <trkpt lat="54.709395971149206" lon="26.910329964011908">
        <ele>167.41</ele>
        <time>2011-08-15T15:11:09Z</time>
      </trkpt>
      <trkpt lat="54.709160020574927" lon="26.909435028210282">
        <ele>166.93000000000001</ele>
        <time>2011-08-15T15:11:20Z</time>
      </trkpt>
      <trkpt lat="54.709206037223339" lon="26.908921971917152">
        <ele>166.44999999999999</ele>
        <time>2011-08-15T15:11:27Z</time>
      </trkpt>
      <trkpt lat="54.709248030558228" lon="26.908782999962568">
        <ele>166.93000000000001</ele>
        <time>2011-08-15T15:11:29Z</time>
      </trkpt>
      <trkpt lat="54.70927401445806" lon="26.908716028556228">
        <ele>166.44999999999999</ele>
        <time>2011-08-15T15:11:30Z</time>
      </trkpt>
      <trkpt lat="54.709681961685419" lon="26.907639037817717">
        <ele>166.44999999999999</ele>
        <time>2011-08-15T15:11:45Z</time>
      </trkpt>
      <trkpt lat="54.710026038810611" lon="26.90670202486217">
        <ele>166.93000000000001</ele>
        <time>2011-08-15T15:12:00Z</time>
      </trkpt>
      <trkpt lat="54.710396016016603" lon="26.90573500469327">
        <ele>167.41</ele>
        <time>2011-08-15T15:12:16Z</time>
      </trkpt>
      <trkpt lat="54.710754007101059" lon="26.904804026708007">
        <ele>168.84999999999999</ele>
        <time>2011-08-15T15:12:32Z</time>
      </trkpt>
      <trkpt lat="54.710933966562152" lon="26.904452992603183">
        <ele>174.62</ele>
        <time>2011-08-15T15:12:40Z</time>
      </trkpt>
      <trkpt lat="54.710957016795874" lon="26.904420973733068">
        <ele>170.28999999999999</ele>
        <time>2011-08-15T15:12:41Z</time>
      </trkpt>
      <trkpt lat="54.711285000666976" lon="26.90395200625062">
        <ele>169.81</ele>
        <time>2011-08-15T15:12:53Z</time>
      </trkpt>
      <trkpt lat="54.7115099709481" lon="26.903606001287699">
        <ele>170.77000000000001</ele>
        <time>2011-08-15T15:13:00Z</time>
      </trkpt>
      <trkpt lat="54.711544001474977" lon="26.903563002124429">
        <ele>170.28999999999999</ele>
        <time>2011-08-15T15:13:01Z</time>
      </trkpt>
      <trkpt lat="54.711578032001853" lon="26.903518997132778">
        <ele>170.77000000000001</ele>
        <time>2011-08-15T15:13:02Z</time>
      </trkpt>
      <trkpt lat="54.712054962292314" lon="26.902876021340489">
        <ele>171.72999999999999</ele>
        <time>2011-08-15T15:13:17Z</time>
      </trkpt>
      <trkpt lat="54.712467016652226" lon="26.902632024139166">
        <ele>170.77000000000001</ele>
        <time>2011-08-15T15:13:31Z</time>
      </trkpt>
      <trkpt lat="54.712676983326674" lon="26.902495985850692">
        <ele>171.25</ele>
        <time>2011-08-15T15:13:44Z</time>
      </trkpt>
      <trkpt lat="54.712775973603129" lon="26.902436977252364">
        <ele>170.28999999999999</ele>
        <time>2011-08-15T15:13:56Z</time>
      </trkpt>
      <trkpt lat="54.712775973603129" lon="26.902436977252364">
        <ele>180.87</ele>
        <time>2011-08-15T15:13:59Z</time>
      </trkpt>
      <trkpt lat="54.712779996916652" lon="26.902433037757874">
        <ele>172.21000000000001</ele>
        <time>2011-08-15T15:14:00Z</time>
      </trkpt>
      <trkpt lat="54.712790977209806" lon="26.902428008615971">
        <ele>170.77000000000001</ele>
        <time>2011-08-15T15:14:02Z</time>
      </trkpt>
      <trkpt lat="54.712806986644864" lon="26.902416022494435">
        <ele>170.77000000000001</ele>
        <time>2011-08-15T15:14:04Z</time>
      </trkpt>
      <trkpt lat="54.712821990251541" lon="26.902404958382249">
        <ele>170.77000000000001</ele>
        <time>2011-08-15T15:14:05Z</time>
      </trkpt>
      <trkpt lat="54.712836993858218" lon="26.902394983917475">
        <ele>170.77000000000001</ele>
        <time>2011-08-15T15:14:06Z</time>
      </trkpt>
      <trkpt lat="54.712851997464895" lon="26.902388026937842">
        <ele>170.77000000000001</ele>
        <time>2011-08-15T15:14:07Z</time>
      </trkpt>
      <trkpt lat="54.712863983586431" lon="26.902376040816307">
        <ele>170.77000000000001</ele>
        <time>2011-08-15T15:14:08Z</time>
      </trkpt>
      <trkpt lat="54.712898014113307" lon="26.902342010289431">
        <ele>170.77000000000001</ele>
        <time>2011-08-15T15:14:15Z</time>
      </trkpt>
      <trkpt lat="54.712966997176409" lon="26.902285013347864">
        <ele>170.77000000000001</ele>
        <time>2011-08-15T15:14:20Z</time>
      </trkpt>
      <trkpt lat="54.713267991319299" lon="26.90188997425139">
        <ele>170.77000000000001</ele>
        <time>2011-08-15T15:14:36Z</time>
      </trkpt>
      <trkpt lat="54.71348600462079" lon="26.901490995660424">
        <ele>171.72999999999999</ele>
        <time>2011-08-15T15:14:50Z</time>
      </trkpt>
      <trkpt lat="54.713794961571693" lon="26.901052035391331">
        <ele>171.72999999999999</ele>
        <time>2011-08-15T15:15:02Z</time>
      </trkpt>
      <trkpt lat="54.714283039793372" lon="26.900449963286519">
        <ele>172.69</ele>
        <time>2011-08-15T15:15:17Z</time>
      </trkpt>
      <trkpt lat="54.714657040312886" lon="26.900072023272514">
        <ele>173.16999999999999</ele>
        <time>2011-08-15T15:15:29Z</time>
      </trkpt>
      <trkpt lat="54.714763993397355" lon="26.899982001632452">
        <ele>173.66</ele>
        <time>2011-08-15T15:15:36Z</time>
      </trkpt>
      <trkpt lat="54.71488201059401" lon="26.899927016347647">
        <ele>173.16999999999999</ele>
        <time>2011-08-15T15:15:43Z</time>
      </trkpt>
      <trkpt lat="54.7150310408324" lon="26.899836994707584">
        <ele>174.13999999999999</ele>
        <time>2011-08-15T15:15:52Z</time>
      </trkpt>
      <trkpt lat="54.715392971411347" lon="26.899752002209425">
        <ele>172.69</ele>
        <time>2011-08-15T15:16:04Z</time>
      </trkpt>
      <trkpt lat="54.715781975537539" lon="26.899703973904252">
        <ele>172.69</ele>
        <time>2011-08-15T15:16:16Z</time>
      </trkpt>
      <trkpt lat="54.716282039880753" lon="26.899819979444146">
        <ele>172.69</ele>
        <time>2011-08-15T15:16:28Z</time>
      </trkpt>
      <trkpt lat="54.716656040400267" lon="26.89980698749423">
        <ele>172.21000000000001</ele>
        <time>2011-08-15T15:16:38Z</time>
      </trkpt>
      <trkpt lat="54.716984024271369" lon="26.899875970557332">
        <ele>172.21000000000001</ele>
        <time>2011-08-15T15:16:50Z</time>
      </trkpt>
      <trkpt lat="54.717484004795551" lon="26.899944031611085">
        <ele>172.69</ele>
        <time>2011-08-15T15:17:01Z</time>
      </trkpt>
      <trkpt lat="54.717930005863309" lon="26.900022989138961">
        <ele>173.16999999999999</ele>
        <time>2011-08-15T15:17:12Z</time>
      </trkpt>
      <trkpt lat="54.718257989734411" lon="26.900126002728939">
        <ele>172.69</ele>
        <time>2011-08-15T15:17:20Z</time>
      </trkpt>
      <trkpt lat="54.718353040516376" lon="26.900136983022094">
        <ele>172.69</ele>
        <time>2011-08-15T15:17:22Z</time>
      </trkpt>
      <trkpt lat="54.718994004651904" lon="26.899974960833788">
        <ele>172.21000000000001</ele>
        <time>2011-08-15T15:17:34Z</time>
      </trkpt>
      <trkpt lat="54.719504965469241" lon="26.899929028004408">
        <ele>172.21000000000001</ele>
        <time>2011-08-15T15:17:47Z</time>
      </trkpt>
      <trkpt lat="54.719559028744698" lon="26.899929028004408">
        <ele>172.69</ele>
        <time>2011-08-15T15:17:55Z</time>
      </trkpt>
      <trkpt lat="54.719559028744698" lon="26.899929028004408">
        <ele>172.69</ele>
        <time>2011-08-15T15:18:19Z</time>
      </trkpt>
      <trkpt lat="54.719559028744698" lon="26.899940008297563">
        <ele>172.69</ele>
        <time>2011-08-15T15:19:00Z</time>
      </trkpt>
      <trkpt lat="54.719559028744698" lon="26.899942019954324">
        <ele>172.69</ele>
        <time>2011-08-15T15:19:35Z</time>
      </trkpt>
      <trkpt lat="54.719562968239188" lon="26.899947971105576">
        <ele>173.66</ele>
        <time>2011-08-15T15:20:09Z</time>
      </trkpt>
      <trkpt lat="54.719559028744698" lon="26.899944031611085">
        <ele>173.16999999999999</ele>
        <time>2011-08-15T15:20:40Z</time>
      </trkpt>
      <trkpt lat="54.719555005431175" lon="26.899944031611085">
        <ele>173.66</ele>
        <time>2011-08-15T15:21:19Z</time>
      </trkpt>
      <trkpt lat="54.719559028744698" lon="26.89995601773262">
        <ele>173.66</ele>
        <time>2011-08-15T15:22:01Z</time>
      </trkpt>
      <trkpt lat="54.719562968239188" lon="26.899960041046143">
        <ele>174.13999999999999</ele>
        <time>2011-08-15T15:22:36Z</time>
      </trkpt>
      <trkpt lat="54.719562968239188" lon="26.899964986369014">
        <ele>173.66</ele>
        <time>2011-08-15T15:23:10Z</time>
      </trkpt>
      <trkpt lat="54.719562968239188" lon="26.899962974712253">
        <ele>173.66</ele>
        <time>2011-08-15T15:23:50Z</time>
      </trkpt>
      <trkpt lat="54.719562968239188" lon="26.899962974712253">
        <ele>165.96000000000001</ele>
        <time>2011-08-15T15:24:04Z</time>
      </trkpt>
      <trkpt lat="54.719562968239188" lon="26.899962974712253">
        <ele>176.06</ele>
        <time>2011-08-15T15:24:05Z</time>
      </trkpt>
      <trkpt lat="54.719562968239188" lon="26.899962974712253">
        <ele>175.58000000000001</ele>
        <time>2011-08-15T15:24:06Z</time>
      </trkpt>
      <trkpt lat="54.719562968239188" lon="26.899962974712253">
        <ele>172.21000000000001</ele>
        <time>2011-08-15T15:24:12Z</time>
      </trkpt>
      <trkpt lat="54.719562968239188" lon="26.899962974712253">
        <ele>173.16999999999999</ele>
        <time>2011-08-15T15:24:13Z</time>
      </trkpt>
      <trkpt lat="54.719562968239188" lon="26.899962974712253">
        <ele>177.02000000000001</ele>
        <time>2011-08-15T15:24:21Z</time>
      </trkpt>
      <trkpt lat="54.719562968239188" lon="26.899962974712253">
        <ele>177.97999999999999</ele>
        <time>2011-08-15T15:24:23Z</time>
      </trkpt>
      <trkpt lat="54.719562968239188" lon="26.899962974712253">
        <ele>175.09999999999999</ele>
        <time>2011-08-15T15:24:24Z</time>
      </trkpt>
      <trkpt lat="54.719562968239188" lon="26.899962974712253">
        <ele>178.46000000000001</ele>
        <time>2011-08-15T15:24:25Z</time>
      </trkpt>
      <trkpt lat="54.719562968239188" lon="26.899962974712253">
        <ele>173.16999999999999</ele>
        <time>2011-08-15T15:24:27Z</time>
      </trkpt>
      <trkpt lat="54.719562968239188" lon="26.899962974712253">
        <ele>175.09999999999999</ele>
        <time>2011-08-15T15:24:28Z</time>
      </trkpt>
      <trkpt lat="54.719562968239188" lon="26.899962974712253">
        <ele>171.25</ele>
        <time>2011-08-15T15:24:29Z</time>
      </trkpt>
      <trkpt lat="54.719562968239188" lon="26.899960041046143">
        <ele>171.25</ele>
        <time>2011-08-15T15:24:30Z</time>
      </trkpt>
      <trkpt lat="54.719562968239188" lon="26.899960041046143">
        <ele>175.58000000000001</ele>
        <time>2011-08-15T15:24:31Z</time>
      </trkpt>
      <trkpt lat="54.719562968239188" lon="26.899960041046143">
        <ele>172.21000000000001</ele>
        <time>2011-08-15T15:24:35Z</time>
      </trkpt>
      <trkpt lat="54.719562968239188" lon="26.899960041046143">
        <ele>175.58000000000001</ele>
        <time>2011-08-15T15:24:37Z</time>
      </trkpt>
      <trkpt lat="54.719562968239188" lon="26.899960041046143">
        <ele>171.72999999999999</ele>
        <time>2011-08-15T15:24:45Z</time>
      </trkpt>
      <trkpt lat="54.719562968239188" lon="26.899960041046143">
        <ele>176.06</ele>
        <time>2011-08-15T15:24:46Z</time>
      </trkpt>
      <trkpt lat="54.719562968239188" lon="26.899960041046143">
        <ele>177.02000000000001</ele>
        <time>2011-08-15T15:24:48Z</time>
      </trkpt>
      <trkpt lat="54.719562968239188" lon="26.899960041046143">
        <ele>174.62</ele>
        <time>2011-08-15T15:24:50Z</time>
      </trkpt>
      <trkpt lat="54.719562968239188" lon="26.899960041046143">
        <ele>171.25</ele>
        <time>2011-08-15T15:24:52Z</time>
      </trkpt>
      <trkpt lat="54.719562968239188" lon="26.899960041046143">
        <ele>175.09999999999999</ele>
        <time>2011-08-15T15:24:53Z</time>
      </trkpt>
      <trkpt lat="54.719562968239188" lon="26.899960041046143">
        <ele>175.58000000000001</ele>
        <time>2011-08-15T15:24:54Z</time>
      </trkpt>
      <trkpt lat="54.719562968239188" lon="26.899984013289213">
        <ele>174.13999999999999</ele>
        <time>2011-08-15T15:25:09Z</time>
      </trkpt>
      <trkpt lat="54.719562968239188" lon="26.899988036602736">
        <ele>175.58000000000001</ele>
        <time>2011-08-15T15:25:46Z</time>
      </trkpt>
      <trkpt lat="54.719562968239188" lon="26.899988036602736">
        <ele>175.58000000000001</ele>
        <time>2011-08-15T15:26:08Z</time>
      </trkpt>
      <trkpt lat="54.719581995159388" lon="26.899982001632452">
        <ele>175.58000000000001</ele>
        <time>2011-08-15T15:26:26Z</time>
      </trkpt>
      <trkpt lat="54.719592975452542" lon="26.899974960833788">
        <ele>175.58000000000001</ele>
        <time>2011-08-15T15:26:44Z</time>
      </trkpt>
      <trkpt lat="54.719604039564729" lon="26.899969009682536">
        <ele>175.09999999999999</ele>
        <time>2011-08-15T15:26:48Z</time>
      </trkpt>
      <trkpt lat="54.719653995707631" lon="26.899971021339297">
        <ele>175.09999999999999</ele>
        <time>2011-08-15T15:26:51Z</time>
      </trkpt>
      <trkpt lat="54.719772012904286" lon="26.899986024945974">
        <ele>175.58000000000001</ele>
        <time>2011-08-15T15:26:56Z</time>
      </trkpt>
      <trkpt lat="54.720303006470203" lon="26.899964986369014">
        <ele>175.09999999999999</ele>
        <time>2011-08-15T15:27:13Z</time>
      </trkpt>
      <trkpt lat="54.720604000613093" lon="26.899960963055491">
        <ele>176.06</ele>
        <time>2011-08-15T15:27:23Z</time>
      </trkpt>
      <trkpt lat="54.721050001680851" lon="26.899947971105576">
        <ele>176.06</ele>
        <time>2011-08-15T15:27:35Z</time>
      </trkpt>
      <trkpt lat="54.721371028572321" lon="26.899899020791054">
        <ele>177.02000000000001</ele>
        <time>2011-08-15T15:27:49Z</time>
      </trkpt>
      <trkpt lat="54.721684008836746" lon="26.899843029677868">
        <ele>177.5</ele>
        <time>2011-08-15T15:28:03Z</time>
      </trkpt>
      <trkpt lat="54.722053986042738" lon="26.899796007201076">
        <ele>177.5</ele>
        <time>2011-08-15T15:28:20Z</time>
      </trkpt>
      <trkpt lat="54.722053986042738" lon="26.899796007201076">
        <ele>177.97999999999999</ele>
        <time>2011-08-15T15:28:46Z</time>
      </trkpt>
      <trkpt lat="54.722053986042738" lon="26.899796007201076">
        <ele>177.97999999999999</ele>
        <time>2011-08-15T15:29:22Z</time>
      </trkpt>
      <trkpt lat="54.72205700352788" lon="26.899797013029456">
        <ele>177.5</ele>
        <time>2011-08-15T15:29:57Z</time>
      </trkpt>
      <trkpt lat="54.722053986042738" lon="26.899796007201076">
        <ele>177.97999999999999</ele>
        <time>2011-08-15T15:30:25Z</time>
      </trkpt>
      <trkpt lat="54.722053986042738" lon="26.899796007201076">
        <ele>177.5</ele>
        <time>2011-08-15T15:30:50Z</time>
      </trkpt>
      <trkpt lat="54.72205700352788" lon="26.899799024686217">
        <ele>177.5</ele>
        <time>2011-08-15T15:31:22Z</time>
      </trkpt>
      <trkpt lat="54.72205700352788" lon="26.899799024686217">
        <ele>177.5</ele>
        <time>2011-08-15T15:31:34Z</time>
      </trkpt>
      <trkpt lat="54.722088016569614" lon="26.899819979444146">
        <ele>177.5</ele>
        <time>2011-08-15T15:31:39Z</time>
      </trkpt>
      <trkpt lat="54.72240099683404" lon="26.899769017472863">
        <ele>177.5</ele>
        <time>2011-08-15T15:31:49Z</time>
      </trkpt>
      <trkpt lat="54.722827970981598" lon="26.899747978895903">
        <ele>177.97999999999999</ele>
        <time>2011-08-15T15:32:01Z</time>
      </trkpt>
      <trkpt lat="54.723236002027988" lon="26.899775974452496">
        <ele>177.5</ele>
        <time>2011-08-15T15:32:12Z</time>
      </trkpt>
      <trkpt lat="54.7232820186764" lon="26.899793995544314">
        <ele>177.5</ele>
        <time>2011-08-15T15:32:13Z</time>
      </trkpt>
      <trkpt lat="54.72345401532948" lon="26.899888962507248">
        <ele>177.5</ele>
        <time>2011-08-15T15:32:17Z</time>
      </trkpt>
      <trkpt lat="54.723895993083715" lon="26.899958029389381">
        <ele>177.97999999999999</ele>
        <time>2011-08-15T15:32:29Z</time>
      </trkpt>
      <trkpt lat="54.724316010251641" lon="26.899863984435797">
        <ele>177.97999999999999</ele>
        <time>2011-08-15T15:32:40Z</time>
      </trkpt>
      <trkpt lat="54.724720017984509" lon="26.899773040786386">
        <ele>177.97999999999999</ele>
        <time>2011-08-15T15:32:51Z</time>
      </trkpt>
      <trkpt lat="54.725121008232236" lon="26.899670027196407">
        <ele>177.97999999999999</ele>
        <time>2011-08-15T15:33:00Z</time>
      </trkpt>
      <trkpt lat="54.725577989593148" lon="26.899439021945">
        <ele>177.97999999999999</ele>
        <time>2011-08-15T15:33:11Z</time>
      </trkpt>
      <trkpt lat="54.726028013974428" lon="26.899274988099933">
        <ele>177.5</ele>
        <time>2011-08-15T15:33:23Z</time>
      </trkpt>
      <trkpt lat="54.726387010887265" lon="26.899169962853193">
        <ele>177.02000000000001</ele>
        <time>2011-08-15T15:33:31Z</time>
      </trkpt>
      <trkpt lat="54.726958991959691" lon="26.899056974798441">
        <ele>177.97999999999999</ele>
        <time>2011-08-15T15:33:43Z</time>
      </trkpt>
      <trkpt lat="54.727123025804758" lon="26.899035014212132">
        <ele>177.97999999999999</ele>
        <time>2011-08-15T15:33:47Z</time>
      </trkpt>
      <trkpt lat="54.72732201218605" lon="26.89896603114903">
        <ele>177.97999999999999</ele>
        <time>2011-08-15T15:33:51Z</time>
      </trkpt>
      <trkpt lat="54.727825010195374" lon="26.898764027282596">
        <ele>178.46000000000001</ele>
        <time>2011-08-15T15:34:02Z</time>
      </trkpt>
      <trkpt lat="54.728152994066477" lon="26.898693032562733">
        <ele>177.5</ele>
        <time>2011-08-15T15:34:14Z</time>
      </trkpt>
      <trkpt lat="54.728164980188012" lon="26.898694960400462">
        <ele>177.97999999999999</ele>
        <time>2011-08-15T15:34:22Z</time>
      </trkpt>
      <trkpt lat="54.728485001251101" lon="26.898760003969073">
        <ele>177.5</ele>
        <time>2011-08-15T15:34:34Z</time>
      </trkpt>
      <trkpt lat="54.728785995393991" lon="26.898787999525666">
        <ele>177.5</ele>
        <time>2011-08-15T15:34:43Z</time>
      </trkpt>
      <trkpt lat="54.729095036163926" lon="26.898836027830839">
        <ele>177.5</ele>
        <time>2011-08-15T15:34:53Z</time>
      </trkpt>
      <trkpt lat="54.729484962299466" lon="26.898890007287264">
        <ele>177.97999999999999</ele>
        <time>2011-08-15T15:35:06Z</time>
      </trkpt>
      <trkpt lat="54.729866003617644" lon="26.898949015885592">
        <ele>177.5</ele>
        <time>2011-08-15T15:35:18Z</time>
      </trkpt>
      <trkpt lat="54.73013699054718" lon="26.899063009768724">
        <ele>177.97999999999999</ele>
        <time>2011-08-15T15:35:27Z</time>
      </trkpt>
      <trkpt lat="54.730407977476716" lon="26.899292003363371">
        <ele>177.5</ele>
        <time>2011-08-15T15:35:36Z</time>
      </trkpt>
      <trkpt lat="54.730732021853328" lon="26.899619987234473">
        <ele>177.5</ele>
        <time>2011-08-15T15:35:47Z</time>
      </trkpt>
      <trkpt lat="54.731158996000886" lon="26.899811010807753">
        <ele>177.5</ele>
        <time>2011-08-15T15:35:59Z</time>
      </trkpt>
      <trkpt lat="54.731567027047276" lon="26.899929028004408">
        <ele>176.53999999999999</ele>
        <time>2011-08-15T15:36:11Z</time>
      </trkpt>
      <trkpt lat="54.731887970119715" lon="26.900072023272514">
        <ele>177.02000000000001</ele>
        <time>2011-08-15T15:36:21Z</time>
      </trkpt>
      <trkpt lat="54.732135990634561" lon="26.900363964959979">
        <ele>177.02000000000001</ele>
        <time>2011-08-15T15:36:31Z</time>
      </trkpt>
      <trkpt lat="54.732436984777451" lon="26.900658002123237">
        <ele>176.53999999999999</ele>
        <time>2011-08-15T15:36:41Z</time>
      </trkpt>
      <trkpt lat="54.732810985296965" lon="26.900993026793003">
        <ele>176.53999999999999</ele>
        <time>2011-08-15T15:36:52Z</time>
      </trkpt>
      <trkpt lat="54.733150033280253" lon="26.901279017329216">
        <ele>177.02000000000001</ele>
        <time>2011-08-15T15:37:03Z</time>
      </trkpt>
      <trkpt lat="54.733410039916635" lon="26.901586968451738">
        <ele>176.53999999999999</ele>
        <time>2011-08-15T15:37:13Z</time>
      </trkpt>
      <trkpt lat="54.733437029644847" lon="26.901629967615008">
        <ele>177.02000000000001</ele>
        <time>2011-08-15T15:37:15Z</time>
      </trkpt>
      <trkpt lat="54.733807006850839" lon="26.901844041422009">
        <ele>176.53999999999999</ele>
        <time>2011-08-15T15:37:26Z</time>
      </trkpt>
      <trkpt lat="54.734253007918596" lon="26.902073035016656">
        <ele>177.02000000000001</ele>
        <time>2011-08-15T15:37:37Z</time>
      </trkpt>
      <trkpt lat="54.734642012044787" lon="26.902388026937842">
        <ele>176.53999999999999</ele>
        <time>2011-08-15T15:37:49Z</time>
      </trkpt>
      <trkpt lat="54.734981982037425" lon="26.902672005817294">
        <ele>176.06</ele>
        <time>2011-08-15T15:38:01Z</time>
      </trkpt>
      <trkpt lat="54.73529102280736" lon="26.902827993035316">
        <ele>176.53999999999999</ele>
        <time>2011-08-15T15:38:11Z</time>
      </trkpt>
      <trkpt lat="54.735625963658094" lon="26.902908040210605">
        <ele>175.58000000000001</ele>
        <time>2011-08-15T15:38:21Z</time>
      </trkpt>
      <trkpt lat="54.736038018018007" lon="26.903122030198574">
        <ele>175.09999999999999</ele>
        <time>2011-08-15T15:38:33Z</time>
      </trkpt>
      <trkpt lat="54.736464992165565" lon="26.903213979676366">
        <ele>176.06</ele>
        <time>2011-08-15T15:38:44Z</time>
      </trkpt>
      <trkpt lat="54.736575968563557" lon="26.903228983283043">
        <ele>175.58000000000001</ele>
        <time>2011-08-15T15:38:47Z</time>
      </trkpt>
      <trkpt lat="54.736919039860368" lon="26.903160000219941">
        <ele>175.09999999999999</ele>
        <time>2011-08-15T15:38:58Z</time>
      </trkpt>
      <trkpt lat="54.736919039860368" lon="26.903160000219941">
        <ele>167.88999999999999</ele>
        <time>2011-08-15T15:38:59Z</time>
      </trkpt>
      <trkpt lat="54.736919039860368" lon="26.903160000219941">
        <ele>176.53999999999999</ele>
        <time>2011-08-15T15:39:00Z</time>
      </trkpt>
      <trkpt lat="54.736919039860368" lon="26.903160000219941">
        <ele>175.09999999999999</ele>
        <time>2011-08-15T15:39:08Z</time>
      </trkpt>
      <trkpt lat="54.737019035965204" lon="26.903191013261676">
        <ele>174.13999999999999</ele>
        <time>2011-08-15T15:39:14Z</time>
      </trkpt>
      <trkpt lat="54.737410973757505" lon="26.903186989948153">
        <ele>172.21000000000001</ele>
        <time>2011-08-15T15:39:26Z</time>
      </trkpt>
      <trkpt lat="54.737633010372519" lon="26.903294026851654">
        <ele>172.69</ele>
        <time>2011-08-15T15:39:36Z</time>
      </trkpt>
      <trkpt lat="54.73791497759521" lon="26.903296038508415">
        <ele>173.16999999999999</ele>
        <time>2011-08-15T15:39:48Z</time>
      </trkpt>
      <trkpt lat="54.738143971189857" lon="26.903167963027954">
        <ele>173.16999999999999</ele>
        <time>2011-08-15T15:39:59Z</time>
      </trkpt>
      <trkpt lat="54.73851403221488" lon="26.903191013261676">
        <ele>173.16999999999999</ele>
        <time>2011-08-15T15:40:12Z</time>
      </trkpt>
      <trkpt lat="54.738899013027549" lon="26.903144996613264">
        <ele>172.69</ele>
        <time>2011-08-15T15:40:25Z</time>
      </trkpt>
      <trkpt lat="54.739177962765098" lon="26.903238035738468">
        <ele>172.69</ele>
        <time>2011-08-15T15:40:36Z</time>
      </trkpt>
      <trkpt lat="54.739413997158408" lon="26.903193024918437">
        <ele>172.21000000000001</ele>
        <time>2011-08-15T15:40:47Z</time>
      </trkpt>
      <trkpt lat="54.739666040986776" lon="26.902933018282056">
        <ele>172.21000000000001</ele>
        <time>2011-08-15T15:40:57Z</time>
      </trkpt>
      <trkpt lat="54.739964017644525" lon="26.902660019695759">
        <ele>172.21000000000001</ele>
        <time>2011-08-15T15:41:09Z</time>
      </trkpt>
      <trkpt lat="54.740188987925649" lon="26.902431026101112">
        <ele>172.69</ele>
        <time>2011-08-15T15:41:18Z</time>
      </trkpt>
      <trkpt lat="54.740543039515615" lon="26.902115028351545">
        <ele>171.25</ele>
        <time>2011-08-15T15:41:31Z</time>
      </trkpt>
      <trkpt lat="54.740615962073207" lon="26.902059959247708">
        <ele>171.72999999999999</ele>
        <time>2011-08-15T15:41:33Z</time>
      </trkpt>
      <trkpt lat="54.740935983136296" lon="26.901770029217005">
        <ele>171.72999999999999</ele>
        <time>2011-08-15T15:41:42Z</time>
      </trkpt>
      <trkpt lat="54.741261033341289" lon="26.90150298178196">
        <ele>172.21000000000001</ele>
        <time>2011-08-15T15:41:52Z</time>
      </trkpt>
      <trkpt lat="54.741641990840435" lon="26.901150019839406">
        <ele>174.13999999999999</ele>
        <time>2011-08-15T15:42:06Z</time>
      </trkpt>
      <trkpt lat="54.74178297445178" lon="26.901042982935905">
        <ele>175.09999999999999</ele>
        <time>2011-08-15T15:42:12Z</time>
      </trkpt>
      <trkpt lat="54.741981960833073" lon="26.900892024859786">
        <ele>176.06</ele>
        <time>2011-08-15T15:42:22Z</time>
      </trkpt>
      <trkpt lat="54.742096038535237" lon="26.900769984349608">
        <ele>174.13999999999999</ele>
        <time>2011-08-15T15:42:27Z</time>
      </trkpt>
      <trkpt lat="54.74212596192956" lon="26.900739977136254">
        <ele>173.66</ele>
        <time>2011-08-15T15:42:28Z</time>
      </trkpt>
      <trkpt lat="54.742385968565941" lon="26.900446023792028">
        <ele>172.21000000000001</ele>
        <time>2011-08-15T15:42:35Z</time>
      </trkpt>
      <trkpt lat="54.742801962420344" lon="26.899890974164009">
        <ele>172.21000000000001</ele>
        <time>2011-08-15T15:42:47Z</time>
      </trkpt>
      <trkpt lat="54.743313007056713" lon="26.899116989225149">
        <ele>171.25</ele>
        <time>2011-08-15T15:42:58Z</time>
      </trkpt>
      <trkpt lat="54.743633028119802" lon="26.898580966517329">
        <ele>171.25</ele>
        <time>2011-08-15T15:43:10Z</time>
      </trkpt>
      <trkpt lat="54.743926981464028" lon="26.897902032360435">
        <ele>170.77000000000001</ele>
        <time>2011-08-15T15:43:23Z</time>
      </trkpt>
      <trkpt lat="54.744038041681051" lon="26.897394005209208">
        <ele>170.77000000000001</ele>
        <time>2011-08-15T15:43:33Z</time>
      </trkpt>
      <trkpt lat="54.744082968682051" lon="26.896911961957812">
        <ele>170.28999999999999</ele>
        <time>2011-08-15T15:43:43Z</time>
      </trkpt>
      <trkpt lat="54.744113981723785" lon="26.896790005266666">
        <ele>171.25</ele>
        <time>2011-08-15T15:43:45Z</time>
      </trkpt>
      <trkpt lat="54.74414398893714" lon="26.896101012825966">
        <ele>170.77000000000001</ele>
        <time>2011-08-15T15:43:58Z</time>
      </trkpt>
      <trkpt lat="54.744106018915772" lon="26.895589968189597">
        <ele>170.77000000000001</ele>
        <time>2011-08-15T15:44:09Z</time>
      </trkpt>
      <trkpt lat="54.744098978117108" lon="26.895505981519818">
        <ele>170.77000000000001</ele>
        <time>2011-08-15T15:44:21Z</time>
      </trkpt>
      <trkpt lat="54.744098978117108" lon="26.895505981519818">
        <ele>170.77000000000001</ele>
        <time>2011-08-15T15:44:43Z</time>
      </trkpt>
      <trkpt lat="54.74410199560225" lon="26.895468011498451">
        <ele>170.77000000000001</ele>
        <time>2011-08-15T15:44:54Z</time>
      </trkpt>
      <trkpt lat="54.744025971740484" lon="26.894946992397308">
        <ele>170.77000000000001</ele>
        <time>2011-08-15T15:45:05Z</time>
      </trkpt>
      <trkpt lat="54.743965035304427" lon="26.894421027973294">
        <ele>170.28999999999999</ele>
        <time>2011-08-15T15:45:14Z</time>
      </trkpt>
      <trkpt lat="54.743884988129139" lon="26.893807975575328">
        <ele>170.77000000000001</ele>
        <time>2011-08-15T15:45:25Z</time>
      </trkpt>
      <trkpt lat="54.743816005066037" lon="26.893560038879514">
        <ele>170.28999999999999</ele>
        <time>2011-08-15T15:45:31Z</time>
      </trkpt>
      <trkpt lat="54.743793038651347" lon="26.893238006159663">
        <ele>170.77000000000001</ele>
        <time>2011-08-15T15:45:40Z</time>
      </trkpt>
      <trkpt lat="54.743766970932484" lon="26.892858976498246">
        <ele>170.77000000000001</ele>
        <time>2011-08-15T15:45:52Z</time>
      </trkpt>
      <trkpt lat="54.743712991476059" lon="26.892321025952697">
        <ele>169.81</ele>
        <time>2011-08-15T15:46:03Z</time>
      </trkpt>
      <trkpt lat="54.743702011182904" lon="26.892270985990763">
        <ele>169.81</ele>
        <time>2011-08-15T15:46:04Z</time>
      </trkpt>
      <trkpt lat="54.743678960949183" lon="26.89162096939981">
        <ele>170.77000000000001</ele>
        <time>2011-08-15T15:46:17Z</time>
      </trkpt>
      <trkpt lat="54.74362900480628" lon="26.891024010255933">
        <ele>170.28999999999999</ele>
        <time>2011-08-15T15:46:28Z</time>
      </trkpt>
      <trkpt lat="54.743606960400939" lon="26.890793005004525">
        <ele>169.81</ele>
        <time>2011-08-15T15:46:33Z</time>
      </trkpt>
      <trkpt lat="54.743525991216302" lon="26.890241978690028">
        <ele>169.81</ele>
        <time>2011-08-15T15:46:45Z</time>
      </trkpt>
      <trkpt lat="54.743377966806293" lon="26.889690030366182">
        <ele>170.28999999999999</ele>
        <time>2011-08-15T15:46:57Z</time>
      </trkpt>
      <trkpt lat="54.743286017328501" lon="26.889249980449677">
        <ele>170.28999999999999</ele>
        <time>2011-08-15T15:47:07Z</time>
      </trkpt>
      <trkpt lat="54.743271013721824" lon="26.889013024047017">
        <ele>170.28999999999999</ele>
        <time>2011-08-15T15:47:13Z</time>
      </trkpt>
      <trkpt lat="54.743313007056713" lon="26.8889120221138">
        <ele>169.81</ele>
        <time>2011-08-15T15:47:16Z</time>
      </trkpt>
      <trkpt lat="54.743323987349868" lon="26.888156980276108">
        <ele>169.81</ele>
        <time>2011-08-15T15:47:28Z</time>
      </trkpt>
      <trkpt lat="54.743362041190267" lon="26.887716008350253">
        <ele>169.81</ele>
        <time>2011-08-15T15:47:38Z</time>
      </trkpt>
      <trkpt lat="54.74356496706605" lon="26.887417025864124">
        <ele>169.81</ele>
        <time>2011-08-15T15:47:45Z</time>
      </trkpt>
      <trkpt lat="54.743785997852683" lon="26.887131035327911">
        <ele>169.33000000000001</ele>
        <time>2011-08-15T15:47:55Z</time>
      </trkpt>
      <trkpt lat="54.743935028091073" lon="26.88691302202642">
        <ele>169.81</ele>
        <time>2011-08-15T15:48:02Z</time>
      </trkpt>
      <trkpt lat="54.743965035304427" lon="26.88687102869153">
        <ele>169.81</ele>
        <time>2011-08-15T15:48:04Z</time>
      </trkpt>
      <trkpt lat="54.744167039170861" lon="26.886384962126613">
        <ele>169.81</ele>
        <time>2011-08-15T15:48:16Z</time>
      </trkpt>
      <trkpt lat="54.744327971711755" lon="26.885856986045837">
        <ele>169.81</ele>
        <time>2011-08-15T15:48:26Z</time>
      </trkpt>
      <trkpt lat="54.744354039430618" lon="26.885785991325974">
        <ele>169.81</ele>
        <time>2011-08-15T15:48:28Z</time>
      </trkpt>
      <trkpt lat="54.744465015828609" lon="26.885401010513306">
        <ele>169.33000000000001</ele>
        <time>2011-08-15T15:48:36Z</time>
      </trkpt>
      <trkpt lat="54.744568029418588" lon="26.884897006675601">
        <ele>169.81</ele>
        <time>2011-08-15T15:48:45Z</time>
      </trkpt>
      <trkpt lat="54.744694009423256" lon="26.884140037000179">
        <ele>169.81</ele>
        <time>2011-08-15T15:49:00Z</time>
      </trkpt>
      <trkpt lat="54.744766009971499" lon="26.883998969569802">
        <ele>170.28999999999999</ele>
        <time>2011-08-15T15:49:07Z</time>
      </trkpt>
      <trkpt lat="54.744797023013234" lon="26.883896039798856">
        <ele>169.81</ele>
        <time>2011-08-15T15:49:12Z</time>
      </trkpt>
      <trkpt lat="54.745029034093022" lon="26.883461019024253">
        <ele>169.81</ele>
        <time>2011-08-15T15:49:25Z</time>
      </trkpt>
      <trkpt lat="54.745285017415881" lon="26.882966989651322">
        <ele>169.33000000000001</ele>
        <time>2011-08-15T15:49:36Z</time>
      </trkpt>
      <trkpt lat="54.745303960517049" lon="26.882934970781207">
        <ele>168.84999999999999</ele>
        <time>2011-08-15T15:49:37Z</time>
      </trkpt>
      <trkpt lat="54.74556396715343" lon="26.882572034373879">
        <ele>168.37</ele>
        <time>2011-08-15T15:49:48Z</time>
      </trkpt>
      <trkpt lat="54.745898991823196" lon="26.881924029439688">
        <ele>168.84999999999999</ele>
        <time>2011-08-15T15:50:03Z</time>
      </trkpt>
      <trkpt lat="54.746158998459578" lon="26.881610965356231">
        <ele>168.37</ele>
        <time>2011-08-15T15:50:14Z</time>
      </trkpt>
      <trkpt lat="54.746482959017158" lon="26.881451038643718">
        <ele>167.88999999999999</ele>
        <time>2011-08-15T15:50:26Z</time>
      </trkpt>
      <trkpt lat="54.746661996468902" lon="26.8813949637115">
        <ele>167.41</ele>
        <time>2011-08-15T15:50:37Z</time>
      </trkpt>
      <trkpt lat="54.746715975925326" lon="26.881366968154907">
        <ele>167.41</ele>
        <time>2011-08-15T15:50:48Z</time>
      </trkpt>
      <trkpt lat="54.746715975925326" lon="26.881366968154907">
        <ele>168.37</ele>
        <time>2011-08-15T15:50:53Z</time>
      </trkpt>
      <trkpt lat="54.746715975925326" lon="26.881366968154907">
        <ele>165.47999999999999</ele>
        <time>2011-08-15T15:50:57Z</time>
      </trkpt>
      <trkpt lat="54.746715975925326" lon="26.881366968154907">
        <ele>169.33000000000001</ele>
        <time>2011-08-15T15:51:09Z</time>
      </trkpt>
      <trkpt lat="54.746715975925326" lon="26.881366968154907">
        <ele>166.93000000000001</ele>
        <time>2011-08-15T15:51:10Z</time>
      </trkpt>
      <trkpt lat="54.746715975925326" lon="26.881366968154907">
        <ele>168.84999999999999</ele>
        <time>2011-08-15T15:51:13Z</time>
      </trkpt>
      <trkpt lat="54.746715975925326" lon="26.881366968154907">
        <ele>165</ele>
        <time>2011-08-15T15:51:16Z</time>
      </trkpt>
      <trkpt lat="54.746715975925326" lon="26.881366968154907">
        <ele>169.33000000000001</ele>
        <time>2011-08-15T15:51:17Z</time>
      </trkpt>
      <trkpt lat="54.746715975925326" lon="26.881366968154907">
        <ele>167.41</ele>
        <time>2011-08-15T15:51:20Z</time>
      </trkpt>
      <trkpt lat="54.746718993410468" lon="26.881363028660417">
        <ele>167.41</ele>
        <time>2011-08-15T15:51:51Z</time>
      </trkpt>
      <trkpt lat="54.746718993410468" lon="26.881363028660417">
        <ele>166.93000000000001</ele>
        <time>2011-08-15T15:52:26Z</time>
      </trkpt>
      <trkpt lat="54.746718993410468" lon="26.881363028660417">
        <ele>166.44999999999999</ele>
        <time>2011-08-15T15:53:00Z</time>
      </trkpt>
      <trkpt lat="54.746718993410468" lon="26.881363028660417">
        <ele>165.96000000000001</ele>
        <time>2011-08-15T15:53:19Z</time>
      </trkpt>
      <trkpt lat="54.746715975925326" lon="26.881346013396978">
        <ele>166.93000000000001</ele>
        <time>2011-08-15T15:53:25Z</time>
      </trkpt>
      <trkpt lat="54.746715975925326" lon="26.881346013396978">
        <ele>165.96000000000001</ele>
        <time>2011-08-15T15:53:42Z</time>
      </trkpt>
      <trkpt lat="54.746715975925326" lon="26.881346013396978">
        <ele>165.96000000000001</ele>
        <time>2011-08-15T15:53:57Z</time>
      </trkpt>
      <trkpt lat="54.746715975925326" lon="26.881346013396978">
        <ele>165.96000000000001</ele>
        <time>2011-08-15T15:53:59Z</time>
      </trkpt>
      <trkpt lat="54.746563006192446" lon="26.881407033652067">
        <ele>166.44999999999999</ele>
        <time>2011-08-15T15:54:08Z</time>
      </trkpt>
      <trkpt lat="54.746262012049556" lon="26.881523039191961">
        <ele>166.93000000000001</ele>
        <time>2011-08-15T15:54:21Z</time>
      </trkpt>
      <trkpt lat="54.745936961844563" lon="26.88182101584971">
        <ele>165.96000000000001</ele>
        <time>2011-08-15T15:54:36Z</time>
      </trkpt>
      <trkpt lat="54.745677961036563" lon="26.882198033854365">
        <ele>166.93000000000001</ele>
        <time>2011-08-15T15:54:49Z</time>
      </trkpt>
      <trkpt lat="54.745494984090328" lon="26.882523000240326">
        <ele>166.93000000000001</ele>
        <time>2011-08-15T15:55:00Z</time>
      </trkpt>
      <trkpt lat="54.745457014068961" lon="26.882617967203259">
        <ele>166.93000000000001</ele>
        <time>2011-08-15T15:55:04Z</time>
      </trkpt>
      <trkpt lat="54.745430024340749" lon="26.882659960538149">
        <ele>166.93000000000001</ele>
        <time>2011-08-15T15:55:06Z</time>
      </trkpt>
      <trkpt lat="54.745231959968805" lon="26.883065979927778">
        <ele>167.41</ele>
        <time>2011-08-15T15:55:18Z</time>
      </trkpt>
      <trkpt lat="54.744948986917734" lon="26.883617006242275">
        <ele>167.41</ele>
        <time>2011-08-15T15:55:30Z</time>
      </trkpt>
      <trkpt lat="54.744719993323088" lon="26.884011961519718">
        <ele>167.88999999999999</ele>
        <time>2011-08-15T15:55:38Z</time>
      </trkpt>
      <trkpt lat="54.744647992774844" lon="26.884008022025228">
        <ele>167.88999999999999</ele>
        <time>2011-08-15T15:55:47Z</time>
      </trkpt>
      <trkpt lat="54.744647992774844" lon="26.884008022025228">
        <ele>164.52000000000001</ele>
        <time>2011-08-15T15:55:49Z</time>
      </trkpt>
      <trkpt lat="54.744647992774844" lon="26.884008022025228">
        <ele>168.84999999999999</ele>
        <time>2011-08-15T15:55:50Z</time>
      </trkpt>
      <trkpt lat="54.744647992774844" lon="26.884008022025228">
        <ele>165.47999999999999</ele>
        <time>2011-08-15T15:55:55Z</time>
      </trkpt>
      <trkpt lat="54.744647992774844" lon="26.884008022025228">
        <ele>166.93000000000001</ele>
        <time>2011-08-15T15:55:56Z</time>
      </trkpt>
      <trkpt lat="54.744647992774844" lon="26.884008022025228">
        <ele>168.37</ele>
        <time>2011-08-15T15:55:58Z</time>
      </trkpt>
      <trkpt lat="54.744647992774844" lon="26.884008022025228">
        <ele>168.37</ele>
        <time>2011-08-15T15:56:02Z</time>
      </trkpt>
      <trkpt lat="54.744613962247968" lon="26.883875001221895">
        <ele>167.88999999999999</ele>
        <time>2011-08-15T15:56:07Z</time>
      </trkpt>
      <trkpt lat="54.744517989456654" lon="26.883124988526106">
        <ele>167.41</ele>
        <time>2011-08-15T15:56:22Z</time>
      </trkpt>
      <trkpt lat="54.744456969201565" lon="26.882441025227308">
        <ele>166.93000000000001</ele>
        <time>2011-08-15T15:56:35Z</time>
      </trkpt>
      <trkpt lat="54.744372982531786" lon="26.881869966164231">
        <ele>166.44999999999999</ele>
        <time>2011-08-15T15:56:46Z</time>
      </trkpt>
      <trkpt lat="54.744285978376865" lon="26.881336038932204">
        <ele>166.44999999999999</ele>
        <time>2011-08-15T15:56:56Z</time>
      </trkpt>
      <trkpt lat="54.744170978665352" lon="26.88100797124207">
        <ele>167.41</ele>
        <time>2011-08-15T15:57:05Z</time>
      </trkpt>
      <trkpt lat="54.743998982012272" lon="26.880718041211367">
        <ele>166.93000000000001</ele>
        <time>2011-08-15T15:57:16Z</time>
      </trkpt>
      <trkpt lat="54.743862021714449" lon="26.880561970174313">
        <ele>166.93000000000001</ele>
        <time>2011-08-15T15:57:23Z</time>
      </trkpt>
      <trkpt lat="54.743687007576227" lon="26.880310010164976">
        <ele>166.44999999999999</ele>
        <time>2011-08-15T15:57:32Z</time>
      </trkpt>
      <trkpt lat="54.743549041450024" lon="26.880076993256807">
        <ele>162.12</ele>
        <time>2011-08-15T15:57:40Z</time>
      </trkpt>
      <trkpt lat="54.743537977337837" lon="26.880042962729931">
        <ele>167.88999999999999</ele>
        <time>2011-08-15T15:57:41Z</time>
      </trkpt>
      <trkpt lat="54.743396993726492" lon="26.8796940241009">
        <ele>167.88999999999999</ele>
        <time>2011-08-15T15:57:51Z</time>
      </trkpt>
      <trkpt lat="54.743251986801624" lon="26.879278030246496">
        <ele>167.41</ele>
        <time>2011-08-15T15:58:02Z</time>
      </trkpt>
      <trkpt lat="54.743244023993611" lon="26.87922497279942">
        <ele>166.93000000000001</ele>
        <time>2011-08-15T15:58:03Z</time>
      </trkpt>
      <trkpt lat="54.743163976818323" lon="26.878531035035849">
        <ele>167.41</ele>
        <time>2011-08-15T15:58:16Z</time>
      </trkpt>
      <trkpt lat="54.743103040382266" lon="26.878185030072927">
        <ele>167.41</ele>
        <time>2011-08-15T15:58:23Z</time>
      </trkpt>
      <trkpt lat="54.743011007085443" lon="26.877543982118368">
        <ele>167.41</ele>
        <time>2011-08-15T15:58:36Z</time>
      </trkpt>
      <trkpt lat="54.743033973500133" lon="26.877478016540408">
        <ele>167.41</ele>
        <time>2011-08-15T15:58:38Z</time>
      </trkpt>
      <trkpt lat="54.742973037064075" lon="26.876907041296363">
        <ele>167.41</ele>
        <time>2011-08-15T15:58:45Z</time>
      </trkpt>
      <trkpt lat="54.742996003478765" lon="26.876701014116406">
        <ele>167.41</ele>
        <time>2011-08-15T15:58:49Z</time>
      </trkpt>
      <trkpt lat="54.743015030398965" lon="26.876556007191539">
        <ele>166.93000000000001</ele>
        <time>2011-08-15T15:58:54Z</time>
      </trkpt>
      <trkpt lat="54.743011007085443" lon="26.876407982781529">
        <ele>167.41</ele>
        <time>2011-08-15T15:58:58Z</time>
      </trkpt>
      <trkpt lat="54.743042020127177" lon="26.876323996111751">
        <ele>167.41</ele>
        <time>2011-08-15T15:59:03Z</time>
      </trkpt>
      <trkpt lat="54.743088036775589" lon="26.876184018328786">
        <ele>167.41</ele>
        <time>2011-08-15T15:59:14Z</time>
      </trkpt>
      <trkpt lat="54.74306900985539" lon="26.876053009182215">
        <ele>166.93000000000001</ele>
        <time>2011-08-15T15:59:16Z</time>
      </trkpt>
      <trkpt lat="54.742954010143876" lon="26.87537600286305">
        <ele>166.93000000000001</ele>
        <time>2011-08-15T15:59:25Z</time>
      </trkpt>
      <trkpt lat="54.742763992398977" lon="26.874931007623672">
        <ele>167.41</ele>
        <time>2011-08-15T15:59:33Z</time>
      </trkpt>
      <trkpt lat="54.742732979357243" lon="26.874863030388951">
        <ele>167.41</ele>
        <time>2011-08-15T15:59:35Z</time>
      </trkpt>
      <trkpt lat="54.74268302321434" lon="26.87477502040565">
        <ele>166.93000000000001</ele>
        <time>2011-08-15T15:59:37Z</time>
      </trkpt>
      <trkpt lat="54.742538016289473" lon="26.874575028195977">
        <ele>166.93000000000001</ele>
        <time>2011-08-15T15:59:48Z</time>
      </trkpt>
      <trkpt lat="54.742455035448074" lon="26.874467991292477">
        <ele>166.93000000000001</ele>
        <time>2011-08-15T15:59:56Z</time>
      </trkpt>
      <trkpt lat="54.742198968306184" lon="26.873973961919546">
        <ele>167.41</ele>
        <time>2011-08-15T16:00:10Z</time>
      </trkpt>
      <trkpt lat="54.741966035217047" lon="26.873630974441767">
        <ele>167.41</ele>
        <time>2011-08-15T16:00:20Z</time>
      </trkpt>
      <trkpt lat="54.741813987493515" lon="26.87348697334528">
        <ele>167.88999999999999</ele>
        <time>2011-08-15T16:00:26Z</time>
      </trkpt>
      <trkpt lat="54.741535037755966" lon="26.873212968930602">
        <ele>168.84999999999999</ele>
        <time>2011-08-15T16:00:37Z</time>
      </trkpt>
      <trkpt lat="54.741257010027766" lon="26.87279898673296">
        <ele>168.84999999999999</ele>
        <time>2011-08-15T16:00:50Z</time>
      </trkpt>
      <trkpt lat="54.741127006709576" lon="26.872274028137326">
        <ele>168.84999999999999</ele>
        <time>2011-08-15T16:01:01Z</time>
      </trkpt>
      <trkpt lat="54.740992980077863" lon="26.871518986299634">
        <ele>169.33000000000001</ele>
        <time>2011-08-15T16:01:16Z</time>
      </trkpt>
      <trkpt lat="54.740955010056496" lon="26.871341960504651">
        <ele>169.33000000000001</ele>
        <time>2011-08-15T16:01:26Z</time>
      </trkpt>
      <trkpt lat="54.740955010056496" lon="26.871341960504651">
        <ele>166.44999999999999</ele>
        <time>2011-08-15T16:01:27Z</time>
      </trkpt>
      <trkpt lat="54.740955010056496" lon="26.871341960504651">
        <ele>169.81</ele>
        <time>2011-08-15T16:01:28Z</time>
      </trkpt>
      <trkpt lat="54.740955010056496" lon="26.871341960504651">
        <ele>166.44999999999999</ele>
        <time>2011-08-15T16:01:41Z</time>
      </trkpt>
      <trkpt lat="54.740955010056496" lon="26.871341960504651">
        <ele>170.77000000000001</ele>
        <time>2011-08-15T16:01:42Z</time>
      </trkpt>
      <trkpt lat="54.740955010056496" lon="26.871341960504651">
        <ele>166.93000000000001</ele>
        <time>2011-08-15T16:01:57Z</time>
      </trkpt>
      <trkpt lat="54.740955010056496" lon="26.871341960504651">
        <ele>170.28999999999999</ele>
        <time>2011-08-15T16:01:58Z</time>
      </trkpt>
      <trkpt lat="54.740951992571354" lon="26.871340032666922">
        <ele>169.81</ele>
        <time>2011-08-15T16:02:09Z</time>
      </trkpt>
      <trkpt lat="54.740951992571354" lon="26.871340032666922">
        <ele>174.62</ele>
        <time>2011-08-15T16:02:14Z</time>
      </trkpt>
      <trkpt lat="54.740951992571354" lon="26.871340032666922">
        <ele>167.88999999999999</ele>
        <time>2011-08-15T16:02:15Z</time>
      </trkpt>
      <trkpt lat="54.740951992571354" lon="26.871340032666922">
        <ele>171.25</ele>
        <time>2011-08-15T16:02:16Z</time>
      </trkpt>
      <trkpt lat="54.740951992571354" lon="26.871340032666922">
        <ele>165.96000000000001</ele>
        <time>2011-08-15T16:02:21Z</time>
      </trkpt>
      <trkpt lat="54.740951992571354" lon="26.871340032666922">
        <ele>170.77000000000001</ele>
        <time>2011-08-15T16:02:22Z</time>
      </trkpt>
      <trkpt lat="54.740951992571354" lon="26.871340032666922">
        <ele>167.41</ele>
        <time>2011-08-15T16:02:23Z</time>
      </trkpt>
      <trkpt lat="54.740951992571354" lon="26.871340032666922">
        <ele>171.72999999999999</ele>
        <time>2011-08-15T16:02:24Z</time>
      </trkpt>
      <trkpt lat="54.740951992571354" lon="26.871340032666922">
        <ele>170.28999999999999</ele>
        <time>2011-08-15T16:02:30Z</time>
      </trkpt>
      <trkpt lat="54.740947969257832" lon="26.871264008805156">
        <ele>169.81</ele>
        <time>2011-08-15T16:02:40Z</time>
      </trkpt>
      <trkpt lat="54.740902036428452" lon="26.870630001649261">
        <ele>169.81</ele>
        <time>2011-08-15T16:02:53Z</time>
      </trkpt>
      <trkpt lat="54.740768009796739" lon="26.87009003944695">
        <ele>169.33000000000001</ele>
        <time>2011-08-15T16:03:05Z</time>
      </trkpt>
      <trkpt lat="54.740730039775372" lon="26.869614031165838">
        <ele>169.33000000000001</ele>
        <time>2011-08-15T16:03:15Z</time>
      </trkpt>
      <trkpt lat="54.740753006190062" lon="26.868994021788239">
        <ele>169.33000000000001</ele>
        <time>2011-08-15T16:03:26Z</time>
      </trkpt>
      <trkpt lat="54.740775972604752" lon="26.868255995213985">
        <ele>170.77000000000001</ele>
        <time>2011-08-15T16:03:41Z</time>
      </trkpt>
      <trkpt lat="54.740826012566686" lon="26.867626011371613">
        <ele>170.28999999999999</ele>
        <time>2011-08-15T16:03:54Z</time>
      </trkpt>
      <trkpt lat="54.740898013114929" lon="26.867081020027399">
        <ele>169.81</ele>
        <time>2011-08-15T16:04:04Z</time>
      </trkpt>
      <trkpt lat="54.740951992571354" lon="26.866168985143304">
        <ele>169.33000000000001</ele>
        <time>2011-08-15T16:04:20Z</time>
      </trkpt>
      <trkpt lat="54.740890972316265" lon="26.865358036011457">
        <ele>169.81</ele>
        <time>2011-08-15T16:04:33Z</time>
      </trkpt>
      <trkpt lat="54.740681005641818" lon="26.864541973918676">
        <ele>169.33000000000001</ele>
        <time>2011-08-15T16:04:48Z</time>
      </trkpt>
      <trkpt lat="54.740654015913606" lon="26.863770000636578">
        <ele>169.81</ele>
        <time>2011-08-15T16:05:01Z</time>
      </trkpt>
      <trkpt lat="54.740619985386729" lon="26.862958967685699">
        <ele>169.81</ele>
        <time>2011-08-15T16:05:14Z</time>
      </trkpt>
      <trkpt lat="54.740592995658517" lon="26.862152041867375">
        <ele>170.28999999999999</ele>
        <time>2011-08-15T16:05:28Z</time>
      </trkpt>
      <trkpt lat="54.74055502563715" lon="26.861249981448054">
        <ele>169.33000000000001</ele>
        <time>2011-08-15T16:05:42Z</time>
      </trkpt>
      <trkpt lat="54.740498028695583" lon="26.860262006521225">
        <ele>169.33000000000001</ele>
        <time>2011-08-15T16:05:57Z</time>
      </trkpt>
      <trkpt lat="54.740474978461862" lon="26.859402023255825">
        <ele>168.84999999999999</ele>
        <time>2011-08-15T16:06:11Z</time>
      </trkpt>
      <trkpt lat="54.740467015653849" lon="26.858499962836504">
        <ele>168.84999999999999</ele>
        <time>2011-08-15T16:06:27Z</time>
      </trkpt>
      <trkpt lat="54.740410018712282" lon="26.857753973454237">
        <ele>167.88999999999999</ele>
        <time>2011-08-15T16:06:41Z</time>
      </trkpt>
      <trkpt lat="54.74038696847856" lon="26.857163971289992">
        <ele>167.88999999999999</ele>
        <time>2011-08-15T16:06:55Z</time>
      </trkpt>
      <trkpt lat="54.74038696847856" lon="26.857139999046922">
        <ele>167.88999999999999</ele>
        <time>2011-08-15T16:06:56Z</time>
      </trkpt>
      <trkpt lat="54.740375988185406" lon="26.857110997661948">
        <ele>167.88999999999999</ele>
        <time>2011-08-15T16:07:09Z</time>
      </trkpt>
      <trkpt lat="54.740375988185406" lon="26.857108986005187">
        <ele>166.93000000000001</ele>
        <time>2011-08-15T16:07:41Z</time>
      </trkpt>
      <trkpt lat="54.740375988185406" lon="26.857108986005187">
        <ele>167.41</ele>
        <time>2011-08-15T16:08:20Z</time>
      </trkpt>
      <trkpt lat="54.740375988185406" lon="26.857110997661948">
        <ele>166.93000000000001</ele>
        <time>2011-08-15T16:08:58Z</time>
      </trkpt>
      <trkpt lat="54.740375988185406" lon="26.857110997661948">
        <ele>167.88999999999999</ele>
        <time>2011-08-15T16:09:32Z</time>
      </trkpt>
      <trkpt lat="54.74036400206387" lon="26.857123989611864">
        <ele>167.41</ele>
        <time>2011-08-15T16:10:13Z</time>
      </trkpt>
      <trkpt lat="54.740295019000769" lon="26.857152990996838">
        <ele>167.88999999999999</ele>
        <time>2011-08-15T16:10:22Z</time>
      </trkpt>
      <trkpt lat="54.740295019000769" lon="26.857155002653599">
        <ele>169.33000000000001</ele>
        <time>2011-08-15T16:10:26Z</time>
      </trkpt>
      <trkpt lat="54.740295019000769" lon="26.857155002653599">
        <ele>167.88999999999999</ele>
        <time>2011-08-15T16:10:28Z</time>
      </trkpt>
      <trkpt lat="54.740295019000769" lon="26.857155002653599">
        <ele>165</ele>
        <time>2011-08-15T16:10:30Z</time>
      </trkpt>
      <trkpt lat="54.740295019000769" lon="26.857155002653599">
        <ele>168.84999999999999</ele>
        <time>2011-08-15T16:10:31Z</time>
      </trkpt>
      <trkpt lat="54.740295019000769" lon="26.857155002653599">
        <ele>164.52000000000001</ele>
        <time>2011-08-15T16:10:35Z</time>
      </trkpt>
      <trkpt lat="54.740295019000769" lon="26.857155002653599">
        <ele>168.84999999999999</ele>
        <time>2011-08-15T16:10:36Z</time>
      </trkpt>
      <trkpt lat="54.740295019000769" lon="26.857155002653599">
        <ele>165.47999999999999</ele>
        <time>2011-08-15T16:10:40Z</time>
      </trkpt>
      <trkpt lat="54.740295019000769" lon="26.857155002653599">
        <ele>168.84999999999999</ele>
        <time>2011-08-15T16:10:45Z</time>
      </trkpt>
      <trkpt lat="54.740295019000769" lon="26.857155002653599">
        <ele>161.16</ele>
        <time>2011-08-15T16:10:54Z</time>
      </trkpt>
      <trkpt lat="54.740295019000769" lon="26.857155002653599">
        <ele>168.37</ele>
        <time>2011-08-15T16:10:55Z</time>
      </trkpt>
      <trkpt lat="54.740295019000769" lon="26.857155002653599">
        <ele>165</ele>
        <time>2011-08-15T16:11:10Z</time>
      </trkpt>
      <trkpt lat="54.740295019000769" lon="26.857155002653599">
        <ele>168.84999999999999</ele>
        <time>2011-08-15T16:11:11Z</time>
      </trkpt>
      <trkpt lat="54.740295019000769" lon="26.857155002653599">
        <ele>164.52000000000001</ele>
        <time>2011-08-15T16:11:23Z</time>
      </trkpt>
      <trkpt lat="54.740295019000769" lon="26.857155002653599">
        <ele>167.88999999999999</ele>
        <time>2011-08-15T16:11:24Z</time>
      </trkpt>
      <trkpt lat="54.740295019000769" lon="26.857155002653599">
        <ele>162.12</ele>
        <time>2011-08-15T16:11:36Z</time>
      </trkpt>
      <trkpt lat="54.740295019000769" lon="26.857155002653599">
        <ele>170.77000000000001</ele>
        <time>2011-08-15T16:11:37Z</time>
      </trkpt>
      <trkpt lat="54.740295019000769" lon="26.857155002653599">
        <ele>167.41</ele>
        <time>2011-08-15T16:11:39Z</time>
      </trkpt>
      <trkpt lat="54.740295019000769" lon="26.857143016532063">
        <ele>167.88999999999999</ele>
        <time>2011-08-15T16:12:02Z</time>
      </trkpt>
      <trkpt lat="54.740292001515627" lon="26.857130024582148">
        <ele>166.44999999999999</ele>
        <time>2011-08-15T16:12:18Z</time>
      </trkpt>
      <trkpt lat="54.740292001515627" lon="26.857130024582148">
        <ele>166.44999999999999</ele>
        <time>2011-08-15T16:12:55Z</time>
      </trkpt>
      <trkpt lat="54.740302981808782" lon="26.857133964076638">
        <ele>167.41</ele>
        <time>2011-08-15T16:13:17Z</time>
      </trkpt>
      <trkpt lat="54.740311028435826" lon="26.857130024582148">
        <ele>167.41</ele>
        <time>2011-08-15T16:13:39Z</time>
      </trkpt>
      <trkpt lat="54.740311028435826" lon="26.857130024582148">
        <ele>167.41</ele>
        <time>2011-08-15T16:14:10Z</time>
      </trkpt>
      <trkpt lat="54.740326032042503" lon="26.857115020975471">
        <ele>166.93000000000001</ele>
        <time>2011-08-15T16:14:25Z</time>
      </trkpt>
      <trkpt lat="54.740356039255857" lon="26.857121977955103">
        <ele>174.13999999999999</ele>
        <time>2011-08-15T16:14:30Z</time>
      </trkpt>
      <trkpt lat="54.740356039255857" lon="26.857121977955103">
        <ele>169.33000000000001</ele>
        <time>2011-08-15T16:14:31Z</time>
      </trkpt>
      <trkpt lat="54.740356039255857" lon="26.857121977955103">
        <ele>166.44999999999999</ele>
        <time>2011-08-15T16:14:33Z</time>
      </trkpt>
      <trkpt lat="54.740356039255857" lon="26.857121977955103">
        <ele>166.44999999999999</ele>
        <time>2011-08-15T16:14:56Z</time>
      </trkpt>
      <trkpt lat="54.740356039255857" lon="26.857120972126722">
        <ele>166.44999999999999</ele>
        <time>2011-08-15T16:15:22Z</time>
      </trkpt>
      <trkpt lat="54.740353021770716" lon="26.857120972126722">
        <ele>166.44999999999999</ele>
        <time>2011-08-15T16:15:25Z</time>
      </trkpt>
      <trkpt lat="54.740368025377393" lon="26.857219962403178">
        <ele>166.93000000000001</ele>
        <time>2011-08-15T16:15:36Z</time>
      </trkpt>
      <trkpt lat="54.740398032590747" lon="26.857636962085962">
        <ele>166.44999999999999</ele>
        <time>2011-08-15T16:15:48Z</time>
      </trkpt>
      <trkpt lat="54.740458969026804" lon="26.8582549598068">
        <ele>166.93000000000001</ele>
        <time>2011-08-15T16:16:03Z</time>
      </trkpt>
      <trkpt lat="54.740471038967371" lon="26.858918974176049">
        <ele>166.93000000000001</ele>
        <time>2011-08-15T16:16:20Z</time>
      </trkpt>
      <trkpt lat="54.740482019260526" lon="26.859444016590714">
        <ele>167.41</ele>
        <time>2011-08-15T16:16:33Z</time>
      </trkpt>
      <trkpt lat="54.740504985675216" lon="26.859986996278167">
        <ele>166.93000000000001</ele>
        <time>2011-08-15T16:16:46Z</time>
      </trkpt>
      <trkpt lat="54.740498028695583" lon="26.860330989584327">
        <ele>167.88999999999999</ele>
        <time>2011-08-15T16:16:54Z</time>
      </trkpt>
      <trkpt lat="54.740504985675216" lon="26.860525030642748">
        <ele>167.88999999999999</ele>
        <time>2011-08-15T16:16:59Z</time>
      </trkpt>
      <trkpt lat="54.74055502563715" lon="26.86115300282836">
        <ele>167.88999999999999</ele>
        <time>2011-08-15T16:17:13Z</time>
      </trkpt>
      <trkpt lat="54.740603975951672" lon="26.861766977235675">
        <ele>167.88999999999999</ele>
        <time>2011-08-15T16:17:25Z</time>
      </trkpt>
      <trkpt lat="54.740623002871871" lon="26.862195963039994">
        <ele>168.37</ele>
        <time>2011-08-15T16:17:34Z</time>
      </trkpt>
      <trkpt lat="54.740630965679884" lon="26.862819995731115">
        <ele>167.88999999999999</ele>
        <time>2011-08-15T16:17:48Z</time>
      </trkpt>
      <trkpt lat="54.74066499620676" lon="26.863483004271984">
        <ele>167.41</ele>
        <time>2011-08-15T16:18:01Z</time>
      </trkpt>
      <trkpt lat="54.740700032562017" lon="26.864181971177459">
        <ele>167.41</ele>
        <time>2011-08-15T16:18:15Z</time>
      </trkpt>
      <trkpt lat="54.740733979269862" lon="26.86474003829062">
        <ele>167.41</ele>
        <time>2011-08-15T16:18:27Z</time>
      </trkpt>
      <trkpt lat="54.740883009508252" lon="26.865416038781404">
        <ele>166.93000000000001</ele>
        <time>2011-08-15T16:18:41Z</time>
      </trkpt>
      <trkpt lat="54.740940006449819" lon="26.866054991260171">
        <ele>167.41</ele>
        <time>2011-08-15T16:18:54Z</time>
      </trkpt>
      <trkpt lat="54.740935983136296" lon="26.866626972332597">
        <ele>167.88999999999999</ele>
        <time>2011-08-15T16:19:06Z</time>
      </trkpt>
      <trkpt lat="54.740890972316265" lon="26.867113038897514">
        <ele>167.41</ele>
        <time>2011-08-15T16:19:16Z</time>
      </trkpt>
      <trkpt lat="54.740810003131628" lon="26.867635985836387">
        <ele>168.37</ele>
        <time>2011-08-15T16:19:28Z</time>
      </trkpt>
      <trkpt lat="54.740775972604752" lon="26.86796204186976">
        <ele>168.37</ele>
        <time>2011-08-15T16:19:36Z</time>
      </trkpt>
      <trkpt lat="54.740745965391397" lon="26.86852103099227">
        <ele>168.37</ele>
        <time>2011-08-15T16:19:48Z</time>
      </trkpt>
      <trkpt lat="54.740742025896907" lon="26.869179010391235">
        <ele>166.93000000000001</ele>
        <time>2011-08-15T16:20:01Z</time>
      </trkpt>
      <trkpt lat="54.740745965391397" lon="26.869713021442294">
        <ele>166.93000000000001</ele>
        <time>2011-08-15T16:20:12Z</time>
      </trkpt>
      <trkpt lat="54.740802962332964" lon="26.870291037485003">
        <ele>166.44999999999999</ele>
        <time>2011-08-15T16:20:23Z</time>
      </trkpt>
      <trkpt lat="54.740909999236465" lon="26.871087988838553">
        <ele>167.41</ele>
        <time>2011-08-15T16:20:38Z</time>
      </trkpt>
      <trkpt lat="54.740929026156664" lon="26.871798019856215">
        <ele>167.41</ele>
        <time>2011-08-15T16:20:52Z</time>
      </trkpt>
      <trkpt lat="54.741032039746642" lon="26.872572004795074">
        <ele>167.41</ele>
        <time>2011-08-15T16:21:07Z</time>
      </trkpt>
      <trkpt lat="54.741100016981363" lon="26.872813990339637">
        <ele>167.88999999999999</ele>
        <time>2011-08-15T16:21:12Z</time>
      </trkpt>
      <trkpt lat="54.741199007257819" lon="26.87297198921442">
        <ele>167.88999999999999</ele>
        <time>2011-08-15T16:21:19Z</time>
      </trkpt>
      <trkpt lat="54.741496983915567" lon="26.873297039419413">
        <ele>167.41</ele>
        <time>2011-08-15T16:21:32Z</time>
      </trkpt>
      <trkpt lat="54.741725977510214" lon="26.873559979721904">
        <ele>166.44999999999999</ele>
        <time>2011-08-15T16:21:44Z</time>
      </trkpt>
      <trkpt lat="54.741924041882157" lon="26.873842030763626">
        <ele>166.44999999999999</ele>
        <time>2011-08-15T16:21:54Z</time>
      </trkpt>
      <trkpt lat="54.741989001631737" lon="26.87395703047514">
        <ele>166.93000000000001</ele>
        <time>2011-08-15T16:21:58Z</time>
      </trkpt>
      <trkpt lat="54.742149012163281" lon="26.874241009354591">
        <ele>166.44999999999999</ele>
        <time>2011-08-15T16:22:07Z</time>
      </trkpt>
      <trkpt lat="54.742393009364605" lon="26.874509984627366">
        <ele>166.93000000000001</ele>
        <time>2011-08-15T16:22:17Z</time>
      </trkpt>
      <trkpt lat="54.742599036544561" lon="26.874726992100477">
        <ele>166.44999999999999</ele>
        <time>2011-08-15T16:22:24Z</time>
      </trkpt>
      <trkpt lat="54.742663996294141" lon="26.874830005690455">
        <ele>166.93000000000001</ele>
        <time>2011-08-15T16:22:28Z</time>
      </trkpt>
      <trkpt lat="54.742699032649398" lon="26.874990016222">
        <ele>166.93000000000001</ele>
        <time>2011-08-15T16:22:33Z</time>
      </trkpt>
      <trkpt lat="54.742737002670765" lon="26.875105015933514">
        <ele>167.88999999999999</ele>
        <time>2011-08-15T16:22:36Z</time>
      </trkpt>
      <trkpt lat="54.742732979357243" lon="26.875213980674744">
        <ele>167.41</ele>
        <time>2011-08-15T16:22:39Z</time>
      </trkpt>
      <trkpt lat="54.74274798296392" lon="26.875245999544859">
        <ele>167.41</ele>
        <time>2011-08-15T16:22:41Z</time>
      </trkpt>
      <trkpt lat="54.742778996005654" lon="26.875624023377895">
        <ele>167.41</ele>
        <time>2011-08-15T16:22:47Z</time>
      </trkpt>
      <trkpt lat="54.742846973240376" lon="26.875967010855675">
        <ele>167.41</ele>
        <time>2011-08-15T16:22:53Z</time>
      </trkpt>
      <trkpt lat="54.742888966575265" lon="26.876154011115432">
        <ele>166.93000000000001</ele>
        <time>2011-08-15T16:22:58Z</time>
      </trkpt>
      <trkpt lat="54.742835992947221" lon="26.876525999978185">
        <ele>167.88999999999999</ele>
        <time>2011-08-15T16:23:07Z</time>
      </trkpt>
      <trkpt lat="54.742844039574265" lon="26.877075014635921">
        <ele>167.88999999999999</ele>
        <time>2011-08-15T16:23:19Z</time>
      </trkpt>
      <trkpt lat="54.74285501986742" lon="26.877257991582155">
        <ele>167.88999999999999</ele>
        <time>2011-08-15T16:23:23Z</time>
      </trkpt>
      <trkpt lat="54.742882009595633" lon="26.877343989908695">
        <ele>167.88999999999999</ele>
        <time>2011-08-15T16:23:27Z</time>
      </trkpt>
      <trkpt lat="54.74285501986742" lon="26.877522021532059">
        <ele>167.88999999999999</ele>
        <time>2011-08-15T16:23:31Z</time>
      </trkpt>
      <trkpt lat="54.742886032909155" lon="26.878386028110981">
        <ele>167.88999999999999</ele>
        <time>2011-08-15T16:23:45Z</time>
      </trkpt>
      <trkpt lat="54.743003966286778" lon="26.879017017781734">
        <ele>168.84999999999999</ele>
        <time>2011-08-15T16:23:55Z</time>
      </trkpt>
      <trkpt lat="54.743190966546535" lon="26.879584975540638">
        <ele>168.37</ele>
        <time>2011-08-15T16:24:06Z</time>
      </trkpt>
      <trkpt lat="54.743374027311802" lon="26.87997599132359">
        <ele>168.37</ele>
        <time>2011-08-15T16:24:15Z</time>
      </trkpt>
      <trkpt lat="54.743407974019647" lon="26.88006198965013">
        <ele>168.37</ele>
        <time>2011-08-15T16:24:17Z</time>
      </trkpt>
      <trkpt lat="54.743744004517794" lon="26.880435990169644">
        <ele>168.37</ele>
        <time>2011-08-15T16:24:29Z</time>
      </trkpt>
      <trkpt lat="54.74399202503264" lon="26.88081200234592">
        <ele>168.37</ele>
        <time>2011-08-15T16:24:40Z</time>
      </trkpt>
      <trkpt lat="54.744140971451998" lon="26.881319023668766">
        <ele>168.37</ele>
        <time>2011-08-15T16:24:51Z</time>
      </trkpt>
      <trkpt lat="54.744239961728454" lon="26.881944984197617">
        <ele>168.84999999999999</ele>
        <time>2011-08-15T16:25:02Z</time>
      </trkpt>
      <trkpt lat="54.744346998631954" lon="26.882647974416614">
        <ele>168.84999999999999</ele>
        <time>2011-08-15T16:25:15Z</time>
      </trkpt>
      <trkpt lat="54.744388991966844" lon="26.883232025429606">
        <ele>169.33000000000001</ele>
        <time>2011-08-15T16:25:24Z</time>
      </trkpt>
      <trkpt lat="54.744568029418588" lon="26.884068958461285">
        <ele>169.81</ele>
        <time>2011-08-15T16:25:39Z</time>
      </trkpt>
      <trkpt lat="54.744568029418588" lon="26.884109023958445">
        <ele>169.33000000000001</ele>
        <time>2011-08-15T16:25:40Z</time>
      </trkpt>
      <trkpt lat="54.744568029418588" lon="26.88429300673306">
        <ele>165.47999999999999</ele>
        <time>2011-08-15T16:25:50Z</time>
      </trkpt>
      <trkpt lat="54.744568029418588" lon="26.88429300673306">
        <ele>170.28999999999999</ele>
        <time>2011-08-15T16:25:51Z</time>
      </trkpt>
      <trkpt lat="54.744568029418588" lon="26.88429300673306">
        <ele>169.81</ele>
        <time>2011-08-15T16:26:11Z</time>
      </trkpt>
      <trkpt lat="54.744568029418588" lon="26.88429300673306">
        <ele>166.44999999999999</ele>
        <time>2011-08-15T16:26:21Z</time>
      </trkpt>
      <trkpt lat="54.744568029418588" lon="26.88429300673306">
        <ele>169.81</ele>
        <time>2011-08-15T16:26:24Z</time>
      </trkpt>
      <trkpt lat="54.744571968913078" lon="26.884295018389821">
        <ele>169.33000000000001</ele>
        <time>2011-08-15T16:26:49Z</time>
      </trkpt>
      <trkpt lat="54.744571968913078" lon="26.884295018389821">
        <ele>165.96000000000001</ele>
        <time>2011-08-15T16:26:55Z</time>
      </trkpt>
      <trkpt lat="54.744571968913078" lon="26.884295018389821">
        <ele>165.96000000000001</ele>
        <time>2011-08-15T16:26:56Z</time>
      </trkpt>
      <trkpt lat="54.744571968913078" lon="26.884295018389821">
        <ele>169.33000000000001</ele>
        <time>2011-08-15T16:26:57Z</time>
      </trkpt>
      <trkpt lat="54.744571968913078" lon="26.884295018389821">
        <ele>169.81</ele>
        <time>2011-08-15T16:26:58Z</time>
      </trkpt>
      <trkpt lat="54.744590995833278" lon="26.884288983419538">
        <ele>169.33000000000001</ele>
        <time>2011-08-15T16:27:16Z</time>
      </trkpt>
      <trkpt lat="54.744590995833278" lon="26.884288983419538">
        <ele>168.84999999999999</ele>
        <time>2011-08-15T16:27:37Z</time>
      </trkpt>
      <trkpt lat="54.744586972519755" lon="26.884295018389821">
        <ele>169.33000000000001</ele>
        <time>2011-08-15T16:28:04Z</time>
      </trkpt>
      <trkpt lat="54.744598036631942" lon="26.884318990632892">
        <ele>168.84999999999999</ele>
        <time>2011-08-15T16:28:28Z</time>
      </trkpt>
      <trkpt lat="54.744598036631942" lon="26.884318990632892">
        <ele>168.37</ele>
        <time>2011-08-15T16:28:49Z</time>
      </trkpt>
      <trkpt lat="54.7445950191468" lon="26.884323013946414">
        <ele>168.84999999999999</ele>
        <time>2011-08-15T16:29:18Z</time>
      </trkpt>
      <trkpt lat="54.7445950191468" lon="26.884323013946414">
        <ele>168.84999999999999</ele>
        <time>2011-08-15T16:29:38Z</time>
      </trkpt>
      <trkpt lat="54.7445950191468" lon="26.884299963712692">
        <ele>168.37</ele>
        <time>2011-08-15T16:29:55Z</time>
      </trkpt>
      <trkpt lat="54.744568029418588" lon="26.884453017264605">
        <ele>167.88999999999999</ele>
        <time>2011-08-15T16:30:17Z</time>
      </trkpt>
      <trkpt lat="54.744465015828609" lon="26.885034972801805">
        <ele>167.41</ele>
        <time>2011-08-15T16:30:29Z</time>
      </trkpt>
      <trkpt lat="54.744434002786875" lon="26.885492037981749">
        <ele>168.37</ele>
        <time>2011-08-15T16:30:39Z</time>
      </trkpt>
      <trkpt lat="54.744414975866675" lon="26.88560301437974">
        <ele>167.41</ele>
        <time>2011-08-15T16:30:42Z</time>
      </trkpt>
      <trkpt lat="54.744288995862007" lon="26.886083967983723">
        <ele>167.41</ele>
        <time>2011-08-15T16:30:53Z</time>
      </trkpt>
      <trkpt lat="54.74412496201694" lon="26.886563999578357">
        <ele>168.37</ele>
        <time>2011-08-15T16:31:05Z</time>
      </trkpt>
      <trkpt lat="54.744113981723785" lon="26.886605992913246">
        <ele>167.88999999999999</ele>
        <time>2011-08-15T16:31:06Z</time>
      </trkpt>
      <trkpt lat="54.743988001719117" lon="26.886797016486526">
        <ele>167.88999999999999</ele>
        <time>2011-08-15T16:31:12Z</time>
      </trkpt>
      <trkpt lat="54.743857998400927" lon="26.88697999343276">
        <ele>167.41</ele>
        <time>2011-08-15T16:31:20Z</time>
      </trkpt>
      <trkpt lat="54.743609977886081" lon="26.887406967580318">
        <ele>167.88999999999999</ele>
        <time>2011-08-15T16:31:30Z</time>
      </trkpt>
      <trkpt lat="54.743407974019647" lon="26.8880520388484">
        <ele>167.88999999999999</ele>
        <time>2011-08-15T16:31:40Z</time>
      </trkpt>
      <trkpt lat="54.743332033976912" lon="26.888488987460732">
        <ele>168.37</ele>
        <time>2011-08-15T16:31:51Z</time>
      </trkpt>
      <trkpt lat="54.743317030370235" lon="26.888523017987609">
        <ele>168.84999999999999</ele>
        <time>2011-08-15T16:31:52Z</time>
      </trkpt>
      <trkpt lat="54.743275037035346" lon="26.889077983796597">
        <ele>168.84999999999999</ele>
        <time>2011-08-15T16:32:04Z</time>
      </trkpt>
      <trkpt lat="54.743339996784925" lon="26.889633033424616">
        <ele>168.84999999999999</ele>
        <time>2011-08-15T16:32:15Z</time>
      </trkpt>
      <trkpt lat="54.743458013981581" lon="26.890266034752131">
        <ele>168.84999999999999</ele>
        <time>2011-08-15T16:32:27Z</time>
      </trkpt>
      <trkpt lat="54.743453990668058" lon="26.89061002805829">
        <ele>168.37</ele>
        <time>2011-08-15T16:32:34Z</time>
      </trkpt>
      <trkpt lat="54.743419960141182" lon="26.891228025779128">
        <ele>169.33000000000001</ele>
        <time>2011-08-15T16:32:47Z</time>
      </trkpt>
      <trkpt lat="54.743464970961213" lon="26.89174703322351">
        <ele>169.33000000000001</ele>
        <time>2011-08-15T16:32:57Z</time>
      </trkpt>
      <trkpt lat="54.743495984002948" lon="26.892299987375736">
        <ele>169.81</ele>
        <time>2011-08-15T16:33:06Z</time>
      </trkpt>
      <trkpt lat="54.743546023964882" lon="26.892627971246839">
        <ele>169.33000000000001</ele>
        <time>2011-08-15T16:33:12Z</time>
      </trkpt>
      <trkpt lat="54.743606960400939" lon="26.893141027539968">
        <ele>169.33000000000001</ele>
        <time>2011-08-15T16:33:22Z</time>
      </trkpt>
      <trkpt lat="54.743618024513125" lon="26.893185032531619">
        <ele>169.81</ele>
        <time>2011-08-15T16:33:23Z</time>
      </trkpt>
      <trkpt lat="54.743655994534492" lon="26.893410002812743">
        <ele>167.41</ele>
        <time>2011-08-15T16:33:28Z</time>
      </trkpt>
      <trkpt lat="54.743770994246006" lon="26.894018026068807">
        <ele>169.81</ele>
        <time>2011-08-15T16:33:39Z</time>
      </trkpt>
      <trkpt lat="54.743832014501095" lon="26.894687991589308">
        <ele>170.28999999999999</ele>
        <time>2011-08-15T16:33:51Z</time>
      </trkpt>
      <trkpt lat="54.743899991735816" lon="26.894880020990968">
        <ele>171.25</ele>
        <time>2011-08-15T16:33:54Z</time>
      </trkpt>
      <trkpt lat="54.744025971740484" lon="26.895351000130177">
        <ele>171.25</ele>
        <time>2011-08-15T16:34:04Z</time>
      </trkpt>
      <trkpt lat="54.744185982272029" lon="26.895885011181235">
        <ele>171.25</ele>
        <time>2011-08-15T16:34:16Z</time>
      </trkpt>
      <trkpt lat="54.744492005556822" lon="26.896523963660002">
        <ele>171.25</ele>
        <time>2011-08-15T16:34:29Z</time>
      </trkpt>
      <trkpt lat="54.744781013578176" lon="26.897198036313057">
        <ele>171.72999999999999</ele>
        <time>2011-08-15T16:34:41Z</time>
      </trkpt>
      <trkpt lat="54.744834993034601" lon="26.897435998544097">
        <ele>171.72999999999999</ele>
        <time>2011-08-15T16:34:51Z</time>
      </trkpt>
      <trkpt lat="54.744834993034601" lon="26.897435998544097">
        <ele>171.72999999999999</ele>
        <time>2011-08-15T16:35:17Z</time>
      </trkpt>
      <trkpt lat="54.744887966662645" lon="26.897512022405863">
        <ele>171.25</ele>
        <time>2011-08-15T16:35:31Z</time>
      </trkpt>
      <trkpt lat="54.744945969432592" lon="26.897629033774137">
        <ele>172.21000000000001</ele>
        <time>2011-08-15T16:35:35Z</time>
      </trkpt>
      <trkpt lat="54.745048983022571" lon="26.898071011528373">
        <ele>171.25</ele>
        <time>2011-08-15T16:35:46Z</time>
      </trkpt>
      <trkpt lat="54.745177980512381" lon="26.898469990119338">
        <ele>171.72999999999999</ele>
        <time>2011-08-15T16:35:58Z</time>
      </trkpt>
      <trkpt lat="54.745243024080992" lon="26.898746006190777">
        <ele>172.21000000000001</ele>
        <time>2011-08-15T16:36:08Z</time>
      </trkpt>
      <trkpt lat="54.745384007692337" lon="26.899223020300269">
        <ele>171.72999999999999</ele>
        <time>2011-08-15T16:36:20Z</time>
      </trkpt>
      <trkpt lat="54.745663041248918" lon="26.899732975289226">
        <ele>171.72999999999999</ele>
        <time>2011-08-15T16:36:32Z</time>
      </trkpt>
      <trkpt lat="54.745894968509674" lon="26.900353990495205">
        <ele>172.21000000000001</ele>
        <time>2011-08-15T16:36:44Z</time>
      </trkpt>
      <trkpt lat="54.746070988476276" lon="26.900936029851437">
        <ele>173.16999999999999</ele>
        <time>2011-08-15T16:36:55Z</time>
      </trkpt>
      <trkpt lat="54.746147012338042" lon="26.901458976790309">
        <ele>175.09999999999999</ele>
        <time>2011-08-15T16:37:05Z</time>
      </trkpt>
      <trkpt lat="54.746193028986454" lon="26.902174036949873">
        <ele>175.58000000000001</ele>
        <time>2011-08-15T16:37:18Z</time>
      </trkpt>
      <trkpt lat="54.746193028986454" lon="26.902577960863709">
        <ele>175.58000000000001</ele>
        <time>2011-08-15T16:37:28Z</time>
      </trkpt>
      <trkpt lat="54.746127985417843" lon="26.903314981609583">
        <ele>174.13999999999999</ele>
        <time>2011-08-15T16:37:39Z</time>
      </trkpt>
      <trkpt lat="54.746059002354741" lon="26.904092989861965">
        <ele>174.13999999999999</ele>
        <time>2011-08-15T16:37:51Z</time>
      </trkpt>
      <trkpt lat="54.745955988764763" lon="26.90492196008563">
        <ele>172.69</ele>
        <time>2011-08-15T16:38:05Z</time>
      </trkpt>
      <trkpt lat="54.745892034843564" lon="26.905341977253556">
        <ele>172.21000000000001</ele>
        <time>2011-08-15T16:38:15Z</time>
      </trkpt>
      <trkpt lat="54.745837971568108" lon="26.905469968914986">
        <ele>172.69</ele>
        <time>2011-08-15T16:38:20Z</time>
      </trkpt>
      <trkpt lat="54.745815005153418" lon="26.905611036345363">
        <ele>172.69</ele>
        <time>2011-08-15T16:38:25Z</time>
      </trkpt>
      <trkpt lat="54.745807964354753" lon="26.905764006078243">
        <ele>172.69</ele>
        <time>2011-08-15T16:38:30Z</time>
      </trkpt>
      <trkpt lat="54.745804024860263" lon="26.906014960259199">
        <ele>172.69</ele>
        <time>2011-08-15T16:38:36Z</time>
      </trkpt>
      <trkpt lat="54.745765971019864" lon="26.90644302405417">
        <ele>171.72999999999999</ele>
        <time>2011-08-15T16:38:47Z</time>
      </trkpt>
      <trkpt lat="54.745773011818528" lon="26.907010981813073">
        <ele>171.72999999999999</ele>
        <time>2011-08-15T16:38:57Z</time>
      </trkpt>
      <trkpt lat="54.745872002094984" lon="26.907453965395689">
        <ele>171.25</ele>
        <time>2011-08-15T16:39:09Z</time>
      </trkpt>
      <trkpt lat="54.745940985158086" lon="26.90760400146246">
        <ele>172.21000000000001</ele>
        <time>2011-08-15T16:39:15Z</time>
      </trkpt>
      <trkpt lat="54.745952971279621" lon="26.907677007839084">
        <ele>171.72999999999999</ele>
        <time>2011-08-15T16:39:18Z</time>
      </trkpt>
      <trkpt lat="54.746075011789799" lon="26.908039022237062">
        <ele>172.21000000000001</ele>
        <time>2011-08-15T16:39:32Z</time>
      </trkpt>
      <trkpt lat="54.746371982619166" lon="26.908413022756577">
        <ele>172.69</ele>
        <time>2011-08-15T16:39:45Z</time>
      </trkpt>
      <trkpt lat="54.746582033112645" lon="26.908627012744546">
        <ele>172.69</ele>
        <time>2011-08-15T16:39:53Z</time>
      </trkpt>
      <trkpt lat="54.746681023389101" lon="26.908712005242705">
        <ele>172.21000000000001</ele>
        <time>2011-08-15T16:39:57Z</time>
      </trkpt>
      <trkpt lat="54.747405974194407" lon="26.909198993816972">
        <ele>167.88999999999999</ele>
        <time>2011-08-15T16:40:06Z</time>
      </trkpt>
      <trkpt lat="54.747425001114607" lon="26.909231012687087">
        <ele>173.66</ele>
        <time>2011-08-15T16:40:07Z</time>
      </trkpt>
      <trkpt lat="54.747471017763019" lon="26.909314999356866">
        <ele>170.77000000000001</ele>
        <time>2011-08-15T16:40:10Z</time>
      </trkpt>
      <trkpt lat="54.747493984177709" lon="26.909341989085078">
        <ele>174.13999999999999</ele>
        <time>2011-08-15T16:40:11Z</time>
      </trkpt>
      <trkpt lat="54.747528014704585" lon="26.909396974369884">
        <ele>172.21000000000001</ele>
        <time>2011-08-15T16:40:13Z</time>
      </trkpt>
      <trkpt lat="54.74768802523613" lon="26.909533012658358">
        <ele>172.21000000000001</ele>
        <time>2011-08-15T16:40:20Z</time>
      </trkpt>
      <trkpt lat="54.747986001893878" lon="26.909726969897747">
        <ele>172.69</ele>
        <time>2011-08-15T16:40:33Z</time>
      </trkpt>
      <trkpt lat="54.748131008818746" lon="26.909805005416274">
        <ele>172.21000000000001</ele>
        <time>2011-08-15T16:40:40Z</time>
      </trkpt>
      <trkpt lat="54.748454969376326" lon="26.909906007349491">
        <ele>172.69</ele>
        <time>2011-08-15T16:40:53Z</time>
      </trkpt>
      <trkpt lat="54.748740959912539" lon="26.909955963492393">
        <ele>172.69</ele>
        <time>2011-08-15T16:41:07Z</time>
      </trkpt>
      <trkpt lat="54.748840034008026" lon="26.909987982362509">
        <ele>169.33000000000001</ele>
        <time>2011-08-15T16:41:12Z</time>
      </trkpt>
      <trkpt lat="54.748852020129561" lon="26.909992005676031">
        <ele>174.62</ele>
        <time>2011-08-15T16:41:13Z</time>
      </trkpt>
      <trkpt lat="54.74891304038465" lon="26.910009020939469">
        <ele>171.25</ele>
        <time>2011-08-15T16:41:16Z</time>
      </trkpt>
      <trkpt lat="54.74930196069181" lon="26.910168025642633">
        <ele>173.16999999999999</ele>
        <time>2011-08-15T16:41:28Z</time>
      </trkpt>
      <trkpt lat="54.749362980946898" lon="26.910214964300394">
        <ele>174.13999999999999</ele>
        <time>2011-08-15T16:41:30Z</time>
      </trkpt>
      <trkpt lat="54.749808982014656" lon="26.91039701923728">
        <ele>172.69</ele>
        <time>2011-08-15T16:41:43Z</time>
      </trkpt>
      <trkpt lat="54.750312985852361" lon="26.910629030317068">
        <ele>172.21000000000001</ele>
        <time>2011-08-15T16:41:54Z</time>
      </trkpt>
      <trkpt lat="54.750754963606596" lon="26.910848971456289">
        <ele>171.72999999999999</ele>
        <time>2011-08-15T16:42:09Z</time>
      </trkpt>
      <trkpt lat="54.751064004376531" lon="26.911120964214206">
        <ele>170.77000000000001</ele>
        <time>2011-08-15T16:42:20Z</time>
      </trkpt>
      <trkpt lat="54.751330967992544" lon="26.911395974457264">
        <ele>170.77000000000001</ele>
        <time>2011-08-15T16:42:31Z</time>
      </trkpt>
      <trkpt lat="54.752205032855272" lon="26.91187902353704">
        <ele>170.28999999999999</ele>
        <time>2011-08-15T16:42:41Z</time>
      </trkpt>
      <trkpt lat="54.752605017274618" lon="26.912178006023169">
        <ele>171.72999999999999</ele>
        <time>2011-08-15T16:42:52Z</time>
      </trkpt>
      <trkpt lat="54.752895031124353" lon="26.912468019872904">
        <ele>170.77000000000001</ele>
        <time>2011-08-15T16:43:05Z</time>
      </trkpt>
      <trkpt lat="54.753342038020492" lon="26.912791980430484">
        <ele>171.25</ele>
        <time>2011-08-15T16:43:19Z</time>
      </trkpt>
      <trkpt lat="54.75355502218008" lon="26.912815030664206">
        <ele>172.21000000000001</ele>
        <time>2011-08-15T16:43:25Z</time>
      </trkpt>
      <trkpt lat="54.75372701883316" lon="26.912857023999095">
        <ele>172.21000000000001</ele>
        <time>2011-08-15T16:43:30Z</time>
      </trkpt>
      <trkpt lat="54.753983002156019" lon="26.912864986807108">
        <ele>172.21000000000001</ele>
        <time>2011-08-15T16:43:45Z</time>
      </trkpt>
      <trkpt lat="54.754024995490909" lon="26.912862975150347">
        <ele>172.21000000000001</ele>
        <time>2011-08-15T16:43:48Z</time>
      </trkpt>
      <trkpt lat="54.75409297272563" lon="26.912870015949011">
        <ele>172.69</ele>
        <time>2011-08-15T16:44:01Z</time>
      </trkpt>
      <trkpt lat="54.75409297272563" lon="26.912870015949011">
        <ele>172.21000000000001</ele>
        <time>2011-08-15T16:44:22Z</time>
      </trkpt>
      <trkpt lat="54.754116022959352" lon="26.912855012342334">
        <ele>172.69</ele>
        <time>2011-08-15T16:44:28Z</time>
      </trkpt>
      <trkpt lat="54.754185006022453" lon="26.912822993472219">
        <ele>172.21000000000001</ele>
        <time>2011-08-15T16:44:32Z</time>
      </trkpt>
      <trkpt lat="54.754611980170012" lon="26.912793992087245">
        <ele>171.72999999999999</ele>
        <time>2011-08-15T16:44:45Z</time>
      </trkpt>
      <trkpt lat="54.755077008157969" lon="26.912828022614121">
        <ele>172.21000000000001</ele>
        <time>2011-08-15T16:44:57Z</time>
      </trkpt>
      <trkpt lat="54.755649995058775" lon="26.913027008995414">
        <ele>172.21000000000001</ele>
        <time>2011-08-15T16:45:11Z</time>
      </trkpt>
      <trkpt lat="54.756142012774944" lon="26.913143014535308">
        <ele>170.77000000000001</ele>
        <time>2011-08-15T16:45:26Z</time>
      </trkpt>
      <trkpt lat="54.756579967215657" lon="26.913262959569693">
        <ele>171.25</ele>
        <time>2011-08-15T16:45:40Z</time>
      </trkpt>
      <trkpt lat="54.756977017968893" lon="26.913377959281206">
        <ele>170.77000000000001</ele>
        <time>2011-08-15T16:45:52Z</time>
      </trkpt>
      <trkpt lat="54.757496025413275" lon="26.913561020046473">
        <ele>172.21000000000001</ele>
        <time>2011-08-15T16:46:09Z</time>
      </trkpt>
      <trkpt lat="54.757747985422611" lon="26.913635032251477">
        <ele>172.21000000000001</ele>
        <time>2011-08-15T16:46:20Z</time>
      </trkpt>
      <trkpt lat="54.757797019556165" lon="26.913675013929605">
        <ele>172.21000000000001</ele>
        <time>2011-08-15T16:46:34Z</time>
      </trkpt>
      <trkpt lat="54.757797019556165" lon="26.913675013929605">
        <ele>169.33000000000001</ele>
        <time>2011-08-15T16:47:03Z</time>
      </trkpt>
      <trkpt lat="54.757797019556165" lon="26.913675013929605">
        <ele>172.21000000000001</ele>
        <time>2011-08-15T16:47:04Z</time>
      </trkpt>
      <trkpt lat="54.757800959050655" lon="26.913675013929605">
        <ele>172.69</ele>
        <time>2011-08-15T16:47:33Z</time>
      </trkpt>
      <trkpt lat="54.757800959050655" lon="26.913679037243128">
        <ele>172.21000000000001</ele>
        <time>2011-08-15T16:47:49Z</time>
      </trkpt>
      <trkpt lat="54.757828032597899" lon="26.913687000051141">
        <ele>172.21000000000001</ele>
        <time>2011-08-15T16:47:52Z</time>
      </trkpt>
      <trkpt lat="54.757912019267678" lon="26.913711978122592">
        <ele>172.21000000000001</ele>
        <time>2011-08-15T16:47:56Z</time>
      </trkpt>
      <trkpt lat="54.758353997021914" lon="26.913867965340614">
        <ele>173.16999999999999</ele>
        <time>2011-08-15T16:48:13Z</time>
      </trkpt>
      <trkpt lat="54.758663037791848" lon="26.913996040821075">
        <ele>172.21000000000001</ele>
        <time>2011-08-15T16:48:25Z</time>
      </trkpt>
      <trkpt lat="54.759124964475632" lon="26.914082039147615">
        <ele>172.21000000000001</ele>
        <time>2011-08-15T16:48:41Z</time>
      </trkpt>
      <trkpt lat="54.759521009400487" lon="26.914273984730244">
        <ele>171.72999999999999</ele>
        <time>2011-08-15T16:48:54Z</time>
      </trkpt>
      <trkpt lat="54.75984999909997" lon="26.914465008303523">
        <ele>171.25</ele>
        <time>2011-08-15T16:49:06Z</time>
      </trkpt>
      <trkpt lat="54.760155016556382" lon="26.914570033550262">
        <ele>171.72999999999999</ele>
        <time>2011-08-15T16:49:17Z</time>
      </trkpt>
      <trkpt lat="54.760379986837506" lon="26.914590988308191">
        <ele>172.69</ele>
        <time>2011-08-15T16:49:28Z</time>
      </trkpt>
      <trkpt lat="54.760596994310617" lon="26.91458503715694">
        <ele>172.69</ele>
        <time>2011-08-15T16:49:40Z</time>
      </trkpt>
      <trkpt lat="54.760803021490574" lon="26.914590988308191">
        <ele>172.69</ele>
        <time>2011-08-15T16:49:50Z</time>
      </trkpt>
      <trkpt lat="54.761195965111256" lon="26.91469400189817">
        <ele>174.13999999999999</ele>
        <time>2011-08-15T16:50:05Z</time>
      </trkpt>
      <trkpt lat="54.761344995349646" lon="26.914696013554931">
        <ele>174.62</ele>
        <time>2011-08-15T16:50:17Z</time>
      </trkpt>
      <trkpt lat="54.761367961764336" lon="26.914700958877802">
        <ele>175.09999999999999</ele>
        <time>2011-08-15T16:50:19Z</time>
      </trkpt>
      <trkpt lat="54.761615982279181" lon="26.914859963580966">
        <ele>176.53999999999999</ele>
        <time>2011-08-15T16:50:31Z</time>
      </trkpt>
      <trkpt lat="54.761630985885859" lon="26.914876978844404">
        <ele>177.02000000000001</ele>
        <time>2011-08-15T16:50:32Z</time>
      </trkpt>
      <trkpt lat="54.761958969756961" lon="26.915113013237715">
        <ele>177.97999999999999</ele>
        <time>2011-08-15T16:50:41Z</time>
      </trkpt>
      <trkpt lat="54.762420980259776" lon="26.915413001552224">
        <ele>176.53999999999999</ele>
        <time>2011-08-15T16:50:55Z</time>
      </trkpt>
      <trkpt lat="54.762886008247733" lon="26.915388023480773">
        <ele>175.09999999999999</ele>
        <time>2011-08-15T16:51:07Z</time>
      </trkpt>
      <trkpt lat="54.762980975210667" lon="26.915336977690458">
        <ele>175.58000000000001</ele>
        <time>2011-08-15T16:51:10Z</time>
      </trkpt>
      <trkpt lat="54.763130005449057" lon="26.915250979363918">
        <ele>175.58000000000001</ele>
        <time>2011-08-15T16:51:18Z</time>
      </trkpt>
      <trkpt lat="54.763596039265394" lon="26.915290961042047">
        <ele>173.16999999999999</ele>
        <time>2011-08-15T16:51:31Z</time>
      </trkpt>
      <trkpt lat="54.763924023136497" lon="26.915401015430689">
        <ele>173.66</ele>
        <time>2011-08-15T16:51:37Z</time>
      </trkpt>
      <trkpt lat="54.764309003949165" lon="26.915533030405641">
        <ele>173.66</ele>
        <time>2011-08-15T16:51:50Z</time>
      </trkpt>
      <trkpt lat="54.764346973970532" lon="26.915472010150552">
        <ele>173.16999999999999</ele>
        <time>2011-08-15T16:51:57Z</time>
      </trkpt>
      <trkpt lat="54.764366000890732" lon="26.915381988510489">
        <ele>173.66</ele>
        <time>2011-08-15T16:52:02Z</time>
      </trkpt>
      <trkpt lat="54.764407994225621" lon="26.915319040417671">
        <ele>173.16999999999999</ele>
        <time>2011-08-15T16:52:06Z</time>
      </trkpt>
      <trkpt lat="54.764506984502077" lon="26.915238993242383">
        <ele>173.66</ele>
        <time>2011-08-15T16:52:14Z</time>
      </trkpt>
      <trkpt lat="54.764609998092055" lon="26.915166992694139">
        <ele>173.66</ele>
        <time>2011-08-15T16:52:20Z</time>
      </trkpt>
      <trkpt lat="54.764713011682034" lon="26.915036989375949">
        <ele>173.66</ele>
        <time>2011-08-15T16:52:31Z</time>
      </trkpt>
      <trkpt lat="54.764828011393547" lon="26.914950991049409">
        <ele>173.66</ele>
        <time>2011-08-15T16:52:41Z</time>
      </trkpt>
      <trkpt lat="54.765015011653304" lon="26.914950991049409">
        <ele>173.66</ele>
        <time>2011-08-15T16:52:52Z</time>
      </trkpt>
      <trkpt lat="54.765057004988194" lon="26.914935987442732">
        <ele>173.16999999999999</ele>
        <time>2011-08-15T16:52:56Z</time>
      </trkpt>
      <trkpt lat="54.765106039121747" lon="26.914905980229378">
        <ele>173.66</ele>
        <time>2011-08-15T16:52:59Z</time>
      </trkpt>
      <trkpt lat="54.765529995784163" lon="26.914864992722869">
        <ele>172.69</ele>
        <time>2011-08-15T16:53:13Z</time>
      </trkpt>
      <trkpt lat="54.76560995914042" lon="26.914841020479798">
        <ele>172.69</ele>
        <time>2011-08-15T16:53:18Z</time>
      </trkpt>
      <trkpt lat="54.765652036294341" lon="26.914815958589315">
        <ele>172.69</ele>
        <time>2011-08-15T16:53:21Z</time>
      </trkpt>
      <trkpt lat="54.765804000198841" lon="26.914788968861103">
        <ele>172.69</ele>
        <time>2011-08-15T16:53:28Z</time>
      </trkpt>
      <trkpt lat="54.76599502377212" lon="26.914768014103174">
        <ele>173.16999999999999</ele>
        <time>2011-08-15T16:53:37Z</time>
      </trkpt>
      <trkpt lat="54.766143970191479" lon="26.914763990789652">
        <ele>173.16999999999999</ele>
        <time>2011-08-15T16:53:50Z</time>
      </trkpt>
      <trkpt lat="54.766143970191479" lon="26.914763990789652">
        <ele>171.72999999999999</ele>
        <time>2011-08-15T16:54:21Z</time>
      </trkpt>
      <trkpt lat="54.766173977404833" lon="26.914761979132891">
        <ele>172.21000000000001</ele>
        <time>2011-08-15T16:54:30Z</time>
      </trkpt>
      <trkpt lat="54.766228040680289" lon="26.914757033810019">
        <ele>172.21000000000001</ele>
        <time>2011-08-15T16:54:33Z</time>
      </trkpt>
      <trkpt lat="54.766417974606156" lon="26.91471504047513">
        <ele>171.72999999999999</ele>
        <time>2011-08-15T16:54:43Z</time>
      </trkpt>
      <trkpt lat="54.766517970710993" lon="26.914713028818369">
        <ele>171.72999999999999</ele>
        <time>2011-08-15T16:54:47Z</time>
      </trkpt>
      <trkpt lat="54.766616960987449" lon="26.914657959714532">
        <ele>171.72999999999999</ele>
        <time>2011-08-15T16:54:52Z</time>
      </trkpt>
      <trkpt lat="54.766803961247206" lon="26.914627030491829">
        <ele>172.21000000000001</ele>
        <time>2011-08-15T16:54:56Z</time>
      </trkpt>
      <trkpt lat="54.766888031736016" lon="26.914618983864784">
        <ele>171.25</ele>
        <time>2011-08-15T16:54:58Z</time>
      </trkpt>
      <trkpt lat="54.767035972326994" lon="26.914597023278475">
        <ele>172.21000000000001</ele>
        <time>2011-08-15T16:55:06Z</time>
      </trkpt>
      <trkpt lat="54.767207968980074" lon="26.91454497165978">
        <ele>171.25</ele>
        <time>2011-08-15T16:55:12Z</time>
      </trkpt>
      <trkpt lat="54.767383988946676" lon="26.914421003311872">
        <ele>171.25</ele>
        <time>2011-08-15T16:55:18Z</time>
      </trkpt>
      <trkpt lat="54.767451966181397" lon="26.914399964734912">
        <ele>171.25</ele>
        <time>2011-08-15T16:55:22Z</time>
      </trkpt>
      <trkpt lat="54.76775698363781" lon="26.914344979450107">
        <ele>172.69</ele>
        <time>2011-08-15T16:55:35Z</time>
      </trkpt>
      <trkpt lat="54.76818798109889" lon="26.914269961416721">
        <ele>171.72999999999999</ele>
        <time>2011-08-15T16:55:46Z</time>
      </trkpt>
      <trkpt lat="54.768353020772338" lon="26.914267027750611">
        <ele>171.72999999999999</ele>
        <time>2011-08-15T16:55:54Z</time>
      </trkpt>
      <trkpt lat="54.768458968028426" lon="26.914189998060465">
        <ele>173.16999999999999</ele>
        <time>2011-08-15T16:56:00Z</time>
      </trkpt>
      <trkpt lat="54.768535997718573" lon="26.914172982797027">
        <ele>172.69</ele>
        <time>2011-08-15T16:56:02Z</time>
      </trkpt>
      <trkpt lat="54.768585031852126" lon="26.914110034704208">
        <ele>172.21000000000001</ele>
        <time>2011-08-15T16:56:05Z</time>
      </trkpt>
      <trkpt lat="54.768730038776994" lon="26.91407198086381">
        <ele>171.25</ele>
        <time>2011-08-15T16:56:08Z</time>
      </trkpt>
      <trkpt lat="54.769245022907853" lon="26.914042979478836">
        <ele>170.77000000000001</ele>
        <time>2011-08-15T16:56:17Z</time>
      </trkpt>
      <trkpt lat="54.769526990130544" lon="26.913923034444451">
        <ele>170.28999999999999</ele>
        <time>2011-08-15T16:56:26Z</time>
      </trkpt>
      <trkpt lat="54.769547022879124" lon="26.913908030837774">
        <ele>170.77000000000001</ele>
        <time>2011-08-15T16:56:27Z</time>
      </trkpt>
      <trkpt lat="54.769870983436704" lon="26.913827983662486">
        <ele>170.28999999999999</ele>
        <time>2011-08-15T16:56:34Z</time>
      </trkpt>
      <trkpt lat="54.769896967336535" lon="26.913788001984358">
        <ele>169.81</ele>
        <time>2011-08-15T16:56:36Z</time>
      </trkpt>
      <trkpt lat="54.769936027005315" lon="26.91375195980072">
        <ele>169.81</ele>
        <time>2011-08-15T16:56:38Z</time>
      </trkpt>
      <trkpt lat="54.770061001181602" lon="26.913754977285862">
        <ele>170.28999999999999</ele>
        <time>2011-08-15T16:56:41Z</time>
      </trkpt>
      <trkpt lat="54.77009997703135" lon="26.91372899338603">
        <ele>170.28999999999999</ele>
        <time>2011-08-15T16:56:43Z</time>
      </trkpt>
      <trkpt lat="54.770298041403294" lon="26.913709966465831">
        <ele>170.28999999999999</ele>
        <time>2011-08-15T16:56:47Z</time>
      </trkpt>
      <trkpt lat="54.770648991689086" lon="26.913657998666167">
        <ele>170.28999999999999</ele>
        <time>2011-08-15T16:56:58Z</time>
      </trkpt>
      <trkpt lat="54.770882008597255" lon="26.913477033376694">
        <ele>171.72999999999999</ele>
        <time>2011-08-15T16:57:08Z</time>
      </trkpt>
      <trkpt lat="54.770904975011945" lon="26.913464963436127">
        <ele>172.21000000000001</ele>
        <time>2011-08-15T16:57:09Z</time>
      </trkpt>
      <trkpt lat="54.77104595862329" lon="26.913424981757998">
        <ele>172.69</ele>
        <time>2011-08-15T16:57:14Z</time>
      </trkpt>
      <trkpt lat="54.771187026053667" lon="26.913379970937967">
        <ele>172.21000000000001</ele>
        <time>2011-08-15T16:57:18Z</time>
      </trkpt>
      <trkpt lat="54.771579969674349" lon="26.91327502951026">
        <ele>171.25</ele>
        <time>2011-08-15T16:57:29Z</time>
      </trkpt>
      <trkpt lat="54.771956987679005" lon="26.91327502951026">
        <ele>171.25</ele>
        <time>2011-08-15T16:57:37Z</time>
      </trkpt>
      <trkpt lat="54.772067964076996" lon="26.913229012861848">
        <ele>171.72999999999999</ele>
        <time>2011-08-15T16:57:40Z</time>
      </trkpt>
      <trkpt lat="54.772170977666974" lon="26.913176039233804">
        <ele>171.25</ele>
        <time>2011-08-15T16:57:44Z</time>
      </trkpt>
      <trkpt lat="54.772305004298687" lon="26.913143014535308">
        <ele>171.72999999999999</ele>
        <time>2011-08-15T16:57:49Z</time>
      </trkpt>
      <trkpt lat="54.772471971809864" lon="26.91310303285718">
        <ele>172.69</ele>
        <time>2011-08-15T16:57:55Z</time>
      </trkpt>
      <trkpt lat="54.772601975128055" lon="26.912932964041829">
        <ele>172.21000000000001</ele>
        <time>2011-08-15T16:58:00Z</time>
      </trkpt>
      <trkpt lat="54.772667018696666" lon="26.912763984873891">
        <ele>172.21000000000001</ele>
        <time>2011-08-15T16:58:04Z</time>
      </trkpt>
      <trkpt lat="54.77271999232471" lon="26.91241797991097">
        <ele>172.69</ele>
        <time>2011-08-15T16:58:12Z</time>
      </trkpt>
      <trkpt lat="54.772781012579799" lon="26.911929985508323">
        <ele>172.21000000000001</ele>
        <time>2011-08-15T16:58:20Z</time>
      </trkpt>
      <trkpt lat="54.772819988429546" lon="26.911637960001826">
        <ele>172.69</ele>
        <time>2011-08-15T16:58:24Z</time>
      </trkpt>
      <trkpt lat="54.772884026169777" lon="26.91127804107964">
        <ele>172.21000000000001</ele>
        <time>2011-08-15T16:58:29Z</time>
      </trkpt>
      <trkpt lat="54.772948985919356" lon="26.910814018920064">
        <ele>172.21000000000001</ele>
        <time>2011-08-15T16:58:35Z</time>
      </trkpt>
      <trkpt lat="54.773017968982458" lon="26.910073980689049">
        <ele>171.72999999999999</ele>
        <time>2011-08-15T16:58:44Z</time>
      </trkpt>
      <trkpt lat="54.773067003116012" lon="26.909748008474708">
        <ele>172.69</ele>
        <time>2011-08-15T16:58:48Z</time>
      </trkpt>
      <trkpt lat="54.773078989237547" lon="26.909495964646339">
        <ele>172.69</ele>
        <time>2011-08-15T16:58:51Z</time>
      </trkpt>
      <trkpt lat="54.773078989237547" lon="26.909149037674069">
        <ele>172.69</ele>
        <time>2011-08-15T16:58:55Z</time>
      </trkpt>
      <trkpt lat="54.773056022822857" lon="26.908017983660102">
        <ele>171.72999999999999</ele>
        <time>2011-08-15T16:59:08Z</time>
      </trkpt>
      <trkpt lat="54.77304101921618" lon="26.907423036172986">
        <ele>172.69</ele>
        <time>2011-08-15T16:59:15Z</time>
      </trkpt>
      <trkpt lat="54.773010006174445" lon="26.907160012051463">
        <ele>172.69</ele>
        <time>2011-08-15T16:59:18Z</time>
      </trkpt>
      <trkpt lat="54.772990979254246" lon="26.906733959913254">
        <ele>173.16999999999999</ele>
        <time>2011-08-15T16:59:23Z</time>
      </trkpt>
      <trkpt lat="54.772751005366445" lon="26.905519003048539">
        <ele>172.21000000000001</ele>
        <time>2011-08-15T16:59:37Z</time>
      </trkpt>
      <trkpt lat="54.772728038951755" lon="26.905352035537362">
        <ele>171.72999999999999</ele>
        <time>2011-08-15T16:59:39Z</time>
      </trkpt>
      <trkpt lat="54.772658972069621" lon="26.905080964788795">
        <ele>171.25</ele>
        <time>2011-08-15T16:59:42Z</time>
      </trkpt>
      <trkpt lat="54.772605998441577" lon="26.904807966202497">
        <ele>172.69</ele>
        <time>2011-08-15T16:59:45Z</time>
      </trkpt>
      <trkpt lat="54.772544978186488" lon="26.90448802895844">
        <ele>171.72999999999999</ele>
        <time>2011-08-15T16:59:49Z</time>
      </trkpt>
      <trkpt lat="54.77252603508532" lon="26.90423397347331">
        <ele>171.72999999999999</ele>
        <time>2011-08-15T16:59:52Z</time>
      </trkpt>
      <trkpt lat="54.77244196459651" lon="26.903526037931442">
        <ele>171.25</ele>
        <time>2011-08-15T17:00:00Z</time>
      </trkpt>
      <trkpt lat="54.772408017888665" lon="26.903331996873021">
        <ele>171.25</ele>
        <time>2011-08-15T17:00:02Z</time>
      </trkpt>
      <trkpt lat="54.772366024553776" lon="26.903037959709764">
        <ele>171.25</ele>
        <time>2011-08-15T17:00:05Z</time>
      </trkpt>
      <trkpt lat="54.772345991805196" lon="26.902842996641994">
        <ele>170.77000000000001</ele>
        <time>2011-08-15T17:00:07Z</time>
      </trkpt>
      <trkpt lat="54.772236021235585" lon="26.902159033343196">
        <ele>171.25</ele>
        <time>2011-08-15T17:00:14Z</time>
      </trkpt>
      <trkpt lat="54.772205008193851" lon="26.901879999786615">
        <ele>170.77000000000001</ele>
        <time>2011-08-15T17:00:17Z</time>
      </trkpt>
      <trkpt lat="54.772152034565806" lon="26.901608007028699">
        <ele>171.25</ele>
        <time>2011-08-15T17:00:20Z</time>
      </trkpt>
      <trkpt lat="54.772060001268983" lon="26.901125041767955">
        <ele>172.21000000000001</ele>
        <time>2011-08-15T17:00:29Z</time>
      </trkpt>
      <trkpt lat="54.772060001268983" lon="26.901125041767955">
        <ele>172.21000000000001</ele>
        <time>2011-08-15T17:01:01Z</time>
      </trkpt>
      <trkpt lat="54.772007027640939" lon="26.900798985734582">
        <ele>171.72999999999999</ele>
        <time>2011-08-15T17:01:11Z</time>
      </trkpt>
      <trkpt lat="54.771992024034262" lon="26.900596981868148">
        <ele>171.25</ele>
        <time>2011-08-15T17:01:14Z</time>
      </trkpt>
      <trkpt lat="54.771961010992527" lon="26.900301016867161">
        <ele>171.25</ele>
        <time>2011-08-15T17:01:18Z</time>
      </trkpt>
      <trkpt lat="54.771908037364483" lon="26.899872031062841">
        <ele>170.77000000000001</ele>
        <time>2011-08-15T17:01:23Z</time>
      </trkpt>
      <trkpt lat="54.771838970482349" lon="26.899529965594411">
        <ele>170.77000000000001</ele>
        <time>2011-08-15T17:01:27Z</time>
      </trkpt>
      <trkpt lat="54.771754983812571" lon="26.899060998111963">
        <ele>170.77000000000001</ele>
        <time>2011-08-15T17:01:32Z</time>
      </trkpt>
      <trkpt lat="54.771660016849637" lon="26.898456998169422">
        <ele>169.81</ele>
        <time>2011-08-15T17:01:38Z</time>
      </trkpt>
      <trkpt lat="54.771358016878366" lon="26.896982034668326">
        <ele>169.81</ele>
        <time>2011-08-15T17:01:52Z</time>
      </trkpt>
      <trkpt lat="54.771190965548158" lon="26.896147029474378">
        <ele>169.33000000000001</ele>
        <time>2011-08-15T17:02:00Z</time>
      </trkpt>
      <trkpt lat="54.771103039383888" lon="26.895719971507788">
        <ele>169.33000000000001</ele>
        <time>2011-08-15T17:02:04Z</time>
      </trkpt>
      <trkpt lat="54.77085099555552" lon="26.894321031868458">
        <ele>168.84999999999999</ele>
        <time>2011-08-15T17:02:18Z</time>
      </trkpt>
      <trkpt lat="54.770844038575888" lon="26.89424098469317">
        <ele>168.84999999999999</ele>
        <time>2011-08-15T17:02:19Z</time>
      </trkpt>
      <trkpt lat="54.770934982225299" lon="26.894193962216377">
        <ele>169.81</ele>
        <time>2011-08-15T17:02:23Z</time>
      </trkpt>
      <trkpt lat="54.771167999133468" lon="26.894587995484471">
        <ele>170.28999999999999</ele>
        <time>2011-08-15T17:02:34Z</time>
      </trkpt>
      <trkpt lat="54.771313006058335" lon="26.894916985183954">
        <ele>170.28999999999999</ele>
        <time>2011-08-15T17:02:40Z</time>
      </trkpt>
      <trkpt lat="54.771655993536115" lon="26.895444961264729">
        <ele>170.77000000000001</ele>
        <time>2011-08-15T17:02:53Z</time>
      </trkpt>
      <trkpt lat="54.771926980465651" lon="26.895707985386252">
        <ele>171.25</ele>
        <time>2011-08-15T17:03:03Z</time>
      </trkpt>
      <trkpt lat="54.772392008453608" lon="26.896121967583895">
        <ele>170.77000000000001</ele>
        <time>2011-08-15T17:03:14Z</time>
      </trkpt>
      <trkpt lat="54.772694008424878" lon="26.896829986944795">
        <ele>170.77000000000001</ele>
        <time>2011-08-15T17:03:26Z</time>
      </trkpt>
      <trkpt lat="54.772834992036223" lon="26.897169034928083">
        <ele>170.77000000000001</ele>
        <time>2011-08-15T17:03:32Z</time>
      </trkpt>
      <trkpt lat="54.773234976455569" lon="26.897792983800173">
        <ele>170.77000000000001</ele>
        <time>2011-08-15T17:03:43Z</time>
      </trkpt>
      <trkpt lat="54.773261966183782" lon="26.897820979356766">
        <ele>171.25</ele>
        <time>2011-08-15T17:03:44Z</time>
      </trkpt>
      <trkpt lat="54.773575030267239" lon="26.89806598238647">
        <ele>171.25</ele>
        <time>2011-08-15T17:03:53Z</time>
      </trkpt>
      <trkpt lat="54.773879963904619" lon="26.898331018164754">
        <ele>171.72999999999999</ele>
        <time>2011-08-15T17:04:00Z</time>
      </trkpt>
      <trkpt lat="54.774051960557699" lon="26.898361025378108">
        <ele>171.25</ele>
        <time>2011-08-15T17:04:04Z</time>
      </trkpt>
      <trkpt lat="54.7744179982692" lon="26.898036981001496">
        <ele>171.72999999999999</ele>
        <time>2011-08-15T17:04:13Z</time>
      </trkpt>
      <trkpt lat="54.774509025737643" lon="26.897889962419868">
        <ele>173.16999999999999</ele>
        <time>2011-08-15T17:04:16Z</time>
      </trkpt>
      <trkpt lat="54.774841032922268" lon="26.897558039054275">
        <ele>172.69</ele>
        <time>2011-08-15T17:04:25Z</time>
      </trkpt>
      <trkpt lat="54.775356017053127" lon="26.897266013547778">
        <ele>172.69</ele>
        <time>2011-08-15T17:04:37Z</time>
      </trkpt>
      <trkpt lat="54.775691963732243" lon="26.89712100662291">
        <ele>173.16999999999999</ele>
        <time>2011-08-15T17:04:46Z</time>
      </trkpt>
      <trkpt lat="54.775875024497509" lon="26.89714103937149">
        <ele>172.21000000000001</ele>
        <time>2011-08-15T17:04:50Z</time>
      </trkpt>
      <trkpt lat="54.776065964251757" lon="26.89724899828434">
        <ele>171.72999999999999</ele>
        <time>2011-08-15T17:04:54Z</time>
      </trkpt>
      <trkpt lat="54.776237038895488" lon="26.897433986887336">
        <ele>172.21000000000001</ele>
        <time>2011-08-15T17:04:59Z</time>
      </trkpt>
      <trkpt lat="54.776454968377948" lon="26.89759399741888">
        <ele>171.72999999999999</ele>
        <time>2011-08-15T17:05:03Z</time>
      </trkpt>
      <trkpt lat="54.776942962780595" lon="26.897869007661939">
        <ele>172.69</ele>
        <time>2011-08-15T17:05:13Z</time>
      </trkpt>
      <trkpt lat="54.777087969705462" lon="26.897930027917027">
        <ele>172.69</ele>
        <time>2011-08-15T17:05:16Z</time>
      </trkpt>
      <trkpt lat="54.777569007128477" lon="26.898034969344735">
        <ele>171.72999999999999</ele>
        <time>2011-08-15T17:05:26Z</time>
      </trkpt>
      <trkpt lat="54.777633966878057" lon="26.897996999323368">
        <ele>172.21000000000001</ele>
        <time>2011-08-15T17:05:28Z</time>
      </trkpt>
      <trkpt lat="54.777881987392902" lon="26.897847969084978">
        <ele>171.72999999999999</ele>
        <time>2011-08-15T17:05:33Z</time>
      </trkpt>
      <trkpt lat="54.778300998732448" lon="26.897642025724053">
        <ele>172.21000000000001</ele>
        <time>2011-08-15T17:05:41Z</time>
      </trkpt>
      <trkpt lat="54.778706012293696" lon="26.897387970238924">
        <ele>171.72999999999999</ele>
        <time>2011-08-15T17:05:49Z</time>
      </trkpt>
      <trkpt lat="54.778899969533086" lon="26.89722603186965">
        <ele>172.69</ele>
        <time>2011-08-15T17:05:53Z</time>
      </trkpt>
      <trkpt lat="54.778992002829909" lon="26.897147996351123">
        <ele>172.21000000000001</ele>
        <time>2011-08-15T17:05:55Z</time>
      </trkpt>
      <trkpt lat="54.779216973111033" lon="26.896975999698043">
        <ele>172.21000000000001</ele>
        <time>2011-08-15T17:06:00Z</time>
      </trkpt>
      <trkpt lat="54.779674960300326" lon="26.896593030542135">
        <ele>173.66</ele>
        <time>2011-08-15T17:06:12Z</time>
      </trkpt>
      <trkpt lat="54.779994981363416" lon="26.896315002813935">
        <ele>174.62</ele>
        <time>2011-08-15T17:06:23Z</time>
      </trkpt>
      <trkpt lat="54.78030402213335" lon="26.896134959533811">
        <ele>174.62</ele>
        <time>2011-08-15T17:06:34Z</time>
      </trkpt>
      <trkpt lat="54.780581966042519" lon="26.896136971190572">
        <ele>174.62</ele>
        <time>2011-08-15T17:06:42Z</time>
      </trkpt>
      <trkpt lat="54.780784975737333" lon="26.896197991445661">
        <ele>172.69</ele>
        <time>2011-08-15T17:06:46Z</time>
      </trkpt>
      <trkpt lat="54.781223013997078" lon="26.896416004747152">
        <ele>172.69</ele>
        <time>2011-08-15T17:06:54Z</time>
      </trkpt>
      <trkpt lat="54.781830031424761" lon="26.896796962246299">
        <ele>172.21000000000001</ele>
        <time>2011-08-15T17:07:07Z</time>
      </trkpt>
      <trkpt lat="54.782252982258797" lon="26.897046994417906">
        <ele>174.13999999999999</ele>
        <time>2011-08-15T17:07:17Z</time>
      </trkpt>
      <trkpt lat="54.782288018614054" lon="26.897083036601543">
        <ele>174.62</ele>
        <time>2011-08-15T17:07:18Z</time>
      </trkpt>
      <trkpt lat="54.782501002773643" lon="26.897563990205526">
        <ele>173.66</ele>
        <time>2011-08-15T17:07:28Z</time>
      </trkpt>
      <trkpt lat="54.782761009410024" lon="26.898206965997815">
        <ele>172.69</ele>
        <time>2011-08-15T17:07:39Z</time>
      </trkpt>
      <trkpt lat="54.783046999946237" lon="26.898829992860556">
        <ele>171.72999999999999</ele>
        <time>2011-08-15T17:07:50Z</time>
      </trkpt>
      <trkpt lat="54.783114977180958" lon="26.898993020877242">
        <ele>172.69</ele>
        <time>2011-08-15T17:07:53Z</time>
      </trkpt>
      <trkpt lat="54.783217990770936" lon="26.899082036688924">
        <ele>171.72999999999999</ele>
        <time>2011-08-15T17:07:57Z</time>
      </trkpt>
      <trkpt lat="54.783732974901795" lon="26.899329973384738">
        <ele>173.16999999999999</ele>
        <time>2011-08-15T17:08:10Z</time>
      </trkpt>
      <trkpt lat="54.78406498208642" lon="26.899412032216787">
        <ele>174.13999999999999</ele>
        <time>2011-08-15T17:08:19Z</time>
      </trkpt>
      <trkpt lat="54.784477036446333" lon="26.899499958381057">
        <ele>174.62</ele>
        <time>2011-08-15T17:08:27Z</time>
      </trkpt>
      <trkpt lat="54.784869980067015" lon="26.899540023878217">
        <ele>175.09999999999999</ele>
        <time>2011-08-15T17:08:37Z</time>
      </trkpt>
      <trkpt lat="54.785378007218242" lon="26.899629961699247">
        <ele>173.66</ele>
        <time>2011-08-15T17:08:49Z</time>
      </trkpt>
      <trkpt lat="54.785518990829587" lon="26.899663992226124">
        <ele>174.62</ele>
        <time>2011-08-15T17:08:52Z</time>
      </trkpt>
      <trkpt lat="54.785979995504022" lon="26.899850992485881">
        <ele>173.66</ele>
        <time>2011-08-15T17:09:03Z</time>
      </trkpt>
      <trkpt lat="54.786476036533713" lon="26.900062970817089">
        <ele>173.66</ele>
        <time>2011-08-15T17:09:14Z</time>
      </trkpt>
      <trkpt lat="54.786816006526351" lon="26.900060959160328">
        <ele>173.16999999999999</ele>
        <time>2011-08-15T17:09:22Z</time>
      </trkpt>
      <trkpt lat="54.78713602758944" lon="26.900006979703903">
        <ele>173.66</ele>
        <time>2011-08-15T17:09:31Z</time>
      </trkpt>
      <trkpt lat="54.787395028397441" lon="26.9000209774822">
        <ele>174.13999999999999</ele>
        <time>2011-08-15T17:09:39Z</time>
      </trkpt>
      <trkpt lat="54.787739021703601" lon="26.900028018280864">
        <ele>174.62</ele>
        <time>2011-08-15T17:09:47Z</time>
      </trkpt>
      <trkpt lat="54.788399012759328" lon="26.900003040209413">
        <ele>174.13999999999999</ele>
        <time>2011-08-15T17:09:58Z</time>
      </trkpt>
      <trkpt lat="54.788581989705563" lon="26.899971021339297">
        <ele>174.13999999999999</ele>
        <time>2011-08-15T17:10:03Z</time>
      </trkpt>
      <trkpt lat="54.788711993023753" lon="26.899976972490549">
        <ele>174.13999999999999</ele>
        <time>2011-08-15T17:10:07Z</time>
      </trkpt>
      <trkpt lat="54.788798997178674" lon="26.899940008297563">
        <ele>174.13999999999999</ele>
        <time>2011-08-15T17:10:12Z</time>
      </trkpt>
      <trkpt lat="54.78891802020371" lon="26.899883011355996">
        <ele>174.13999999999999</ele>
        <time>2011-08-15T17:10:18Z</time>
      </trkpt>
      <trkpt lat="54.789008963853121" lon="26.89974001608789">
        <ele>174.13999999999999</ele>
        <time>2011-08-15T17:10:23Z</time>
      </trkpt>
      <trkpt lat="54.789138967171311" lon="26.899417983368039">
        <ele>174.13999999999999</ele>
        <time>2011-08-15T17:10:32Z</time>
      </trkpt>
      <trkpt lat="54.789153970777988" lon="26.89933399669826">
        <ele>174.13999999999999</ele>
        <time>2011-08-15T17:10:34Z</time>
      </trkpt>
      <trkpt lat="54.789195964112878" lon="26.899255961179733">
        <ele>174.13999999999999</ele>
        <time>2011-08-15T17:10:36Z</time>
      </trkpt>
      <trkpt lat="54.789496958255768" lon="26.899063009768724">
        <ele>174.13999999999999</ele>
        <time>2011-08-15T17:10:48Z</time>
      </trkpt>
      <trkpt lat="54.789496958255768" lon="26.899054041132331">
        <ele>174.62</ele>
        <time>2011-08-15T17:11:07Z</time>
      </trkpt>
      <trkpt lat="54.789496958255768" lon="26.899054041132331">
        <ele>174.62</ele>
        <time>2011-08-15T17:11:27Z</time>
      </trkpt>
      <trkpt lat="54.789566025137901" lon="26.89901003614068">
        <ele>174.13999999999999</ele>
        <time>2011-08-15T17:11:45Z</time>
      </trkpt>
      <trkpt lat="54.789660992100835" lon="26.898972988128662">
        <ele>174.13999999999999</ele>
        <time>2011-08-15T17:11:57Z</time>
      </trkpt>
      <trkpt lat="54.789867019280791" lon="26.898784982040524">
        <ele>174.62</ele>
        <time>2011-08-15T17:12:07Z</time>
      </trkpt>
      <trkpt lat="54.790043039247394" lon="26.898678028956056">
        <ele>175.09999999999999</ele>
        <time>2011-08-15T17:12:12Z</time>
      </trkpt>
      <trkpt lat="54.790154015645385" lon="26.898649027571082">
        <ele>175.58000000000001</ele>
        <time>2011-08-15T17:12:22Z</time>
      </trkpt>
      <trkpt lat="54.790160972625017" lon="26.898642992600799">
        <ele>176.06</ele>
        <time>2011-08-15T17:12:35Z</time>
      </trkpt>
      <trkpt lat="54.790191985666752" lon="26.89862597733736">
        <ele>175.58000000000001</ele>
        <time>2011-08-15T17:12:45Z</time>
      </trkpt>
      <trkpt lat="54.790211012586951" lon="26.898588007315993">
        <ele>175.58000000000001</ele>
        <time>2011-08-15T17:12:47Z</time>
      </trkpt>
      <trkpt lat="54.790325006470084" lon="26.898580966517329">
        <ele>175.09999999999999</ele>
        <time>2011-08-15T17:12:51Z</time>
      </trkpt>
      <trkpt lat="54.790667993947864" lon="26.898541990667582">
        <ele>175.58000000000001</ele>
        <time>2011-08-15T17:13:01Z</time>
      </trkpt>
      <trkpt lat="54.790996983647346" lon="26.898506032302976">
        <ele>176.06</ele>
        <time>2011-08-15T17:13:09Z</time>
      </trkpt>
      <trkpt lat="54.791451031342149" lon="26.898588007315993">
        <ele>177.02000000000001</ele>
        <time>2011-08-15T17:13:19Z</time>
      </trkpt>
      <trkpt lat="54.791682958602905" lon="26.898568980395794">
        <ele>177.02000000000001</ele>
        <time>2011-08-15T17:13:27Z</time>
      </trkpt>
      <trkpt lat="54.791710032150149" lon="26.898577027022839">
        <ele>176.53999999999999</ele>
        <time>2011-08-15T17:13:28Z</time>
      </trkpt>
      <trkpt lat="54.791900971904397" lon="26.898551965132356">
        <ele>177.02000000000001</ele>
        <time>2011-08-15T17:13:34Z</time>
      </trkpt>
      <trkpt lat="54.79196903295815" lon="26.898550037294626">
        <ele>176.06</ele>
        <time>2011-08-15T17:13:36Z</time>
      </trkpt>
      <trkpt lat="54.792286036536098" lon="26.898568980395794">
        <ele>175.58000000000001</ele>
        <time>2011-08-15T17:13:44Z</time>
      </trkpt>
      <trkpt lat="54.792605973780155" lon="26.898438977077603">
        <ele>175.58000000000001</ele>
        <time>2011-08-15T17:13:54Z</time>
      </trkpt>
      <trkpt lat="54.792911997064948" lon="26.89830201677978">
        <ele>175.58000000000001</ele>
        <time>2011-08-15T17:13:59Z</time>
      </trkpt>
      <trkpt lat="54.793311981484294" lon="26.89804301597178">
        <ele>175.58000000000001</ele>
        <time>2011-08-15T17:14:09Z</time>
      </trkpt>
      <trkpt lat="54.793437961488962" lon="26.897963974624872">
        <ele>175.58000000000001</ele>
        <time>2011-08-15T17:14:12Z</time>
      </trkpt>
      <trkpt lat="54.793616998940706" lon="26.897860039025545">
        <ele>175.58000000000001</ele>
        <time>2011-08-15T17:14:16Z</time>
      </trkpt>
      <trkpt lat="54.793854039162397" lon="26.897511016577482">
        <ele>176.06</ele>
        <time>2011-08-15T17:14:27Z</time>
      </trkpt>
      <trkpt lat="54.793854039162397" lon="26.897500958293676">
        <ele>176.06</ele>
        <time>2011-08-15T17:14:35Z</time>
      </trkpt>
      <trkpt lat="54.793799975886941" lon="26.897647976875305">
        <ele>177.5</ele>
        <time>2011-08-15T17:14:43Z</time>
      </trkpt>
      <trkpt lat="54.793525971472263" lon="26.897888034582138">
        <ele>175.58000000000001</ele>
        <time>2011-08-15T17:14:54Z</time>
      </trkpt>
      <trkpt lat="54.793175021186471" lon="26.898137982934713">
        <ele>176.53999999999999</ele>
        <time>2011-08-15T17:15:05Z</time>
      </trkpt>
      <trkpt lat="54.792858017608523" lon="26.898383991792798">
        <ele>175.58000000000001</ele>
        <time>2011-08-15T17:15:14Z</time>
      </trkpt>
      <trkpt lat="54.79263698682189" lon="26.898502008989453">
        <ele>176.53999999999999</ele>
        <time>2011-08-15T17:15:20Z</time>
      </trkpt>
      <trkpt lat="54.792460966855288" lon="26.898499997332692">
        <ele>176.06</ele>
        <time>2011-08-15T17:15:25Z</time>
      </trkpt>
      <trkpt lat="54.792159972712398" lon="26.89853997901082">
        <ele>176.53999999999999</ele>
        <time>2011-08-15T17:15:35Z</time>
      </trkpt>
      <trkpt lat="54.792132982984185" lon="26.898541990667582">
        <ele>176.53999999999999</ele>
        <time>2011-08-15T17:15:36Z</time>
      </trkpt>
      <trkpt lat="54.791866019368172" lon="26.89858197234571">
        <ele>177.5</ele>
        <time>2011-08-15T17:15:43Z</time>
      </trkpt>
      <trkpt lat="54.791481038555503" lon="26.89851600676775">
        <ele>176.53999999999999</ele>
        <time>2011-08-15T17:15:53Z</time>
      </trkpt>
      <trkpt lat="54.791248021647334" lon="26.898518018424511">
        <ele>176.06</ele>
        <time>2011-08-15T17:15:59Z</time>
      </trkpt>
      <trkpt lat="54.790771007537842" lon="26.898647015914321">
        <ele>175.58000000000001</ele>
        <time>2011-08-15T17:16:10Z</time>
      </trkpt>
      <trkpt lat="54.790465990081429" lon="26.898647015914321">
        <ele>176.06</ele>
        <time>2011-08-15T17:16:17Z</time>
      </trkpt>
      <trkpt lat="54.790305979549885" lon="26.898703007027507">
        <ele>176.06</ele>
        <time>2011-08-15T17:16:23Z</time>
      </trkpt>
      <trkpt lat="54.789988975971937" lon="26.89888003282249">
        <ele>175.58000000000001</ele>
        <time>2011-08-15T17:16:33Z</time>
      </trkpt>
      <trkpt lat="54.789711032062769" lon="26.898999977856874">
        <ele>175.09999999999999</ele>
        <time>2011-08-15T17:16:45Z</time>
      </trkpt>
      <trkpt lat="54.789660992100835" lon="26.899035014212132">
        <ele>175.58000000000001</ele>
        <time>2011-08-15T17:16:48Z</time>
      </trkpt>
      <trkpt lat="54.789406014606357" lon="26.899243975058198">
        <ele>175.58000000000001</ele>
        <time>2011-08-15T17:17:00Z</time>
      </trkpt>
      <trkpt lat="54.789329990744591" lon="26.899422006681561">
        <ele>175.09999999999999</ele>
        <time>2011-08-15T17:17:05Z</time>
      </trkpt>
      <trkpt lat="54.789008963853121" lon="26.899764994159341">
        <ele>175.09999999999999</ele>
        <time>2011-08-15T17:17:15Z</time>
      </trkpt>
      <trkpt lat="54.788840990513563" lon="26.899919975548983">
        <ele>175.58000000000001</ele>
        <time>2011-08-15T17:17:22Z</time>
      </trkpt>
      <trkpt lat="54.788818024098873" lon="26.899890974164009">
        <ele>176.06</ele>
        <time>2011-08-15T17:17:32Z</time>
      </trkpt>
      <trkpt lat="54.788836967200041" lon="26.899787960574031">
        <ele>175.09999999999999</ele>
        <time>2011-08-15T17:17:41Z</time>
      </trkpt>
      <trkpt lat="54.788891030475497" lon="26.899703973904252">
        <ele>175.58000000000001</ele>
        <time>2011-08-15T17:17:48Z</time>
      </trkpt>
      <trkpt lat="54.788902010768652" lon="26.89965401776135">
        <ele>175.09999999999999</ele>
        <time>2011-08-15T17:17:50Z</time>
      </trkpt>
      <trkpt lat="54.788979040458798" lon="26.899487972259521">
        <ele>175.09999999999999</ele>
        <time>2011-08-15T17:17:56Z</time>
      </trkpt>
      <trkpt lat="54.788966970518231" lon="26.899054041132331">
        <ele>175.58000000000001</ele>
        <time>2011-08-15T17:18:07Z</time>
      </trkpt>
      <trkpt lat="54.788921037688851" lon="26.898834016174078">
        <ele>175.09999999999999</ele>
        <time>2011-08-15T17:18:11Z</time>
      </trkpt>
      <trkpt lat="54.788891030475497" lon="26.89819497987628">
        <ele>174.62</ele>
        <time>2011-08-15T17:18:21Z</time>
      </trkpt>
      <trkpt lat="54.788887007161975" lon="26.897541023790836">
        <ele>174.62</ele>
        <time>2011-08-15T17:18:31Z</time>
      </trkpt>
      <trkpt lat="54.788810983300209" lon="26.896994020789862">
        <ele>175.09999999999999</ele>
        <time>2011-08-15T17:18:40Z</time>
      </trkpt>
      <trkpt lat="54.788803020492196" lon="26.896933000534773">
        <ele>175.58000000000001</ele>
        <time>2011-08-15T17:18:41Z</time>
      </trkpt>
      <trkpt lat="54.788715010508895" lon="26.896184999495745">
        <ele>176.53999999999999</ele>
        <time>2011-08-15T17:18:53Z</time>
      </trkpt>
      <trkpt lat="54.788677040487528" lon="26.895798007026315">
        <ele>175.09999999999999</ele>
        <time>2011-08-15T17:18:59Z</time>
      </trkpt>
      <trkpt lat="54.788550976663828" lon="26.89529400318861">
        <ele>174.62</ele>
        <time>2011-08-15T17:19:07Z</time>
      </trkpt>
      <trkpt lat="54.788482999429107" lon="26.895023016259074">
        <ele>175.09999999999999</ele>
        <time>2011-08-15T17:19:11Z</time>
      </trkpt>
      <trkpt lat="54.788375962525606" lon="26.894427984952927">
        <ele>175.09999999999999</ele>
        <time>2011-08-15T17:19:20Z</time>
      </trkpt>
      <trkpt lat="54.78825400583446" lon="26.893885005265474">
        <ele>175.58000000000001</ele>
        <time>2011-08-15T17:19:28Z</time>
      </trkpt>
      <trkpt lat="54.788197008892894" lon="26.893592979758978">
        <ele>175.09999999999999</ele>
        <time>2011-08-15T17:19:32Z</time>
      </trkpt>
      <trkpt lat="54.788234978914261" lon="26.893026027828455">
        <ele>175.09999999999999</ele>
        <time>2011-08-15T17:19:42Z</time>
      </trkpt>
      <trkpt lat="54.78825400583446" lon="26.892796028405428">
        <ele>174.62</ele>
        <time>2011-08-15T17:19:46Z</time>
      </trkpt>
      <trkpt lat="54.788260962814093" lon="26.892688991501927">
        <ele>175.09999999999999</ele>
        <time>2011-08-15T17:19:48Z</time>
      </trkpt>
      <trkpt lat="54.78840596973896" lon="26.892297975718975">
        <ele>174.62</ele>
        <time>2011-08-15T17:19:58Z</time>
      </trkpt>
      <trkpt lat="54.788638986647129" lon="26.89198499545455">
        <ele>174.13999999999999</ele>
        <time>2011-08-15T17:20:05Z</time>
      </trkpt>
      <trkpt lat="54.788737976923585" lon="26.891437992453575">
        <ele>175.09999999999999</ele>
        <time>2011-08-15T17:20:13Z</time>
      </trkpt>
      <trkpt lat="54.788783993571997" lon="26.890885960310698">
        <ele>175.09999999999999</ele>
        <time>2011-08-15T17:20:22Z</time>
      </trkpt>
      <trkpt lat="54.78874996304512" lon="26.890342980623245">
        <ele>175.09999999999999</ele>
        <time>2011-08-15T17:20:31Z</time>
      </trkpt>
      <trkpt lat="54.788753986358643" lon="26.889707967638969">
        <ele>175.09999999999999</ele>
        <time>2011-08-15T17:20:41Z</time>
      </trkpt>
      <trkpt lat="54.788737976923585" lon="26.889567989856005">
        <ele>174.62</ele>
        <time>2011-08-15T17:20:43Z</time>
      </trkpt>
      <trkpt lat="54.788722973316908" lon="26.888961978256702">
        <ele>175.09999999999999</ele>
        <time>2011-08-15T17:20:53Z</time>
      </trkpt>
      <trkpt lat="54.788798997178674" lon="26.888541961088777">
        <ele>175.09999999999999</ele>
        <time>2011-08-15T17:21:02Z</time>
      </trkpt>
      <trkpt lat="54.788993960246444" lon="26.888402989134192">
        <ele>174.62</ele>
        <time>2011-08-15T17:21:11Z</time>
      </trkpt>
      <trkpt lat="54.7892190143466" lon="26.888301987200975">
        <ele>174.13999999999999</ele>
        <time>2011-08-15T17:21:22Z</time>
      </trkpt>
      <trkpt lat="54.789261007681489" lon="26.88824700191617">
        <ele>174.13999999999999</ele>
        <time>2011-08-15T17:21:25Z</time>
      </trkpt>
      <trkpt lat="54.789276011288166" lon="26.88818397000432">
        <ele>173.66</ele>
        <time>2011-08-15T17:21:28Z</time>
      </trkpt>
      <trkpt lat="54.789318004623055" lon="26.888149017468095">
        <ele>174.13999999999999</ele>
        <time>2011-08-15T17:21:41Z</time>
      </trkpt>
      <trkpt lat="54.789318004623055" lon="26.888149017468095">
        <ele>174.62</ele>
        <time>2011-08-15T17:21:57Z</time>
      </trkpt>
      <trkpt lat="54.789318004623055" lon="26.888151029124856">
        <ele>173.66</ele>
        <time>2011-08-15T17:22:34Z</time>
      </trkpt>
      <trkpt lat="54.789322027936578" lon="26.888151029124856">
        <ele>174.62</ele>
        <time>2011-08-15T17:23:09Z</time>
      </trkpt>
      <trkpt lat="54.789322027936578" lon="26.888153040781617">
        <ele>173.66</ele>
        <time>2011-08-15T17:23:42Z</time>
      </trkpt>
      <trkpt lat="54.789322027936578" lon="26.888153040781617">
        <ele>174.13999999999999</ele>
        <time>2011-08-15T17:24:12Z</time>
      </trkpt>
      <trkpt lat="54.789329990744591" lon="26.888151029124856">
        <ele>174.13999999999999</ele>
        <time>2011-08-15T17:24:45Z</time>
      </trkpt>
      <trkpt lat="54.789333008229733" lon="26.888147005811334">
        <ele>174.62</ele>
        <time>2011-08-15T17:25:22Z</time>
      </trkpt>
      <trkpt lat="54.789333008229733" lon="26.888143988326192">
        <ele>174.13999999999999</ele>
        <time>2011-08-15T17:26:02Z</time>
      </trkpt>
      <trkpt lat="54.789329990744591" lon="26.888154968619347">
        <ele>174.62</ele>
        <time>2011-08-15T17:26:37Z</time>
      </trkpt>
      <trkpt lat="54.789333008229733" lon="26.888163015246391">
        <ele>174.62</ele>
        <time>2011-08-15T17:27:10Z</time>
      </trkpt>
      <trkpt lat="54.789333008229733" lon="26.888151029124856">
        <ele>174.62</ele>
        <time>2011-08-15T17:27:54Z</time>
      </trkpt>
      <trkpt lat="54.789333008229733" lon="26.888163015246391">
        <ele>174.13999999999999</ele>
        <time>2011-08-15T17:28:27Z</time>
      </trkpt>
      <trkpt lat="54.789329990744591" lon="26.888171983882785">
        <ele>175.09999999999999</ele>
        <time>2011-08-15T17:29:04Z</time>
      </trkpt>
      <trkpt lat="54.789329990744591" lon="26.888173995539546">
        <ele>175.09999999999999</ele>
        <time>2011-08-15T17:29:42Z</time>
      </trkpt>
      <trkpt lat="54.789329990744591" lon="26.888176007196307">
        <ele>174.62</ele>
        <time>2011-08-15T17:30:16Z</time>
      </trkpt>
      <trkpt lat="54.789333008229733" lon="26.888181958347559">
        <ele>175.09999999999999</ele>
        <time>2011-08-15T17:30:58Z</time>
      </trkpt>
      <trkpt lat="54.789337031543255" lon="26.88818397000432">
        <ele>175.58000000000001</ele>
        <time>2011-08-15T17:31:36Z</time>
      </trkpt>
      <trkpt lat="54.789337031543255" lon="26.88818397000432">
        <ele>175.09999999999999</ele>
        <time>2011-08-15T17:32:06Z</time>
      </trkpt>
      <trkpt lat="54.789337031543255" lon="26.888186987489462">
        <ele>175.09999999999999</ele>
        <time>2011-08-15T17:32:43Z</time>
      </trkpt>
      <trkpt lat="54.789340971037745" lon="26.888195034116507">
        <ele>170.28999999999999</ele>
        <time>2011-08-15T17:33:07Z</time>
      </trkpt>
      <trkpt lat="54.789340971037745" lon="26.888195034116507">
        <ele>177.02000000000001</ele>
        <time>2011-08-15T17:33:08Z</time>
      </trkpt>
      <trkpt lat="54.789329990744591" lon="26.888188999146223">
        <ele>172.21000000000001</ele>
        <time>2011-08-15T17:33:10Z</time>
      </trkpt>
      <trkpt lat="54.789313981309533" lon="26.888173995539546">
        <ele>175.58000000000001</ele>
        <time>2011-08-15T17:33:11Z</time>
      </trkpt>
      <trkpt lat="54.789307024329901" lon="26.88816100358963">
        <ele>169.33000000000001</ele>
        <time>2011-08-15T17:33:12Z</time>
      </trkpt>
      <trkpt lat="54.789298977702856" lon="26.888151029124856">
        <ele>177.5</ele>
        <time>2011-08-15T17:33:13Z</time>
      </trkpt>
      <trkpt lat="54.789298977702856" lon="26.888151029124856">
        <ele>169.33000000000001</ele>
        <time>2011-08-15T17:33:14Z</time>
      </trkpt>
      <trkpt lat="54.789298977702856" lon="26.888151029124856">
        <ele>176.06</ele>
        <time>2011-08-15T17:33:15Z</time>
      </trkpt>
      <trkpt lat="54.789298977702856" lon="26.888151029124856">
        <ele>179.41999999999999</ele>
        <time>2011-08-15T17:33:17Z</time>
      </trkpt>
      <trkpt lat="54.789298977702856" lon="26.888151029124856">
        <ele>177.5</ele>
        <time>2011-08-15T17:33:18Z</time>
      </trkpt>
      <trkpt lat="54.789298977702856" lon="26.888151029124856">
        <ele>175.58000000000001</ele>
        <time>2011-08-15T17:33:22Z</time>
      </trkpt>
      <trkpt lat="54.789298977702856" lon="26.888151029124856">
        <ele>169.33000000000001</ele>
        <time>2011-08-15T17:33:26Z</time>
      </trkpt>
      <trkpt lat="54.789298977702856" lon="26.888151029124856">
        <ele>175.58000000000001</ele>
        <time>2011-08-15T17:33:27Z</time>
      </trkpt>
      <trkpt lat="54.789298977702856" lon="26.888151029124856">
        <ele>179.41999999999999</ele>
        <time>2011-08-15T17:33:34Z</time>
      </trkpt>
      <trkpt lat="54.789298977702856" lon="26.888151029124856">
        <ele>173.16999999999999</ele>
        <time>2011-08-15T17:33:35Z</time>
      </trkpt>
      <trkpt lat="54.789298977702856" lon="26.888151029124856">
        <ele>178.46000000000001</ele>
        <time>2011-08-15T17:33:36Z</time>
      </trkpt>
      <trkpt lat="54.789298977702856" lon="26.888151029124856">
        <ele>181.83000000000001</ele>
        <time>2011-08-15T17:33:38Z</time>
      </trkpt>
      <trkpt lat="54.789298977702856" lon="26.888151029124856">
        <ele>175.58000000000001</ele>
        <time>2011-08-15T17:33:39Z</time>
      </trkpt>
      <trkpt lat="54.789298977702856" lon="26.888151029124856">
        <ele>171.25</ele>
        <time>2011-08-15T17:33:46Z</time>
      </trkpt>
      <trkpt lat="54.789298977702856" lon="26.888151029124856">
        <ele>176.53999999999999</ele>
        <time>2011-08-15T17:33:47Z</time>
      </trkpt>
      <trkpt lat="54.789298977702856" lon="26.888147005811334">
        <ele>169.33000000000001</ele>
        <time>2011-08-15T17:34:00Z</time>
      </trkpt>
      <trkpt lat="54.789298977702856" lon="26.888147005811334">
        <ele>178.46000000000001</ele>
        <time>2011-08-15T17:34:01Z</time>
      </trkpt>
      <trkpt lat="54.789298977702856" lon="26.888147005811334">
        <ele>173.16999999999999</ele>
        <time>2011-08-15T17:34:02Z</time>
      </trkpt>
      <trkpt lat="54.789298977702856" lon="26.888147005811334">
        <ele>175.58000000000001</ele>
        <time>2011-08-15T17:34:22Z</time>
      </trkpt>
      <trkpt lat="54.789295038208365" lon="26.888141976669431">
        <ele>175.58000000000001</ele>
        <time>2011-08-15T17:34:42Z</time>
      </trkpt>
      <trkpt lat="54.789295038208365" lon="26.888141976669431">
        <ele>176.06</ele>
        <time>2011-08-15T17:34:57Z</time>
      </trkpt>
      <trkpt lat="54.789295038208365" lon="26.88813996501267">
        <ele>176.06</ele>
        <time>2011-08-15T17:35:16Z</time>
      </trkpt>
      <trkpt lat="54.789295038208365" lon="26.88813996501267">
        <ele>175.58000000000001</ele>
        <time>2011-08-15T17:35:33Z</time>
      </trkpt>
      <trkpt lat="54.789295038208365" lon="26.88813996501267">
        <ele>170.77000000000001</ele>
        <time>2011-08-15T17:35:47Z</time>
      </trkpt>
      <trkpt lat="54.789295038208365" lon="26.88813996501267">
        <ele>175.09999999999999</ele>
        <time>2011-08-15T17:35:48Z</time>
      </trkpt>
      <trkpt lat="54.789329990744591" lon="26.888144994154572">
        <ele>172.21000000000001</ele>
        <time>2011-08-15T17:35:57Z</time>
      </trkpt>
      <trkpt lat="54.789329990744591" lon="26.888144994154572">
        <ele>177.97999999999999</ele>
        <time>2011-08-15T17:35:58Z</time>
      </trkpt>
      <trkpt lat="54.789329990744591" lon="26.888144994154572">
        <ele>176.06</ele>
        <time>2011-08-15T17:36:27Z</time>
      </trkpt>
      <trkpt lat="54.789329990744591" lon="26.888165026903152">
        <ele>176.06</ele>
        <time>2011-08-15T17:36:56Z</time>
      </trkpt>
      <trkpt lat="54.789329990744591" lon="26.888165026903152">
        <ele>176.06</ele>
        <time>2011-08-15T17:37:08Z</time>
      </trkpt>
      <trkpt lat="54.789325967431068" lon="26.888167960569263">
        <ele>176.06</ele>
        <time>2011-08-15T17:37:33Z</time>
      </trkpt>
      <trkpt lat="54.789325967431068" lon="26.888167960569263">
        <ele>175.58000000000001</ele>
        <time>2011-08-15T17:37:56Z</time>
      </trkpt>
      <trkpt lat="54.789325967431068" lon="26.88816100358963">
        <ele>176.06</ele>
        <time>2011-08-15T17:38:11Z</time>
      </trkpt>
      <trkpt lat="54.789291014894843" lon="26.888228980824351">
        <ele>175.58000000000001</ele>
        <time>2011-08-15T17:38:17Z</time>
      </trkpt>
      <trkpt lat="54.789249021559954" lon="26.888270974159241">
        <ele>175.58000000000001</ele>
        <time>2011-08-15T17:38:20Z</time>
      </trkpt>
      <trkpt lat="54.789059003815055" lon="26.888351021334529">
        <ele>176.53999999999999</ele>
        <time>2011-08-15T17:38:32Z</time>
      </trkpt>
      <trkpt lat="54.788894969969988" lon="26.888426039367914">
        <ele>177.02000000000001</ele>
        <time>2011-08-15T17:38:41Z</time>
      </trkpt>
      <trkpt lat="54.788849037140608" lon="26.888602981343865">
        <ele>177.02000000000001</ele>
        <time>2011-08-15T17:38:49Z</time>
      </trkpt>
      <trkpt lat="54.788836967200041" lon="26.88867598772049">
        <ele>177.02000000000001</ele>
        <time>2011-08-15T17:38:52Z</time>
      </trkpt>
      <trkpt lat="54.788845013827085" lon="26.889015035703778">
        <ele>177.5</ele>
        <time>2011-08-15T17:39:02Z</time>
      </trkpt>
      <trkpt lat="54.788845013827085" lon="26.889242017641664">
        <ele>177.02000000000001</ele>
        <time>2011-08-15T17:39:08Z</time>
      </trkpt>
      <trkpt lat="54.788834033533931" lon="26.889412002637982">
        <ele>176.53999999999999</ele>
        <time>2011-08-15T17:39:12Z</time>
      </trkpt>
      <trkpt lat="54.788840990513563" lon="26.88955700956285">
        <ele>176.53999999999999</ele>
        <time>2011-08-15T17:39:16Z</time>
      </trkpt>
      <trkpt lat="54.788882983848453" lon="26.889770999550819">
        <ele>177.02000000000001</ele>
        <time>2011-08-15T17:39:22Z</time>
      </trkpt>
      <trkpt lat="54.788909973576665" lon="26.89013896510005">
        <ele>177.02000000000001</ele>
        <time>2011-08-15T17:39:34Z</time>
      </trkpt>
      <trkpt lat="54.788894969969988" lon="26.890364019200206">
        <ele>177.02000000000001</ele>
        <time>2011-08-15T17:39:40Z</time>
      </trkpt>
      <trkpt lat="54.788906034082174" lon="26.890596030279994">
        <ele>177.02000000000001</ele>
        <time>2011-08-15T17:39:47Z</time>
      </trkpt>
      <trkpt lat="54.788909973576665" lon="26.890928037464619">
        <ele>176.53999999999999</ele>
        <time>2011-08-15T17:39:57Z</time>
      </trkpt>
      <trkpt lat="54.788933023810387" lon="26.891302037984133">
        <ele>176.06</ele>
        <time>2011-08-15T17:40:05Z</time>
      </trkpt>
      <trkpt lat="54.788955990225077" lon="26.891689030453563">
        <ele>175.09999999999999</ele>
        <time>2011-08-15T17:40:12Z</time>
      </trkpt>
      <trkpt lat="54.788891030475497" lon="26.891987007111311">
        <ele>174.62</ele>
        <time>2011-08-15T17:40:18Z</time>
      </trkpt>
      <trkpt lat="54.788665976375341" lon="26.892321025952697">
        <ele>175.09999999999999</ele>
        <time>2011-08-15T17:40:27Z</time>
      </trkpt>
      <trkpt lat="54.788429019972682" lon="26.892726961523294">
        <ele>175.09999999999999</ele>
        <time>2011-08-15T17:40:38Z</time>
      </trkpt>
      <trkpt lat="54.788372023031116" lon="26.893264995887876">
        <ele>175.09999999999999</ele>
        <time>2011-08-15T17:40:48Z</time>
      </trkpt>
      <trkpt lat="54.788379985839128" lon="26.893431041389704">
        <ele>174.62</ele>
        <time>2011-08-15T17:40:51Z</time>
      </trkpt>
      <trkpt lat="54.788394989445806" lon="26.893698005005717">
        <ele>175.58000000000001</ele>
        <time>2011-08-15T17:40:56Z</time>
      </trkpt>
      <trkpt lat="54.788463972508907" lon="26.894091032445431">
        <ele>175.58000000000001</ele>
        <time>2011-08-15T17:41:04Z</time>
      </trkpt>
      <trkpt lat="54.788544019684196" lon="26.894564023241401">
        <ele>175.09999999999999</ele>
        <time>2011-08-15T17:41:14Z</time>
      </trkpt>
      <trkpt lat="54.788562962785363" lon="26.894707018509507">
        <ele>175.09999999999999</ele>
        <time>2011-08-15T17:41:17Z</time>
      </trkpt>
      <trkpt lat="54.788673017174006" lon="26.89510197378695">
        <ele>174.13999999999999</ele>
        <time>2011-08-15T17:41:26Z</time>
      </trkpt>
      <trkpt lat="54.788783993571997" lon="26.895709997043014">
        <ele>175.09999999999999</ele>
        <time>2011-08-15T17:41:38Z</time>
      </trkpt>
      <trkpt lat="54.788840990513563" lon="26.896286001428962">
        <ele>174.62</ele>
        <time>2011-08-15T17:41:48Z</time>
      </trkpt>
      <trkpt lat="54.788856999948621" lon="26.896783970296383">
        <ele>174.13999999999999</ele>
        <time>2011-08-15T17:41:57Z</time>
      </trkpt>
      <trkpt lat="54.788887007161975" lon="26.896996032446623">
        <ele>173.66</ele>
        <time>2011-08-15T17:42:01Z</time>
      </trkpt>
      <trkpt lat="54.788948027417064" lon="26.89772198908031">
        <ele>173.66</ele>
        <time>2011-08-15T17:42:13Z</time>
      </trkpt>
      <trkpt lat="54.788924977183342" lon="26.898418022319674">
        <ele>174.13999999999999</ele>
        <time>2011-08-15T17:42:24Z</time>
      </trkpt>
      <trkpt lat="54.788985997438431" lon="26.898898975923657">
        <ele>173.16999999999999</ele>
        <time>2011-08-15T17:42:32Z</time>
      </trkpt>
      <trkpt lat="54.788985997438431" lon="26.899021016433835">
        <ele>173.16999999999999</ele>
        <time>2011-08-15T17:42:34Z</time>
      </trkpt>
      <trkpt lat="54.78887602686882" lon="26.899471040815115">
        <ele>172.69</ele>
        <time>2011-08-15T17:42:41Z</time>
      </trkpt>
      <trkpt lat="54.788677040487528" lon="26.899960041046143">
        <ele>173.16999999999999</ele>
        <time>2011-08-15T17:42:51Z</time>
      </trkpt>
      <trkpt lat="54.788460033014417" lon="26.900040004402399">
        <ele>172.69</ele>
        <time>2011-08-15T17:42:59Z</time>
      </trkpt>
      <trkpt lat="54.788150992244482" lon="26.900065988302231">
        <ele>174.13999999999999</ele>
        <time>2011-08-15T17:43:09Z</time>
      </trkpt>
      <trkpt lat="54.787791995331645" lon="26.900045033544302">
        <ele>172.69</ele>
        <time>2011-08-15T17:43:19Z</time>
      </trkpt>
      <trkpt lat="54.787456970661879" lon="26.900030029937625">
        <ele>172.21000000000001</ele>
        <time>2011-08-15T17:43:28Z</time>
      </trkpt>
      <trkpt lat="54.787097973749042" lon="26.900134971365333">
        <ele>172.21000000000001</ele>
        <time>2011-08-15T17:43:37Z</time>
      </trkpt>
      <trkpt lat="54.786934023723006" lon="26.900146035477519">
        <ele>172.69</ele>
        <time>2011-08-15T17:43:41Z</time>
      </trkpt>
      <trkpt lat="54.786587012931705" lon="26.900059031322598">
        <ele>173.16999999999999</ele>
        <time>2011-08-15T17:43:51Z</time>
      </trkpt>
      <trkpt lat="54.786437982693315" lon="26.900004968047142">
        <ele>173.16999999999999</ele>
        <time>2011-08-15T17:44:01Z</time>
      </trkpt>
      <trkpt lat="54.786437982693315" lon="26.900004968047142">
        <ele>172.21000000000001</ele>
        <time>2011-08-15T17:44:23Z</time>
      </trkpt>
      <trkpt lat="54.786433959379792" lon="26.900006979703903">
        <ele>172.21000000000001</ele>
        <time>2011-08-15T17:44:53Z</time>
      </trkpt>
      <trkpt lat="54.786433959379792" lon="26.900006979703903">
        <ele>170.77000000000001</ele>
        <time>2011-08-15T17:45:12Z</time>
      </trkpt>
      <trkpt lat="54.786433959379792" lon="26.900006979703903">
        <ele>171.72999999999999</ele>
        <time>2011-08-15T17:45:16Z</time>
      </trkpt>
      <trkpt lat="54.786217035725713" lon="26.899916036054492">
        <ele>171.25</ele>
        <time>2011-08-15T17:45:28Z</time>
      </trkpt>
      <trkpt lat="54.786068005487323" lon="26.899853004142642">
        <ele>172.21000000000001</ele>
        <time>2011-08-15T17:45:33Z</time>
      </trkpt>
      <trkpt lat="54.78563298471272" lon="26.899732975289226">
        <ele>171.25</ele>
        <time>2011-08-15T17:45:46Z</time>
      </trkpt>
      <trkpt lat="54.785221014171839" lon="26.899641025811434">
        <ele>172.69</ele>
        <time>2011-08-15T17:45:57Z</time>
      </trkpt>
      <trkpt lat="54.784697983413935" lon="26.899555027484894">
        <ele>171.72999999999999</ele>
        <time>2011-08-15T17:46:10Z</time>
      </trkpt>
      <trkpt lat="54.784251982346177" lon="26.899487972259521">
        <ele>170.28999999999999</ele>
        <time>2011-08-15T17:46:21Z</time>
      </trkpt>
      <trkpt lat="54.784245025366545" lon="26.899487972259521">
        <ele>170.77000000000001</ele>
        <time>2011-08-15T17:46:33Z</time>
      </trkpt>
      <trkpt lat="54.78421401232481" lon="26.899486966431141">
        <ele>171.25</ele>
        <time>2011-08-15T17:46:35Z</time>
      </trkpt>
      <trkpt lat="54.783908994868398" lon="26.899426029995084">
        <ele>169.81</ele>
        <time>2011-08-15T17:46:46Z</time>
      </trkpt>
      <trkpt lat="54.783603977411985" lon="26.899284040555358">
        <ele>169.33000000000001</ele>
        <time>2011-08-15T17:46:56Z</time>
      </trkpt>
      <trkpt lat="54.783581010997295" lon="26.899272976443172">
        <ele>169.33000000000001</ele>
        <time>2011-08-15T17:46:57Z</time>
      </trkpt>
      <trkpt lat="54.783352017402649" lon="26.899068960919976">
        <ele>168.84999999999999</ele>
        <time>2011-08-15T17:47:07Z</time>
      </trkpt>
      <trkpt lat="54.783165017142892" lon="26.898801997303963">
        <ele>168.84999999999999</ele>
        <time>2011-08-15T17:47:14Z</time>
      </trkpt>
      <trkpt lat="54.782890006899834" lon="26.898256000131369">
        <ele>169.33000000000001</ele>
        <time>2011-08-15T17:47:24Z</time>
      </trkpt>
      <trkpt lat="54.782828986644745" lon="26.898107975721359">
        <ele>169.81</ele>
        <time>2011-08-15T17:47:27Z</time>
      </trkpt>
      <trkpt lat="54.782619019970298" lon="26.897585028782487">
        <ele>170.28999999999999</ele>
        <time>2011-08-15T17:47:37Z</time>
      </trkpt>
      <trkpt lat="54.782372005283833" lon="26.897123018279672">
        <ele>170.77000000000001</ele>
        <time>2011-08-15T17:47:46Z</time>
      </trkpt>
      <trkpt lat="54.782131025567651" lon="26.896972982212901">
        <ele>168.37</ele>
        <time>2011-08-15T17:47:51Z</time>
      </trkpt>
      <trkpt lat="54.781531970947981" lon="26.896581966429949">
        <ele>168.84999999999999</ele>
        <time>2011-08-15T17:48:02Z</time>
      </trkpt>
      <trkpt lat="54.781380007043481" lon="26.896494040265679">
        <ele>168.84999999999999</ele>
        <time>2011-08-15T17:48:05Z</time>
      </trkpt>
      <trkpt lat="54.781036013737321" lon="26.896292036399245">
        <ele>169.33000000000001</ele>
        <time>2011-08-15T17:48:12Z</time>
      </trkpt>
      <trkpt lat="54.780757986009121" lon="26.896195979788899">
        <ele>171.72999999999999</ele>
        <time>2011-08-15T17:48:18Z</time>
      </trkpt>
      <trkpt lat="54.780361019074917" lon="26.896150968968868">
        <ele>171.25</ele>
        <time>2011-08-15T17:48:29Z</time>
      </trkpt>
      <trkpt lat="54.780021971091628" lon="26.896275021135807">
        <ele>171.72999999999999</ele>
        <time>2011-08-15T17:48:38Z</time>
      </trkpt>
      <trkpt lat="54.779490977525711" lon="26.89669000916183">
        <ele>169.81</ele>
        <time>2011-08-15T17:48:50Z</time>
      </trkpt>
      <trkpt lat="54.779090993106365" lon="26.897014975547791">
        <ele>168.37</ele>
        <time>2011-08-15T17:48:58Z</time>
      </trkpt>
      <trkpt lat="54.778709029778838" lon="26.897315969690681">
        <ele>168.84999999999999</ele>
        <time>2011-08-15T17:49:09Z</time>
      </trkpt>
      <trkpt lat="54.778457991778851" lon="26.897537000477314">
        <ele>169.33000000000001</ele>
        <time>2011-08-15T17:49:18Z</time>
      </trkpt>
      <trkpt lat="54.778022971004248" lon="26.897932039573789">
        <ele>168.84999999999999</ele>
        <time>2011-08-15T17:49:31Z</time>
      </trkpt>
      <trkpt lat="54.777988018468022" lon="26.897970009595156">
        <ele>168.84999999999999</ele>
        <time>2011-08-15T17:49:32Z</time>
      </trkpt>
      <trkpt lat="54.77753103710711" lon="26.898036981001496">
        <ele>168.84999999999999</ele>
        <time>2011-08-15T17:49:44Z</time>
      </trkpt>
      <trkpt lat="54.777180003002286" lon="26.897950982674956">
        <ele>170.28999999999999</ele>
        <time>2011-08-15T17:49:55Z</time>
      </trkpt>
      <trkpt lat="54.776919996365905" lon="26.897803964093328">
        <ele>168.37</ele>
        <time>2011-08-15T17:50:03Z</time>
      </trkpt>
      <trkpt lat="54.776680022478104" lon="26.897649988532066">
        <ele>168.84999999999999</ele>
        <time>2011-08-15T17:50:09Z</time>
      </trkpt>
      <trkpt lat="54.776333011686802" lon="26.897322004660964">
        <ele>169.33000000000001</ele>
        <time>2011-08-15T17:50:19Z</time>
      </trkpt>
      <trkpt lat="54.775897990912199" lon="26.897157970815897">
        <ele>169.81</ele>
        <time>2011-08-15T17:50:29Z</time>
      </trkpt>
      <trkpt lat="54.775676960125566" lon="26.897216979414225">
        <ele>169.33000000000001</ele>
        <time>2011-08-15T17:50:34Z</time>
      </trkpt>
      <trkpt lat="54.775368003174663" lon="26.897342959418893">
        <ele>168.84999999999999</ele>
        <time>2011-08-15T17:50:41Z</time>
      </trkpt>
      <trkpt lat="54.774914039298892" lon="26.897596009075642">
        <ele>168.84999999999999</ele>
        <time>2011-08-15T17:50:52Z</time>
      </trkpt>
      <trkpt lat="54.77476098574698" lon="26.897775968536735">
        <ele>169.81</ele>
        <time>2011-08-15T17:50:57Z</time>
      </trkpt>
      <trkpt lat="54.774512965232134" lon="26.898157009854913">
        <ele>168.84999999999999</ele>
        <time>2011-08-15T17:51:04Z</time>
      </trkpt>
      <trkpt lat="54.774413974955678" lon="26.898300005123019">
        <ele>168.37</ele>
        <time>2011-08-15T17:51:07Z</time>
      </trkpt>
      <trkpt lat="54.774341974407434" lon="26.898379968479276">
        <ele>168.37</ele>
        <time>2011-08-15T17:51:09Z</time>
      </trkpt>
      <trkpt lat="54.774169977754354" lon="26.898449035361409">
        <ele>168.84999999999999</ele>
        <time>2011-08-15T17:51:13Z</time>
      </trkpt>
      <trkpt lat="54.773830007761717" lon="26.898199003189802">
        <ele>168.37</ele>
        <time>2011-08-15T17:51:23Z</time>
      </trkpt>
      <trkpt lat="54.773562960326672" lon="26.898012002930045">
        <ele>168.84999999999999</ele>
        <time>2011-08-15T17:51:30Z</time>
      </trkpt>
      <trkpt lat="54.773238999769092" lon="26.897654011845589">
        <ele>167.41</ele>
        <time>2011-08-15T17:51:39Z</time>
      </trkpt>
      <trkpt lat="54.773166999220848" lon="26.897475980222225">
        <ele>168.37</ele>
        <time>2011-08-15T17:51:42Z</time>
      </trkpt>
      <trkpt lat="54.773059962317348" lon="26.897236006334424">
        <ele>168.37</ele>
        <time>2011-08-15T17:51:46Z</time>
      </trkpt>
      <trkpt lat="54.772739019244909" lon="26.896543996408582">
        <ele>168.84999999999999</ele>
        <time>2011-08-15T17:51:58Z</time>
      </trkpt>
      <trkpt lat="54.772713035345078" lon="26.896483981981874">
        <ele>168.84999999999999</ele>
        <time>2011-08-15T17:51:59Z</time>
      </trkpt>
      <trkpt lat="54.772194027900696" lon="26.895881993696094">
        <ele>168.37</ele>
        <time>2011-08-15T17:52:13Z</time>
      </trkpt>
      <trkpt lat="54.771899990737438" lon="26.895617041736841">
        <ele>168.37</ele>
        <time>2011-08-15T17:52:21Z</time>
      </trkpt>
      <trkpt lat="54.771811980754137" lon="26.895538000389934">
        <ele>168.84999999999999</ele>
        <time>2011-08-15T17:52:23Z</time>
      </trkpt>
      <trkpt lat="54.771567983552814" lon="26.895256033167243">
        <ele>168.37</ele>
        <time>2011-08-15T17:52:30Z</time>
      </trkpt>
      <trkpt lat="54.7713010199368" lon="26.894729984924197">
        <ele>168.37</ele>
        <time>2011-08-15T17:52:40Z</time>
      </trkpt>
      <trkpt lat="54.771126005798578" lon="26.894427984952927">
        <ele>167.88999999999999</ele>
        <time>2011-08-15T17:52:46Z</time>
      </trkpt>
      <trkpt lat="54.770865999162197" lon="26.89400696195662">
        <ele>167.41</ele>
        <time>2011-08-15T17:52:54Z</time>
      </trkpt>
      <trkpt lat="54.770756028592587" lon="26.893647965043783">
        <ele>167.41</ele>
        <time>2011-08-15T17:52:59Z</time>
      </trkpt>
      <trkpt lat="54.770542038604617" lon="26.892411969602108">
        <ele>165.96000000000001</ele>
        <time>2011-08-15T17:53:13Z</time>
      </trkpt>
      <trkpt lat="54.770369958132505" lon="26.89103901386261">
        <ele>165</ele>
        <time>2011-08-15T17:53:27Z</time>
      </trkpt>
      <trkpt lat="54.770294018089771" lon="26.889651976525784">
        <ele>163.56</ele>
        <time>2011-08-15T17:53:38Z</time>
      </trkpt>
      <trkpt lat="54.770389990881085" lon="26.887762024998665">
        <ele>163.08000000000001</ele>
        <time>2011-08-15T17:53:52Z</time>
      </trkpt>
      <trkpt lat="54.770542038604617" lon="26.88575598411262">
        <ele>164.03999999999999</ele>
        <time>2011-08-15T17:54:08Z</time>
      </trkpt>
      <trkpt lat="54.770683022215962" lon="26.883882964029908">
        <ele>163.56</ele>
        <time>2011-08-15T17:54:24Z</time>
      </trkpt>
      <trkpt lat="54.770756028592587" lon="26.882934970781207">
        <ele>164.03999999999999</ele>
        <time>2011-08-15T17:54:33Z</time>
      </trkpt>
      <trkpt lat="54.770888965576887" lon="26.881235036998987">
        <ele>164.03999999999999</ele>
        <time>2011-08-15T17:54:50Z</time>
      </trkpt>
      <trkpt lat="54.77100002579391" lon="26.879659993574023">
        <ele>164.03999999999999</ele>
        <time>2011-08-15T17:55:05Z</time>
      </trkpt>
      <trkpt lat="54.771106978878379" lon="26.877843970432878">
        <ele>164.03999999999999</ele>
        <time>2011-08-15T17:55:22Z</time>
      </trkpt>
      <trkpt lat="54.771156013011932" lon="26.876178989186883">
        <ele>164.03999999999999</ele>
        <time>2011-08-15T17:55:37Z</time>
      </trkpt>
      <trkpt lat="54.771156013011932" lon="26.874721962958574">
        <ele>165</ele>
        <time>2011-08-15T17:55:51Z</time>
      </trkpt>
      <trkpt lat="54.771160036325455" lon="26.873182039707899">
        <ele>165.47999999999999</ele>
        <time>2011-08-15T17:56:07Z</time>
      </trkpt>
      <trkpt lat="54.771132962778211" lon="26.871740017086267">
        <ele>165</ele>
        <time>2011-08-15T17:56:22Z</time>
      </trkpt>
      <trkpt lat="54.771145032718778" lon="26.869930028915405">
        <ele>164.52000000000001</ele>
        <time>2011-08-15T17:56:40Z</time>
      </trkpt>
      <trkpt lat="54.771126005798578" lon="26.86867299489677">
        <ele>165</ele>
        <time>2011-08-15T17:56:52Z</time>
      </trkpt>
      <trkpt lat="54.771136986091733" lon="26.867475975304842">
        <ele>165</ele>
        <time>2011-08-15T17:57:06Z</time>
      </trkpt>
      <trkpt lat="54.771130029112101" lon="26.866161022335291">
        <ele>165</ele>
        <time>2011-08-15T17:57:20Z</time>
      </trkpt>
      <trkpt lat="54.771160036325455" lon="26.864510038867593">
        <ele>165.47999999999999</ele>
        <time>2011-08-15T17:57:37Z</time>
      </trkpt>
      <trkpt lat="54.771160036325455" lon="26.864307029172778">
        <ele>162.12</ele>
        <time>2011-08-15T17:57:39Z</time>
      </trkpt>
      <trkpt lat="54.771160036325455" lon="26.864206027239561">
        <ele>165</ele>
        <time>2011-08-15T17:57:40Z</time>
      </trkpt>
      <trkpt lat="54.771163975819945" lon="26.863081008195877">
        <ele>165.96000000000001</ele>
        <time>2011-08-15T17:57:51Z</time>
      </trkpt>
      <trkpt lat="54.771160036325455" lon="26.861207988113165">
        <ele>165</ele>
        <time>2011-08-15T17:58:10Z</time>
      </trkpt>
      <trkpt lat="54.771145032718778" lon="26.859518028795719">
        <ele>165</ele>
        <time>2011-08-15T17:58:27Z</time>
      </trkpt>
      <trkpt lat="54.771156013011932" lon="26.857935022562742">
        <ele>165</ele>
        <time>2011-08-15T17:58:43Z</time>
      </trkpt>
      <trkpt lat="54.771175039932132" lon="26.856793994084001">
        <ele>165.47999999999999</ele>
        <time>2011-08-15T17:58:55Z</time>
      </trkpt>
      <trkpt lat="54.771205969154835" lon="26.856069965288043">
        <ele>165</ele>
        <time>2011-08-15T17:59:03Z</time>
      </trkpt>
      <trkpt lat="54.771266989409924" lon="26.85449399985373">
        <ele>165.96000000000001</ele>
        <time>2011-08-15T17:59:20Z</time>
      </trkpt>
      <trkpt lat="54.771385006606579" lon="26.852807980030775">
        <ele>165.96000000000001</ele>
        <time>2011-08-15T17:59:39Z</time>
      </trkpt>
      <trkpt lat="54.771434962749481" lon="26.852381005883217">
        <ele>166.93000000000001</ele>
        <time>2011-08-15T17:59:51Z</time>
      </trkpt>
      <trkpt lat="54.771434962749481" lon="26.852363990619779">
        <ele>166.44999999999999</ele>
        <time>2011-08-15T18:00:08Z</time>
      </trkpt>
      <trkpt lat="54.771434962749481" lon="26.852363990619779">
        <ele>167.41</ele>
        <time>2011-08-15T18:00:34Z</time>
      </trkpt>
      <trkpt lat="54.771434962749481" lon="26.852363990619779">
        <ele>164.03999999999999</ele>
        <time>2011-08-15T18:00:37Z</time>
      </trkpt>
      <trkpt lat="54.771434962749481" lon="26.852363990619779">
        <ele>165.96000000000001</ele>
        <time>2011-08-15T18:00:38Z</time>
      </trkpt>
      <trkpt lat="54.771434962749481" lon="26.852361978963017">
        <ele>167.88999999999999</ele>
        <time>2011-08-15T18:00:40Z</time>
      </trkpt>
      <trkpt lat="54.771434962749481" lon="26.852361978963017">
        <ele>164.52000000000001</ele>
        <time>2011-08-15T18:00:42Z</time>
      </trkpt>
      <trkpt lat="54.771434962749481" lon="26.852361978963017">
        <ele>168.37</ele>
        <time>2011-08-15T18:00:53Z</time>
      </trkpt>
      <trkpt lat="54.771426999941468" lon="26.852325014770031">
        <ele>166.44999999999999</ele>
        <time>2011-08-15T18:01:04Z</time>
      </trkpt>
      <trkpt lat="54.771458012983203" lon="26.851932993158698">
        <ele>166.44999999999999</ele>
        <time>2011-08-15T18:01:14Z</time>
      </trkpt>
      <trkpt lat="54.771530013531446" lon="26.851030010730028">
        <ele>166.44999999999999</ele>
        <time>2011-08-15T18:01:26Z</time>
      </trkpt>
      <trkpt lat="54.771557003259659" lon="26.850815014913678">
        <ele>166.93000000000001</ele>
        <time>2011-08-15T18:01:29Z</time>
      </trkpt>
      <trkpt lat="54.771690024062991" lon="26.849412973970175">
        <ele>166.93000000000001</ele>
        <time>2011-08-15T18:01:45Z</time>
      </trkpt>
      <trkpt lat="54.77192304097116" lon="26.847727037966251">
        <ele>167.41</ele>
        <time>2011-08-15T18:02:03Z</time>
      </trkpt>
      <trkpt lat="54.772133007645607" lon="26.846290966495872">
        <ele>166.93000000000001</ele>
        <time>2011-08-15T18:02:19Z</time>
      </trkpt>
      <trkpt lat="54.772231997922063" lon="26.8457489926368">
        <ele>166.93000000000001</ele>
        <time>2011-08-15T18:02:25Z</time>
      </trkpt>
      <trkpt lat="54.772498961538076" lon="26.844279980286956">
        <ele>166.93000000000001</ele>
        <time>2011-08-15T18:02:42Z</time>
      </trkpt>
      <trkpt lat="54.772781012579799" lon="26.842852039262652">
        <ele>167.88999999999999</ele>
        <time>2011-08-15T18:02:58Z</time>
      </trkpt>
      <trkpt lat="54.773120982572436" lon="26.84130297973752">
        <ele>167.88999999999999</ele>
        <time>2011-08-15T18:03:15Z</time>
      </trkpt>
      <trkpt lat="54.773566983640194" lon="26.839545965194702">
        <ele>167.88999999999999</ele>
        <time>2011-08-15T18:03:34Z</time>
      </trkpt>
      <trkpt lat="54.773765970021486" lon="26.838810034096241">
        <ele>167.88999999999999</ele>
        <time>2011-08-15T18:03:42Z</time>
      </trkpt>
      <trkpt lat="54.774250024929643" lon="26.837139017879963">
        <ele>167.88999999999999</ele>
        <time>2011-08-15T18:04:00Z</time>
      </trkpt>
      <trkpt lat="54.774826029315591" lon="26.835344033315778">
        <ele>167.88999999999999</ele>
        <time>2011-08-15T18:04:19Z</time>
      </trkpt>
      <trkpt lat="54.775414019823074" lon="26.833707969635725">
        <ele>169.33000000000001</ele>
        <time>2011-08-15T18:04:38Z</time>
      </trkpt>
      <trkpt lat="54.77602799423039" lon="26.832114988937974">
        <ele>169.81</ele>
        <time>2011-08-15T18:04:57Z</time>
      </trkpt>
      <trkpt lat="54.776234021410346" lon="26.831592964008451">
        <ele>169.81</ele>
        <time>2011-08-15T18:05:03Z</time>
      </trkpt>
      <trkpt lat="54.776774989441037" lon="26.830324027687311">
        <ele>170.77000000000001</ele>
        <time>2011-08-15T18:05:18Z</time>
      </trkpt>
      <trkpt lat="54.777331966906786" lon="26.829100018367171">
        <ele>170.77000000000001</ele>
        <time>2011-08-15T18:05:33Z</time>
      </trkpt>
      <trkpt lat="54.777949964627624" lon="26.827798979356885">
        <ele>171.25</ele>
        <time>2011-08-15T18:05:50Z</time>
      </trkpt>
      <trkpt lat="54.778736019507051" lon="26.826333990320563">
        <ele>171.72999999999999</ele>
        <time>2011-08-15T18:06:09Z</time>
      </trkpt>
      <trkpt lat="54.77951000444591" lon="26.824933961033821">
        <ele>172.69</ele>
        <time>2011-08-15T18:06:28Z</time>
      </trkpt>
      <trkpt lat="54.780307961627841" lon="26.823657983914018">
        <ele>173.16999999999999</ele>
        <time>2011-08-15T18:06:49Z</time>
      </trkpt>
      <trkpt lat="54.781089993193746" lon="26.822520978748798">
        <ele>173.16999999999999</ele>
        <time>2011-08-15T18:07:08Z</time>
      </trkpt>
      <trkpt lat="54.781826008111238" lon="26.821711035445333">
        <ele>173.66</ele>
        <time>2011-08-15T18:07:24Z</time>
      </trkpt>
      <trkpt lat="54.782677022740245" lon="26.820587022230029">
        <ele>172.21000000000001</ele>
        <time>2011-08-15T18:07:43Z</time>
      </trkpt>
      <trkpt lat="54.783057980239391" lon="26.820090981200337">
        <ele>171.25</ele>
        <time>2011-08-15T18:07:51Z</time>
      </trkpt>
      <trkpt lat="54.783798018470407" lon="26.819095965474844">
        <ele>171.25</ele>
        <time>2011-08-15T18:08:07Z</time>
      </trkpt>
      <trkpt lat="54.784392965957522" lon="26.818263977766037">
        <ele>171.72999999999999</ele>
        <time>2011-08-15T18:08:20Z</time>
      </trkpt>
      <trkpt lat="54.785122023895383" lon="26.817243983969092">
        <ele>171.72999999999999</ele>
        <time>2011-08-15T18:08:36Z</time>
      </trkpt>
      <trkpt lat="54.785164017230272" lon="26.817177012562752">
        <ele>171.72999999999999</ele>
        <time>2011-08-15T18:08:37Z</time>
      </trkpt>
      <trkpt lat="54.785824008285999" lon="26.81616397574544">
        <ele>173.66</ele>
        <time>2011-08-15T18:08:53Z</time>
      </trkpt>
      <trkpt lat="54.785984018817544" lon="26.815929030999541">
        <ele>174.13999999999999</ele>
        <time>2011-08-15T18:08:57Z</time>
      </trkpt>
      <trkpt lat="54.786132965236902" lon="26.815717974677682">
        <ele>173.66</ele>
        <time>2011-08-15T18:09:01Z</time>
      </trkpt>
      <trkpt lat="54.786602016538382" lon="26.81498003192246">
        <ele>175.09999999999999</ele>
        <time>2011-08-15T18:09:14Z</time>
      </trkpt>
      <trkpt lat="54.787024967372417" lon="26.814318029209971">
        <ele>175.58000000000001</ele>
        <time>2011-08-15T18:09:27Z</time>
      </trkpt>
      <trkpt lat="54.787417994812131" lon="26.813711011782289">
        <ele>178.46000000000001</ele>
        <time>2011-08-15T18:09:41Z</time>
      </trkpt>
      <trkpt lat="54.787757964804769" lon="26.813083961606026">
        <ele>179.90000000000001</ele>
        <time>2011-08-15T18:09:54Z</time>
      </trkpt>
      <trkpt lat="54.788077985867858" lon="26.812492031604052">
        <ele>181.83000000000001</ele>
        <time>2011-08-15T18:10:06Z</time>
      </trkpt>
      <trkpt lat="54.78842499665916" lon="26.811874033883214">
        <ele>183.75</ele>
        <time>2011-08-15T18:10:19Z</time>
      </trkpt>
      <trkpt lat="54.788761027157307" lon="26.811197027564049">
        <ele>184.71000000000001</ele>
        <time>2011-08-15T18:10:33Z</time>
      </trkpt>
      <trkpt lat="54.789021033793688" lon="26.810672990977764">
        <ele>184.71000000000001</ele>
        <time>2011-08-15T18:10:43Z</time>
      </trkpt>
      <trkpt lat="54.789249021559954" lon="26.810224978253245">
        <ele>184.22999999999999</ele>
        <time>2011-08-15T18:10:51Z</time>
      </trkpt>
      <trkpt lat="54.789310041815042" lon="26.810107966884971">
        <ele>184.71000000000001</ele>
        <time>2011-08-15T18:10:53Z</time>
      </trkpt>
      <trkpt lat="54.789421018213034" lon="26.809865981340408">
        <ele>184.71000000000001</ele>
        <time>2011-08-15T18:10:57Z</time>
      </trkpt>
      <trkpt lat="54.789958968758583" lon="26.80875001475215">
        <ele>185.66999999999999</ele>
        <time>2011-08-15T18:11:14Z</time>
      </trkpt>
      <trkpt lat="54.790081009268761" lon="26.808489002287388">
        <ele>185.66999999999999</ele>
        <time>2011-08-15T18:11:18Z</time>
      </trkpt>
      <trkpt lat="54.790588030591607" lon="26.807265998795629">
        <ele>184.22999999999999</ele>
        <time>2011-08-15T18:11:35Z</time>
      </trkpt>
      <trkpt lat="54.79061895981431" lon="26.807186035439372">
        <ele>184.22999999999999</ele>
        <time>2011-08-15T18:11:36Z</time>
      </trkpt>
      <trkpt lat="54.791099997237325" lon="26.80593503639102">
        <ele>181.34999999999999</ele>
        <time>2011-08-15T18:11:50Z</time>
      </trkpt>
      <trkpt lat="54.791617998853326" lon="26.804569037631154">
        <ele>177.5</ele>
        <time>2011-08-15T18:12:03Z</time>
      </trkpt>
      <trkpt lat="54.792090989649296" lon="26.803228016942739">
        <ele>176.53999999999999</ele>
        <time>2011-08-15T18:12:17Z</time>
      </trkpt>
      <trkpt lat="54.792392989620566" lon="26.802331991493702">
        <ele>176.06</ele>
        <time>2011-08-15T18:12:26Z</time>
      </trkpt>
      <trkpt lat="54.792853994295001" lon="26.800983007997274">
        <ele>175.09999999999999</ele>
        <time>2011-08-15T18:12:39Z</time>
      </trkpt>
      <trkpt lat="54.792961031198502" lon="26.800687965005636">
        <ele>175.09999999999999</ele>
        <time>2011-08-15T18:12:42Z</time>
      </trkpt>
      <trkpt lat="54.793055998161435" lon="26.800392000004649">
        <ele>175.09999999999999</ele>
        <time>2011-08-15T18:12:45Z</time>
      </trkpt>
      <trkpt lat="54.793494958430529" lon="26.79897696711123">
        <ele>174.62</ele>
        <time>2011-08-15T18:13:00Z</time>
      </trkpt>
      <trkpt lat="54.793823026120663" lon="26.797821018844843">
        <ele>174.62</ele>
        <time>2011-08-15T18:13:12Z</time>
      </trkpt>
      <trkpt lat="54.794239019975066" lon="26.796227032318711">
        <ele>173.66</ele>
        <time>2011-08-15T18:13:29Z</time>
      </trkpt>
      <trkpt lat="54.794525010511279" lon="26.794810993596911">
        <ele>175.09999999999999</ele>
        <time>2011-08-15T18:13:45Z</time>
      </trkpt>
      <trkpt lat="54.794791974127293" lon="26.793203009292483">
        <ele>176.06</ele>
        <time>2011-08-15T18:14:03Z</time>
      </trkpt>
      <trkpt lat="54.795138984918594" lon="26.791051961481571">
        <ele>176.06</ele>
        <time>2011-08-15T18:14:26Z</time>
      </trkpt>
      <trkpt lat="54.795334031805396" lon="26.789788976311684">
        <ele>177.02000000000001</ele>
        <time>2011-08-15T18:14:41Z</time>
      </trkpt>
      <trkpt lat="54.795424975454807" lon="26.789209032431245">
        <ele>176.53999999999999</ele>
        <time>2011-08-15T18:14:48Z</time>
      </trkpt>
      <trkpt lat="54.795455988496542" lon="26.788950031623244">
        <ele>176.53999999999999</ele>
        <time>2011-08-15T18:14:51Z</time>
      </trkpt>
      <trkpt lat="54.795734016224742" lon="26.787193017080426">
        <ele>177.97999999999999</ele>
        <time>2011-08-15T18:15:10Z</time>
      </trkpt>
      <trkpt lat="54.795982036739588" lon="26.785625014454126">
        <ele>178.46000000000001</ele>
        <time>2011-08-15T18:15:27Z</time>
      </trkpt>
      <trkpt lat="54.796199966222048" lon="26.785326031967998">
        <ele>177.97999999999999</ele>
        <time>2011-08-15T18:15:32Z</time>
      </trkpt>
      <trkpt lat="54.797252984717488" lon="26.784832002595067">
        <ele>174.13999999999999</ele>
        <time>2011-08-15T18:15:48Z</time>
      </trkpt>
      <trkpt lat="54.798138029873371" lon="26.784391030669212">
        <ele>172.69</ele>
        <time>2011-08-15T18:16:04Z</time>
      </trkpt>
      <trkpt lat="54.798470037057996" lon="26.784295979887247">
        <ele>173.66</ele>
        <time>2011-08-15T18:16:12Z</time>
      </trkpt>
      <trkpt lat="54.798737000674009" lon="26.784614995121956">
        <ele>172.21000000000001</ele>
        <time>2011-08-15T18:16:21Z</time>
      </trkpt>
      <trkpt lat="54.799132961779833" lon="26.784697975963354">
        <ele>171.72999999999999</ele>
        <time>2011-08-15T18:16:33Z</time>
      </trkpt>
      <trkpt lat="54.79944602586329" lon="26.784994024783373">
        <ele>171.72999999999999</ele>
        <time>2011-08-15T18:16:43Z</time>
      </trkpt>
      <trkpt lat="54.799697985872626" lon="26.785456035286188">
        <ele>172.69</ele>
        <time>2011-08-15T18:16:56Z</time>
      </trkpt>
      <trkpt lat="54.799923039972782" lon="26.786188026890159">
        <ele>173.16999999999999</ele>
        <time>2011-08-15T18:17:11Z</time>
      </trkpt>
      <trkpt lat="54.800303997471929" lon="26.786525985226035">
        <ele>173.16999999999999</ele>
        <time>2011-08-15T18:17:23Z</time>
      </trkpt>
      <trkpt lat="54.800781011581421" lon="26.78632004186511">
        <ele>173.66</ele>
        <time>2011-08-15T18:17:37Z</time>
      </trkpt>
      <trkpt lat="54.80101796798408" lon="26.786043019965291">
        <ele>174.13999999999999</ele>
        <time>2011-08-15T18:17:50Z</time>
      </trkpt>
      <trkpt lat="54.801120981574059" lon="26.785846967250109">
        <ele>173.66</ele>
        <time>2011-08-15T18:18:02Z</time>
      </trkpt>
      <trkpt lat="54.801125004887581" lon="26.785802962258458">
        <ele>173.66</ele>
        <time>2011-08-15T18:18:13Z</time>
      </trkpt>
      <trkpt lat="54.801125004887581" lon="26.785802962258458">
        <ele>175.09999999999999</ele>
        <time>2011-08-15T18:18:29Z</time>
      </trkpt>
      <trkpt lat="54.801125004887581" lon="26.785802962258458">
        <ele>171.25</ele>
        <time>2011-08-15T18:18:37Z</time>
      </trkpt>
      <trkpt lat="54.801125004887581" lon="26.785802962258458">
        <ele>175.58000000000001</ele>
        <time>2011-08-15T18:18:38Z</time>
      </trkpt>
      <trkpt lat="54.801125004887581" lon="26.785802962258458">
        <ele>170.77000000000001</ele>
        <time>2011-08-15T18:18:39Z</time>
      </trkpt>
      <trkpt lat="54.801125004887581" lon="26.785802962258458">
        <ele>174.13999999999999</ele>
        <time>2011-08-15T18:18:40Z</time>
      </trkpt>
      <trkpt lat="54.801116958260536" lon="26.785810003057122">
        <ele>173.66</ele>
        <time>2011-08-15T18:18:50Z</time>
      </trkpt>
      <trkpt lat="54.801102038472891" lon="26.785861970856786">
        <ele>173.66</ele>
        <time>2011-08-15T18:18:53Z</time>
      </trkpt>
      <trkpt lat="54.800788974389434" lon="26.786262961104512">
        <ele>173.16999999999999</ele>
        <time>2011-08-15T18:19:06Z</time>
      </trkpt>
      <trkpt lat="54.800449004396796" lon="26.786457002162933">
        <ele>173.16999999999999</ele>
        <time>2011-08-15T18:19:14Z</time>
      </trkpt>
      <trkpt lat="54.80020098388195" lon="26.786441998556256">
        <ele>173.66</ele>
        <time>2011-08-15T18:19:20Z</time>
      </trkpt>
      <trkpt lat="54.800121020525694" lon="26.786402016878128">
        <ele>173.66</ele>
        <time>2011-08-15T18:19:22Z</time>
      </trkpt>
      <trkpt lat="54.800037033855915" lon="26.786434035748243">
        <ele>172.69</ele>
        <time>2011-08-15T18:19:29Z</time>
      </trkpt>
      <trkpt lat="54.800064023584127" lon="26.786464964970946">
        <ele>172.69</ele>
        <time>2011-08-15T18:19:31Z</time>
      </trkpt>
      <trkpt lat="54.800315983593464" lon="26.786989001557231">
        <ele>173.16999999999999</ele>
        <time>2011-08-15T18:19:46Z</time>
      </trkpt>
      <trkpt lat="54.800652014091611" lon="26.787683023139834">
        <ele>173.16999999999999</ele>
        <time>2011-08-15T18:19:59Z</time>
      </trkpt>
      <trkpt lat="54.80114696547389" lon="26.788746016100049">
        <ele>172.21000000000001</ele>
        <time>2011-08-15T18:20:15Z</time>
      </trkpt>
      <trkpt lat="54.801192982122302" lon="26.788867972791195">
        <ele>172.21000000000001</ele>
        <time>2011-08-15T18:20:22Z</time>
      </trkpt>
      <trkpt lat="54.801192982122302" lon="26.788867972791195">
        <ele>172.21000000000001</ele>
        <time>2011-08-15T18:20:23Z</time>
      </trkpt>
      <trkpt lat="54.801223995164037" lon="26.788999987766147">
        <ele>171.72999999999999</ele>
        <time>2011-08-15T18:20:27Z</time>
      </trkpt>
      <trkpt lat="54.801223995164037" lon="26.789898024871945">
        <ele>170.77000000000001</ele>
        <time>2011-08-15T18:20:40Z</time>
      </trkpt>
      <trkpt lat="54.801192982122302" lon="26.790226008743048">
        <ele>169.81</ele>
        <time>2011-08-15T18:20:44Z</time>
      </trkpt>
      <trkpt lat="54.801212009042501" lon="26.790560027584434">
        <ele>169.33000000000001</ele>
        <time>2011-08-15T18:20:48Z</time>
      </trkpt>
      <trkpt lat="54.801228018477559" lon="26.790648037567735">
        <ele>170.77000000000001</ele>
        <time>2011-08-15T18:20:49Z</time>
      </trkpt>
      <trkpt lat="54.801270011812449" lon="26.790815005078912">
        <ele>168.37</ele>
        <time>2011-08-15T18:20:51Z</time>
      </trkpt>
      <trkpt lat="54.801342012360692" lon="26.790960012003779">
        <ele>168.37</ele>
        <time>2011-08-15T18:20:53Z</time>
      </trkpt>
      <trkpt lat="54.801773009821773" lon="26.791655039414763">
        <ele>167.41</ele>
        <time>2011-08-15T18:21:05Z</time>
      </trkpt>
      <trkpt lat="54.801951963454485" lon="26.791947986930609">
        <ele>167.41</ele>
        <time>2011-08-15T18:21:11Z</time>
      </trkpt>
      <trkpt lat="54.802051959559321" lon="26.792119983583689">
        <ele>166.93000000000001</ele>
        <time>2011-08-15T18:21:14Z</time>
      </trkpt>
      <trkpt lat="54.802211970090866" lon="26.792420977726579">
        <ele>167.41</ele>
        <time>2011-08-15T18:21:19Z</time>
      </trkpt>
      <trkpt lat="54.802440963685513" lon="26.792858010157943">
        <ele>167.41</ele>
        <time>2011-08-15T18:21:26Z</time>
      </trkpt>
      <trkpt lat="54.802925018593669" lon="26.79367097094655">
        <ele>166.93000000000001</ele>
        <time>2011-08-15T18:21:39Z</time>
      </trkpt>
      <trkpt lat="54.803402032703161" lon="26.794517962262034">
        <ele>166.93000000000001</ele>
        <time>2011-08-15T18:21:53Z</time>
      </trkpt>
      <trkpt lat="54.803806040436029" lon="26.795213995501399">
        <ele>166.44999999999999</ele>
        <time>2011-08-15T18:22:06Z</time>
      </trkpt>
      <trkpt lat="54.804176017642021" lon="26.795901982113719">
        <ele>166.93000000000001</ele>
        <time>2011-08-15T18:22:19Z</time>
      </trkpt>
      <trkpt lat="54.804451027885079" lon="26.796383019536734">
        <ele>166.93000000000001</ele>
        <time>2011-08-15T18:22:32Z</time>
      </trkpt>
      <trkpt lat="54.804770965129137" lon="26.796955000609159">
        <ele>165.96000000000001</ele>
        <time>2011-08-15T18:22:45Z</time>
      </trkpt>
      <trkpt lat="54.80505402199924" lon="26.797496974468231">
        <ele>166.93000000000001</ele>
        <time>2011-08-15T18:22:56Z</time>
      </trkpt>
      <trkpt lat="54.805106995627284" lon="26.797966025769711">
        <ele>164.52000000000001</ele>
        <time>2011-08-15T18:23:07Z</time>
      </trkpt>
      <trkpt lat="54.805106995627284" lon="26.797966025769711">
        <ele>167.88999999999999</ele>
        <time>2011-08-15T18:23:08Z</time>
      </trkpt>
      <trkpt lat="54.805106995627284" lon="26.797966025769711">
        <ele>164.03999999999999</ele>
        <time>2011-08-15T18:23:23Z</time>
      </trkpt>
      <trkpt lat="54.805106995627284" lon="26.797966025769711">
        <ele>167.88999999999999</ele>
        <time>2011-08-15T18:23:24Z</time>
      </trkpt>
      <trkpt lat="54.805106995627284" lon="26.797966025769711">
        <ele>164.52000000000001</ele>
        <time>2011-08-15T18:23:29Z</time>
      </trkpt>
      <trkpt lat="54.805106995627284" lon="26.797966025769711">
        <ele>172.21000000000001</ele>
        <time>2011-08-15T18:23:30Z</time>
      </trkpt>
      <trkpt lat="54.805106995627284" lon="26.797966025769711">
        <ele>169.33000000000001</ele>
        <time>2011-08-15T18:23:31Z</time>
      </trkpt>
      <trkpt lat="54.805106995627284" lon="26.797966025769711">
        <ele>165.96000000000001</ele>
        <time>2011-08-15T18:23:34Z</time>
      </trkpt>
      <trkpt lat="54.805106995627284" lon="26.797966025769711">
        <ele>166.93000000000001</ele>
        <time>2011-08-15T18:23:35Z</time>
      </trkpt>
      <trkpt lat="54.805106995627284" lon="26.798267019912601">
        <ele>167.41</ele>
        <time>2011-08-15T18:23:49Z</time>
      </trkpt>
      <trkpt lat="54.805172039195895" lon="26.79906103760004">
        <ele>167.41</ele>
        <time>2011-08-15T18:24:03Z</time>
      </trkpt>
      <trkpt lat="54.805232975631952" lon="26.799860000610352">
        <ele>167.41</ele>
        <time>2011-08-15T18:24:16Z</time>
      </trkpt>
      <trkpt lat="54.805271029472351" lon="26.80030801333487">
        <ele>166.93000000000001</ele>
        <time>2011-08-15T18:24:23Z</time>
      </trkpt>
      <trkpt lat="54.805301958695054" lon="26.80060800164938">
        <ele>167.41</ele>
        <time>2011-08-15T18:24:27Z</time>
      </trkpt>
      <trkpt lat="54.805335989221931" lon="26.801071017980576">
        <ele>167.88999999999999</ele>
        <time>2011-08-15T18:24:37Z</time>
      </trkpt>
      <trkpt lat="54.805350992828608" lon="26.801060037687421">
        <ele>166.93000000000001</ele>
        <time>2011-08-15T18:24:49Z</time>
      </trkpt>
      <trkpt lat="54.805350992828608" lon="26.801060037687421">
        <ele>167.41</ele>
        <time>2011-08-15T18:25:15Z</time>
      </trkpt>
      <trkpt lat="54.805320985615253" lon="26.801142012700438">
        <ele>167.41</ele>
        <time>2011-08-15T18:25:25Z</time>
      </trkpt>
      <trkpt lat="54.805370019748807" lon="26.801679963245988">
        <ele>167.41</ele>
        <time>2011-08-15T18:25:36Z</time>
      </trkpt>
      <trkpt lat="54.805488958954811" lon="26.802716972306371">
        <ele>166.93000000000001</ele>
        <time>2011-08-15T18:25:52Z</time>
      </trkpt>
      <trkpt lat="54.805621979758143" lon="26.803323989734054">
        <ele>167.41</ele>
        <time>2011-08-15T18:26:04Z</time>
      </trkpt>
      <trkpt lat="54.80578601360321" lon="26.803993033245206">
        <ele>167.41</ele>
        <time>2011-08-15T18:26:16Z</time>
      </trkpt>
      <trkpt lat="54.805943006649613" lon="26.80477699264884">
        <ele>166.93000000000001</ele>
        <time>2011-08-15T18:26:28Z</time>
      </trkpt>
      <trkpt lat="54.806206030771136" lon="26.805783994495869">
        <ele>166.93000000000001</ele>
        <time>2011-08-15T18:26:44Z</time>
      </trkpt>
      <trkpt lat="54.806312983855605" lon="26.806175010278821">
        <ele>167.41</ele>
        <time>2011-08-15T18:26:54Z</time>
      </trkpt>
      <trkpt lat="54.806312983855605" lon="26.806175010278821">
        <ele>166.93000000000001</ele>
        <time>2011-08-15T18:27:18Z</time>
      </trkpt>
      <trkpt lat="54.806312983855605" lon="26.806175010278821">
        <ele>169.81</ele>
        <time>2011-08-15T18:27:58Z</time>
      </trkpt>
      <trkpt lat="54.806312983855605" lon="26.806175010278821">
        <ele>162.12</ele>
        <time>2011-08-15T18:28:01Z</time>
      </trkpt>
      <trkpt lat="54.806312983855605" lon="26.806175010278821">
        <ele>168.37</ele>
        <time>2011-08-15T18:28:02Z</time>
      </trkpt>
      <trkpt lat="54.806312983855605" lon="26.806175010278821">
        <ele>164.52000000000001</ele>
        <time>2011-08-15T18:28:10Z</time>
      </trkpt>
      <trkpt lat="54.806312983855605" lon="26.806175010278821">
        <ele>167.88999999999999</ele>
        <time>2011-08-15T18:28:11Z</time>
      </trkpt>
      <trkpt lat="54.806312983855605" lon="26.80617299862206">
        <ele>161.63999999999999</ele>
        <time>2011-08-15T18:28:14Z</time>
      </trkpt>
      <trkpt lat="54.806312983855605" lon="26.80617299862206">
        <ele>166.44999999999999</ele>
        <time>2011-08-15T18:28:15Z</time>
      </trkpt>
      <trkpt lat="54.806312983855605" lon="26.80617299862206">
        <ele>166.93000000000001</ele>
        <time>2011-08-15T18:28:24Z</time>
      </trkpt>
      <trkpt lat="54.806312983855605" lon="26.80617299862206">
        <ele>163.08000000000001</ele>
        <time>2011-08-15T18:28:29Z</time>
      </trkpt>
      <trkpt lat="54.806312983855605" lon="26.80617299862206">
        <ele>168.37</ele>
        <time>2011-08-15T18:28:30Z</time>
      </trkpt>
      <trkpt lat="54.806312983855605" lon="26.80617299862206">
        <ele>163.56</ele>
        <time>2011-08-15T18:28:31Z</time>
      </trkpt>
      <trkpt lat="54.806312983855605" lon="26.80617299862206">
        <ele>166.93000000000001</ele>
        <time>2011-08-15T18:28:35Z</time>
      </trkpt>
      <trkpt lat="54.806312983855605" lon="26.80617299862206">
        <ele>167.41</ele>
        <time>2011-08-15T18:28:36Z</time>
      </trkpt>
      <trkpt lat="54.806312983855605" lon="26.806167969480157">
        <ele>163.56</ele>
        <time>2011-08-15T18:29:01Z</time>
      </trkpt>
      <trkpt lat="54.806312983855605" lon="26.806167969480157">
        <ele>166.44999999999999</ele>
        <time>2011-08-15T18:29:02Z</time>
      </trkpt>
      <trkpt lat="54.806312983855605" lon="26.806167969480157">
        <ele>167.41</ele>
        <time>2011-08-15T18:29:04Z</time>
      </trkpt>
      <trkpt lat="54.80632396414876" lon="26.806169981136918">
        <ele>167.88999999999999</ele>
        <time>2011-08-15T18:29:19Z</time>
      </trkpt>
      <trkpt lat="54.80632396414876" lon="26.806169981136918">
        <ele>165.96000000000001</ele>
        <time>2011-08-15T18:29:21Z</time>
      </trkpt>
      <trkpt lat="54.80632396414876" lon="26.806169981136918">
        <ele>171.25</ele>
        <time>2011-08-15T18:29:22Z</time>
      </trkpt>
      <trkpt lat="54.80632396414876" lon="26.806169981136918">
        <ele>167.41</ele>
        <time>2011-08-15T18:29:23Z</time>
      </trkpt>
      <trkpt lat="54.806320024654269" lon="26.806170986965299">
        <ele>166.93000000000001</ele>
        <time>2011-08-15T18:29:40Z</time>
      </trkpt>
      <trkpt lat="54.806312983855605" lon="26.80617299862206">
        <ele>166.93000000000001</ele>
        <time>2011-08-15T18:30:10Z</time>
      </trkpt>
      <trkpt lat="54.806312983855605" lon="26.80617299862206">
        <ele>167.41</ele>
        <time>2011-08-15T18:30:30Z</time>
      </trkpt>
      <trkpt lat="54.806312983855605" lon="26.806179033592343">
        <ele>167.41</ele>
        <time>2011-08-15T18:31:00Z</time>
      </trkpt>
      <trkpt lat="54.806316001340747" lon="26.806170986965299">
        <ele>167.41</ele>
        <time>2011-08-15T18:31:17Z</time>
      </trkpt>
      <trkpt lat="54.806316001340747" lon="26.806170986965299">
        <ele>166.93000000000001</ele>
        <time>2011-08-15T18:31:43Z</time>
      </trkpt>
      <trkpt lat="54.806316001340747" lon="26.806164029985666">
        <ele>166.93000000000001</ele>
        <time>2011-08-15T18:32:13Z</time>
      </trkpt>
      <trkpt lat="54.806316001340747" lon="26.806164029985666">
        <ele>166.93000000000001</ele>
        <time>2011-08-15T18:32:29Z</time>
      </trkpt>
      <trkpt lat="54.806320024654269" lon="26.806149026378989">
        <ele>166.93000000000001</ele>
        <time>2011-08-15T18:32:55Z</time>
      </trkpt>
      <trkpt lat="54.80632396414876" lon="26.806137040257454">
        <ele>166.93000000000001</ele>
        <time>2011-08-15T18:33:16Z</time>
      </trkpt>
      <trkpt lat="54.806308960542083" lon="26.806105021387339">
        <ele>166.93000000000001</ele>
        <time>2011-08-15T18:33:19Z</time>
      </trkpt>
      <trkpt lat="54.806251963600516" lon="26.805929001420736">
        <ele>166.93000000000001</ele>
        <time>2011-08-15T18:33:30Z</time>
      </trkpt>
      <trkpt lat="54.806248024106026" lon="26.805907962843776">
        <ele>166.44999999999999</ele>
        <time>2011-08-15T18:33:32Z</time>
      </trkpt>
      <trkpt lat="54.806179041042924" lon="26.80568098090589">
        <ele>166.44999999999999</ele>
        <time>2011-08-15T18:33:39Z</time>
      </trkpt>
      <trkpt lat="54.805949963629246" lon="26.804895009845495">
        <ele>166.44999999999999</ele>
        <time>2011-08-15T18:33:54Z</time>
      </trkpt>
      <trkpt lat="54.805819960311055" lon="26.804352030158043">
        <ele>166.44999999999999</ele>
        <time>2011-08-15T18:34:05Z</time>
      </trkpt>
      <trkpt lat="54.805683000013232" lon="26.803813995793462">
        <ele>166.44999999999999</ele>
        <time>2011-08-15T18:34:16Z</time>
      </trkpt>
      <trkpt lat="54.805675959214568" lon="26.803774014115334">
        <ele>166.44999999999999</ele>
        <time>2011-08-15T18:34:17Z</time>
      </trkpt>
      <trkpt lat="54.805522989481688" lon="26.80312198586762">
        <ele>166.44999999999999</ele>
        <time>2011-08-15T18:34:31Z</time>
      </trkpt>
      <trkpt lat="54.805439002811909" lon="26.802423018962145">
        <ele>166.93000000000001</ele>
        <time>2011-08-15T18:34:44Z</time>
      </trkpt>
      <trkpt lat="54.805370019748807" lon="26.801744000986218">
        <ele>166.44999999999999</ele>
        <time>2011-08-15T18:34:57Z</time>
      </trkpt>
      <trkpt lat="54.805328026413918" lon="26.801029024645686">
        <ele>166.93000000000001</ele>
        <time>2011-08-15T18:35:11Z</time>
      </trkpt>
      <trkpt lat="54.805325008928776" lon="26.800948977470398">
        <ele>165.96000000000001</ele>
        <time>2011-08-15T18:35:17Z</time>
      </trkpt>
      <trkpt lat="54.805325008928776" lon="26.800891980528831">
        <ele>166.44999999999999</ele>
        <time>2011-08-15T18:35:31Z</time>
      </trkpt>
      <trkpt lat="54.805328026413918" lon="26.80088996887207">
        <ele>165.96000000000001</ele>
        <time>2011-08-15T18:36:08Z</time>
      </trkpt>
      <trkpt lat="54.805328026413918" lon="26.80088996887207">
        <ele>166.44999999999999</ele>
        <time>2011-08-15T18:36:27Z</time>
      </trkpt>
      <trkpt lat="54.805325008928776" lon="26.800891980528831">
        <ele>166.44999999999999</ele>
        <time>2011-08-15T18:36:58Z</time>
      </trkpt>
      <trkpt lat="54.805325008928776" lon="26.800891980528831">
        <ele>166.44999999999999</ele>
        <time>2011-08-15T18:37:00Z</time>
      </trkpt>
      <trkpt lat="54.805320985615253" lon="26.800854010507464">
        <ele>166.93000000000001</ele>
        <time>2011-08-15T18:37:02Z</time>
      </trkpt>
      <trkpt lat="54.805252002552152" lon="26.800183961167932">
        <ele>166.44999999999999</ele>
        <time>2011-08-15T18:37:17Z</time>
      </trkpt>
      <trkpt lat="54.805201962590218" lon="26.799540985375643">
        <ele>166.44999999999999</ele>
        <time>2011-08-15T18:37:29Z</time>
      </trkpt>
      <trkpt lat="54.805144965648651" lon="26.798831960186362">
        <ele>166.44999999999999</ele>
        <time>2011-08-15T18:37:41Z</time>
      </trkpt>
      <trkpt lat="54.805099032819271" lon="26.798057975247502">
        <ele>166.44999999999999</ele>
        <time>2011-08-15T18:37:54Z</time>
      </trkpt>
      <trkpt lat="54.804985038936138" lon="26.797364959493279">
        <ele>166.44999999999999</ele>
        <time>2011-08-15T18:38:09Z</time>
      </trkpt>
      <trkpt lat="54.804744981229305" lon="26.796946031972766">
        <ele>165.96000000000001</ele>
        <time>2011-08-15T18:38:20Z</time>
      </trkpt>
      <trkpt lat="54.804530991241336" lon="26.796587035059929">
        <ele>166.44999999999999</ele>
        <time>2011-08-15T18:38:30Z</time>
      </trkpt>
      <trkpt lat="54.804297974333167" lon="26.7961810156703">
        <ele>165.96000000000001</ele>
        <time>2011-08-15T18:38:41Z</time>
      </trkpt>
      <trkpt lat="54.803993040695786" lon="26.795573998242617">
        <ele>165.47999999999999</ele>
        <time>2011-08-15T18:38:54Z</time>
      </trkpt>
      <trkpt lat="54.803611999377608" lon="26.794888023287058">
        <ele>165.47999999999999</ele>
        <time>2011-08-15T18:39:08Z</time>
      </trkpt>
      <trkpt lat="54.803326008841395" lon="26.794430036097765">
        <ele>165.47999999999999</ele>
        <time>2011-08-15T18:39:19Z</time>
      </trkpt>
      <trkpt lat="54.803024008870125" lon="26.793898036703467">
        <ele>165.47999999999999</ele>
        <time>2011-08-15T18:39:31Z</time>
      </trkpt>
      <trkpt lat="54.80271496810019" lon="26.793353967368603">
        <ele>165.47999999999999</ele>
        <time>2011-08-15T18:39:44Z</time>
      </trkpt>
      <trkpt lat="54.802440963685513" lon="26.792884999886155">
        <ele>165.96000000000001</ele>
        <time>2011-08-15T18:39:55Z</time>
      </trkpt>
      <trkpt lat="54.802135024219751" lon="26.792372027412057">
        <ele>165.96000000000001</ele>
        <time>2011-08-15T18:40:07Z</time>
      </trkpt>
      <trkpt lat="54.801830006763339" lon="26.791893001645803">
        <ele>166.44999999999999</ele>
        <time>2011-08-15T18:40:18Z</time>
      </trkpt>
      <trkpt lat="54.801650969311595" lon="26.791592007502913">
        <ele>167.41</ele>
        <time>2011-08-15T18:40:26Z</time>
      </trkpt>
      <trkpt lat="54.801780972629786" lon="26.791343986988068">
        <ele>166.93000000000001</ele>
        <time>2011-08-15T18:40:36Z</time>
      </trkpt>
      <trkpt lat="54.801799999549985" lon="26.791282966732979">
        <ele>166.93000000000001</ele>
        <time>2011-08-15T18:40:38Z</time>
      </trkpt>
      <trkpt lat="54.801846016198397" lon="26.791117005050182">
        <ele>167.41</ele>
        <time>2011-08-15T18:40:43Z</time>
      </trkpt>
      <trkpt lat="54.801834030076861" lon="26.790980966761708">
        <ele>166.93000000000001</ele>
        <time>2011-08-15T18:40:54Z</time>
      </trkpt>
      <trkpt lat="54.801841992884874" lon="26.790945008397102">
        <ele>166.93000000000001</ele>
        <time>2011-08-15T18:41:18Z</time>
      </trkpt>
      <trkpt lat="54.801898989826441" lon="26.790563967078924">
        <ele>167.41</ele>
        <time>2011-08-15T18:41:31Z</time>
      </trkpt>
      <trkpt lat="54.801936959847808" lon="26.790395993739367">
        <ele>167.88999999999999</ele>
        <time>2011-08-15T18:41:36Z</time>
      </trkpt>
      <trkpt lat="54.801986999809742" lon="26.790260039269924">
        <ele>167.41</ele>
        <time>2011-08-15T18:41:40Z</time>
      </trkpt>
      <trkpt lat="54.801994040608406" lon="26.790043031796813">
        <ele>167.88999999999999</ele>
        <time>2011-08-15T18:41:44Z</time>
      </trkpt>
      <trkpt lat="54.802036033943295" lon="26.789418999105692">
        <ele>168.37</ele>
        <time>2011-08-15T18:41:57Z</time>
      </trkpt>
      <trkpt lat="54.802135024219751" lon="26.788916001096368">
        <ele>167.88999999999999</ele>
        <time>2011-08-15T18:42:10Z</time>
      </trkpt>
      <trkpt lat="54.802151033654809" lon="26.788832014426589">
        <ele>167.88999999999999</ele>
        <time>2011-08-15T18:42:12Z</time>
      </trkpt>
      <trkpt lat="54.802226973697543" lon="26.788222985342145">
        <ele>168.37</ele>
        <time>2011-08-15T18:42:25Z</time>
      </trkpt>
      <trkpt lat="54.802268967032433" lon="26.787745971232653">
        <ele>168.84999999999999</ele>
        <time>2011-08-15T18:42:36Z</time>
      </trkpt>
      <trkpt lat="54.802340967580676" lon="26.787173990160227">
        <ele>168.84999999999999</ele>
        <time>2011-08-15T18:42:50Z</time>
      </trkpt>
      <trkpt lat="54.802521010860801" lon="26.786591028794646">
        <ele>168.37</ele>
        <time>2011-08-15T18:43:04Z</time>
      </trkpt>
      <trkpt lat="54.802772970870137" lon="26.785863982513547">
        <ele>167.88999999999999</ele>
        <time>2011-08-15T18:43:19Z</time>
      </trkpt>
      <trkpt lat="54.802937004715204" lon="26.785395015031099">
        <ele>167.41</ele>
        <time>2011-08-15T18:43:31Z</time>
      </trkpt>
      <trkpt lat="54.803112018853426" lon="26.784979021176696">
        <ele>167.88999999999999</ele>
        <time>2011-08-15T18:43:43Z</time>
      </trkpt>
      <trkpt lat="54.803158035501838" lon="26.784809036180377">
        <ele>167.41</ele>
        <time>2011-08-15T18:43:55Z</time>
      </trkpt>
      <trkpt lat="54.803158035501838" lon="26.784809036180377">
        <ele>167.88999999999999</ele>
        <time>2011-08-15T18:44:18Z</time>
      </trkpt>
      <trkpt lat="54.803158035501838" lon="26.784809036180377">
        <ele>164.52000000000001</ele>
        <time>2011-08-15T18:44:19Z</time>
      </trkpt>
      <trkpt lat="54.803158035501838" lon="26.784809036180377">
        <ele>168.37</ele>
        <time>2011-08-15T18:44:20Z</time>
      </trkpt>
      <trkpt lat="54.803158035501838" lon="26.784809036180377">
        <ele>165.47999999999999</ele>
        <time>2011-08-15T18:44:23Z</time>
      </trkpt>
      <trkpt lat="54.803158035501838" lon="26.784809036180377">
        <ele>168.37</ele>
        <time>2011-08-15T18:44:27Z</time>
      </trkpt>
      <trkpt lat="54.803158035501838" lon="26.784809036180377">
        <ele>167.88999999999999</ele>
        <time>2011-08-15T18:44:54Z</time>
      </trkpt>
      <trkpt lat="54.803154012188315" lon="26.784805012866855">
        <ele>167.88999999999999</ele>
        <time>2011-08-15T18:45:29Z</time>
      </trkpt>
      <trkpt lat="54.803154012188315" lon="26.784805012866855">
        <ele>169.33000000000001</ele>
        <time>2011-08-15T18:45:32Z</time>
      </trkpt>
      <trkpt lat="54.803154012188315" lon="26.784810964018106">
        <ele>168.37</ele>
        <time>2011-08-15T18:45:57Z</time>
      </trkpt>
      <trkpt lat="54.803154012188315" lon="26.784810964018106">
        <ele>167.88999999999999</ele>
        <time>2011-08-15T18:46:22Z</time>
      </trkpt>
      <trkpt lat="54.803158035501838" lon="26.784807024523616">
        <ele>168.37</ele>
        <time>2011-08-15T18:46:52Z</time>
      </trkpt>
      <trkpt lat="54.803158035501838" lon="26.784805012866855">
        <ele>167.88999999999999</ele>
        <time>2011-08-15T18:47:25Z</time>
      </trkpt>
      <trkpt lat="54.803158035501838" lon="26.784805012866855">
        <ele>169.33000000000001</ele>
        <time>2011-08-15T18:47:30Z</time>
      </trkpt>
      <trkpt lat="54.803158035501838" lon="26.784797972068191">
        <ele>167.88999999999999</ele>
        <time>2011-08-15T18:47:57Z</time>
      </trkpt>
      <trkpt lat="54.803158035501838" lon="26.784797972068191">
        <ele>167.88999999999999</ele>
        <time>2011-08-15T18:48:27Z</time>
      </trkpt>
      <trkpt lat="54.803158035501838" lon="26.784792020916939">
        <ele>167.88999999999999</ele>
        <time>2011-08-15T18:48:49Z</time>
      </trkpt>
      <trkpt lat="54.803158035501838" lon="26.7847940325737">
        <ele>167.88999999999999</ele>
        <time>2011-08-15T18:49:14Z</time>
      </trkpt>
      <trkpt lat="54.803158035501838" lon="26.7847940325737">
        <ele>165.96000000000001</ele>
        <time>2011-08-15T18:49:25Z</time>
      </trkpt>
      <trkpt lat="54.803158035501838" lon="26.7847940325737">
        <ele>167.88999999999999</ele>
        <time>2011-08-15T18:49:29Z</time>
      </trkpt>
      <trkpt lat="54.803158035501838" lon="26.7847940325737">
        <ele>167.88999999999999</ele>
        <time>2011-08-15T18:49:55Z</time>
      </trkpt>
      <trkpt lat="54.803158035501838" lon="26.7847940325737">
        <ele>168.84999999999999</ele>
        <time>2011-08-15T18:50:24Z</time>
      </trkpt>
      <trkpt lat="54.803158035501838" lon="26.784785985946655">
        <ele>167.88999999999999</ele>
        <time>2011-08-15T18:50:43Z</time>
      </trkpt>
      <trkpt lat="54.803169015794992" lon="26.784738963469863">
        <ele>167.88999999999999</ele>
        <time>2011-08-15T18:50:50Z</time>
      </trkpt>
      <trkpt lat="54.803294995799661" lon="26.784359011799097">
        <ele>167.88999999999999</ele>
        <time>2011-08-15T18:51:04Z</time>
      </trkpt>
      <trkpt lat="54.803405972197652" lon="26.783889960497618">
        <ele>167.88999999999999</ele>
        <time>2011-08-15T18:51:19Z</time>
      </trkpt>
      <trkpt lat="54.803519966080785" lon="26.783495005220175">
        <ele>167.88999999999999</ele>
        <time>2011-08-15T18:51:31Z</time>
      </trkpt>
      <trkpt lat="54.803570006042719" lon="26.783343963325024">
        <ele>167.88999999999999</ele>
        <time>2011-08-15T18:51:36Z</time>
      </trkpt>
      <trkpt lat="54.803721969947219" lon="26.782742980867624">
        <ele>167.41</ele>
        <time>2011-08-15T18:51:52Z</time>
      </trkpt>
      <trkpt lat="54.803871000185609" lon="26.78219597786665">
        <ele>167.88999999999999</ele>
        <time>2011-08-15T18:52:06Z</time>
      </trkpt>
      <trkpt lat="54.80395901016891" lon="26.781781995669007">
        <ele>167.88999999999999</ele>
        <time>2011-08-15T18:52:17Z</time>
      </trkpt>
      <trkpt lat="54.804089013487101" lon="26.781247984617949">
        <ele>167.41</ele>
        <time>2011-08-15T18:52:31Z</time>
      </trkpt>
      <trkpt lat="54.804249024018645" lon="26.780766025185585">
        <ele>167.88999999999999</ele>
        <time>2011-08-15T18:52:44Z</time>
      </trkpt>
      <trkpt lat="54.804520010948181" lon="26.78032698109746">
        <ele>166.93000000000001</ele>
        <time>2011-08-15T18:52:59Z</time>
      </trkpt>
      <trkpt lat="54.804752022027969" lon="26.780040990561247">
        <ele>167.41</ele>
        <time>2011-08-15T18:53:10Z</time>
      </trkpt>
      <trkpt lat="54.805003982037306" lon="26.77972599864006">
        <ele>167.41</ele>
        <time>2011-08-15T18:53:21Z</time>
      </trkpt>
      <trkpt lat="54.805304976180196" lon="26.779297012835741">
        <ele>166.93000000000001</ele>
        <time>2011-08-15T18:53:35Z</time>
      </trkpt>
      <trkpt lat="54.805591972544789" lon="26.778933992609382">
        <ele>167.41</ele>
        <time>2011-08-15T18:53:47Z</time>
      </trkpt>
      <trkpt lat="54.805832030251622" lon="26.778615983203053">
        <ele>166.44999999999999</ele>
        <time>2011-08-15T18:53:58Z</time>
      </trkpt>
      <trkpt lat="54.806046020239592" lon="26.778135029599071">
        <ele>166.44999999999999</ele>
        <time>2011-08-15T18:54:12Z</time>
      </trkpt>
      <trkpt lat="54.806254981085658" lon="26.777719035744667">
        <ele>166.44999999999999</ele>
        <time>2011-08-15T18:54:24Z</time>
      </trkpt>
      <trkpt lat="54.806411974132061" lon="26.777347968891263">
        <ele>166.93000000000001</ele>
        <time>2011-08-15T18:54:35Z</time>
      </trkpt>
      <trkpt lat="54.806438041850924" lon="26.777245039120317">
        <ele>166.44999999999999</ele>
        <time>2011-08-15T18:54:39Z</time>
      </trkpt>
      <trkpt lat="54.806465031579137" lon="26.777165997773409">
        <ele>167.41</ele>
        <time>2011-08-15T18:54:52Z</time>
      </trkpt>
      <trkpt lat="54.80647299438715" lon="26.777138002216816">
        <ele>167.41</ele>
        <time>2011-08-15T18:55:06Z</time>
      </trkpt>
      <trkpt lat="54.806483974680305" lon="26.777015961706638">
        <ele>166.93000000000001</ele>
        <time>2011-08-15T18:55:18Z</time>
      </trkpt>
      <trkpt lat="54.806483974680305" lon="26.777015961706638">
        <ele>162.12</ele>
        <time>2011-08-15T18:55:19Z</time>
      </trkpt>
      <trkpt lat="54.806483974680305" lon="26.777015961706638">
        <ele>168.37</ele>
        <time>2011-08-15T18:55:20Z</time>
      </trkpt>
      <trkpt lat="54.806483974680305" lon="26.777015961706638">
        <ele>166.93000000000001</ele>
        <time>2011-08-15T18:55:41Z</time>
      </trkpt>
      <trkpt lat="54.806483974680305" lon="26.777069019153714">
        <ele>166.93000000000001</ele>
        <time>2011-08-15T18:55:54Z</time>
      </trkpt>
      <trkpt lat="54.806503001600504" lon="26.777096008881927">
        <ele>165.96000000000001</ele>
        <time>2011-08-15T18:56:06Z</time>
      </trkpt>
      <trkpt lat="54.806503001600504" lon="26.777078993618488">
        <ele>166.93000000000001</ele>
        <time>2011-08-15T18:56:29Z</time>
      </trkpt>
      <trkpt lat="54.806480035185814" lon="26.777045968919992">
        <ele>166.44999999999999</ele>
        <time>2011-08-15T18:56:45Z</time>
      </trkpt>
      <trkpt lat="54.806480035185814" lon="26.777045968919992">
        <ele>165.96000000000001</ele>
        <time>2011-08-15T18:57:16Z</time>
      </trkpt>
      <trkpt lat="54.806480035185814" lon="26.777045968919992">
        <ele>165.96000000000001</ele>
        <time>2011-08-15T18:57:51Z</time>
      </trkpt>
      <trkpt lat="54.806480035185814" lon="26.777044041082263">
        <ele>165.96000000000001</ele>
        <time>2011-08-15T18:58:21Z</time>
      </trkpt>
      <trkpt lat="54.806477017700672" lon="26.777045968919992">
        <ele>165.96000000000001</ele>
        <time>2011-08-15T18:58:52Z</time>
      </trkpt>
      <trkpt lat="54.806477017700672" lon="26.777045968919992">
        <ele>166.44999999999999</ele>
        <time>2011-08-15T18:59:18Z</time>
      </trkpt>
      <trkpt lat="54.806503001600504" lon="26.777037000283599">
        <ele>166.44999999999999</ele>
        <time>2011-08-15T18:59:30Z</time>
      </trkpt>
      <trkpt lat="54.80662202462554" lon="26.776999030262232">
        <ele>165.96000000000001</ele>
        <time>2011-08-15T18:59:42Z</time>
      </trkpt>
      <trkpt lat="54.806655971333385" lon="26.776939015835524">
        <ele>165.47999999999999</ele>
        <time>2011-08-15T18:59:55Z</time>
      </trkpt>
      <trkpt lat="54.806694025173783" lon="26.776871038600802">
        <ele>165.96000000000001</ele>
        <time>2011-08-15T18:59:59Z</time>
      </trkpt>
      <trkpt lat="54.806933999061584" lon="26.776567026972771">
        <ele>165.47999999999999</ele>
        <time>2011-08-15T19:00:13Z</time>
      </trkpt>
      <trkpt lat="54.807297019287944" lon="26.77680398337543">
        <ele>165.96000000000001</ele>
        <time>2011-08-15T19:00:25Z</time>
      </trkpt>
      <trkpt lat="54.80756800621748" lon="26.777040017768741">
        <ele>165.47999999999999</ele>
        <time>2011-08-15T19:00:36Z</time>
      </trkpt>
      <trkpt lat="54.807701027020812" lon="26.777138002216816">
        <ele>165</ele>
        <time>2011-08-15T19:00:48Z</time>
      </trkpt>
      <trkpt lat="54.807701027020812" lon="26.777138002216816">
        <ele>165.47999999999999</ele>
        <time>2011-08-15T19:00:53Z</time>
      </trkpt>
      <trkpt lat="54.8076740372926" lon="26.777177983894944">
        <ele>165.47999999999999</ele>
        <time>2011-08-15T19:00:56Z</time>
      </trkpt>
      <trkpt lat="54.807659033685923" lon="26.777225006371737">
        <ele>165</ele>
        <time>2011-08-15T19:01:10Z</time>
      </trkpt>
      <trkpt lat="54.807620979845524" lon="26.777229029685259">
        <ele>164.52000000000001</ele>
        <time>2011-08-15T19:01:23Z</time>
      </trkpt>
      <trkpt lat="54.807620979845524" lon="26.777229029685259">
        <ele>165</ele>
        <time>2011-08-15T19:01:45Z</time>
      </trkpt>
      <trkpt lat="54.807625003159046" lon="26.777234980836511">
        <ele>165</ele>
        <time>2011-08-15T19:02:14Z</time>
      </trkpt>
      <trkpt lat="54.807613017037511" lon="26.777271023020148">
        <ele>164.52000000000001</ele>
        <time>2011-08-15T19:02:34Z</time>
      </trkpt>
      <trkpt lat="54.807613017037511" lon="26.777271023020148">
        <ele>164.52000000000001</ele>
        <time>2011-08-15T19:03:11Z</time>
      </trkpt>
      <trkpt lat="54.807613017037511" lon="26.777273034676909">
        <ele>164.03999999999999</ele>
        <time>2011-08-15T19:03:52Z</time>
      </trkpt>
      <trkpt lat="54.807613017037511" lon="26.777269011363387">
        <ele>164.03999999999999</ele>
        <time>2011-08-15T19:04:31Z</time>
      </trkpt>
      <trkpt lat="54.807617040351033" lon="26.777273034676909">
        <ele>164.52000000000001</ele>
        <time>2011-08-15T19:05:11Z</time>
      </trkpt>
      <trkpt lat="54.807617040351033" lon="26.777273034676909">
        <ele>164.03999999999999</ele>
        <time>2011-08-15T19:05:47Z</time>
      </trkpt>
      <trkpt lat="54.807617040351033" lon="26.777271023020148">
        <ele>164.03999999999999</ele>
        <time>2011-08-15T19:06:22Z</time>
      </trkpt>
      <trkpt lat="54.807617040351033" lon="26.777271023020148">
        <ele>164.03999999999999</ele>
        <time>2011-08-15T19:07:01Z</time>
      </trkpt>
      <trkpt lat="54.807613017037511" lon="26.777271023020148">
        <ele>163.56</ele>
        <time>2011-08-15T19:07:39Z</time>
      </trkpt>
      <trkpt lat="54.807617040351033" lon="26.777271023020148">
        <ele>164.03999999999999</ele>
        <time>2011-08-15T19:08:14Z</time>
      </trkpt>
      <trkpt lat="54.807613017037511" lon="26.777271023020148">
        <ele>164.03999999999999</ele>
        <time>2011-08-15T19:08:54Z</time>
      </trkpt>
      <trkpt lat="54.807617040351033" lon="26.777283009141684">
        <ele>163.56</ele>
        <time>2011-08-15T19:09:34Z</time>
      </trkpt>
      <trkpt lat="54.807617040351033" lon="26.7772769741714">
        <ele>164.03999999999999</ele>
        <time>2011-08-15T19:10:10Z</time>
      </trkpt>
      <trkpt lat="54.807620979845524" lon="26.7772769741714">
        <ele>164.03999999999999</ele>
        <time>2011-08-15T19:10:46Z</time>
      </trkpt>
      <trkpt lat="54.807620979845524" lon="26.777274962514639">
        <ele>164.03999999999999</ele>
        <time>2011-08-15T19:11:15Z</time>
      </trkpt>
      <trkpt lat="54.807617040351033" lon="26.777280997484922">
        <ele>164.03999999999999</ele>
        <time>2011-08-15T19:11:50Z</time>
      </trkpt>
      <trkpt lat="54.807617040351033" lon="26.777280997484922">
        <ele>164.03999999999999</ele>
        <time>2011-08-15T19:12:27Z</time>
      </trkpt>
      <trkpt lat="54.807617040351033" lon="26.777289966121316">
        <ele>164.03999999999999</ele>
        <time>2011-08-15T19:13:00Z</time>
      </trkpt>
      <trkpt lat="54.807620979845524" lon="26.777296001091599">
        <ele>164.03999999999999</ele>
        <time>2011-08-15T19:13:31Z</time>
      </trkpt>
      <trkpt lat="54.807620979845524" lon="26.777296001091599">
        <ele>163.56</ele>
        <time>2011-08-15T19:13:59Z</time>
      </trkpt>
      <trkpt lat="54.807617040351033" lon="26.777302036061883">
        <ele>163.56</ele>
        <time>2011-08-15T19:14:33Z</time>
      </trkpt>
      <trkpt lat="54.807617040351033" lon="26.777302036061883">
        <ele>163.56</ele>
        <time>2011-08-15T19:15:02Z</time>
      </trkpt>
      <trkpt lat="54.807613017037511" lon="26.777305975556374">
        <ele>164.03999999999999</ele>
        <time>2011-08-15T19:15:33Z</time>
      </trkpt>
      <trkpt lat="54.807613017037511" lon="26.777307987213135">
        <ele>163.56</ele>
        <time>2011-08-15T19:16:02Z</time>
      </trkpt>
      <trkpt lat="54.807613017037511" lon="26.777315028011799">
        <ele>163.56</ele>
        <time>2011-08-15T19:16:36Z</time>
      </trkpt>
      <trkpt lat="54.807609999552369" lon="26.77731703966856">
        <ele>163.56</ele>
        <time>2011-08-15T19:17:09Z</time>
      </trkpt>
      <trkpt lat="54.807609999552369" lon="26.77731703966856">
        <ele>164.03999999999999</ele>
        <time>2011-08-15T19:17:44Z</time>
      </trkpt>
      <trkpt lat="54.807613017037511" lon="26.777322990819812">
        <ele>164.03999999999999</ele>
        <time>2011-08-15T19:18:12Z</time>
      </trkpt>
      <trkpt lat="54.807609999552369" lon="26.777320979163051">
        <ele>164.03999999999999</ele>
        <time>2011-08-15T19:18:39Z</time>
      </trkpt>
      <trkpt lat="54.807605976238847" lon="26.777327014133334">
        <ele>163.56</ele>
        <time>2011-08-15T19:19:12Z</time>
      </trkpt>
      <trkpt lat="54.807605976238847" lon="26.777330031618476">
        <ele>163.56</ele>
        <time>2011-08-15T19:19:49Z</time>
      </trkpt>
      <trkpt lat="54.807605976238847" lon="26.777333971112967">
        <ele>164.03999999999999</ele>
        <time>2011-08-15T19:20:28Z</time>
      </trkpt>
      <trkpt lat="54.807605976238847" lon="26.777333971112967">
        <ele>164.03999999999999</ele>
        <time>2011-08-15T19:21:04Z</time>
      </trkpt>
      <trkpt lat="54.807609999552369" lon="26.777333971112967">
        <ele>163.56</ele>
        <time>2011-08-15T19:21:40Z</time>
      </trkpt>
      <trkpt lat="54.807605976238847" lon="26.777325002476573">
        <ele>164.03999999999999</ele>
        <time>2011-08-15T19:22:14Z</time>
      </trkpt>
      <trkpt lat="54.807605976238847" lon="26.777328019961715">
        <ele>164.03999999999999</ele>
        <time>2011-08-15T19:22:50Z</time>
      </trkpt>
      <trkpt lat="54.807602036744356" lon="26.777330031618476">
        <ele>164.03999999999999</ele>
        <time>2011-08-15T19:23:26Z</time>
      </trkpt>
      <trkpt lat="54.807602036744356" lon="26.777330031618476">
        <ele>164.52000000000001</ele>
        <time>2011-08-15T19:23:44Z</time>
      </trkpt>
      <trkpt lat="54.807605976238847" lon="26.777325002476573">
        <ele>164.52000000000001</ele>
        <time>2011-08-15T19:24:21Z</time>
      </trkpt>
      <trkpt lat="54.807605976238847" lon="26.777318967506289">
        <ele>163.56</ele>
        <time>2011-08-15T19:24:45Z</time>
      </trkpt>
      <trkpt lat="54.807598013430834" lon="26.777344029396772">
        <ele>161.16</ele>
        <time>2011-08-15T19:24:57Z</time>
      </trkpt>
      <trkpt lat="54.807598013430834" lon="26.777344029396772">
        <ele>165.47999999999999</ele>
        <time>2011-08-15T19:24:58Z</time>
      </trkpt>
      <trkpt lat="54.807620979845524" lon="26.777307987213135">
        <ele>164.03999999999999</ele>
        <time>2011-08-15T19:25:10Z</time>
      </trkpt>
      <trkpt lat="54.807620979845524" lon="26.777307987213135">
        <ele>164.03999999999999</ele>
        <time>2011-08-15T19:25:24Z</time>
      </trkpt>
    </trkseg>
  </trk>

  <trk>
    <name>16-АВГ-11 19:29:40</name>
    <extensions>
      <gpxx:TrackExtension xmlns:gpxx="http://www.garmin.com/xmlschemas/GpxExtensions/v3">
        <gpxx:DisplayColor>Red</gpxx:DisplayColor>
      </gpxx:TrackExtension>
    </extensions>
    <trkseg>
      <trkpt lat="54.807625003159046" lon="26.777291977778077">
        <ele>165</ele>
        <time>2011-08-15T19:25:51Z</time>
      </trkpt>
      <trkpt lat="54.807625003159046" lon="26.777291977778077">
        <ele>161.63999999999999</ele>
        <time>2011-08-15T19:25:57Z</time>
      </trkpt>
      <trkpt lat="54.807625003159046" lon="26.777291977778077">
        <ele>162.59999999999999</ele>
        <time>2011-08-15T19:26:17Z</time>
      </trkpt>
      <trkpt lat="54.807625003159046" lon="26.777291977778077">
        <ele>163.56</ele>
        <time>2011-08-15T19:26:18Z</time>
      </trkpt>
      <trkpt lat="54.807701027020812" lon="26.777121992781758">
        <ele>169.81</ele>
        <time>2011-08-16T05:26:11Z</time>
      </trkpt>
      <trkpt lat="54.807692980393767" lon="26.777128027752042">
        <ele>169.81</ele>
        <time>2011-08-16T05:26:13Z</time>
      </trkpt>
      <trkpt lat="54.807651992887259" lon="26.777144959196448">
        <ele>172.69</ele>
        <time>2011-08-16T05:26:20Z</time>
      </trkpt>
      <trkpt lat="54.807647969573736" lon="26.777150994166732">
        <ele>167.41</ele>
        <time>2011-08-16T05:26:21Z</time>
      </trkpt>
      <trkpt lat="54.807644030079246" lon="26.777157029137015">
        <ele>170.77000000000001</ele>
        <time>2011-08-16T05:26:22Z</time>
      </trkpt>
      <trkpt lat="54.807631960138679" lon="26.777170021086931">
        <ele>166.93000000000001</ele>
        <time>2011-08-16T05:26:26Z</time>
      </trkpt>
      <trkpt lat="54.807631960138679" lon="26.777172032743692">
        <ele>170.28999999999999</ele>
        <time>2011-08-16T05:26:27Z</time>
      </trkpt>
      <trkpt lat="54.807613017037511" lon="26.777229029685259">
        <ele>172.69</ele>
        <time>2011-08-16T06:16:45Z</time>
      </trkpt>
      <trkpt lat="54.807598013430834" lon="26.777337994426489">
        <ele>172.21000000000001</ele>
        <time>2011-08-16T06:16:57Z</time>
      </trkpt>
      <trkpt lat="54.807609999552369" lon="26.777360960841179">
        <ele>169.33000000000001</ele>
        <time>2011-08-16T06:17:09Z</time>
      </trkpt>
      <trkpt lat="54.807609999552369" lon="26.777372024953365">
        <ele>165.96000000000001</ele>
        <time>2011-08-16T06:17:26Z</time>
      </trkpt>
      <trkpt lat="54.807609999552369" lon="26.777372024953365">
        <ele>165.96000000000001</ele>
        <time>2011-08-16T06:17:27Z</time>
      </trkpt>
      <trkpt lat="54.807609999552369" lon="26.777342017740011">
        <ele>165</ele>
        <time>2011-08-16T06:17:33Z</time>
      </trkpt>
      <trkpt lat="54.807613017037511" lon="26.777333971112967">
        <ele>170.28999999999999</ele>
        <time>2011-08-16T06:17:35Z</time>
      </trkpt>
      <trkpt lat="54.807617040351033" lon="26.777328019961715">
        <ele>166.44999999999999</ele>
        <time>2011-08-16T06:17:36Z</time>
      </trkpt>
      <trkpt lat="54.807629026472569" lon="26.777269011363387">
        <ele>165.47999999999999</ele>
        <time>2011-08-16T06:18:05Z</time>
      </trkpt>
      <trkpt lat="54.807625003159046" lon="26.777278985828161">
        <ele>165.96000000000001</ele>
        <time>2011-08-16T06:18:39Z</time>
      </trkpt>
      <trkpt lat="54.807620979845524" lon="26.7772769741714">
        <ele>165.96000000000001</ele>
        <time>2011-08-16T06:19:19Z</time>
      </trkpt>
      <trkpt lat="54.807620979845524" lon="26.7772769741714">
        <ele>166.44999999999999</ele>
        <time>2011-08-16T06:19:41Z</time>
      </trkpt>
      <trkpt lat="54.807620979845524" lon="26.777283009141684">
        <ele>166.44999999999999</ele>
        <time>2011-08-16T06:20:01Z</time>
      </trkpt>
      <trkpt lat="54.807620979845524" lon="26.777283009141684">
        <ele>165.96000000000001</ele>
        <time>2011-08-16T06:20:26Z</time>
      </trkpt>
      <trkpt lat="54.807620979845524" lon="26.777293989434838">
        <ele>165.96000000000001</ele>
        <time>2011-08-16T06:20:54Z</time>
      </trkpt>
      <trkpt lat="54.807620979845524" lon="26.777293989434838">
        <ele>166.44999999999999</ele>
        <time>2011-08-16T06:21:08Z</time>
      </trkpt>
      <trkpt lat="54.807620979845524" lon="26.777296001091599">
        <ele>165.96000000000001</ele>
        <time>2011-08-16T06:21:21Z</time>
      </trkpt>
      <trkpt lat="54.807620979845524" lon="26.777296001091599">
        <ele>166.44999999999999</ele>
        <time>2011-08-16T06:21:29Z</time>
      </trkpt>
      <trkpt lat="54.807620979845524" lon="26.777296001091599">
        <ele>165.96000000000001</ele>
        <time>2011-08-16T06:21:31Z</time>
      </trkpt>
      <trkpt lat="54.807629026472569" lon="26.777289966121316">
        <ele>165.47999999999999</ele>
        <time>2011-08-16T06:21:55Z</time>
      </trkpt>
      <trkpt lat="54.807625003159046" lon="26.777318967506289">
        <ele>165</ele>
        <time>2011-08-16T06:22:09Z</time>
      </trkpt>
      <trkpt lat="54.807620979845524" lon="26.777328019961715">
        <ele>165</ele>
        <time>2011-08-16T06:22:44Z</time>
      </trkpt>
      <trkpt lat="54.807625003159046" lon="26.777331959456205">
        <ele>165</ele>
        <time>2011-08-16T06:23:23Z</time>
      </trkpt>
      <trkpt lat="54.807625003159046" lon="26.777344029396772">
        <ele>164.52000000000001</ele>
        <time>2011-08-16T06:24:04Z</time>
      </trkpt>
      <trkpt lat="54.807625003159046" lon="26.777344029396772">
        <ele>165.47999999999999</ele>
        <time>2011-08-16T06:24:41Z</time>
      </trkpt>
      <trkpt lat="54.807625003159046" lon="26.777344029396772">
        <ele>165</ele>
        <time>2011-08-16T06:25:13Z</time>
      </trkpt>
      <trkpt lat="54.807625003159046" lon="26.777346041053534">
        <ele>165</ele>
        <time>2011-08-16T06:25:52Z</time>
      </trkpt>
      <trkpt lat="54.807625003159046" lon="26.777350986376405">
        <ele>165</ele>
        <time>2011-08-16T06:26:25Z</time>
      </trkpt>
      <trkpt lat="54.807625003159046" lon="26.777364984154701">
        <ele>165</ele>
        <time>2011-08-16T06:26:59Z</time>
      </trkpt>
      <trkpt lat="54.807625003159046" lon="26.77736297249794">
        <ele>165</ele>
        <time>2011-08-16T06:27:31Z</time>
      </trkpt>
      <trkpt lat="54.807625003159046" lon="26.77736297249794">
        <ele>164.52000000000001</ele>
        <time>2011-08-16T06:28:05Z</time>
      </trkpt>
      <trkpt lat="54.807625003159046" lon="26.77736297249794">
        <ele>165</ele>
        <time>2011-08-16T06:28:36Z</time>
      </trkpt>
      <trkpt lat="54.807625003159046" lon="26.77736297249794">
        <ele>164.52000000000001</ele>
        <time>2011-08-16T06:29:17Z</time>
      </trkpt>
      <trkpt lat="54.807625003159046" lon="26.777360960841179">
        <ele>165</ele>
        <time>2011-08-16T06:29:51Z</time>
      </trkpt>
      <trkpt lat="54.807625003159046" lon="26.777355009689927">
        <ele>165</ele>
        <time>2011-08-16T06:29:58Z</time>
      </trkpt>
      <trkpt lat="54.807631960138679" lon="26.77719097584486">
        <ele>165</ele>
        <time>2011-08-16T06:30:10Z</time>
      </trkpt>
      <trkpt lat="54.807620979845524" lon="26.777185024693608">
        <ele>165</ele>
        <time>2011-08-16T06:30:22Z</time>
      </trkpt>
      <trkpt lat="54.807620979845524" lon="26.777185024693608">
        <ele>164.52000000000001</ele>
        <time>2011-08-16T06:31:02Z</time>
      </trkpt>
      <trkpt lat="54.807617040351033" lon="26.777187036350369">
        <ele>164.03999999999999</ele>
        <time>2011-08-16T06:31:37Z</time>
      </trkpt>
      <trkpt lat="54.807617040351033" lon="26.777185024693608">
        <ele>164.52000000000001</ele>
        <time>2011-08-16T06:32:16Z</time>
      </trkpt>
      <trkpt lat="54.807617040351033" lon="26.777185024693608">
        <ele>165</ele>
        <time>2011-08-16T06:33:02Z</time>
      </trkpt>
      <trkpt lat="54.807617040351033" lon="26.777185024693608">
        <ele>165</ele>
        <time>2011-08-16T06:33:43Z</time>
      </trkpt>
      <trkpt lat="54.807617040351033" lon="26.777185024693608">
        <ele>165</ele>
        <time>2011-08-16T06:34:21Z</time>
      </trkpt>
      <trkpt lat="54.807613017037511" lon="26.777179995551705">
        <ele>165</ele>
        <time>2011-08-16T06:35:00Z</time>
      </trkpt>
      <trkpt lat="54.807613017037511" lon="26.777185024693608">
        <ele>164.52000000000001</ele>
        <time>2011-08-16T06:35:40Z</time>
      </trkpt>
      <trkpt lat="54.807613017037511" lon="26.777187036350369">
        <ele>164.52000000000001</ele>
        <time>2011-08-16T06:36:18Z</time>
      </trkpt>
      <trkpt lat="54.807609999552369" lon="26.777199022471905">
        <ele>164.52000000000001</ele>
        <time>2011-08-16T06:36:50Z</time>
      </trkpt>
      <trkpt lat="54.807609999552369" lon="26.777199022471905">
        <ele>164.52000000000001</ele>
        <time>2011-08-16T06:37:20Z</time>
      </trkpt>
      <trkpt lat="54.807613017037511" lon="26.777197010815144">
        <ele>164.52000000000001</ele>
        <time>2011-08-16T06:37:54Z</time>
      </trkpt>
      <trkpt lat="54.807613017037511" lon="26.777201034128666">
        <ele>164.03999999999999</ele>
        <time>2011-08-16T06:38:34Z</time>
      </trkpt>
      <trkpt lat="54.807613017037511" lon="26.777199022471905">
        <ele>164.52000000000001</ele>
        <time>2011-08-16T06:39:13Z</time>
      </trkpt>
      <trkpt lat="54.807613017037511" lon="26.777205979451537">
        <ele>164.52000000000001</ele>
        <time>2011-08-16T06:39:42Z</time>
      </trkpt>
      <trkpt lat="54.807620979845524" lon="26.777184018865228">
        <ele>165</ele>
        <time>2011-08-16T06:39:45Z</time>
      </trkpt>
      <trkpt lat="54.807625003159046" lon="26.777165997773409">
        <ele>168.37</ele>
        <time>2011-08-16T06:39:48Z</time>
      </trkpt>
      <trkpt lat="54.807625003159046" lon="26.777165997773409">
        <ele>164.52000000000001</ele>
        <time>2011-08-16T06:39:49Z</time>
      </trkpt>
      <trkpt lat="54.807629026472569" lon="26.777173960581422">
        <ele>164.52000000000001</ele>
        <time>2011-08-16T06:40:39Z</time>
      </trkpt>
      <trkpt lat="54.807625003159046" lon="26.777172032743692">
        <ele>164.52000000000001</ele>
        <time>2011-08-16T06:41:20Z</time>
      </trkpt>
      <trkpt lat="54.807620979845524" lon="26.777177983894944">
        <ele>165</ele>
        <time>2011-08-16T06:41:36Z</time>
      </trkpt>
      <trkpt lat="54.807620979845524" lon="26.777177983894944">
        <ele>160.68000000000001</ele>
        <time>2011-08-16T06:41:40Z</time>
      </trkpt>
      <trkpt lat="54.807620979845524" lon="26.777177983894944">
        <ele>165.47999999999999</ele>
        <time>2011-08-16T06:41:41Z</time>
      </trkpt>
      <trkpt lat="54.807625003159046" lon="26.777179995551705">
        <ele>164.52000000000001</ele>
        <time>2011-08-16T06:42:02Z</time>
      </trkpt>
      <trkpt lat="54.807662973180413" lon="26.777187036350369">
        <ele>164.52000000000001</ele>
        <time>2011-08-16T06:42:05Z</time>
      </trkpt>
      <trkpt lat="54.807692980393767" lon="26.777121992781758">
        <ele>165</ele>
        <time>2011-08-16T06:42:14Z</time>
      </trkpt>
      <trkpt lat="54.807583009824157" lon="26.777069019153714">
        <ele>165</ele>
        <time>2011-08-16T06:42:22Z</time>
      </trkpt>
      <trkpt lat="54.807307999581099" lon="26.776857040822506">
        <ele>165</ele>
        <time>2011-08-16T06:42:34Z</time>
      </trkpt>
      <trkpt lat="54.807029971852899" lon="26.77660902030766">
        <ele>165.47999999999999</ele>
        <time>2011-08-16T06:42:46Z</time>
      </trkpt>
      <trkpt lat="54.806705005466938" lon="26.776540959253907">
        <ele>165.47999999999999</ele>
        <time>2011-08-16T06:42:58Z</time>
      </trkpt>
      <trkpt lat="54.806556981056929" lon="26.776444986462593">
        <ele>156.83000000000001</ele>
        <time>2011-08-16T06:43:10Z</time>
      </trkpt>
      <trkpt lat="54.806556981056929" lon="26.776444986462593">
        <ele>174.13999999999999</ele>
        <time>2011-08-16T06:43:11Z</time>
      </trkpt>
      <trkpt lat="54.806556981056929" lon="26.776444986462593">
        <ele>166.93000000000001</ele>
        <time>2011-08-16T06:43:12Z</time>
      </trkpt>
      <trkpt lat="54.806538037955761" lon="26.776427971199155">
        <ele>165.96000000000001</ele>
        <time>2011-08-16T06:43:14Z</time>
      </trkpt>
      <trkpt lat="54.806263027712703" lon="26.776218004524708">
        <ele>165.96000000000001</ele>
        <time>2011-08-16T06:43:27Z</time>
      </trkpt>
      <trkpt lat="54.806067980825901" lon="26.775842998176813">
        <ele>167.41</ele>
        <time>2011-08-16T06:43:39Z</time>
      </trkpt>
      <trkpt lat="54.805988017469645" lon="26.77547100931406">
        <ele>167.88999999999999</ele>
        <time>2011-08-16T06:43:51Z</time>
      </trkpt>
      <trkpt lat="54.805793976411223" lon="26.774973040446639">
        <ele>167.88999999999999</ele>
        <time>2011-08-16T06:44:05Z</time>
      </trkpt>
      <trkpt lat="54.805705966427922" lon="26.77439896389842">
        <ele>169.33000000000001</ele>
        <time>2011-08-16T06:44:18Z</time>
      </trkpt>
      <trkpt lat="54.805470015853643" lon="26.77392203360796">
        <ele>170.28999999999999</ele>
        <time>2011-08-16T06:44:31Z</time>
      </trkpt>
      <trkpt lat="54.805293995887041" lon="26.773327002301812">
        <ele>171.72999999999999</ele>
        <time>2011-08-16T06:44:46Z</time>
      </trkpt>
      <trkpt lat="54.805012028664351" lon="26.772953001782298">
        <ele>172.69</ele>
        <time>2011-08-16T06:44:59Z</time>
      </trkpt>
      <trkpt lat="54.804759984835982" lon="26.772598028182983">
        <ele>174.13999999999999</ele>
        <time>2011-08-16T06:45:13Z</time>
      </trkpt>
      <trkpt lat="54.804542977362871" lon="26.772212963551283">
        <ele>173.66</ele>
        <time>2011-08-16T06:45:24Z</time>
      </trkpt>
      <trkpt lat="54.804629981517792" lon="26.771409977227449">
        <ele>172.69</ele>
        <time>2011-08-16T06:45:38Z</time>
      </trkpt>
      <trkpt lat="54.804554041475058" lon="26.770451003685594">
        <ele>172.69</ele>
        <time>2011-08-16T06:45:52Z</time>
      </trkpt>
      <trkpt lat="54.804482040926814" lon="26.769944988191128">
        <ele>172.69</ele>
        <time>2011-08-16T06:45:59Z</time>
      </trkpt>
      <trkpt lat="54.804317001253366" lon="26.768908984959126">
        <ele>172.21000000000001</ele>
        <time>2011-08-16T06:46:15Z</time>
      </trkpt>
      <trkpt lat="54.804249024018645" lon="26.768656019121408">
        <ele>172.21000000000001</ele>
        <time>2011-08-16T06:46:19Z</time>
      </trkpt>
      <trkpt lat="54.804229997098446" lon="26.768592987209558">
        <ele>172.21000000000001</ele>
        <time>2011-08-16T06:46:20Z</time>
      </trkpt>
      <trkpt lat="54.804210970178246" lon="26.768528027459979">
        <ele>172.21000000000001</ele>
        <time>2011-08-16T06:46:21Z</time>
      </trkpt>
      <trkpt lat="54.803985999897122" lon="26.76758598536253">
        <ele>172.69</ele>
        <time>2011-08-16T06:46:37Z</time>
      </trkpt>
      <trkpt lat="54.803824983537197" lon="26.766655007377267">
        <ele>172.69</ele>
        <time>2011-08-16T06:46:53Z</time>
      </trkpt>
      <trkpt lat="54.803688023239374" lon="26.765702990815043">
        <ele>173.66</ele>
        <time>2011-08-16T06:47:09Z</time>
      </trkpt>
      <trkpt lat="54.803622979670763" lon="26.765120029449463">
        <ele>174.13999999999999</ele>
        <time>2011-08-16T06:47:19Z</time>
      </trkpt>
      <trkpt lat="54.803504962474108" lon="26.764324000105262">
        <ele>175.09999999999999</ele>
        <time>2011-08-16T06:47:32Z</time>
      </trkpt>
      <trkpt lat="54.803402032703161" lon="26.763578010722995">
        <ele>176.53999999999999</ele>
        <time>2011-08-16T06:47:46Z</time>
      </trkpt>
      <trkpt lat="54.803288038820028" lon="26.762920031324029">
        <ele>177.5</ele>
        <time>2011-08-16T06:47:58Z</time>
      </trkpt>
      <trkpt lat="54.80318795889616" lon="26.762309996411204">
        <ele>180.87</ele>
        <time>2011-08-16T06:48:09Z</time>
      </trkpt>
      <trkpt lat="54.803299019113183" lon="26.761810015887022">
        <ele>180.87</ele>
        <time>2011-08-16T06:48:20Z</time>
      </trkpt>
      <trkpt lat="54.803878962993622" lon="26.760684996843338">
        <ele>178.94</ele>
        <time>2011-08-16T06:48:39Z</time>
      </trkpt>
      <trkpt lat="54.803974013775587" lon="26.760477041825652">
        <ele>178.46000000000001</ele>
        <time>2011-08-16T06:48:42Z</time>
      </trkpt>
      <trkpt lat="54.803985999897122" lon="26.759816966950893">
        <ele>178.46000000000001</ele>
        <time>2011-08-16T06:48:51Z</time>
      </trkpt>
      <trkpt lat="54.803745020180941" lon="26.75912101753056">
        <ele>180.38</ele>
        <time>2011-08-16T06:49:06Z</time>
      </trkpt>
      <trkpt lat="54.803504962474108" lon="26.758437976241112">
        <ele>182.31</ele>
        <time>2011-08-16T06:49:21Z</time>
      </trkpt>
      <trkpt lat="54.803268006071448" lon="26.757773961871862">
        <ele>184.71000000000001</ele>
        <time>2011-08-16T06:49:35Z</time>
      </trkpt>
      <trkpt lat="54.802998024970293" lon="26.757043981924653">
        <ele>186.63</ele>
        <time>2011-08-16T06:49:51Z</time>
      </trkpt>
      <trkpt lat="54.802670041099191" lon="26.756110992282629">
        <ele>188.56</ele>
        <time>2011-08-16T06:50:10Z</time>
      </trkpt>
      <trkpt lat="54.8024139739573" lon="26.755386041477323">
        <ele>190.96000000000001</ele>
        <time>2011-08-16T06:50:25Z</time>
      </trkpt>
      <trkpt lat="54.802193026989698" lon="26.754744993522763">
        <ele>191.91999999999999</ele>
        <time>2011-08-16T06:50:39Z</time>
      </trkpt>
      <trkpt lat="54.801979037001729" lon="26.754120038822293">
        <ele>193.36000000000001</ele>
        <time>2011-08-16T06:50:53Z</time>
      </trkpt>
      <trkpt lat="54.80178801342845" lon="26.753634978085756">
        <ele>194.31999999999999</ele>
        <time>2011-08-16T06:51:04Z</time>
      </trkpt>
      <trkpt lat="54.801544016227126" lon="26.752920001745224">
        <ele>196.25</ele>
        <time>2011-08-16T06:51:18Z</time>
      </trkpt>
      <trkpt lat="54.801223995164037" lon="26.751961028203368">
        <ele>196.72999999999999</ele>
        <time>2011-08-16T06:51:36Z</time>
      </trkpt>
      <trkpt lat="54.800781011581421" lon="26.750652026385069">
        <ele>196.72999999999999</ele>
        <time>2011-08-16T06:51:56Z</time>
      </trkpt>
      <trkpt lat="54.800284970551729" lon="26.749197011813521">
        <ele>196.25</ele>
        <time>2011-08-16T06:52:15Z</time>
      </trkpt>
      <trkpt lat="54.79972799308598" lon="26.747601013630629">
        <ele>195.77000000000001</ele>
        <time>2011-08-16T06:52:35Z</time>
      </trkpt>
      <trkpt lat="54.79925500229001" lon="26.746210036799312">
        <ele>194.80000000000001</ele>
        <time>2011-08-16T06:52:54Z</time>
      </trkpt>
      <trkpt lat="54.798859041184187" lon="26.745051993057132">
        <ele>194.80000000000001</ele>
        <time>2011-08-16T06:53:11Z</time>
      </trkpt>
      <trkpt lat="54.798343973234296" lon="26.743559008464217">
        <ele>195.28</ele>
        <time>2011-08-16T06:53:32Z</time>
      </trkpt>
      <trkpt lat="54.798252023756504" lon="26.743297995999455">
        <ele>194.80000000000001</ele>
        <time>2011-08-16T06:53:36Z</time>
      </trkpt>
      <trkpt lat="54.797817002981901" lon="26.74204096198082">
        <ele>195.77000000000001</ele>
        <time>2011-08-16T06:53:55Z</time>
      </trkpt>
      <trkpt lat="54.797462029382586" lon="26.740952990949154">
        <ele>197.21000000000001</ele>
        <time>2011-08-16T06:54:11Z</time>
      </trkpt>
      <trkpt lat="54.797016028314829" lon="26.739492025226355">
        <ele>196.25</ele>
        <time>2011-08-16T06:54:31Z</time>
      </trkpt>
      <trkpt lat="54.796615960076451" lon="26.737775998190045">
        <ele>195.77000000000001</ele>
        <time>2011-08-16T06:54:53Z</time>
      </trkpt>
      <trkpt lat="54.796371040865779" lon="26.73626096919179">
        <ele>194.80000000000001</ele>
        <time>2011-08-16T06:55:12Z</time>
      </trkpt>
      <trkpt lat="54.796211030334234" lon="26.734826993197203">
        <ele>195.28</ele>
        <time>2011-08-16T06:55:30Z</time>
      </trkpt>
      <trkpt lat="54.796161996200681" lon="26.733309030532837">
        <ele>195.77000000000001</ele>
        <time>2011-08-16T06:55:49Z</time>
      </trkpt>
      <trkpt lat="54.796150010079145" lon="26.731807999312878">
        <ele>195.77000000000001</ele>
        <time>2011-08-16T06:56:09Z</time>
      </trkpt>
      <trkpt lat="54.796169036999345" lon="26.730479970574379">
        <ele>194.80000000000001</ele>
        <time>2011-08-16T06:56:26Z</time>
      </trkpt>
      <trkpt lat="54.796169036999345" lon="26.729360986500978">
        <ele>193.36000000000001</ele>
        <time>2011-08-16T06:56:39Z</time>
      </trkpt>
      <trkpt lat="54.796150010079145" lon="26.729102991521358">
        <ele>193.36000000000001</ele>
        <time>2011-08-16T06:56:42Z</time>
      </trkpt>
      <trkpt lat="54.795952029526234" lon="26.72878498211503">
        <ele>192.88</ele>
        <time>2011-08-16T06:56:48Z</time>
      </trkpt>
      <trkpt lat="54.795853039249778" lon="26.728785987943411">
        <ele>192.40000000000001</ele>
        <time>2011-08-16T06:56:50Z</time>
      </trkpt>
      <trkpt lat="54.795704009011388" lon="26.728760004043579">
        <ele>191.44</ele>
        <time>2011-08-16T06:56:53Z</time>
      </trkpt>
      <trkpt lat="54.79538700543344" lon="26.728191040456295">
        <ele>190</ele>
        <time>2011-08-16T06:57:02Z</time>
      </trkpt>
      <trkpt lat="54.795207967981696" lon="26.72689201310277">
        <ele>187.59</ele>
        <time>2011-08-16T06:57:15Z</time>
      </trkpt>
      <trkpt lat="54.79510897770524" lon="26.726251970976591">
        <ele>183.75</ele>
        <time>2011-08-16T06:57:23Z</time>
      </trkpt>
      <trkpt lat="54.795096991583705" lon="26.726165972650051">
        <ele>187.11000000000001</ele>
        <time>2011-08-16T06:57:24Z</time>
      </trkpt>
      <trkpt lat="54.795044017955661" lon="26.725740004330873">
        <ele>178.46000000000001</ele>
        <time>2011-08-16T06:57:32Z</time>
      </trkpt>
      <trkpt lat="54.795044017955661" lon="26.725740004330873">
        <ele>187.59</ele>
        <time>2011-08-16T06:57:33Z</time>
      </trkpt>
      <trkpt lat="54.795044017955661" lon="26.725740004330873">
        <ele>183.27000000000001</ele>
        <time>2011-08-16T06:57:35Z</time>
      </trkpt>
      <trkpt lat="54.795044017955661" lon="26.725740004330873">
        <ele>186.63</ele>
        <time>2011-08-16T06:57:38Z</time>
      </trkpt>
      <trkpt lat="54.795044017955661" lon="26.725740004330873">
        <ele>187.11000000000001</ele>
        <time>2011-08-16T06:57:39Z</time>
      </trkpt>
      <trkpt lat="54.795044017955661" lon="26.725740004330873">
        <ele>185.66999999999999</ele>
        <time>2011-08-16T06:57:43Z</time>
      </trkpt>
      <trkpt lat="54.794998001307249" lon="26.725404979661107">
        <ele>184.71000000000001</ele>
        <time>2011-08-16T06:57:55Z</time>
      </trkpt>
      <trkpt lat="54.79491401463747" lon="26.724733002483845">
        <ele>184.22999999999999</ele>
        <time>2011-08-16T06:58:06Z</time>
      </trkpt>
      <trkpt lat="54.794846037402749" lon="26.724220030009747">
        <ele>184.22999999999999</ele>
        <time>2011-08-16T06:58:15Z</time>
      </trkpt>
      <trkpt lat="54.794815024361014" lon="26.724089020863175">
        <ele>183.75</ele>
        <time>2011-08-16T06:58:17Z</time>
      </trkpt>
      <trkpt lat="54.794712010771036" lon="26.723576970398426">
        <ele>183.27000000000001</ele>
        <time>2011-08-16T06:58:24Z</time>
      </trkpt>
      <trkpt lat="54.794437000527978" lon="26.722642974928021">
        <ele>183.27000000000001</ele>
        <time>2011-08-16T06:58:38Z</time>
      </trkpt>
      <trkpt lat="54.794209012761712" lon="26.721443021669984">
        <ele>182.31</ele>
        <time>2011-08-16T06:58:54Z</time>
      </trkpt>
      <trkpt lat="54.794037016108632" lon="26.720386985689402">
        <ele>182.78999999999999</ele>
        <time>2011-08-16T06:59:08Z</time>
      </trkpt>
      <trkpt lat="54.793929979205132" lon="26.719255009666085">
        <ele>182.31</ele>
        <time>2011-08-16T06:59:23Z</time>
      </trkpt>
      <trkpt lat="54.793857978656888" lon="26.718718986958265">
        <ele>182.31</ele>
        <time>2011-08-16T06:59:34Z</time>
      </trkpt>
      <trkpt lat="54.793845992535353" lon="26.718323025852442">
        <ele>181.83000000000001</ele>
        <time>2011-08-16T06:59:41Z</time>
      </trkpt>
      <trkpt lat="54.793727975338697" lon="26.717406967654824">
        <ele>180.87</ele>
        <time>2011-08-16T06:59:54Z</time>
      </trkpt>
      <trkpt lat="54.793654968962073" lon="26.716713029891253">
        <ele>180.38</ele>
        <time>2011-08-16T07:00:03Z</time>
      </trkpt>
      <trkpt lat="54.793643988668919" lon="26.71664597466588">
        <ele>179.90000000000001</ele>
        <time>2011-08-16T07:00:04Z</time>
      </trkpt>
      <trkpt lat="54.793636025860906" lon="26.71657900325954">
        <ele>180.38</ele>
        <time>2011-08-16T07:00:05Z</time>
      </trkpt>
      <trkpt lat="54.793628985062242" lon="26.716507002711296">
        <ele>180.38</ele>
        <time>2011-08-16T07:00:06Z</time>
      </trkpt>
      <trkpt lat="54.793628985062242" lon="26.716433996334672">
        <ele>179.90000000000001</ele>
        <time>2011-08-16T07:00:07Z</time>
      </trkpt>
      <trkpt lat="54.793621022254229" lon="26.71636400744319">
        <ele>179.41999999999999</ele>
        <time>2011-08-16T07:00:08Z</time>
      </trkpt>
      <trkpt lat="54.793616998940706" lon="26.716289995238185">
        <ele>178.94</ele>
        <time>2011-08-16T07:00:09Z</time>
      </trkpt>
      <trkpt lat="54.793616998940706" lon="26.716209026053548">
        <ele>179.41999999999999</ele>
        <time>2011-08-16T07:00:10Z</time>
      </trkpt>
      <trkpt lat="54.793609958142042" lon="26.715751960873604">
        <ele>178.46000000000001</ele>
        <time>2011-08-16T07:00:15Z</time>
      </trkpt>
      <trkpt lat="54.793594032526016" lon="26.715451972559094">
        <ele>177.02000000000001</ele>
        <time>2011-08-16T07:00:18Z</time>
      </trkpt>
      <trkpt lat="54.793594032526016" lon="26.714763985946774">
        <ele>175.58000000000001</ele>
        <time>2011-08-16T07:00:25Z</time>
      </trkpt>
      <trkpt lat="54.793609958142042" lon="26.714679999276996">
        <ele>175.58000000000001</ele>
        <time>2011-08-16T07:00:26Z</time>
      </trkpt>
      <trkpt lat="54.793633008375764" lon="26.714598024263978">
        <ele>175.09999999999999</ele>
        <time>2011-08-16T07:00:27Z</time>
      </trkpt>
      <trkpt lat="54.793652035295963" lon="26.714515965431929">
        <ele>175.09999999999999</ele>
        <time>2011-08-16T07:00:28Z</time>
      </trkpt>
      <trkpt lat="54.79366703890264" lon="26.714428039267659">
        <ele>175.09999999999999</ele>
        <time>2011-08-16T07:00:29Z</time>
      </trkpt>
      <trkpt lat="54.793678019195795" lon="26.714338017627597">
        <ele>174.62</ele>
        <time>2011-08-16T07:00:30Z</time>
      </trkpt>
      <trkpt lat="54.79369000531733" lon="26.714249001815915">
        <ele>175.09999999999999</ele>
        <time>2011-08-16T07:00:31Z</time>
      </trkpt>
      <trkpt lat="54.793766029179096" lon="26.713624969124794">
        <ele>174.13999999999999</ele>
        <time>2011-08-16T07:00:38Z</time>
      </trkpt>
      <trkpt lat="54.793953029438853" lon="26.712069036439061">
        <ele>174.62</ele>
        <time>2011-08-16T07:00:57Z</time>
      </trkpt>
      <trkpt lat="54.793964009732008" lon="26.711827972903848">
        <ele>175.09999999999999</ele>
        <time>2011-08-16T07:01:00Z</time>
      </trkpt>
      <trkpt lat="54.794074986129999" lon="26.710315961390734">
        <ele>177.5</ele>
        <time>2011-08-16T07:01:21Z</time>
      </trkpt>
      <trkpt lat="54.794197026640177" lon="26.709116008132696">
        <ele>179.41999999999999</ele>
        <time>2011-08-16T07:01:39Z</time>
      </trkpt>
      <trkpt lat="54.79429199360311" lon="26.707966011017561">
        <ele>181.83000000000001</ele>
        <time>2011-08-16T07:01:57Z</time>
      </trkpt>
      <trkpt lat="54.794402970001101" lon="26.706769997254014">
        <ele>183.27000000000001</ele>
        <time>2011-08-16T07:02:17Z</time>
      </trkpt>
      <trkpt lat="54.794468013569713" lon="26.70598603785038">
        <ele>183.75</ele>
        <time>2011-08-16T07:02:31Z</time>
      </trkpt>
      <trkpt lat="54.794529033824801" lon="26.705014994367957">
        <ele>185.19</ele>
        <time>2011-08-16T07:02:47Z</time>
      </trkpt>
      <trkpt lat="54.794540014117956" lon="26.704810978844762">
        <ele>184.71000000000001</ele>
        <time>2011-08-16T07:02:50Z</time>
      </trkpt>
      <trkpt lat="54.794536996632814" lon="26.704738978296518">
        <ele>184.71000000000001</ele>
        <time>2011-08-16T07:02:51Z</time>
      </trkpt>
      <trkpt lat="54.794411016628146" lon="26.703513963147998">
        <ele>182.31</ele>
        <time>2011-08-16T07:03:06Z</time>
      </trkpt>
      <trkpt lat="54.794215969741344" lon="26.702414005994797">
        <ele>179.90000000000001</ele>
        <time>2011-08-16T07:03:18Z</time>
      </trkpt>
      <trkpt lat="54.794079009443521" lon="26.701696012169123">
        <ele>178.46000000000001</ele>
        <time>2011-08-16T07:03:26Z</time>
      </trkpt>
      <trkpt lat="54.793857978656888" lon="26.700709965080023">
        <ele>177.97999999999999</ele>
        <time>2011-08-16T07:03:38Z</time>
      </trkpt>
      <trkpt lat="54.793811962008476" lon="26.70046797953546">
        <ele>177.97999999999999</ele>
        <time>2011-08-16T07:03:41Z</time>
      </trkpt>
      <trkpt lat="54.793803999200463" lon="26.700386004522443">
        <ele>177.97999999999999</ele>
        <time>2011-08-16T07:03:42Z</time>
      </trkpt>
      <trkpt lat="54.793788995593786" lon="26.700304029509425">
        <ele>177.97999999999999</ele>
        <time>2011-08-16T07:03:43Z</time>
      </trkpt>
      <trkpt lat="54.793773991987109" lon="26.700228005647659">
        <ele>177.97999999999999</ele>
        <time>2011-08-16T07:03:44Z</time>
      </trkpt>
      <trkpt lat="54.793757982552052" lon="26.700152987614274">
        <ele>177.97999999999999</ele>
        <time>2011-08-16T07:03:45Z</time>
      </trkpt>
      <trkpt lat="54.793739039450884" lon="26.700076963752508">
        <ele>177.5</ele>
        <time>2011-08-16T07:03:46Z</time>
      </trkpt>
      <trkpt lat="54.793720012530684" lon="26.700001023709774">
        <ele>177.97999999999999</ele>
        <time>2011-08-16T07:03:47Z</time>
      </trkpt>
      <trkpt lat="54.793639965355396" lon="26.699677985161543">
        <ele>177.97999999999999</ele>
        <time>2011-08-16T07:03:51Z</time>
      </trkpt>
      <trkpt lat="54.793426981195807" lon="26.698689004406333">
        <ele>179.41999999999999</ele>
        <time>2011-08-16T07:04:05Z</time>
      </trkpt>
      <trkpt lat="54.79328197427094" lon="26.697877971455455">
        <ele>179.90000000000001</ele>
        <time>2011-08-16T07:04:17Z</time>
      </trkpt>
      <trkpt lat="54.793250961229205" lon="26.697679990902543">
        <ele>179.90000000000001</ele>
        <time>2011-08-16T07:04:20Z</time>
      </trkpt>
      <trkpt lat="54.793227994814515" lon="26.697472035884857">
        <ele>180.38</ele>
        <time>2011-08-16T07:04:23Z</time>
      </trkpt>
      <trkpt lat="54.793003024533391" lon="26.696316003799438">
        <ele>182.31</ele>
        <time>2011-08-16T07:04:41Z</time>
      </trkpt>
      <trkpt lat="54.792849970981479" lon="26.695231972262263">
        <ele>183.75</ele>
        <time>2011-08-16T07:04:58Z</time>
      </trkpt>
      <trkpt lat="54.79276699014008" lon="26.693975022062659">
        <ele>185.19</ele>
        <time>2011-08-16T07:05:17Z</time>
      </trkpt>
      <trkpt lat="54.792678980156779" lon="26.692692004144192">
        <ele>184.22999999999999</ele>
        <time>2011-08-16T07:05:35Z</time>
      </trkpt>
      <trkpt lat="54.792583007365465" lon="26.691259033977985">
        <ele>180.87</ele>
        <time>2011-08-16T07:05:53Z</time>
      </trkpt>
      <trkpt lat="54.792491979897022" lon="26.68998003937304">
        <ele>179.90000000000001</ele>
        <time>2011-08-16T07:06:08Z</time>
      </trkpt>
      <trkpt lat="54.792403969913721" lon="26.688786037266254">
        <ele>181.83000000000001</ele>
        <time>2011-08-16T07:06:24Z</time>
      </trkpt>
      <trkpt lat="54.792397012934089" lon="26.68871303088963">
        <ele>181.83000000000001</ele>
        <time>2011-08-16T07:06:25Z</time>
      </trkpt>
      <trkpt lat="54.792392989620566" lon="26.688641030341387">
        <ele>182.31</ele>
        <time>2011-08-16T07:06:26Z</time>
      </trkpt>
      <trkpt lat="54.792388966307044" lon="26.688570035621524">
        <ele>182.78999999999999</ele>
        <time>2011-08-16T07:06:27Z</time>
      </trkpt>
      <trkpt lat="54.792385026812553" lon="26.688496023416519">
        <ele>182.78999999999999</ele>
        <time>2011-08-16T07:06:28Z</time>
      </trkpt>
      <trkpt lat="54.792277989909053" lon="26.687165983021259">
        <ele>182.31</ele>
        <time>2011-08-16T07:06:46Z</time>
      </trkpt>
      <trkpt lat="54.792216969653964" lon="26.686066025868058">
        <ele>181.34999999999999</ele>
        <time>2011-08-16T07:07:01Z</time>
      </trkpt>
      <trkpt lat="54.792194003239274" lon="26.685565961524844">
        <ele>180.87</ele>
        <time>2011-08-16T07:07:08Z</time>
      </trkpt>
      <trkpt lat="54.792178999632597" lon="26.685417015105486">
        <ele>180.87</ele>
        <time>2011-08-16T07:07:10Z</time>
      </trkpt>
      <trkpt lat="54.792168019339442" lon="26.685338979586959">
        <ele>180.87</ele>
        <time>2011-08-16T07:07:11Z</time>
      </trkpt>
      <trkpt lat="54.79216399602592" lon="26.68510596267879">
        <ele>180.87</ele>
        <time>2011-08-16T07:07:14Z</time>
      </trkpt>
      <trkpt lat="54.79216399602592" lon="26.685028010979295">
        <ele>180.87</ele>
        <time>2011-08-16T07:07:15Z</time>
      </trkpt>
      <trkpt lat="54.792171036824584" lon="26.68495399877429">
        <ele>180.87</ele>
        <time>2011-08-16T07:07:16Z</time>
      </trkpt>
      <trkpt lat="54.792174976319075" lon="26.684876969084144">
        <ele>180.87</ele>
        <time>2011-08-16T07:07:17Z</time>
      </trkpt>
      <trkpt lat="54.792178999632597" lon="26.6848049685359">
        <ele>180.38</ele>
        <time>2011-08-16T07:07:18Z</time>
      </trkpt>
      <trkpt lat="54.792171036824584" lon="26.683989996090531">
        <ele>180.38</ele>
        <time>2011-08-16T07:07:30Z</time>
      </trkpt>
      <trkpt lat="54.79214102961123" lon="26.683775000274181">
        <ele>180.38</ele>
        <time>2011-08-16T07:07:33Z</time>
      </trkpt>
      <trkpt lat="54.792114039883018" lon="26.683724960312247">
        <ele>180.38</ele>
        <time>2011-08-16T07:07:34Z</time>
      </trkpt>
      <trkpt lat="54.792080009356141" lon="26.68368699029088">
        <ele>180.38</ele>
        <time>2011-08-16T07:07:35Z</time>
      </trkpt>
      <trkpt lat="54.792042039334774" lon="26.683666035532951">
        <ele>180.38</ele>
        <time>2011-08-16T07:07:36Z</time>
      </trkpt>
      <trkpt lat="54.791297977790236" lon="26.683420026674867">
        <ele>179.41999999999999</ele>
        <time>2011-08-16T07:07:53Z</time>
      </trkpt>
      <trkpt lat="54.790962031111121" lon="26.683351965621114">
        <ele>178.46000000000001</ele>
        <time>2011-08-16T07:08:05Z</time>
      </trkpt>
      <trkpt lat="54.790920037776232" lon="26.683371998369694">
        <ele>178.46000000000001</ele>
        <time>2011-08-16T07:08:11Z</time>
      </trkpt>
      <trkpt lat="54.790839990600944" lon="26.683328999206424">
        <ele>178.46000000000001</ele>
        <time>2011-08-16T07:08:23Z</time>
      </trkpt>
      <trkpt lat="54.790600016713142" lon="26.683221962302923">
        <ele>179.41999999999999</ele>
        <time>2011-08-16T07:08:32Z</time>
      </trkpt>
      <trkpt lat="54.790455009788275" lon="26.683183992281556">
        <ele>178.94</ele>
        <time>2011-08-16T07:08:36Z</time>
      </trkpt>
      <trkpt lat="54.790221992880106" lon="26.683082990348339">
        <ele>178.46000000000001</ele>
        <time>2011-08-16T07:08:42Z</time>
      </trkpt>
      <trkpt lat="54.790024012327194" lon="26.683073015883565">
        <ele>178.46000000000001</ele>
        <time>2011-08-16T07:08:47Z</time>
      </trkpt>
      <trkpt lat="54.789188001304865" lon="26.68278300203383">
        <ele>177.02000000000001</ele>
        <time>2011-08-16T07:09:05Z</time>
      </trkpt>
      <trkpt lat="54.788505965843797" lon="26.682620979845524">
        <ele>173.66</ele>
        <time>2011-08-16T07:09:16Z</time>
      </trkpt>
      <trkpt lat="54.788360958918929" lon="26.682570017874241">
        <ele>173.16999999999999</ele>
        <time>2011-08-16T07:09:18Z</time>
      </trkpt>
      <trkpt lat="54.787407014518976" lon="26.682266006246209">
        <ele>170.28999999999999</ele>
        <time>2011-08-16T07:09:32Z</time>
      </trkpt>
      <trkpt lat="54.786949027329683" lon="26.682125022634864">
        <ele>169.33000000000001</ele>
        <time>2011-08-16T07:09:40Z</time>
      </trkpt>
      <trkpt lat="54.786735959351063" lon="26.682073976844549">
        <ele>169.33000000000001</ele>
        <time>2011-08-16T07:09:44Z</time>
      </trkpt>
      <trkpt lat="54.786057025194168" lon="26.681866021826863">
        <ele>168.37</ele>
        <time>2011-08-16T07:09:57Z</time>
      </trkpt>
      <trkpt lat="54.785502981394529" lon="26.681648008525372">
        <ele>169.33000000000001</ele>
        <time>2011-08-16T07:10:09Z</time>
      </trkpt>
      <trkpt lat="54.785186983644962" lon="26.68145396746695">
        <ele>168.84999999999999</ele>
        <time>2011-08-16T07:10:16Z</time>
      </trkpt>
      <trkpt lat="54.784920020028949" lon="26.681207958608866">
        <ele>168.37</ele>
        <time>2011-08-16T07:10:22Z</time>
      </trkpt>
      <trkpt lat="54.784794040024281" lon="26.68110997416079">
        <ele>168.84999999999999</ele>
        <time>2011-08-16T07:10:25Z</time>
      </trkpt>
      <trkpt lat="54.784507965669036" lon="26.680870000272989">
        <ele>168.37</ele>
        <time>2011-08-16T07:10:32Z</time>
      </trkpt>
      <trkpt lat="54.783939002081752" lon="26.680401032790542">
        <ele>167.88999999999999</ele>
        <time>2011-08-16T07:10:45Z</time>
      </trkpt>
      <trkpt lat="54.78333299048245" lon="26.679931981489062">
        <ele>167.88999999999999</ele>
        <time>2011-08-16T07:10:59Z</time>
      </trkpt>
      <trkpt lat="54.782767966389656" lon="26.679461002349854">
        <ele>167.88999999999999</ele>
        <time>2011-08-16T07:11:12Z</time>
      </trkpt>
      <trkpt lat="54.782695965841413" lon="26.679375004023314">
        <ele>167.41</ele>
        <time>2011-08-16T07:11:14Z</time>
      </trkpt>
      <trkpt lat="54.78187202475965" lon="26.678713001310825">
        <ele>167.88999999999999</ele>
        <time>2011-08-16T07:11:35Z</time>
      </trkpt>
      <trkpt lat="54.781245980411768" lon="26.678173039108515">
        <ele>166.93000000000001</ele>
        <time>2011-08-16T07:11:52Z</time>
      </trkpt>
      <trkpt lat="54.780979016795754" lon="26.67797296307981">
        <ele>166.93000000000001</ele>
        <time>2011-08-16T07:11:59Z</time>
      </trkpt>
      <trkpt lat="54.78017401881516" lon="26.677298974245787">
        <ele>165.96000000000001</ele>
        <time>2011-08-16T07:12:19Z</time>
      </trkpt>
      <trkpt lat="54.779514027759433" lon="26.676743002608418">
        <ele>165.96000000000001</ele>
        <time>2011-08-16T07:12:37Z</time>
      </trkpt>
      <trkpt lat="54.778941962867975" lon="26.676298007369041">
        <ele>165.96000000000001</ele>
        <time>2011-08-16T07:12:53Z</time>
      </trkpt>
      <trkpt lat="54.778446005657315" lon="26.675893999636173">
        <ele>165.47999999999999</ele>
        <time>2011-08-16T07:13:09Z</time>
      </trkpt>
      <trkpt lat="54.778057001531124" lon="26.675549000501633">
        <ele>165.47999999999999</ele>
        <time>2011-08-16T07:13:22Z</time>
      </trkpt>
      <trkpt lat="54.777454007416964" lon="26.675054971128702">
        <ele>165.96000000000001</ele>
        <time>2011-08-16T07:13:41Z</time>
      </trkpt>
      <trkpt lat="54.776955032721162" lon="26.674648029729724">
        <ele>166.44999999999999</ele>
        <time>2011-08-16T07:13:55Z</time>
      </trkpt>
      <trkpt lat="54.776363018900156" lon="26.674163974821568">
        <ele>166.44999999999999</ele>
        <time>2011-08-16T07:14:12Z</time>
      </trkpt>
      <trkpt lat="54.77579103782773" lon="26.673675980418921">
        <ele>166.44999999999999</ele>
        <time>2011-08-16T07:14:28Z</time>
      </trkpt>
      <trkpt lat="54.775294996798038" lon="26.673301979899406">
        <ele>165.96000000000001</ele>
        <time>2011-08-16T07:14:41Z</time>
      </trkpt>
      <trkpt lat="54.77474195882678" lon="26.672858996316791">
        <ele>166.44999999999999</ele>
        <time>2011-08-16T07:14:56Z</time>
      </trkpt>
      <trkpt lat="54.774554958567023" lon="26.672696974128485">
        <ele>165.47999999999999</ele>
        <time>2011-08-16T07:15:01Z</time>
      </trkpt>
      <trkpt lat="54.773898990824819" lon="26.672181989997625">
        <ele>165.47999999999999</ele>
        <time>2011-08-16T07:15:18Z</time>
      </trkpt>
      <trkpt lat="54.77332298643887" lon="26.671701036393642">
        <ele>166.93000000000001</ele>
        <time>2011-08-16T07:15:33Z</time>
      </trkpt>
      <trkpt lat="54.772682022303343" lon="26.671184962615371">
        <ele>166.93000000000001</ele>
        <time>2011-08-16T07:15:51Z</time>
      </trkpt>
      <trkpt lat="54.771935027092695" lon="26.670543998479843">
        <ele>166.93000000000001</ele>
        <time>2011-08-16T07:16:10Z</time>
      </trkpt>
      <trkpt lat="54.771621963009238" lon="26.670308969914913">
        <ele>165.96000000000001</ele>
        <time>2011-08-16T07:16:18Z</time>
      </trkpt>
      <trkpt lat="54.771130029112101" lon="26.669861041009426">
        <ele>166.93000000000001</ele>
        <time>2011-08-16T07:16:31Z</time>
      </trkpt>
      <trkpt lat="54.771015029400587" lon="26.66976498439908">
        <ele>167.41</ele>
        <time>2011-08-16T07:16:34Z</time>
      </trkpt>
      <trkpt lat="54.770943028852344" lon="26.669690972194076">
        <ele>167.41</ele>
        <time>2011-08-16T07:16:36Z</time>
      </trkpt>
      <trkpt lat="54.770690985023975" lon="26.669459966942668">
        <ele>167.88999999999999</ele>
        <time>2011-08-16T07:16:43Z</time>
      </trkpt>
      <trkpt lat="54.77057296782732" lon="26.669387966394424">
        <ele>167.88999999999999</ele>
        <time>2011-08-16T07:16:46Z</time>
      </trkpt>
      <trkpt lat="54.770451011136174" lon="26.669301968067884">
        <ele>168.37</ele>
        <time>2011-08-16T07:16:49Z</time>
      </trkpt>
      <trkpt lat="54.769760007038713" lon="26.668747002258897">
        <ele>167.41</ele>
        <time>2011-08-16T07:17:05Z</time>
      </trkpt>
      <trkpt lat="54.769630003720522" lon="26.668661003932357">
        <ele>167.41</ele>
        <time>2011-08-16T07:17:08Z</time>
      </trkpt>
      <trkpt lat="54.76943202316761" lon="26.668515997007489">
        <ele>167.41</ele>
        <time>2011-08-16T07:17:13Z</time>
      </trkpt>
      <trkpt lat="54.768931958824396" lon="26.668092962354422">
        <ele>169.33000000000001</ele>
        <time>2011-08-16T07:17:28Z</time>
      </trkpt>
      <trkpt lat="54.768405994400382" lon="26.667669005692005">
        <ele>170.77000000000001</ele>
        <time>2011-08-16T07:17:44Z</time>
      </trkpt>
      <trkpt lat="54.76810097694397" lon="26.667104987427592">
        <ele>172.21000000000001</ele>
        <time>2011-08-16T07:17:57Z</time>
      </trkpt>
      <trkpt lat="54.768021013587713" lon="26.666059009730816">
        <ele>173.66</ele>
        <time>2011-08-16T07:18:13Z</time>
      </trkpt>
      <trkpt lat="54.767925040796399" lon="26.664872970432043">
        <ele>174.13999999999999</ele>
        <time>2011-08-16T07:18:30Z</time>
      </trkpt>
      <trkpt lat="54.767818003892899" lon="26.663783993571997">
        <ele>173.66</ele>
        <time>2011-08-16T07:18:46Z</time>
      </trkpt>
      <trkpt lat="54.767746003344655" lon="26.662794006988406">
        <ele>173.66</ele>
        <time>2011-08-16T07:19:01Z</time>
      </trkpt>
      <trkpt lat="54.767627986148" lon="26.661593969911337">
        <ele>173.66</ele>
        <time>2011-08-16T07:19:18Z</time>
      </trkpt>
      <trkpt lat="54.7676089592278" lon="26.661324994638562">
        <ele>174.13999999999999</ele>
        <time>2011-08-16T07:19:22Z</time>
      </trkpt>
      <trkpt lat="54.767502006143332" lon="26.660068966448307">
        <ele>174.13999999999999</ele>
        <time>2011-08-16T07:19:40Z</time>
      </trkpt>
      <trkpt lat="54.767445009201765" lon="26.659135976806283">
        <ele>174.62</ele>
        <time>2011-08-16T07:19:54Z</time>
      </trkpt>
      <trkpt lat="54.767448026686907" lon="26.659073028713465">
        <ele>174.13999999999999</ele>
        <time>2011-08-16T07:19:55Z</time>
      </trkpt>
      <trkpt lat="54.767406033352017" lon="26.658732974901795">
        <ele>175.09999999999999</ele>
        <time>2011-08-16T07:20:01Z</time>
      </trkpt>
      <trkpt lat="54.767315005883574" lon="26.658253027126193">
        <ele>174.62</ele>
        <time>2011-08-16T07:20:10Z</time>
      </trkpt>
      <trkpt lat="54.767322968691587" lon="26.658069966360927">
        <ele>175.09999999999999</ele>
        <time>2011-08-16T07:20:14Z</time>
      </trkpt>
      <trkpt lat="54.76726496592164" lon="26.657314002513885">
        <ele>175.09999999999999</ele>
        <time>2011-08-16T07:20:28Z</time>
      </trkpt>
      <trkpt lat="54.767051981762052" lon="26.656769011169672">
        <ele>177.02000000000001</ele>
        <time>2011-08-16T07:20:41Z</time>
      </trkpt>
      <trkpt lat="54.766602041199803" lon="26.656796000897884">
        <ele>178.46000000000001</ele>
        <time>2011-08-16T07:20:55Z</time>
      </trkpt>
      <trkpt lat="54.766022013500333" lon="26.657004961743951">
        <ele>179.41999999999999</ele>
        <time>2011-08-16T07:21:13Z</time>
      </trkpt>
      <trkpt lat="54.765762006863952" lon="26.657205959782004">
        <ele>178.94</ele>
        <time>2011-08-16T07:21:23Z</time>
      </trkpt>
      <trkpt lat="54.765476016327739" lon="26.657124990597367">
        <ele>179.90000000000001</ele>
        <time>2011-08-16T07:21:34Z</time>
      </trkpt>
      <trkpt lat="54.764988021925092" lon="26.657248958945274">
        <ele>178.94</ele>
        <time>2011-08-16T07:21:50Z</time>
      </trkpt>
      <trkpt lat="54.764853995293379" lon="26.657294975593686">
        <ele>178.94</ele>
        <time>2011-08-16T07:21:55Z</time>
      </trkpt>
      <trkpt lat="54.764687027782202" lon="26.65736798197031">
        <ele>178.94</ele>
        <time>2011-08-16T07:22:01Z</time>
      </trkpt>
      <trkpt lat="54.764099037274718" lon="26.657532015815377">
        <ele>177.97999999999999</ele>
        <time>2011-08-16T07:22:18Z</time>
      </trkpt>
      <trkpt lat="54.76356502622366" lon="26.65766503661871">
        <ele>177.5</ele>
        <time>2011-08-16T07:22:34Z</time>
      </trkpt>
      <trkpt lat="54.762980975210667" lon="26.657725973054767">
        <ele>176.06</ele>
        <time>2011-08-16T07:22:51Z</time>
      </trkpt>
      <trkpt lat="54.762423997744918" lon="26.657852036878467">
        <ele>175.58000000000001</ele>
        <time>2011-08-16T07:23:08Z</time>
      </trkpt>
      <trkpt lat="54.76182603277266" lon="26.657993020489812">
        <ele>175.09999999999999</ele>
        <time>2011-08-16T07:23:27Z</time>
      </trkpt>
      <trkpt lat="54.761325968429446" lon="26.658136015757918">
        <ele>175.09999999999999</ele>
        <time>2011-08-16T07:23:43Z</time>
      </trkpt>
      <trkpt lat="54.761005025357008" lon="26.658212961629033">
        <ele>174.62</ele>
        <time>2011-08-16T07:23:56Z</time>
      </trkpt>
      <trkpt lat="54.761005025357008" lon="26.658212961629033">
        <ele>174.62</ele>
        <time>2011-08-16T07:24:25Z</time>
      </trkpt>
      <trkpt lat="54.761008964851499" lon="26.658211033791304">
        <ele>174.62</ele>
        <time>2011-08-16T07:24:55Z</time>
      </trkpt>
      <trkpt lat="54.761012988165021" lon="26.658200975507498">
        <ele>174.62</ele>
        <time>2011-08-16T07:25:21Z</time>
      </trkpt>
      <trkpt lat="54.761012988165021" lon="26.658200975507498">
        <ele>174.62</ele>
        <time>2011-08-16T07:25:53Z</time>
      </trkpt>
      <trkpt lat="54.761012988165021" lon="26.658200975507498">
        <ele>174.62</ele>
        <time>2011-08-16T07:26:21Z</time>
      </trkpt>
      <trkpt lat="54.761012988165021" lon="26.658200975507498">
        <ele>174.62</ele>
        <time>2011-08-16T07:26:29Z</time>
      </trkpt>
      <trkpt lat="54.760960014536977" lon="26.658214973285794">
        <ele>174.62</ele>
        <time>2011-08-16T07:26:33Z</time>
      </trkpt>
      <trkpt lat="54.760445030406117" lon="26.658359980210662">
        <ele>174.13999999999999</ele>
        <time>2011-08-16T07:26:53Z</time>
      </trkpt>
      <trkpt lat="54.759986959397793" lon="26.658475985750556">
        <ele>173.66</ele>
        <time>2011-08-16T07:27:11Z</time>
      </trkpt>
      <trkpt lat="54.759704992175102" lon="26.658539017662406">
        <ele>173.66</ele>
        <time>2011-08-16T07:27:24Z</time>
      </trkpt>
      <trkpt lat="54.759262008592486" lon="26.658650999888778">
        <ele>173.66</ele>
        <time>2011-08-16T07:27:42Z</time>
      </trkpt>
      <trkpt lat="54.758868981152773" lon="26.658781003206968">
        <ele>174.13999999999999</ele>
        <time>2011-08-16T07:27:58Z</time>
      </trkpt>
      <trkpt lat="54.758476037532091" lon="26.658875970169902">
        <ele>174.62</ele>
        <time>2011-08-16T07:28:14Z</time>
      </trkpt>
      <trkpt lat="54.757979996502399" lon="26.659049978479743">
        <ele>175.09999999999999</ele>
        <time>2011-08-16T07:28:35Z</time>
      </trkpt>
      <trkpt lat="54.757792996242642" lon="26.659126002341509">
        <ele>174.62</ele>
        <time>2011-08-16T07:28:45Z</time>
      </trkpt>
      <trkpt lat="54.757731975987554" lon="26.659110998734832">
        <ele>175.09999999999999</ele>
        <time>2011-08-16T07:28:49Z</time>
      </trkpt>
      <trkpt lat="54.757644971832633" lon="26.659098006784916">
        <ele>175.09999999999999</ele>
        <time>2011-08-16T07:28:55Z</time>
      </trkpt>
      <trkpt lat="54.757441962137818" lon="26.659126002341509">
        <ele>175.09999999999999</ele>
        <time>2011-08-16T07:29:06Z</time>
      </trkpt>
      <trkpt lat="54.757159994915128" lon="26.659201020374894">
        <ele>175.09999999999999</ele>
        <time>2011-08-16T07:29:19Z</time>
      </trkpt>
      <trkpt lat="54.756823964416981" lon="26.659219963476062">
        <ele>175.58000000000001</ele>
        <time>2011-08-16T07:29:32Z</time>
      </trkpt>
      <trkpt lat="54.756405036896467" lon="26.659310990944505">
        <ele>176.06</ele>
        <time>2011-08-16T07:29:48Z</time>
      </trkpt>
      <trkpt lat="54.756339993327856" lon="26.659320965409279">
        <ele>176.06</ele>
        <time>2011-08-16T07:30:02Z</time>
      </trkpt>
      <trkpt lat="54.7562410030514" lon="26.659361030906439">
        <ele>176.06</ele>
        <time>2011-08-16T07:30:24Z</time>
      </trkpt>
      <trkpt lat="54.755783015862107" lon="26.659524980932474">
        <ele>176.06</ele>
        <time>2011-08-16T07:30:40Z</time>
      </trkpt>
      <trkpt lat="54.755280017852783" lon="26.659679040312767">
        <ele>175.58000000000001</ele>
        <time>2011-08-16T07:30:55Z</time>
      </trkpt>
      <trkpt lat="54.754550959914923" lon="26.659822035580873">
        <ele>173.66</ele>
        <time>2011-08-16T07:31:16Z</time>
      </trkpt>
      <trkpt lat="54.754147036001086" lon="26.659906022250652">
        <ele>173.16999999999999</ele>
        <time>2011-08-16T07:31:30Z</time>
      </trkpt>
      <trkpt lat="54.753665998578072" lon="26.659982968121767">
        <ele>172.69</ele>
        <time>2011-08-16T07:31:45Z</time>
      </trkpt>
      <trkpt lat="54.753562984988093" lon="26.660001995041966">
        <ele>172.21000000000001</ele>
        <time>2011-08-16T07:31:53Z</time>
      </trkpt>
      <trkpt lat="54.753284035250545" lon="26.660049017518759">
        <ele>172.21000000000001</ele>
        <time>2011-08-16T07:32:04Z</time>
      </trkpt>
      <trkpt lat="54.752898970618844" lon="26.660102996975183">
        <ele>171.25</ele>
        <time>2011-08-16T07:32:19Z</time>
      </trkpt>
      <trkpt lat="54.752789000049233" lon="26.660184971988201">
        <ele>171.25</ele>
        <time>2011-08-16T07:32:31Z</time>
      </trkpt>
      <trkpt lat="54.752747006714344" lon="26.660234006121755">
        <ele>170.77000000000001</ele>
        <time>2011-08-16T07:32:45Z</time>
      </trkpt>
      <trkpt lat="54.752730997279286" lon="26.660254960879683">
        <ele>170.77000000000001</ele>
        <time>2011-08-16T07:32:59Z</time>
      </trkpt>
      <trkpt lat="54.752612980082631" lon="26.660326039418578">
        <ele>170.77000000000001</ele>
        <time>2011-08-16T07:33:11Z</time>
      </trkpt>
      <trkpt lat="54.752585990354419" lon="26.660351017490029">
        <ele>171.25</ele>
        <time>2011-08-16T07:33:17Z</time>
      </trkpt>
      <trkpt lat="54.752171002328396" lon="26.660625021904707">
        <ele>172.21000000000001</ele>
        <time>2011-08-16T07:33:33Z</time>
      </trkpt>
      <trkpt lat="54.751961035653949" lon="26.660799030214548">
        <ele>172.69</ele>
        <time>2011-08-16T07:33:44Z</time>
      </trkpt>
      <trkpt lat="54.751723995432258" lon="26.660993993282318">
        <ele>167.41</ele>
        <time>2011-08-16T07:33:56Z</time>
      </trkpt>
      <trkpt lat="54.751704968512058" lon="26.661013020202518">
        <ele>171.25</ele>
        <time>2011-08-16T07:33:57Z</time>
      </trkpt>
      <trkpt lat="54.751689964905381" lon="26.661028023809195">
        <ele>174.62</ele>
        <time>2011-08-16T07:33:58Z</time>
      </trkpt>
      <trkpt lat="54.751671021804214" lon="26.661036992445588">
        <ele>174.62</ele>
        <time>2011-08-16T07:33:59Z</time>
      </trkpt>
      <trkpt lat="54.751521991565824" lon="26.661179987713695">
        <ele>176.06</ele>
        <time>2011-08-16T07:34:11Z</time>
      </trkpt>
      <trkpt lat="54.751521991565824" lon="26.661179987713695">
        <ele>170.28999999999999</ele>
        <time>2011-08-16T07:34:14Z</time>
      </trkpt>
      <trkpt lat="54.751521991565824" lon="26.661179987713695">
        <ele>172.69</ele>
        <time>2011-08-16T07:34:15Z</time>
      </trkpt>
      <trkpt lat="54.751521991565824" lon="26.661179987713695">
        <ele>175.09999999999999</ele>
        <time>2011-08-16T07:34:17Z</time>
      </trkpt>
      <trkpt lat="54.751514028757811" lon="26.661193985491991">
        <ele>174.62</ele>
        <time>2011-08-16T07:34:21Z</time>
      </trkpt>
      <trkpt lat="54.751137010753155" lon="26.661604028195143">
        <ele>177.02000000000001</ele>
        <time>2011-08-16T07:34:37Z</time>
      </trkpt>
      <trkpt lat="54.750748006626964" lon="26.6619239654392">
        <ele>179.41999999999999</ele>
        <time>2011-08-16T07:34:52Z</time>
      </trkpt>
      <trkpt lat="54.750468973070383" lon="26.66187996044755">
        <ele>180.38</ele>
        <time>2011-08-16T07:35:04Z</time>
      </trkpt>
      <trkpt lat="54.750130008906126" lon="26.661683991551399">
        <ele>179.90000000000001</ele>
        <time>2011-08-16T07:35:16Z</time>
      </trkpt>
      <trkpt lat="54.750121962279081" lon="26.661679968237877">
        <ele>179.90000000000001</ele>
        <time>2011-08-16T07:35:32Z</time>
      </trkpt>
      <trkpt lat="54.750121962279081" lon="26.661679968237877">
        <ele>179.90000000000001</ele>
        <time>2011-08-16T07:35:55Z</time>
      </trkpt>
      <trkpt lat="54.750121962279081" lon="26.661679968237877">
        <ele>182.78999999999999</ele>
        <time>2011-08-16T07:36:11Z</time>
      </trkpt>
      <trkpt lat="54.750121962279081" lon="26.661679968237877">
        <ele>177.5</ele>
        <time>2011-08-16T07:36:12Z</time>
      </trkpt>
      <trkpt lat="54.750121962279081" lon="26.661679968237877">
        <ele>180.87</ele>
        <time>2011-08-16T07:36:13Z</time>
      </trkpt>
      <trkpt lat="54.750121962279081" lon="26.661679968237877">
        <ele>179.90000000000001</ele>
        <time>2011-08-16T07:36:39Z</time>
      </trkpt>
      <trkpt lat="54.750121962279081" lon="26.661679968237877">
        <ele>179.90000000000001</ele>
        <time>2011-08-16T07:37:10Z</time>
      </trkpt>
      <trkpt lat="54.750118022784591" lon="26.661678040400147">
        <ele>180.38</ele>
        <time>2011-08-16T07:37:31Z</time>
      </trkpt>
      <trkpt lat="54.750118022784591" lon="26.661678040400147">
        <ele>186.15000000000001</ele>
        <time>2011-08-16T07:37:49Z</time>
      </trkpt>
      <trkpt lat="54.750118022784591" lon="26.661678040400147">
        <ele>175.09999999999999</ele>
        <time>2011-08-16T07:37:50Z</time>
      </trkpt>
      <trkpt lat="54.750118022784591" lon="26.661678040400147">
        <ele>181.34999999999999</ele>
        <time>2011-08-16T07:37:51Z</time>
      </trkpt>
      <trkpt lat="54.750118022784591" lon="26.661678040400147">
        <ele>176.06</ele>
        <time>2011-08-16T07:37:55Z</time>
      </trkpt>
      <trkpt lat="54.750118022784591" lon="26.661678040400147">
        <ele>180.87</ele>
        <time>2011-08-16T07:37:56Z</time>
      </trkpt>
      <trkpt lat="54.750118022784591" lon="26.661676028743386">
        <ele>180.38</ele>
        <time>2011-08-16T07:38:21Z</time>
      </trkpt>
      <trkpt lat="54.750118022784591" lon="26.661678040400147">
        <ele>180.38</ele>
        <time>2011-08-16T07:38:52Z</time>
      </trkpt>
      <trkpt lat="54.750113999471068" lon="26.661678040400147">
        <ele>179.90000000000001</ele>
        <time>2011-08-16T07:39:25Z</time>
      </trkpt>
      <trkpt lat="54.750034036114812" lon="26.6616649646312">
        <ele>180.87</ele>
        <time>2011-08-16T07:39:49Z</time>
      </trkpt>
      <trkpt lat="54.749782998114824" lon="26.66157703846693">
        <ele>180.38</ele>
        <time>2011-08-16T07:40:03Z</time>
      </trkpt>
      <trkpt lat="54.749782998114824" lon="26.66157703846693">
        <ele>180.38</ele>
        <time>2011-08-16T07:40:27Z</time>
      </trkpt>
      <trkpt lat="54.749778974801302" lon="26.661589024588466">
        <ele>180.38</ele>
        <time>2011-08-16T07:40:45Z</time>
      </trkpt>
      <trkpt lat="54.749782998114824" lon="26.661589024588466">
        <ele>179.90000000000001</ele>
        <time>2011-08-16T07:41:21Z</time>
      </trkpt>
      <trkpt lat="54.749782998114824" lon="26.661589024588466">
        <ele>179.90000000000001</ele>
        <time>2011-08-16T07:41:44Z</time>
      </trkpt>
      <trkpt lat="54.749782998114824" lon="26.661589024588466">
        <ele>179.90000000000001</ele>
        <time>2011-08-16T07:42:11Z</time>
      </trkpt>
      <trkpt lat="54.749782998114824" lon="26.661589024588466">
        <ele>180.38</ele>
        <time>2011-08-16T07:42:13Z</time>
      </trkpt>
      <trkpt lat="54.749569008126855" lon="26.661597993224859">
        <ele>180.87</ele>
        <time>2011-08-16T07:42:26Z</time>
      </trkpt>
      <trkpt lat="54.749316964298487" lon="26.661531021818519">
        <ele>180.87</ele>
        <time>2011-08-16T07:42:38Z</time>
      </trkpt>
      <trkpt lat="54.74912996403873" lon="26.661405963823199">
        <ele>180.38</ele>
        <time>2011-08-16T07:42:47Z</time>
      </trkpt>
      <trkpt lat="54.74912996403873" lon="26.660957029089332">
        <ele>179.41999999999999</ele>
        <time>2011-08-16T07:43:02Z</time>
      </trkpt>
      <trkpt lat="54.749034997075796" lon="26.660144990310073">
        <ele>179.41999999999999</ele>
        <time>2011-08-16T07:43:18Z</time>
      </trkpt>
      <trkpt lat="54.748882027342916" lon="26.659266985952854">
        <ele>179.41999999999999</ele>
        <time>2011-08-16T07:43:32Z</time>
      </trkpt>
      <trkpt lat="54.748870963230729" lon="26.659192973747849">
        <ele>178.94</ele>
        <time>2011-08-16T07:43:33Z</time>
      </trkpt>
      <trkpt lat="54.748698966577649" lon="26.658239029347897">
        <ele>176.06</ele>
        <time>2011-08-16T07:43:48Z</time>
      </trkpt>
      <trkpt lat="54.748603999614716" lon="26.657672999426723">
        <ele>175.09999999999999</ele>
        <time>2011-08-16T07:43:56Z</time>
      </trkpt>
      <trkpt lat="54.74848598241806" lon="26.656949976459146">
        <ele>174.62</ele>
        <time>2011-08-16T07:44:07Z</time>
      </trkpt>
      <trkpt lat="54.748458992689848" lon="26.65674202144146">
        <ele>174.62</ele>
        <time>2011-08-16T07:44:10Z</time>
      </trkpt>
      <trkpt lat="54.748286996036768" lon="26.655651032924652">
        <ele>175.09999999999999</ele>
        <time>2011-08-16T07:44:26Z</time>
      </trkpt>
      <trkpt lat="54.748135032132268" lon="26.654758024960756">
        <ele>175.58000000000001</ele>
        <time>2011-08-16T07:44:41Z</time>
      </trkpt>
      <trkpt lat="54.748038975521922" lon="26.65409903973341">
        <ele>176.53999999999999</ele>
        <time>2011-08-16T07:44:53Z</time>
      </trkpt>
      <trkpt lat="54.747767988592386" lon="26.653576008975506">
        <ele>177.02000000000001</ele>
        <time>2011-08-16T07:45:04Z</time>
      </trkpt>
      <trkpt lat="54.74726096726954" lon="26.653384985402226">
        <ele>177.02000000000001</ele>
        <time>2011-08-16T07:45:18Z</time>
      </trkpt>
      <trkpt lat="54.746703989803791" lon="26.652973014861345">
        <ele>177.02000000000001</ele>
        <time>2011-08-16T07:45:33Z</time>
      </trkpt>
      <trkpt lat="54.746028995141387" lon="26.652478985488415">
        <ele>178.94</ele>
        <time>2011-08-16T07:45:52Z</time>
      </trkpt>
      <trkpt lat="54.745476040989161" lon="26.652076989412308">
        <ele>179.41999999999999</ele>
        <time>2011-08-16T07:46:07Z</time>
      </trkpt>
      <trkpt lat="54.744900036603212" lon="26.651663007214665">
        <ele>180.87</ele>
        <time>2011-08-16T07:46:23Z</time>
      </trkpt>
      <trkpt lat="54.744342975318432" lon="26.651227986440063">
        <ele>182.31</ele>
        <time>2011-08-16T07:46:39Z</time>
      </trkpt>
      <trkpt lat="54.743835031986237" lon="26.650843005627394">
        <ele>184.22999999999999</ele>
        <time>2011-08-16T07:46:54Z</time>
      </trkpt>
      <trkpt lat="54.743168000131845" lon="26.65031997486949">
        <ele>185.66999999999999</ele>
        <time>2011-08-16T07:47:13Z</time>
      </trkpt>
      <trkpt lat="54.742545979097486" lon="26.649842960759997">
        <ele>186.15000000000001</ele>
        <time>2011-08-16T07:47:30Z</time>
      </trkpt>
      <trkpt lat="54.741848018020391" lon="26.649312973022461">
        <ele>185.66999999999999</ele>
        <time>2011-08-16T07:47:48Z</time>
      </trkpt>
      <trkpt lat="54.741058023646474" lon="26.648749960586429">
        <ele>186.15000000000001</ele>
        <time>2011-08-16T07:48:09Z</time>
      </trkpt>
      <trkpt lat="54.740440025925636" lon="26.648302031680942">
        <ele>185.19</ele>
        <time>2011-08-16T07:48:24Z</time>
      </trkpt>
      <trkpt lat="54.739886987954378" lon="26.647920990362763">
        <ele>184.71000000000001</ele>
        <time>2011-08-16T07:48:36Z</time>
      </trkpt>
      <trkpt lat="54.739669980481267" lon="26.647713035345078">
        <ele>183.75</ele>
        <time>2011-08-16T07:48:41Z</time>
      </trkpt>
      <trkpt lat="54.739047959446907" lon="26.646673008799553">
        <ele>181.83000000000001</ele>
        <time>2011-08-16T07:48:57Z</time>
      </trkpt>
      <trkpt lat="54.738495005294681" lon="26.645677993074059">
        <ele>180.38</ele>
        <time>2011-08-16T07:49:12Z</time>
      </trkpt>
      <trkpt lat="54.738327031955123" lon="26.645387979224324">
        <ele>180.38</ele>
        <time>2011-08-16T07:49:17Z</time>
      </trkpt>
      <trkpt lat="54.737694030627608" lon="26.644240999594331">
        <ele>179.90000000000001</ele>
        <time>2011-08-16T07:49:37Z</time>
      </trkpt>
      <trkpt lat="54.737369986250997" lon="26.643687961623073">
        <ele>179.90000000000001</ele>
        <time>2011-08-16T07:49:47Z</time>
      </trkpt>
      <trkpt lat="54.737045019865036" lon="26.643152022734284">
        <ele>180.38</ele>
        <time>2011-08-16T07:49:57Z</time>
      </trkpt>
      <trkpt lat="54.736503968015313" lon="26.642255997285247">
        <ele>180.38</ele>
        <time>2011-08-16T07:50:16Z</time>
      </trkpt>
      <trkpt lat="54.736331971362233" lon="26.642039995640516">
        <ele>180.38</ele>
        <time>2011-08-16T07:50:21Z</time>
      </trkpt>
      <trkpt lat="54.735580030828714" lon="26.641497015953064">
        <ele>180.38</ele>
        <time>2011-08-16T07:50:39Z</time>
      </trkpt>
      <trkpt lat="54.73495096899569" lon="26.641116980463266">
        <ele>180.87</ele>
        <time>2011-08-16T07:50:54Z</time>
      </trkpt>
      <trkpt lat="54.734108000993729" lon="26.640661004930735">
        <ele>180.87</ele>
        <time>2011-08-16T07:51:13Z</time>
      </trkpt>
      <trkpt lat="54.733371986076236" lon="26.640355987474322">
        <ele>180.87</ele>
        <time>2011-08-16T07:51:30Z</time>
      </trkpt>
      <trkpt lat="54.732623985037208" lon="26.639966983348131">
        <ele>180.87</ele>
        <time>2011-08-16T07:51:47Z</time>
      </trkpt>
      <trkpt lat="54.731891993433237" lon="26.639703959226608">
        <ele>181.83000000000001</ele>
        <time>2011-08-16T07:52:03Z</time>
      </trkpt>
      <trkpt lat="54.731051959097385" lon="26.639703959226608">
        <ele>180.87</ele>
        <time>2011-08-16T07:52:21Z</time>
      </trkpt>
      <trkpt lat="54.730259031057358" lon="26.639920966699719">
        <ele>181.83000000000001</ele>
        <time>2011-08-16T07:52:38Z</time>
      </trkpt>
      <trkpt lat="54.72951496951282" lon="26.640138980001211">
        <ele>180.87</ele>
        <time>2011-08-16T07:52:54Z</time>
      </trkpt>
      <trkpt lat="54.728866964578629" lon="26.640102015808225">
        <ele>181.83000000000001</ele>
        <time>2011-08-16T07:53:09Z</time>
      </trkpt>
      <trkpt lat="54.728054003790021" lon="26.639698008075356">
        <ele>182.31</ele>
        <time>2011-08-16T07:53:29Z</time>
      </trkpt>
      <trkpt lat="54.727260991930962" lon="26.639280002564192">
        <ele>184.22999999999999</ele>
        <time>2011-08-16T07:53:49Z</time>
      </trkpt>
      <trkpt lat="54.726455993950367" lon="26.63884699344635">
        <ele>184.71000000000001</ele>
        <time>2011-08-16T07:54:09Z</time>
      </trkpt>
      <trkpt lat="54.726349040865898" lon="26.6387839615345">
        <ele>184.71000000000001</ele>
        <time>2011-08-16T07:54:17Z</time>
      </trkpt>
      <trkpt lat="54.726349040865898" lon="26.6387839615345">
        <ele>185.19</ele>
        <time>2011-08-16T07:54:49Z</time>
      </trkpt>
      <trkpt lat="54.726211996749043" lon="26.638728976249695">
        <ele>185.19</ele>
        <time>2011-08-16T07:55:12Z</time>
      </trkpt>
      <trkpt lat="54.725615959614515" lon="26.638409039005637">
        <ele>185.66999999999999</ele>
        <time>2011-08-16T07:55:28Z</time>
      </trkpt>
      <trkpt lat="54.724982958287001" lon="26.638105027377605">
        <ele>185.19</ele>
        <time>2011-08-16T07:55:46Z</time>
      </trkpt>
      <trkpt lat="54.724868964403868" lon="26.638049958273768">
        <ele>184.22999999999999</ele>
        <time>2011-08-16T07:55:49Z</time>
      </trkpt>
      <trkpt lat="54.724109983071685" lon="26.637723986059427">
        <ele>181.34999999999999</ele>
        <time>2011-08-16T07:56:04Z</time>
      </trkpt>
      <trkpt lat="54.723075991496444" lon="26.637230040505528">
        <ele>179.41999999999999</ele>
        <time>2011-08-16T07:56:22Z</time>
      </trkpt>
      <trkpt lat="54.722442990168929" lon="26.63691102527082">
        <ele>175.58000000000001</ele>
        <time>2011-08-16T07:56:35Z</time>
      </trkpt>
      <trkpt lat="54.721995983272791" lon="26.636657975614071">
        <ele>176.53999999999999</ele>
        <time>2011-08-16T07:56:45Z</time>
      </trkpt>
      <trkpt lat="54.721663976088166" lon="26.636167969554663">
        <ele>176.53999999999999</ele>
        <time>2011-08-16T07:56:55Z</time>
      </trkpt>
      <trkpt lat="54.721397012472153" lon="26.636157995089889">
        <ele>176.06</ele>
        <time>2011-08-16T07:57:01Z</time>
      </trkpt>
      <trkpt lat="54.720695028081536" lon="26.635977029800415">
        <ele>175.58000000000001</ele>
        <time>2011-08-16T07:57:17Z</time>
      </trkpt>
      <trkpt lat="54.720001006498933" lon="26.635650973767042">
        <ele>175.09999999999999</ele>
        <time>2011-08-16T07:57:33Z</time>
      </trkpt>
      <trkpt lat="54.719227021560073" lon="26.635289965197444">
        <ele>175.58000000000001</ele>
        <time>2011-08-16T07:57:51Z</time>
      </trkpt>
      <trkpt lat="54.719143034890294" lon="26.6352369915694">
        <ele>175.58000000000001</ele>
        <time>2011-08-16T07:57:53Z</time>
      </trkpt>
      <trkpt lat="54.718600977212191" lon="26.634961981326342">
        <ele>176.06</ele>
        <time>2011-08-16T07:58:07Z</time>
      </trkpt>
      <trkpt lat="54.718132009729743" lon="26.634750002995133">
        <ele>176.06</ele>
        <time>2011-08-16T07:58:19Z</time>
      </trkpt>
      <trkpt lat="54.718006029725075" lon="26.634675990790129">
        <ele>175.58000000000001</ele>
        <time>2011-08-16T07:58:22Z</time>
      </trkpt>
      <trkpt lat="54.717967975884676" lon="26.634636009112">
        <ele>176.06</ele>
        <time>2011-08-16T07:58:23Z</time>
      </trkpt>
      <trkpt lat="54.717945009469986" lon="26.634577000513673">
        <ele>176.06</ele>
        <time>2011-08-16T07:58:24Z</time>
      </trkpt>
      <trkpt lat="54.717936962842941" lon="26.634501982480288">
        <ele>176.06</ele>
        <time>2011-08-16T07:58:25Z</time>
      </trkpt>
      <trkpt lat="54.717945009469986" lon="26.634422019124031">
        <ele>175.58000000000001</ele>
        <time>2011-08-16T07:58:26Z</time>
      </trkpt>
      <trkpt lat="54.717952972277999" lon="26.634343983605504">
        <ele>176.06</ele>
        <time>2011-08-16T07:58:27Z</time>
      </trkpt>
      <trkpt lat="54.717982979491353" lon="26.63403301499784">
        <ele>176.06</ele>
        <time>2011-08-16T07:58:31Z</time>
      </trkpt>
      <trkpt lat="54.717998988926411" lon="26.633956991136074">
        <ele>175.58000000000001</ele>
        <time>2011-08-16T07:58:32Z</time>
      </trkpt>
      <trkpt lat="54.71801801584661" lon="26.633880967274308">
        <ele>176.06</ele>
        <time>2011-08-16T07:58:33Z</time>
      </trkpt>
      <trkpt lat="54.718097979202867" lon="26.633479977026582">
        <ele>176.06</ele>
        <time>2011-08-16T07:58:38Z</time>
      </trkpt>
      <trkpt lat="54.718117006123066" lon="26.633402025327086">
        <ele>175.58000000000001</ele>
        <time>2011-08-16T07:58:39Z</time>
      </trkpt>
      <trkpt lat="54.718345999717712" lon="26.632081959396601">
        <ele>177.02000000000001</ele>
        <time>2011-08-16T07:58:56Z</time>
      </trkpt>
      <trkpt lat="54.718361003324389" lon="26.632004007697105">
        <ele>177.02000000000001</ele>
        <time>2011-08-16T07:58:57Z</time>
      </trkpt>
      <trkpt lat="54.718371983617544" lon="26.631922032684088">
        <ele>177.02000000000001</ele>
        <time>2011-08-16T07:58:58Z</time>
      </trkpt>
      <trkpt lat="54.718387993052602" lon="26.6318419855088">
        <ele>176.53999999999999</ele>
        <time>2011-08-16T07:58:59Z</time>
      </trkpt>
      <trkpt lat="54.718398973345757" lon="26.631762022152543">
        <ele>177.5</ele>
        <time>2011-08-16T07:59:00Z</time>
      </trkpt>
      <trkpt lat="54.718410037457943" lon="26.631680969148874">
        <ele>177.02000000000001</ele>
        <time>2011-08-16T07:59:01Z</time>
      </trkpt>
      <trkpt lat="54.718688987195492" lon="26.63010198622942">
        <ele>177.97999999999999</ele>
        <time>2011-08-16T07:59:21Z</time>
      </trkpt>
      <trkpt lat="54.718760987743735" lon="26.629717005416751">
        <ele>178.46000000000001</ele>
        <time>2011-08-16T07:59:26Z</time>
      </trkpt>
      <trkpt lat="54.718796024098992" lon="26.629483988508582">
        <ele>178.46000000000001</ele>
        <time>2011-08-16T07:59:29Z</time>
      </trkpt>
      <trkpt lat="54.718811027705669" lon="26.629411987960339">
        <ele>178.46000000000001</ele>
        <time>2011-08-16T07:59:30Z</time>
      </trkpt>
      <trkpt lat="54.718822007998824" lon="26.629338981583714">
        <ele>178.46000000000001</ele>
        <time>2011-08-16T07:59:31Z</time>
      </trkpt>
      <trkpt lat="54.719016971066594" lon="26.628217985853553">
        <ele>179.41999999999999</ele>
        <time>2011-08-16T07:59:45Z</time>
      </trkpt>
      <trkpt lat="54.719035997986794" lon="26.628149002790451">
        <ele>178.94</ele>
        <time>2011-08-16T07:59:46Z</time>
      </trkpt>
      <trkpt lat="54.719275971874595" lon="26.626717038452625">
        <ele>179.90000000000001</ele>
        <time>2011-08-16T08:00:04Z</time>
      </trkpt>
      <trkpt lat="54.719288041815162" lon="26.626636991277337">
        <ele>179.90000000000001</ele>
        <time>2011-08-16T08:00:05Z</time>
      </trkpt>
      <trkpt lat="54.719299022108316" lon="26.626558033749461">
        <ele>179.41999999999999</ele>
        <time>2011-08-16T08:00:06Z</time>
      </trkpt>
      <trkpt lat="54.719311008229852" lon="26.626482009887695">
        <ele>179.41999999999999</ele>
        <time>2011-08-16T08:00:07Z</time>
      </trkpt>
      <trkpt lat="54.719330035150051" lon="26.626405986025929">
        <ele>180.38</ele>
        <time>2011-08-16T08:00:08Z</time>
      </trkpt>
      <trkpt lat="54.719345038756728" lon="26.626326022669673">
        <ele>180.38</ele>
        <time>2011-08-16T08:00:09Z</time>
      </trkpt>
      <trkpt lat="54.719359958544374" lon="26.626243963837624">
        <ele>179.90000000000001</ele>
        <time>2011-08-16T08:00:10Z</time>
      </trkpt>
      <trkpt lat="54.719402035698295" lon="26.625996027141809">
        <ele>180.38</ele>
        <time>2011-08-16T08:00:13Z</time>
      </trkpt>
      <trkpt lat="54.71954301930964" lon="26.625169990584254">
        <ele>180.38</ele>
        <time>2011-08-16T08:00:23Z</time>
      </trkpt>
      <trkpt lat="54.719559028744698" lon="26.625092960894108">
        <ele>180.87</ele>
        <time>2011-08-16T08:00:24Z</time>
      </trkpt>
      <trkpt lat="54.719604039564729" lon="26.624782998114824">
        <ele>180.38</ele>
        <time>2011-08-16T08:00:28Z</time>
      </trkpt>
      <trkpt lat="54.719627005979419" lon="26.624632040038705">
        <ele>181.34999999999999</ele>
        <time>2011-08-16T08:00:30Z</time>
      </trkpt>
      <trkpt lat="54.719634968787432" lon="26.624554004520178">
        <ele>181.34999999999999</ele>
        <time>2011-08-16T08:00:31Z</time>
      </trkpt>
      <trkpt lat="54.719646032899618" lon="26.624483009800315">
        <ele>181.34999999999999</ele>
        <time>2011-08-16T08:00:32Z</time>
      </trkpt>
      <trkpt lat="54.719722978770733" lon="26.62412996403873">
        <ele>181.83000000000001</ele>
        <time>2011-08-16T08:00:37Z</time>
      </trkpt>
      <trkpt lat="54.719761032611132" lon="26.623990992084146">
        <ele>181.34999999999999</ele>
        <time>2011-08-16T08:00:39Z</time>
      </trkpt>
      <trkpt lat="54.719776036217809" lon="26.623916979879141">
        <ele>181.83000000000001</ele>
        <time>2011-08-16T08:00:40Z</time>
      </trkpt>
      <trkpt lat="54.719809982925653" lon="26.623746994882822">
        <ele>181.83000000000001</ele>
        <time>2011-08-16T08:00:42Z</time>
      </trkpt>
      <trkpt lat="54.719825992360711" lon="26.623654961585999">
        <ele>181.34999999999999</ele>
        <time>2011-08-16T08:00:43Z</time>
      </trkpt>
      <trkpt lat="54.719840995967388" lon="26.623564017936587">
        <ele>180.87</ele>
        <time>2011-08-16T08:00:44Z</time>
      </trkpt>
      <trkpt lat="54.719939986243844" lon="26.622979966923594">
        <ele>179.90000000000001</ele>
        <time>2011-08-16T08:00:50Z</time>
      </trkpt>
      <trkpt lat="54.719963036477566" lon="26.622890029102564">
        <ele>179.90000000000001</ele>
        <time>2011-08-16T08:00:51Z</time>
      </trkpt>
      <trkpt lat="54.720104020088911" lon="26.622014958411455">
        <ele>179.90000000000001</ele>
        <time>2011-08-16T08:01:00Z</time>
      </trkpt>
      <trkpt lat="54.720099996775389" lon="26.621922003105283">
        <ele>179.41999999999999</ele>
        <time>2011-08-16T08:01:01Z</time>
      </trkpt>
      <trkpt lat="54.720089016482234" lon="26.621824018657207">
        <ele>179.90000000000001</ele>
        <time>2011-08-16T08:01:02Z</time>
      </trkpt>
      <trkpt lat="54.720069989562035" lon="26.621730979532003">
        <ele>178.94</ele>
        <time>2011-08-16T08:01:03Z</time>
      </trkpt>
      <trkpt lat="54.720050962641835" lon="26.621639030054212">
        <ele>178.94</ele>
        <time>2011-08-16T08:01:04Z</time>
      </trkpt>
      <trkpt lat="54.720020033419132" lon="26.621554959565401">
        <ele>178.94</ele>
        <time>2011-08-16T08:01:05Z</time>
      </trkpt>
      <trkpt lat="54.719986002892256" lon="26.621481031179428">
        <ele>178.94</ele>
        <time>2011-08-16T08:01:06Z</time>
      </trkpt>
      <trkpt lat="54.719948032870889" lon="26.621410036459565">
        <ele>178.94</ele>
        <time>2011-08-16T08:01:07Z</time>
      </trkpt>
      <trkpt lat="54.719570009037852" lon="26.620735041797161">
        <ele>177.97999999999999</ele>
        <time>2011-08-16T08:01:16Z</time>
      </trkpt>
      <trkpt lat="54.719143034890294" lon="26.619830969721079">
        <ele>176.53999999999999</ele>
        <time>2011-08-16T08:01:28Z</time>
      </trkpt>
      <trkpt lat="54.718673983588815" lon="26.618732018396258">
        <ele>175.09999999999999</ele>
        <time>2011-08-16T08:01:44Z</time>
      </trkpt>
      <trkpt lat="54.718181965872645" lon="26.617598030716181">
        <ele>173.66</ele>
        <time>2011-08-16T08:02:00Z</time>
      </trkpt>
      <trkpt lat="54.717750968411565" lon="26.616654982790351">
        <ele>172.21000000000001</ele>
        <time>2011-08-16T08:02:14Z</time>
      </trkpt>
      <trkpt lat="54.717421978712082" lon="26.61592299118638">
        <ele>170.77000000000001</ele>
        <time>2011-08-16T08:02:24Z</time>
      </trkpt>
      <trkpt lat="54.716948987916112" lon="26.614803001284599">
        <ele>166.93000000000001</ele>
        <time>2011-08-16T08:02:37Z</time>
      </trkpt>
      <trkpt lat="54.716216996312141" lon="26.613088985905051">
        <ele>164.03999999999999</ele>
        <time>2011-08-16T08:02:57Z</time>
      </trkpt>
      <trkpt lat="54.715744005516171" lon="26.61190596409142">
        <ele>163.08000000000001</ele>
        <time>2011-08-16T08:03:13Z</time>
      </trkpt>
      <trkpt lat="54.715462038293481" lon="26.611190987750888">
        <ele>163.56</ele>
        <time>2011-08-16T08:03:24Z</time>
      </trkpt>
      <trkpt lat="54.715163977816701" lon="26.610396970063448">
        <ele>162.59999999999999</ele>
        <time>2011-08-16T08:03:36Z</time>
      </trkpt>
      <trkpt lat="54.71505400724709" lon="26.610018024221063">
        <ele>162.12</ele>
        <time>2011-08-16T08:03:42Z</time>
      </trkpt>
      <trkpt lat="54.714965997263789" lon="26.6097760386765">
        <ele>162.59999999999999</ele>
        <time>2011-08-16T08:03:46Z</time>
      </trkpt>
      <trkpt lat="54.714512033388019" lon="26.608568038791418">
        <ele>162.12</ele>
        <time>2011-08-16T08:04:04Z</time>
      </trkpt>
      <trkpt lat="54.714370965957642" lon="26.608170988038182">
        <ele>161.63999999999999</ele>
        <time>2011-08-16T08:04:10Z</time>
      </trkpt>
      <trkpt lat="54.714191006496549" lon="26.607744013890624">
        <ele>161.16</ele>
        <time>2011-08-16T08:04:16Z</time>
      </trkpt>
      <trkpt lat="54.714077012613416" lon="26.607443019747734">
        <ele>161.16</ele>
        <time>2011-08-16T08:04:20Z</time>
      </trkpt>
      <trkpt lat="54.713692031800747" lon="26.606156984344125">
        <ele>161.16</ele>
        <time>2011-08-16T08:04:37Z</time>
      </trkpt>
      <trkpt lat="54.713553981855512" lon="26.605666978284717">
        <ele>160.68000000000001</ele>
        <time>2011-08-16T08:04:43Z</time>
      </trkpt>
      <trkpt lat="54.713412998244166" lon="26.605228018015623">
        <ele>160.19999999999999</ele>
        <time>2011-08-16T08:04:49Z</time>
      </trkpt>
      <trkpt lat="54.713107980787754" lon="26.604257980361581">
        <ele>161.16</ele>
        <time>2011-08-16T08:05:03Z</time>
      </trkpt>
      <trkpt lat="54.712982000783086" lon="26.60391197539866">
        <ele>161.16</ele>
        <time>2011-08-16T08:05:08Z</time>
      </trkpt>
      <trkpt lat="54.712872030213475" lon="26.603612992912531">
        <ele>161.16</ele>
        <time>2011-08-16T08:05:13Z</time>
      </trkpt>
      <trkpt lat="54.712769016623497" lon="26.603379976004362">
        <ele>161.63999999999999</ele>
        <time>2011-08-16T08:05:17Z</time>
      </trkpt>
      <trkpt lat="54.712658040225506" lon="26.603132039308548">
        <ele>161.63999999999999</ele>
        <time>2011-08-16T08:05:21Z</time>
      </trkpt>
      <trkpt lat="54.712513033300638" lon="26.602763989940286">
        <ele>162.12</ele>
        <time>2011-08-16T08:05:27Z</time>
      </trkpt>
      <trkpt lat="54.712314968928695" lon="26.602290999144316">
        <ele>161.63999999999999</ele>
        <time>2011-08-16T08:05:35Z</time>
      </trkpt>
      <trkpt lat="54.711886988952756" lon="26.601171009242535">
        <ele>161.63999999999999</ele>
        <time>2011-08-16T08:05:52Z</time>
      </trkpt>
      <trkpt lat="54.711731001734734" lon="26.600815029814839">
        <ele>161.16</ele>
        <time>2011-08-16T08:05:58Z</time>
      </trkpt>
      <trkpt lat="54.711596975103021" lon="26.600535996258259">
        <ele>161.63999999999999</ele>
        <time>2011-08-16T08:06:03Z</time>
      </trkpt>
      <trkpt lat="54.711436964571476" lon="26.600080020725727">
        <ele>161.16</ele>
        <time>2011-08-16T08:06:10Z</time>
      </trkpt>
      <trkpt lat="54.71137996762991" lon="26.599880028516054">
        <ele>161.16</ele>
        <time>2011-08-16T08:06:13Z</time>
      </trkpt>
      <trkpt lat="54.711018037050962" lon="26.599104031920433">
        <ele>160.19999999999999</ele>
        <time>2011-08-16T08:06:26Z</time>
      </trkpt>
      <trkpt lat="54.710587039589882" lon="26.598220998421311">
        <ele>159.72</ele>
        <time>2011-08-16T08:06:41Z</time>
      </trkpt>
      <trkpt lat="54.710128968581557" lon="26.597268981859088">
        <ele>159.72</ele>
        <time>2011-08-16T08:06:57Z</time>
      </trkpt>
      <trkpt lat="54.709522034972906" lon="26.59609199501574">
        <ele>159.72</ele>
        <time>2011-08-16T08:07:18Z</time>
      </trkpt>
      <trkpt lat="54.70946503803134" lon="26.595427980646491">
        <ele>160.19999999999999</ele>
        <time>2011-08-16T08:07:29Z</time>
      </trkpt>
      <trkpt lat="54.709609961137176" lon="26.594488034024835">
        <ele>160.68000000000001</ele>
        <time>2011-08-16T08:07:44Z</time>
      </trkpt>
      <trkpt lat="54.709751028567553" lon="26.593884034082294">
        <ele>160.68000000000001</ele>
        <time>2011-08-16T08:07:54Z</time>
      </trkpt>
      <trkpt lat="54.709872985258698" lon="26.593228988349438">
        <ele>160.68000000000001</ele>
        <time>2011-08-16T08:08:04Z</time>
      </trkpt>
      <trkpt lat="54.709911039099097" lon="26.592851970344782">
        <ele>161.16</ele>
        <time>2011-08-16T08:08:09Z</time>
      </trkpt>
      <trkpt lat="54.709995025768876" lon="26.592278983443975">
        <ele>161.16</ele>
        <time>2011-08-16T08:08:17Z</time>
      </trkpt>
      <trkpt lat="54.710189988836646" lon="26.591269969940186">
        <ele>160.68000000000001</ele>
        <time>2011-08-16T08:08:31Z</time>
      </trkpt>
      <trkpt lat="54.710224019363523" lon="26.59104198217392">
        <ele>160.19999999999999</ele>
        <time>2011-08-16T08:08:34Z</time>
      </trkpt>
      <trkpt lat="54.710270036011934" lon="26.590636968612671">
        <ele>160.19999999999999</ele>
        <time>2011-08-16T08:08:39Z</time>
      </trkpt>
      <trkpt lat="54.710327032953501" lon="26.590348966419697">
        <ele>160.19999999999999</ele>
        <time>2011-08-16T08:08:43Z</time>
      </trkpt>
      <trkpt lat="54.710376989096403" lon="26.590057024732232">
        <ele>160.68000000000001</ele>
        <time>2011-08-16T08:08:47Z</time>
      </trkpt>
      <trkpt lat="54.710486959666014" lon="26.589378006756306">
        <ele>160.68000000000001</ele>
        <time>2011-08-16T08:08:56Z</time>
      </trkpt>
      <trkpt lat="54.710517972707748" lon="26.589075000956655">
        <ele>160.19999999999999</ele>
        <time>2011-08-16T08:09:00Z</time>
      </trkpt>
      <trkpt lat="54.710529036819935" lon="26.588912978768349">
        <ele>160.68000000000001</ele>
        <time>2011-08-16T08:09:02Z</time>
      </trkpt>
      <trkpt lat="54.710556026548147" lon="26.58850897103548">
        <ele>160.19999999999999</ele>
        <time>2011-08-16T08:09:07Z</time>
      </trkpt>
      <trkpt lat="54.710589973255992" lon="26.587817966938019">
        <ele>160.68000000000001</ele>
        <time>2011-08-16T08:09:16Z</time>
      </trkpt>
      <trkpt lat="54.710601959377527" lon="26.587445978075266">
        <ele>159.72</ele>
        <time>2011-08-16T08:09:21Z</time>
      </trkpt>
      <trkpt lat="54.710517972707748" lon="26.58681096509099">
        <ele>161.16</ele>
        <time>2011-08-16T08:09:32Z</time>
      </trkpt>
      <trkpt lat="54.710281016305089" lon="26.58627100288868">
        <ele>160.19999999999999</ele>
        <time>2011-08-16T08:09:43Z</time>
      </trkpt>
      <trkpt lat="54.710094016045332" lon="26.585832964628935">
        <ele>159.24000000000001</ele>
        <time>2011-08-16T08:09:53Z</time>
      </trkpt>
      <trkpt lat="54.709842978045344" lon="26.585180014371872">
        <ele>159.24000000000001</ele>
        <time>2011-08-16T08:10:07Z</time>
      </trkpt>
      <trkpt lat="54.709564028307796" lon="26.584514994174242">
        <ele>159.72</ele>
        <time>2011-08-16T08:10:20Z</time>
      </trkpt>
      <trkpt lat="54.709362024441361" lon="26.583920968696475">
        <ele>159.72</ele>
        <time>2011-08-16T08:10:30Z</time>
      </trkpt>
      <trkpt lat="54.709182986989617" lon="26.583186965435743">
        <ele>159.72</ele>
        <time>2011-08-16T08:10:41Z</time>
      </trkpt>
      <trkpt lat="54.709087014198303" lon="26.582696959376335">
        <ele>159.72</ele>
        <time>2011-08-16T08:10:48Z</time>
      </trkpt>
      <trkpt lat="54.709019036963582" lon="26.582422032952309">
        <ele>159.72</ele>
        <time>2011-08-16T08:10:52Z</time>
      </trkpt>
      <trkpt lat="54.708777973428369" lon="26.581552997231483">
        <ele>159.24000000000001</ele>
        <time>2011-08-16T08:11:05Z</time>
      </trkpt>
      <trkpt lat="54.708729023113847" lon="26.581270024180412">
        <ele>159.72</ele>
        <time>2011-08-16T08:11:09Z</time>
      </trkpt>
      <trkpt lat="54.708366002887487" lon="26.579992035403848">
        <ele>159.24000000000001</ele>
        <time>2011-08-16T08:11:28Z</time>
      </trkpt>
      <trkpt lat="54.708041958510876" lon="26.578756039962173">
        <ele>159.72</ele>
        <time>2011-08-16T08:11:46Z</time>
      </trkpt>
      <trkpt lat="54.707970041781664" lon="26.578488992527127">
        <ele>159.72</ele>
        <time>2011-08-16T08:11:50Z</time>
      </trkpt>
      <trkpt lat="54.707656977698207" lon="26.577389035373926">
        <ele>159.72</ele>
        <time>2011-08-16T08:12:07Z</time>
      </trkpt>
      <trkpt lat="54.707378027960658" lon="26.576413968577981">
        <ele>158.75</ele>
        <time>2011-08-16T08:12:23Z</time>
      </trkpt>
      <trkpt lat="54.707213994115591" lon="26.575868977233768">
        <ele>158.75</ele>
        <time>2011-08-16T08:12:32Z</time>
      </trkpt>
      <trkpt lat="54.707194967195392" lon="26.575808962807059">
        <ele>158.75</ele>
        <time>2011-08-16T08:12:33Z</time>
      </trkpt>
      <trkpt lat="54.707179963588715" lon="26.57574500888586">
        <ele>158.27000000000001</ele>
        <time>2011-08-16T08:12:34Z</time>
      </trkpt>
      <trkpt lat="54.70716898329556" lon="26.57568197697401">
        <ele>158.27000000000001</ele>
        <time>2011-08-16T08:12:35Z</time>
      </trkpt>
      <trkpt lat="54.707150040194392" lon="26.575619028881192">
        <ele>158.75</ele>
        <time>2011-08-16T08:12:36Z</time>
      </trkpt>
      <trkpt lat="54.707134030759335" lon="26.575558008626103">
        <ele>158.75</ele>
        <time>2011-08-16T08:12:37Z</time>
      </trkpt>
      <trkpt lat="54.707001009956002" lon="26.575089963153005">
        <ele>159.24000000000001</ele>
        <time>2011-08-16T08:12:51Z</time>
      </trkpt>
      <trkpt lat="54.707001009956002" lon="26.575089963153005">
        <ele>158.75</ele>
        <time>2011-08-16T08:13:20Z</time>
      </trkpt>
      <trkpt lat="54.706939989700913" lon="26.574864992871881">
        <ele>159.24000000000001</ele>
        <time>2011-08-16T08:13:37Z</time>
      </trkpt>
      <trkpt lat="54.706730023026466" lon="26.57406996935606">
        <ele>159.24000000000001</ele>
        <time>2011-08-16T08:13:54Z</time>
      </trkpt>
      <trkpt lat="54.706908976659179" lon="26.573765035718679">
        <ele>159.24000000000001</ele>
        <time>2011-08-16T08:14:08Z</time>
      </trkpt>
      <trkpt lat="54.707245007157326" lon="26.573244016617537">
        <ele>159.24000000000001</ele>
        <time>2011-08-16T08:14:24Z</time>
      </trkpt>
      <trkpt lat="54.707324970513582" lon="26.573185008019209">
        <ele>159.24000000000001</ele>
        <time>2011-08-16T08:14:33Z</time>
      </trkpt>
      <trkpt lat="54.707321031019092" lon="26.573189031332731">
        <ele>158.75</ele>
        <time>2011-08-16T08:14:53Z</time>
      </trkpt>
      <trkpt lat="54.707321031019092" lon="26.573197999969125">
        <ele>158.75</ele>
        <time>2011-08-16T08:15:03Z</time>
      </trkpt>
      <trkpt lat="54.707328993827105" lon="26.573195988312364">
        <ele>159.24000000000001</ele>
        <time>2011-08-16T08:15:20Z</time>
      </trkpt>
      <trkpt lat="54.707328993827105" lon="26.573200011625886">
        <ele>158.75</ele>
        <time>2011-08-16T08:15:57Z</time>
      </trkpt>
      <trkpt lat="54.707328993827105" lon="26.573200011625886">
        <ele>158.75</ele>
        <time>2011-08-16T08:16:34Z</time>
      </trkpt>
      <trkpt lat="54.707328993827105" lon="26.573200011625886">
        <ele>159.24000000000001</ele>
        <time>2011-08-16T08:17:15Z</time>
      </trkpt>
      <trkpt lat="54.707328993827105" lon="26.573200011625886">
        <ele>159.24000000000001</ele>
        <time>2011-08-16T08:17:49Z</time>
      </trkpt>
      <trkpt lat="54.707333017140627" lon="26.573192970827222">
        <ele>159.24000000000001</ele>
        <time>2011-08-16T08:18:22Z</time>
      </trkpt>
      <trkpt lat="54.707348020747304" lon="26.573170004412532">
        <ele>159.24000000000001</ele>
        <time>2011-08-16T08:18:24Z</time>
      </trkpt>
      <trkpt lat="54.707385990768671" lon="26.573136979714036">
        <ele>159.24000000000001</ele>
        <time>2011-08-16T08:18:38Z</time>
      </trkpt>
      <trkpt lat="54.707385990768671" lon="26.573136979714036">
        <ele>159.72</ele>
        <time>2011-08-16T08:19:02Z</time>
      </trkpt>
      <trkpt lat="54.707385990768671" lon="26.573128011077642">
        <ele>159.24000000000001</ele>
        <time>2011-08-16T08:19:28Z</time>
      </trkpt>
      <trkpt lat="54.707385990768671" lon="26.573128011077642">
        <ele>159.24000000000001</ele>
        <time>2011-08-16T08:19:56Z</time>
      </trkpt>
      <trkpt lat="54.707385990768671" lon="26.573130022734404">
        <ele>159.24000000000001</ele>
        <time>2011-08-16T08:20:21Z</time>
      </trkpt>
      <trkpt lat="54.707385990768671" lon="26.573130022734404">
        <ele>159.24000000000001</ele>
        <time>2011-08-16T08:20:39Z</time>
      </trkpt>
      <trkpt lat="54.70740501768887" lon="26.573116024956107">
        <ele>159.72</ele>
        <time>2011-08-16T08:20:41Z</time>
      </trkpt>
      <trkpt lat="54.707710035145283" lon="26.572903040796518">
        <ele>159.24000000000001</ele>
        <time>2011-08-16T08:20:54Z</time>
      </trkpt>
      <trkpt lat="54.708316968753934" lon="26.57273699529469">
        <ele>159.24000000000001</ele>
        <time>2011-08-16T08:21:11Z</time>
      </trkpt>
      <trkpt lat="54.708724999800324" lon="26.572762979194522">
        <ele>158.75</ele>
        <time>2011-08-16T08:21:23Z</time>
      </trkpt>
      <trkpt lat="54.708828013390303" lon="26.572226034477353">
        <ele>158.75</ele>
        <time>2011-08-16T08:21:33Z</time>
      </trkpt>
      <trkpt lat="54.708614023402333" lon="26.571380970999599">
        <ele>158.27000000000001</ele>
        <time>2011-08-16T08:21:48Z</time>
      </trkpt>
      <trkpt lat="54.708385029807687" lon="26.570456027984619">
        <ele>158.27000000000001</ele>
        <time>2011-08-16T08:22:04Z</time>
      </trkpt>
      <trkpt lat="54.708138015121222" lon="26.569453971460462">
        <ele>158.75</ele>
        <time>2011-08-16T08:22:21Z</time>
      </trkpt>
      <trkpt lat="54.708294002339244" lon="26.56889003701508">
        <ele>159.72</ele>
        <time>2011-08-16T08:22:32Z</time>
      </trkpt>
      <trkpt lat="54.708709996193647" lon="26.568488962948322">
        <ele>159.72</ele>
        <time>2011-08-16T08:22:47Z</time>
      </trkpt>
      <trkpt lat="54.709118027240038" lon="26.568142035976052">
        <ele>159.24000000000001</ele>
        <time>2011-08-16T08:23:02Z</time>
      </trkpt>
      <trkpt lat="54.709311984479427" lon="26.568041034042835">
        <ele>158.75</ele>
        <time>2011-08-16T08:23:08Z</time>
      </trkpt>
      <trkpt lat="54.709365963935852" lon="26.567798964679241">
        <ele>158.27000000000001</ele>
        <time>2011-08-16T08:23:13Z</time>
      </trkpt>
      <trkpt lat="54.709301004186273" lon="26.567401997745037">
        <ele>158.27000000000001</ele>
        <time>2011-08-16T08:23:25Z</time>
      </trkpt>
      <trkpt lat="54.709175024181604" lon="26.567069990560412">
        <ele>158.75</ele>
        <time>2011-08-16T08:23:36Z</time>
      </trkpt>
      <trkpt lat="54.709048960357904" lon="26.566460039466619">
        <ele>158.27000000000001</ele>
        <time>2011-08-16T08:23:49Z</time>
      </trkpt>
      <trkpt lat="54.70899598672986" lon="26.566043961793184">
        <ele>157.78999999999999</ele>
        <time>2011-08-16T08:23:59Z</time>
      </trkpt>
      <trkpt lat="54.708976959809661" lon="26.565913958474994">
        <ele>157.78999999999999</ele>
        <time>2011-08-16T08:24:03Z</time>
      </trkpt>
      <trkpt lat="54.708912000060081" lon="26.56560298986733">
        <ele>157.78999999999999</ele>
        <time>2011-08-16T08:24:13Z</time>
      </trkpt>
      <trkpt lat="54.708904037252069" lon="26.565550016239285">
        <ele>157.31</ele>
        <time>2011-08-16T08:24:15Z</time>
      </trkpt>
      <trkpt lat="54.708855003118515" lon="26.565493019297719">
        <ele>157.31</ele>
        <time>2011-08-16T08:24:28Z</time>
      </trkpt>
      <trkpt lat="54.70854202285409" lon="26.565398974344134">
        <ele>157.78999999999999</ele>
        <time>2011-08-16T08:24:41Z</time>
      </trkpt>
      <trkpt lat="54.708210015669465" lon="26.565228989347816">
        <ele>157.78999999999999</ele>
        <time>2011-08-16T08:24:53Z</time>
      </trkpt>
      <trkpt lat="54.707912039011717" lon="26.565145002678037">
        <ele>157.78999999999999</ele>
        <time>2011-08-16T08:25:05Z</time>
      </trkpt>
      <trkpt lat="54.707783041521907" lon="26.565048024058342">
        <ele>157.78999999999999</ele>
        <time>2011-08-16T08:25:17Z</time>
      </trkpt>
      <trkpt lat="54.707786981016397" lon="26.564835039898753">
        <ele>158.27000000000001</ele>
        <time>2011-08-16T08:25:23Z</time>
      </trkpt>
      <trkpt lat="54.707801984623075" lon="26.564489034935832">
        <ele>157.78999999999999</ele>
        <time>2011-08-16T08:25:34Z</time>
      </trkpt>
      <trkpt lat="54.707789998501539" lon="26.564506972208619">
        <ele>157.78999999999999</ele>
        <time>2011-08-16T08:25:46Z</time>
      </trkpt>
      <trkpt lat="54.707789998501539" lon="26.564506972208619">
        <ele>157.78999999999999</ele>
        <time>2011-08-16T08:25:49Z</time>
      </trkpt>
      <trkpt lat="54.70777097158134" lon="26.564597999677062">
        <ele>157.78999999999999</ele>
        <time>2011-08-16T08:25:54Z</time>
      </trkpt>
      <trkpt lat="54.707767032086849" lon="26.564699001610279">
        <ele>157.78999999999999</ele>
        <time>2011-08-16T08:25:58Z</time>
      </trkpt>
      <trkpt lat="54.707759991288185" lon="26.564976023510098">
        <ele>157.31</ele>
        <time>2011-08-16T08:26:06Z</time>
      </trkpt>
      <trkpt lat="54.70777097158134" lon="26.565057998523116">
        <ele>157.78999999999999</ele>
        <time>2011-08-16T08:26:09Z</time>
      </trkpt>
      <trkpt lat="54.707946991547942" lon="26.565134022384882">
        <ele>157.78999999999999</ele>
        <time>2011-08-16T08:26:20Z</time>
      </trkpt>
      <trkpt lat="54.707966018468142" lon="26.565139973536134">
        <ele>157.78999999999999</ele>
        <time>2011-08-16T08:26:21Z</time>
      </trkpt>
      <trkpt lat="54.70809199847281" lon="26.565181966871023">
        <ele>157.78999999999999</ele>
        <time>2011-08-16T08:26:26Z</time>
      </trkpt>
      <trkpt lat="54.708190988749266" lon="26.5651969704777">
        <ele>158.27000000000001</ele>
        <time>2011-08-16T08:26:30Z</time>
      </trkpt>
      <trkpt lat="54.708599019795656" lon="26.565440967679024">
        <ele>158.75</ele>
        <time>2011-08-16T08:26:46Z</time>
      </trkpt>
      <trkpt lat="54.708705972880125" lon="26.565469969063997">
        <ele>157.78999999999999</ele>
        <time>2011-08-16T08:26:51Z</time>
      </trkpt>
      <trkpt lat="54.70882399007678" lon="26.565439039841294">
        <ele>158.27000000000001</ele>
        <time>2011-08-16T08:27:03Z</time>
      </trkpt>
      <trkpt lat="54.708828013390303" lon="26.56543199904263">
        <ele>157.78999999999999</ele>
        <time>2011-08-16T08:27:23Z</time>
      </trkpt>
      <trkpt lat="54.708828013390303" lon="26.56543199904263">
        <ele>157.31</ele>
        <time>2011-08-16T08:27:49Z</time>
      </trkpt>
      <trkpt lat="54.708838993683457" lon="26.565425964072347">
        <ele>157.78999999999999</ele>
        <time>2011-08-16T08:28:18Z</time>
      </trkpt>
      <trkpt lat="54.708847040310502" lon="26.565420012921095">
        <ele>157.78999999999999</ele>
        <time>2011-08-16T08:28:53Z</time>
      </trkpt>
      <trkpt lat="54.708847040310502" lon="26.565415989607573">
        <ele>157.31</ele>
        <time>2011-08-16T08:29:29Z</time>
      </trkpt>
      <trkpt lat="54.708850979804993" lon="26.565412972122431">
        <ele>157.31</ele>
        <time>2011-08-16T08:30:03Z</time>
      </trkpt>
      <trkpt lat="54.708855003118515" lon="26.565413977950811">
        <ele>157.31</ele>
        <time>2011-08-16T08:30:42Z</time>
      </trkpt>
      <trkpt lat="54.708855003118515" lon="26.565413977950811">
        <ele>157.78999999999999</ele>
        <time>2011-08-16T08:31:15Z</time>
      </trkpt>
      <trkpt lat="54.708855003118515" lon="26.565420012921095">
        <ele>157.31</ele>
        <time>2011-08-16T08:31:48Z</time>
      </trkpt>
      <trkpt lat="54.708855003118515" lon="26.565412972122431">
        <ele>156.83000000000001</ele>
        <time>2011-08-16T08:32:21Z</time>
      </trkpt>
      <trkpt lat="54.708861960098147" lon="26.56540903262794">
        <ele>156.83000000000001</ele>
        <time>2011-08-16T08:32:57Z</time>
      </trkpt>
      <trkpt lat="54.70886598341167" lon="26.56541096046567">
        <ele>156.83000000000001</ele>
        <time>2011-08-16T08:33:34Z</time>
      </trkpt>
      <trkpt lat="54.708870006725192" lon="26.565412972122431">
        <ele>156.83000000000001</ele>
        <time>2011-08-16T08:34:13Z</time>
      </trkpt>
      <trkpt lat="54.708877969533205" lon="26.56541096046567">
        <ele>156.83000000000001</ele>
        <time>2011-08-16T08:34:55Z</time>
      </trkpt>
      <trkpt lat="54.708877969533205" lon="26.565412972122431">
        <ele>157.31</ele>
        <time>2011-08-16T08:35:35Z</time>
      </trkpt>
      <trkpt lat="54.708880987018347" lon="26.56541096046567">
        <ele>156.34999999999999</ele>
        <time>2011-08-16T08:36:15Z</time>
      </trkpt>
      <trkpt lat="54.708877969533205" lon="26.565413977950811">
        <ele>156.83000000000001</ele>
        <time>2011-08-16T08:36:54Z</time>
      </trkpt>
      <trkpt lat="54.708877969533205" lon="26.565424036234617">
        <ele>156.83000000000001</ele>
        <time>2011-08-16T08:37:33Z</time>
      </trkpt>
      <trkpt lat="54.708877969533205" lon="26.565425964072347">
        <ele>156.34999999999999</ele>
        <time>2011-08-16T08:38:10Z</time>
      </trkpt>
      <trkpt lat="54.708877969533205" lon="26.565422024577856">
        <ele>156.34999999999999</ele>
        <time>2011-08-16T08:38:45Z</time>
      </trkpt>
      <trkpt lat="54.708880987018347" lon="26.565424036234617">
        <ele>156.34999999999999</ele>
        <time>2011-08-16T08:39:23Z</time>
      </trkpt>
      <trkpt lat="54.708877969533205" lon="26.565427975729108">
        <ele>157.31</ele>
        <time>2011-08-16T08:40:01Z</time>
      </trkpt>
      <trkpt lat="54.708877969533205" lon="26.565427975729108">
        <ele>156.83000000000001</ele>
        <time>2011-08-16T08:40:39Z</time>
      </trkpt>
      <trkpt lat="54.708877969533205" lon="26.565425964072347">
        <ele>156.34999999999999</ele>
        <time>2011-08-16T08:41:15Z</time>
      </trkpt>
      <trkpt lat="54.708889033645391" lon="26.565425964072347">
        <ele>155.87</ele>
        <time>2011-08-16T08:41:51Z</time>
      </trkpt>
      <trkpt lat="54.708896996453404" lon="26.56540903262794">
        <ele>155.87</ele>
        <time>2011-08-16T08:42:25Z</time>
      </trkpt>
      <trkpt lat="54.708900013938546" lon="26.56540903262794">
        <ele>155.87</ele>
        <time>2011-08-16T08:43:00Z</time>
      </trkpt>
      <trkpt lat="54.708889033645391" lon="26.565412972122431">
        <ele>155.87</ele>
        <time>2011-08-16T08:43:37Z</time>
      </trkpt>
      <trkpt lat="54.708889033645391" lon="26.56540903262794">
        <ele>155.87</ele>
        <time>2011-08-16T08:44:16Z</time>
      </trkpt>
      <trkpt lat="54.708892973139882" lon="26.565405009314418">
        <ele>155.87</ele>
        <time>2011-08-16T08:44:56Z</time>
      </trkpt>
      <trkpt lat="54.708892973139882" lon="26.565405009314418">
        <ele>156.34999999999999</ele>
        <time>2011-08-16T08:45:30Z</time>
      </trkpt>
      <trkpt lat="54.708889033645391" lon="26.565405009314418">
        <ele>155.87</ele>
        <time>2011-08-16T08:46:09Z</time>
      </trkpt>
      <trkpt lat="54.708892973139882" lon="26.56540903262794">
        <ele>155.87</ele>
        <time>2011-08-16T08:46:54Z</time>
      </trkpt>
      <trkpt lat="54.708892973139882" lon="26.565420012921095">
        <ele>155.87</ele>
        <time>2011-08-16T08:47:35Z</time>
      </trkpt>
      <trkpt lat="54.708892973139882" lon="26.565424036234617">
        <ele>155.87</ele>
        <time>2011-08-16T08:48:11Z</time>
      </trkpt>
      <trkpt lat="54.708892973139882" lon="26.565418001264334">
        <ele>155.87</ele>
        <time>2011-08-16T08:48:55Z</time>
      </trkpt>
      <trkpt lat="54.708892973139882" lon="26.565413977950811">
        <ele>155.87</ele>
        <time>2011-08-16T08:49:31Z</time>
      </trkpt>
      <trkpt lat="54.708892973139882" lon="26.565420012921095">
        <ele>156.34999999999999</ele>
        <time>2011-08-16T08:50:10Z</time>
      </trkpt>
      <trkpt lat="54.708896996453404" lon="26.56543199904263">
        <ele>155.87</ele>
        <time>2011-08-16T08:50:54Z</time>
      </trkpt>
      <trkpt lat="54.708896996453404" lon="26.565442979335785">
        <ele>155.87</ele>
        <time>2011-08-16T08:51:33Z</time>
      </trkpt>
      <trkpt lat="54.708896996453404" lon="26.565435016527772">
        <ele>155.87</ele>
        <time>2011-08-16T08:52:15Z</time>
      </trkpt>
      <trkpt lat="54.708896996453404" lon="26.56543199904263">
        <ele>156.34999999999999</ele>
        <time>2011-08-16T08:52:54Z</time>
      </trkpt>
      <trkpt lat="54.708900013938546" lon="26.565434010699391">
        <ele>155.87</ele>
        <time>2011-08-16T08:53:32Z</time>
      </trkpt>
      <trkpt lat="54.708900013938546" lon="26.565429987385869">
        <ele>155.87</ele>
        <time>2011-08-16T08:54:19Z</time>
      </trkpt>
      <trkpt lat="54.708900013938546" lon="26.565425964072347">
        <ele>155.87</ele>
        <time>2011-08-16T08:55:01Z</time>
      </trkpt>
      <trkpt lat="54.708900013938546" lon="26.565434010699391">
        <ele>156.34999999999999</ele>
        <time>2011-08-16T08:55:44Z</time>
      </trkpt>
      <trkpt lat="54.708900013938546" lon="26.565437028184533">
        <ele>156.34999999999999</ele>
        <time>2011-08-16T08:56:22Z</time>
      </trkpt>
      <trkpt lat="54.708896996453404" lon="26.565444990992546">
        <ele>156.34999999999999</ele>
        <time>2011-08-16T08:57:11Z</time>
      </trkpt>
      <trkpt lat="54.708892973139882" lon="26.565442979335785">
        <ele>156.83000000000001</ele>
        <time>2011-08-16T08:57:49Z</time>
      </trkpt>
      <trkpt lat="54.708896996453404" lon="26.565437028184533">
        <ele>156.34999999999999</ele>
        <time>2011-08-16T08:58:30Z</time>
      </trkpt>
      <trkpt lat="54.708900013938546" lon="26.565435016527772">
        <ele>156.34999999999999</ele>
        <time>2011-08-16T08:59:05Z</time>
      </trkpt>
      <trkpt lat="54.708900013938546" lon="26.565434010699391">
        <ele>156.34999999999999</ele>
        <time>2011-08-16T08:59:44Z</time>
      </trkpt>
      <trkpt lat="54.708892973139882" lon="26.565434010699391">
        <ele>156.34999999999999</ele>
        <time>2011-08-16T09:00:28Z</time>
      </trkpt>
      <trkpt lat="54.708896996453404" lon="26.565435016527772">
        <ele>156.34999999999999</ele>
        <time>2011-08-16T09:00:59Z</time>
      </trkpt>
      <trkpt lat="54.708892973139882" lon="26.56543199904263">
        <ele>156.34999999999999</ele>
        <time>2011-08-16T09:01:32Z</time>
      </trkpt>
      <trkpt lat="54.708892973139882" lon="26.56543199904263">
        <ele>156.34999999999999</ele>
        <time>2011-08-16T09:01:40Z</time>
      </trkpt>
      <trkpt lat="54.708889033645391" lon="26.565439039841294">
        <ele>156.83000000000001</ele>
        <time>2011-08-16T09:02:13Z</time>
      </trkpt>
      <trkpt lat="54.708889033645391" lon="26.565434010699391">
        <ele>156.34999999999999</ele>
        <time>2011-08-16T09:02:50Z</time>
      </trkpt>
      <trkpt lat="54.708889033645391" lon="26.565434010699391">
        <ele>156.34999999999999</ele>
        <time>2011-08-16T09:03:24Z</time>
      </trkpt>
      <trkpt lat="54.708885010331869" lon="26.565424036234617">
        <ele>156.34999999999999</ele>
        <time>2011-08-16T09:04:01Z</time>
      </trkpt>
      <trkpt lat="54.708885010331869" lon="26.565424036234617">
        <ele>155.87</ele>
        <time>2011-08-16T09:04:34Z</time>
      </trkpt>
      <trkpt lat="54.708885010331869" lon="26.565422024577856">
        <ele>155.87</ele>
        <time>2011-08-16T09:05:08Z</time>
      </trkpt>
      <trkpt lat="54.708885010331869" lon="26.565418001264334">
        <ele>156.34999999999999</ele>
        <time>2011-08-16T09:05:45Z</time>
      </trkpt>
      <trkpt lat="54.708880987018347" lon="26.565420012921095">
        <ele>155.87</ele>
        <time>2011-08-16T09:06:25Z</time>
      </trkpt>
      <trkpt lat="54.708885010331869" lon="26.565434010699391">
        <ele>155.87</ele>
        <time>2011-08-16T09:06:58Z</time>
      </trkpt>
      <trkpt lat="54.708892973139882" lon="26.565442979335785">
        <ele>155.87</ele>
        <time>2011-08-16T09:07:18Z</time>
      </trkpt>
      <trkpt lat="54.708904037252069" lon="26.565521014854312">
        <ele>156.34999999999999</ele>
        <time>2011-08-16T09:07:44Z</time>
      </trkpt>
      <trkpt lat="54.708904037252069" lon="26.565556973218918">
        <ele>155.87</ele>
        <time>2011-08-16T09:07:46Z</time>
      </trkpt>
      <trkpt lat="54.708942007273436" lon="26.56573299318552">
        <ele>155.87</ele>
        <time>2011-08-16T09:07:52Z</time>
      </trkpt>
      <trkpt lat="54.708991963416338" lon="26.565966010093689">
        <ele>156.34999999999999</ele>
        <time>2011-08-16T09:07:59Z</time>
      </trkpt>
      <trkpt lat="54.709052983671427" lon="26.566421985626221">
        <ele>156.34999999999999</ele>
        <time>2011-08-16T09:08:12Z</time>
      </trkpt>
      <trkpt lat="54.709125990048051" lon="26.566816018894315">
        <ele>157.31</ele>
        <time>2011-08-16T09:08:23Z</time>
      </trkpt>
      <trkpt lat="54.709250964224339" lon="26.567276017740369">
        <ele>157.78999999999999</ele>
        <time>2011-08-16T09:08:36Z</time>
      </trkpt>
      <trkpt lat="54.709404017776251" lon="26.567709026858211">
        <ele>156.83000000000001</ele>
        <time>2011-08-16T09:08:49Z</time>
      </trkpt>
      <trkpt lat="54.709202013909817" lon="26.568155027925968">
        <ele>156.83000000000001</ele>
        <time>2011-08-16T09:09:02Z</time>
      </trkpt>
      <trkpt lat="54.708789959549904" lon="26.568376980721951">
        <ele>158.27000000000001</ele>
        <time>2011-08-16T09:09:18Z</time>
      </trkpt>
      <trkpt lat="54.708439009264112" lon="26.568712005391717">
        <ele>158.27000000000001</ele>
        <time>2011-08-16T09:09:31Z</time>
      </trkpt>
      <trkpt lat="54.708099039271474" lon="26.56919103115797">
        <ele>157.78999999999999</ele>
        <time>2011-08-16T09:09:45Z</time>
      </trkpt>
      <trkpt lat="54.708138015121222" lon="26.569758988916874">
        <ele>157.31</ele>
        <time>2011-08-16T09:09:55Z</time>
      </trkpt>
      <trkpt lat="54.708309005945921" lon="26.570429038256407">
        <ele>157.31</ele>
        <time>2011-08-16T09:10:08Z</time>
      </trkpt>
      <trkpt lat="54.708515033125877" lon="26.571250967681408">
        <ele>157.31</ele>
        <time>2011-08-16T09:10:24Z</time>
      </trkpt>
      <trkpt lat="54.708751989528537" lon="26.572116985917091">
        <ele>156.83000000000001</ele>
        <time>2011-08-16T09:10:42Z</time>
      </trkpt>
      <trkpt lat="54.708687029778957" lon="26.572732971981168">
        <ele>157.31</ele>
        <time>2011-08-16T09:10:56Z</time>
      </trkpt>
      <trkpt lat="54.708346975967288" lon="26.572749987244606">
        <ele>157.31</ele>
        <time>2011-08-16T09:11:09Z</time>
      </trkpt>
      <trkpt lat="54.707904998213053" lon="26.57275602221489">
        <ele>157.31</ele>
        <time>2011-08-16T09:11:24Z</time>
      </trkpt>
      <trkpt lat="54.707553964108229" lon="26.572980992496014">
        <ele>157.78999999999999</ele>
        <time>2011-08-16T09:11:36Z</time>
      </trkpt>
      <trkpt lat="54.707324970513582" lon="26.573153994977474">
        <ele>153.94999999999999</ele>
        <time>2011-08-16T09:11:44Z</time>
      </trkpt>
      <trkpt lat="54.70729798078537" lon="26.573175033554435">
        <ele>157.78999999999999</ele>
        <time>2011-08-16T09:11:45Z</time>
      </trkpt>
      <trkpt lat="54.706965973600745" lon="26.573636960238218">
        <ele>157.31</ele>
        <time>2011-08-16T09:11:59Z</time>
      </trkpt>
      <trkpt lat="54.706634972244501" lon="26.574081033468246">
        <ele>157.78999999999999</ele>
        <time>2011-08-16T09:12:15Z</time>
      </trkpt>
      <trkpt lat="54.70632903277874" lon="26.57437096349895">
        <ele>157.78999999999999</ele>
        <time>2011-08-16T09:12:27Z</time>
      </trkpt>
      <trkpt lat="54.706302965059876" lon="26.574388984590769">
        <ele>157.78999999999999</ele>
        <time>2011-08-16T09:12:28Z</time>
      </trkpt>
      <trkpt lat="54.706181008368731" lon="26.574320001527667">
        <ele>157.31</ele>
        <time>2011-08-16T09:12:33Z</time>
      </trkpt>
      <trkpt lat="54.705832991749048" lon="26.573914987966418">
        <ele>157.31</ele>
        <time>2011-08-16T09:12:47Z</time>
      </trkpt>
      <trkpt lat="54.705452034249902" lon="26.573620028793812">
        <ele>157.78999999999999</ele>
        <time>2011-08-16T09:13:02Z</time>
      </trkpt>
      <trkpt lat="54.705173000693321" lon="26.573407966643572">
        <ele>157.78999999999999</ele>
        <time>2011-08-16T09:13:13Z</time>
      </trkpt>
      <trkpt lat="54.704867983236909" lon="26.57310102134943">
        <ele>157.78999999999999</ele>
        <time>2011-08-16T09:13:25Z</time>
      </trkpt>
      <trkpt lat="54.704619962722063" lon="26.572826011106372">
        <ele>157.78999999999999</ele>
        <time>2011-08-16T09:13:35Z</time>
      </trkpt>
      <trkpt lat="54.704372026026249" lon="26.5726069919765">
        <ele>158.27000000000001</ele>
        <time>2011-08-16T09:13:46Z</time>
      </trkpt>
      <trkpt lat="54.704216038808227" lon="26.572397025302052">
        <ele>157.78999999999999</ele>
        <time>2011-08-16T09:13:54Z</time>
      </trkpt>
      <trkpt lat="54.704116964712739" lon="26.572313038632274">
        <ele>157.78999999999999</ele>
        <time>2011-08-16T09:13:59Z</time>
      </trkpt>
      <trkpt lat="54.703978998586535" lon="26.572043979540467">
        <ele>157.78999999999999</ele>
        <time>2011-08-16T09:14:08Z</time>
      </trkpt>
      <trkpt lat="54.703941028565168" lon="26.57192001119256">
        <ele>157.78999999999999</ele>
        <time>2011-08-16T09:14:12Z</time>
      </trkpt>
      <trkpt lat="54.703914960846305" lon="26.571839964017272">
        <ele>157.31</ele>
        <time>2011-08-16T09:14:17Z</time>
      </trkpt>
      <trkpt lat="54.703785041347146" lon="26.571535030379891">
        <ele>157.31</ele>
        <time>2011-08-16T09:14:28Z</time>
      </trkpt>
      <trkpt lat="54.703724021092057" lon="26.571408966556191">
        <ele>156.83000000000001</ele>
        <time>2011-08-16T09:14:32Z</time>
      </trkpt>
      <trkpt lat="54.703670963644981" lon="26.571249039843678">
        <ele>157.31</ele>
        <time>2011-08-16T09:14:36Z</time>
      </trkpt>
      <trkpt lat="54.703552024438977" lon="26.570920972153544">
        <ele>156.83000000000001</ele>
        <time>2011-08-16T09:14:45Z</time>
      </trkpt>
      <trkpt lat="54.703528974205256" lon="26.570819970220327">
        <ele>156.34999999999999</ele>
        <time>2011-08-16T09:14:48Z</time>
      </trkpt>
      <trkpt lat="54.703402994200587" lon="26.57058703713119">
        <ele>155.87</ele>
        <time>2011-08-16T09:14:56Z</time>
      </trkpt>
      <trkpt lat="54.703357983380556" lon="26.57048000022769">
        <ele>156.34999999999999</ele>
        <time>2011-08-16T09:15:01Z</time>
      </trkpt>
      <trkpt lat="54.703273996710777" lon="26.570353014394641">
        <ele>155.87</ele>
        <time>2011-08-16T09:15:04Z</time>
      </trkpt>
      <trkpt lat="54.703143993392587" lon="26.570078004151583">
        <ele>156.34999999999999</ele>
        <time>2011-08-16T09:15:13Z</time>
      </trkpt>
      <trkpt lat="54.703124966472387" lon="26.569880023598671">
        <ele>156.34999999999999</ele>
        <time>2011-08-16T09:15:18Z</time>
      </trkpt>
      <trkpt lat="54.703117003664374" lon="26.569783966988325">
        <ele>156.34999999999999</ele>
        <time>2011-08-16T09:15:20Z</time>
      </trkpt>
      <trkpt lat="54.702994963154197" lon="26.569543993100524">
        <ele>157.31</ele>
        <time>2011-08-16T09:15:27Z</time>
      </trkpt>
      <trkpt lat="54.70295699313283" lon="26.569460006430745">
        <ele>156.34999999999999</ele>
        <time>2011-08-16T09:15:30Z</time>
      </trkpt>
      <trkpt lat="54.702816009521484" lon="26.569172004237771">
        <ele>155.87</ele>
        <time>2011-08-16T09:15:37Z</time>
      </trkpt>
      <trkpt lat="54.702811986207962" lon="26.569092040881515">
        <ele>155.87</ele>
        <time>2011-08-16T09:15:39Z</time>
      </trkpt>
      <trkpt lat="54.702705033123493" lon="26.568872015923262">
        <ele>155.38999999999999</ele>
        <time>2011-08-16T09:15:45Z</time>
      </trkpt>
      <trkpt lat="54.702599002048373" lon="26.568645033985376">
        <ele>155.38999999999999</ele>
        <time>2011-08-16T09:15:56Z</time>
      </trkpt>
      <trkpt lat="54.702582992613316" lon="26.568606980144978">
        <ele>155.38999999999999</ele>
        <time>2011-08-16T09:15:59Z</time>
      </trkpt>
      <trkpt lat="54.70248400233686" lon="26.568169025704265">
        <ele>155.87</ele>
        <time>2011-08-16T09:16:10Z</time>
      </trkpt>
      <trkpt lat="54.702473022043705" lon="26.56807498075068">
        <ele>155.87</ele>
        <time>2011-08-16T09:16:12Z</time>
      </trkpt>
      <trkpt lat="54.702431028708816" lon="26.567535018548369">
        <ele>155.38999999999999</ele>
        <time>2011-08-16T09:16:25Z</time>
      </trkpt>
      <trkpt lat="54.702343018725514" lon="26.56719203107059">
        <ele>155.87</ele>
        <time>2011-08-16T09:16:36Z</time>
      </trkpt>
      <trkpt lat="54.702271018177271" lon="26.566715016961098">
        <ele>156.34999999999999</ele>
        <time>2011-08-16T09:16:48Z</time>
      </trkpt>
      <trkpt lat="54.702244028449059" lon="26.56665600836277">
        <ele>156.34999999999999</ele>
        <time>2011-08-16T09:16:50Z</time>
      </trkpt>
      <trkpt lat="54.702208992093801" lon="26.566434977576137">
        <ele>156.34999999999999</ele>
        <time>2011-08-16T09:16:56Z</time>
      </trkpt>
      <trkpt lat="54.70220597460866" lon="26.566238002851605">
        <ele>156.83000000000001</ele>
        <time>2011-08-16T09:17:01Z</time>
      </trkpt>
      <trkpt lat="54.702102961018682" lon="26.565836006775498">
        <ele>156.83000000000001</ele>
        <time>2011-08-16T09:17:12Z</time>
      </trkpt>
      <trkpt lat="54.702102961018682" lon="26.565801976248622">
        <ele>157.31</ele>
        <time>2011-08-16T09:17:13Z</time>
      </trkpt>
      <trkpt lat="54.702110001817346" lon="26.565597960725427">
        <ele>157.31</ele>
        <time>2011-08-16T09:17:18Z</time>
      </trkpt>
      <trkpt lat="54.702090974897146" lon="26.565358992666006">
        <ele>157.78999999999999</ele>
        <time>2011-08-16T09:17:25Z</time>
      </trkpt>
      <trkpt lat="54.702068008482456" lon="26.565004019066691">
        <ele>158.27000000000001</ele>
        <time>2011-08-16T09:17:33Z</time>
      </trkpt>
      <trkpt lat="54.702002964913845" lon="26.564509989693761">
        <ele>158.75</ele>
        <time>2011-08-16T09:17:44Z</time>
      </trkpt>
      <trkpt lat="54.701945967972279" lon="26.564384009689093">
        <ele>158.75</ele>
        <time>2011-08-16T09:17:48Z</time>
      </trkpt>
      <trkpt lat="54.701813030987978" lon="26.563982013612986">
        <ele>158.75</ele>
        <time>2011-08-16T09:17:58Z</time>
      </trkpt>
      <trkpt lat="54.701683027669787" lon="26.563684036955237">
        <ele>158.75</ele>
        <time>2011-08-16T09:18:06Z</time>
      </trkpt>
      <trkpt lat="54.70156098715961" lon="26.563423024490476">
        <ele>158.75</ele>
        <time>2011-08-16T09:18:15Z</time>
      </trkpt>
      <trkpt lat="54.701533997431397" lon="26.563406009227037">
        <ele>158.75</ele>
        <time>2011-08-16T09:18:17Z</time>
      </trkpt>
      <trkpt lat="54.701503990218043" lon="26.563214985653758">
        <ele>158.27000000000001</ele>
        <time>2011-08-16T09:18:21Z</time>
      </trkpt>
      <trkpt lat="54.701274996623397" lon="26.562706036493182">
        <ele>157.78999999999999</ele>
        <time>2011-08-16T09:18:33Z</time>
      </trkpt>
      <trkpt lat="54.701233003288507" lon="26.562577961012721">
        <ele>157.31</ele>
        <time>2011-08-16T09:18:36Z</time>
      </trkpt>
      <trkpt lat="54.70106896944344" lon="26.562304040417075">
        <ele>157.78999999999999</ele>
        <time>2011-08-16T09:18:43Z</time>
      </trkpt>
      <trkpt lat="54.700953969731927" lon="26.562130032107234">
        <ele>157.78999999999999</ele>
        <time>2011-08-16T09:18:49Z</time>
      </trkpt>
      <trkpt lat="54.70091599971056" lon="26.562012014910579">
        <ele>157.78999999999999</ele>
        <time>2011-08-16T09:18:52Z</time>
      </trkpt>
      <trkpt lat="54.700812986120582" lon="26.561737004667521">
        <ele>158.27000000000001</ele>
        <time>2011-08-16T09:18:59Z</time>
      </trkpt>
      <trkpt lat="54.700698992237449" lon="26.561505999416113">
        <ele>158.27000000000001</ele>
        <time>2011-08-16T09:19:06Z</time>
      </trkpt>
      <trkpt lat="54.700672002509236" lon="26.56145503744483">
        <ele>158.75</ele>
        <time>2011-08-16T09:19:08Z</time>
      </trkpt>
      <trkpt lat="54.700622968375683" lon="26.56115697696805">
        <ele>158.27000000000001</ele>
        <time>2011-08-16T09:19:15Z</time>
      </trkpt>
      <trkpt lat="54.700588015839458" lon="26.561028985306621">
        <ele>158.75</ele>
        <time>2011-08-16T09:19:32Z</time>
      </trkpt>
      <trkpt lat="54.700583992525935" lon="26.561003001406789">
        <ele>158.75</ele>
        <time>2011-08-16T09:19:48Z</time>
      </trkpt>
      <trkpt lat="54.700580975040793" lon="26.560966037213802">
        <ele>158.27000000000001</ele>
        <time>2011-08-16T09:20:14Z</time>
      </trkpt>
      <trkpt lat="54.700580975040793" lon="26.560966037213802">
        <ele>158.75</ele>
        <time>2011-08-16T09:20:35Z</time>
      </trkpt>
      <trkpt lat="54.70057301223278" lon="26.560925971716642">
        <ele>157.78999999999999</ele>
        <time>2011-08-16T09:21:00Z</time>
      </trkpt>
      <trkpt lat="54.70057301223278" lon="26.560925971716642">
        <ele>160.19999999999999</ele>
        <time>2011-08-16T09:21:08Z</time>
      </trkpt>
      <trkpt lat="54.70057301223278" lon="26.560925971716642">
        <ele>159.72</ele>
        <time>2011-08-16T09:21:27Z</time>
      </trkpt>
      <trkpt lat="54.700564965605736" lon="26.560894036665559">
        <ele>159.72</ele>
        <time>2011-08-16T09:21:51Z</time>
      </trkpt>
      <trkpt lat="54.700553985312581" lon="26.560860006138682">
        <ele>159.72</ele>
        <time>2011-08-16T09:22:17Z</time>
      </trkpt>
      <trkpt lat="54.700553985312581" lon="26.560860006138682">
        <ele>160.19999999999999</ele>
        <time>2011-08-16T09:22:40Z</time>
      </trkpt>
      <trkpt lat="54.700549961999059" lon="26.560846008360386">
        <ele>160.68000000000001</ele>
        <time>2011-08-16T09:23:02Z</time>
      </trkpt>
      <trkpt lat="54.700541999191046" lon="26.560835028067231">
        <ele>160.19999999999999</ele>
        <time>2011-08-16T09:23:19Z</time>
      </trkpt>
      <trkpt lat="54.700531018897891" lon="26.560811977833509">
        <ele>160.19999999999999</ele>
        <time>2011-08-16T09:23:44Z</time>
      </trkpt>
      <trkpt lat="54.700531018897891" lon="26.560811977833509">
        <ele>160.68000000000001</ele>
        <time>2011-08-16T09:24:04Z</time>
      </trkpt>
      <trkpt lat="54.700489025563002" lon="26.560574015602469">
        <ele>160.68000000000001</ele>
        <time>2011-08-16T09:24:15Z</time>
      </trkpt>
      <trkpt lat="54.700480978935957" lon="26.560552977025509">
        <ele>160.68000000000001</ele>
        <time>2011-08-16T09:24:16Z</time>
      </trkpt>
      <trkpt lat="54.70044300891459" lon="26.560510983690619">
        <ele>160.19999999999999</ele>
        <time>2011-08-16T09:24:19Z</time>
      </trkpt>
      <trkpt lat="54.700435968115926" lon="26.560390032827854">
        <ele>161.16</ele>
        <time>2011-08-16T09:24:33Z</time>
      </trkpt>
      <trkpt lat="54.700435968115926" lon="26.560390032827854">
        <ele>160.68000000000001</ele>
        <time>2011-08-16T09:24:54Z</time>
      </trkpt>
      <trkpt lat="54.700432028621435" lon="26.560385003685951">
        <ele>161.16</ele>
        <time>2011-08-16T09:25:22Z</time>
      </trkpt>
      <trkpt lat="54.700432028621435" lon="26.560385003685951">
        <ele>161.16</ele>
        <time>2011-08-16T09:25:41Z</time>
      </trkpt>
      <trkpt lat="54.700438985601068" lon="26.560250977054238">
        <ele>161.63999999999999</ele>
        <time>2011-08-16T09:25:59Z</time>
      </trkpt>
      <trkpt lat="54.700417025014758" lon="26.560158021748066">
        <ele>161.16</ele>
        <time>2011-08-16T09:26:03Z</time>
      </trkpt>
      <trkpt lat="54.700393974781036" lon="26.560068000108004">
        <ele>161.16</ele>
        <time>2011-08-16T09:26:07Z</time>
      </trkpt>
      <trkpt lat="54.700386011973023" lon="26.560021983459592">
        <ele>161.16</ele>
        <time>2011-08-16T09:26:09Z</time>
      </trkpt>
      <trkpt lat="54.700344018638134" lon="26.559870019555092">
        <ele>161.63999999999999</ele>
        <time>2011-08-16T09:26:12Z</time>
      </trkpt>
      <trkpt lat="54.700351981446147" lon="26.559457965195179">
        <ele>161.63999999999999</ele>
        <time>2011-08-16T09:26:23Z</time>
      </trkpt>
      <trkpt lat="54.700347958132625" lon="26.559403985738754">
        <ele>161.63999999999999</ele>
        <time>2011-08-16T09:26:25Z</time>
      </trkpt>
      <trkpt lat="54.700359022244811" lon="26.55935101211071">
        <ele>162.12</ele>
        <time>2011-08-16T09:26:27Z</time>
      </trkpt>
      <trkpt lat="54.70027201808989" lon="26.559010958299041">
        <ele>162.12</ele>
        <time>2011-08-16T09:26:38Z</time>
      </trkpt>
      <trkpt lat="54.700184008106589" lon="26.558790011331439">
        <ele>161.16</ele>
        <time>2011-08-16T09:26:46Z</time>
      </trkpt>
      <trkpt lat="54.699988961219788" lon="26.55844702385366">
        <ele>161.16</ele>
        <time>2011-08-16T09:26:56Z</time>
      </trkpt>
      <trkpt lat="54.699928024783731" lon="26.558287013322115">
        <ele>160.68000000000001</ele>
        <time>2011-08-16T09:27:01Z</time>
      </trkpt>
      <trkpt lat="54.699832974001765" lon="26.558172013610601">
        <ele>160.68000000000001</ele>
        <time>2011-08-16T09:27:05Z</time>
      </trkpt>
      <trkpt lat="54.699783017858863" lon="26.558113005012274">
        <ele>160.68000000000001</ele>
        <time>2011-08-16T09:27:08Z</time>
      </trkpt>
      <trkpt lat="54.699509013444185" lon="26.55821199528873">
        <ele>161.16</ele>
        <time>2011-08-16T09:27:19Z</time>
      </trkpt>
      <trkpt lat="54.699280019849539" lon="26.558372005820274">
        <ele>161.16</ele>
        <time>2011-08-16T09:27:30Z</time>
      </trkpt>
      <trkpt lat="54.699062006548047" lon="26.558507960289717">
        <ele>161.63999999999999</ele>
        <time>2011-08-16T09:27:40Z</time>
      </trkpt>
      <trkpt lat="54.698798982426524" lon="26.558746006339788">
        <ele>161.63999999999999</ele>
        <time>2011-08-16T09:27:50Z</time>
      </trkpt>
      <trkpt lat="54.698563031852245" lon="26.558930994942784">
        <ele>160.68000000000001</ele>
        <time>2011-08-16T09:27:59Z</time>
      </trkpt>
      <trkpt lat="54.698478961363435" lon="26.55896401964128">
        <ele>161.16</ele>
        <time>2011-08-16T09:28:02Z</time>
      </trkpt>
      <trkpt lat="54.698321968317032" lon="26.559073990210891">
        <ele>161.16</ele>
        <time>2011-08-16T09:28:15Z</time>
      </trkpt>
      <trkpt lat="54.698306964710355" lon="26.559070972725749">
        <ele>160.68000000000001</ele>
        <time>2011-08-16T09:28:19Z</time>
      </trkpt>
      <trkpt lat="54.698062967509031" lon="26.558968964964151">
        <ele>161.16</ele>
        <time>2011-08-16T09:28:35Z</time>
      </trkpt>
      <trkpt lat="54.698032038286328" lon="26.558933006599545">
        <ele>161.16</ele>
        <time>2011-08-16T09:28:37Z</time>
      </trkpt>
      <trkpt lat="54.697791980579495" lon="26.558768972754478">
        <ele>160.68000000000001</ele>
        <time>2011-08-16T09:28:50Z</time>
      </trkpt>
      <trkpt lat="54.697666000574827" lon="26.558678029105067">
        <ele>160.68000000000001</ele>
        <time>2011-08-16T09:28:57Z</time>
      </trkpt>
      <trkpt lat="54.697604980319738" lon="26.558636035770178">
        <ele>161.16</ele>
        <time>2011-08-16T09:29:01Z</time>
      </trkpt>
      <trkpt lat="54.697525016963482" lon="26.558535033836961">
        <ele>161.16</ele>
        <time>2011-08-16T09:29:07Z</time>
      </trkpt>
      <trkpt lat="54.697448993101716" lon="26.558408970013261">
        <ele>160.68000000000001</ele>
        <time>2011-08-16T09:29:12Z</time>
      </trkpt>
      <trkpt lat="54.697414040565491" lon="26.558354990556836">
        <ele>160.68000000000001</ele>
        <time>2011-08-16T09:29:14Z</time>
      </trkpt>
      <trkpt lat="54.69721999950707" lon="26.558194980025291">
        <ele>160.68000000000001</ele>
        <time>2011-08-16T09:29:22Z</time>
      </trkpt>
      <trkpt lat="54.696980025619268" lon="26.558154998347163">
        <ele>161.16</ele>
        <time>2011-08-16T09:29:32Z</time>
      </trkpt>
      <trkpt lat="54.696823032572865" lon="26.557746967300773">
        <ele>160.19999999999999</ele>
        <time>2011-08-16T09:29:44Z</time>
      </trkpt>
      <trkpt lat="54.696663022041321" lon="26.557258972898126">
        <ele>160.19999999999999</ele>
        <time>2011-08-16T09:29:56Z</time>
      </trkpt>
      <trkpt lat="54.696353981271386" lon="26.556926965713501">
        <ele>159.72</ele>
        <time>2011-08-16T09:30:10Z</time>
      </trkpt>
      <trkpt lat="54.696243004873395" lon="26.556771984323859">
        <ele>159.72</ele>
        <time>2011-08-16T09:30:16Z</time>
      </trkpt>
      <trkpt lat="54.696171004325151" lon="26.556767039000988">
        <ele>160.19999999999999</ele>
        <time>2011-08-16T09:30:19Z</time>
      </trkpt>
      <trkpt lat="54.696114007383585" lon="26.556584984064102">
        <ele>160.19999999999999</ele>
        <time>2011-08-16T09:30:24Z</time>
      </trkpt>
      <trkpt lat="54.695949973538518" lon="26.556307040154934">
        <ele>160.68000000000001</ele>
        <time>2011-08-16T09:30:34Z</time>
      </trkpt>
      <trkpt lat="54.69584695994854" lon="26.556190028786659">
        <ele>160.19999999999999</ele>
        <time>2011-08-16T09:30:40Z</time>
      </trkpt>
      <trkpt lat="54.695521993562579" lon="26.555997999384999">
        <ele>160.19999999999999</ele>
        <time>2011-08-16T09:30:53Z</time>
      </trkpt>
      <trkpt lat="54.695210019126534" lon="26.555890962481499">
        <ele>160.68000000000001</ele>
        <time>2011-08-16T09:31:07Z</time>
      </trkpt>
      <trkpt lat="54.694797964766622" lon="26.556015014648438">
        <ele>160.68000000000001</ele>
        <time>2011-08-16T09:31:22Z</time>
      </trkpt>
      <trkpt lat="54.694426981732249" lon="26.556226992979646">
        <ele>160.19999999999999</ele>
        <time>2011-08-16T09:31:36Z</time>
      </trkpt>
      <trkpt lat="54.694179967045784" lon="26.556461015716195">
        <ele>160.19999999999999</ele>
        <time>2011-08-16T09:31:48Z</time>
      </trkpt>
      <trkpt lat="54.693965977057815" lon="26.556648015975952">
        <ele>160.19999999999999</ele>
        <time>2011-08-16T09:31:58Z</time>
      </trkpt>
      <trkpt lat="54.693763973191381" lon="26.556692020967603">
        <ele>159.24000000000001</ele>
        <time>2011-08-16T09:32:06Z</time>
      </trkpt>
      <trkpt lat="54.693645033985376" lon="26.55632397159934">
        <ele>159.24000000000001</ele>
        <time>2011-08-16T09:32:15Z</time>
      </trkpt>
      <trkpt lat="54.693615026772022" lon="26.556249959394336">
        <ele>159.24000000000001</ele>
        <time>2011-08-16T09:32:17Z</time>
      </trkpt>
      <trkpt lat="54.693473959341645" lon="26.555944019928575">
        <ele>158.75</ele>
        <time>2011-08-16T09:32:30Z</time>
      </trkpt>
      <trkpt lat="54.693377986550331" lon="26.555758025497198">
        <ele>158.75</ele>
        <time>2011-08-16T09:32:42Z</time>
      </trkpt>
      <trkpt lat="54.693206995725632" lon="26.555210016667843">
        <ele>159.24000000000001</ele>
        <time>2011-08-16T09:32:55Z</time>
      </trkpt>
      <trkpt lat="54.693030975759029" lon="26.554667036980391">
        <ele>159.24000000000001</ele>
        <time>2011-08-16T09:33:07Z</time>
      </trkpt>
      <trkpt lat="54.692889992147684" lon="26.554198991507292">
        <ele>160.19999999999999</ele>
        <time>2011-08-16T09:33:18Z</time>
      </trkpt>
      <trkpt lat="54.692806005477905" lon="26.553658023476601">
        <ele>159.72</ele>
        <time>2011-08-16T09:33:29Z</time>
      </trkpt>
      <trkpt lat="54.692677007988095" lon="26.55318302102387">
        <ele>159.72</ele>
        <time>2011-08-16T09:33:40Z</time>
      </trkpt>
      <trkpt lat="54.692481961101294" lon="26.55249796807766">
        <ele>160.68000000000001</ele>
        <time>2011-08-16T09:33:55Z</time>
      </trkpt>
      <trkpt lat="54.692307030782104" lon="26.552152968943119">
        <ele>160.19999999999999</ele>
        <time>2011-08-16T09:34:05Z</time>
      </trkpt>
      <trkpt lat="54.69219203107059" lon="26.551936967298388">
        <ele>160.68000000000001</ele>
        <time>2011-08-16T09:34:13Z</time>
      </trkpt>
      <trkpt lat="54.69206596724689" lon="26.55178802087903">
        <ele>160.68000000000001</ele>
        <time>2011-08-16T09:34:18Z</time>
      </trkpt>
      <trkpt lat="54.691986003890634" lon="26.551687018945813">
        <ele>160.68000000000001</ele>
        <time>2011-08-16T09:34:22Z</time>
      </trkpt>
      <trkpt lat="54.691845020279288" lon="26.550879003480077">
        <ele>161.63999999999999</ele>
        <time>2011-08-16T09:34:36Z</time>
      </trkpt>
      <trkpt lat="54.691784000024199" lon="26.550137959420681">
        <ele>161.63999999999999</ele>
        <time>2011-08-16T09:34:49Z</time>
      </trkpt>
      <trkpt lat="54.69171904027462" lon="26.54938300140202">
        <ele>161.63999999999999</ele>
        <time>2011-08-16T09:35:05Z</time>
      </trkpt>
      <trkpt lat="54.691689033061266" lon="26.548666013404727">
        <ele>161.16</ele>
        <time>2011-08-16T09:35:19Z</time>
      </trkpt>
      <trkpt lat="54.69163496978581" lon="26.548440959304571">
        <ele>161.16</ele>
        <time>2011-08-16T09:35:24Z</time>
      </trkpt>
      <trkpt lat="54.691565986722708" lon="26.547787003219128">
        <ele>161.63999999999999</ele>
        <time>2011-08-16T09:35:38Z</time>
      </trkpt>
      <trkpt lat="54.691540002822876" lon="26.547713996842504">
        <ele>161.63999999999999</ele>
        <time>2011-08-16T09:35:40Z</time>
      </trkpt>
      <trkpt lat="54.691535979509354" lon="26.547536971047521">
        <ele>161.63999999999999</ele>
        <time>2011-08-16T09:35:44Z</time>
      </trkpt>
      <trkpt lat="54.69148300588131" lon="26.546854013577104">
        <ele>162.12</ele>
        <time>2011-08-16T09:35:59Z</time>
      </trkpt>
      <trkpt lat="54.691414022818208" lon="26.546088997274637">
        <ele>162.12</ele>
        <time>2011-08-16T09:36:15Z</time>
      </trkpt>
      <trkpt lat="54.691353002563119" lon="26.545401010662317">
        <ele>162.59999999999999</ele>
        <time>2011-08-16T09:36:29Z</time>
      </trkpt>
      <trkpt lat="54.691299023106694" lon="26.544721992686391">
        <ele>162.59999999999999</ele>
        <time>2011-08-16T09:36:43Z</time>
      </trkpt>
      <trkpt lat="54.691242026165128" lon="26.54394700191915">
        <ele>163.08000000000001</ele>
        <time>2011-08-16T09:36:58Z</time>
      </trkpt>
      <trkpt lat="54.691158039495349" lon="26.543114008381963">
        <ele>163.56</ele>
        <time>2011-08-16T09:37:14Z</time>
      </trkpt>
      <trkpt lat="54.69109701924026" lon="26.542353015393019">
        <ele>164.03999999999999</ele>
        <time>2011-08-16T09:37:29Z</time>
      </trkpt>
      <trkpt lat="54.691040022298694" lon="26.541651031002402">
        <ele>165</ele>
        <time>2011-08-16T09:37:44Z</time>
      </trkpt>
      <trkpt lat="54.691257029771805" lon="26.541349031031132">
        <ele>165.96000000000001</ele>
        <time>2011-08-16T09:37:55Z</time>
      </trkpt>
      <trkpt lat="54.69174200668931" lon="26.541033033281565">
        <ele>165.96000000000001</ele>
        <time>2011-08-16T09:38:11Z</time>
      </trkpt>
      <trkpt lat="54.692360004410148" lon="26.540640005841851">
        <ele>165.47999999999999</ele>
        <time>2011-08-16T09:38:29Z</time>
      </trkpt>
      <trkpt lat="54.693091996014118" lon="26.539947995916009">
        <ele>165.47999999999999</ele>
        <time>2011-08-16T09:38:49Z</time>
      </trkpt>
      <trkpt lat="54.693169025704265" lon="26.539855962619185">
        <ele>165.96000000000001</ele>
        <time>2011-08-16T09:38:51Z</time>
      </trkpt>
      <trkpt lat="54.693787023425102" lon="26.539124976843596">
        <ele>165</ele>
        <time>2011-08-16T09:39:07Z</time>
      </trkpt>
      <trkpt lat="54.69451499171555" lon="26.538267005234957">
        <ele>164.03999999999999</ele>
        <time>2011-08-16T09:39:26Z</time>
      </trkpt>
      <trkpt lat="54.69515603967011" lon="26.537535013630986">
        <ele>163.08000000000001</ele>
        <time>2011-08-16T09:39:43Z</time>
      </trkpt>
      <trkpt lat="54.696014011278749" lon="26.536514014005661">
        <ele>162.59999999999999</ele>
        <time>2011-08-16T09:40:05Z</time>
      </trkpt>
      <trkpt lat="54.696784978732467" lon="26.535622011870146">
        <ele>162.59999999999999</ele>
        <time>2011-08-16T09:40:24Z</time>
      </trkpt>
      <trkpt lat="54.697474977001548" lon="26.534819025546312">
        <ele>163.56</ele>
        <time>2011-08-16T09:40:41Z</time>
      </trkpt>
      <trkpt lat="54.698315011337399" lon="26.533830966800451">
        <ele>163.08000000000001</ele>
        <time>2011-08-16T09:41:02Z</time>
      </trkpt>
      <trkpt lat="54.698970979079604" lon="26.533071985468268">
        <ele>163.56</ele>
        <time>2011-08-16T09:41:20Z</time>
      </trkpt>
      <trkpt lat="54.699672963470221" lon="26.532146036624908">
        <ele>163.56</ele>
        <time>2011-08-16T09:41:39Z</time>
      </trkpt>
      <trkpt lat="54.699886031448841" lon="26.531811011955142">
        <ele>163.56</ele>
        <time>2011-08-16T09:41:45Z</time>
      </trkpt>
      <trkpt lat="54.700396992266178" lon="26.530553977936506">
        <ele>164.03999999999999</ele>
        <time>2011-08-16T09:42:06Z</time>
      </trkpt>
      <trkpt lat="54.700667979195714" lon="26.52974302880466">
        <ele>164.52000000000001</ele>
        <time>2011-08-16T09:42:21Z</time>
      </trkpt>
      <trkpt lat="54.700782978907228" lon="26.529381014406681">
        <ele>165</ele>
        <time>2011-08-16T09:42:27Z</time>
      </trkpt>
      <trkpt lat="54.70106502994895" lon="26.528460010886192">
        <ele>165</ele>
        <time>2011-08-16T09:42:43Z</time>
      </trkpt>
      <trkpt lat="54.701382033526897" lon="26.527501959353685">
        <ele>165.96000000000001</ele>
        <time>2011-08-16T09:43:00Z</time>
      </trkpt>
      <trkpt lat="54.701648997142911" lon="26.526643987745047">
        <ele>167.41</ele>
        <time>2011-08-16T09:43:16Z</time>
      </trkpt>
      <trkpt lat="54.701949991285801" lon="26.525948960334063">
        <ele>168.84999999999999</ele>
        <time>2011-08-16T09:43:32Z</time>
      </trkpt>
      <trkpt lat="54.702343018725514" lon="26.525247981771827">
        <ele>171.25</ele>
        <time>2011-08-16T09:43:50Z</time>
      </trkpt>
      <trkpt lat="54.702747026458383" lon="26.524534011259675">
        <ele>173.16999999999999</ele>
        <time>2011-08-16T09:44:09Z</time>
      </trkpt>
      <trkpt lat="54.703018013387918" lon="26.523951971903443">
        <ele>174.62</ele>
        <time>2011-08-16T09:44:24Z</time>
      </trkpt>
      <trkpt lat="54.703296963125467" lon="26.523283012211323">
        <ele>175.09999999999999</ele>
        <time>2011-08-16T09:44:39Z</time>
      </trkpt>
      <trkpt lat="54.703540960326791" lon="26.522322027012706">
        <ele>174.62</ele>
        <time>2011-08-16T09:44:55Z</time>
      </trkpt>
      <trkpt lat="54.703823011368513" lon="26.522080963477492">
        <ele>173.66</ele>
        <time>2011-08-16T09:45:03Z</time>
      </trkpt>
      <trkpt lat="54.70450202934444" lon="26.52209697291255">
        <ele>173.66</ele>
        <time>2011-08-16T09:45:19Z</time>
      </trkpt>
      <trkpt lat="54.705310966819525" lon="26.522128991782665">
        <ele>172.21000000000001</ele>
        <time>2011-08-16T09:45:39Z</time>
      </trkpt>
      <trkpt lat="54.705714974552393" lon="26.522195963189006">
        <ele>170.77000000000001</ele>
        <time>2011-08-16T09:45:48Z</time>
      </trkpt>
      <trkpt lat="54.706440009176731" lon="26.522322027012706">
        <ele>167.88999999999999</ele>
        <time>2011-08-16T09:46:00Z</time>
      </trkpt>
      <trkpt lat="54.707309966906905" lon="26.522379023954272">
        <ele>164.52000000000001</ele>
        <time>2011-08-16T09:46:13Z</time>
      </trkpt>
      <trkpt lat="54.708133991807699" lon="26.522404002025723">
        <ele>165.47999999999999</ele>
        <time>2011-08-16T09:46:28Z</time>
      </trkpt>
      <trkpt lat="54.708709996193647" lon="26.522392015904188">
        <ele>165.96000000000001</ele>
        <time>2011-08-16T09:46:43Z</time>
      </trkpt>
      <trkpt lat="54.709057006984949" lon="26.522410959005356">
        <ele>165</ele>
        <time>2011-08-16T09:46:49Z</time>
      </trkpt>
      <trkpt lat="54.710074989125133" lon="26.522684041410685">
        <ele>163.08000000000001</ele>
        <time>2011-08-16T09:47:05Z</time>
      </trkpt>
      <trkpt lat="54.710785020142794" lon="26.52282502502203">
        <ele>162.59999999999999</ele>
        <time>2011-08-16T09:47:20Z</time>
      </trkpt>
      <trkpt lat="54.711479041725397" lon="26.522862995043397">
        <ele>164.52000000000001</ele>
        <time>2011-08-16T09:47:38Z</time>
      </trkpt>
      <trkpt lat="54.71210902556777" lon="26.522843968123198">
        <ele>166.44999999999999</ele>
        <time>2011-08-16T09:47:55Z</time>
      </trkpt>
      <trkpt lat="54.712727023288608" lon="26.522843968123198">
        <ele>165.96000000000001</ele>
        <time>2011-08-16T09:48:11Z</time>
      </trkpt>
      <trkpt lat="54.713375028222799" lon="26.522876992821693">
        <ele>165.47999999999999</ele>
        <time>2011-08-16T09:48:28Z</time>
      </trkpt>
      <trkpt lat="54.713969975709915" lon="26.52291496284306">
        <ele>166.44999999999999</ele>
        <time>2011-08-16T09:48:44Z</time>
      </trkpt>
      <trkpt lat="54.714442966505885" lon="26.522957039996982">
        <ele>166.44999999999999</ele>
        <time>2011-08-16T09:48:58Z</time>
      </trkpt>
      <trkpt lat="54.714457970112562" lon="26.522944970056415">
        <ele>166.44999999999999</ele>
        <time>2011-08-16T09:48:59Z</time>
      </trkpt>
      <trkpt lat="54.714332995936275" lon="26.522797029465437">
        <ele>166.44999999999999</ele>
        <time>2011-08-16T09:49:06Z</time>
      </trkpt>
      <trkpt lat="54.714213972911239" lon="26.522803986445069">
        <ele>166.44999999999999</ele>
        <time>2011-08-16T09:49:10Z</time>
      </trkpt>
      <trkpt lat="54.714149013161659" lon="26.522667026147246">
        <ele>166.44999999999999</ele>
        <time>2011-08-16T09:49:14Z</time>
      </trkpt>
      <trkpt lat="54.714114982634783" lon="26.522135026752949">
        <ele>168.37</ele>
        <time>2011-08-16T09:49:28Z</time>
      </trkpt>
      <trkpt lat="54.714084975421429" lon="26.521779969334602">
        <ele>168.84999999999999</ele>
        <time>2011-08-16T09:49:41Z</time>
      </trkpt>
      <trkpt lat="54.714084975421429" lon="26.521779969334602">
        <ele>168.84999999999999</ele>
        <time>2011-08-16T09:50:10Z</time>
      </trkpt>
      <trkpt lat="54.714068965986371" lon="26.521646026521921">
        <ele>169.33000000000001</ele>
        <time>2011-08-16T09:50:21Z</time>
      </trkpt>
      <trkpt lat="54.714066032320261" lon="26.521625993773341">
        <ele>169.81</ele>
        <time>2011-08-16T09:50:50Z</time>
      </trkpt>
      <trkpt lat="54.714053962379694" lon="26.521587017923594">
        <ele>169.33000000000001</ele>
        <time>2011-08-16T09:51:03Z</time>
      </trkpt>
      <trkpt lat="54.714057985693216" lon="26.521589029580355">
        <ele>169.33000000000001</ele>
        <time>2011-08-16T09:51:39Z</time>
      </trkpt>
      <trkpt lat="54.714053962379694" lon="26.521587017923594">
        <ele>169.33000000000001</ele>
        <time>2011-08-16T09:52:15Z</time>
      </trkpt>
      <trkpt lat="54.714053962379694" lon="26.521587017923594">
        <ele>169.33000000000001</ele>
        <time>2011-08-16T09:52:51Z</time>
      </trkpt>
      <trkpt lat="54.714057985693216" lon="26.521591041237116">
        <ele>169.33000000000001</ele>
        <time>2011-08-16T09:53:23Z</time>
      </trkpt>
      <trkpt lat="54.714053962379694" lon="26.521585006266832">
        <ele>169.33000000000001</ele>
        <time>2011-08-16T09:54:02Z</time>
      </trkpt>
      <trkpt lat="54.714057985693216" lon="26.521585006266832">
        <ele>169.33000000000001</ele>
        <time>2011-08-16T09:54:37Z</time>
      </trkpt>
      <trkpt lat="54.714057985693216" lon="26.521584000438452">
        <ele>170.28999999999999</ele>
        <time>2011-08-16T09:54:56Z</time>
      </trkpt>
      <trkpt lat="54.714062009006739" lon="26.521619958803058">
        <ele>169.33000000000001</ele>
        <time>2011-08-16T09:55:06Z</time>
      </trkpt>
      <trkpt lat="54.714062009006739" lon="26.521619958803058">
        <ele>169.81</ele>
        <time>2011-08-16T09:55:31Z</time>
      </trkpt>
      <trkpt lat="54.714062009006739" lon="26.521621970459819">
        <ele>169.33000000000001</ele>
        <time>2011-08-16T09:55:53Z</time>
      </trkpt>
      <trkpt lat="54.714062009006739" lon="26.521621970459819">
        <ele>170.28999999999999</ele>
        <time>2011-08-16T09:56:19Z</time>
      </trkpt>
      <trkpt lat="54.714062009006739" lon="26.521626999601722">
        <ele>169.33000000000001</ele>
        <time>2011-08-16T09:56:45Z</time>
      </trkpt>
      <trkpt lat="54.714092016220093" lon="26.521772006526589">
        <ele>168.37</ele>
        <time>2011-08-16T09:56:51Z</time>
      </trkpt>
      <trkpt lat="54.714141972362995" lon="26.522355973720551">
        <ele>166.93000000000001</ele>
        <time>2011-08-16T09:57:05Z</time>
      </trkpt>
      <trkpt lat="54.714149013161659" lon="26.52273902669549">
        <ele>165.96000000000001</ele>
        <time>2011-08-16T09:57:16Z</time>
      </trkpt>
      <trkpt lat="54.714156975969672" lon="26.522790994495153">
        <ele>165.96000000000001</ele>
        <time>2011-08-16T09:57:22Z</time>
      </trkpt>
      <trkpt lat="54.714286979287863" lon="26.522931978106499">
        <ele>165.96000000000001</ele>
        <time>2011-08-16T09:57:30Z</time>
      </trkpt>
      <trkpt lat="54.714599959552288" lon="26.522856038063765">
        <ele>165.96000000000001</ele>
        <time>2011-08-16T09:57:42Z</time>
      </trkpt>
      <trkpt lat="54.714680006727576" lon="26.522860983386636">
        <ele>165.96000000000001</ele>
        <time>2011-08-16T09:57:53Z</time>
      </trkpt>
      <trkpt lat="54.714680006727576" lon="26.522860983386636">
        <ele>165.96000000000001</ele>
        <time>2011-08-16T09:58:13Z</time>
      </trkpt>
      <trkpt lat="54.714778997004032" lon="26.522928038612008">
        <ele>166.44999999999999</ele>
        <time>2011-08-16T09:58:21Z</time>
      </trkpt>
      <trkpt lat="54.715126007795334" lon="26.523147979751229">
        <ele>165.96000000000001</ele>
        <time>2011-08-16T09:58:35Z</time>
      </trkpt>
      <trkpt lat="54.715218041092157" lon="26.52304102666676">
        <ele>166.44999999999999</ele>
        <time>2011-08-16T09:58:39Z</time>
      </trkpt>
      <trkpt lat="54.715278977528214" lon="26.522770039737225">
        <ele>166.44999999999999</ele>
        <time>2011-08-16T09:58:51Z</time>
      </trkpt>
      <trkpt lat="54.715281995013356" lon="26.522771967574954">
        <ele>166.93000000000001</ele>
        <time>2011-08-16T09:59:04Z</time>
      </trkpt>
      <trkpt lat="54.715281995013356" lon="26.522771967574954">
        <ele>165.96000000000001</ele>
        <time>2011-08-16T09:59:35Z</time>
      </trkpt>
      <trkpt lat="54.715281995013356" lon="26.522766016423702">
        <ele>165.96000000000001</ele>
        <time>2011-08-16T10:00:13Z</time>
      </trkpt>
      <trkpt lat="54.715278977528214" lon="26.522766016423702">
        <ele>166.44999999999999</ele>
        <time>2011-08-16T10:00:47Z</time>
      </trkpt>
      <trkpt lat="54.715278977528214" lon="26.522768028080463">
        <ele>165.96000000000001</ele>
        <time>2011-08-16T10:01:28Z</time>
      </trkpt>
      <trkpt lat="54.715281995013356" lon="26.522768028080463">
        <ele>165.96000000000001</ele>
        <time>2011-08-16T10:02:09Z</time>
      </trkpt>
      <trkpt lat="54.715275038033724" lon="26.52276199311018">
        <ele>166.44999999999999</ele>
        <time>2011-08-16T10:02:38Z</time>
      </trkpt>
      <trkpt lat="54.715275038033724" lon="26.522757969796658">
        <ele>165.96000000000001</ele>
        <time>2011-08-16T10:03:12Z</time>
      </trkpt>
      <trkpt lat="54.715275038033724" lon="26.52276199311018">
        <ele>165.96000000000001</ele>
        <time>2011-08-16T10:03:40Z</time>
      </trkpt>
      <trkpt lat="54.715275038033724" lon="26.522759981453419">
        <ele>166.44999999999999</ele>
        <time>2011-08-16T10:04:22Z</time>
      </trkpt>
      <trkpt lat="54.715275038033724" lon="26.522759981453419">
        <ele>165.96000000000001</ele>
        <time>2011-08-16T10:04:53Z</time>
      </trkpt>
      <trkpt lat="54.715275038033724" lon="26.522756963968277">
        <ele>165.96000000000001</ele>
        <time>2011-08-16T10:05:31Z</time>
      </trkpt>
      <trkpt lat="54.715275038033724" lon="26.522753024473786">
        <ele>166.44999999999999</ele>
        <time>2011-08-16T10:06:07Z</time>
      </trkpt>
      <trkpt lat="54.715275038033724" lon="26.522755036130548">
        <ele>166.44999999999999</ele>
        <time>2011-08-16T10:06:47Z</time>
      </trkpt>
      <trkpt lat="54.715275038033724" lon="26.522753024473786">
        <ele>166.44999999999999</ele>
        <time>2011-08-16T10:07:26Z</time>
      </trkpt>
      <trkpt lat="54.715278977528214" lon="26.522751012817025">
        <ele>165.96000000000001</ele>
        <time>2011-08-16T10:08:07Z</time>
      </trkpt>
      <trkpt lat="54.715275038033724" lon="26.522746989503503">
        <ele>166.93000000000001</ele>
        <time>2011-08-16T10:08:45Z</time>
      </trkpt>
      <trkpt lat="54.715275038033724" lon="26.522755036130548">
        <ele>166.44999999999999</ele>
        <time>2011-08-16T10:09:25Z</time>
      </trkpt>
      <trkpt lat="54.715278977528214" lon="26.522753024473786">
        <ele>166.93000000000001</ele>
        <time>2011-08-16T10:10:01Z</time>
      </trkpt>
      <trkpt lat="54.715281995013356" lon="26.522756963968277">
        <ele>166.93000000000001</ele>
        <time>2011-08-16T10:10:41Z</time>
      </trkpt>
      <trkpt lat="54.715286018326879" lon="26.522764004766941">
        <ele>166.93000000000001</ele>
        <time>2011-08-16T10:11:18Z</time>
      </trkpt>
      <trkpt lat="54.715286018326879" lon="26.52276199311018">
        <ele>166.93000000000001</ele>
        <time>2011-08-16T10:11:49Z</time>
      </trkpt>
      <trkpt lat="54.715286018326879" lon="26.522764004766941">
        <ele>166.93000000000001</ele>
        <time>2011-08-16T10:12:23Z</time>
      </trkpt>
      <trkpt lat="54.715286018326879" lon="26.522764004766941">
        <ele>166.93000000000001</ele>
        <time>2011-08-16T10:12:57Z</time>
      </trkpt>
      <trkpt lat="54.715290041640401" lon="26.522764004766941">
        <ele>166.93000000000001</ele>
        <time>2011-08-16T10:13:31Z</time>
      </trkpt>
      <trkpt lat="54.715293981134892" lon="26.522764004766941">
        <ele>166.93000000000001</ele>
        <time>2011-08-16T10:14:05Z</time>
      </trkpt>
      <trkpt lat="54.715293981134892" lon="26.522757969796658">
        <ele>166.93000000000001</ele>
        <time>2011-08-16T10:14:36Z</time>
      </trkpt>
      <trkpt lat="54.715293981134892" lon="26.522764004766941">
        <ele>166.93000000000001</ele>
        <time>2011-08-16T10:15:10Z</time>
      </trkpt>
      <trkpt lat="54.715293981134892" lon="26.522771967574954">
        <ele>166.93000000000001</ele>
        <time>2011-08-16T10:15:47Z</time>
      </trkpt>
      <trkpt lat="54.715298004448414" lon="26.522775990888476">
        <ele>166.93000000000001</ele>
        <time>2011-08-16T10:16:19Z</time>
      </trkpt>
      <trkpt lat="54.715298004448414" lon="26.522775990888476">
        <ele>167.41</ele>
        <time>2011-08-16T10:16:51Z</time>
      </trkpt>
      <trkpt lat="54.715293981134892" lon="26.522775990888476">
        <ele>167.41</ele>
        <time>2011-08-16T10:17:33Z</time>
      </trkpt>
      <trkpt lat="54.715298004448414" lon="26.522778002545238">
        <ele>167.41</ele>
        <time>2011-08-16T10:18:14Z</time>
      </trkpt>
      <trkpt lat="54.715293981134892" lon="26.522771967574954">
        <ele>167.88999999999999</ele>
        <time>2011-08-16T10:18:59Z</time>
      </trkpt>
      <trkpt lat="54.715298004448414" lon="26.522771967574954">
        <ele>167.41</ele>
        <time>2011-08-16T10:19:45Z</time>
      </trkpt>
      <trkpt lat="54.715293981134892" lon="26.522771967574954">
        <ele>167.41</ele>
        <time>2011-08-16T10:20:25Z</time>
      </trkpt>
      <trkpt lat="54.715298004448414" lon="26.522773979231715">
        <ele>167.88999999999999</ele>
        <time>2011-08-16T10:21:04Z</time>
      </trkpt>
      <trkpt lat="54.715293981134892" lon="26.522773979231715">
        <ele>167.88999999999999</ele>
        <time>2011-08-16T10:21:43Z</time>
      </trkpt>
      <trkpt lat="54.715293981134892" lon="26.522773979231715">
        <ele>167.41</ele>
        <time>2011-08-16T10:22:22Z</time>
      </trkpt>
      <trkpt lat="54.715293981134892" lon="26.522773979231715">
        <ele>167.41</ele>
        <time>2011-08-16T10:23:00Z</time>
      </trkpt>
      <trkpt lat="54.715293981134892" lon="26.522770039737225">
        <ele>166.93000000000001</ele>
        <time>2011-08-16T10:23:44Z</time>
      </trkpt>
      <trkpt lat="54.715293981134892" lon="26.522766016423702">
        <ele>167.41</ele>
        <time>2011-08-16T10:24:26Z</time>
      </trkpt>
      <trkpt lat="54.715290041640401" lon="26.522766016423702">
        <ele>167.41</ele>
        <time>2011-08-16T10:25:07Z</time>
      </trkpt>
      <trkpt lat="54.715286018326879" lon="26.522768028080463">
        <ele>166.93000000000001</ele>
        <time>2011-08-16T10:25:49Z</time>
      </trkpt>
      <trkpt lat="54.715281995013356" lon="26.52276199311018">
        <ele>166.44999999999999</ele>
        <time>2011-08-16T10:26:33Z</time>
      </trkpt>
      <trkpt lat="54.715281995013356" lon="26.522756963968277">
        <ele>166.93000000000001</ele>
        <time>2011-08-16T10:27:10Z</time>
      </trkpt>
      <trkpt lat="54.715281995013356" lon="26.522766016423702">
        <ele>167.41</ele>
        <time>2011-08-16T10:27:49Z</time>
      </trkpt>
      <trkpt lat="54.715281995013356" lon="26.522766016423702">
        <ele>167.41</ele>
        <time>2011-08-16T10:28:29Z</time>
      </trkpt>
      <trkpt lat="54.715286018326879" lon="26.522771967574954">
        <ele>167.41</ele>
        <time>2011-08-16T10:29:04Z</time>
      </trkpt>
      <trkpt lat="54.715281995013356" lon="26.522766016423702">
        <ele>166.93000000000001</ele>
        <time>2011-08-16T10:29:44Z</time>
      </trkpt>
      <trkpt lat="54.715281995013356" lon="26.52276199311018">
        <ele>166.93000000000001</ele>
        <time>2011-08-16T10:30:23Z</time>
      </trkpt>
      <trkpt lat="54.715281995013356" lon="26.52276199311018">
        <ele>167.41</ele>
        <time>2011-08-16T10:30:57Z</time>
      </trkpt>
      <trkpt lat="54.715286018326879" lon="26.522759981453419">
        <ele>167.41</ele>
        <time>2011-08-16T10:31:37Z</time>
      </trkpt>
      <trkpt lat="54.715281995013356" lon="26.522742966189981">
        <ele>167.41</ele>
        <time>2011-08-16T10:32:19Z</time>
      </trkpt>
      <trkpt lat="54.715281995013356" lon="26.522742966189981">
        <ele>166.93000000000001</ele>
        <time>2011-08-16T10:32:57Z</time>
      </trkpt>
      <trkpt lat="54.715281995013356" lon="26.522744977846742">
        <ele>166.93000000000001</ele>
        <time>2011-08-16T10:33:33Z</time>
      </trkpt>
      <trkpt lat="54.715281995013356" lon="26.522751012817025">
        <ele>166.93000000000001</ele>
        <time>2011-08-16T10:34:11Z</time>
      </trkpt>
      <trkpt lat="54.715286018326879" lon="26.522756963968277">
        <ele>166.44999999999999</ele>
        <time>2011-08-16T10:34:46Z</time>
      </trkpt>
      <trkpt lat="54.715286018326879" lon="26.522753024473786">
        <ele>166.93000000000001</ele>
        <time>2011-08-16T10:35:27Z</time>
      </trkpt>
      <trkpt lat="54.715278977528214" lon="26.522744977846742">
        <ele>166.44999999999999</ele>
        <time>2011-08-16T10:36:08Z</time>
      </trkpt>
      <trkpt lat="54.715281995013356" lon="26.522749001160264">
        <ele>166.44999999999999</ele>
        <time>2011-08-16T10:36:47Z</time>
      </trkpt>
      <trkpt lat="54.715286018326879" lon="26.52273902669549">
        <ele>166.44999999999999</ele>
        <time>2011-08-16T10:37:26Z</time>
      </trkpt>
      <trkpt lat="54.715286018326879" lon="26.522736009210348">
        <ele>166.44999999999999</ele>
        <time>2011-08-16T10:38:06Z</time>
      </trkpt>
      <trkpt lat="54.715290041640401" lon="26.522733997553587">
        <ele>166.44999999999999</ele>
        <time>2011-08-16T10:38:50Z</time>
      </trkpt>
      <trkpt lat="54.715293981134892" lon="26.522731985896826">
        <ele>165.96000000000001</ele>
        <time>2011-08-16T10:39:29Z</time>
      </trkpt>
      <trkpt lat="54.715293981134892" lon="26.52273902669549">
        <ele>166.93000000000001</ele>
        <time>2011-08-16T10:40:07Z</time>
      </trkpt>
      <trkpt lat="54.715293981134892" lon="26.522741038352251">
        <ele>166.93000000000001</ele>
        <time>2011-08-16T10:40:43Z</time>
      </trkpt>
      <trkpt lat="54.715290041640401" lon="26.522741038352251">
        <ele>166.93000000000001</ele>
        <time>2011-08-16T10:41:24Z</time>
      </trkpt>
      <trkpt lat="54.715293981134892" lon="26.52273902669549">
        <ele>166.93000000000001</ele>
        <time>2011-08-16T10:42:03Z</time>
      </trkpt>
      <trkpt lat="54.715293981134892" lon="26.522741038352251">
        <ele>166.93000000000001</ele>
        <time>2011-08-16T10:42:41Z</time>
      </trkpt>
      <trkpt lat="54.715293981134892" lon="26.522726034745574">
        <ele>167.41</ele>
        <time>2011-08-16T10:43:15Z</time>
      </trkpt>
      <trkpt lat="54.715293981134892" lon="26.522726034745574">
        <ele>166.44999999999999</ele>
        <time>2011-08-16T10:43:55Z</time>
      </trkpt>
      <trkpt lat="54.715298004448414" lon="26.522727962583303">
        <ele>166.93000000000001</ele>
        <time>2011-08-16T10:44:31Z</time>
      </trkpt>
      <trkpt lat="54.715298004448414" lon="26.522726034745574">
        <ele>166.44999999999999</ele>
        <time>2011-08-16T10:45:03Z</time>
      </trkpt>
      <trkpt lat="54.715298004448414" lon="26.522726034745574">
        <ele>166.44999999999999</ele>
        <time>2011-08-16T10:45:37Z</time>
      </trkpt>
      <trkpt lat="54.715298004448414" lon="26.522729974240065">
        <ele>166.44999999999999</ele>
        <time>2011-08-16T10:46:12Z</time>
      </trkpt>
      <trkpt lat="54.715298004448414" lon="26.522733997553587">
        <ele>166.44999999999999</ele>
        <time>2011-08-16T10:46:46Z</time>
      </trkpt>
      <trkpt lat="54.715302027761936" lon="26.522733997553587">
        <ele>166.44999999999999</ele>
        <time>2011-08-16T10:47:20Z</time>
      </trkpt>
      <trkpt lat="54.715293981134892" lon="26.522729974240065">
        <ele>167.41</ele>
        <time>2011-08-16T10:47:48Z</time>
      </trkpt>
      <trkpt lat="54.715293981134892" lon="26.522722011432052">
        <ele>166.44999999999999</ele>
        <time>2011-08-16T10:48:24Z</time>
      </trkpt>
      <trkpt lat="54.715302027761936" lon="26.522724023088813">
        <ele>165.96000000000001</ele>
        <time>2011-08-16T10:49:00Z</time>
      </trkpt>
      <trkpt lat="54.715302027761936" lon="26.522724023088813">
        <ele>166.44999999999999</ele>
        <time>2011-08-16T10:49:37Z</time>
      </trkpt>
      <trkpt lat="54.715298004448414" lon="26.522738020867109">
        <ele>166.44999999999999</ele>
        <time>2011-08-16T10:50:11Z</time>
      </trkpt>
      <trkpt lat="54.715298004448414" lon="26.522733997553587">
        <ele>166.44999999999999</ele>
        <time>2011-08-16T10:50:48Z</time>
      </trkpt>
      <trkpt lat="54.715293981134892" lon="26.522731985896826">
        <ele>166.93000000000001</ele>
        <time>2011-08-16T10:51:20Z</time>
      </trkpt>
      <trkpt lat="54.715293981134892" lon="26.522731985896826">
        <ele>163.08000000000001</ele>
        <time>2011-08-16T10:51:36Z</time>
      </trkpt>
      <trkpt lat="54.715293981134892" lon="26.522731985896826">
        <ele>165.47999999999999</ele>
        <time>2011-08-16T10:51:37Z</time>
      </trkpt>
      <trkpt lat="54.715298004448414" lon="26.522731985896826">
        <ele>166.44999999999999</ele>
        <time>2011-08-16T10:51:39Z</time>
      </trkpt>
      <trkpt lat="54.715298004448414" lon="26.522731985896826">
        <ele>166.93000000000001</ele>
        <time>2011-08-16T10:51:58Z</time>
      </trkpt>
      <trkpt lat="54.715290041640401" lon="26.522738020867109">
        <ele>166.44999999999999</ele>
        <time>2011-08-16T10:52:08Z</time>
      </trkpt>
      <trkpt lat="54.715290041640401" lon="26.522738020867109">
        <ele>166.44999999999999</ele>
        <time>2011-08-16T10:52:32Z</time>
      </trkpt>
      <trkpt lat="54.715286018326879" lon="26.522742966189981">
        <ele>166.93000000000001</ele>
        <time>2011-08-16T10:53:10Z</time>
      </trkpt>
      <trkpt lat="54.715286018326879" lon="26.522742966189981">
        <ele>166.44999999999999</ele>
        <time>2011-08-16T10:53:16Z</time>
      </trkpt>
      <trkpt lat="54.715293981134892" lon="26.522823013365269">
        <ele>166.44999999999999</ele>
        <time>2011-08-16T10:53:32Z</time>
      </trkpt>
      <trkpt lat="54.715293981134892" lon="26.522823013365269">
        <ele>166.44999999999999</ele>
        <time>2011-08-16T10:53:57Z</time>
      </trkpt>
      <trkpt lat="54.715290041640401" lon="26.522823013365269">
        <ele>165.96000000000001</ele>
        <time>2011-08-16T10:54:34Z</time>
      </trkpt>
      <trkpt lat="54.715293981134892" lon="26.52282502502203">
        <ele>166.44999999999999</ele>
        <time>2011-08-16T10:55:05Z</time>
      </trkpt>
      <trkpt lat="54.715293981134892" lon="26.522828964516521">
        <ele>165.96000000000001</ele>
        <time>2011-08-16T10:55:30Z</time>
      </trkpt>
      <trkpt lat="54.715293981134892" lon="26.522828964516521">
        <ele>165.96000000000001</ele>
        <time>2011-08-16T10:55:47Z</time>
      </trkpt>
      <trkpt lat="54.715293981134892" lon="26.52284799143672">
        <ele>165.47999999999999</ele>
        <time>2011-08-16T10:56:09Z</time>
      </trkpt>
      <trkpt lat="54.715281995013356" lon="26.522859977558255">
        <ele>165.96000000000001</ele>
        <time>2011-08-16T10:56:16Z</time>
      </trkpt>
      <trkpt lat="54.715236984193325" lon="26.522929966449738">
        <ele>166.93000000000001</ele>
        <time>2011-08-16T10:56:20Z</time>
      </trkpt>
      <trkpt lat="54.71522499807179" lon="26.52304102666676">
        <ele>166.93000000000001</ele>
        <time>2011-08-16T10:56:24Z</time>
      </trkpt>
      <trkpt lat="54.715443011373281" lon="26.523325005546212">
        <ele>166.44999999999999</ele>
        <time>2011-08-16T10:56:36Z</time>
      </trkpt>
      <trkpt lat="54.71597702242434" lon="26.523593980818987">
        <ele>166.44999999999999</ele>
        <time>2011-08-16T10:56:53Z</time>
      </trkpt>
      <trkpt lat="54.716460993513465" lon="26.523852981626987">
        <ele>166.93000000000001</ele>
        <time>2011-08-16T10:57:08Z</time>
      </trkpt>
      <trkpt lat="54.716843040660024" lon="26.524054985493422">
        <ele>166.93000000000001</ele>
        <time>2011-08-16T10:57:20Z</time>
      </trkpt>
      <trkpt lat="54.717400018125772" lon="26.524344999343157">
        <ele>167.41</ele>
        <time>2011-08-16T10:57:36Z</time>
      </trkpt>
      <trkpt lat="54.718215996399522" lon="26.524758981540799">
        <ele>167.41</ele>
        <time>2011-08-16T10:57:58Z</time>
      </trkpt>
      <trkpt lat="54.718967014923692" lon="26.525132982060313">
        <ele>166.93000000000001</ele>
        <time>2011-08-16T10:58:16Z</time>
      </trkpt>
      <trkpt lat="54.719680985435843" lon="26.525513017550111">
        <ele>166.93000000000001</ele>
        <time>2011-08-16T10:58:34Z</time>
      </trkpt>
      <trkpt lat="54.720539040863514" lon="26.525954995304346">
        <ele>167.41</ele>
        <time>2011-08-16T10:58:55Z</time>
      </trkpt>
      <trkpt lat="54.721503965556622" lon="26.52645698748529">
        <ele>165.96000000000001</ele>
        <time>2011-08-16T10:59:15Z</time>
      </trkpt>
      <trkpt lat="54.722504010424018" lon="26.526966020464897">
        <ele>164.03999999999999</ele>
        <time>2011-08-16T10:59:33Z</time>
      </trkpt>
      <trkpt lat="54.722862001508474" lon="26.527158971875906">
        <ele>162.12</ele>
        <time>2011-08-16T10:59:39Z</time>
      </trkpt>
      <trkpt lat="54.724063966423273" lon="26.527746040374041">
        <ele>160.19999999999999</ele>
        <time>2011-08-16T10:59:59Z</time>
      </trkpt>
      <trkpt lat="54.725182028487325" lon="26.528345011174679">
        <ele>160.68000000000001</ele>
        <time>2011-08-16T11:00:20Z</time>
      </trkpt>
      <trkpt lat="54.725860962644219" lon="26.528791012242436">
        <ele>161.63999999999999</ele>
        <time>2011-08-16T11:00:34Z</time>
      </trkpt>
      <trkpt lat="54.726418023929" lon="26.529238019138575">
        <ele>162.59999999999999</ele>
        <time>2011-08-16T11:00:48Z</time>
      </trkpt>
      <trkpt lat="54.72687098197639" lon="26.529658958315849">
        <ele>163.56</ele>
        <time>2011-08-16T11:01:00Z</time>
      </trkpt>
      <trkpt lat="54.727467019110918" lon="26.530248960480094">
        <ele>164.52000000000001</ele>
        <time>2011-08-16T11:01:17Z</time>
      </trkpt>
      <trkpt lat="54.72781796939671" lon="26.530570993199944">
        <ele>165</ele>
        <time>2011-08-16T11:01:28Z</time>
      </trkpt>
      <trkpt lat="54.727974040433764" lon="26.530854972079396">
        <ele>165</ele>
        <time>2011-08-16T11:01:39Z</time>
      </trkpt>
      <trkpt lat="54.727974040433764" lon="26.530854972079396">
        <ele>165</ele>
        <time>2011-08-16T11:02:00Z</time>
      </trkpt>
      <trkpt lat="54.727970017120242" lon="26.530856983736157">
        <ele>164.52000000000001</ele>
        <time>2011-08-16T11:02:27Z</time>
      </trkpt>
      <trkpt lat="54.727970017120242" lon="26.530856983736157">
        <ele>165</ele>
        <time>2011-08-16T11:02:42Z</time>
      </trkpt>
      <trkpt lat="54.72796599380672" lon="26.530891014263034">
        <ele>164.03999999999999</ele>
        <time>2011-08-16T11:02:51Z</time>
      </trkpt>
      <trkpt lat="54.72796599380672" lon="26.530893025919795">
        <ele>164.03999999999999</ele>
        <time>2011-08-16T11:03:27Z</time>
      </trkpt>
      <trkpt lat="54.72796599380672" lon="26.530893025919795">
        <ele>164.03999999999999</ele>
        <time>2011-08-16T11:04:05Z</time>
      </trkpt>
      <trkpt lat="54.727970017120242" lon="26.530900988727808">
        <ele>165</ele>
        <time>2011-08-16T11:04:47Z</time>
      </trkpt>
      <trkpt lat="54.727970017120242" lon="26.530900988727808">
        <ele>165.47999999999999</ele>
        <time>2011-08-16T11:05:25Z</time>
      </trkpt>
      <trkpt lat="54.727970017120242" lon="26.530887996777892">
        <ele>165.47999999999999</ele>
        <time>2011-08-16T11:06:01Z</time>
      </trkpt>
      <trkpt lat="54.727974040433764" lon="26.530852960422635">
        <ele>165.47999999999999</ele>
        <time>2011-08-16T11:06:41Z</time>
      </trkpt>
      <trkpt lat="54.72796599380672" lon="26.530863018706441">
        <ele>165.96000000000001</ele>
        <time>2011-08-16T11:07:12Z</time>
      </trkpt>
      <trkpt lat="54.727961970493197" lon="26.530865030363202">
        <ele>165.47999999999999</ele>
        <time>2011-08-16T11:07:35Z</time>
      </trkpt>
      <trkpt lat="54.727959036827087" lon="26.530871987342834">
        <ele>165.47999999999999</ele>
        <time>2011-08-16T11:08:06Z</time>
      </trkpt>
      <trkpt lat="54.72794302739203" lon="26.530890008434653">
        <ele>165.96000000000001</ele>
        <time>2011-08-16T11:08:30Z</time>
      </trkpt>
      <trkpt lat="54.72794302739203" lon="26.530890008434653">
        <ele>166.44999999999999</ele>
        <time>2011-08-16T11:08:45Z</time>
      </trkpt>
      <trkpt lat="54.72794302739203" lon="26.530890008434653">
        <ele>166.44999999999999</ele>
        <time>2011-08-16T11:09:00Z</time>
      </trkpt>
      <trkpt lat="54.728146037086844" lon="26.530977012589574">
        <ele>166.44999999999999</ele>
        <time>2011-08-16T11:09:10Z</time>
      </trkpt>
      <trkpt lat="54.728535041213036" lon="26.531340032815933">
        <ele>166.93000000000001</ele>
        <time>2011-08-16T11:09:23Z</time>
      </trkpt>
      <trkpt lat="54.729095036163926" lon="26.531857028603554">
        <ele>166.93000000000001</ele>
        <time>2011-08-16T11:09:40Z</time>
      </trkpt>
      <trkpt lat="54.72966399975121" lon="26.532402019947767">
        <ele>167.41</ele>
        <time>2011-08-16T11:09:57Z</time>
      </trkpt>
      <trkpt lat="54.730102960020304" lon="26.532820025458932">
        <ele>167.41</ele>
        <time>2011-08-16T11:10:10Z</time>
      </trkpt>
      <trkpt lat="54.730701008811593" lon="26.533343978226185">
        <ele>167.88999999999999</ele>
        <time>2011-08-16T11:10:26Z</time>
      </trkpt>
      <trkpt lat="54.731453033164144" lon="26.533774975687265">
        <ele>167.41</ele>
        <time>2011-08-16T11:10:45Z</time>
      </trkpt>
      <trkpt lat="54.732216037809849" lon="26.533941021189094">
        <ele>167.88999999999999</ele>
        <time>2011-08-16T11:11:04Z</time>
      </trkpt>
      <trkpt lat="54.732409995049238" lon="26.534467991441488">
        <ele>168.37</ele>
        <time>2011-08-16T11:11:14Z</time>
      </trkpt>
      <trkpt lat="54.732539998367429" lon="26.535399975255132">
        <ele>168.37</ele>
        <time>2011-08-16T11:11:27Z</time>
      </trkpt>
      <trkpt lat="54.732623985037208" lon="26.535743968561292">
        <ele>168.37</ele>
        <time>2011-08-16T11:11:32Z</time>
      </trkpt>
      <trkpt lat="54.732704032212496" lon="26.536001041531563">
        <ele>167.88999999999999</ele>
        <time>2011-08-16T11:11:36Z</time>
      </trkpt>
      <trkpt lat="54.732852978631854" lon="26.536282002925873">
        <ele>167.88999999999999</ele>
        <time>2011-08-16T11:11:41Z</time>
      </trkpt>
      <trkpt lat="54.7331009991467" lon="26.53692196123302">
        <ele>168.37</ele>
        <time>2011-08-16T11:11:53Z</time>
      </trkpt>
      <trkpt lat="54.733157996088266" lon="26.537104016169906">
        <ele>168.37</ele>
        <time>2011-08-16T11:11:56Z</time>
      </trkpt>
      <trkpt lat="54.733329992741346" lon="26.537580024451017">
        <ele>168.37</ele>
        <time>2011-08-16T11:12:04Z</time>
      </trkpt>
      <trkpt lat="54.733340973034501" lon="26.53777901083231">
        <ele>167.88999999999999</ele>
        <time>2011-08-16T11:12:08Z</time>
      </trkpt>
      <trkpt lat="54.733558986335993" lon="26.53835903853178">
        <ele>167.41</ele>
        <time>2011-08-16T11:12:19Z</time>
      </trkpt>
      <trkpt lat="54.733771970495582" lon="26.5389399882406">
        <ele>167.88999999999999</ele>
        <time>2011-08-16T11:12:32Z</time>
      </trkpt>
      <trkpt lat="54.734076987951994" lon="26.539667034521699">
        <ele>168.37</ele>
        <time>2011-08-16T11:12:48Z</time>
      </trkpt>
      <trkpt lat="54.734317967668176" lon="26.540356026962399">
        <ele>168.84999999999999</ele>
        <time>2011-08-16T11:13:01Z</time>
      </trkpt>
      <trkpt lat="54.734631031751633" lon="26.541218021884561">
        <ele>168.84999999999999</ele>
        <time>2011-08-16T11:13:16Z</time>
      </trkpt>
      <trkpt lat="54.73495096899569" lon="26.542058978229761">
        <ele>167.41</ele>
        <time>2011-08-16T11:13:31Z</time>
      </trkpt>
      <trkpt lat="54.73512296564877" lon="26.542530041188002">
        <ele>167.41</ele>
        <time>2011-08-16T11:13:39Z</time>
      </trkpt>
      <trkpt lat="54.735599979758263" lon="26.54375497251749">
        <ele>164.03999999999999</ele>
        <time>2011-08-16T11:13:58Z</time>
      </trkpt>
      <trkpt lat="54.735981021076441" lon="26.544800028204918">
        <ele>162.12</ele>
        <time>2011-08-16T11:14:13Z</time>
      </trkpt>
      <trkpt lat="54.736117981374264" lon="26.545123988762498">
        <ele>161.16</ele>
        <time>2011-08-16T11:14:18Z</time>
      </trkpt>
      <trkpt lat="54.736298024654388" lon="26.545645007863641">
        <ele>160.19999999999999</ele>
        <time>2011-08-16T11:14:25Z</time>
      </trkpt>
      <trkpt lat="54.736340017989278" lon="26.54579496011138">
        <ele>160.19999999999999</ele>
        <time>2011-08-16T11:14:27Z</time>
      </trkpt>
      <trkpt lat="54.73636600188911" lon="26.545862015336752">
        <ele>159.72</ele>
        <time>2011-08-16T11:14:28Z</time>
      </trkpt>
      <trkpt lat="54.736397014930844" lon="26.545930998399854">
        <ele>159.24000000000001</ele>
        <time>2011-08-16T11:14:29Z</time>
      </trkpt>
      <trkpt lat="54.736427022144198" lon="26.546002998948097">
        <ele>159.72</ele>
        <time>2011-08-16T11:14:30Z</time>
      </trkpt>
      <trkpt lat="54.736759029328823" lon="26.546721998602152">
        <ele>159.24000000000001</ele>
        <time>2011-08-16T11:14:43Z</time>
      </trkpt>
      <trkpt lat="54.736771015450358" lon="26.546773966401815">
        <ele>158.75</ele>
        <time>2011-08-16T11:14:45Z</time>
      </trkpt>
      <trkpt lat="54.736759029328823" lon="26.546839009970427">
        <ele>154.91</ele>
        <time>2011-08-16T11:14:58Z</time>
      </trkpt>
      <trkpt lat="54.736759029328823" lon="26.546839009970427">
        <ele>159.24000000000001</ele>
        <time>2011-08-16T11:14:59Z</time>
      </trkpt>
      <trkpt lat="54.736629026010633" lon="26.546918973326683">
        <ele>157.78999999999999</ele>
        <time>2011-08-16T11:15:13Z</time>
      </trkpt>
      <trkpt lat="54.736271034926176" lon="26.54669601470232">
        <ele>158.27000000000001</ele>
        <time>2011-08-16T11:15:25Z</time>
      </trkpt>
      <trkpt lat="54.735752027481794" lon="26.546553019434214">
        <ele>158.27000000000001</ele>
        <time>2011-08-16T11:15:40Z</time>
      </trkpt>
      <trkpt lat="54.73524902947247" lon="26.546467021107674">
        <ele>158.27000000000001</ele>
        <time>2011-08-16T11:15:57Z</time>
      </trkpt>
      <trkpt lat="54.735161019489169" lon="26.546453023329377">
        <ele>161.63999999999999</ele>
        <time>2011-08-16T11:16:01Z</time>
      </trkpt>
      <trkpt lat="54.73514199256897" lon="26.546445982530713">
        <ele>158.27000000000001</ele>
        <time>2011-08-16T11:16:02Z</time>
      </trkpt>
      <trkpt lat="54.734996985644102" lon="26.54635202139616">
        <ele>158.27000000000001</ele>
        <time>2011-08-16T11:16:12Z</time>
      </trkpt>
      <trkpt lat="54.734669001773" lon="26.546221012249589">
        <ele>158.27000000000001</ele>
        <time>2011-08-16T11:16:24Z</time>
      </trkpt>
      <trkpt lat="54.734260970726609" lon="26.546095032244921">
        <ele>157.78999999999999</ele>
        <time>2011-08-16T11:16:37Z</time>
      </trkpt>
      <trkpt lat="54.734238004311919" lon="26.546076005324721">
        <ele>161.16</ele>
        <time>2011-08-16T11:16:42Z</time>
      </trkpt>
      <trkpt lat="54.734238004311919" lon="26.546076005324721">
        <ele>160.19999999999999</ele>
        <time>2011-08-16T11:16:45Z</time>
      </trkpt>
      <trkpt lat="54.734238004311919" lon="26.546076005324721">
        <ele>155.38999999999999</ele>
        <time>2011-08-16T11:16:49Z</time>
      </trkpt>
      <trkpt lat="54.734238004311919" lon="26.546076005324721">
        <ele>159.24000000000001</ele>
        <time>2011-08-16T11:16:50Z</time>
      </trkpt>
      <trkpt lat="54.734238004311919" lon="26.546076005324721">
        <ele>153.47</ele>
        <time>2011-08-16T11:16:51Z</time>
      </trkpt>
      <trkpt lat="54.734238004311919" lon="26.546076005324721">
        <ele>159.24000000000001</ele>
        <time>2011-08-16T11:16:52Z</time>
      </trkpt>
      <trkpt lat="54.734238004311919" lon="26.546076005324721">
        <ele>154.91</ele>
        <time>2011-08-16T11:16:54Z</time>
      </trkpt>
      <trkpt lat="54.734238004311919" lon="26.546076005324721">
        <ele>158.75</ele>
        <time>2011-08-16T11:16:55Z</time>
      </trkpt>
      <trkpt lat="54.734238004311919" lon="26.546071982011199">
        <ele>158.27000000000001</ele>
        <time>2011-08-16T11:17:19Z</time>
      </trkpt>
      <trkpt lat="54.734238004311919" lon="26.546071982011199">
        <ele>158.27000000000001</ele>
        <time>2011-08-16T11:17:21Z</time>
      </trkpt>
      <trkpt lat="54.734378987923265" lon="26.5461599919945">
        <ele>158.75</ele>
        <time>2011-08-16T11:17:31Z</time>
      </trkpt>
      <trkpt lat="54.734703032299876" lon="26.546249007806182">
        <ele>158.27000000000001</ele>
        <time>2011-08-16T11:17:43Z</time>
      </trkpt>
      <trkpt lat="54.734871005639434" lon="26.546317990869284">
        <ele>158.27000000000001</ele>
        <time>2011-08-16T11:17:47Z</time>
      </trkpt>
      <trkpt lat="54.735031016170979" lon="26.546392003074288">
        <ele>158.75</ele>
        <time>2011-08-16T11:17:51Z</time>
      </trkpt>
      <trkpt lat="54.735198989510536" lon="26.546453023329377">
        <ele>158.27000000000001</ele>
        <time>2011-08-16T11:17:55Z</time>
      </trkpt>
      <trkpt lat="54.735702993348241" lon="26.546529969200492">
        <ele>158.75</ele>
        <time>2011-08-16T11:18:08Z</time>
      </trkpt>
      <trkpt lat="54.736350998282433" lon="26.546750999987125">
        <ele>158.27000000000001</ele>
        <time>2011-08-16T11:18:24Z</time>
      </trkpt>
      <trkpt lat="54.736584015190601" lon="26.546893995255232">
        <ele>158.27000000000001</ele>
        <time>2011-08-16T11:18:30Z</time>
      </trkpt>
      <trkpt lat="54.736621985211968" lon="26.546903969720006">
        <ele>158.27000000000001</ele>
        <time>2011-08-16T11:18:31Z</time>
      </trkpt>
      <trkpt lat="54.736660039052367" lon="26.546913022175431">
        <ele>157.78999999999999</ele>
        <time>2011-08-16T11:18:32Z</time>
      </trkpt>
      <trkpt lat="54.736693985760212" lon="26.546913022175431">
        <ele>157.78999999999999</ele>
        <time>2011-08-16T11:18:33Z</time>
      </trkpt>
      <trkpt lat="54.736729022115469" lon="26.54691101051867">
        <ele>158.27000000000001</ele>
        <time>2011-08-16T11:18:34Z</time>
      </trkpt>
      <trkpt lat="54.736976958811283" lon="26.547241006046534">
        <ele>158.27000000000001</ele>
        <time>2011-08-16T11:18:45Z</time>
      </trkpt>
      <trkpt lat="54.737040996551514" lon="26.547371009364724">
        <ele>157.78999999999999</ele>
        <time>2011-08-16T11:18:50Z</time>
      </trkpt>
      <trkpt lat="54.737254986539483" lon="26.548077017068863">
        <ele>158.27000000000001</ele>
        <time>2011-08-16T11:19:02Z</time>
      </trkpt>
      <trkpt lat="54.737545000389218" lon="26.549026016145945">
        <ele>157.78999999999999</ele>
        <time>2011-08-16T11:19:15Z</time>
      </trkpt>
      <trkpt lat="54.737675003707409" lon="26.5494479611516">
        <ele>157.31</ele>
        <time>2011-08-16T11:19:21Z</time>
      </trkpt>
      <trkpt lat="54.73791497759521" lon="26.550296964123845">
        <ele>156.83000000000001</ele>
        <time>2011-08-16T11:19:34Z</time>
      </trkpt>
      <trkpt lat="54.738143971189857" lon="26.551144039258361">
        <ele>156.83000000000001</ele>
        <time>2011-08-16T11:19:46Z</time>
      </trkpt>
      <trkpt lat="54.738185964524746" lon="26.551436986774206">
        <ele>156.34999999999999</ele>
        <time>2011-08-16T11:19:50Z</time>
      </trkpt>
      <trkpt lat="54.738276991993189" lon="26.552440971136093">
        <ele>156.83000000000001</ele>
        <time>2011-08-16T11:20:03Z</time>
      </trkpt>
      <trkpt lat="54.738330971449614" lon="26.552903987467289">
        <ele>156.83000000000001</ele>
        <time>2011-08-16T11:20:09Z</time>
      </trkpt>
      <trkpt lat="54.738421998918056" lon="26.553698005154729">
        <ele>156.83000000000001</ele>
        <time>2011-08-16T11:20:19Z</time>
      </trkpt>
      <trkpt lat="54.738441025838256" lon="26.554121039807796">
        <ele>157.31</ele>
        <time>2011-08-16T11:20:24Z</time>
      </trkpt>
      <trkpt lat="54.738438008353114" lon="26.554437959566712">
        <ele>156.83000000000001</ele>
        <time>2011-08-16T11:20:28Z</time>
      </trkpt>
      <trkpt lat="54.738444965332747" lon="26.55458296649158">
        <ele>156.83000000000001</ele>
        <time>2011-08-16T11:20:30Z</time>
      </trkpt>
      <trkpt lat="54.738463992252946" lon="26.554880021139979">
        <ele>156.83000000000001</ele>
        <time>2011-08-16T11:20:34Z</time>
      </trkpt>
      <trkpt lat="54.738457035273314" lon="26.555291991680861">
        <ele>156.83000000000001</ele>
        <time>2011-08-16T11:20:40Z</time>
      </trkpt>
      <trkpt lat="54.738453011959791" lon="26.555434986948967">
        <ele>156.34999999999999</ele>
        <time>2011-08-16T11:20:42Z</time>
      </trkpt>
      <trkpt lat="54.738510008901358" lon="26.556207966059446">
        <ele>156.83000000000001</ele>
        <time>2011-08-16T11:20:56Z</time>
      </trkpt>
      <trkpt lat="54.738532975316048" lon="26.556426985189319">
        <ele>156.34999999999999</ele>
        <time>2011-08-16T11:21:02Z</time>
      </trkpt>
      <trkpt lat="54.738770015537739" lon="26.556716999039054">
        <ele>156.34999999999999</ele>
        <time>2011-08-16T11:21:15Z</time>
      </trkpt>
      <trkpt lat="54.73900998942554" lon="26.557011036202312">
        <ele>157.31</ele>
        <time>2011-08-16T11:21:27Z</time>
      </trkpt>
      <trkpt lat="54.739139992743731" lon="26.557365003973246">
        <ele>157.31</ele>
        <time>2011-08-16T11:21:39Z</time>
      </trkpt>
      <trkpt lat="54.739226996898651" lon="26.557605983689427">
        <ele>157.31</ele>
        <time>2011-08-16T11:21:46Z</time>
      </trkpt>
      <trkpt lat="54.739330010488629" lon="26.557694999501109">
        <ele>157.31</ele>
        <time>2011-08-16T11:21:50Z</time>
      </trkpt>
      <trkpt lat="54.739780034869909" lon="26.557818967849016">
        <ele>157.78999999999999</ele>
        <time>2011-08-16T11:22:04Z</time>
      </trkpt>
      <trkpt lat="54.740097038447857" lon="26.557778986170888">
        <ele>157.31</ele>
        <time>2011-08-16T11:22:11Z</time>
      </trkpt>
      <trkpt lat="54.740561982616782" lon="26.557774962857366">
        <ele>156.83000000000001</ele>
        <time>2011-08-16T11:22:23Z</time>
      </trkpt>
      <trkpt lat="54.740597018972039" lon="26.557763982564211">
        <ele>157.31</ele>
        <time>2011-08-16T11:22:24Z</time>
      </trkpt>
      <trkpt lat="54.740722998976707" lon="26.557780997827649">
        <ele>156.83000000000001</ele>
        <time>2011-08-16T11:22:28Z</time>
      </trkpt>
      <trkpt lat="54.740874962881207" lon="26.557792983949184">
        <ele>156.83000000000001</ele>
        <time>2011-08-16T11:22:33Z</time>
      </trkpt>
      <trkpt lat="54.74128701724112" lon="26.558016026392579">
        <ele>157.31</ele>
        <time>2011-08-16T11:22:48Z</time>
      </trkpt>
      <trkpt lat="54.741806024685502" lon="26.558346021920443">
        <ele>156.83000000000001</ele>
        <time>2011-08-16T11:22:57Z</time>
      </trkpt>
      <trkpt lat="54.742096038535237" lon="26.558709964156151">
        <ele>156.83000000000001</ele>
        <time>2011-08-16T11:23:06Z</time>
      </trkpt>
      <trkpt lat="54.742226041853428" lon="26.559021016582847">
        <ele>157.31</ele>
        <time>2011-08-16T11:23:15Z</time>
      </trkpt>
      <trkpt lat="54.742393009364605" lon="26.559346988797188">
        <ele>157.31</ele>
        <time>2011-08-16T11:23:23Z</time>
      </trkpt>
      <trkpt lat="54.742584032937884" lon="26.559723000973463">
        <ele>157.78999999999999</ele>
        <time>2011-08-16T11:23:32Z</time>
      </trkpt>
      <trkpt lat="54.742949986830354" lon="26.560343010351062">
        <ele>157.78999999999999</ele>
        <time>2011-08-16T11:23:42Z</time>
      </trkpt>
      <trkpt lat="54.743202030658722" lon="26.560668982565403">
        <ele>158.27000000000001</ele>
        <time>2011-08-16T11:23:51Z</time>
      </trkpt>
      <trkpt lat="54.743464970961213" lon="26.561047006398439">
        <ele>158.75</ele>
        <time>2011-08-16T11:24:01Z</time>
      </trkpt>
      <trkpt lat="54.743736041709781" lon="26.561358980834484">
        <ele>158.75</ele>
        <time>2011-08-16T11:24:10Z</time>
      </trkpt>
      <trkpt lat="54.744003005325794" lon="26.56167003326118">
        <ele>158.27000000000001</ele>
        <time>2011-08-16T11:24:19Z</time>
      </trkpt>
      <trkpt lat="54.744064025580883" lon="26.561728036031127">
        <ele>158.75</ele>
        <time>2011-08-16T11:24:21Z</time>
      </trkpt>
      <trkpt lat="54.744152035564184" lon="26.561754019930959">
        <ele>158.75</ele>
        <time>2011-08-16T11:24:25Z</time>
      </trkpt>
      <trkpt lat="54.744414975866675" lon="26.562051996588707">
        <ele>160.19999999999999</ele>
        <time>2011-08-16T11:24:34Z</time>
      </trkpt>
      <trkpt lat="54.744689986109734" lon="26.562390960752964">
        <ele>159.72</ele>
        <time>2011-08-16T11:24:44Z</time>
      </trkpt>
      <trkpt lat="54.744770033285022" lon="26.562482994049788">
        <ele>158.75</ele>
        <time>2011-08-16T11:24:46Z</time>
      </trkpt>
      <trkpt lat="54.745044959709048" lon="26.562763033434749">
        <ele>159.24000000000001</ele>
        <time>2011-08-16T11:24:53Z</time>
      </trkpt>
      <trkpt lat="54.745204970240593" lon="26.56298297457397">
        <ele>158.75</ele>
        <time>2011-08-16T11:24:58Z</time>
      </trkpt>
      <trkpt lat="54.745556004345417" lon="26.563425036147237">
        <ele>158.27000000000001</ele>
        <time>2011-08-16T11:25:08Z</time>
      </trkpt>
      <trkpt lat="54.745810981839895" lon="26.563799036666751">
        <ele>158.75</ele>
        <time>2011-08-16T11:25:16Z</time>
      </trkpt>
      <trkpt lat="54.746136032044888" lon="26.564243026077747">
        <ele>158.75</ele>
        <time>2011-08-16T11:25:27Z</time>
      </trkpt>
      <trkpt lat="54.746353039517999" lon="26.564607974141836">
        <ele>159.24000000000001</ele>
        <time>2011-08-16T11:25:36Z</time>
      </trkpt>
      <trkpt lat="54.746494023129344" lon="26.564888013526797">
        <ele>158.75</ele>
        <time>2011-08-16T11:25:41Z</time>
      </trkpt>
      <trkpt lat="54.74678797647357" lon="26.565316999331117">
        <ele>159.24000000000001</ele>
        <time>2011-08-16T11:25:50Z</time>
      </trkpt>
      <trkpt lat="54.746963996440172" lon="26.56547399237752">
        <ele>159.72</ele>
        <time>2011-08-16T11:25:54Z</time>
      </trkpt>
      <trkpt lat="54.747299021109939" lon="26.565862996503711">
        <ele>159.72</ele>
        <time>2011-08-16T11:26:03Z</time>
      </trkpt>
      <trkpt lat="54.747447967529297" lon="26.566018983721733">
        <ele>159.72</ele>
        <time>2011-08-16T11:26:07Z</time>
      </trkpt>
      <trkpt lat="54.747570008039474" lon="26.566178994253278">
        <ele>159.72</ele>
        <time>2011-08-16T11:26:10Z</time>
      </trkpt>
      <trkpt lat="54.747966974973679" lon="26.566607980057597">
        <ele>160.19999999999999</ele>
        <time>2011-08-16T11:26:19Z</time>
      </trkpt>
      <trkpt lat="54.748157998546958" lon="26.566739995032549">
        <ele>160.19999999999999</ele>
        <time>2011-08-16T11:26:23Z</time>
      </trkpt>
      <trkpt lat="54.748557982966304" lon="26.566964965313673">
        <ele>160.68000000000001</ele>
        <time>2011-08-16T11:26:34Z</time>
      </trkpt>
      <trkpt lat="54.749072967097163" lon="26.567230001091957">
        <ele>161.16</ele>
        <time>2011-08-16T11:26:47Z</time>
      </trkpt>
      <trkpt lat="54.749199030920863" lon="26.567289009690285">
        <ele>160.68000000000001</ele>
        <time>2011-08-16T11:26:50Z</time>
      </trkpt>
      <trkpt lat="54.749672021716833" lon="26.567547004669905">
        <ele>160.68000000000001</ele>
        <time>2011-08-16T11:27:01Z</time>
      </trkpt>
      <trkpt lat="54.749965975061059" lon="26.567652029916644">
        <ele>161.16</ele>
        <time>2011-08-16T11:27:09Z</time>
      </trkpt>
      <trkpt lat="54.750155992805958" lon="26.567716989666224">
        <ele>160.68000000000001</ele>
        <time>2011-08-16T11:27:12Z</time>
      </trkpt>
      <trkpt lat="54.750598976388574" lon="26.567898038774729">
        <ele>160.68000000000001</ele>
        <time>2011-08-16T11:27:24Z</time>
      </trkpt>
      <trkpt lat="54.750873986631632" lon="26.568037010729313">
        <ele>161.63999999999999</ele>
        <time>2011-08-16T11:27:35Z</time>
      </trkpt>
      <trkpt lat="54.751132987439632" lon="26.568182017654181">
        <ele>161.63999999999999</ele>
        <time>2011-08-16T11:27:42Z</time>
      </trkpt>
      <trkpt lat="54.751324011012912" lon="26.568253012374043">
        <ele>161.63999999999999</ele>
        <time>2011-08-16T11:27:47Z</time>
      </trkpt>
      <trkpt lat="54.751438004896045" lon="26.568314032629132">
        <ele>162.12</ele>
        <time>2011-08-16T11:27:50Z</time>
      </trkpt>
      <trkpt lat="54.751640008762479" lon="26.568413022905588">
        <ele>162.12</ele>
        <time>2011-08-16T11:27:55Z</time>
      </trkpt>
      <trkpt lat="54.752090033143759" lon="26.568690966814756">
        <ele>162.12</ele>
        <time>2011-08-16T11:28:04Z</time>
      </trkpt>
      <trkpt lat="54.752548020333052" lon="26.568980980664492">
        <ele>162.12</ele>
        <time>2011-08-16T11:28:15Z</time>
      </trkpt>
      <trkpt lat="54.752949010580778" lon="26.569367973133922">
        <ele>162.12</ele>
        <time>2011-08-16T11:28:26Z</time>
      </trkpt>
      <trkpt lat="54.753219997510314" lon="26.569524966180325">
        <ele>160.68000000000001</ele>
        <time>2011-08-16T11:28:33Z</time>
      </trkpt>
      <trkpt lat="54.75346801802516" lon="26.569590009748936">
        <ele>161.63999999999999</ele>
        <time>2011-08-16T11:28:39Z</time>
      </trkpt>
      <trkpt lat="54.753716038540006" lon="26.56964298337698">
        <ele>161.16</ele>
        <time>2011-08-16T11:28:45Z</time>
      </trkpt>
      <trkpt lat="54.75424200296402" lon="26.569735016673803">
        <ele>160.68000000000001</ele>
        <time>2011-08-16T11:28:57Z</time>
      </trkpt>
      <trkpt lat="54.754249965772033" lon="26.569730993360281">
        <ele>160.19999999999999</ele>
        <time>2011-08-16T11:28:58Z</time>
      </trkpt>
      <trkpt lat="54.754294976592064" lon="26.569783966988325">
        <ele>160.19999999999999</ele>
        <time>2011-08-16T11:29:00Z</time>
      </trkpt>
      <trkpt lat="54.754828987643123" lon="26.569963004440069">
        <ele>162.59999999999999</ele>
        <time>2011-08-16T11:29:13Z</time>
      </trkpt>
      <trkpt lat="54.755054041743279" lon="26.570046991109848">
        <ele>162.59999999999999</ele>
        <time>2011-08-16T11:29:19Z</time>
      </trkpt>
      <trkpt lat="54.755088994279504" lon="26.570086972787976">
        <ele>162.59999999999999</ele>
        <time>2011-08-16T11:29:21Z</time>
      </trkpt>
      <trkpt lat="54.75548897869885" lon="26.570126032456756">
        <ele>162.12</ele>
        <time>2011-08-16T11:29:30Z</time>
      </trkpt>
      <trkpt lat="54.755916958674788" lon="26.570084039121866">
        <ele>159.72</ele>
        <time>2011-08-16T11:29:41Z</time>
      </trkpt>
      <trkpt lat="54.756064983084798" lon="26.570082027465105">
        <ele>159.24000000000001</ele>
        <time>2011-08-16T11:29:45Z</time>
      </trkpt>
      <trkpt lat="54.756161039695144" lon="26.570086972787976">
        <ele>158.75</ele>
        <time>2011-08-16T11:29:47Z</time>
      </trkpt>
      <trkpt lat="54.756782976910472" lon="26.57024597749114">
        <ele>158.75</ele>
        <time>2011-08-16T11:29:53Z</time>
      </trkpt>
      <trkpt lat="54.757087994366884" lon="26.570612015202641">
        <ele>159.72</ele>
        <time>2011-08-16T11:30:04Z</time>
      </trkpt>
      <trkpt lat="54.757339032366872" lon="26.570981992408633">
        <ele>161.16</ele>
        <time>2011-08-16T11:30:15Z</time>
      </trkpt>
      <trkpt lat="54.757705992087722" lon="26.571478033438325">
        <ele>162.59999999999999</ele>
        <time>2011-08-16T11:30:27Z</time>
      </trkpt>
      <trkpt lat="54.757767012342811" lon="26.571570988744497">
        <ele>161.63999999999999</ele>
        <time>2011-08-16T11:30:29Z</time>
      </trkpt>
      <trkpt lat="54.758099019527435" lon="26.572096031159163">
        <ele>161.63999999999999</ele>
        <time>2011-08-16T11:30:41Z</time>
      </trkpt>
      <trkpt lat="54.758151993155479" lon="26.57217800617218">
        <ele>162.12</ele>
        <time>2011-08-16T11:30:43Z</time>
      </trkpt>
      <trkpt lat="54.758265987038612" lon="26.572360983118415">
        <ele>162.12</ele>
        <time>2011-08-16T11:30:48Z</time>
      </trkpt>
      <trkpt lat="54.758353997021914" lon="26.572485035285354">
        <ele>162.59999999999999</ele>
        <time>2011-08-16T11:30:52Z</time>
      </trkpt>
      <trkpt lat="54.758491963148117" lon="26.572717968374491">
        <ele>162.59999999999999</ele>
        <time>2011-08-16T11:30:59Z</time>
      </trkpt>
      <trkpt lat="54.758693967014551" lon="26.573200011625886">
        <ele>163.08000000000001</ele>
        <time>2011-08-16T11:31:08Z</time>
      </trkpt>
      <trkpt lat="54.758804021403193" lon="26.573662022128701">
        <ele>163.56</ele>
        <time>2011-08-16T11:31:16Z</time>
      </trkpt>
      <trkpt lat="54.758868981152773" lon="26.573891015723348">
        <ele>163.08000000000001</ele>
        <time>2011-08-16T11:31:20Z</time>
      </trkpt>
      <trkpt lat="54.759025974199176" lon="26.574600040912628">
        <ele>163.56</ele>
        <time>2011-08-16T11:31:31Z</time>
      </trkpt>
      <trkpt lat="54.759238958358765" lon="26.575280986726284">
        <ele>163.56</ele>
        <time>2011-08-16T11:31:41Z</time>
      </trkpt>
      <trkpt lat="54.759525032714009" lon="26.575994035229087">
        <ele>163.56</ele>
        <time>2011-08-16T11:31:52Z</time>
      </trkpt>
      <trkpt lat="54.759776992723346" lon="26.576575990766287">
        <ele>163.08000000000001</ele>
        <time>2011-08-16T11:32:00Z</time>
      </trkpt>
      <trkpt lat="54.75997899658978" lon="26.577004976570606">
        <ele>164.03999999999999</ele>
        <time>2011-08-16T11:32:08Z</time>
      </trkpt>
      <trkpt lat="54.760284014046192" lon="26.577314017340541">
        <ele>164.52000000000001</ele>
        <time>2011-08-16T11:32:17Z</time>
      </trkpt>
      <trkpt lat="54.760566987097263" lon="26.577481990680099">
        <ele>164.52000000000001</ele>
        <time>2011-08-16T11:32:27Z</time>
      </trkpt>
      <trkpt lat="54.760944005101919" lon="26.577734034508467">
        <ele>164.52000000000001</ele>
        <time>2011-08-16T11:32:38Z</time>
      </trkpt>
      <trkpt lat="54.761313982307911" lon="26.577873006463051">
        <ele>164.52000000000001</ele>
        <time>2011-08-16T11:32:48Z</time>
      </trkpt>
      <trkpt lat="54.761726036667824" lon="26.577968979254365">
        <ele>165</ele>
        <time>2011-08-16T11:32:59Z</time>
      </trkpt>
      <trkpt lat="54.762070029973984" lon="26.578045003116131">
        <ele>165</ele>
        <time>2011-08-16T11:33:08Z</time>
      </trkpt>
      <trkpt lat="54.762164996936917" lon="26.578074004501104">
        <ele>165</ele>
        <time>2011-08-16T11:33:10Z</time>
      </trkpt>
      <trkpt lat="54.762497004121542" lon="26.578165031969547">
        <ele>165.47999999999999</ele>
        <time>2011-08-16T11:33:17Z</time>
      </trkpt>
      <trkpt lat="54.762745024636388" lon="26.578212976455688">
        <ele>165.47999999999999</ele>
        <time>2011-08-16T11:33:24Z</time>
      </trkpt>
      <trkpt lat="54.763058004900813" lon="26.578251030296087">
        <ele>165</ele>
        <time>2011-08-16T11:33:32Z</time>
      </trkpt>
      <trkpt lat="54.763390012085438" lon="26.578318001702428">
        <ele>165</ele>
        <time>2011-08-16T11:33:42Z</time>
      </trkpt>
      <trkpt lat="54.763686982914805" lon="26.578401988372207">
        <ele>165.47999999999999</ele>
        <time>2011-08-16T11:33:50Z</time>
      </trkpt>
      <trkpt lat="54.763984959572554" lon="26.578685967251658">
        <ele>165.96000000000001</ele>
        <time>2011-08-16T11:33:59Z</time>
      </trkpt>
      <trkpt lat="54.764144970104098" lon="26.57879400998354">
        <ele>165.96000000000001</ele>
        <time>2011-08-16T11:34:02Z</time>
      </trkpt>
      <trkpt lat="54.764717034995556" lon="26.579202963039279">
        <ele>166.93000000000001</ele>
        <time>2011-08-16T11:34:11Z</time>
      </trkpt>
      <trkpt lat="54.765021968632936" lon="26.579527007415891">
        <ele>166.93000000000001</ele>
        <time>2011-08-16T11:34:20Z</time>
      </trkpt>
      <trkpt lat="54.765129005536437" lon="26.579652987420559">
        <ele>167.88999999999999</ele>
        <time>2011-08-16T11:34:24Z</time>
      </trkpt>
      <trkpt lat="54.765284992754459" lon="26.579791959375143">
        <ele>168.37</ele>
        <time>2011-08-16T11:34:29Z</time>
      </trkpt>
      <trkpt lat="54.765335032716393" lon="26.579845016822219">
        <ele>168.37</ele>
        <time>2011-08-16T11:34:31Z</time>
      </trkpt>
      <trkpt lat="54.765488002449274" lon="26.580004021525383">
        <ele>169.33000000000001</ele>
        <time>2011-08-16T11:34:37Z</time>
      </trkpt>
      <trkpt lat="54.765811963006854" lon="26.58021398819983">
        <ele>170.28999999999999</ele>
        <time>2011-08-16T11:34:48Z</time>
      </trkpt>
      <trkpt lat="54.766193004325032" lon="26.580494027584791">
        <ele>170.77000000000001</ele>
        <time>2011-08-16T11:34:58Z</time>
      </trkpt>
      <trkpt lat="54.766593994572759" lon="26.580795021727681">
        <ele>171.25</ele>
        <time>2011-08-16T11:35:09Z</time>
      </trkpt>
      <trkpt lat="54.767017029225826" lon="26.581039018929005">
        <ele>172.21000000000001</ele>
        <time>2011-08-16T11:35:20Z</time>
      </trkpt>
      <trkpt lat="54.767361022531986" lon="26.581272035837173">
        <ele>172.69</ele>
        <time>2011-08-16T11:35:32Z</time>
      </trkpt>
      <trkpt lat="54.767730999737978" lon="26.581516033038497">
        <ele>172.69</ele>
        <time>2011-08-16T11:35:43Z</time>
      </trkpt>
      <trkpt lat="54.768054960295558" lon="26.581696998327971">
        <ele>172.21000000000001</ele>
        <time>2011-08-16T11:35:52Z</time>
      </trkpt>
      <trkpt lat="54.768462991341949" lon="26.581897996366024">
        <ele>172.21000000000001</ele>
        <time>2011-08-16T11:36:02Z</time>
      </trkpt>
      <trkpt lat="54.768871022388339" lon="26.582093965262175">
        <ele>172.69</ele>
        <time>2011-08-16T11:36:13Z</time>
      </trkpt>
      <trkpt lat="54.769378965720534" lon="26.582324970513582">
        <ele>173.16999999999999</ele>
        <time>2011-08-16T11:36:23Z</time>
      </trkpt>
      <trkpt lat="54.769729999825358" lon="26.582476012408733">
        <ele>173.16999999999999</ele>
        <time>2011-08-16T11:36:30Z</time>
      </trkpt>
      <trkpt lat="54.770004004240036" lon="26.582594029605389">
        <ele>173.16999999999999</ele>
        <time>2011-08-16T11:36:36Z</time>
      </trkpt>
      <trkpt lat="54.770435001701117" lon="26.582912039011717">
        <ele>174.13999999999999</ele>
        <time>2011-08-16T11:36:46Z</time>
      </trkpt>
      <trkpt lat="54.770512031391263" lon="26.582976998761296">
        <ele>174.13999999999999</ele>
        <time>2011-08-16T11:36:48Z</time>
      </trkpt>
      <trkpt lat="54.770648991689086" lon="26.583043970167637">
        <ele>174.62</ele>
        <time>2011-08-16T11:36:51Z</time>
      </trkpt>
      <trkpt lat="54.770870022475719" lon="26.583153018727899">
        <ele>174.62</ele>
        <time>2011-08-16T11:36:56Z</time>
      </trkpt>
      <trkpt lat="54.770946968346834" lon="26.583217978477478">
        <ele>174.62</ele>
        <time>2011-08-16T11:36:58Z</time>
      </trkpt>
      <trkpt lat="54.771259026601911" lon="26.583382012322545">
        <ele>175.09999999999999</ele>
        <time>2011-08-16T11:37:05Z</time>
      </trkpt>
      <trkpt lat="54.771583992987871" lon="26.583544034510851">
        <ele>175.58000000000001</ele>
        <time>2011-08-16T11:37:13Z</time>
      </trkpt>
      <trkpt lat="54.772201990708709" lon="26.583916023373604">
        <ele>176.06</ele>
        <time>2011-08-16T11:37:26Z</time>
      </trkpt>
      <trkpt lat="54.772335011512041" lon="26.583949970081449">
        <ele>176.06</ele>
        <time>2011-08-16T11:37:29Z</time>
      </trkpt>
      <trkpt lat="54.772823005914688" lon="26.584177035838366">
        <ele>176.06</ele>
        <time>2011-08-16T11:37:39Z</time>
      </trkpt>
      <trkpt lat="54.773036995902658" lon="26.584349032491446">
        <ele>176.06</ele>
        <time>2011-08-16T11:37:45Z</time>
      </trkpt>
      <trkpt lat="54.77332298643887" lon="26.58451097086072">
        <ele>176.53999999999999</ele>
        <time>2011-08-16T11:37:52Z</time>
      </trkpt>
      <trkpt lat="54.773659016937017" lon="26.584764020517468">
        <ele>176.53999999999999</ele>
        <time>2011-08-16T11:38:01Z</time>
      </trkpt>
      <trkpt lat="54.773749960586429" lon="26.584828980267048">
        <ele>177.02000000000001</ele>
        <time>2011-08-16T11:38:03Z</time>
      </trkpt>
      <trkpt lat="54.774272991344333" lon="26.58504699356854">
        <ele>177.5</ele>
        <time>2011-08-16T11:38:15Z</time>
      </trkpt>
      <trkpt lat="54.774402994662523" lon="26.585116982460022">
        <ele>177.02000000000001</ele>
        <time>2011-08-16T11:38:18Z</time>
      </trkpt>
      <trkpt lat="54.774672975763679" lon="26.585185965523124">
        <ele>177.5</ele>
        <time>2011-08-16T11:38:24Z</time>
      </trkpt>
      <trkpt lat="54.774952009320259" lon="26.58532502129674">
        <ele>177.5</ele>
        <time>2011-08-16T11:38:31Z</time>
      </trkpt>
      <trkpt lat="54.775284016504884" lon="26.585485031828284">
        <ele>177.5</ele>
        <time>2011-08-16T11:38:42Z</time>
      </trkpt>
      <trkpt lat="54.77566103450954" lon="26.585642024874687">
        <ele>177.5</ele>
        <time>2011-08-16T11:38:53Z</time>
      </trkpt>
      <trkpt lat="54.77579103782773" lon="26.58573498018086">
        <ele>177.5</ele>
        <time>2011-08-16T11:38:57Z</time>
      </trkpt>
      <trkpt lat="54.776053978130221" lon="26.585787031799555">
        <ele>177.97999999999999</ele>
        <time>2011-08-16T11:39:03Z</time>
      </trkpt>
      <trkpt lat="54.776545995846391" lon="26.585773034021258">
        <ele>177.97999999999999</ele>
        <time>2011-08-16T11:39:08Z</time>
      </trkpt>
      <trkpt lat="54.777133986353874" lon="26.585745038464665">
        <ele>177.5</ele>
        <time>2011-08-16T11:39:19Z</time>
      </trkpt>
      <trkpt lat="54.777186959981918" lon="26.585743026807904">
        <ele>177.5</ele>
        <time>2011-08-16T11:39:20Z</time>
      </trkpt>
      <trkpt lat="54.777542017400265" lon="26.585814021527767">
        <ele>177.5</ele>
        <time>2011-08-16T11:39:28Z</time>
      </trkpt>
      <trkpt lat="54.777781991288066" lon="26.586253987625241">
        <ele>177.5</ele>
        <time>2011-08-16T11:39:37Z</time>
      </trkpt>
      <trkpt lat="54.777870001271367" lon="26.586435036733747">
        <ele>177.02000000000001</ele>
        <time>2011-08-16T11:39:41Z</time>
      </trkpt>
      <trkpt lat="54.778270991519094" lon="26.586760003119707">
        <ele>177.97999999999999</ele>
        <time>2011-08-16T11:39:51Z</time>
      </trkpt>
      <trkpt lat="54.778610039502382" lon="26.587285967543721">
        <ele>178.94</ele>
        <time>2011-08-16T11:40:03Z</time>
      </trkpt>
      <trkpt lat="54.778912039473653" lon="26.587854009121656">
        <ele>179.41999999999999</ele>
        <time>2011-08-16T11:40:12Z</time>
      </trkpt>
      <trkpt lat="54.779304983094335" lon="26.5886340290308">
        <ele>179.90000000000001</ele>
        <time>2011-08-16T11:40:24Z</time>
      </trkpt>
      <trkpt lat="54.779677977785468" lon="26.58953701145947">
        <ele>181.34999999999999</ele>
        <time>2011-08-16T11:40:39Z</time>
      </trkpt>
      <trkpt lat="54.780051978304982" lon="26.590458014979959">
        <ele>182.31</ele>
        <time>2011-08-16T11:40:55Z</time>
      </trkpt>
      <trkpt lat="54.780410975217819" lon="26.591271981596947">
        <ele>183.75</ele>
        <time>2011-08-16T11:41:09Z</time>
      </trkpt>
      <trkpt lat="54.780464032664895" lon="26.591388992965221">
        <ele>183.75</ele>
        <time>2011-08-16T11:41:11Z</time>
      </trkpt>
      <trkpt lat="54.780581966042519" lon="26.591627039015293">
        <ele>183.75</ele>
        <time>2011-08-16T11:41:15Z</time>
      </trkpt>
      <trkpt lat="54.780784975737333" lon="26.591967009007931">
        <ele>183.27000000000001</ele>
        <time>2011-08-16T11:41:21Z</time>
      </trkpt>
      <trkpt lat="54.781104996800423" lon="26.592615013942122">
        <ele>182.78999999999999</ele>
        <time>2011-08-16T11:41:33Z</time>
      </trkpt>
      <trkpt lat="54.781146990135312" lon="26.592731019482017">
        <ele>183.27000000000001</ele>
        <time>2011-08-16T11:41:35Z</time>
      </trkpt>
      <trkpt lat="54.781242040917277" lon="26.593065038323402">
        <ele>182.78999999999999</ele>
        <time>2011-08-16T11:41:40Z</time>
      </trkpt>
      <trkpt lat="54.78129199706018" lon="26.593268970027566">
        <ele>182.78999999999999</ele>
        <time>2011-08-16T11:41:43Z</time>
      </trkpt>
      <trkpt lat="54.781609000638127" lon="26.594425002112985">
        <ele>182.78999999999999</ele>
        <time>2011-08-16T11:42:01Z</time>
      </trkpt>
      <trkpt lat="54.781944025307894" lon="26.595326978713274">
        <ele>181.83000000000001</ele>
        <time>2011-08-16T11:42:16Z</time>
      </trkpt>
      <trkpt lat="54.782261028885841" lon="26.595689998939633">
        <ele>181.83000000000001</ele>
        <time>2011-08-16T11:42:27Z</time>
      </trkpt>
      <trkpt lat="54.782677022740245" lon="26.595141990110278">
        <ele>182.31</ele>
        <time>2011-08-16T11:42:41Z</time>
      </trkpt>
      <trkpt lat="54.783187983557582" lon="26.594363981857896">
        <ele>182.31</ele>
        <time>2011-08-16T11:42:57Z</time>
      </trkpt>
      <trkpt lat="54.783695004880428" lon="26.593540040776134">
        <ele>181.34999999999999</ele>
        <time>2011-08-16T11:43:14Z</time>
      </trkpt>
      <trkpt lat="54.783726017922163" lon="26.593494024127722">
        <ele>180.87</ele>
        <time>2011-08-16T11:43:15Z</time>
      </trkpt>
      <trkpt lat="54.783759964630008" lon="26.593444989994168">
        <ele>181.34999999999999</ele>
        <time>2011-08-16T11:43:16Z</time>
      </trkpt>
      <trkpt lat="54.783793995156884" lon="26.593398973345757">
        <ele>181.34999999999999</ele>
        <time>2011-08-16T11:43:17Z</time>
      </trkpt>
      <trkpt lat="54.783829031512141" lon="26.593353040516376">
        <ele>181.34999999999999</ele>
        <time>2011-08-16T11:43:18Z</time>
      </trkpt>
      <trkpt lat="54.783859038725495" lon="26.593304006382823">
        <ele>180.87</ele>
        <time>2011-08-16T11:43:19Z</time>
      </trkpt>
      <trkpt lat="54.784187022596598" lon="26.592778963968158">
        <ele>180.87</ele>
        <time>2011-08-16T11:43:29Z</time>
      </trkpt>
      <trkpt lat="54.784428002312779" lon="26.592439999803901">
        <ele>180.87</ele>
        <time>2011-08-16T11:43:36Z</time>
      </trkpt>
      <trkpt lat="54.784972993656993" lon="26.591549003496766">
        <ele>180.38</ele>
        <time>2011-08-16T11:43:53Z</time>
      </trkpt>
      <trkpt lat="54.785034013912082" lon="26.59142897464335">
        <ele>180.38</ele>
        <time>2011-08-16T11:43:55Z</time>
      </trkpt>
      <trkpt lat="54.785548998042941" lon="26.590625988319516">
        <ele>179.90000000000001</ele>
        <time>2011-08-16T11:44:10Z</time>
      </trkpt>
      <trkpt lat="54.785689981654286" lon="26.590423984453082">
        <ele>178.94</ele>
        <time>2011-08-16T11:44:14Z</time>
      </trkpt>
      <trkpt lat="54.785728035494685" lon="26.590379979461432">
        <ele>179.90000000000001</ele>
        <time>2011-08-16T11:44:15Z</time>
      </trkpt>
      <trkpt lat="54.785942025482655" lon="26.590077979490161">
        <ele>179.90000000000001</ele>
        <time>2011-08-16T11:44:21Z</time>
      </trkpt>
      <trkpt lat="54.785975972190499" lon="26.590029029175639">
        <ele>179.90000000000001</ele>
        <time>2011-08-16T11:44:22Z</time>
      </trkpt>
      <trkpt lat="54.786006985232234" lon="26.589981000870466">
        <ele>179.90000000000001</ele>
        <time>2011-08-16T11:44:23Z</time>
      </trkpt>
      <trkpt lat="54.786036992445588" lon="26.589932972565293">
        <ele>179.90000000000001</ele>
        <time>2011-08-16T11:44:24Z</time>
      </trkpt>
      <trkpt lat="54.786072028800845" lon="26.589889973402023">
        <ele>179.90000000000001</ele>
        <time>2011-08-16T11:44:25Z</time>
      </trkpt>
      <trkpt lat="54.786132965236902" lon="26.58979601226747">
        <ele>179.41999999999999</ele>
        <time>2011-08-16T11:44:27Z</time>
      </trkpt>
      <trkpt lat="54.786204965785146" lon="26.589704984799027">
        <ele>179.90000000000001</ele>
        <time>2011-08-16T11:44:29Z</time>
      </trkpt>
      <trkpt lat="54.78668600320816" lon="26.58902496099472">
        <ele>180.87</ele>
        <time>2011-08-16T11:44:44Z</time>
      </trkpt>
      <trkpt lat="54.78718196041882" lon="26.58837703987956">
        <ele>182.31</ele>
        <time>2011-08-16T11:45:00Z</time>
      </trkpt>
      <trkpt lat="54.787766011431813" lon="26.588242007419467">
        <ele>183.27000000000001</ele>
        <time>2011-08-16T11:45:15Z</time>
      </trkpt>
      <trkpt lat="54.788260962814093" lon="26.588204959407449">
        <ele>182.31</ele>
        <time>2011-08-16T11:45:26Z</time>
      </trkpt>
      <trkpt lat="54.788498003035784" lon="26.588193979114294">
        <ele>181.34999999999999</ele>
        <time>2011-08-16T11:45:31Z</time>
      </trkpt>
      <trkpt lat="54.789325967431068" lon="26.588149974122643">
        <ele>179.41999999999999</ele>
        <time>2011-08-16T11:45:48Z</time>
      </trkpt>
      <trkpt lat="54.790051002055407" lon="26.588085014373064">
        <ele>178.46000000000001</ele>
        <time>2011-08-16T11:46:03Z</time>
      </trkpt>
      <trkpt lat="54.790984997525811" lon="26.588023994117975">
        <ele>177.02000000000001</ele>
        <time>2011-08-16T11:46:20Z</time>
      </trkpt>
      <trkpt lat="54.791942965239286" lon="26.587949981912971">
        <ele>176.53999999999999</ele>
        <time>2011-08-16T11:46:40Z</time>
      </trkpt>
      <trkpt lat="54.792686020955443" lon="26.587917041033506">
        <ele>175.58000000000001</ele>
        <time>2011-08-16T11:46:57Z</time>
      </trkpt>
      <trkpt lat="54.792979974299669" lon="26.587880998849869">
        <ele>174.62</ele>
        <time>2011-08-16T11:47:03Z</time>
      </trkpt>
      <trkpt lat="54.79366703890264" lon="26.587854009121656">
        <ele>173.66</ele>
        <time>2011-08-16T11:47:18Z</time>
      </trkpt>
      <trkpt lat="54.793757982552052" lon="26.587843028828502">
        <ele>174.13999999999999</ele>
        <time>2011-08-16T11:47:20Z</time>
      </trkpt>
      <trkpt lat="54.793929979205132" lon="26.587790977209806">
        <ele>174.62</ele>
        <time>2011-08-16T11:47:24Z</time>
      </trkpt>
      <trkpt lat="54.794444963335991" lon="26.587188988924026">
        <ele>174.13999999999999</ele>
        <time>2011-08-16T11:47:38Z</time>
      </trkpt>
      <trkpt lat="54.794918037950993" lon="26.586421960964799">
        <ele>175.58000000000001</ele>
        <time>2011-08-16T11:47:54Z</time>
      </trkpt>
      <trkpt lat="54.795382982119918" lon="26.58560598269105">
        <ele>176.53999999999999</ele>
        <time>2011-08-16T11:48:13Z</time>
      </trkpt>
      <trkpt lat="54.79575295932591" lon="26.585141960531473">
        <ele>175.58000000000001</ele>
        <time>2011-08-16T11:48:27Z</time>
      </trkpt>
      <trkpt lat="54.796447986736894" lon="26.584975998848677">
        <ele>175.58000000000001</ele>
        <time>2011-08-16T11:48:44Z</time>
      </trkpt>
      <trkpt lat="54.79714997112751" lon="26.584806013852358">
        <ele>174.62</ele>
        <time>2011-08-16T11:49:00Z</time>
      </trkpt>
      <trkpt lat="54.797333031892776" lon="26.584756979718804">
        <ele>173.66</ele>
        <time>2011-08-16T11:49:04Z</time>
      </trkpt>
      <trkpt lat="54.798030992969871" lon="26.584584983065724">
        <ele>172.69</ele>
        <time>2011-08-16T11:49:19Z</time>
      </trkpt>
      <trkpt lat="54.798873960971832" lon="26.584349032491446">
        <ele>169.81</ele>
        <time>2011-08-16T11:49:36Z</time>
      </trkpt>
      <trkpt lat="54.799847016111016" lon="26.584076033905149">
        <ele>167.88999999999999</ele>
        <time>2011-08-16T11:49:54Z</time>
      </trkpt>
      <trkpt lat="54.800003003329039" lon="26.58403798006475">
        <ele>168.84999999999999</ele>
        <time>2011-08-16T11:49:58Z</time>
      </trkpt>
      <trkpt lat="54.800724014639854" lon="26.583847040310502">
        <ele>171.25</ele>
        <time>2011-08-16T11:50:15Z</time>
      </trkpt>
      <trkpt lat="54.801285015419126" lon="26.583661967888474">
        <ele>172.69</ele>
        <time>2011-08-16T11:50:30Z</time>
      </trkpt>
      <trkpt lat="54.801898989826441" lon="26.583320992067456">
        <ele>174.62</ele>
        <time>2011-08-16T11:50:48Z</time>
      </trkpt>
      <trkpt lat="54.802386984229088" lon="26.582999965175986">
        <ele>175.09999999999999</ele>
        <time>2011-08-16T11:51:05Z</time>
      </trkpt>
      <trkpt lat="54.802760984748602" lon="26.582752028480172">
        <ele>176.53999999999999</ele>
        <time>2011-08-16T11:51:19Z</time>
      </trkpt>
      <trkpt lat="54.803139008581638" lon="26.58259998075664">
        <ele>176.53999999999999</ele>
        <time>2011-08-16T11:51:31Z</time>
      </trkpt>
      <trkpt lat="54.803215032443404" lon="26.582581959664822">
        <ele>176.53999999999999</ele>
        <time>2011-08-16T11:51:33Z</time>
      </trkpt>
      <trkpt lat="54.803474033251405" lon="26.582481041550636">
        <ele>177.02000000000001</ele>
        <time>2011-08-16T11:51:39Z</time>
      </trkpt>
      <trkpt lat="54.803604036569595" lon="26.582444999366999">
        <ele>176.53999999999999</ele>
        <time>2011-08-16T11:51:42Z</time>
      </trkpt>
      <trkpt lat="54.80428297072649" lon="26.58223201520741">
        <ele>176.06</ele>
        <time>2011-08-16T11:51:57Z</time>
      </trkpt>
      <trkpt lat="54.804523028433323" lon="26.582148028537631">
        <ele>176.53999999999999</ele>
        <time>2011-08-16T11:52:02Z</time>
      </trkpt>
      <trkpt lat="54.805163992568851" lon="26.581963039934635">
        <ele>173.16999999999999</ele>
        <time>2011-08-16T11:52:13Z</time>
      </trkpt>
      <trkpt lat="54.805995980277658" lon="26.581499017775059">
        <ele>171.25</ele>
        <time>2011-08-16T11:52:25Z</time>
      </trkpt>
      <trkpt lat="54.80640803463757" lon="26.581160975620151">
        <ele>170.77000000000001</ele>
        <time>2011-08-16T11:52:32Z</time>
      </trkpt>
      <trkpt lat="54.807132985442877" lon="26.580553036183119">
        <ele>168.84999999999999</ele>
        <time>2011-08-16T11:52:45Z</time>
      </trkpt>
      <trkpt lat="54.80767797678709" lon="26.580116003751755">
        <ele>168.84999999999999</ele>
        <time>2011-08-16T11:52:56Z</time>
      </trkpt>
      <trkpt lat="54.808350037783384" lon="26.579551985487342">
        <ele>170.77000000000001</ele>
        <time>2011-08-16T11:53:09Z</time>
      </trkpt>
      <trkpt lat="54.808907015249133" lon="26.579102966934443">
        <ele>173.16999999999999</ele>
        <time>2011-08-16T11:53:21Z</time>
      </trkpt>
      <trkpt lat="54.809170039370656" lon="26.578845977783203">
        <ele>175.09999999999999</ele>
        <time>2011-08-16T11:53:30Z</time>
      </trkpt>
      <trkpt lat="54.809555020183325" lon="26.578443981707096">
        <ele>175.09999999999999</ele>
        <time>2011-08-16T11:53:42Z</time>
      </trkpt>
      <trkpt lat="54.81014602817595" lon="26.577875018119812">
        <ele>173.16999999999999</ele>
        <time>2011-08-16T11:53:55Z</time>
      </trkpt>
      <trkpt lat="54.810195984318852" lon="26.577835036441684">
        <ele>172.69</ele>
        <time>2011-08-16T11:53:56Z</time>
      </trkpt>
      <trkpt lat="54.810801995918155" lon="26.57731200568378">
        <ele>172.21000000000001</ele>
        <time>2011-08-16T11:54:08Z</time>
      </trkpt>
      <trkpt lat="54.811066025868058" lon="26.577038001269102">
        <ele>171.72999999999999</ele>
        <time>2011-08-16T11:54:14Z</time>
      </trkpt>
      <trkpt lat="54.811253026127815" lon="26.576892994344234">
        <ele>171.72999999999999</ele>
        <time>2011-08-16T11:54:18Z</time>
      </trkpt>
      <trkpt lat="54.811923997476697" lon="26.576252030208707">
        <ele>170.28999999999999</ele>
        <time>2011-08-16T11:54:29Z</time>
      </trkpt>
      <trkpt lat="54.812224991619587" lon="26.57597903162241">
        <ele>171.25</ele>
        <time>2011-08-16T11:54:34Z</time>
      </trkpt>
      <trkpt lat="54.812721032649279" lon="26.575479973107576">
        <ele>170.28999999999999</ele>
        <time>2011-08-16T11:54:44Z</time>
      </trkpt>
      <trkpt lat="54.812923036515713" lon="26.575317028909922">
        <ele>169.81</ele>
        <time>2011-08-16T11:54:48Z</time>
      </trkpt>
      <trkpt lat="54.813071982935071" lon="26.575171016156673">
        <ele>169.81</ele>
        <time>2011-08-16T11:54:52Z</time>
      </trkpt>
      <trkpt lat="54.813152030110359" lon="26.575074959546328">
        <ele>169.81</ele>
        <time>2011-08-16T11:54:54Z</time>
      </trkpt>
      <trkpt lat="54.813704984262586" lon="26.574773965403438">
        <ele>170.28999999999999</ele>
        <time>2011-08-16T11:55:04Z</time>
      </trkpt>
      <trkpt lat="54.813988041132689" lon="26.574234003201127">
        <ele>168.37</ele>
        <time>2011-08-16T11:55:15Z</time>
      </trkpt>
      <trkpt lat="54.813999021425843" lon="26.574168959632516">
        <ele>160.68000000000001</ele>
        <time>2011-08-16T11:55:16Z</time>
      </trkpt>
      <trkpt lat="54.814011007547379" lon="26.574101988226175">
        <ele>175.58000000000001</ele>
        <time>2011-08-16T11:55:17Z</time>
      </trkpt>
      <trkpt lat="54.814021987840533" lon="26.574038034304976">
        <ele>173.66</ele>
        <time>2011-08-16T11:55:18Z</time>
      </trkpt>
      <trkpt lat="54.81403699144721" lon="26.573970979079604">
        <ele>170.28999999999999</ele>
        <time>2011-08-16T11:55:19Z</time>
      </trkpt>
      <trkpt lat="54.81405601836741" lon="26.573901996016502">
        <ele>172.21000000000001</ele>
        <time>2011-08-16T11:55:20Z</time>
      </trkpt>
      <trkpt lat="54.814074961468577" lon="26.573835024610162">
        <ele>167.88999999999999</ele>
        <time>2011-08-16T11:55:21Z</time>
      </trkpt>
      <trkpt lat="54.814098011702299" lon="26.57376897521317">
        <ele>170.28999999999999</ele>
        <time>2011-08-16T11:55:22Z</time>
      </trkpt>
      <trkpt lat="54.814129024744034" lon="26.573626985773444">
        <ele>170.28999999999999</ele>
        <time>2011-08-16T11:55:24Z</time>
      </trkpt>
      <trkpt lat="54.814201025292277" lon="26.57342498190701">
        <ele>170.28999999999999</ele>
        <time>2011-08-16T11:55:27Z</time>
      </trkpt>
      <trkpt lat="54.81435801833868" lon="26.57271402888">
        <ele>170.28999999999999</ele>
        <time>2011-08-16T11:55:39Z</time>
      </trkpt>
      <trkpt lat="54.814609978348017" lon="26.572067029774189">
        <ele>169.81</ele>
        <time>2011-08-16T11:55:50Z</time>
      </trkpt>
      <trkpt lat="54.814720032736659" lon="26.5717279817909">
        <ele>169.81</ele>
        <time>2011-08-16T11:55:55Z</time>
      </trkpt>
      <trkpt lat="54.814804019406438" lon="26.571503011509776">
        <ele>169.81</ele>
        <time>2011-08-16T11:55:58Z</time>
      </trkpt>
      <trkpt lat="54.814986996352673" lon="26.570577984675765">
        <ele>169.81</ele>
        <time>2011-08-16T11:56:12Z</time>
      </trkpt>
      <trkpt lat="54.815166033804417" lon="26.569839036092162">
        <ele>168.84999999999999</ele>
        <time>2011-08-16T11:56:24Z</time>
      </trkpt>
      <trkpt lat="54.81532696634531" lon="26.568448981270194">
        <ele>169.81</ele>
        <time>2011-08-16T11:56:43Z</time>
      </trkpt>
      <trkpt lat="54.815471973270178" lon="26.567722018808126">
        <ele>170.77000000000001</ele>
        <time>2011-08-16T11:56:53Z</time>
      </trkpt>
      <trkpt lat="54.8156279604882" lon="26.566978041082621">
        <ele>169.81</ele>
        <time>2011-08-16T11:57:03Z</time>
      </trkpt>
      <trkpt lat="54.815811021253467" lon="26.566092995926738">
        <ele>169.81</ele>
        <time>2011-08-16T11:57:15Z</time>
      </trkpt>
      <trkpt lat="54.815971031785011" lon="26.565468041226268">
        <ele>169.33000000000001</ele>
        <time>2011-08-16T11:57:25Z</time>
      </trkpt>
      <trkpt lat="54.816029034554958" lon="26.565205017104745">
        <ele>169.33000000000001</ele>
        <time>2011-08-16T11:57:29Z</time>
      </trkpt>
      <trkpt lat="54.816092988476157" lon="26.564923971891403">
        <ele>168.37</ele>
        <time>2011-08-16T11:57:33Z</time>
      </trkpt>
      <trkpt lat="54.816128024831414" lon="26.564777037128806">
        <ele>168.84999999999999</ele>
        <time>2011-08-16T11:57:35Z</time>
      </trkpt>
      <trkpt lat="54.816405968740582" lon="26.563403997570276">
        <ele>167.41</ele>
        <time>2011-08-16T11:57:54Z</time>
      </trkpt>
      <trkpt lat="54.816662035882473" lon="26.562241008505225">
        <ele>166.44999999999999</ele>
        <time>2011-08-16T11:58:10Z</time>
      </trkpt>
      <trkpt lat="54.816936040297151" lon="26.560993026942015">
        <ele>165.96000000000001</ele>
        <time>2011-08-16T11:58:26Z</time>
      </trkpt>
      <trkpt lat="54.817054979503155" lon="26.560717010870576">
        <ele>165.47999999999999</ele>
        <time>2011-08-16T11:58:31Z</time>
      </trkpt>
      <trkpt lat="54.817416993901134" lon="26.561033008620143">
        <ele>164.03999999999999</ele>
        <time>2011-08-16T11:58:41Z</time>
      </trkpt>
      <trkpt lat="54.817569963634014" lon="26.561082964763045">
        <ele>164.03999999999999</ele>
        <time>2011-08-16T11:58:51Z</time>
      </trkpt>
      <trkpt lat="54.817581027746201" lon="26.561075001955032">
        <ele>163.56</ele>
        <time>2011-08-16T11:59:09Z</time>
      </trkpt>
      <trkpt lat="54.81762302108109" lon="26.561037031933665">
        <ele>163.08000000000001</ele>
        <time>2011-08-16T11:59:23Z</time>
      </trkpt>
      <trkpt lat="54.817618997767568" lon="26.561033008620143">
        <ele>163.56</ele>
        <time>2011-08-16T12:00:06Z</time>
      </trkpt>
      <trkpt lat="54.81762302108109" lon="26.561024039983749">
        <ele>163.08000000000001</ele>
        <time>2011-08-16T12:00:57Z</time>
      </trkpt>
      <trkpt lat="54.817618997767568" lon="26.561020016670227">
        <ele>163.56</ele>
        <time>2011-08-16T12:01:41Z</time>
      </trkpt>
      <trkpt lat="54.817626960575581" lon="26.561007024720311">
        <ele>163.56</ele>
        <time>2011-08-16T12:02:01Z</time>
      </trkpt>
      <trkpt lat="54.817626960575581" lon="26.561003001406789">
        <ele>163.56</ele>
        <time>2011-08-16T12:02:47Z</time>
      </trkpt>
      <trkpt lat="54.817626960575581" lon="26.561000989750028">
        <ele>164.52000000000001</ele>
        <time>2011-08-16T12:03:33Z</time>
      </trkpt>
      <trkpt lat="54.817630983889103" lon="26.561007024720311">
        <ele>163.08000000000001</ele>
        <time>2011-08-16T12:04:15Z</time>
      </trkpt>
      <trkpt lat="54.817635007202625" lon="26.561000989750028">
        <ele>164.03999999999999</ele>
        <time>2011-08-16T12:04:57Z</time>
      </trkpt>
      <trkpt lat="54.817635007202625" lon="26.56100501306355">
        <ele>163.56</ele>
        <time>2011-08-16T12:05:39Z</time>
      </trkpt>
      <trkpt lat="54.817638024687767" lon="26.56100501306355">
        <ele>163.08000000000001</ele>
        <time>2011-08-16T12:06:15Z</time>
      </trkpt>
      <trkpt lat="54.81764598749578" lon="26.561007024720311">
        <ele>163.56</ele>
        <time>2011-08-16T12:07:01Z</time>
      </trkpt>
      <trkpt lat="54.81764598749578" lon="26.561009958386421">
        <ele>163.56</ele>
        <time>2011-08-16T12:07:41Z</time>
      </trkpt>
      <trkpt lat="54.817641964182258" lon="26.561007024720311">
        <ele>163.08000000000001</ele>
        <time>2011-08-16T12:08:18Z</time>
      </trkpt>
      <trkpt lat="54.81764598749578" lon="26.560995038598776">
        <ele>164.03999999999999</ele>
        <time>2011-08-16T12:08:59Z</time>
      </trkpt>
      <trkpt lat="54.817641964182258" lon="26.560996966436505">
        <ele>163.56</ele>
        <time>2011-08-16T12:09:39Z</time>
      </trkpt>
      <trkpt lat="54.817641964182258" lon="26.560995038598776">
        <ele>163.56</ele>
        <time>2011-08-16T12:10:14Z</time>
      </trkpt>
      <trkpt lat="54.81764598749578" lon="26.560995038598776">
        <ele>164.52000000000001</ele>
        <time>2011-08-16T12:10:45Z</time>
      </trkpt>
      <trkpt lat="54.81762302108109" lon="26.561013981699944">
        <ele>164.52000000000001</ele>
        <time>2011-08-16T12:10:56Z</time>
      </trkpt>
      <trkpt lat="54.81762302108109" lon="26.561013981699944">
        <ele>164.52000000000001</ele>
        <time>2011-08-16T12:11:00Z</time>
      </trkpt>
      <trkpt lat="54.817557977512479" lon="26.561193019151688">
        <ele>165</ele>
        <time>2011-08-16T12:11:07Z</time>
      </trkpt>
      <trkpt lat="54.817638024687767" lon="26.56136903911829">
        <ele>164.52000000000001</ele>
        <time>2011-08-16T12:11:12Z</time>
      </trkpt>
      <trkpt lat="54.817931978031993" lon="26.561823002994061">
        <ele>163.56</ele>
        <time>2011-08-16T12:11:25Z</time>
      </trkpt>
      <trkpt lat="54.817962991073728" lon="26.561857033520937">
        <ele>164.03999999999999</ele>
        <time>2011-08-16T12:11:27Z</time>
      </trkpt>
      <trkpt lat="54.817992998287082" lon="26.561879999935627">
        <ele>164.03999999999999</ele>
        <time>2011-08-16T12:11:43Z</time>
      </trkpt>
      <trkpt lat="54.817992998287082" lon="26.561879999935627">
        <ele>164.03999999999999</ele>
        <time>2011-08-16T12:12:09Z</time>
      </trkpt>
      <trkpt lat="54.818019988015294" lon="26.561917969956994">
        <ele>164.52000000000001</ele>
        <time>2011-08-16T12:12:32Z</time>
      </trkpt>
      <trkpt lat="54.818332968279719" lon="26.562150986865163">
        <ele>165</ele>
        <time>2011-08-16T12:12:48Z</time>
      </trkpt>
      <trkpt lat="54.818706968799233" lon="26.562126008793712">
        <ele>165.47999999999999</ele>
        <time>2011-08-16T12:13:03Z</time>
      </trkpt>
      <trkpt lat="54.819016009569168" lon="26.562064988538623">
        <ele>166.93000000000001</ele>
        <time>2011-08-16T12:13:19Z</time>
      </trkpt>
      <trkpt lat="54.819037970155478" lon="26.562086027115583">
        <ele>162.12</ele>
        <time>2011-08-16T12:13:25Z</time>
      </trkpt>
      <trkpt lat="54.819037970155478" lon="26.562086027115583">
        <ele>167.88999999999999</ele>
        <time>2011-08-16T12:13:27Z</time>
      </trkpt>
      <trkpt lat="54.819037970155478" lon="26.562086027115583">
        <ele>163.56</ele>
        <time>2011-08-16T12:13:28Z</time>
      </trkpt>
      <trkpt lat="54.819037970155478" lon="26.562086027115583">
        <ele>167.41</ele>
        <time>2011-08-16T12:13:30Z</time>
      </trkpt>
      <trkpt lat="54.819037970155478" lon="26.562086027115583">
        <ele>161.63999999999999</ele>
        <time>2011-08-16T12:13:31Z</time>
      </trkpt>
      <trkpt lat="54.819037970155478" lon="26.562086027115583">
        <ele>166.44999999999999</ele>
        <time>2011-08-16T12:13:32Z</time>
      </trkpt>
      <trkpt lat="54.819037970155478" lon="26.562086027115583">
        <ele>163.08000000000001</ele>
        <time>2011-08-16T12:13:39Z</time>
      </trkpt>
      <trkpt lat="54.819037970155478" lon="26.562086027115583">
        <ele>167.41</ele>
        <time>2011-08-16T12:13:40Z</time>
      </trkpt>
      <trkpt lat="54.819037970155478" lon="26.562086027115583">
        <ele>166.44999999999999</ele>
        <time>2011-08-16T12:13:41Z</time>
      </trkpt>
      <trkpt lat="54.819037970155478" lon="26.56210103072226">
        <ele>166.93000000000001</ele>
        <time>2011-08-16T12:13:53Z</time>
      </trkpt>
      <trkpt lat="54.819073006510735" lon="26.562131959944963">
        <ele>166.93000000000001</ele>
        <time>2011-08-16T12:14:09Z</time>
      </trkpt>
      <trkpt lat="54.819073006510735" lon="26.562133971601725">
        <ele>166.44999999999999</ele>
        <time>2011-08-16T12:14:53Z</time>
      </trkpt>
      <trkpt lat="54.819073006510735" lon="26.562140006572008">
        <ele>165.96000000000001</ele>
        <time>2011-08-16T12:15:28Z</time>
      </trkpt>
      <trkpt lat="54.819077029824257" lon="26.562145035713911">
        <ele>166.93000000000001</ele>
        <time>2011-08-16T12:16:09Z</time>
      </trkpt>
      <trkpt lat="54.819077029824257" lon="26.562145035713911">
        <ele>166.44999999999999</ele>
        <time>2011-08-16T12:16:43Z</time>
      </trkpt>
      <trkpt lat="54.819077029824257" lon="26.562145035713911">
        <ele>166.93000000000001</ele>
        <time>2011-08-16T12:17:18Z</time>
      </trkpt>
      <trkpt lat="54.819077029824257" lon="26.562146963551641">
        <ele>166.44999999999999</ele>
        <time>2011-08-16T12:17:54Z</time>
      </trkpt>
      <trkpt lat="54.819079963490367" lon="26.562157021835446">
        <ele>167.41</ele>
        <time>2011-08-16T12:18:21Z</time>
      </trkpt>
      <trkpt lat="54.819079963490367" lon="26.562157021835446">
        <ele>166.93000000000001</ele>
        <time>2011-08-16T12:18:38Z</time>
      </trkpt>
      <trkpt lat="54.819079963490367" lon="26.562207983806729">
        <ele>167.41</ele>
        <time>2011-08-16T12:18:57Z</time>
      </trkpt>
      <trkpt lat="54.819103013724089" lon="26.562241008505225">
        <ele>166.44999999999999</ele>
        <time>2011-08-16T12:19:00Z</time>
      </trkpt>
      <trkpt lat="54.819122040644288" lon="26.562330024316907">
        <ele>166.93000000000001</ele>
        <time>2011-08-16T12:19:05Z</time>
      </trkpt>
      <trkpt lat="54.819255983456969" lon="26.562825981527567">
        <ele>167.41</ele>
        <time>2011-08-16T12:19:20Z</time>
      </trkpt>
      <trkpt lat="54.81947299093008" lon="26.56289697624743">
        <ele>168.37</ele>
        <time>2011-08-16T12:19:30Z</time>
      </trkpt>
      <trkpt lat="54.81992301531136" lon="26.562489029020071">
        <ele>167.41</ele>
        <time>2011-08-16T12:19:46Z</time>
      </trkpt>
      <trkpt lat="54.819954028353095" lon="26.562462039291859">
        <ele>164.03999999999999</ele>
        <time>2011-08-16T12:19:47Z</time>
      </trkpt>
      <trkpt lat="54.819981018081307" lon="26.562434965744615">
        <ele>170.28999999999999</ele>
        <time>2011-08-16T12:19:48Z</time>
      </trkpt>
      <trkpt lat="54.820007001981139" lon="26.562407976016402">
        <ele>164.52000000000001</ele>
        <time>2011-08-16T12:19:49Z</time>
      </trkpt>
      <trkpt lat="54.820033991709352" lon="26.562384003773332">
        <ele>169.33000000000001</ele>
        <time>2011-08-16T12:19:50Z</time>
      </trkpt>
      <trkpt lat="54.820579988881946" lon="26.561906989663839">
        <ele>168.37</ele>
        <time>2011-08-16T12:20:07Z</time>
      </trkpt>
      <trkpt lat="54.821124980226159" lon="26.561427963897586">
        <ele>168.84999999999999</ele>
        <time>2011-08-16T12:20:24Z</time>
      </trkpt>
      <trkpt lat="54.821762004867196" lon="26.560868974775076">
        <ele>168.84999999999999</ele>
        <time>2011-08-16T12:20:43Z</time>
      </trkpt>
      <trkpt lat="54.822406992316246" lon="26.560292970389128">
        <ele>168.84999999999999</ele>
        <time>2011-08-16T12:21:02Z</time>
      </trkpt>
      <trkpt lat="54.822978973388672" lon="26.559789972379804">
        <ele>168.37</ele>
        <time>2011-08-16T12:21:19Z</time>
      </trkpt>
      <trkpt lat="54.823482977226377" lon="26.559368027374148">
        <ele>168.37</ele>
        <time>2011-08-16T12:21:33Z</time>
      </trkpt>
      <trkpt lat="54.824120001867414" lon="26.558772996068001">
        <ele>167.41</ele>
        <time>2011-08-16T12:21:51Z</time>
      </trkpt>
      <trkpt lat="54.824687959626317" lon="26.558310985565186">
        <ele>167.41</ele>
        <time>2011-08-16T12:22:08Z</time>
      </trkpt>
      <trkpt lat="54.825297994539142" lon="26.557750990614295">
        <ele>168.37</ele>
        <time>2011-08-16T12:22:25Z</time>
      </trkpt>
      <trkpt lat="54.8258510325104" lon="26.557295015081763">
        <ele>168.84999999999999</ele>
        <time>2011-08-16T12:22:42Z</time>
      </trkpt>
      <trkpt lat="54.826358975842595" lon="26.556842979043722">
        <ele>167.41</ele>
        <time>2011-08-16T12:22:58Z</time>
      </trkpt>
      <trkpt lat="54.82662602327764" lon="26.55662496574223">
        <ele>168.37</ele>
        <time>2011-08-16T12:23:10Z</time>
      </trkpt>
      <trkpt lat="54.82662602327764" lon="26.55662496574223">
        <ele>168.37</ele>
        <time>2011-08-16T12:23:31Z</time>
      </trkpt>
      <trkpt lat="54.826621999964118" lon="26.55662496574223">
        <ele>168.84999999999999</ele>
        <time>2011-08-16T12:23:55Z</time>
      </trkpt>
      <trkpt lat="54.826617976650596" lon="26.556613985449076">
        <ele>168.37</ele>
        <time>2011-08-16T12:24:28Z</time>
      </trkpt>
      <trkpt lat="54.826617976650596" lon="26.556613985449076">
        <ele>168.37</ele>
        <time>2011-08-16T12:25:00Z</time>
      </trkpt>
      <trkpt lat="54.826617976650596" lon="26.556613985449076">
        <ele>168.37</ele>
        <time>2011-08-16T12:25:05Z</time>
      </trkpt>
      <trkpt lat="54.826843030750751" lon="26.556347021833062">
        <ele>169.33000000000001</ele>
        <time>2011-08-16T12:25:17Z</time>
      </trkpt>
      <trkpt lat="54.826916037127376" lon="26.556264963001013">
        <ele>168.84999999999999</ele>
        <time>2011-08-16T12:25:20Z</time>
      </trkpt>
      <trkpt lat="54.827094990760088" lon="26.556028006598353">
        <ele>168.37</ele>
        <time>2011-08-16T12:25:30Z</time>
      </trkpt>
      <trkpt lat="54.827488018199801" lon="26.555687030777335">
        <ele>169.81</ele>
        <time>2011-08-16T12:25:44Z</time>
      </trkpt>
      <trkpt lat="54.827754981815815" lon="26.555401040241122">
        <ele>169.81</ele>
        <time>2011-08-16T12:25:54Z</time>
      </trkpt>
      <trkpt lat="54.827857995405793" lon="26.555281011387706">
        <ele>170.28999999999999</ele>
        <time>2011-08-16T12:25:58Z</time>
      </trkpt>
      <trkpt lat="54.828025968745351" lon="26.555141033604741">
        <ele>169.81</ele>
        <time>2011-08-16T12:26:04Z</time>
      </trkpt>
      <trkpt lat="54.828136023133993" lon="26.555013963952661">
        <ele>170.28999999999999</ele>
        <time>2011-08-16T12:26:11Z</time>
      </trkpt>
      <trkpt lat="54.828266026452184" lon="26.554917991161346">
        <ele>170.77000000000001</ele>
        <time>2011-08-16T12:26:16Z</time>
      </trkpt>
      <trkpt lat="54.82849502004683" lon="26.554744988679886">
        <ele>170.77000000000001</ele>
        <time>2011-08-16T12:26:23Z</time>
      </trkpt>
      <trkpt lat="54.82866701669991" lon="26.55462596565485">
        <ele>170.77000000000001</ele>
        <time>2011-08-16T12:26:29Z</time>
      </trkpt>
      <trkpt lat="54.828933980315924" lon="26.554403007030487">
        <ele>171.25</ele>
        <time>2011-08-16T12:26:38Z</time>
      </trkpt>
      <trkpt lat="54.828983014449477" lon="26.554357996210456">
        <ele>171.25</ele>
        <time>2011-08-16T12:26:40Z</time>
      </trkpt>
      <trkpt lat="54.829170014709234" lon="26.554203014820814">
        <ele>170.77000000000001</ele>
        <time>2011-08-16T12:26:46Z</time>
      </trkpt>
      <trkpt lat="54.829575028270483" lon="26.554009979590774">
        <ele>170.28999999999999</ele>
        <time>2011-08-16T12:26:58Z</time>
      </trkpt>
      <trkpt lat="54.829876022413373" lon="26.553730024024844">
        <ele>170.28999999999999</ele>
        <time>2011-08-16T12:27:09Z</time>
      </trkpt>
      <trkpt lat="54.830199982970953" lon="26.553431041538715">
        <ele>169.33000000000001</ele>
        <time>2011-08-16T12:27:22Z</time>
      </trkpt>
      <trkpt lat="54.830241976305842" lon="26.553400028496981">
        <ele>169.81</ele>
        <time>2011-08-16T12:27:24Z</time>
      </trkpt>
      <trkpt lat="54.830417996272445" lon="26.553250998258591">
        <ele>169.33000000000001</ele>
        <time>2011-08-16T12:27:33Z</time>
      </trkpt>
      <trkpt lat="54.830527966842055" lon="26.553145973011851">
        <ele>169.81</ele>
        <time>2011-08-16T12:27:38Z</time>
      </trkpt>
      <trkpt lat="54.830914037302136" lon="26.55279896222055">
        <ele>170.28999999999999</ele>
        <time>2011-08-16T12:27:53Z</time>
      </trkpt>
      <trkpt lat="54.831398008391261" lon="26.552344998344779">
        <ele>171.25</ele>
        <time>2011-08-16T12:28:10Z</time>
      </trkpt>
      <trkpt lat="54.831836968660355" lon="26.551969991996884">
        <ele>172.69</ele>
        <time>2011-08-16T12:28:25Z</time>
      </trkpt>
      <trkpt lat="54.832141986116767" lon="26.551707973703742">
        <ele>172.69</ele>
        <time>2011-08-16T12:28:36Z</time>
      </trkpt>
      <trkpt lat="54.832333009690046" lon="26.551540000364184">
        <ele>173.16999999999999</ele>
        <time>2011-08-16T12:28:46Z</time>
      </trkpt>
      <trkpt lat="54.832583963871002" lon="26.551333973184228">
        <ele>173.16999999999999</ele>
        <time>2011-08-16T12:28:57Z</time>
      </trkpt>
      <trkpt lat="54.832912031561136" lon="26.551109002903104">
        <ele>172.21000000000001</ele>
        <time>2011-08-16T12:29:08Z</time>
      </trkpt>
      <trkpt lat="54.833320984616876" lon="26.550697032362223">
        <ele>172.21000000000001</ele>
        <time>2011-08-16T12:29:22Z</time>
      </trkpt>
      <trkpt lat="54.833735972642899" lon="26.550315991044044">
        <ele>173.16999999999999</ele>
        <time>2011-08-16T12:29:36Z</time>
      </trkpt>
      <trkpt lat="54.83410301618278" lon="26.549998987466097">
        <ele>173.16999999999999</ele>
        <time>2011-08-16T12:29:50Z</time>
      </trkpt>
      <trkpt lat="54.834534013643861" lon="26.549605960026383">
        <ele>174.13999999999999</ele>
        <time>2011-08-16T12:30:05Z</time>
      </trkpt>
      <trkpt lat="54.834758983924985" lon="26.549433041363955">
        <ele>174.13999999999999</ele>
        <time>2011-08-16T12:30:17Z</time>
      </trkpt>
      <trkpt lat="54.834866020828485" lon="26.549321981146932">
        <ele>174.13999999999999</ele>
        <time>2011-08-16T12:30:34Z</time>
      </trkpt>
      <trkpt lat="54.835204984992743" lon="26.549050994217396">
        <ele>175.58000000000001</ele>
        <time>2011-08-16T12:30:47Z</time>
      </trkpt>
      <trkpt lat="54.835674036294222" lon="26.548639023676515">
        <ele>177.02000000000001</ele>
        <time>2011-08-16T12:31:03Z</time>
      </trkpt>
      <trkpt lat="54.836086006835103" lon="26.548272985965014">
        <ele>178.46000000000001</ele>
        <time>2011-08-16T12:31:18Z</time>
      </trkpt>
      <trkpt lat="54.83642203733325" lon="26.547980960458517">
        <ele>179.41999999999999</ele>
        <time>2011-08-16T12:31:30Z</time>
      </trkpt>
      <trkpt lat="54.836792014539242" lon="26.547654988244176">
        <ele>179.41999999999999</ele>
        <time>2011-08-16T12:31:43Z</time>
      </trkpt>
      <trkpt lat="54.837269028648734" lon="26.547256009653211">
        <ele>180.87</ele>
        <time>2011-08-16T12:31:59Z</time>
      </trkpt>
      <trkpt lat="54.837452005594969" lon="26.547102034091949">
        <ele>180.87</ele>
        <time>2011-08-16T12:32:06Z</time>
      </trkpt>
      <trkpt lat="54.837821982800961" lon="26.546790981665254">
        <ele>181.34999999999999</ele>
        <time>2011-08-16T12:32:20Z</time>
      </trkpt>
      <trkpt lat="54.838008983060718" lon="26.546597024425864">
        <ele>181.83000000000001</ele>
        <time>2011-08-16T12:32:28Z</time>
      </trkpt>
      <trkpt lat="54.838177040219307" lon="26.546088997274637">
        <ele>182.31</ele>
        <time>2011-08-16T12:32:42Z</time>
      </trkpt>
      <trkpt lat="54.838382983580232" lon="26.545507041737437">
        <ele>183.27000000000001</ele>
        <time>2011-08-16T12:32:55Z</time>
      </trkpt>
      <trkpt lat="54.838547017425299" lon="26.544990967959166">
        <ele>183.27000000000001</ele>
        <time>2011-08-16T12:33:06Z</time>
      </trkpt>
      <trkpt lat="54.838599991053343" lon="26.544862976297736">
        <ele>183.27000000000001</ele>
        <time>2011-08-16T12:33:09Z</time>
      </trkpt>
      <trkpt lat="54.838676014915109" lon="26.544367019087076">
        <ele>183.27000000000001</ele>
        <time>2011-08-16T12:33:19Z</time>
      </trkpt>
      <trkpt lat="54.838848011568189" lon="26.543958988040686">
        <ele>183.75</ele>
        <time>2011-08-16T12:33:32Z</time>
      </trkpt>
      <trkpt lat="54.838707027956843" lon="26.543426988646388">
        <ele>184.71000000000001</ele>
        <time>2011-08-16T12:33:43Z</time>
      </trkpt>
      <trkpt lat="54.838776011019945" lon="26.543223978951573">
        <ele>184.22999999999999</ele>
        <time>2011-08-16T12:33:48Z</time>
      </trkpt>
      <trkpt lat="54.839190999045968" lon="26.542904041707516">
        <ele>184.22999999999999</ele>
        <time>2011-08-16T12:34:02Z</time>
      </trkpt>
      <trkpt lat="54.839751999825239" lon="26.542370030656457">
        <ele>185.66999999999999</ele>
        <time>2011-08-16T12:34:22Z</time>
      </trkpt>
      <trkpt lat="54.84029003418982" lon="26.541891004890203">
        <ele>186.15000000000001</ele>
        <time>2011-08-16T12:34:40Z</time>
      </trkpt>
      <trkpt lat="54.840854974463582" lon="26.541381971910596">
        <ele>185.66999999999999</ele>
        <time>2011-08-16T12:34:59Z</time>
      </trkpt>
      <trkpt lat="54.841460986062884" lon="26.540857013314962">
        <ele>185.19</ele>
        <time>2011-08-16T12:35:16Z</time>
      </trkpt>
      <trkpt lat="54.842041013762355" lon="26.5403370000422">
        <ele>184.22999999999999</ele>
        <time>2011-08-16T12:35:32Z</time>
      </trkpt>
      <trkpt lat="54.84250302426517" lon="26.539940033107996">
        <ele>183.27000000000001</ele>
        <time>2011-08-16T12:35:44Z</time>
      </trkpt>
      <trkpt lat="54.842945002019405" lon="26.539556980133057">
        <ele>183.27000000000001</ele>
        <time>2011-08-16T12:35:57Z</time>
      </trkpt>
      <trkpt lat="54.843013985082507" lon="26.539492020383477">
        <ele>183.27000000000001</ele>
        <time>2011-08-16T12:35:59Z</time>
      </trkpt>
      <trkpt lat="54.843296036124229" lon="26.539232013747096">
        <ele>183.75</ele>
        <time>2011-08-16T12:36:07Z</time>
      </trkpt>
      <trkpt lat="54.843800039961934" lon="26.538719041272998">
        <ele>183.27000000000001</ele>
        <time>2011-08-16T12:36:21Z</time>
      </trkpt>
      <trkpt lat="54.844299014657736" lon="26.53829600661993">
        <ele>183.75</ele>
        <time>2011-08-16T12:36:34Z</time>
      </trkpt>
      <trkpt lat="54.844776028767228" lon="26.537809018045664">
        <ele>183.27000000000001</ele>
        <time>2011-08-16T12:36:48Z</time>
      </trkpt>
      <trkpt lat="54.845219012349844" lon="26.537422025576234">
        <ele>184.22999999999999</ele>
        <time>2011-08-16T12:37:01Z</time>
      </trkpt>
      <trkpt lat="54.845714969560504" lon="26.537023968994617">
        <ele>184.22999999999999</ele>
        <time>2011-08-16T12:37:14Z</time>
      </trkpt>
      <trkpt lat="54.846103973686695" lon="26.536659020930529">
        <ele>184.71000000000001</ele>
        <time>2011-08-16T12:37:24Z</time>
      </trkpt>
      <trkpt lat="54.84667201526463" lon="26.536193992942572">
        <ele>185.66999999999999</ele>
        <time>2011-08-16T12:37:39Z</time>
      </trkpt>
      <trkpt lat="54.846745021641254" lon="26.53612500987947">
        <ele>186.15000000000001</ele>
        <time>2011-08-16T12:37:41Z</time>
      </trkpt>
      <trkpt lat="54.846869995817542" lon="26.536046974360943">
        <ele>185.66999999999999</ele>
        <time>2011-08-16T12:37:44Z</time>
      </trkpt>
      <trkpt lat="54.847243996337056" lon="26.535687977448106">
        <ele>185.19</ele>
        <time>2011-08-16T12:37:55Z</time>
      </trkpt>
      <trkpt lat="54.847736014053226" lon="26.535280030220747">
        <ele>186.15000000000001</ele>
        <time>2011-08-16T12:38:08Z</time>
      </trkpt>
      <trkpt lat="54.847820000723004" lon="26.535212974995375">
        <ele>186.15000000000001</ele>
        <time>2011-08-16T12:38:10Z</time>
      </trkpt>
      <trkpt lat="54.848102973774076" lon="26.534999990835786">
        <ele>185.66999999999999</ele>
        <time>2011-08-16T12:38:17Z</time>
      </trkpt>
      <trkpt lat="54.848475968465209" lon="26.534669995307922">
        <ele>186.15000000000001</ele>
        <time>2011-08-16T12:38:28Z</time>
      </trkpt>
      <trkpt lat="54.848868995904922" lon="26.534306975081563">
        <ele>186.15000000000001</ele>
        <time>2011-08-16T12:38:39Z</time>
      </trkpt>
      <trkpt lat="54.84903302974999" lon="26.53419298119843">
        <ele>186.63</ele>
        <time>2011-08-16T12:38:43Z</time>
      </trkpt>
      <trkpt lat="54.849513983353972" lon="26.533788973465562">
        <ele>186.15000000000001</ele>
        <time>2011-08-16T12:38:56Z</time>
      </trkpt>
      <trkpt lat="54.849995020776987" lon="26.533340038731694">
        <ele>186.15000000000001</ele>
        <time>2011-08-16T12:39:09Z</time>
      </trkpt>
      <trkpt lat="54.850158970803022" lon="26.533145997673273">
        <ele>186.15000000000001</ele>
        <time>2011-08-16T12:39:14Z</time>
      </trkpt>
      <trkpt lat="54.850670015439391" lon="26.532705025747418">
        <ele>186.63</ele>
        <time>2011-08-16T12:39:27Z</time>
      </trkpt>
      <trkpt lat="54.85122699290514" lon="26.532259024679661">
        <ele>187.11000000000001</ele>
        <time>2011-08-16T12:39:41Z</time>
      </trkpt>
      <trkpt lat="54.851600993424654" lon="26.531905978918076">
        <ele>188.08000000000001</ele>
        <time>2011-08-16T12:39:52Z</time>
      </trkpt>
      <trkpt lat="54.851791011169553" lon="26.531735993921757">
        <ele>187.59</ele>
        <time>2011-08-16T12:39:57Z</time>
      </trkpt>
      <trkpt lat="54.852176997810602" lon="26.531422007828951">
        <ele>188.56</ele>
        <time>2011-08-16T12:40:07Z</time>
      </trkpt>
      <trkpt lat="54.852435998618603" lon="26.531245987862349">
        <ele>188.56</ele>
        <time>2011-08-16T12:40:13Z</time>
      </trkpt>
      <trkpt lat="54.852638002485037" lon="26.531124031171203">
        <ele>189.03999999999999</ele>
        <time>2011-08-16T12:40:18Z</time>
      </trkpt>
      <trkpt lat="54.853157009929419" lon="26.530748018994927">
        <ele>189.03999999999999</ele>
        <time>2011-08-16T12:40:32Z</time>
      </trkpt>
      <trkpt lat="54.853595970198512" lon="26.530465967953205">
        <ele>187.59</ele>
        <time>2011-08-16T12:40:43Z</time>
      </trkpt>
      <trkpt lat="54.854087987914681" lon="26.530150976032019">
        <ele>187.59</ele>
        <time>2011-08-16T12:40:56Z</time>
      </trkpt>
      <trkpt lat="54.854434998705983" lon="26.52993799187243">
        <ele>188.56</ele>
        <time>2011-08-16T12:41:07Z</time>
      </trkpt>
      <trkpt lat="54.854846969246864" lon="26.529632974416018">
        <ele>188.56</ele>
        <time>2011-08-16T12:41:20Z</time>
      </trkpt>
      <trkpt lat="54.855365976691246" lon="26.529081026092172">
        <ele>190.47999999999999</ele>
        <time>2011-08-16T12:41:38Z</time>
      </trkpt>
      <trkpt lat="54.855877021327615" lon="26.528421035036445">
        <ele>191.91999999999999</ele>
        <time>2011-08-16T12:41:58Z</time>
      </trkpt>
      <trkpt lat="54.85631899908185" lon="26.528123980388045">
        <ele>193.84</ele>
        <time>2011-08-16T12:42:13Z</time>
      </trkpt>
      <trkpt lat="54.856803975999355" lon="26.528187012299895">
        <ele>194.80000000000001</ele>
        <time>2011-08-16T12:42:28Z</time>
      </trkpt>
      <trkpt lat="54.857346033677459" lon="26.528195980936289">
        <ele>196.25</ele>
        <time>2011-08-16T12:42:44Z</time>
      </trkpt>
      <trkpt lat="54.857779964804649" lon="26.528099002316594">
        <ele>196.25</ele>
        <time>2011-08-16T12:42:57Z</time>
      </trkpt>
      <trkpt lat="54.858219008892775" lon="26.527877971529961">
        <ele>196.25</ele>
        <time>2011-08-16T12:43:11Z</time>
      </trkpt>
      <trkpt lat="54.858593009412289" lon="26.527628023177385">
        <ele>196.72999999999999</ele>
        <time>2011-08-16T12:43:27Z</time>
      </trkpt>
      <trkpt lat="54.858645983040333" lon="26.527597010135651">
        <ele>197.21000000000001</ele>
        <time>2011-08-16T12:43:29Z</time>
      </trkpt>
      <trkpt lat="54.858989976346493" lon="26.527434987947345">
        <ele>197.69</ele>
        <time>2011-08-16T12:43:42Z</time>
      </trkpt>
      <trkpt lat="54.859275966882706" lon="26.527286963537335">
        <ele>197.69</ele>
        <time>2011-08-16T12:43:51Z</time>
      </trkpt>
      <trkpt lat="54.85947797074914" lon="26.527171963825822">
        <ele>198.16999999999999</ele>
        <time>2011-08-16T12:44:03Z</time>
      </trkpt>
      <trkpt lat="54.85947797074914" lon="26.527171963825822">
        <ele>198.16999999999999</ele>
        <time>2011-08-16T12:44:20Z</time>
      </trkpt>
      <trkpt lat="54.859486017376184" lon="26.527170035988092">
        <ele>197.69</ele>
        <time>2011-08-16T12:44:33Z</time>
      </trkpt>
      <trkpt lat="54.859489034861326" lon="26.527173975482583">
        <ele>197.69</ele>
        <time>2011-08-16T12:44:59Z</time>
      </trkpt>
      <trkpt lat="54.859489034861326" lon="26.527173975482583">
        <ele>197.69</ele>
        <time>2011-08-16T12:45:34Z</time>
      </trkpt>
      <trkpt lat="54.859492974355817" lon="26.527173975482583">
        <ele>198.16999999999999</ele>
        <time>2011-08-16T12:46:03Z</time>
      </trkpt>
      <trkpt lat="54.859492974355817" lon="26.527173975482583">
        <ele>198.16999999999999</ele>
        <time>2011-08-16T12:46:36Z</time>
      </trkpt>
      <trkpt lat="54.859492974355817" lon="26.527173975482583">
        <ele>197.69</ele>
        <time>2011-08-16T12:47:04Z</time>
      </trkpt>
      <trkpt lat="54.859492974355817" lon="26.527173975482583">
        <ele>197.69</ele>
        <time>2011-08-16T12:47:38Z</time>
      </trkpt>
      <trkpt lat="54.859512001276016" lon="26.527155032381415">
        <ele>197.69</ele>
        <time>2011-08-16T12:48:07Z</time>
      </trkpt>
      <trkpt lat="54.859543014317751" lon="26.52710298076272">
        <ele>197.21000000000001</ele>
        <time>2011-08-16T12:48:20Z</time>
      </trkpt>
      <trkpt lat="54.859543014317751" lon="26.52710298076272">
        <ele>197.69</ele>
        <time>2011-08-16T12:48:25Z</time>
      </trkpt>
      <trkpt lat="54.85986303538084" lon="26.526905000209808">
        <ele>198.65000000000001</ele>
        <time>2011-08-16T12:48:40Z</time>
      </trkpt>
      <trkpt lat="54.860264025628567" lon="26.526700984686613">
        <ele>198.16999999999999</ele>
        <time>2011-08-16T12:48:54Z</time>
      </trkpt>
      <trkpt lat="54.860728969797492" lon="26.526425974443555">
        <ele>198.16999999999999</ele>
        <time>2011-08-16T12:49:09Z</time>
      </trkpt>
      <trkpt lat="54.860821003094316" lon="26.526316003873944">
        <ele>198.65000000000001</ele>
        <time>2011-08-16T12:49:14Z</time>
      </trkpt>
      <trkpt lat="54.860752020031214" lon="26.526003023609519">
        <ele>199.13</ele>
        <time>2011-08-16T12:49:24Z</time>
      </trkpt>
      <trkpt lat="54.860698962584138" lon="26.525427019223571">
        <ele>199.61000000000001</ele>
        <time>2011-08-16T12:49:39Z</time>
      </trkpt>
      <trkpt lat="54.860629979521036" lon="26.524925027042627">
        <ele>200.09</ele>
        <time>2011-08-16T12:49:51Z</time>
      </trkpt>
      <trkpt lat="54.860503999516368" lon="26.524206027388573">
        <ele>201.05000000000001</ele>
        <time>2011-08-16T12:50:09Z</time>
      </trkpt>
      <trkpt lat="54.86033602617681" lon="26.52357897721231">
        <ele>201.53</ele>
        <time>2011-08-16T12:50:24Z</time>
      </trkpt>
      <trkpt lat="54.860218008980155" lon="26.52308302000165">
        <ele>201.53</ele>
        <time>2011-08-16T12:50:36Z</time>
      </trkpt>
      <trkpt lat="54.860161012038589" lon="26.522540962323546">
        <ele>202.49000000000001</ele>
        <time>2011-08-16T12:50:48Z</time>
      </trkpt>
      <trkpt lat="54.860149025917053" lon="26.521880971267819">
        <ele>203.94</ele>
        <time>2011-08-16T12:51:02Z</time>
      </trkpt>
      <trkpt lat="54.860183978453279" lon="26.521185021847486">
        <ele>205.38</ele>
        <time>2011-08-16T12:51:19Z</time>
      </trkpt>
      <trkpt lat="54.86022898927331" lon="26.520427968353033">
        <ele>207.78</ele>
        <time>2011-08-16T12:51:38Z</time>
      </trkpt>
      <trkpt lat="54.860301995649934" lon="26.519793039187789">
        <ele>208.74000000000001</ele>
        <time>2011-08-16T12:51:54Z</time>
      </trkpt>
      <trkpt lat="54.860324962064624" lon="26.519718021154404">
        <ele>208.74000000000001</ele>
        <time>2011-08-16T12:51:56Z</time>
      </trkpt>
      <trkpt lat="54.860370978713036" lon="26.519534960389137">
        <ele>208.74000000000001</ele>
        <time>2011-08-16T12:52:01Z</time>
      </trkpt>
      <trkpt lat="54.860373996198177" lon="26.518920985981822">
        <ele>209.22</ele>
        <time>2011-08-16T12:52:16Z</time>
      </trkpt>
      <trkpt lat="54.860363015905023" lon="26.518381023779511">
        <ele>209.69999999999999</ele>
        <time>2011-08-16T12:52:30Z</time>
      </trkpt>
      <trkpt lat="54.860252039507031" lon="26.517808958888054">
        <ele>211.15000000000001</ele>
        <time>2011-08-16T12:52:43Z</time>
      </trkpt>
      <trkpt lat="54.860068978741765" lon="26.516972025856376">
        <ele>211.63</ele>
        <time>2011-08-16T12:53:01Z</time>
      </trkpt>
      <trkpt lat="54.860038971528411" lon="26.516827018931508">
        <ele>213.06999999999999</ele>
        <time>2011-08-16T12:53:04Z</time>
      </trkpt>
      <trkpt lat="54.859866974875331" lon="26.51607901789248">
        <ele>212.11000000000001</ele>
        <time>2011-08-16T12:53:19Z</time>
      </trkpt>
      <trkpt lat="54.85973403789103" lon="26.515522040426731">
        <ele>213.55000000000001</ele>
        <time>2011-08-16T12:53:31Z</time>
      </trkpt>
      <trkpt lat="54.85958500765264" lon="26.514797005802393">
        <ele>213.06999999999999</ele>
        <time>2011-08-16T12:53:46Z</time>
      </trkpt>
      <trkpt lat="54.859447041526437" lon="26.514139026403427">
        <ele>213.06999999999999</ele>
        <time>2011-08-16T12:54:00Z</time>
      </trkpt>
      <trkpt lat="54.859260963276029" lon="26.513315001502633">
        <ele>213.55000000000001</ele>
        <time>2011-08-16T12:54:17Z</time>
      </trkpt>
      <trkpt lat="54.85911201685667" lon="26.512622991576791">
        <ele>214.03</ele>
        <time>2011-08-16T12:54:32Z</time>
      </trkpt>
      <trkpt lat="54.858967009931803" lon="26.511864010244608">
        <ele>213.06999999999999</ele>
        <time>2011-08-16T12:54:47Z</time>
      </trkpt>
      <trkpt lat="54.858848992735147" lon="26.51116001419723">
        <ele>212.11000000000001</ele>
        <time>2011-08-16T12:55:01Z</time>
      </trkpt>
      <trkpt lat="54.85870398581028" lon="26.510399021208286">
        <ele>212.59</ele>
        <time>2011-08-16T12:55:17Z</time>
      </trkpt>
      <trkpt lat="54.858578005805612" lon="26.509974980726838">
        <ele>213.55000000000001</ele>
        <time>2011-08-16T12:55:29Z</time>
      </trkpt>
      <trkpt lat="54.858470968902111" lon="26.509520011022687">
        <ele>214.03</ele>
        <time>2011-08-16T12:55:42Z</time>
      </trkpt>
      <trkpt lat="54.858406009152532" lon="26.509233014658093">
        <ele>214.50999999999999</ele>
        <time>2011-08-16T12:55:49Z</time>
      </trkpt>
      <trkpt lat="54.858353035524487" lon="26.508976025506854">
        <ele>214.50999999999999</ele>
        <time>2011-08-16T12:55:55Z</time>
      </trkpt>
      <trkpt lat="54.85823099501431" lon="26.508504962548614">
        <ele>214.03</ele>
        <time>2011-08-16T12:56:07Z</time>
      </trkpt>
      <trkpt lat="54.858153965324163" lon="26.508095003664494">
        <ele>214.50999999999999</ele>
        <time>2011-08-16T12:56:18Z</time>
      </trkpt>
      <trkpt lat="54.85808196477592" lon="26.507586976513267">
        <ele>214.03</ele>
        <time>2011-08-16T12:56:28Z</time>
      </trkpt>
      <trkpt lat="54.85805899836123" lon="26.507462002336979">
        <ele>213.55000000000001</ele>
        <time>2011-08-16T12:56:31Z</time>
      </trkpt>
      <trkpt lat="54.857964031398296" lon="26.50714298710227">
        <ele>212.11000000000001</ele>
        <time>2011-08-16T12:56:44Z</time>
      </trkpt>
      <trkpt lat="54.857894964516163" lon="26.507029999047518">
        <ele>210.19</ele>
        <time>2011-08-16T12:56:49Z</time>
      </trkpt>
      <trkpt lat="54.857871998101473" lon="26.506940983235836">
        <ele>209.69999999999999</ele>
        <time>2011-08-16T12:56:52Z</time>
      </trkpt>
      <trkpt lat="54.857779964804649" lon="26.506640994921327">
        <ele>207.78</ele>
        <time>2011-08-16T12:56:59Z</time>
      </trkpt>
      <trkpt lat="54.857692960649729" lon="26.506300019100308">
        <ele>205.86000000000001</ele>
        <time>2011-08-16T12:57:07Z</time>
      </trkpt>
      <trkpt lat="54.857593970373273" lon="26.505884025245905">
        <ele>204.90000000000001</ele>
        <time>2011-08-16T12:57:16Z</time>
      </trkpt>
      <trkpt lat="54.857559017837048" lon="26.505532991141081">
        <ele>204.90000000000001</ele>
        <time>2011-08-16T12:57:23Z</time>
      </trkpt>
      <trkpt lat="54.857548037543893" lon="26.505381027236581">
        <ele>205.38</ele>
        <time>2011-08-16T12:57:26Z</time>
      </trkpt>
      <trkpt lat="54.857475031167269" lon="26.505064023658633">
        <ele>205.38</ele>
        <time>2011-08-16T12:57:33Z</time>
      </trkpt>
      <trkpt lat="54.857346033677459" lon="26.504554990679026">
        <ele>208.25999999999999</ele>
        <time>2011-08-16T12:57:46Z</time>
      </trkpt>
      <trkpt lat="54.857306974008679" lon="26.504372013732791">
        <ele>209.22</ele>
        <time>2011-08-16T12:57:52Z</time>
      </trkpt>
      <trkpt lat="54.857288030907512" lon="26.504202028736472">
        <ele>210.19</ele>
        <time>2011-08-16T12:57:58Z</time>
      </trkpt>
      <trkpt lat="54.857280990108848" lon="26.504107983782887">
        <ele>210.66999999999999</ele>
        <time>2011-08-16T12:58:01Z</time>
      </trkpt>
      <trkpt lat="54.857216030359268" lon="26.503863986581564">
        <ele>211.63</ele>
        <time>2011-08-16T12:58:09Z</time>
      </trkpt>
      <trkpt lat="54.857170013710856" lon="26.503501972183585">
        <ele>213.55000000000001</ele>
        <time>2011-08-16T12:58:20Z</time>
      </trkpt>
      <trkpt lat="54.857140006497502" lon="26.503395019099116">
        <ele>214.50999999999999</ele>
        <time>2011-08-16T12:58:24Z</time>
      </trkpt>
      <trkpt lat="54.857078986242414" lon="26.503164013847709">
        <ele>214.99000000000001</ele>
        <time>2011-08-16T12:58:34Z</time>
      </trkpt>
      <trkpt lat="54.857082003727555" lon="26.503154961392283">
        <ele>214.50999999999999</ele>
        <time>2011-08-16T12:58:48Z</time>
      </trkpt>
      <trkpt lat="54.857078986242414" lon="26.503156973049045">
        <ele>214.03</ele>
        <time>2011-08-16T12:59:01Z</time>
      </trkpt>
      <trkpt lat="54.857078986242414" lon="26.503156973049045">
        <ele>211.15000000000001</ele>
        <time>2011-08-16T12:59:19Z</time>
      </trkpt>
      <trkpt lat="54.857078986242414" lon="26.503156973049045">
        <ele>211.63</ele>
        <time>2011-08-16T12:59:20Z</time>
      </trkpt>
      <trkpt lat="54.857078986242414" lon="26.503156973049045">
        <ele>216.43000000000001</ele>
        <time>2011-08-16T12:59:21Z</time>
      </trkpt>
      <trkpt lat="54.857078986242414" lon="26.503156973049045">
        <ele>207.78</ele>
        <time>2011-08-16T12:59:22Z</time>
      </trkpt>
      <trkpt lat="54.857078986242414" lon="26.503156973049045">
        <ele>215.94999999999999</ele>
        <time>2011-08-16T12:59:23Z</time>
      </trkpt>
      <trkpt lat="54.857078986242414" lon="26.503156973049045">
        <ele>213.06999999999999</ele>
        <time>2011-08-16T12:59:24Z</time>
      </trkpt>
      <trkpt lat="54.857082003727555" lon="26.503151021897793">
        <ele>214.99000000000001</ele>
        <time>2011-08-16T12:59:45Z</time>
      </trkpt>
      <trkpt lat="54.857082003727555" lon="26.503151021897793">
        <ele>214.50999999999999</ele>
        <time>2011-08-16T13:00:05Z</time>
      </trkpt>
      <trkpt lat="54.857082003727555" lon="26.503140963613987">
        <ele>215.47</ele>
        <time>2011-08-16T13:00:31Z</time>
      </trkpt>
      <trkpt lat="54.857082003727555" lon="26.503140963613987">
        <ele>214.99000000000001</ele>
        <time>2011-08-16T13:00:48Z</time>
      </trkpt>
      <trkpt lat="54.857082003727555" lon="26.503139035776258">
        <ele>215.47</ele>
        <time>2011-08-16T13:01:15Z</time>
      </trkpt>
      <trkpt lat="54.857078986242414" lon="26.503138029947877">
        <ele>214.50999999999999</ele>
        <time>2011-08-16T13:01:37Z</time>
      </trkpt>
      <trkpt lat="54.857078986242414" lon="26.503138029947877">
        <ele>217.88</ele>
        <time>2011-08-16T13:01:46Z</time>
      </trkpt>
      <trkpt lat="54.857078986242414" lon="26.503138029947877">
        <ele>211.63</ele>
        <time>2011-08-16T13:01:48Z</time>
      </trkpt>
      <trkpt lat="54.857078986242414" lon="26.503138029947877">
        <ele>215.47</ele>
        <time>2011-08-16T13:01:49Z</time>
      </trkpt>
      <trkpt lat="54.857078986242414" lon="26.503138029947877">
        <ele>215.47</ele>
        <time>2011-08-16T13:02:13Z</time>
      </trkpt>
      <trkpt lat="54.857086027041078" lon="26.503140963613987">
        <ele>215.47</ele>
        <time>2011-08-16T13:02:29Z</time>
      </trkpt>
      <trkpt lat="54.857086027041078" lon="26.503140963613987">
        <ele>214.99000000000001</ele>
        <time>2011-08-16T13:02:51Z</time>
      </trkpt>
      <trkpt lat="54.857086027041078" lon="26.503134006634355">
        <ele>215.47</ele>
        <time>2011-08-16T13:03:15Z</time>
      </trkpt>
      <trkpt lat="54.857086027041078" lon="26.503134006634355">
        <ele>214.99000000000001</ele>
        <time>2011-08-16T13:03:37Z</time>
      </trkpt>
      <trkpt lat="54.857082003727555" lon="26.503134006634355">
        <ele>215.47</ele>
        <time>2011-08-16T13:03:57Z</time>
      </trkpt>
      <trkpt lat="54.857082003727555" lon="26.503134006634355">
        <ele>214.99000000000001</ele>
        <time>2011-08-16T13:04:19Z</time>
      </trkpt>
      <trkpt lat="54.857086027041078" lon="26.503131994977593">
        <ele>216.43000000000001</ele>
        <time>2011-08-16T13:04:40Z</time>
      </trkpt>
      <trkpt lat="54.857086027041078" lon="26.503131994977593">
        <ele>215.47</ele>
        <time>2011-08-16T13:04:59Z</time>
      </trkpt>
      <trkpt lat="54.857086027041078" lon="26.503139035776258">
        <ele>215.47</ele>
        <time>2011-08-16T13:05:19Z</time>
      </trkpt>
      <trkpt lat="54.857086027041078" lon="26.503139035776258">
        <ele>214.99000000000001</ele>
        <time>2011-08-16T13:05:45Z</time>
      </trkpt>
      <trkpt lat="54.857086027041078" lon="26.503139035776258">
        <ele>215.94999999999999</ele>
        <time>2011-08-16T13:06:09Z</time>
      </trkpt>
      <trkpt lat="54.857086027041078" lon="26.503140963613987">
        <ele>215.47</ele>
        <time>2011-08-16T13:06:31Z</time>
      </trkpt>
      <trkpt lat="54.857086027041078" lon="26.503140963613987">
        <ele>215.94999999999999</ele>
        <time>2011-08-16T13:06:57Z</time>
      </trkpt>
      <trkpt lat="54.857086027041078" lon="26.503134006634355">
        <ele>215.94999999999999</ele>
        <time>2011-08-16T13:07:17Z</time>
      </trkpt>
      <trkpt lat="54.857086027041078" lon="26.503136018291116">
        <ele>215.94999999999999</ele>
        <time>2011-08-16T13:07:42Z</time>
      </trkpt>
      <trkpt lat="54.857089966535568" lon="26.503116991370916">
        <ele>214.99000000000001</ele>
        <time>2011-08-16T13:08:03Z</time>
      </trkpt>
      <trkpt lat="54.857082003727555" lon="26.503052031621337">
        <ele>215.47</ele>
        <time>2011-08-16T13:08:09Z</time>
      </trkpt>
      <trkpt lat="54.857067000120878" lon="26.502988999709487">
        <ele>215.47</ele>
        <time>2011-08-16T13:08:12Z</time>
      </trkpt>
      <trkpt lat="54.856998017057776" lon="26.502649029716849">
        <ele>214.99000000000001</ele>
        <time>2011-08-16T13:08:22Z</time>
      </trkpt>
      <trkpt lat="54.856906989589334" lon="26.502297995612025">
        <ele>214.99000000000001</ele>
        <time>2011-08-16T13:08:31Z</time>
      </trkpt>
      <trkpt lat="54.856860972940922" lon="26.501979986205697">
        <ele>214.50999999999999</ele>
        <time>2011-08-16T13:08:39Z</time>
      </trkpt>
      <trkpt lat="54.856803975999355" lon="26.501605985686183">
        <ele>214.03</ele>
        <time>2011-08-16T13:08:47Z</time>
      </trkpt>
      <trkpt lat="54.856670033186674" lon="26.501083038747311">
        <ele>213.06999999999999</ele>
        <time>2011-08-16T13:08:57Z</time>
      </trkpt>
      <trkpt lat="54.856631979346275" lon="26.500463029369712">
        <ele>212.11000000000001</ele>
        <time>2011-08-16T13:09:09Z</time>
      </trkpt>
      <trkpt lat="54.856613036245108" lon="26.499899011105299">
        <ele>211.63</ele>
        <time>2011-08-16T13:09:20Z</time>
      </trkpt>
      <trkpt lat="54.85651396214962" lon="26.49925603531301">
        <ele>210.66999999999999</ele>
        <time>2011-08-16T13:09:32Z</time>
      </trkpt>
      <trkpt lat="54.856387982144952" lon="26.498564025387168">
        <ele>209.22</ele>
        <time>2011-08-16T13:09:46Z</time>
      </trkpt>
      <trkpt lat="54.856246998533607" lon="26.497922977432609">
        <ele>206.34</ele>
        <time>2011-08-16T13:09:56Z</time>
      </trkpt>
      <trkpt lat="54.856231994926929" lon="26.497845025733113">
        <ele>206.34</ele>
        <time>2011-08-16T13:09:57Z</time>
      </trkpt>
      <trkpt lat="54.856097968295217" lon="26.497082021087408">
        <ele>205.86000000000001</ele>
        <time>2011-08-16T13:10:10Z</time>
      </trkpt>
      <trkpt lat="54.855838967487216" lon="26.496499981731176">
        <ele>206.34</ele>
        <time>2011-08-16T13:10:25Z</time>
      </trkpt>
      <trkpt lat="54.855666970834136" lon="26.496035037562251">
        <ele>206.34</ele>
        <time>2011-08-16T13:10:38Z</time>
      </trkpt>
      <trkpt lat="54.855624977499247" lon="26.496019028127193">
        <ele>205.38</ele>
        <time>2011-08-16T13:10:50Z</time>
      </trkpt>
      <trkpt lat="54.85556404106319" lon="26.495891958475113">
        <ele>205.38</ele>
        <time>2011-08-16T13:11:00Z</time>
      </trkpt>
      <trkpt lat="54.855488017201424" lon="26.495561962947249">
        <ele>206.34</ele>
        <time>2011-08-16T13:11:12Z</time>
      </trkpt>
      <trkpt lat="54.855347033590078" lon="26.494965003803372">
        <ele>206.34</ele>
        <time>2011-08-16T13:11:25Z</time>
      </trkpt>
      <trkpt lat="54.855323983356357" lon="26.494790995493531">
        <ele>206.34</ele>
        <time>2011-08-16T13:11:36Z</time>
      </trkpt>
      <trkpt lat="54.855316020548344" lon="26.494741039350629">
        <ele>206.81999999999999</ele>
        <time>2011-08-16T13:11:38Z</time>
      </trkpt>
      <trkpt lat="54.855281990021467" lon="26.494569964706898">
        <ele>206.34</ele>
        <time>2011-08-16T13:11:49Z</time>
      </trkpt>
      <trkpt lat="54.855239996686578" lon="26.494410960003734">
        <ele>206.81999999999999</ele>
        <time>2011-08-16T13:11:55Z</time>
      </trkpt>
      <trkpt lat="54.85494595952332" lon="26.493950039148331">
        <ele>207.78</ele>
        <time>2011-08-16T13:12:09Z</time>
      </trkpt>
      <trkpt lat="54.85466399230063" lon="26.493447963148355">
        <ele>207.30000000000001</ele>
        <time>2011-08-16T13:12:22Z</time>
      </trkpt>
      <trkpt lat="54.854408008977771" lon="26.493013026192784">
        <ele>208.25999999999999</ele>
        <time>2011-08-16T13:12:34Z</time>
      </trkpt>
      <trkpt lat="54.854056974872947" lon="26.492417994886637">
        <ele>208.74000000000001</ele>
        <time>2011-08-16T13:12:49Z</time>
      </trkpt>
      <trkpt lat="54.853724967688322" lon="26.491712993010879">
        <ele>207.78</ele>
        <time>2011-08-16T13:13:04Z</time>
      </trkpt>
      <trkpt lat="54.853363037109375" lon="26.49090196006">
        <ele>206.81999999999999</ele>
        <time>2011-08-16T13:13:18Z</time>
      </trkpt>
      <trkpt lat="54.853278966620564" lon="26.490714959800243">
        <ele>206.34</ele>
        <time>2011-08-16T13:13:21Z</time>
      </trkpt>
      <trkpt lat="54.853027006611228" lon="26.490139039233327">
        <ele>205.38</ele>
        <time>2011-08-16T13:13:31Z</time>
      </trkpt>
      <trkpt lat="54.852627022191882" lon="26.489222981035709">
        <ele>204.90000000000001</ele>
        <time>2011-08-16T13:13:46Z</time>
      </trkpt>
      <trkpt lat="54.852244975045323" lon="26.488183960318565">
        <ele>204.41999999999999</ele>
        <time>2011-08-16T13:14:03Z</time>
      </trkpt>
      <trkpt lat="54.852169035002589" lon="26.487947003915906">
        <ele>203.46000000000001</ele>
        <time>2011-08-16T13:14:07Z</time>
      </trkpt>
      <trkpt lat="54.8521080147475" lon="26.48776201531291">
        <ele>203.46000000000001</ele>
        <time>2011-08-16T13:14:10Z</time>
      </trkpt>
      <trkpt lat="54.851948004215956" lon="26.487259017303586">
        <ele>202.97999999999999</ele>
        <time>2011-08-16T13:14:18Z</time>
      </trkpt>
      <trkpt lat="54.851584983989596" lon="26.486225025728345">
        <ele>203.46000000000001</ele>
        <time>2011-08-16T13:14:33Z</time>
      </trkpt>
      <trkpt lat="54.85103202983737" lon="26.484682001173496">
        <ele>203.94</ele>
        <time>2011-08-16T13:14:55Z</time>
      </trkpt>
      <trkpt lat="54.850643025711179" lon="26.483562011271715">
        <ele>204.41999999999999</ele>
        <time>2011-08-16T13:15:12Z</time>
      </trkpt>
      <trkpt lat="54.850121000781655" lon="26.482080006971955">
        <ele>202.97999999999999</ele>
        <time>2011-08-16T13:15:33Z</time>
      </trkpt>
      <trkpt lat="54.849555976688862" lon="26.480455007404089">
        <ele>200.09</ele>
        <time>2011-08-16T13:15:55Z</time>
      </trkpt>
      <trkpt lat="54.849072005599737" lon="26.478950958698988">
        <ele>199.13</ele>
        <time>2011-08-16T13:16:16Z</time>
      </trkpt>
      <trkpt lat="54.848647965118289" lon="26.477741030976176">
        <ele>198.16999999999999</ele>
        <time>2011-08-16T13:16:33Z</time>
      </trkpt>
      <trkpt lat="54.848186038434505" lon="26.476376038044691">
        <ele>196.72999999999999</ele>
        <time>2011-08-16T13:16:52Z</time>
      </trkpt>
      <trkpt lat="54.84781295992434" lon="26.475299969315529">
        <ele>195.77000000000001</ele>
        <time>2011-08-16T13:17:08Z</time>
      </trkpt>
      <trkpt lat="54.847679017111659" lon="26.47489202208817">
        <ele>194.80000000000001</ele>
        <time>2011-08-16T13:17:14Z</time>
      </trkpt>
      <trkpt lat="54.847263023257256" lon="26.473639011383057">
        <ele>192.40000000000001</ele>
        <time>2011-08-16T13:17:31Z</time>
      </trkpt>
      <trkpt lat="54.847011985257268" lon="26.472939038649201">
        <ele>191.91999999999999</ele>
        <time>2011-08-16T13:17:40Z</time>
      </trkpt>
      <trkpt lat="54.846576964482665" lon="26.471675969660282">
        <ele>191.44</ele>
        <time>2011-08-16T13:17:58Z</time>
      </trkpt>
      <trkpt lat="54.84641301445663" lon="26.47121999412775">
        <ele>190.96000000000001</ele>
        <time>2011-08-16T13:18:05Z</time>
      </trkpt>
      <trkpt lat="54.846184020861983" lon="26.470641978085041">
        <ele>190.96000000000001</ele>
        <time>2011-08-16T13:18:14Z</time>
      </trkpt>
      <trkpt lat="54.845805997028947" lon="26.469808984547853">
        <ele>190.47999999999999</ele>
        <time>2011-08-16T13:18:28Z</time>
      </trkpt>
      <trkpt lat="54.845779007300735" lon="26.469750981777906">
        <ele>190</ele>
        <time>2011-08-16T13:18:29Z</time>
      </trkpt>
      <trkpt lat="54.845421016216278" lon="26.469021001830697">
        <ele>189.03999999999999</ele>
        <time>2011-08-16T13:18:41Z</time>
      </trkpt>
      <trkpt lat="54.84516897238791" lon="26.468481039628386">
        <ele>189.03999999999999</ele>
        <time>2011-08-16T13:18:49Z</time>
      </trkpt>
      <trkpt lat="54.844706961885095" lon="26.467369012534618">
        <ele>187.59</ele>
        <time>2011-08-16T13:19:06Z</time>
      </trkpt>
      <trkpt lat="54.844273030757904" lon="26.466537024825811">
        <ele>187.11000000000001</ele>
        <time>2011-08-16T13:19:20Z</time>
      </trkpt>
      <trkpt lat="54.843802973628044" lon="26.465561036020517">
        <ele>185.66999999999999</ele>
        <time>2011-08-16T13:19:37Z</time>
      </trkpt>
      <trkpt lat="54.843479013070464" lon="26.464886041358113">
        <ele>185.19</ele>
        <time>2011-08-16T13:19:52Z</time>
      </trkpt>
      <trkpt lat="54.843432996422052" lon="26.46479400806129">
        <ele>185.19</ele>
        <time>2011-08-16T13:19:54Z</time>
      </trkpt>
      <trkpt lat="54.843323025852442" lon="26.464596027508378">
        <ele>184.71000000000001</ele>
        <time>2011-08-16T13:19:58Z</time>
      </trkpt>
      <trkpt lat="54.843018008396029" lon="26.463930001482368">
        <ele>185.19</ele>
        <time>2011-08-16T13:20:11Z</time>
      </trkpt>
      <trkpt lat="54.842814998701215" lon="26.463151993229985">
        <ele>184.22999999999999</ele>
        <time>2011-08-16T13:20:23Z</time>
      </trkpt>
      <trkpt lat="54.842814998701215" lon="26.462834989652038">
        <ele>183.75</ele>
        <time>2011-08-16T13:20:28Z</time>
      </trkpt>
      <trkpt lat="54.842822961509228" lon="26.462111966684461">
        <ele>183.27000000000001</ele>
        <time>2011-08-16T13:20:42Z</time>
      </trkpt>
      <trkpt lat="54.842793038114905" lon="26.461955979466438">
        <ele>183.27000000000001</ele>
        <time>2011-08-16T13:20:46Z</time>
      </trkpt>
      <trkpt lat="54.842758001759648" lon="26.461832011118531">
        <ele>183.27000000000001</ele>
        <time>2011-08-16T13:20:52Z</time>
      </trkpt>
      <trkpt lat="54.842644007876515" lon="26.461590025573969">
        <ele>183.27000000000001</ele>
        <time>2011-08-16T13:21:03Z</time>
      </trkpt>
      <trkpt lat="54.842639984562993" lon="26.461586002260447">
        <ele>183.27000000000001</ele>
        <time>2011-08-16T13:21:20Z</time>
      </trkpt>
      <trkpt lat="54.842639984562993" lon="26.461586002260447">
        <ele>183.75</ele>
        <time>2011-08-16T13:21:41Z</time>
      </trkpt>
      <trkpt lat="54.842639984562993" lon="26.461581978946924">
        <ele>183.75</ele>
        <time>2011-08-16T13:22:01Z</time>
      </trkpt>
      <trkpt lat="54.842639984562993" lon="26.461581978946924">
        <ele>183.27000000000001</ele>
        <time>2011-08-16T13:22:22Z</time>
      </trkpt>
      <trkpt lat="54.842639984562993" lon="26.461581978946924">
        <ele>183.75</ele>
        <time>2011-08-16T13:22:43Z</time>
      </trkpt>
      <trkpt lat="54.842635961249471" lon="26.461579967290163">
        <ele>183.75</ele>
        <time>2011-08-16T13:23:06Z</time>
      </trkpt>
      <trkpt lat="54.842635961249471" lon="26.461579967290163">
        <ele>183.75</ele>
        <time>2011-08-16T13:23:27Z</time>
      </trkpt>
      <trkpt lat="54.842639984562993" lon="26.461576027795672">
        <ele>184.71000000000001</ele>
        <time>2011-08-16T13:23:46Z</time>
      </trkpt>
      <trkpt lat="54.842639984562993" lon="26.461583990603685">
        <ele>182.78999999999999</ele>
        <time>2011-08-16T13:24:04Z</time>
      </trkpt>
      <trkpt lat="54.84263202175498" lon="26.461586002260447">
        <ele>183.27000000000001</ele>
        <time>2011-08-16T13:24:39Z</time>
      </trkpt>
      <trkpt lat="54.84263202175498" lon="26.461586002260447">
        <ele>183.27000000000001</ele>
        <time>2011-08-16T13:25:14Z</time>
      </trkpt>
      <trkpt lat="54.842627998441458" lon="26.461596982553601">
        <ele>183.27000000000001</ele>
        <time>2011-08-16T13:25:46Z</time>
      </trkpt>
      <trkpt lat="54.84263202175498" lon="26.461598994210362">
        <ele>183.75</ele>
        <time>2011-08-16T13:26:14Z</time>
      </trkpt>
      <trkpt lat="54.842621041461825" lon="26.461596982553601">
        <ele>183.27000000000001</ele>
        <time>2011-08-16T13:26:41Z</time>
      </trkpt>
      <trkpt lat="54.842617018148303" lon="26.461601005867124">
        <ele>183.75</ele>
        <time>2011-08-16T13:27:15Z</time>
      </trkpt>
      <trkpt lat="54.842617018148303" lon="26.461601005867124">
        <ele>183.27000000000001</ele>
        <time>2011-08-16T13:27:53Z</time>
      </trkpt>
      <trkpt lat="54.842617018148303" lon="26.461607040837407">
        <ele>183.75</ele>
        <time>2011-08-16T13:28:31Z</time>
      </trkpt>
      <trkpt lat="54.84263202175498" lon="26.461612991988659">
        <ele>184.71000000000001</ele>
        <time>2011-08-16T13:29:05Z</time>
      </trkpt>
      <trkpt lat="54.84263202175498" lon="26.461612991988659">
        <ele>178.46000000000001</ele>
        <time>2011-08-16T13:29:14Z</time>
      </trkpt>
      <trkpt lat="54.84263202175498" lon="26.461612991988659">
        <ele>181.34999999999999</ele>
        <time>2011-08-16T13:29:15Z</time>
      </trkpt>
      <trkpt lat="54.84263202175498" lon="26.461612991988659">
        <ele>186.63</ele>
        <time>2011-08-16T13:29:16Z</time>
      </trkpt>
      <trkpt lat="54.84263202175498" lon="26.461612991988659">
        <ele>184.71000000000001</ele>
        <time>2011-08-16T13:29:17Z</time>
      </trkpt>
      <trkpt lat="54.84263202175498" lon="26.461612991988659">
        <ele>188.56</ele>
        <time>2011-08-16T13:29:18Z</time>
      </trkpt>
      <trkpt lat="54.84263202175498" lon="26.461612991988659">
        <ele>179.41999999999999</ele>
        <time>2011-08-16T13:29:21Z</time>
      </trkpt>
      <trkpt lat="54.84263202175498" lon="26.461612991988659">
        <ele>185.66999999999999</ele>
        <time>2011-08-16T13:29:22Z</time>
      </trkpt>
      <trkpt lat="54.84263202175498" lon="26.461612991988659">
        <ele>189.52000000000001</ele>
        <time>2011-08-16T13:29:27Z</time>
      </trkpt>
      <trkpt lat="54.84263202175498" lon="26.461612991988659">
        <ele>184.71000000000001</ele>
        <time>2011-08-16T13:29:28Z</time>
      </trkpt>
      <trkpt lat="54.84263202175498" lon="26.461612991988659">
        <ele>180.38</ele>
        <time>2011-08-16T13:29:29Z</time>
      </trkpt>
      <trkpt lat="54.84263202175498" lon="26.461612991988659">
        <ele>185.19</ele>
        <time>2011-08-16T13:29:30Z</time>
      </trkpt>
      <trkpt lat="54.84263202175498" lon="26.461612991988659">
        <ele>189.52000000000001</ele>
        <time>2011-08-16T13:29:34Z</time>
      </trkpt>
      <trkpt lat="54.84263202175498" lon="26.461612991988659">
        <ele>183.27000000000001</ele>
        <time>2011-08-16T13:29:35Z</time>
      </trkpt>
      <trkpt lat="54.84263202175498" lon="26.461612991988659">
        <ele>187.11000000000001</ele>
        <time>2011-08-16T13:29:36Z</time>
      </trkpt>
      <trkpt lat="54.84263202175498" lon="26.461612991988659">
        <ele>179.90000000000001</ele>
        <time>2011-08-16T13:29:37Z</time>
      </trkpt>
      <trkpt lat="54.84263202175498" lon="26.461612991988659">
        <ele>179.90000000000001</ele>
        <time>2011-08-16T13:29:38Z</time>
      </trkpt>
      <trkpt lat="54.84263202175498" lon="26.461612991988659">
        <ele>185.66999999999999</ele>
        <time>2011-08-16T13:29:39Z</time>
      </trkpt>
      <trkpt lat="54.84263202175498" lon="26.461612991988659">
        <ele>178.94</ele>
        <time>2011-08-16T13:29:40Z</time>
      </trkpt>
      <trkpt lat="54.84263202175498" lon="26.461612991988659">
        <ele>185.19</ele>
        <time>2011-08-16T13:29:41Z</time>
      </trkpt>
      <trkpt lat="54.84263202175498" lon="26.461612991988659">
        <ele>180.38</ele>
        <time>2011-08-16T13:29:44Z</time>
      </trkpt>
      <trkpt lat="54.842635961249471" lon="26.461618021130562">
        <ele>185.66999999999999</ele>
        <time>2011-08-16T13:29:45Z</time>
      </trkpt>
      <trkpt lat="54.842635961249471" lon="26.461618021130562">
        <ele>184.22999999999999</ele>
        <time>2011-08-16T13:29:48Z</time>
      </trkpt>
      <trkpt lat="54.842635961249471" lon="26.461618021130562">
        <ele>184.22999999999999</ele>
        <time>2011-08-16T13:30:07Z</time>
      </trkpt>
      <trkpt lat="54.842635961249471" lon="26.461612991988659">
        <ele>183.75</ele>
        <time>2011-08-16T13:30:25Z</time>
      </trkpt>
      <trkpt lat="54.842635961249471" lon="26.461612991988659">
        <ele>183.75</ele>
        <time>2011-08-16T13:30:58Z</time>
      </trkpt>
      <trkpt lat="54.842624980956316" lon="26.46161500364542">
        <ele>183.75</ele>
        <time>2011-08-16T13:31:30Z</time>
      </trkpt>
      <trkpt lat="54.842621041461825" lon="26.461620032787323">
        <ele>184.22999999999999</ele>
        <time>2011-08-16T13:32:02Z</time>
      </trkpt>
      <trkpt lat="54.842624980956316" lon="26.461617015302181">
        <ele>184.22999999999999</ele>
        <time>2011-08-16T13:32:32Z</time>
      </trkpt>
      <trkpt lat="54.842621041461825" lon="26.461625983938575">
        <ele>184.22999999999999</ele>
        <time>2011-08-16T13:33:06Z</time>
      </trkpt>
      <trkpt lat="54.842612994834781" lon="26.461612991988659">
        <ele>184.22999999999999</ele>
        <time>2011-08-16T13:33:42Z</time>
      </trkpt>
      <trkpt lat="54.842612994834781" lon="26.461612991988659">
        <ele>184.22999999999999</ele>
        <time>2011-08-16T13:34:17Z</time>
      </trkpt>
      <trkpt lat="54.842606037855148" lon="26.461605029180646">
        <ele>183.75</ele>
        <time>2011-08-16T13:35:00Z</time>
      </trkpt>
      <trkpt lat="54.842612994834781" lon="26.461598994210362">
        <ele>184.22999999999999</ele>
        <time>2011-08-16T13:35:28Z</time>
      </trkpt>
      <trkpt lat="54.842608971521258" lon="26.461605029180646">
        <ele>184.22999999999999</ele>
        <time>2011-08-16T13:36:06Z</time>
      </trkpt>
      <trkpt lat="54.842617018148303" lon="26.461601005867124">
        <ele>184.22999999999999</ele>
        <time>2011-08-16T13:36:42Z</time>
      </trkpt>
      <trkpt lat="54.842621041461825" lon="26.461598994210362">
        <ele>184.22999999999999</ele>
        <time>2011-08-16T13:37:13Z</time>
      </trkpt>
      <trkpt lat="54.842621041461825" lon="26.461596982553601">
        <ele>184.22999999999999</ele>
        <time>2011-08-16T13:37:47Z</time>
      </trkpt>
      <trkpt lat="54.842621041461825" lon="26.461596982553601">
        <ele>184.22999999999999</ele>
        <time>2011-08-16T13:38:09Z</time>
      </trkpt>
      <trkpt lat="54.842624980956316" lon="26.461583990603685">
        <ele>185.19</ele>
        <time>2011-08-16T13:38:36Z</time>
      </trkpt>
      <trkpt lat="54.842624980956316" lon="26.461535040289164">
        <ele>184.22999999999999</ele>
        <time>2011-08-16T13:38:43Z</time>
      </trkpt>
      <trkpt lat="54.842735035344958" lon="26.461275033652782">
        <ele>183.75</ele>
        <time>2011-08-16T13:38:53Z</time>
      </trkpt>
      <trkpt lat="54.842742998152971" lon="26.461104964837432">
        <ele>183.75</ele>
        <time>2011-08-16T13:38:57Z</time>
      </trkpt>
      <trkpt lat="54.842701004818082" lon="26.460442040115595">
        <ele>182.31</ele>
        <time>2011-08-16T13:39:08Z</time>
      </trkpt>
      <trkpt lat="54.842742998152971" lon="26.459151981398463">
        <ele>181.34999999999999</ele>
        <time>2011-08-16T13:39:25Z</time>
      </trkpt>
      <trkpt lat="54.842753978446126" lon="26.459081992506981">
        <ele>180.87</ele>
        <time>2011-08-16T13:39:26Z</time>
      </trkpt>
      <trkpt lat="54.842967968434095" lon="26.458491990342736">
        <ele>180.38</ele>
        <time>2011-08-16T13:39:38Z</time>
      </trkpt>
      <trkpt lat="54.843075005337596" lon="26.458205999806523">
        <ele>180.38</ele>
        <time>2011-08-16T13:39:43Z</time>
      </trkpt>
      <trkpt lat="54.843303998932242" lon="26.457796040922403">
        <ele>178.94</ele>
        <time>2011-08-16T13:39:52Z</time>
      </trkpt>
      <trkpt lat="54.843326965346932" lon="26.457526981830597">
        <ele>178.46000000000001</ele>
        <time>2011-08-16T13:39:59Z</time>
      </trkpt>
      <trkpt lat="54.843395026400685" lon="26.457053991034627">
        <ele>177.97999999999999</ele>
        <time>2011-08-16T13:40:12Z</time>
      </trkpt>
      <trkpt lat="54.843574985861778" lon="26.456143967807293">
        <ele>177.5</ele>
        <time>2011-08-16T13:40:30Z</time>
      </trkpt>
      <trkpt lat="54.843784030526876" lon="26.455925032496452">
        <ele>176.53999999999999</ele>
        <time>2011-08-16T13:40:40Z</time>
      </trkpt>
      <trkpt lat="54.844143027439713" lon="26.455283984541893">
        <ele>173.66</ele>
        <time>2011-08-16T13:40:53Z</time>
      </trkpt>
      <trkpt lat="54.844436980783939" lon="26.454724995419383">
        <ele>172.21000000000001</ele>
        <time>2011-08-16T13:41:05Z</time>
      </trkpt>
      <trkpt lat="54.844471011310816" lon="26.454689037054777">
        <ele>171.72999999999999</ele>
        <time>2011-08-16T13:41:16Z</time>
      </trkpt>
      <trkpt lat="54.844475034624338" lon="26.454678978770971">
        <ele>170.77000000000001</ele>
        <time>2011-08-16T13:41:30Z</time>
      </trkpt>
      <trkpt lat="54.84452398493886" lon="26.454574959352612">
        <ele>170.77000000000001</ele>
        <time>2011-08-16T13:41:45Z</time>
      </trkpt>
      <trkpt lat="54.84452398493886" lon="26.454574959352612">
        <ele>170.77000000000001</ele>
        <time>2011-08-16T13:41:49Z</time>
      </trkpt>
      <trkpt lat="54.844592968001962" lon="26.454424001276493">
        <ele>170.77000000000001</ele>
        <time>2011-08-16T13:42:01Z</time>
      </trkpt>
      <trkpt lat="54.844864038750529" lon="26.453953022137284">
        <ele>168.84999999999999</ele>
        <time>2011-08-16T13:42:14Z</time>
      </trkpt>
      <trkpt lat="54.845203002914786" lon="26.453705001622438">
        <ele>167.41</ele>
        <time>2011-08-16T13:42:28Z</time>
      </trkpt>
      <trkpt lat="54.84529503621161" lon="26.453631995245814">
        <ele>166.93000000000001</ele>
        <time>2011-08-16T13:42:32Z</time>
      </trkpt>
      <trkpt lat="54.845337029546499" lon="26.453483970835805">
        <ele>166.44999999999999</ele>
        <time>2011-08-16T13:42:37Z</time>
      </trkpt>
      <trkpt lat="54.845348009839654" lon="26.453368971124291">
        <ele>166.93000000000001</ele>
        <time>2011-08-16T13:42:43Z</time>
      </trkpt>
      <trkpt lat="54.845367036759853" lon="26.453324966132641">
        <ele>166.93000000000001</ele>
        <time>2011-08-16T13:42:47Z</time>
      </trkpt>
      <trkpt lat="54.845443982630968" lon="26.453137965872884">
        <ele>168.37</ele>
        <time>2011-08-16T13:42:54Z</time>
      </trkpt>
      <trkpt lat="54.845454962924123" lon="26.453111981973052">
        <ele>168.37</ele>
        <time>2011-08-16T13:42:55Z</time>
      </trkpt>
      <trkpt lat="54.845638023689389" lon="26.452647959813476">
        <ele>169.33000000000001</ele>
        <time>2011-08-16T13:43:07Z</time>
      </trkpt>
      <trkpt lat="54.845862993970513" lon="26.452193995937705">
        <ele>171.25</ele>
        <time>2011-08-16T13:43:21Z</time>
      </trkpt>
      <trkpt lat="54.845874980092049" lon="26.452158037573099">
        <ele>171.25</ele>
        <time>2011-08-16T13:43:22Z</time>
      </trkpt>
      <trkpt lat="54.845931977033615" lon="26.452038008719683">
        <ele>172.21000000000001</ele>
        <time>2011-08-16T13:43:26Z</time>
      </trkpt>
      <trkpt lat="54.846096010878682" lon="26.45162402652204">
        <ele>173.16999999999999</ele>
        <time>2011-08-16T13:43:40Z</time>
      </trkpt>
      <trkpt lat="54.846230037510395" lon="26.4512600004673">
        <ele>173.66</ele>
        <time>2011-08-16T13:43:51Z</time>
      </trkpt>
      <trkpt lat="54.84643598087132" lon="26.450861021876335">
        <ele>173.66</ele>
        <time>2011-08-16T13:44:03Z</time>
      </trkpt>
      <trkpt lat="54.84667201526463" lon="26.450428012758493">
        <ele>173.16999999999999</ele>
        <time>2011-08-16T13:44:15Z</time>
      </trkpt>
      <trkpt lat="54.846965968608856" lon="26.450076978653669">
        <ele>172.21000000000001</ele>
        <time>2011-08-16T13:44:28Z</time>
      </trkpt>
      <trkpt lat="54.847354972735047" lon="26.449583033099771">
        <ele>172.69</ele>
        <time>2011-08-16T13:44:44Z</time>
      </trkpt>
      <trkpt lat="54.847827963531017" lon="26.44906603731215">
        <ele>171.25</ele>
        <time>2011-08-16T13:45:01Z</time>
      </trkpt>
      <trkpt lat="54.848167011514306" lon="26.448729000985622">
        <ele>170.77000000000001</ele>
        <time>2011-08-16T13:45:16Z</time>
      </trkpt>
      <trkpt lat="54.848186038434505" lon="26.448710979893804">
        <ele>170.77000000000001</ele>
        <time>2011-08-16T13:45:28Z</time>
      </trkpt>
      <trkpt lat="54.848515028133988" lon="26.448414009064436">
        <ele>171.25</ele>
        <time>2011-08-16T13:45:42Z</time>
      </trkpt>
      <trkpt lat="54.848976032808423" lon="26.44801301881671">
        <ele>171.25</ele>
        <time>2011-08-16T13:45:58Z</time>
      </trkpt>
      <trkpt lat="54.849280966445804" lon="26.447659973055124">
        <ele>170.28999999999999</ele>
        <time>2011-08-16T13:46:10Z</time>
      </trkpt>
      <trkpt lat="54.849627977237105" lon="26.447240961715579">
        <ele>170.77000000000001</ele>
        <time>2011-08-16T13:46:24Z</time>
      </trkpt>
      <trkpt lat="54.849995020776987" lon="26.446858998388052">
        <ele>171.72999999999999</ele>
        <time>2011-08-16T13:46:39Z</time>
      </trkpt>
      <trkpt lat="54.850402968004346" lon="26.446415008977056">
        <ele>173.16999999999999</ele>
        <time>2011-08-16T13:46:56Z</time>
      </trkpt>
      <trkpt lat="54.850800018757582" lon="26.44597596488893">
        <ele>174.62</ele>
        <time>2011-08-16T13:47:12Z</time>
      </trkpt>
      <trkpt lat="54.851222969591618" lon="26.445491993799806">
        <ele>176.06</ele>
        <time>2011-08-16T13:47:28Z</time>
      </trkpt>
      <trkpt lat="54.851765027269721" lon="26.44511598162353">
        <ele>175.09999999999999</ele>
        <time>2011-08-16T13:47:45Z</time>
      </trkpt>
      <trkpt lat="54.852356035262346" lon="26.445068037137389">
        <ele>175.58000000000001</ele>
        <time>2011-08-16T13:48:02Z</time>
      </trkpt>
      <trkpt lat="54.852768005803227" lon="26.445065019652247">
        <ele>174.62</ele>
        <time>2011-08-16T13:48:15Z</time>
      </trkpt>
      <trkpt lat="54.853043016046286" lon="26.445233998820186">
        <ele>175.58000000000001</ele>
        <time>2011-08-16T13:48:27Z</time>
      </trkpt>
      <trkpt lat="54.853061959147453" lon="26.445255037397146">
        <ele>175.09999999999999</ele>
        <time>2011-08-16T13:48:28Z</time>
      </trkpt>
      <trkpt lat="54.853335963562131" lon="26.445113969966769">
        <ele>175.58000000000001</ele>
        <time>2011-08-16T13:48:39Z</time>
      </trkpt>
      <trkpt lat="54.853745000436902" lon="26.444709962233901">
        <ele>175.09999999999999</ele>
        <time>2011-08-16T13:48:52Z</time>
      </trkpt>
      <trkpt lat="54.854068960994482" lon="26.444357000291348">
        <ele>175.09999999999999</ele>
        <time>2011-08-16T13:49:03Z</time>
      </trkpt>
      <trkpt lat="54.854370038956404" lon="26.443985011428595">
        <ele>174.62</ele>
        <time>2011-08-16T13:49:13Z</time>
      </trkpt>
      <trkpt lat="54.854678995907307" lon="26.443525012582541">
        <ele>173.16999999999999</ele>
        <time>2011-08-16T13:49:26Z</time>
      </trkpt>
      <trkpt lat="54.854755019769073" lon="26.443251008167863">
        <ele>172.69</ele>
        <time>2011-08-16T13:49:36Z</time>
      </trkpt>
      <trkpt lat="54.854839006438851" lon="26.443046992644668">
        <ele>172.21000000000001</ele>
        <time>2011-08-16T13:49:44Z</time>
      </trkpt>
      <trkpt lat="54.854880999773741" lon="26.442791009321809">
        <ele>172.21000000000001</ele>
        <time>2011-08-16T13:49:53Z</time>
      </trkpt>
      <trkpt lat="54.854880999773741" lon="26.442399993538857">
        <ele>171.72999999999999</ele>
        <time>2011-08-16T13:50:04Z</time>
      </trkpt>
      <trkpt lat="54.85492299310863" lon="26.441850978881121">
        <ele>171.72999999999999</ele>
        <time>2011-08-16T13:50:19Z</time>
      </trkpt>
      <trkpt lat="54.854907989501953" lon="26.44124798476696">
        <ele>171.25</ele>
        <time>2011-08-16T13:50:33Z</time>
      </trkpt>
      <trkpt lat="54.854831965640187" lon="26.440659994259477">
        <ele>171.25</ele>
        <time>2011-08-16T13:50:47Z</time>
      </trkpt>
      <trkpt lat="54.854777986183763" lon="26.440159007906914">
        <ele>171.72999999999999</ele>
        <time>2011-08-16T13:51:00Z</time>
      </trkpt>
      <trkpt lat="54.854789972305298" lon="26.4400630351156">
        <ele>170.77000000000001</ele>
        <time>2011-08-16T13:51:03Z</time>
      </trkpt>
      <trkpt lat="54.854797013103962" lon="26.440011989325285">
        <ele>170.28999999999999</ele>
        <time>2011-08-16T13:51:16Z</time>
      </trkpt>
      <trkpt lat="54.85481302253902" lon="26.440004026517272">
        <ele>170.77000000000001</ele>
        <time>2011-08-16T13:51:26Z</time>
      </trkpt>
      <trkpt lat="54.85481302253902" lon="26.440004026517272">
        <ele>170.28999999999999</ele>
        <time>2011-08-16T13:51:37Z</time>
      </trkpt>
      <trkpt lat="54.854782009497285" lon="26.440078960731626">
        <ele>170.77000000000001</ele>
        <time>2011-08-16T13:51:53Z</time>
      </trkpt>
      <trkpt lat="54.85477102920413" lon="26.440121037885547">
        <ele>171.25</ele>
        <time>2011-08-16T13:51:56Z</time>
      </trkpt>
      <trkpt lat="54.854762982577085" lon="26.44023503176868">
        <ele>171.72999999999999</ele>
        <time>2011-08-16T13:52:08Z</time>
      </trkpt>
      <trkpt lat="54.854767005890608" lon="26.440275013446808">
        <ele>172.21000000000001</ele>
        <time>2011-08-16T13:52:11Z</time>
      </trkpt>
      <trkpt lat="54.854861972853541" lon="26.440882030874491">
        <ele>171.25</ele>
        <time>2011-08-16T13:52:26Z</time>
      </trkpt>
      <trkpt lat="54.854903966188431" lon="26.441417969763279">
        <ele>171.25</ele>
        <time>2011-08-16T13:52:40Z</time>
      </trkpt>
      <trkpt lat="54.854907989501953" lon="26.441838992759585">
        <ele>171.25</ele>
        <time>2011-08-16T13:52:53Z</time>
      </trkpt>
      <trkpt lat="54.854885023087263" lon="26.442364035174251">
        <ele>171.72999999999999</ele>
        <time>2011-08-16T13:53:06Z</time>
      </trkpt>
      <trkpt lat="54.854843029752374" lon="26.442881030961871">
        <ele>172.21000000000001</ele>
        <time>2011-08-16T13:53:20Z</time>
      </trkpt>
      <trkpt lat="54.854843029752374" lon="26.443070964887738">
        <ele>172.21000000000001</ele>
        <time>2011-08-16T13:53:31Z</time>
      </trkpt>
      <trkpt lat="54.85483598895371" lon="26.44309401512146">
        <ele>172.21000000000001</ele>
        <time>2011-08-16T13:53:39Z</time>
      </trkpt>
      <trkpt lat="54.85468695871532" lon="26.443369025364518">
        <ele>172.69</ele>
        <time>2011-08-16T13:53:50Z</time>
      </trkpt>
      <trkpt lat="54.854565002024174" lon="26.443743025884032">
        <ele>173.16999999999999</ele>
        <time>2011-08-16T13:54:02Z</time>
      </trkpt>
      <trkpt lat="54.854263002052903" lon="26.444132030010223">
        <ele>175.09999999999999</ele>
        <time>2011-08-16T13:54:16Z</time>
      </trkpt>
      <trkpt lat="54.853878021240234" lon="26.444551041349769">
        <ele>174.62</ele>
        <time>2011-08-16T13:54:31Z</time>
      </trkpt>
      <trkpt lat="54.853443000465631" lon="26.445024032145739">
        <ele>175.09999999999999</ele>
        <time>2011-08-16T13:54:45Z</time>
      </trkpt>
      <trkpt lat="54.853164972737432" lon="26.445297030732036">
        <ele>175.09999999999999</ele>
        <time>2011-08-16T13:54:54Z</time>
      </trkpt>
      <trkpt lat="54.853146029636264" lon="26.445514960214496">
        <ele>175.58000000000001</ele>
        <time>2011-08-16T13:54:59Z</time>
      </trkpt>
      <trkpt lat="54.853329006582499" lon="26.446265978738666">
        <ele>177.5</ele>
        <time>2011-08-16T13:55:15Z</time>
      </trkpt>
      <trkpt lat="54.853359013795853" lon="26.447139959782362">
        <ele>178.46000000000001</ele>
        <time>2011-08-16T13:55:31Z</time>
      </trkpt>
      <trkpt lat="54.853408969938755" lon="26.448089964687824">
        <ele>179.90000000000001</ele>
        <time>2011-08-16T13:55:48Z</time>
      </trkpt>
      <trkpt lat="54.853496979922056" lon="26.44906603731215">
        <ele>180.87</ele>
        <time>2011-08-16T13:56:05Z</time>
      </trkpt>
      <trkpt lat="54.853656990453601" lon="26.449827030301094">
        <ele>181.83000000000001</ele>
        <time>2011-08-16T13:56:20Z</time>
      </trkpt>
      <trkpt lat="54.853889001533389" lon="26.449887966737151">
        <ele>182.31</ele>
        <time>2011-08-16T13:56:31Z</time>
      </trkpt>
      <trkpt lat="54.854378001764417" lon="26.449234010651708">
        <ele>182.31</ele>
        <time>2011-08-16T13:56:48Z</time>
      </trkpt>
      <trkpt lat="54.855103036388755" lon="26.448262967169285">
        <ele>179.90000000000001</ele>
        <time>2011-08-16T13:57:10Z</time>
      </trkpt>
      <trkpt lat="54.855651967227459" lon="26.447501974180341">
        <ele>179.90000000000001</ele>
        <time>2011-08-16T13:57:28Z</time>
      </trkpt>
      <trkpt lat="54.855708964169025" lon="26.447442965582013">
        <ele>178.94</ele>
        <time>2011-08-16T13:57:30Z</time>
      </trkpt>
      <trkpt lat="54.856200981885195" lon="26.446782974526286">
        <ele>178.94</ele>
        <time>2011-08-16T13:57:46Z</time>
      </trkpt>
      <trkpt lat="54.856715966016054" lon="26.44610202871263">
        <ele>178.46000000000001</ele>
        <time>2011-08-16T13:58:02Z</time>
      </trkpt>
      <trkpt lat="54.857238996773958" lon="26.445413958281279">
        <ele>177.02000000000001</ele>
        <time>2011-08-16T13:58:18Z</time>
      </trkpt>
      <trkpt lat="54.857719028368592" lon="26.444750027731061">
        <ele>176.53999999999999</ele>
        <time>2011-08-16T13:58:35Z</time>
      </trkpt>
      <trkpt lat="54.858192019164562" lon="26.444121971726418">
        <ele>177.5</ele>
        <time>2011-08-16T13:58:52Z</time>
      </trkpt>
      <trkpt lat="54.858657969161868" lon="26.443515960127115">
        <ele>177.5</ele>
        <time>2011-08-16T13:59:10Z</time>
      </trkpt>
      <trkpt lat="54.858753019943833" lon="26.443389980122447">
        <ele>178.94</ele>
        <time>2011-08-16T13:59:14Z</time>
      </trkpt>
      <trkpt lat="54.859184017404914" lon="26.442813975736499">
        <ele>179.90000000000001</ele>
        <time>2011-08-16T13:59:32Z</time>
      </trkpt>
      <trkpt lat="54.859549971297383" lon="26.4423200301826">
        <ele>182.31</ele>
        <time>2011-08-16T13:59:48Z</time>
      </trkpt>
      <trkpt lat="54.85988600179553" lon="26.441799011081457">
        <ele>183.75</ele>
        <time>2011-08-16T14:00:04Z</time>
      </trkpt>
      <trkpt lat="54.860237035900354" lon="26.441168021410704">
        <ele>185.19</ele>
        <time>2011-08-16T14:00:22Z</time>
      </trkpt>
      <trkpt lat="54.860577005892992" lon="26.440509958192706">
        <ele>186.15000000000001</ele>
        <time>2011-08-16T14:00:41Z</time>
      </trkpt>
      <trkpt lat="54.860988976433873" lon="26.439603958278894">
        <ele>186.15000000000001</ele>
        <time>2011-08-16T14:01:02Z</time>
      </trkpt>
      <trkpt lat="54.861407987773418" lon="26.438527973368764">
        <ele>185.66999999999999</ele>
        <time>2011-08-16T14:01:23Z</time>
      </trkpt>
      <trkpt lat="54.861793974414468" lon="26.437403038144112">
        <ele>184.22999999999999</ele>
        <time>2011-08-16T14:01:40Z</time>
      </trkpt>
      <trkpt lat="54.862052975222468" lon="26.436365023255348">
        <ele>180.87</ele>
        <time>2011-08-16T14:01:52Z</time>
      </trkpt>
      <trkpt lat="54.862170992419124" lon="26.435749037191272">
        <ele>178.46000000000001</ele>
        <time>2011-08-16T14:01:58Z</time>
      </trkpt>
      <trkpt lat="54.862410966306925" lon="26.434340039268136">
        <ele>174.62</ele>
        <time>2011-08-16T14:02:09Z</time>
      </trkpt>
      <trkpt lat="54.862724030390382" lon="26.432640021666884">
        <ele>171.25</ele>
        <time>2011-08-16T14:02:23Z</time>
      </trkpt>
      <trkpt lat="54.863041033968329" lon="26.430879989638925">
        <ele>169.33000000000001</ele>
        <time>2011-08-16T14:02:39Z</time>
      </trkpt>
      <trkpt lat="54.863231973722577" lon="26.4296879991889">
        <ele>170.28999999999999</ele>
        <time>2011-08-16T14:02:52Z</time>
      </trkpt>
      <trkpt lat="54.863426014780998" lon="26.428625006228685">
        <ele>171.72999999999999</ele>
        <time>2011-08-16T14:03:07Z</time>
      </trkpt>
      <trkpt lat="54.863617038354278" lon="26.427653962746263">
        <ele>173.66</ele>
        <time>2011-08-16T14:03:22Z</time>
      </trkpt>
      <trkpt lat="54.863997995853424" lon="26.426237002015114">
        <ele>173.16999999999999</ele>
        <time>2011-08-16T14:03:43Z</time>
      </trkpt>
      <trkpt lat="54.864356992766261" lon="26.425119023770094">
        <ele>172.69</ele>
        <time>2011-08-16T14:04:00Z</time>
      </trkpt>
      <trkpt lat="54.864704003557563" lon="26.424014959484339">
        <ele>171.25</ele>
        <time>2011-08-16T14:04:18Z</time>
      </trkpt>
      <trkpt lat="54.865036010742188" lon="26.422949032858014">
        <ele>171.72999999999999</ele>
        <time>2011-08-16T14:04:35Z</time>
      </trkpt>
      <trkpt lat="54.865429038181901" lon="26.421733992174268">
        <ele>171.25</ele>
        <time>2011-08-16T14:04:55Z</time>
      </trkpt>
      <trkpt lat="54.86551696434617" lon="26.421443978324533">
        <ele>171.25</ele>
        <time>2011-08-16T14:05:00Z</time>
      </trkpt>
      <trkpt lat="54.865627018734813" lon="26.421150024980307">
        <ele>171.25</ele>
        <time>2011-08-16T14:05:05Z</time>
      </trkpt>
      <trkpt lat="54.865951985120773" lon="26.420145034790039">
        <ele>171.25</ele>
        <time>2011-08-16T14:05:22Z</time>
      </trkpt>
      <trkpt lat="54.866302013397217" lon="26.419090004637837">
        <ele>170.28999999999999</ele>
        <time>2011-08-16T14:05:39Z</time>
      </trkpt>
      <trkpt lat="54.866676013916731" lon="26.417991975322366">
        <ele>170.28999999999999</ele>
        <time>2011-08-16T14:05:56Z</time>
      </trkpt>
      <trkpt lat="54.867099970579147" lon="26.416724966838956">
        <ele>168.84999999999999</ele>
        <time>2011-08-16T14:06:14Z</time>
      </trkpt>
      <trkpt lat="54.867485035210848" lon="26.415587961673737">
        <ele>167.41</ele>
        <time>2011-08-16T14:06:32Z</time>
      </trkpt>
      <trkpt lat="54.867560975253582" lon="26.415369026362896">
        <ele>168.84999999999999</ele>
        <time>2011-08-16T14:06:37Z</time>
      </trkpt>
      <trkpt lat="54.867846965789795" lon="26.414532009512186">
        <ele>167.41</ele>
        <time>2011-08-16T14:06:53Z</time>
      </trkpt>
      <trkpt lat="54.868259020149708" lon="26.413348987698555">
        <ele>167.41</ele>
        <time>2011-08-16T14:07:12Z</time>
      </trkpt>
      <trkpt lat="54.868739973753691" lon="26.411998998373747">
        <ele>165.96000000000001</ele>
        <time>2011-08-16T14:07:33Z</time>
      </trkpt>
      <trkpt lat="54.868980031460524" lon="26.411305982619524">
        <ele>165.96000000000001</ele>
        <time>2011-08-16T14:07:45Z</time>
      </trkpt>
      <trkpt lat="54.869384961202741" lon="26.410177024081349">
        <ele>165</ele>
        <time>2011-08-16T14:08:04Z</time>
      </trkpt>
      <trkpt lat="54.869700958952308" lon="26.409261971712112">
        <ele>163.56</ele>
        <time>2011-08-16T14:08:20Z</time>
      </trkpt>
      <trkpt lat="54.869948979467154" lon="26.408559987321496">
        <ele>163.56</ele>
        <time>2011-08-16T14:08:31Z</time>
      </trkpt>
      <trkpt lat="54.870162969455123" lon="26.407979959622025">
        <ele>164.03999999999999</ele>
        <time>2011-08-16T14:08:39Z</time>
      </trkpt>
      <trkpt lat="54.870551973581314" lon="26.406873967498541">
        <ele>162.12</ele>
        <time>2011-08-16T14:08:56Z</time>
      </trkpt>
      <trkpt lat="54.87097199074924" lon="26.405683988705277">
        <ele>162.59999999999999</ele>
        <time>2011-08-16T14:09:14Z</time>
      </trkpt>
      <trkpt lat="54.871132001280785" lon="26.405230024829507">
        <ele>161.16</ele>
        <time>2011-08-16T14:09:21Z</time>
      </trkpt>
      <trkpt lat="54.871604992076755" lon="26.403906019404531">
        <ele>161.16</ele>
        <time>2011-08-16T14:09:41Z</time>
      </trkpt>
      <trkpt lat="54.871670035645366" lon="26.40371298417449">
        <ele>161.16</ele>
        <time>2011-08-16T14:09:44Z</time>
      </trkpt>
      <trkpt lat="54.871718985959888" lon="26.403594966977835">
        <ele>161.63999999999999</ele>
        <time>2011-08-16T14:09:46Z</time>
      </trkpt>
      <trkpt lat="54.872107990086079" lon="26.402501966804266">
        <ele>162.59999999999999</ele>
        <time>2011-08-16T14:10:04Z</time>
      </trkpt>
      <trkpt lat="54.872169010341167" lon="26.402333993464708">
        <ele>160.68000000000001</ele>
        <time>2011-08-16T14:10:07Z</time>
      </trkpt>
      <trkpt lat="54.872501017525792" lon="26.401421036571264">
        <ele>161.16</ele>
        <time>2011-08-16T14:10:23Z</time>
      </trkpt>
      <trkpt lat="54.872860014438629" lon="26.400299035012722">
        <ele>160.68000000000001</ele>
        <time>2011-08-16T14:10:42Z</time>
      </trkpt>
      <trkpt lat="54.872829001396894" lon="26.399979013949633">
        <ele>160.19999999999999</ele>
        <time>2011-08-16T14:10:47Z</time>
      </trkpt>
      <trkpt lat="54.872596990317106" lon="26.399778015911579">
        <ele>160.19999999999999</ele>
        <time>2011-08-16T14:10:53Z</time>
      </trkpt>
      <trkpt lat="54.871963988989592" lon="26.399160018190742">
        <ele>159.24000000000001</ele>
        <time>2011-08-16T14:11:07Z</time>
      </trkpt>
      <trkpt lat="54.871169971302152" lon="26.398252006620169">
        <ele>158.27000000000001</ele>
        <time>2011-08-16T14:11:22Z</time>
      </trkpt>
      <trkpt lat="54.870159029960632" lon="26.397113995626569">
        <ele>156.83000000000001</ele>
        <time>2011-08-16T14:11:39Z</time>
      </trkpt>
      <trkpt lat="54.869216987863183" lon="26.39599802903831">
        <ele>154.91</ele>
        <time>2011-08-16T14:11:55Z</time>
      </trkpt>
      <trkpt lat="54.868010999634862" lon="26.394585007801652">
        <ele>152.03</ele>
        <time>2011-08-16T14:12:16Z</time>
      </trkpt>
      <trkpt lat="54.867274984717369" lon="26.393718989565969">
        <ele>151.53999999999999</ele>
        <time>2011-08-16T14:12:31Z</time>
      </trkpt>
      <trkpt lat="54.866329003125429" lon="26.392620038241148">
        <ele>151.53999999999999</ele>
        <time>2011-08-16T14:12:51Z</time>
      </trkpt>
      <trkpt lat="54.865504978224635" lon="26.391682019457221">
        <ele>152.03</ele>
        <time>2011-08-16T14:13:08Z</time>
      </trkpt>
      <trkpt lat="54.864807017147541" lon="26.390923960134387">
        <ele>152.99000000000001</ele>
        <time>2011-08-16T14:13:23Z</time>
      </trkpt>
      <trkpt lat="54.863876039162278" lon="26.390448035672307">
        <ele>152.50999999999999</ele>
        <time>2011-08-16T14:13:41Z</time>
      </trkpt>
      <trkpt lat="54.863068023696542" lon="26.390289030969143">
        <ele>152.50999999999999</ele>
        <time>2011-08-16T14:13:56Z</time>
      </trkpt>
      <trkpt lat="54.86222798936069" lon="26.390158021822572">
        <ele>152.50999999999999</ele>
        <time>2011-08-16T14:14:11Z</time>
      </trkpt>
      <trkpt lat="54.861427014693618" lon="26.390075962990522">
        <ele>152.50999999999999</ele>
        <time>2011-08-16T14:14:25Z</time>
      </trkpt>
      <trkpt lat="54.860957963392138" lon="26.390085015445948">
        <ele>153.47</ele>
        <time>2011-08-16T14:14:33Z</time>
      </trkpt>
      <trkpt lat="54.860900966450572" lon="26.390077974647284">
        <ele>153.47</ele>
        <time>2011-08-16T14:14:34Z</time>
      </trkpt>
      <trkpt lat="54.860843969509006" lon="26.390077974647284">
        <ele>153.47</ele>
        <time>2011-08-16T14:14:35Z</time>
      </trkpt>
      <trkpt lat="54.85990896821022" lon="26.390100019052625">
        <ele>155.38999999999999</ele>
        <time>2011-08-16T14:14:53Z</time>
      </trkpt>
      <trkpt lat="54.859100030735135" lon="26.39013497158885">
        <ele>156.83000000000001</ele>
        <time>2011-08-16T14:15:11Z</time>
      </trkpt>
      <trkpt lat="54.858376001939178" lon="26.390180988237262">
        <ele>159.72</ele>
        <time>2011-08-16T14:15:30Z</time>
      </trkpt>
      <trkpt lat="54.857943998649716" lon="26.390362037345767">
        <ele>160.68000000000001</ele>
        <time>2011-08-16T14:15:42Z</time>
      </trkpt>
      <trkpt lat="54.857104970142245" lon="26.390723967924714">
        <ele>160.19999999999999</ele>
        <time>2011-08-16T14:16:01Z</time>
      </trkpt>
      <trkpt lat="54.856308018788695" lon="26.390980035066605">
        <ele>158.75</ele>
        <time>2011-08-16T14:16:18Z</time>
      </trkpt>
      <trkpt lat="54.856220008805394" lon="26.391044994816184">
        <ele>158.27000000000001</ele>
        <time>2011-08-16T14:16:20Z</time>
      </trkpt>
      <trkpt lat="54.856079025194049" lon="26.3911650236696">
        <ele>158.27000000000001</ele>
        <time>2011-08-16T14:16:23Z</time>
      </trkpt>
      <trkpt lat="54.856029991060495" lon="26.391202993690968">
        <ele>158.27000000000001</ele>
        <time>2011-08-16T14:16:24Z</time>
      </trkpt>
      <trkpt lat="54.855431020259857" lon="26.391803976148367">
        <ele>155.38999999999999</ele>
        <time>2011-08-16T14:16:36Z</time>
      </trkpt>
      <trkpt lat="54.855328006669879" lon="26.391956023871899">
        <ele>154.43000000000001</ele>
        <time>2011-08-16T14:16:38Z</time>
      </trkpt>
      <trkpt lat="54.855129020288587" lon="26.392513001337647">
        <ele>152.99000000000001</ele>
        <time>2011-08-16T14:16:43Z</time>
      </trkpt>
      <trkpt lat="54.855033969506621" lon="26.392911979928613">
        <ele>152.99000000000001</ele>
        <time>2011-08-16T14:16:47Z</time>
      </trkpt>
      <trkpt lat="54.855003040283918" lon="26.393005019053817">
        <ele>152.50999999999999</ele>
        <time>2011-08-16T14:16:48Z</time>
      </trkpt>
      <trkpt lat="54.854969009757042" lon="26.393096968531609">
        <ele>152.50999999999999</ele>
        <time>2011-08-16T14:16:49Z</time>
      </trkpt>
      <trkpt lat="54.854931039735675" lon="26.393177015706897">
        <ele>152.99000000000001</ele>
        <time>2011-08-16T14:16:50Z</time>
      </trkpt>
      <trkpt lat="54.854892985895276" lon="26.393253039568663">
        <ele>152.03</ele>
        <time>2011-08-16T14:16:51Z</time>
      </trkpt>
      <trkpt lat="54.854850992560387" lon="26.393324034288526">
        <ele>152.50999999999999</ele>
        <time>2011-08-16T14:16:52Z</time>
      </trkpt>
      <trkpt lat="54.854247998446226" lon="26.394135989248753">
        <ele>152.03</ele>
        <time>2011-08-16T14:17:07Z</time>
      </trkpt>
      <trkpt lat="54.853592030704021" lon="26.394927995279431">
        <ele>151.53999999999999</ele>
        <time>2011-08-16T14:17:23Z</time>
      </trkpt>
      <trkpt lat="54.853106969967484" lon="26.395556973293424">
        <ele>151.06</ele>
        <time>2011-08-16T14:17:39Z</time>
      </trkpt>
      <trkpt lat="54.853034969419241" lon="26.395655041560531">
        <ele>151.53999999999999</ele>
        <time>2011-08-16T14:17:49Z</time>
      </trkpt>
      <trkpt lat="54.853034969419241" lon="26.395655041560531">
        <ele>152.03</ele>
        <time>2011-08-16T14:18:14Z</time>
      </trkpt>
      <trkpt lat="54.853012003004551" lon="26.395706003531814">
        <ele>152.03</ele>
        <time>2011-08-16T14:18:37Z</time>
      </trkpt>
      <trkpt lat="54.852825002744794" lon="26.396023007109761">
        <ele>152.99000000000001</ele>
        <time>2011-08-16T14:18:49Z</time>
      </trkpt>
      <trkpt lat="54.852500958368182" lon="26.396555006504059">
        <ele>153.94999999999999</ele>
        <time>2011-08-16T14:19:03Z</time>
      </trkpt>
      <trkpt lat="54.852290991693735" lon="26.396838985383511">
        <ele>154.43000000000001</ele>
        <time>2011-08-16T14:19:10Z</time>
      </trkpt>
      <trkpt lat="54.852260984480381" lon="26.396882990375161">
        <ele>153.94999999999999</ele>
        <time>2011-08-16T14:19:11Z</time>
      </trkpt>
      <trkpt lat="54.851780030876398" lon="26.397586986422539">
        <ele>155.38999999999999</ele>
        <time>2011-08-16T14:19:27Z</time>
      </trkpt>
      <trkpt lat="54.851321959868073" lon="26.398241026327014">
        <ele>156.34999999999999</ele>
        <time>2011-08-16T14:19:42Z</time>
      </trkpt>
      <trkpt lat="54.850879982113838" lon="26.398655008524656">
        <ele>157.78999999999999</ele>
        <time>2011-08-16T14:19:55Z</time>
      </trkpt>
      <trkpt lat="54.850368015468121" lon="26.399011993780732">
        <ele>157.31</ele>
        <time>2011-08-16T14:20:10Z</time>
      </trkpt>
      <trkpt lat="54.849715987220407" lon="26.399655975401402">
        <ele>155.87</ele>
        <time>2011-08-16T14:20:26Z</time>
      </trkpt>
      <trkpt lat="54.849109975621104" lon="26.400686027482152">
        <ele>154.91</ele>
        <time>2011-08-16T14:20:42Z</time>
      </trkpt>
      <trkpt lat="54.848644025623798" lon="26.401344006881118">
        <ele>156.83000000000001</ele>
        <time>2011-08-16T14:20:55Z</time>
      </trkpt>
      <trkpt lat="54.84843104146421" lon="26.401663022115827">
        <ele>156.83000000000001</ele>
        <time>2011-08-16T14:21:02Z</time>
      </trkpt>
      <trkpt lat="54.848080007359385" lon="26.402446981519461">
        <ele>158.27000000000001</ele>
        <time>2011-08-16T14:21:18Z</time>
      </trkpt>
      <trkpt lat="54.848018987104297" lon="26.402538008987904">
        <ele>157.78999999999999</ele>
        <time>2011-08-16T14:21:20Z</time>
      </trkpt>
      <trkpt lat="54.847950004041195" lon="26.40261797234416">
        <ele>157.31</ele>
        <time>2011-08-16T14:21:22Z</time>
      </trkpt>
      <trkpt lat="54.847625959664583" lon="26.402784017845988">
        <ele>158.27000000000001</ele>
        <time>2011-08-16T14:21:33Z</time>
      </trkpt>
      <trkpt lat="54.847613973543048" lon="26.402771025896072">
        <ele>159.24000000000001</ele>
        <time>2011-08-16T14:21:45Z</time>
      </trkpt>
      <trkpt lat="54.84761799685657" lon="26.402762979269028">
        <ele>158.27000000000001</ele>
        <time>2011-08-16T14:21:59Z</time>
      </trkpt>
      <trkpt lat="54.84761799685657" lon="26.402762979269028">
        <ele>159.24000000000001</ele>
        <time>2011-08-16T14:22:23Z</time>
      </trkpt>
      <trkpt lat="54.847613973543048" lon="26.402760967612267">
        <ele>158.75</ele>
        <time>2011-08-16T14:22:52Z</time>
      </trkpt>
      <trkpt lat="54.847602993249893" lon="26.402754010632634">
        <ele>159.24000000000001</ele>
        <time>2011-08-16T14:23:19Z</time>
      </trkpt>
      <trkpt lat="54.847602993249893" lon="26.402754010632634">
        <ele>159.24000000000001</ele>
        <time>2011-08-16T14:23:44Z</time>
      </trkpt>
      <trkpt lat="54.847607016563416" lon="26.402762979269028">
        <ele>159.24000000000001</ele>
        <time>2011-08-16T14:24:09Z</time>
      </trkpt>
      <trkpt lat="54.847602993249893" lon="26.402764990925789">
        <ele>159.24000000000001</ele>
        <time>2011-08-16T14:24:43Z</time>
      </trkpt>
      <trkpt lat="54.847602993249893" lon="26.402784017845988">
        <ele>159.24000000000001</ele>
        <time>2011-08-16T14:25:22Z</time>
      </trkpt>
      <trkpt lat="54.847598969936371" lon="26.402782006189227">
        <ele>158.75</ele>
        <time>2011-08-16T14:25:53Z</time>
      </trkpt>
      <trkpt lat="54.847598969936371" lon="26.402782006189227">
        <ele>159.24000000000001</ele>
        <time>2011-08-16T14:26:24Z</time>
      </trkpt>
      <trkpt lat="54.84759503044188" lon="26.402769014239311">
        <ele>159.24000000000001</ele>
        <time>2011-08-16T14:26:55Z</time>
      </trkpt>
      <trkpt lat="54.84759503044188" lon="26.402762979269028">
        <ele>158.75</ele>
        <time>2011-08-16T14:27:31Z</time>
      </trkpt>
      <trkpt lat="54.84759503044188" lon="26.402778988704085">
        <ele>158.27000000000001</ele>
        <time>2011-08-16T14:27:59Z</time>
      </trkpt>
      <trkpt lat="54.84759503044188" lon="26.402778988704085">
        <ele>158.27000000000001</ele>
        <time>2011-08-16T14:28:28Z</time>
      </trkpt>
      <trkpt lat="54.84759503044188" lon="26.402781000360847">
        <ele>157.78999999999999</ele>
        <time>2011-08-16T14:28:57Z</time>
      </trkpt>
      <trkpt lat="54.84759503044188" lon="26.402782006189227">
        <ele>157.31</ele>
        <time>2011-08-16T14:29:30Z</time>
      </trkpt>
      <trkpt lat="54.84759503044188" lon="26.402781000360847">
        <ele>158.27000000000001</ele>
        <time>2011-08-16T14:29:59Z</time>
      </trkpt>
      <trkpt lat="54.847598969936371" lon="26.402782006189227">
        <ele>158.27000000000001</ele>
        <time>2011-08-16T14:30:34Z</time>
      </trkpt>
      <trkpt lat="54.847598969936371" lon="26.402782006189227">
        <ele>157.78999999999999</ele>
        <time>2011-08-16T14:31:07Z</time>
      </trkpt>
      <trkpt lat="54.847598969936371" lon="26.402776977047324">
        <ele>157.31</ele>
        <time>2011-08-16T14:31:34Z</time>
      </trkpt>
      <trkpt lat="54.84759503044188" lon="26.402773037552834">
        <ele>157.78999999999999</ele>
        <time>2011-08-16T14:32:08Z</time>
      </trkpt>
      <trkpt lat="54.84759503044188" lon="26.402762979269028">
        <ele>157.78999999999999</ele>
        <time>2011-08-16T14:32:35Z</time>
      </trkpt>
      <trkpt lat="54.84759503044188" lon="26.402762979269028">
        <ele>157.78999999999999</ele>
        <time>2011-08-16T14:33:05Z</time>
      </trkpt>
      <trkpt lat="54.847587989643216" lon="26.402756022289395">
        <ele>157.31</ele>
        <time>2011-08-16T14:33:33Z</time>
      </trkpt>
      <trkpt lat="54.84759503044188" lon="26.402754010632634">
        <ele>156.83000000000001</ele>
        <time>2011-08-16T14:34:06Z</time>
      </trkpt>
      <trkpt lat="54.847598969936371" lon="26.402754010632634">
        <ele>157.31</ele>
        <time>2011-08-16T14:34:34Z</time>
      </trkpt>
      <trkpt lat="54.847598969936371" lon="26.402754010632634">
        <ele>157.78999999999999</ele>
        <time>2011-08-16T14:35:06Z</time>
      </trkpt>
      <trkpt lat="54.84759503044188" lon="26.402758033946157">
        <ele>157.31</ele>
        <time>2011-08-16T14:35:38Z</time>
      </trkpt>
      <trkpt lat="54.847602993249893" lon="26.402754010632634">
        <ele>156.83000000000001</ele>
        <time>2011-08-16T14:36:13Z</time>
      </trkpt>
      <trkpt lat="54.847598969936371" lon="26.402745964005589">
        <ele>157.31</ele>
        <time>2011-08-16T14:36:42Z</time>
      </trkpt>
      <trkpt lat="54.84759503044188" lon="26.402747975662351">
        <ele>156.83000000000001</ele>
        <time>2011-08-16T14:37:15Z</time>
      </trkpt>
      <trkpt lat="54.84759503044188" lon="26.402747975662351">
        <ele>156.83000000000001</ele>
        <time>2011-08-16T14:37:50Z</time>
      </trkpt>
      <trkpt lat="54.84759503044188" lon="26.402745964005589">
        <ele>156.83000000000001</ele>
        <time>2011-08-16T14:38:17Z</time>
      </trkpt>
      <trkpt lat="54.847598969936371" lon="26.402762979269028">
        <ele>156.34999999999999</ele>
        <time>2011-08-16T14:38:36Z</time>
      </trkpt>
      <trkpt lat="54.847613973543048" lon="26.402855012565851">
        <ele>157.31</ele>
        <time>2011-08-16T14:38:43Z</time>
      </trkpt>
      <trkpt lat="54.84761799685657" lon="26.402874039486051">
        <ele>157.78999999999999</ele>
        <time>2011-08-16T14:38:44Z</time>
      </trkpt>
      <trkpt lat="54.847625959664583" lon="26.402888959273696">
        <ele>157.31</ele>
        <time>2011-08-16T14:38:45Z</time>
      </trkpt>
      <trkpt lat="54.847633000463247" lon="26.402901029214263">
        <ele>157.78999999999999</ele>
        <time>2011-08-16T14:38:46Z</time>
      </trkpt>
      <trkpt lat="54.84764096327126" lon="26.402909997850657">
        <ele>157.78999999999999</ele>
        <time>2011-08-16T14:38:47Z</time>
      </trkpt>
      <trkpt lat="54.847732996568084" lon="26.402863981202245">
        <ele>156.83000000000001</ele>
        <time>2011-08-16T14:38:59Z</time>
      </trkpt>
      <trkpt lat="54.847752023488283" lon="26.402845038101077">
        <ele>157.31</ele>
        <time>2011-08-16T14:39:00Z</time>
      </trkpt>
      <trkpt lat="54.847770966589451" lon="26.4028300344944">
        <ele>156.83000000000001</ele>
        <time>2011-08-16T14:39:01Z</time>
      </trkpt>
      <trkpt lat="54.847794016823173" lon="26.402815030887723">
        <ele>156.83000000000001</ele>
        <time>2011-08-16T14:39:02Z</time>
      </trkpt>
      <trkpt lat="54.847820000723004" lon="26.402804972603917">
        <ele>156.83000000000001</ele>
        <time>2011-08-16T14:39:03Z</time>
      </trkpt>
      <trkpt lat="54.848167011514306" lon="26.402370035648346">
        <ele>156.34999999999999</ele>
        <time>2011-08-16T14:39:16Z</time>
      </trkpt>
      <trkpt lat="54.848536988720298" lon="26.40162798576057">
        <ele>154.91</ele>
        <time>2011-08-16T14:39:32Z</time>
      </trkpt>
      <trkpt lat="54.849067982286215" lon="26.400900017470121">
        <ele>153.47</ele>
        <time>2011-08-16T14:39:48Z</time>
      </trkpt>
      <trkpt lat="54.849612973630428" lon="26.399992005899549">
        <ele>153.47</ele>
        <time>2011-08-16T14:40:06Z</time>
      </trkpt>
      <trkpt lat="54.850100968033075" lon="26.399345006793737">
        <ele>154.91</ele>
        <time>2011-08-16T14:40:23Z</time>
      </trkpt>
      <trkpt lat="54.8505590390414" lon="26.398951979354024">
        <ele>156.83000000000001</ele>
        <time>2011-08-16T14:40:38Z</time>
      </trkpt>
      <trkpt lat="54.851044015958905" lon="26.398655008524656">
        <ele>156.83000000000001</ele>
        <time>2011-08-16T14:40:54Z</time>
      </trkpt>
      <trkpt lat="54.851391026750207" lon="26.39832098968327">
        <ele>154.91</ele>
        <time>2011-08-16T14:41:08Z</time>
      </trkpt>
      <trkpt lat="54.851470990106463" lon="26.398204984143376">
        <ele>154.43000000000001</ele>
        <time>2011-08-16T14:41:19Z</time>
      </trkpt>
      <trkpt lat="54.851470990106463" lon="26.398204984143376">
        <ele>154.43000000000001</ele>
        <time>2011-08-16T14:41:34Z</time>
      </trkpt>
      <trkpt lat="54.851475013419986" lon="26.398200960829854">
        <ele>154.43000000000001</ele>
        <time>2011-08-16T14:42:08Z</time>
      </trkpt>
      <trkpt lat="54.851479036733508" lon="26.398197021335363">
        <ele>154.91</ele>
        <time>2011-08-16T14:42:36Z</time>
      </trkpt>
      <trkpt lat="54.851479036733508" lon="26.398197021335363">
        <ele>154.91</ele>
        <time>2011-08-16T14:43:09Z</time>
      </trkpt>
      <trkpt lat="54.851479036733508" lon="26.398192998021841">
        <ele>154.43000000000001</ele>
        <time>2011-08-16T14:43:39Z</time>
      </trkpt>
      <trkpt lat="54.851479036733508" lon="26.39819098636508">
        <ele>154.91</ele>
        <time>2011-08-16T14:44:13Z</time>
      </trkpt>
      <trkpt lat="54.851479036733508" lon="26.398189980536699">
        <ele>155.38999999999999</ele>
        <time>2011-08-16T14:44:43Z</time>
      </trkpt>
      <trkpt lat="54.851479036733508" lon="26.398189980536699">
        <ele>154.91</ele>
        <time>2011-08-16T14:45:14Z</time>
      </trkpt>
      <trkpt lat="54.851479036733508" lon="26.398189980536699">
        <ele>154.43000000000001</ele>
        <time>2011-08-16T14:45:44Z</time>
      </trkpt>
      <trkpt lat="54.851479036733508" lon="26.39819098636508">
        <ele>154.91</ele>
        <time>2011-08-16T14:46:12Z</time>
      </trkpt>
      <trkpt lat="54.851475013419986" lon="26.39819098636508">
        <ele>154.43000000000001</ele>
        <time>2011-08-16T14:46:40Z</time>
      </trkpt>
      <trkpt lat="54.851475013419986" lon="26.39819098636508">
        <ele>154.43000000000001</ele>
        <time>2011-08-16T14:47:10Z</time>
      </trkpt>
      <trkpt lat="54.851475013419986" lon="26.398192998021841">
        <ele>155.38999999999999</ele>
        <time>2011-08-16T14:47:38Z</time>
      </trkpt>
      <trkpt lat="54.851475013419986" lon="26.398195009678602">
        <ele>154.91</ele>
        <time>2011-08-16T14:48:09Z</time>
      </trkpt>
      <trkpt lat="54.851475013419986" lon="26.398189980536699">
        <ele>155.38999999999999</ele>
        <time>2011-08-16T14:48:37Z</time>
      </trkpt>
      <trkpt lat="54.851475013419986" lon="26.398189980536699">
        <ele>154.91</ele>
        <time>2011-08-16T14:49:04Z</time>
      </trkpt>
      <trkpt lat="54.851475013419986" lon="26.398192998021841">
        <ele>154.91</ele>
        <time>2011-08-16T14:49:33Z</time>
      </trkpt>
      <trkpt lat="54.851475013419986" lon="26.398195009678602">
        <ele>155.38999999999999</ele>
        <time>2011-08-16T14:49:56Z</time>
      </trkpt>
      <trkpt lat="54.851475013419986" lon="26.398195009678602">
        <ele>155.38999999999999</ele>
        <time>2011-08-16T14:50:21Z</time>
      </trkpt>
      <trkpt lat="54.851475013419986" lon="26.398195009678602">
        <ele>154.91</ele>
        <time>2011-08-16T14:50:48Z</time>
      </trkpt>
      <trkpt lat="54.851475013419986" lon="26.398197021335363">
        <ele>155.38999999999999</ele>
        <time>2011-08-16T14:51:18Z</time>
      </trkpt>
      <trkpt lat="54.851475013419986" lon="26.398197021335363">
        <ele>155.38999999999999</ele>
        <time>2011-08-16T14:51:47Z</time>
      </trkpt>
      <trkpt lat="54.851490017026663" lon="26.398177994415164">
        <ele>154.91</ele>
        <time>2011-08-16T14:52:07Z</time>
      </trkpt>
      <trkpt lat="54.85150502063334" lon="26.398151004686952">
        <ele>155.38999999999999</ele>
        <time>2011-08-16T14:52:22Z</time>
      </trkpt>
      <trkpt lat="54.851521030068398" lon="26.398113034665585">
        <ele>155.38999999999999</ele>
        <time>2011-08-16T14:52:30Z</time>
      </trkpt>
      <trkpt lat="54.851542990654707" lon="26.398069029673934">
        <ele>154.91</ele>
        <time>2011-08-16T14:52:38Z</time>
      </trkpt>
      <trkpt lat="54.851554976776242" lon="26.398052014410496">
        <ele>155.38999999999999</ele>
        <time>2011-08-16T14:52:39Z</time>
      </trkpt>
      <trkpt lat="54.851566040888429" lon="26.398032987490296">
        <ele>155.38999999999999</ele>
        <time>2011-08-16T14:52:40Z</time>
      </trkpt>
      <trkpt lat="54.851581966504455" lon="26.398008009418845">
        <ele>154.91</ele>
        <time>2011-08-16T14:52:41Z</time>
      </trkpt>
      <trkpt lat="54.851600993424654" lon="26.39797599054873">
        <ele>155.38999999999999</ele>
        <time>2011-08-16T14:52:42Z</time>
      </trkpt>
      <trkpt lat="54.851620020344853" lon="26.397941960021853">
        <ele>154.43000000000001</ele>
        <time>2011-08-16T14:52:43Z</time>
      </trkpt>
      <trkpt lat="54.851638963446021" lon="26.397904995828867">
        <ele>155.38999999999999</ele>
        <time>2011-08-16T14:52:44Z</time>
      </trkpt>
      <trkpt lat="54.851665031164885" lon="26.397870965301991">
        <ele>154.91</ele>
        <time>2011-08-16T14:52:45Z</time>
      </trkpt>
      <trkpt lat="54.852169035002589" lon="26.397166969254613">
        <ele>153.47</ele>
        <time>2011-08-16T14:53:01Z</time>
      </trkpt>
      <trkpt lat="54.852238018065691" lon="26.397045012563467">
        <ele>154.43000000000001</ele>
        <time>2011-08-16T14:53:05Z</time>
      </trkpt>
      <trkpt lat="54.852244975045323" lon="26.397001007571816">
        <ele>153.94999999999999</ele>
        <time>2011-08-16T14:53:06Z</time>
      </trkpt>
      <trkpt lat="54.852253021672368" lon="26.396957002580166">
        <ele>153.94999999999999</ele>
        <time>2011-08-16T14:53:07Z</time>
      </trkpt>
      <trkpt lat="54.852264001965523" lon="26.396915009245276">
        <ele>153.47</ele>
        <time>2011-08-16T14:53:08Z</time>
      </trkpt>
      <trkpt lat="54.852275988087058" lon="26.396878967061639">
        <ele>153.94999999999999</ele>
        <time>2011-08-16T14:53:09Z</time>
      </trkpt>
      <trkpt lat="54.852290991693735" lon="26.396845020353794">
        <ele>153.47</ele>
        <time>2011-08-16T14:53:10Z</time>
      </trkpt>
      <trkpt lat="54.852310018613935" lon="26.396818030625582">
        <ele>153.47</ele>
        <time>2011-08-16T14:53:11Z</time>
      </trkpt>
      <trkpt lat="54.852325022220612" lon="26.39679498039186">
        <ele>152.99000000000001</ele>
        <time>2011-08-16T14:53:12Z</time>
      </trkpt>
      <trkpt lat="54.852337008342147" lon="26.396777965128422">
        <ele>152.99000000000001</ele>
        <time>2011-08-16T14:53:13Z</time>
      </trkpt>
      <trkpt lat="54.85234497115016" lon="26.396757010370493">
        <ele>152.99000000000001</ele>
        <time>2011-08-16T14:53:29Z</time>
      </trkpt>
      <trkpt lat="54.852374978363514" lon="26.396715017035604">
        <ele>153.47</ele>
        <time>2011-08-16T14:53:59Z</time>
      </trkpt>
      <trkpt lat="54.852389981970191" lon="26.396707976236939">
        <ele>152.99000000000001</ele>
        <time>2011-08-16T14:54:00Z</time>
      </trkpt>
      <trkpt lat="54.852405991405249" lon="26.396700013428926">
        <ele>153.47</ele>
        <time>2011-08-16T14:54:01Z</time>
      </trkpt>
      <trkpt lat="54.852420995011926" lon="26.396691966801882">
        <ele>153.94999999999999</ele>
        <time>2011-08-16T14:54:02Z</time>
      </trkpt>
      <trkpt lat="54.852440021932125" lon="26.396690038964152">
        <ele>153.47</ele>
        <time>2011-08-16T14:54:03Z</time>
      </trkpt>
      <trkpt lat="54.852458965033293" lon="26.396685009822249">
        <ele>152.99000000000001</ele>
        <time>2011-08-16T14:54:04Z</time>
      </trkpt>
      <trkpt lat="54.852482015267015" lon="26.396671012043953">
        <ele>152.99000000000001</ele>
        <time>2011-08-16T14:54:05Z</time>
      </trkpt>
      <trkpt lat="54.852500958368182" lon="26.396651985123754">
        <ele>153.47</ele>
        <time>2011-08-16T14:54:06Z</time>
      </trkpt>
      <trkpt lat="54.852528031915426" lon="26.396632958203554">
        <ele>152.99000000000001</ele>
        <time>2011-08-16T14:54:07Z</time>
      </trkpt>
      <trkpt lat="54.85290102660656" lon="26.396014960482717">
        <ele>152.03</ele>
        <time>2011-08-16T14:54:20Z</time>
      </trkpt>
      <trkpt lat="54.853474013507366" lon="26.395169980823994">
        <ele>151.53999999999999</ele>
        <time>2011-08-16T14:54:37Z</time>
      </trkpt>
      <trkpt lat="54.853930994868279" lon="26.394617026671767">
        <ele>151.53999999999999</ele>
        <time>2011-08-16T14:54:52Z</time>
      </trkpt>
      <trkpt lat="54.854263002052903" lon="26.394241014495492">
        <ele>152.03</ele>
        <time>2011-08-16T14:55:04Z</time>
      </trkpt>
      <trkpt lat="54.854710008949041" lon="26.393659980967641">
        <ele>151.06</ele>
        <time>2011-08-16T14:55:19Z</time>
      </trkpt>
      <trkpt lat="54.855000022798777" lon="26.393195958808064">
        <ele>151.53999999999999</ele>
        <time>2011-08-16T14:55:29Z</time>
      </trkpt>
      <trkpt lat="54.855026006698608" lon="26.393130999058485">
        <ele>152.03</ele>
        <time>2011-08-16T14:55:30Z</time>
      </trkpt>
      <trkpt lat="54.855353990569711" lon="26.392069011926651">
        <ele>153.94999999999999</ele>
        <time>2011-08-16T14:55:46Z</time>
      </trkpt>
      <trkpt lat="54.855697983875871" lon="26.391631979495287">
        <ele>155.87</ele>
        <time>2011-08-16T14:56:00Z</time>
      </trkpt>
      <trkpt lat="54.856007024645805" lon="26.391335008665919">
        <ele>157.31</ele>
        <time>2011-08-16T14:56:14Z</time>
      </trkpt>
      <trkpt lat="54.856194024905562" lon="26.391215985640883">
        <ele>157.78999999999999</ele>
        <time>2011-08-16T14:56:26Z</time>
      </trkpt>
      <trkpt lat="54.856194024905562" lon="26.391215985640883">
        <ele>157.78999999999999</ele>
        <time>2011-08-16T14:56:44Z</time>
      </trkpt>
      <trkpt lat="54.856402985751629" lon="26.391070978716016">
        <ele>158.75</ele>
        <time>2011-08-16T14:56:55Z</time>
      </trkpt>
      <trkpt lat="54.856895003467798" lon="26.390888001769781">
        <ele>159.72</ele>
        <time>2011-08-16T14:57:09Z</time>
      </trkpt>
      <trkpt lat="54.857559017837048" lon="26.390681974589825">
        <ele>160.19999999999999</ele>
        <time>2011-08-16T14:57:27Z</time>
      </trkpt>
      <trkpt lat="54.858024967834353" lon="26.39041299931705">
        <ele>159.72</ele>
        <time>2011-08-16T14:57:40Z</time>
      </trkpt>
      <trkpt lat="54.858723012730479" lon="26.390250977128744">
        <ele>158.27000000000001</ele>
        <time>2011-08-16T14:57:55Z</time>
      </trkpt>
      <trkpt lat="54.859363976866007" lon="26.390237985178828">
        <ele>155.87</ele>
        <time>2011-08-16T14:58:06Z</time>
      </trkpt>
      <trkpt lat="54.859538991004229" lon="26.390233961865306">
        <ele>157.78999999999999</ele>
        <time>2011-08-16T14:58:09Z</time>
      </trkpt>
      <trkpt lat="54.860016005113721" lon="26.390202026814222">
        <ele>154.43000000000001</ele>
        <time>2011-08-16T14:58:18Z</time>
      </trkpt>
      <trkpt lat="54.861129960045218" lon="26.390186017379165">
        <ele>153.47</ele>
        <time>2011-08-16T14:58:37Z</time>
      </trkpt>
      <trkpt lat="54.862124975770712" lon="26.390245025977492">
        <ele>152.99000000000001</ele>
        <time>2011-08-16T14:58:54Z</time>
      </trkpt>
      <trkpt lat="54.863152010366321" lon="26.390407970175147">
        <ele>152.50999999999999</ele>
        <time>2011-08-16T14:59:12Z</time>
      </trkpt>
      <trkpt lat="54.863415034487844" lon="26.390461027622223">
        <ele>152.99000000000001</ele>
        <time>2011-08-16T14:59:17Z</time>
      </trkpt>
      <trkpt lat="54.863936975598335" lon="26.390565969049931">
        <ele>152.99000000000001</ele>
        <time>2011-08-16T14:59:30Z</time>
      </trkpt>
      <trkpt lat="54.864723030477762" lon="26.390981962904334">
        <ele>152.50999999999999</ele>
        <time>2011-08-16T14:59:49Z</time>
      </trkpt>
      <trkpt lat="54.865272967144847" lon="26.391554027795792">
        <ele>151.53999999999999</ele>
        <time>2011-08-16T15:00:04Z</time>
      </trkpt>
      <trkpt lat="54.86598601564765" lon="26.39234502799809">
        <ele>151.53999999999999</ele>
        <time>2011-08-16T15:00:22Z</time>
      </trkpt>
      <trkpt lat="54.866351969540119" lon="26.392744006589055">
        <ele>151.06</ele>
        <time>2011-08-16T15:00:31Z</time>
      </trkpt>
      <trkpt lat="54.866485996171832" lon="26.392906028777361">
        <ele>151.06</ele>
        <time>2011-08-16T15:00:35Z</time>
      </trkpt>
      <trkpt lat="54.867313038557768" lon="26.393857961520553">
        <ele>152.03</ele>
        <time>2011-08-16T15:00:55Z</time>
      </trkpt>
      <trkpt lat="54.868148965761065" lon="26.39481701888144">
        <ele>151.53999999999999</ele>
        <time>2011-08-16T15:01:15Z</time>
      </trkpt>
      <trkpt lat="54.868919011205435" lon="26.395721007138491">
        <ele>152.99000000000001</ele>
        <time>2011-08-16T15:01:35Z</time>
      </trkpt>
      <trkpt lat="54.869273984804749" lon="26.396121997386217">
        <ele>154.43000000000001</ele>
        <time>2011-08-16T15:01:45Z</time>
      </trkpt>
      <trkpt lat="54.869942022487521" lon="26.396900005638599">
        <ele>154.91</ele>
        <time>2011-08-16T15:02:04Z</time>
      </trkpt>
      <trkpt lat="54.870140003040433" lon="26.397126987576485">
        <ele>155.38999999999999</ele>
        <time>2011-08-16T15:02:10Z</time>
      </trkpt>
      <trkpt lat="54.870663033798337" lon="26.397771975025535">
        <ele>155.87</ele>
        <time>2011-08-16T15:02:26Z</time>
      </trkpt>
      <trkpt lat="54.87120802514255" lon="26.398402964696288">
        <ele>156.83000000000001</ele>
        <time>2011-08-16T15:02:42Z</time>
      </trkpt>
      <trkpt lat="54.871651008725166" lon="26.398884002119303">
        <ele>158.27000000000001</ele>
        <time>2011-08-16T15:02:55Z</time>
      </trkpt>
      <trkpt lat="54.872077982872725" lon="26.399363027885556">
        <ele>158.75</ele>
        <time>2011-08-16T15:03:07Z</time>
      </trkpt>
      <trkpt lat="54.87260403111577" lon="26.399812968447804">
        <ele>159.72</ele>
        <time>2011-08-16T15:03:23Z</time>
      </trkpt>
      <trkpt lat="54.873104011639953" lon="26.399640971794724">
        <ele>160.68000000000001</ele>
        <time>2011-08-16T15:03:37Z</time>
      </trkpt>
      <trkpt lat="54.873405005782843" lon="26.399046024307609">
        <ele>161.63999999999999</ele>
        <time>2011-08-16T15:03:50Z</time>
      </trkpt>
      <trkpt lat="54.873759979382157" lon="26.398129966109991">
        <ele>160.68000000000001</ele>
        <time>2011-08-16T15:04:06Z</time>
      </trkpt>
      <trkpt lat="54.874091986566782" lon="26.397280041128397">
        <ele>160.19999999999999</ele>
        <time>2011-08-16T15:04:21Z</time>
      </trkpt>
      <trkpt lat="54.874599007889628" lon="26.396014960482717">
        <ele>160.68000000000001</ele>
        <time>2011-08-16T15:04:41Z</time>
      </trkpt>
      <trkpt lat="54.87496898509562" lon="26.395090017467737">
        <ele>159.72</ele>
        <time>2011-08-16T15:04:57Z</time>
      </trkpt>
      <trkpt lat="54.87531297840178" lon="26.394233973696828">
        <ele>160.68000000000001</ele>
        <time>2011-08-16T15:05:12Z</time>
      </trkpt>
      <trkpt lat="54.875617995858192" lon="26.393467029556632">
        <ele>161.16</ele>
        <time>2011-08-16T15:05:25Z</time>
      </trkpt>
      <trkpt lat="54.875987973064184" lon="26.392691032961011">
        <ele>161.63999999999999</ele>
        <time>2011-08-16T15:05:40Z</time>
      </trkpt>
      <trkpt lat="54.876026026904583" lon="26.39264702796936">
        <ele>162.12</ele>
        <time>2011-08-16T15:05:41Z</time>
      </trkpt>
      <trkpt lat="54.876171033829451" lon="26.392491962760687">
        <ele>162.59999999999999</ele>
        <time>2011-08-16T15:05:45Z</time>
      </trkpt>
      <trkpt lat="54.876717031002045" lon="26.392168002203107">
        <ele>163.56</ele>
        <time>2011-08-16T15:06:00Z</time>
      </trkpt>
      <trkpt lat="54.877223968505859" lon="26.391932973638177">
        <ele>165.96000000000001</ele>
        <time>2011-08-16T15:06:15Z</time>
      </trkpt>
      <trkpt lat="54.877768959850073" lon="26.391658969223499">
        <ele>167.88999999999999</ele>
        <time>2011-08-16T15:06:31Z</time>
      </trkpt>
      <trkpt lat="54.878300037235022" lon="26.391374990344048">
        <ele>168.84999999999999</ele>
        <time>2011-08-16T15:06:47Z</time>
      </trkpt>
      <trkpt lat="54.878380000591278" lon="26.391328973695636">
        <ele>170.77000000000001</ele>
        <time>2011-08-16T15:06:50Z</time>
      </trkpt>
      <trkpt lat="54.878459963947535" lon="26.391279017552733">
        <ele>168.84999999999999</ele>
        <time>2011-08-16T15:06:53Z</time>
      </trkpt>
      <trkpt lat="54.879020964726806" lon="26.390954973176122">
        <ele>170.28999999999999</ele>
        <time>2011-08-16T15:07:10Z</time>
      </trkpt>
      <trkpt lat="54.879761002957821" lon="26.390604022890329">
        <ele>171.25</ele>
        <time>2011-08-16T15:07:29Z</time>
      </trkpt>
      <trkpt lat="54.880458964034915" lon="26.390206972137094">
        <ele>172.69</ele>
        <time>2011-08-16T15:07:48Z</time>
      </trkpt>
      <trkpt lat="54.881095988675952" lon="26.389893991872668">
        <ele>173.66</ele>
        <time>2011-08-16T15:08:06Z</time>
      </trkpt>
      <trkpt lat="54.881748016923666" lon="26.389533989131451">
        <ele>173.66</ele>
        <time>2011-08-16T15:08:24Z</time>
      </trkpt>
      <trkpt lat="54.882319997996092" lon="26.389225032180548">
        <ele>172.21000000000001</ele>
        <time>2011-08-16T15:08:38Z</time>
      </trkpt>
      <trkpt lat="54.883102029561996" lon="26.388680040836334">
        <ele>169.33000000000001</ele>
        <time>2011-08-16T15:08:54Z</time>
      </trkpt>
      <trkpt lat="54.883549036458135" lon="26.388528998941183">
        <ele>168.84999999999999</ele>
        <time>2011-08-16T15:09:02Z</time>
      </trkpt>
      <trkpt lat="54.884384041652083" lon="26.38854400254786">
        <ele>167.88999999999999</ele>
        <time>2011-08-16T15:09:19Z</time>
      </trkpt>
      <trkpt lat="54.884772961959243" lon="26.388565041124821">
        <ele>167.41</ele>
        <time>2011-08-16T15:09:27Z</time>
      </trkpt>
      <trkpt lat="54.885548036545515" lon="26.388575015589595">
        <ele>169.81</ele>
        <time>2011-08-16T15:09:43Z</time>
      </trkpt>
      <trkpt lat="54.88600904121995" lon="26.388645004481077">
        <ele>169.81</ele>
        <time>2011-08-16T15:09:56Z</time>
      </trkpt>
      <trkpt lat="54.886413970962167" lon="26.388737037777901">
        <ele>171.72999999999999</ele>
        <time>2011-08-16T15:10:09Z</time>
      </trkpt>
      <trkpt lat="54.886943958699703" lon="26.388718010857701">
        <ele>173.16999999999999</ele>
        <time>2011-08-16T15:10:22Z</time>
      </trkpt>
      <trkpt lat="54.887375039979815" lon="26.388711975887418">
        <ele>173.16999999999999</ele>
        <time>2011-08-16T15:10:34Z</time>
      </trkpt>
      <trkpt lat="54.887863034382463" lon="26.388733014464378">
        <ele>174.13999999999999</ele>
        <time>2011-08-16T15:10:48Z</time>
      </trkpt>
      <trkpt lat="54.888152964413166" lon="26.388733014464378">
        <ele>174.13999999999999</ele>
        <time>2011-08-16T15:10:55Z</time>
      </trkpt>
      <trkpt lat="54.888634001836181" lon="26.388724967837334">
        <ele>174.62</ele>
        <time>2011-08-16T15:11:07Z</time>
      </trkpt>
      <trkpt lat="54.889232972636819" lon="26.388731002807617">
        <ele>175.09999999999999</ele>
        <time>2011-08-16T15:11:22Z</time>
      </trkpt>
      <trkpt lat="54.889690037816763" lon="26.388782970607281">
        <ele>175.09999999999999</ele>
        <time>2011-08-16T15:11:34Z</time>
      </trkpt>
      <trkpt lat="54.890326978638768" lon="26.388760004192591">
        <ele>175.09999999999999</ele>
        <time>2011-08-16T15:11:49Z</time>
      </trkpt>
      <trkpt lat="54.890869036316872" lon="26.38877903111279">
        <ele>175.58000000000001</ele>
        <time>2011-08-16T15:12:02Z</time>
      </trkpt>
      <trkpt lat="54.891415033489466" lon="26.388720022514462">
        <ele>175.09999999999999</ele>
        <time>2011-08-16T15:12:16Z</time>
      </trkpt>
      <trkpt lat="54.89192197099328" lon="26.388772996142507">
        <ele>175.58000000000001</ele>
        <time>2011-08-16T15:12:31Z</time>
      </trkpt>
      <trkpt lat="54.892497975379229" lon="26.388550037518144">
        <ele>175.09999999999999</ele>
        <time>2011-08-16T15:12:45Z</time>
      </trkpt>
      <trkpt lat="54.89267298951745" lon="26.388493040576577">
        <ele>176.06</ele>
        <time>2011-08-16T15:12:49Z</time>
      </trkpt>
      <trkpt lat="54.892967026680708" lon="26.38835096731782">
        <ele>175.09999999999999</ele>
        <time>2011-08-16T15:12:57Z</time>
      </trkpt>
      <trkpt lat="54.893612014129758" lon="26.388133959844708">
        <ele>175.09999999999999</ele>
        <time>2011-08-16T15:13:13Z</time>
      </trkpt>
      <trkpt lat="54.894005041569471" lon="26.38798501342535">
        <ele>175.58000000000001</ele>
        <time>2011-08-16T15:13:23Z</time>
      </trkpt>
      <trkpt lat="54.894195981323719" lon="26.387884011492133">
        <ele>177.02000000000001</ele>
        <time>2011-08-16T15:13:28Z</time>
      </trkpt>
      <trkpt lat="54.894722029566765" lon="26.387664992362261">
        <ele>177.5</ele>
        <time>2011-08-16T15:13:42Z</time>
      </trkpt>
      <trkpt lat="54.895367017015815" lon="26.387443961575627">
        <ele>178.46000000000001</ele>
        <time>2011-08-16T15:13:59Z</time>
      </trkpt>
      <trkpt lat="54.895850988104939" lon="26.38729996047914">
        <ele>178.46000000000001</ele>
        <time>2011-08-16T15:14:13Z</time>
      </trkpt>
      <trkpt lat="54.896525982767344" lon="26.387163000181317">
        <ele>177.02000000000001</ele>
        <time>2011-08-16T15:14:29Z</time>
      </trkpt>
      <trkpt lat="54.897101987153292" lon="26.387044982984662">
        <ele>173.66</ele>
        <time>2011-08-16T15:14:38Z</time>
      </trkpt>
      <trkpt lat="54.897480010986328" lon="26.386965019628406">
        <ele>171.72999999999999</ele>
        <time>2011-08-16T15:14:43Z</time>
      </trkpt>
      <trkpt lat="54.898529006168246" lon="26.386765027418733">
        <ele>170.77000000000001</ele>
        <time>2011-08-16T15:14:57Z</time>
      </trkpt>
      <trkpt lat="54.899024963378906" lon="26.386657990515232">
        <ele>172.21000000000001</ele>
        <time>2011-08-16T15:15:08Z</time>
      </trkpt>
      <trkpt lat="54.899380020797253" lon="26.386578027158976">
        <ele>175.09999999999999</ele>
        <time>2011-08-16T15:15:17Z</time>
      </trkpt>
      <trkpt lat="54.899796014651656" lon="26.38648197054863">
        <ele>176.53999999999999</ele>
        <time>2011-08-16T15:15:30Z</time>
      </trkpt>
      <trkpt lat="54.90019197575748" lon="26.38639303855598">
        <ele>177.97999999999999</ele>
        <time>2011-08-16T15:15:43Z</time>
      </trkpt>
      <trkpt lat="54.900252996012568" lon="26.386394966393709">
        <ele>177.5</ele>
        <time>2011-08-16T15:15:54Z</time>
      </trkpt>
      <trkpt lat="54.900252996012568" lon="26.386394966393709">
        <ele>177.5</ele>
        <time>2011-08-16T15:16:23Z</time>
      </trkpt>
      <trkpt lat="54.900257019326091" lon="26.386394966393709">
        <ele>177.97999999999999</ele>
        <time>2011-08-16T15:16:45Z</time>
      </trkpt>
      <trkpt lat="54.900264982134104" lon="26.386387003585696">
        <ele>177.5</ele>
        <time>2011-08-16T15:16:49Z</time>
      </trkpt>
      <trkpt lat="54.900275962427258" lon="26.386379040777683">
        <ele>177.5</ele>
        <time>2011-08-16T15:16:50Z</time>
      </trkpt>
      <trkpt lat="54.900424992665648" lon="26.386321960017085">
        <ele>178.46000000000001</ele>
        <time>2011-08-16T15:16:55Z</time>
      </trkpt>
      <trkpt lat="54.901237031444907" lon="26.386096989735961">
        <ele>178.94</ele>
        <time>2011-08-16T15:17:10Z</time>
      </trkpt>
      <trkpt lat="54.901913031935692" lon="26.385968998074532">
        <ele>178.46000000000001</ele>
        <time>2011-08-16T15:17:23Z</time>
      </trkpt>
      <trkpt lat="54.902019985020161" lon="26.38592298142612">
        <ele>178.94</ele>
        <time>2011-08-16T15:17:25Z</time>
      </trkpt>
      <trkpt lat="54.902805034071207" lon="26.385784009471536">
        <ele>179.41999999999999</ele>
        <time>2011-08-16T15:17:41Z</time>
      </trkpt>
      <trkpt lat="54.903511041775346" lon="26.386064970865846">
        <ele>179.90000000000001</ele>
        <time>2011-08-16T15:17:57Z</time>
      </trkpt>
      <trkpt lat="54.904220988973975" lon="26.38684700243175">
        <ele>180.87</ele>
        <time>2011-08-16T15:18:15Z</time>
      </trkpt>
      <trkpt lat="54.904747037217021" lon="26.387515962123871">
        <ele>181.83000000000001</ele>
        <time>2011-08-16T15:18:30Z</time>
      </trkpt>
      <trkpt lat="54.905269984155893" lon="26.38815701007843">
        <ele>182.78999999999999</ele>
        <time>2011-08-16T15:18:44Z</time>
      </trkpt>
      <trkpt lat="54.905823022127151" lon="26.388849020004272">
        <ele>181.83000000000001</ele>
        <time>2011-08-16T15:18:58Z</time>
      </trkpt>
      <trkpt lat="54.906628020107746" lon="26.389819979667664">
        <ele>180.38</ele>
        <time>2011-08-16T15:19:16Z</time>
      </trkpt>
      <trkpt lat="54.907219028100371" lon="26.390553982928395">
        <ele>182.31</ele>
        <time>2011-08-16T15:19:33Z</time>
      </trkpt>
      <trkpt lat="54.90762303583324" lon="26.391099980100989">
        <ele>184.71000000000001</ele>
        <time>2011-08-16T15:19:46Z</time>
      </trkpt>
      <trkpt lat="54.908184036612511" lon="26.391794001683593">
        <ele>186.63</ele>
        <time>2011-08-16T15:20:04Z</time>
      </trkpt>
      <trkpt lat="54.908684017136693" lon="26.392404958605766">
        <ele>188.08000000000001</ele>
        <time>2011-08-16T15:20:21Z</time>
      </trkpt>
      <trkpt lat="54.90919497795403" lon="26.393017005175352">
        <ele>189.03999999999999</ele>
        <time>2011-08-16T15:20:39Z</time>
      </trkpt>
      <trkpt lat="54.909800989553332" lon="26.393771963194013">
        <ele>190</ele>
        <time>2011-08-16T15:20:58Z</time>
      </trkpt>
      <trkpt lat="54.910408006981015" lon="26.394531028345227">
        <ele>189.03999999999999</ele>
        <time>2011-08-16T15:21:15Z</time>
      </trkpt>
      <trkpt lat="54.911057017743587" lon="26.395350024104118">
        <ele>190</ele>
        <time>2011-08-16T15:21:33Z</time>
      </trkpt>
      <trkpt lat="54.911738969385624" lon="26.395986964926124">
        <ele>190.47999999999999</ele>
        <time>2011-08-16T15:21:50Z</time>
      </trkpt>
      <trkpt lat="54.912505997344851" lon="26.396188968792558">
        <ele>191.91999999999999</ele>
        <time>2011-08-16T15:22:07Z</time>
      </trkpt>
      <trkpt lat="54.912998015061021" lon="26.396104982122779">
        <ele>192.40000000000001</ele>
        <time>2011-08-16T15:22:21Z</time>
      </trkpt>
      <trkpt lat="54.913589023053646" lon="26.395996017381549">
        <ele>193.84</ele>
        <time>2011-08-16T15:22:37Z</time>
      </trkpt>
      <trkpt lat="54.914322020485997" lon="26.395818991586566">
        <ele>193.36000000000001</ele>
        <time>2011-08-16T15:22:54Z</time>
      </trkpt>
      <trkpt lat="54.915206981822848" lon="26.395600978285074">
        <ele>190.96000000000001</ele>
        <time>2011-08-16T15:23:11Z</time>
      </trkpt>
      <trkpt lat="54.915619036182761" lon="26.395508022978902">
        <ele>188.56</ele>
        <time>2011-08-16T15:23:17Z</time>
      </trkpt>
      <trkpt lat="54.916156986728311" lon="26.395390005782247">
        <ele>185.19</ele>
        <time>2011-08-16T15:23:24Z</time>
      </trkpt>
      <trkpt lat="54.916743971407413" lon="26.395260002464056">
        <ele>182.78999999999999</ele>
        <time>2011-08-16T15:23:31Z</time>
      </trkpt>
      <trkpt lat="54.917900003492832" lon="26.395009970292449">
        <ele>180.38</ele>
        <time>2011-08-16T15:23:46Z</time>
      </trkpt>
      <trkpt lat="54.918663008138537" lon="26.394835039973259">
        <ele>182.78999999999999</ele>
        <time>2011-08-16T15:23:59Z</time>
      </trkpt>
      <trkpt lat="54.919188972562551" lon="26.39473001472652">
        <ele>184.22999999999999</ele>
        <time>2011-08-16T15:24:11Z</time>
      </trkpt>
      <trkpt lat="54.91974301636219" lon="26.394615015015006">
        <ele>186.63</ele>
        <time>2011-08-16T15:24:25Z</time>
      </trkpt>
      <trkpt lat="54.920283984392881" lon="26.394477970898151">
        <ele>188.08000000000001</ele>
        <time>2011-08-16T15:24:39Z</time>
      </trkpt>
      <trkpt lat="54.920879015699029" lon="26.394349979236722">
        <ele>189.03999999999999</ele>
        <time>2011-08-16T15:24:55Z</time>
      </trkpt>
      <trkpt lat="54.921539006754756" lon="26.394167002290487">
        <ele>190</ele>
        <time>2011-08-16T15:25:12Z</time>
      </trkpt>
      <trkpt lat="54.922344004735351" lon="26.393964998424053">
        <ele>191.44</ele>
        <time>2011-08-16T15:25:33Z</time>
      </trkpt>
      <trkpt lat="54.922966025769711" lon="26.393826026469469">
        <ele>192.40000000000001</ele>
        <time>2011-08-16T15:25:50Z</time>
      </trkpt>
      <trkpt lat="54.923476986587048" lon="26.393729969859123">
        <ele>193.36000000000001</ele>
        <time>2011-08-16T15:26:07Z</time>
      </trkpt>
      <trkpt lat="54.924015020951629" lon="26.393608013167977">
        <ele>193.36000000000001</ele>
        <time>2011-08-16T15:26:23Z</time>
      </trkpt>
      <trkpt lat="54.924545008689165" lon="26.393452025949955">
        <ele>193.84</ele>
        <time>2011-08-16T15:26:37Z</time>
      </trkpt>
      <trkpt lat="54.925155965611339" lon="26.392979035153985">
        <ele>192.88</ele>
        <time>2011-08-16T15:26:53Z</time>
      </trkpt>
      <trkpt lat="54.925541030243039" lon="26.392495986074209">
        <ele>192.40000000000001</ele>
        <time>2011-08-16T15:27:03Z</time>
      </trkpt>
      <trkpt lat="54.926170008257031" lon="26.39157498255372">
        <ele>189.52000000000001</ele>
        <time>2011-08-16T15:27:18Z</time>
      </trkpt>
      <trkpt lat="54.926620032638311" lon="26.390927983447909">
        <ele>188.56</ele>
        <time>2011-08-16T15:27:28Z</time>
      </trkpt>
      <trkpt lat="54.926852965727448" lon="26.390609974041581">
        <ele>186.63</ele>
        <time>2011-08-16T15:27:33Z</time>
      </trkpt>
      <trkpt lat="54.926952039822936" lon="26.39049899764359">
        <ele>186.63</ele>
        <time>2011-08-16T15:27:35Z</time>
      </trkpt>
      <trkpt lat="54.927425030618906" lon="26.389892986044288">
        <ele>185.19</ele>
        <time>2011-08-16T15:27:44Z</time>
      </trkpt>
      <trkpt lat="54.928092984482646" lon="26.388896964490414">
        <ele>183.27000000000001</ele>
        <time>2011-08-16T15:27:58Z</time>
      </trkpt>
      <trkpt lat="54.928893959149718" lon="26.387815028429031">
        <ele>182.78999999999999</ele>
        <time>2011-08-16T15:28:17Z</time>
      </trkpt>
      <trkpt lat="54.929554034024477" lon="26.386884972453117">
        <ele>182.78999999999999</ele>
        <time>2011-08-16T15:28:34Z</time>
      </trkpt>
      <trkpt lat="54.93003498762846" lon="26.386184999719262">
        <ele>182.78999999999999</ele>
        <time>2011-08-16T15:28:48Z</time>
      </trkpt>
      <trkpt lat="54.930663965642452" lon="26.385314958170056">
        <ele>182.78999999999999</ele>
        <time>2011-08-16T15:29:05Z</time>
      </trkpt>
      <trkpt lat="54.931369973346591" lon="26.384308040142059">
        <ele>182.31</ele>
        <time>2011-08-16T15:29:23Z</time>
      </trkpt>
      <trkpt lat="54.931933991611004" lon="26.383511004969478">
        <ele>180.87</ele>
        <time>2011-08-16T15:29:37Z</time>
      </trkpt>
      <trkpt lat="54.93263597600162" lon="26.382543984800577">
        <ele>177.02000000000001</ele>
        <time>2011-08-16T15:29:53Z</time>
      </trkpt>
      <trkpt lat="54.932868992909789" lon="26.382194962352514">
        <ele>176.53999999999999</ele>
        <time>2011-08-16T15:29:58Z</time>
      </trkpt>
      <trkpt lat="54.933563014492393" lon="26.381236994639039">
        <ele>176.06</ele>
        <time>2011-08-16T15:30:14Z</time>
      </trkpt>
      <trkpt lat="54.933826038613915" lon="26.380867017433047">
        <ele>176.53999999999999</ele>
        <time>2011-08-16T15:30:21Z</time>
      </trkpt>
      <trkpt lat="54.934513019397855" lon="26.379930004477501">
        <ele>177.02000000000001</ele>
        <time>2011-08-16T15:30:41Z</time>
      </trkpt>
      <trkpt lat="54.935164963826537" lon="26.379016963765025">
        <ele>177.5</ele>
        <time>2011-08-16T15:31:00Z</time>
      </trkpt>
      <trkpt lat="54.935768041759729" lon="26.378171984106302">
        <ele>176.53999999999999</ele>
        <time>2011-08-16T15:31:16Z</time>
      </trkpt>
      <trkpt lat="54.935905002057552" lon="26.377957994118333">
        <ele>175.09999999999999</ele>
        <time>2011-08-16T15:31:20Z</time>
      </trkpt>
      <trkpt lat="54.936481006443501" lon="26.377149978652596">
        <ele>176.06</ele>
        <time>2011-08-16T15:31:36Z</time>
      </trkpt>
      <trkpt lat="54.936549989506602" lon="26.377051994204521">
        <ele>175.09999999999999</ele>
        <time>2011-08-16T15:31:38Z</time>
      </trkpt>
      <trkpt lat="54.93712599389255" lon="26.376269962638617">
        <ele>175.58000000000001</ele>
        <time>2011-08-16T15:31:54Z</time>
      </trkpt>
      <trkpt lat="54.937737034633756" lon="26.375436969101429">
        <ele>176.06</ele>
        <time>2011-08-16T15:32:11Z</time>
      </trkpt>
      <trkpt lat="54.938041968271136" lon="26.375017035752535">
        <ele>177.5</ele>
        <time>2011-08-16T15:32:21Z</time>
      </trkpt>
      <trkpt lat="54.938572039827704" lon="26.374279009178281">
        <ele>178.46000000000001</ele>
        <time>2011-08-16T15:32:40Z</time>
      </trkpt>
      <trkpt lat="54.939026003703475" lon="26.37363201007247">
        <ele>179.41999999999999</ele>
        <time>2011-08-16T15:32:59Z</time>
      </trkpt>
      <trkpt lat="54.939410984516144" lon="26.373097999021411">
        <ele>180.38</ele>
        <time>2011-08-16T15:33:16Z</time>
      </trkpt>
      <trkpt lat="54.939727988094091" lon="26.372669013217092">
        <ele>179.90000000000001</ele>
        <time>2011-08-16T15:33:33Z</time>
      </trkpt>
      <trkpt lat="54.939872995018959" lon="26.372438007965684">
        <ele>173.66</ele>
        <time>2011-08-16T15:33:42Z</time>
      </trkpt>
      <trkpt lat="54.939895961433649" lon="26.372410012409091">
        <ele>176.06</ele>
        <time>2011-08-16T15:33:43Z</time>
      </trkpt>
      <trkpt lat="54.939919011667371" lon="26.372381011024117">
        <ele>184.22999999999999</ele>
        <time>2011-08-16T15:33:44Z</time>
      </trkpt>
      <trkpt lat="54.93993803858757" lon="26.372353015467525">
        <ele>180.38</ele>
        <time>2011-08-16T15:33:45Z</time>
      </trkpt>
      <trkpt lat="54.940040968358517" lon="26.372201973572373">
        <ele>177.02000000000001</ele>
        <time>2011-08-16T15:33:50Z</time>
      </trkpt>
      <trkpt lat="54.940063012763858" lon="26.372166015207767">
        <ele>184.22999999999999</ele>
        <time>2011-08-16T15:33:51Z</time>
      </trkpt>
      <trkpt lat="54.940085979178548" lon="26.372128967195749">
        <ele>179.90000000000001</ele>
        <time>2011-08-16T15:33:52Z</time>
      </trkpt>
      <trkpt lat="54.940139958634973" lon="26.372068030759692">
        <ele>178.94</ele>
        <time>2011-08-16T15:33:54Z</time>
      </trkpt>
      <trkpt lat="54.940703976899385" lon="26.371299996972084">
        <ele>177.02000000000001</ele>
        <time>2011-08-16T15:34:11Z</time>
      </trkpt>
      <trkpt lat="54.941231030970812" lon="26.370580997318029">
        <ele>173.66</ele>
        <time>2011-08-16T15:34:24Z</time>
      </trkpt>
      <trkpt lat="54.942093025892973" lon="26.36935799382627">
        <ele>171.25</ele>
        <time>2011-08-16T15:34:44Z</time>
      </trkpt>
      <trkpt lat="54.942696020007133" lon="26.368491975590587">
        <ele>171.25</ele>
        <time>2011-08-16T15:35:02Z</time>
      </trkpt>
      <trkpt lat="54.943214021623135" lon="26.367772975936532">
        <ele>172.21000000000001</ele>
        <time>2011-08-16T15:35:21Z</time>
      </trkpt>
      <trkpt lat="54.943881975486875" lon="26.366855995729566">
        <ele>170.77000000000001</ele>
        <time>2011-08-16T15:35:43Z</time>
      </trkpt>
      <trkpt lat="54.944496033713222" lon="26.365999029949307">
        <ele>169.81</ele>
        <time>2011-08-16T15:36:02Z</time>
      </trkpt>
      <trkpt lat="54.944897023960948" lon="26.365494020283222">
        <ele>167.41</ele>
        <time>2011-08-16T15:36:17Z</time>
      </trkpt>
      <trkpt lat="54.944919990375638" lon="26.365474993363023">
        <ele>167.88999999999999</ele>
        <time>2011-08-16T15:36:19Z</time>
      </trkpt>
      <trkpt lat="54.944930970668793" lon="26.365460995584726">
        <ele>167.41</ele>
        <time>2011-08-16T15:36:20Z</time>
      </trkpt>
      <trkpt lat="54.94494597427547" lon="26.365452026948333">
        <ele>167.41</ele>
        <time>2011-08-16T15:36:33Z</time>
      </trkpt>
      <trkpt lat="54.94494597427547" lon="26.365452026948333">
        <ele>166.93000000000001</ele>
        <time>2011-08-16T15:36:34Z</time>
      </trkpt>
      <trkpt lat="54.944961983710527" lon="26.365588987246156">
        <ele>166.93000000000001</ele>
        <time>2011-08-16T15:36:45Z</time>
      </trkpt>
      <trkpt lat="54.944969024509192" lon="26.365650007501245">
        <ele>166.44999999999999</ele>
        <time>2011-08-16T15:36:48Z</time>
      </trkpt>
      <trkpt lat="54.944972964003682" lon="26.365672973915935">
        <ele>166.93000000000001</ele>
        <time>2011-08-16T15:36:49Z</time>
      </trkpt>
      <trkpt lat="54.944981010630727" lon="26.365699963644147">
        <ele>166.93000000000001</ele>
        <time>2011-08-16T15:36:50Z</time>
      </trkpt>
      <trkpt lat="54.945060973986983" lon="26.365927029401064">
        <ele>166.93000000000001</ele>
        <time>2011-08-16T15:37:06Z</time>
      </trkpt>
      <trkpt lat="54.945087041705847" lon="26.366019984707236">
        <ele>167.41</ele>
        <time>2011-08-16T15:37:22Z</time>
      </trkpt>
      <trkpt lat="54.945121994242072" lon="26.366145964711905">
        <ele>167.88999999999999</ele>
        <time>2011-08-16T15:37:31Z</time>
      </trkpt>
      <trkpt lat="54.945213021710515" lon="26.366450982168317">
        <ele>167.41</ele>
        <time>2011-08-16T15:37:49Z</time>
      </trkpt>
      <trkpt lat="54.945312011986971" lon="26.366725992411375">
        <ele>167.88999999999999</ele>
        <time>2011-08-16T15:38:05Z</time>
      </trkpt>
      <trkpt lat="54.945431035012007" lon="26.367028998211026">
        <ele>168.37</ele>
        <time>2011-08-16T15:38:22Z</time>
      </trkpt>
      <trkpt lat="54.945575958117843" lon="26.367459995672107">
        <ele>168.37</ele>
        <time>2011-08-16T15:38:44Z</time>
      </trkpt>
      <trkpt lat="54.945728005841374" lon="26.367924017831683">
        <ele>169.33000000000001</ele>
        <time>2011-08-16T15:39:07Z</time>
      </trkpt>
      <trkpt lat="54.945750972256064" lon="26.368008004501462">
        <ele>169.33000000000001</ele>
        <time>2011-08-16T15:39:11Z</time>
      </trkpt>
      <trkpt lat="54.945750972256064" lon="26.368065001443028">
        <ele>169.33000000000001</ele>
        <time>2011-08-16T15:39:14Z</time>
      </trkpt>
      <trkpt lat="54.945732029154897" lon="26.368106994777918">
        <ele>169.81</ele>
        <time>2011-08-16T15:39:27Z</time>
      </trkpt>
      <trkpt lat="54.945732029154897" lon="26.368062989786267">
        <ele>170.28999999999999</ele>
        <time>2011-08-16T15:39:54Z</time>
      </trkpt>
      <trkpt lat="54.945723982527852" lon="26.368045974522829">
        <ele>169.81</ele>
        <time>2011-08-16T15:39:55Z</time>
      </trkpt>
      <trkpt lat="54.945705039426684" lon="26.367988977581263">
        <ele>169.81</ele>
        <time>2011-08-16T15:40:08Z</time>
      </trkpt>
      <trkpt lat="54.945705039426684" lon="26.367988977581263">
        <ele>169.81</ele>
        <time>2011-08-16T15:40:40Z</time>
      </trkpt>
      <trkpt lat="54.945705039426684" lon="26.367988977581263">
        <ele>169.81</ele>
        <time>2011-08-16T15:41:18Z</time>
      </trkpt>
      <trkpt lat="54.945705039426684" lon="26.367986965924501">
        <ele>169.81</ele>
        <time>2011-08-16T15:41:56Z</time>
      </trkpt>
      <trkpt lat="54.945705039426684" lon="26.367985038086772">
        <ele>169.33000000000001</ele>
        <time>2011-08-16T15:42:40Z</time>
      </trkpt>
      <trkpt lat="54.945705039426684" lon="26.367991995066404">
        <ele>169.81</ele>
        <time>2011-08-16T15:43:22Z</time>
      </trkpt>
      <trkpt lat="54.945705039426684" lon="26.367991995066404">
        <ele>169.33000000000001</ele>
        <time>2011-08-16T15:43:58Z</time>
      </trkpt>
      <trkpt lat="54.945708978921175" lon="26.367994006723166">
        <ele>169.33000000000001</ele>
        <time>2011-08-16T15:44:42Z</time>
      </trkpt>
      <trkpt lat="54.945713002234697" lon="26.367994006723166">
        <ele>169.33000000000001</ele>
        <time>2011-08-16T15:45:22Z</time>
      </trkpt>
      <trkpt lat="54.945708978921175" lon="26.367989983409643">
        <ele>169.33000000000001</ele>
        <time>2011-08-16T15:46:03Z</time>
      </trkpt>
      <trkpt lat="54.945708978921175" lon="26.367989983409643">
        <ele>169.33000000000001</ele>
        <time>2011-08-16T15:46:39Z</time>
      </trkpt>
      <trkpt lat="54.945708978921175" lon="26.367996018379927">
        <ele>169.81</ele>
        <time>2011-08-16T15:47:14Z</time>
      </trkpt>
      <trkpt lat="54.945705039426684" lon="26.367991995066404">
        <ele>169.33000000000001</ele>
        <time>2011-08-16T15:47:53Z</time>
      </trkpt>
      <trkpt lat="54.945705039426684" lon="26.367991995066404">
        <ele>169.33000000000001</ele>
        <time>2011-08-16T15:48:27Z</time>
      </trkpt>
      <trkpt lat="54.945705039426684" lon="26.367991995066404">
        <ele>169.33000000000001</ele>
        <time>2011-08-16T15:49:02Z</time>
      </trkpt>
      <trkpt lat="54.945708978921175" lon="26.367994006723166">
        <ele>169.33000000000001</ele>
        <time>2011-08-16T15:49:40Z</time>
      </trkpt>
      <trkpt lat="54.945708978921175" lon="26.367994006723166">
        <ele>169.33000000000001</ele>
        <time>2011-08-16T15:50:09Z</time>
      </trkpt>
      <trkpt lat="54.945708978921175" lon="26.367998030036688">
        <ele>169.81</ele>
        <time>2011-08-16T15:50:55Z</time>
      </trkpt>
      <trkpt lat="54.945713002234697" lon="26.36800398118794">
        <ele>169.33000000000001</ele>
        <time>2011-08-16T15:51:29Z</time>
      </trkpt>
      <trkpt lat="54.945713002234697" lon="26.36800398118794">
        <ele>168.84999999999999</ele>
        <time>2011-08-16T15:51:59Z</time>
      </trkpt>
      <trkpt lat="54.945713002234697" lon="26.368001969531178">
        <ele>169.33000000000001</ele>
        <time>2011-08-16T15:52:25Z</time>
      </trkpt>
      <trkpt lat="54.94571702554822" lon="26.367972968146205">
        <ele>169.81</ele>
        <time>2011-08-16T15:52:46Z</time>
      </trkpt>
      <trkpt lat="54.94572096504271" lon="26.367946984246373">
        <ele>168.84999999999999</ele>
        <time>2011-08-16T15:52:47Z</time>
      </trkpt>
      <trkpt lat="54.94572096504271" lon="26.367912031710148">
        <ele>168.84999999999999</ele>
        <time>2011-08-16T15:52:48Z</time>
      </trkpt>
      <trkpt lat="54.94571702554822" lon="26.367873977869749">
        <ele>169.33000000000001</ele>
        <time>2011-08-16T15:52:49Z</time>
      </trkpt>
      <trkpt lat="54.945708978921175" lon="26.367838019505143">
        <ele>169.33000000000001</ele>
        <time>2011-08-16T15:52:50Z</time>
      </trkpt>
      <trkpt lat="54.945702021941543" lon="26.367801977321506">
        <ele>169.33000000000001</ele>
        <time>2011-08-16T15:52:51Z</time>
      </trkpt>
      <trkpt lat="54.945693975314498" lon="26.36776702478528">
        <ele>168.84999999999999</ele>
        <time>2011-08-16T15:52:52Z</time>
      </trkpt>
      <trkpt lat="54.945682995021343" lon="26.367732994258404">
        <ele>168.84999999999999</ele>
        <time>2011-08-16T15:52:53Z</time>
      </trkpt>
      <trkpt lat="54.945671008899808" lon="26.367700975388288">
        <ele>168.84999999999999</ele>
        <time>2011-08-16T15:52:54Z</time>
      </trkpt>
      <trkpt lat="54.945660028606653" lon="26.367668034508824">
        <ele>168.84999999999999</ele>
        <time>2011-08-16T15:52:55Z</time>
      </trkpt>
      <trkpt lat="54.945647958666086" lon="26.367634003981948">
        <ele>168.37</ele>
        <time>2011-08-16T15:52:56Z</time>
      </trkpt>
      <trkpt lat="54.945434974506497" lon="26.36699496768415">
        <ele>168.37</ele>
        <time>2011-08-16T15:53:13Z</time>
      </trkpt>
      <trkpt lat="54.945198018103838" lon="26.366374958306551">
        <ele>167.88999999999999</ele>
        <time>2011-08-16T15:53:28Z</time>
      </trkpt>
      <trkpt lat="54.944954020902514" lon="26.36555696837604">
        <ele>166.93000000000001</ele>
        <time>2011-08-16T15:53:45Z</time>
      </trkpt>
      <trkpt lat="54.944961983710527" lon="26.365399975329638">
        <ele>166.93000000000001</ele>
        <time>2011-08-16T15:53:48Z</time>
      </trkpt>
      <trkpt lat="54.944976987317204" lon="26.365359993651509">
        <ele>167.41</ele>
        <time>2011-08-16T15:53:49Z</time>
      </trkpt>
      <trkpt lat="54.945000037550926" lon="26.365327974781394">
        <ele>166.93000000000001</ele>
        <time>2011-08-16T15:53:50Z</time>
      </trkpt>
      <trkpt lat="54.945518039166927" lon="26.364610986784101">
        <ele>166.44999999999999</ele>
        <time>2011-08-16T15:54:07Z</time>
      </trkpt>
      <trkpt lat="54.94619001634419" lon="26.363688977435231">
        <ele>166.44999999999999</ele>
        <time>2011-08-16T15:54:26Z</time>
      </trkpt>
      <trkpt lat="54.946773983538151" lon="26.362860007211566">
        <ele>166.44999999999999</ele>
        <time>2011-08-16T15:54:43Z</time>
      </trkpt>
      <trkpt lat="54.946902981027961" lon="26.362670995295048">
        <ele>165.96000000000001</ele>
        <time>2011-08-16T15:54:47Z</time>
      </trkpt>
      <trkpt lat="54.947448978200555" lon="26.361907990649343">
        <ele>163.56</ele>
        <time>2011-08-16T15:55:01Z</time>
      </trkpt>
      <trkpt lat="54.947727005928755" lon="26.361588975414634">
        <ele>161.16</ele>
        <time>2011-08-16T15:55:06Z</time>
      </trkpt>
      <trkpt lat="54.948250036686659" lon="26.361135011538863">
        <ele>159.24000000000001</ele>
        <time>2011-08-16T15:55:18Z</time>
      </trkpt>
      <trkpt lat="54.948443993926048" lon="26.361038032919168">
        <ele>159.72</ele>
        <time>2011-08-16T15:55:32Z</time>
      </trkpt>
      <trkpt lat="54.948443993926048" lon="26.361038032919168">
        <ele>160.19999999999999</ele>
        <time>2011-08-16T15:56:01Z</time>
      </trkpt>
      <trkpt lat="54.948448017239571" lon="26.361045995727181">
        <ele>159.72</ele>
        <time>2011-08-16T15:56:38Z</time>
      </trkpt>
      <trkpt lat="54.948482969775796" lon="26.361014982685447">
        <ele>159.72</ele>
        <time>2011-08-16T15:57:00Z</time>
      </trkpt>
      <trkpt lat="54.948771977797151" lon="26.360880034044385">
        <ele>160.68000000000001</ele>
        <time>2011-08-16T15:57:12Z</time>
      </trkpt>
      <trkpt lat="54.949169028550386" lon="26.360678030177951">
        <ele>163.56</ele>
        <time>2011-08-16T15:57:27Z</time>
      </trkpt>
      <trkpt lat="54.949409002438188" lon="26.360518019646406">
        <ele>164.52000000000001</ele>
        <time>2011-08-16T15:57:40Z</time>
      </trkpt>
      <trkpt lat="54.94971502572298" lon="26.360300006344914">
        <ele>165.96000000000001</ele>
        <time>2011-08-16T15:57:55Z</time>
      </trkpt>
      <trkpt lat="54.949851986020803" lon="26.360167991369963">
        <ele>167.41</ele>
        <time>2011-08-16T15:58:05Z</time>
      </trkpt>
      <trkpt lat="54.949866989627481" lon="26.360004041343927">
        <ele>167.41</ele>
        <time>2011-08-16T15:58:10Z</time>
      </trkpt>
      <trkpt lat="54.949679989367723" lon="26.359528033062816">
        <ele>168.84999999999999</ele>
        <time>2011-08-16T15:58:24Z</time>
      </trkpt>
      <trkpt lat="54.949389975517988" lon="26.358899977058172">
        <ele>169.81</ele>
        <time>2011-08-16T15:58:43Z</time>
      </trkpt>
      <trkpt lat="54.949352005496621" lon="26.358802998438478">
        <ele>169.81</ele>
        <time>2011-08-16T15:58:54Z</time>
      </trkpt>
      <trkpt lat="54.949356028810143" lon="26.358798975124955">
        <ele>170.28999999999999</ele>
        <time>2011-08-16T15:59:29Z</time>
      </trkpt>
      <trkpt lat="54.949356028810143" lon="26.358798975124955">
        <ele>165.47999999999999</ele>
        <time>2011-08-16T15:59:30Z</time>
      </trkpt>
      <trkpt lat="54.949356028810143" lon="26.358798975124955">
        <ele>170.77000000000001</ele>
        <time>2011-08-16T15:59:31Z</time>
      </trkpt>
      <trkpt lat="54.949356028810143" lon="26.358798975124955">
        <ele>166.93000000000001</ele>
        <time>2011-08-16T15:59:34Z</time>
      </trkpt>
      <trkpt lat="54.949356028810143" lon="26.358798975124955">
        <ele>170.77000000000001</ele>
        <time>2011-08-16T15:59:35Z</time>
      </trkpt>
      <trkpt lat="54.949242034927011" lon="26.358545003458858">
        <ele>170.28999999999999</ele>
        <time>2011-08-16T15:59:50Z</time>
      </trkpt>
      <trkpt lat="54.948886977508664" lon="26.357727013528347">
        <ele>170.28999999999999</ele>
        <time>2011-08-16T16:00:06Z</time>
      </trkpt>
      <trkpt lat="54.948543990030885" lon="26.356907011941075">
        <ele>170.77000000000001</ele>
        <time>2011-08-16T16:00:21Z</time>
      </trkpt>
      <trkpt lat="54.948292030021548" lon="26.356297982856631">
        <ele>171.25</ele>
        <time>2011-08-16T16:00:35Z</time>
      </trkpt>
      <trkpt lat="54.948044009506702" lon="26.355678979307413">
        <ele>172.69</ele>
        <time>2011-08-16T16:00:50Z</time>
      </trkpt>
      <trkpt lat="54.94776195846498" lon="26.354998033493757">
        <ele>173.66</ele>
        <time>2011-08-16T16:01:06Z</time>
      </trkpt>
      <trkpt lat="54.947357028722763" lon="26.354037970304489">
        <ele>171.72999999999999</ele>
        <time>2011-08-16T16:01:24Z</time>
      </trkpt>
      <trkpt lat="54.947140021249652" lon="26.353443022817373">
        <ele>171.25</ele>
        <time>2011-08-16T16:01:38Z</time>
      </trkpt>
      <trkpt lat="54.946869034320116" lon="26.352845979854465">
        <ele>171.25</ele>
        <time>2011-08-16T16:01:52Z</time>
      </trkpt>
      <trkpt lat="54.946612967178226" lon="26.352192023769021">
        <ele>172.21000000000001</ele>
        <time>2011-08-16T16:02:08Z</time>
      </trkpt>
      <trkpt lat="54.946304010227323" lon="26.351469000801444">
        <ele>173.16999999999999</ele>
        <time>2011-08-16T16:02:25Z</time>
      </trkpt>
      <trkpt lat="54.946025982499123" lon="26.350828036665916">
        <ele>173.16999999999999</ele>
        <time>2011-08-16T16:02:40Z</time>
      </trkpt>
      <trkpt lat="54.945786008611321" lon="26.350204003974795">
        <ele>172.69</ele>
        <time>2011-08-16T16:02:55Z</time>
      </trkpt>
      <trkpt lat="54.945686012506485" lon="26.349969981238246">
        <ele>172.21000000000001</ele>
        <time>2011-08-16T16:03:01Z</time>
      </trkpt>
      <trkpt lat="54.945488031953573" lon="26.349509982392192">
        <ele>173.16999999999999</ele>
        <time>2011-08-16T16:03:12Z</time>
      </trkpt>
      <trkpt lat="54.945297008380294" lon="26.34901000186801">
        <ele>172.69</ele>
        <time>2011-08-16T16:03:27Z</time>
      </trkpt>
      <trkpt lat="54.945168010890484" lon="26.348700961098075">
        <ele>172.69</ele>
        <time>2011-08-16T16:03:38Z</time>
      </trkpt>
      <trkpt lat="54.945011017844081" lon="26.348293013870716">
        <ele>171.25</ele>
        <time>2011-08-16T16:03:45Z</time>
      </trkpt>
      <trkpt lat="54.944508019834757" lon="26.347037991508842">
        <ele>168.84999999999999</ele>
        <time>2011-08-16T16:04:02Z</time>
      </trkpt>
      <trkpt lat="54.944388996809721" lon="26.346789970993996">
        <ele>168.84999999999999</ele>
        <time>2011-08-16T16:04:06Z</time>
      </trkpt>
      <trkpt lat="54.944140976294875" lon="26.346180019900203">
        <ele>169.33000000000001</ele>
        <time>2011-08-16T16:04:17Z</time>
      </trkpt>
      <trkpt lat="54.94385096244514" lon="26.345599992200732">
        <ele>166.93000000000001</ele>
        <time>2011-08-16T16:04:30Z</time>
      </trkpt>
      <trkpt lat="54.943667985498905" lon="26.345166983082891">
        <ele>167.88999999999999</ele>
        <time>2011-08-16T16:04:41Z</time>
      </trkpt>
      <trkpt lat="54.943459024652839" lon="26.344685023650527">
        <ele>167.41</ele>
        <time>2011-08-16T16:04:55Z</time>
      </trkpt>
      <trkpt lat="54.943470004945993" lon="26.344639007002115">
        <ele>167.41</ele>
        <time>2011-08-16T16:04:58Z</time>
      </trkpt>
      <trkpt lat="54.94367997162044" lon="26.344524007290602">
        <ele>167.88999999999999</ele>
        <time>2011-08-16T16:05:09Z</time>
      </trkpt>
      <trkpt lat="54.94397702626884" lon="26.344287972897291">
        <ele>167.41</ele>
        <time>2011-08-16T16:05:21Z</time>
      </trkpt>
      <trkpt lat="54.94414902292192" lon="26.34415403008461">
        <ele>167.88999999999999</ele>
        <time>2011-08-16T16:05:33Z</time>
      </trkpt>
      <trkpt lat="54.944144999608397" lon="26.344157969579101">
        <ele>167.88999999999999</ele>
        <time>2011-08-16T16:05:41Z</time>
      </trkpt>
      <trkpt lat="54.944065036252141" lon="26.344144977629185">
        <ele>167.88999999999999</ele>
        <time>2011-08-16T16:05:52Z</time>
      </trkpt>
      <trkpt lat="54.944046009331942" lon="26.344137014821172">
        <ele>167.88999999999999</ele>
        <time>2011-08-16T16:06:07Z</time>
      </trkpt>
      <trkpt lat="54.944046009331942" lon="26.344142965972424">
        <ele>168.37</ele>
        <time>2011-08-16T16:06:37Z</time>
      </trkpt>
      <trkpt lat="54.944046009331942" lon="26.344142965972424">
        <ele>168.37</ele>
        <time>2011-08-16T16:07:10Z</time>
      </trkpt>
      <trkpt lat="54.944037962704897" lon="26.344149000942707">
        <ele>168.37</ele>
        <time>2011-08-16T16:07:39Z</time>
      </trkpt>
      <trkpt lat="54.944037962704897" lon="26.344151012599468">
        <ele>168.37</ele>
        <time>2011-08-16T16:08:06Z</time>
      </trkpt>
      <trkpt lat="54.944037962704897" lon="26.34415403008461">
        <ele>168.84999999999999</ele>
        <time>2011-08-16T16:08:35Z</time>
      </trkpt>
      <trkpt lat="54.944037962704897" lon="26.344156041741371">
        <ele>169.33000000000001</ele>
        <time>2011-08-16T16:08:55Z</time>
      </trkpt>
      <trkpt lat="54.944035029038787" lon="26.344156041741371">
        <ele>169.33000000000001</ele>
        <time>2011-08-16T16:09:27Z</time>
      </trkpt>
      <trkpt lat="54.944035029038787" lon="26.344156041741371">
        <ele>169.33000000000001</ele>
        <time>2011-08-16T16:09:57Z</time>
      </trkpt>
      <trkpt lat="54.944035029038787" lon="26.344157969579101">
        <ele>169.33000000000001</ele>
        <time>2011-08-16T16:10:28Z</time>
      </trkpt>
      <trkpt lat="54.944026982411742" lon="26.344166016206145">
        <ele>169.33000000000001</ele>
        <time>2011-08-16T16:11:02Z</time>
      </trkpt>
      <trkpt lat="54.944031005725265" lon="26.344170039519668">
        <ele>168.84999999999999</ele>
        <time>2011-08-16T16:11:23Z</time>
      </trkpt>
      <trkpt lat="54.944031005725265" lon="26.344170039519668">
        <ele>169.81</ele>
        <time>2011-08-16T16:11:56Z</time>
      </trkpt>
      <trkpt lat="54.944031005725265" lon="26.344174984842539">
        <ele>169.33000000000001</ele>
        <time>2011-08-16T16:12:32Z</time>
      </trkpt>
      <trkpt lat="54.944053972139955" lon="26.344183031469584">
        <ele>169.33000000000001</ele>
        <time>2011-08-16T16:13:07Z</time>
      </trkpt>
      <trkpt lat="54.944061012938619" lon="26.344184959307313">
        <ele>169.33000000000001</ele>
        <time>2011-08-16T16:13:44Z</time>
      </trkpt>
      <trkpt lat="54.944056989625096" lon="26.344190994277596">
        <ele>169.81</ele>
        <time>2011-08-16T16:14:19Z</time>
      </trkpt>
      <trkpt lat="54.944056989625096" lon="26.344198035076261">
        <ele>169.33000000000001</ele>
        <time>2011-08-16T16:14:51Z</time>
      </trkpt>
      <trkpt lat="54.944056989625096" lon="26.344196023419499">
        <ele>170.28999999999999</ele>
        <time>2011-08-16T16:15:24Z</time>
      </trkpt>
      <trkpt lat="54.944056989625096" lon="26.344196023419499">
        <ele>169.81</ele>
        <time>2011-08-16T16:15:57Z</time>
      </trkpt>
      <trkpt lat="54.944072999060154" lon="26.344201974570751">
        <ele>170.28999999999999</ele>
        <time>2011-08-16T16:16:26Z</time>
      </trkpt>
      <trkpt lat="54.944072999060154" lon="26.34419996291399">
        <ele>169.81</ele>
        <time>2011-08-16T16:16:58Z</time>
      </trkpt>
      <trkpt lat="54.944072999060154" lon="26.344203986227512">
        <ele>169.81</ele>
        <time>2011-08-16T16:17:31Z</time>
      </trkpt>
      <trkpt lat="54.944072999060154" lon="26.344203986227512">
        <ele>170.28999999999999</ele>
        <time>2011-08-16T16:18:02Z</time>
      </trkpt>
      <trkpt lat="54.944068975746632" lon="26.344205997884274">
        <ele>170.28999999999999</ele>
        <time>2011-08-16T16:18:28Z</time>
      </trkpt>
      <trkpt lat="54.944072999060154" lon="26.344205997884274">
        <ele>170.28999999999999</ele>
        <time>2011-08-16T16:18:59Z</time>
      </trkpt>
      <trkpt lat="54.944072999060154" lon="26.344213038682938">
        <ele>170.28999999999999</ele>
        <time>2011-08-16T16:19:36Z</time>
      </trkpt>
      <trkpt lat="54.944065036252141" lon="26.344216978177428">
        <ele>170.28999999999999</ele>
        <time>2011-08-16T16:20:12Z</time>
      </trkpt>
      <trkpt lat="54.944068975746632" lon="26.344223013147712">
        <ele>170.28999999999999</ele>
        <time>2011-08-16T16:20:45Z</time>
      </trkpt>
      <trkpt lat="54.944068975746632" lon="26.344223013147712">
        <ele>171.25</ele>
        <time>2011-08-16T16:21:14Z</time>
      </trkpt>
      <trkpt lat="54.944072999060154" lon="26.344227036461234">
        <ele>171.25</ele>
        <time>2011-08-16T16:21:49Z</time>
      </trkpt>
      <trkpt lat="54.944072999060154" lon="26.344228964298964">
        <ele>170.77000000000001</ele>
        <time>2011-08-16T16:22:22Z</time>
      </trkpt>
      <trkpt lat="54.944072999060154" lon="26.344230975955725">
        <ele>170.77000000000001</ele>
        <time>2011-08-16T16:22:58Z</time>
      </trkpt>
      <trkpt lat="54.944072999060154" lon="26.344233993440866">
        <ele>171.72999999999999</ele>
        <time>2011-08-16T16:23:35Z</time>
      </trkpt>
      <trkpt lat="54.944077022373676" lon="26.344238016754389">
        <ele>171.25</ele>
        <time>2011-08-16T16:24:12Z</time>
      </trkpt>
      <trkpt lat="54.944072999060154" lon="26.344236005097628">
        <ele>171.72999999999999</ele>
        <time>2011-08-16T16:24:49Z</time>
      </trkpt>
      <trkpt lat="54.944072999060154" lon="26.344236005097628">
        <ele>171.25</ele>
        <time>2011-08-16T16:25:21Z</time>
      </trkpt>
      <trkpt lat="54.944072999060154" lon="26.344243967905641">
        <ele>171.72999999999999</ele>
        <time>2011-08-16T16:25:44Z</time>
      </trkpt>
      <trkpt lat="54.944068975746632" lon="26.344243967905641">
        <ele>171.72999999999999</ele>
        <time>2011-08-16T16:26:15Z</time>
      </trkpt>
      <trkpt lat="54.944068975746632" lon="26.344245979562402">
        <ele>171.72999999999999</ele>
        <time>2011-08-16T16:26:49Z</time>
      </trkpt>
      <trkpt lat="54.944068975746632" lon="26.344245979562402">
        <ele>172.21000000000001</ele>
        <time>2011-08-16T16:27:18Z</time>
      </trkpt>
      <trkpt lat="54.944061012938619" lon="26.344247991219163">
        <ele>172.21000000000001</ele>
        <time>2011-08-16T16:27:46Z</time>
      </trkpt>
      <trkpt lat="54.944053972139955" lon="26.344255032017827">
        <ele>172.21000000000001</ele>
        <time>2011-08-16T16:28:22Z</time>
      </trkpt>
      <trkpt lat="54.944061012938619" lon="26.344265006482601">
        <ele>172.21000000000001</ele>
        <time>2011-08-16T16:28:42Z</time>
      </trkpt>
      <trkpt lat="54.944061012938619" lon="26.344265006482601">
        <ele>172.69</ele>
        <time>2011-08-16T16:29:06Z</time>
      </trkpt>
      <trkpt lat="54.944061012938619" lon="26.344265006482601">
        <ele>176.06</ele>
        <time>2011-08-16T16:29:10Z</time>
      </trkpt>
      <trkpt lat="54.944053972139955" lon="26.34426299482584">
        <ele>172.69</ele>
        <time>2011-08-16T16:29:14Z</time>
      </trkpt>
      <trkpt lat="54.944056989625096" lon="26.344269029796124">
        <ele>172.69</ele>
        <time>2011-08-16T16:29:31Z</time>
      </trkpt>
    </trkseg>
  </trk>

  <trk>
    <name>17-АВГ-11 19:55:14</name>
    <extensions>
      <gpxx:TrackExtension xmlns:gpxx="http://www.garmin.com/xmlschemas/GpxExtensions/v3">
        <gpxx:DisplayColor>Red</gpxx:DisplayColor>
      </gpxx:TrackExtension>
    </extensions>
    <trkseg>
      <trkpt lat="54.944056989625096" lon="26.344269029796124">
        <ele>170.28999999999999</ele>
        <time>2011-08-16T16:29:48Z</time>
      </trkpt>
      <trkpt lat="54.944056989625096" lon="26.344269029796124">
        <ele>169.81</ele>
        <time>2011-08-16T16:29:51Z</time>
      </trkpt>
      <trkpt lat="54.944056989625096" lon="26.344269029796124">
        <ele>173.66</ele>
        <time>2011-08-16T16:29:52Z</time>
      </trkpt>
      <trkpt lat="54.944056989625096" lon="26.344269029796124">
        <ele>172.69</ele>
        <time>2011-08-16T16:29:55Z</time>
      </trkpt>
      <trkpt lat="54.943942995741963" lon="26.344408001750708">
        <ele>159.24000000000001</ele>
        <time>2011-08-16T19:35:08Z</time>
      </trkpt>
      <trkpt lat="54.944011978805065" lon="26.344280010089278">
        <ele>161.16</ele>
        <time>2011-08-16T19:35:24Z</time>
      </trkpt>
      <trkpt lat="54.944008039310575" lon="26.344250002875924">
        <ele>163.08000000000001</ele>
        <time>2011-08-16T19:35:27Z</time>
      </trkpt>
      <trkpt lat="54.944016002118587" lon="26.344225024804473">
        <ele>165</ele>
        <time>2011-08-16T19:35:31Z</time>
      </trkpt>
      <trkpt lat="54.944016002118587" lon="26.344223013147712">
        <ele>161.63999999999999</ele>
        <time>2011-08-16T19:35:32Z</time>
      </trkpt>
      <trkpt lat="54.944016002118587" lon="26.344212032854557">
        <ele>166.44999999999999</ele>
        <time>2011-08-16T19:35:34Z</time>
      </trkpt>
      <trkpt lat="54.944008039310575" lon="26.344208009541035">
        <ele>162.59999999999999</ele>
        <time>2011-08-16T19:35:38Z</time>
      </trkpt>
      <trkpt lat="54.944008039310575" lon="26.344203986227512">
        <ele>162.12</ele>
        <time>2011-08-16T19:35:39Z</time>
      </trkpt>
      <trkpt lat="54.944008039310575" lon="26.344201974570751">
        <ele>170.77000000000001</ele>
        <time>2011-08-16T19:35:40Z</time>
      </trkpt>
      <trkpt lat="54.944008039310575" lon="26.34419996291399">
        <ele>167.41</ele>
        <time>2011-08-16T19:35:41Z</time>
      </trkpt>
      <trkpt lat="54.944008039310575" lon="26.344194011762738">
        <ele>164.03999999999999</ele>
        <time>2011-08-16T19:35:46Z</time>
      </trkpt>
      <trkpt lat="54.944011978805065" lon="26.344193005934358">
        <ele>167.41</ele>
        <time>2011-08-16T19:35:47Z</time>
      </trkpt>
      <trkpt lat="54.944008039310575" lon="26.344190994277596">
        <ele>163.56</ele>
        <time>2011-08-16T19:35:48Z</time>
      </trkpt>
      <trkpt lat="54.944008039310575" lon="26.344190994277596">
        <ele>167.41</ele>
        <time>2011-08-16T19:35:49Z</time>
      </trkpt>
      <trkpt lat="54.944004015997052" lon="26.344188982620835">
        <ele>168.37</ele>
        <time>2011-08-16T19:35:51Z</time>
      </trkpt>
      <trkpt lat="54.94399999268353" lon="26.344188982620835">
        <ele>162.59999999999999</ele>
        <time>2011-08-16T19:35:56Z</time>
      </trkpt>
      <trkpt lat="54.94399999268353" lon="26.344193005934358">
        <ele>167.88999999999999</ele>
        <time>2011-08-16T19:35:57Z</time>
      </trkpt>
      <trkpt lat="54.94399999268353" lon="26.344198035076261">
        <ele>163.56</ele>
        <time>2011-08-16T19:36:00Z</time>
      </trkpt>
      <trkpt lat="54.94399999268353" lon="26.34419996291399">
        <ele>167.88999999999999</ele>
        <time>2011-08-16T19:36:01Z</time>
      </trkpt>
      <trkpt lat="54.94399999268353" lon="26.344201974570751">
        <ele>168.84999999999999</ele>
        <time>2011-08-16T19:36:03Z</time>
      </trkpt>
      <trkpt lat="54.94399999268353" lon="26.344203986227512">
        <ele>165.47999999999999</ele>
        <time>2011-08-16T19:36:04Z</time>
      </trkpt>
      <trkpt lat="54.943995969370008" lon="26.344212032854557">
        <ele>170.77000000000001</ele>
        <time>2011-08-16T19:36:09Z</time>
      </trkpt>
      <trkpt lat="54.943995969370008" lon="26.344213038682938">
        <ele>163.56</ele>
        <time>2011-08-16T19:36:10Z</time>
      </trkpt>
      <trkpt lat="54.943995969370008" lon="26.344214966520667">
        <ele>168.37</ele>
        <time>2011-08-16T19:36:11Z</time>
      </trkpt>
      <trkpt lat="54.943995969370008" lon="26.344214966520667">
        <ele>163.08000000000001</ele>
        <time>2011-08-16T19:36:12Z</time>
      </trkpt>
      <trkpt lat="54.943995969370008" lon="26.344214966520667">
        <ele>168.37</ele>
        <time>2011-08-16T19:36:13Z</time>
      </trkpt>
      <trkpt lat="54.944031005725265" lon="26.344225024804473">
        <ele>169.33000000000001</ele>
        <time>2011-08-16T19:36:43Z</time>
      </trkpt>
      <trkpt lat="54.944026982411742" lon="26.344213038682938">
        <ele>163.08000000000001</ele>
        <time>2011-08-16T19:36:46Z</time>
      </trkpt>
      <trkpt lat="54.944026982411742" lon="26.344214966520667">
        <ele>168.37</ele>
        <time>2011-08-16T19:36:47Z</time>
      </trkpt>
      <trkpt lat="54.944046009331942" lon="26.344223013147712">
        <ele>158.75</ele>
        <time>2011-08-17T07:15:08Z</time>
      </trkpt>
      <trkpt lat="54.944008039310575" lon="26.344296019524336">
        <ele>158.75</ele>
        <time>2011-08-17T07:15:31Z</time>
      </trkpt>
      <trkpt lat="54.943714002147317" lon="26.344464998692274">
        <ele>161.16</ele>
        <time>2011-08-17T07:15:48Z</time>
      </trkpt>
      <trkpt lat="54.94350797496736" lon="26.344599025323987">
        <ele>164.52000000000001</ele>
        <time>2011-08-17T07:15:58Z</time>
      </trkpt>
      <trkpt lat="54.943459024652839" lon="26.344617968425155">
        <ele>165.47999999999999</ele>
        <time>2011-08-17T07:16:01Z</time>
      </trkpt>
      <trkpt lat="54.943438991904259" lon="26.344636995345354">
        <ele>165.96000000000001</ele>
        <time>2011-08-17T07:16:03Z</time>
      </trkpt>
      <trkpt lat="54.943447038531303" lon="26.344747971743345">
        <ele>166.93000000000001</ele>
        <time>2011-08-17T07:16:09Z</time>
      </trkpt>
      <trkpt lat="54.943480985239148" lon="26.344803040847182">
        <ele>167.88999999999999</ele>
        <time>2011-08-17T07:16:14Z</time>
      </trkpt>
      <trkpt lat="54.943642001599073" lon="26.345200007781386">
        <ele>168.84999999999999</ele>
        <time>2011-08-17T07:16:30Z</time>
      </trkpt>
      <trkpt lat="54.943901002407074" lon="26.345754973590374">
        <ele>169.33000000000001</ele>
        <time>2011-08-17T07:16:46Z</time>
      </trkpt>
      <trkpt lat="54.94414902292192" lon="26.346237016841769">
        <ele>169.33000000000001</ele>
        <time>2011-08-17T07:17:00Z</time>
      </trkpt>
      <trkpt lat="54.944446999579668" lon="26.34697001427412">
        <ele>169.33000000000001</ele>
        <time>2011-08-17T07:17:18Z</time>
      </trkpt>
      <trkpt lat="54.944716980680823" lon="26.347660012543201">
        <ele>170.28999999999999</ele>
        <time>2011-08-17T07:17:35Z</time>
      </trkpt>
      <trkpt lat="54.945018980652094" lon="26.348427040502429">
        <ele>171.72999999999999</ele>
        <time>2011-08-17T07:17:53Z</time>
      </trkpt>
      <trkpt lat="54.945189971476793" lon="26.348886033520103">
        <ele>173.66</ele>
        <time>2011-08-17T07:18:08Z</time>
      </trkpt>
      <trkpt lat="54.945198018103838" lon="26.348891984671354">
        <ele>173.66</ele>
        <time>2011-08-17T07:18:24Z</time>
      </trkpt>
      <trkpt lat="54.945198018103838" lon="26.348891984671354">
        <ele>174.13999999999999</ele>
        <time>2011-08-17T07:18:42Z</time>
      </trkpt>
      <trkpt lat="54.945198018103838" lon="26.348891984671354">
        <ele>173.66</ele>
        <time>2011-08-17T07:18:46Z</time>
      </trkpt>
      <trkpt lat="54.945216961205006" lon="26.348955016583204">
        <ele>174.13999999999999</ele>
        <time>2011-08-17T07:18:49Z</time>
      </trkpt>
      <trkpt lat="54.945454001426697" lon="26.34954602457583">
        <ele>174.13999999999999</ele>
        <time>2011-08-17T07:19:03Z</time>
      </trkpt>
      <trkpt lat="54.945678971707821" lon="26.349993031471968">
        <ele>174.13999999999999</ele>
        <time>2011-08-17T07:19:12Z</time>
      </trkpt>
      <trkpt lat="54.9460409861058" lon="26.350930966436863">
        <ele>175.09999999999999</ele>
        <time>2011-08-17T07:19:29Z</time>
      </trkpt>
      <trkpt lat="54.946429990231991" lon="26.351877031847835">
        <ele>174.13999999999999</ele>
        <time>2011-08-17T07:19:45Z</time>
      </trkpt>
      <trkpt lat="54.946907004341483" lon="26.353005990386009">
        <ele>172.69</ele>
        <time>2011-08-17T07:20:01Z</time>
      </trkpt>
      <trkpt lat="54.946975987404585" lon="26.353115038946271">
        <ele>172.69</ele>
        <time>2011-08-17T07:20:03Z</time>
      </trkpt>
      <trkpt lat="54.947140021249652" lon="26.353514017537236">
        <ele>172.69</ele>
        <time>2011-08-17T07:20:10Z</time>
      </trkpt>
      <trkpt lat="54.947249991819263" lon="26.353822974488139">
        <ele>172.69</ele>
        <time>2011-08-17T07:20:15Z</time>
      </trkpt>
      <trkpt lat="54.947635978460312" lon="26.354694021865726">
        <ele>174.62</ele>
        <time>2011-08-17T07:20:33Z</time>
      </trkpt>
      <trkpt lat="54.94775801897049" lon="26.35507196187973">
        <ele>174.62</ele>
        <time>2011-08-17T07:20:49Z</time>
      </trkpt>
      <trkpt lat="54.94778098538518" lon="26.355108004063368">
        <ele>174.13999999999999</ele>
        <time>2011-08-17T07:21:07Z</time>
      </trkpt>
      <trkpt lat="54.947861032560468" lon="26.355314031243324">
        <ele>174.62</ele>
        <time>2011-08-17T07:21:15Z</time>
      </trkpt>
      <trkpt lat="54.948219023644924" lon="26.356181977316737">
        <ele>172.69</ele>
        <time>2011-08-17T07:21:33Z</time>
      </trkpt>
      <trkpt lat="54.948630994185805" lon="26.357158971950412">
        <ele>172.69</ele>
        <time>2011-08-17T07:21:49Z</time>
      </trkpt>
      <trkpt lat="54.948982028290629" lon="26.358010992407799">
        <ele>172.21000000000001</ele>
        <time>2011-08-17T07:22:05Z</time>
      </trkpt>
      <trkpt lat="54.94941302575171" lon="26.359000978991389">
        <ele>171.72999999999999</ele>
        <time>2011-08-17T07:22:23Z</time>
      </trkpt>
      <trkpt lat="54.949836982414126" lon="26.359923994168639">
        <ele>169.81</ele>
        <time>2011-08-17T07:22:40Z</time>
      </trkpt>
      <trkpt lat="54.94988601654768" lon="26.360003035515547">
        <ele>169.33000000000001</ele>
        <time>2011-08-17T07:22:42Z</time>
      </trkpt>
      <trkpt lat="54.950034962967038" lon="26.359974034130573">
        <ele>169.81</ele>
        <time>2011-08-17T07:22:47Z</time>
      </trkpt>
      <trkpt lat="54.950447017326951" lon="26.35956197977066">
        <ele>172.69</ele>
        <time>2011-08-17T07:23:03Z</time>
      </trkpt>
      <trkpt lat="54.950782964006066" lon="26.359182028099895">
        <ele>175.58000000000001</ele>
        <time>2011-08-17T07:23:18Z</time>
      </trkpt>
      <trkpt lat="54.951186971738935" lon="26.358767040073872">
        <ele>177.02000000000001</ele>
        <time>2011-08-17T07:23:36Z</time>
      </trkpt>
      <trkpt lat="54.951569018885493" lon="26.358364038169384">
        <ele>177.97999999999999</ele>
        <time>2011-08-17T07:23:53Z</time>
      </trkpt>
      <trkpt lat="54.951912006363273" lon="26.358024990186095">
        <ele>179.41999999999999</ele>
        <time>2011-08-17T07:24:07Z</time>
      </trkpt>
      <trkpt lat="54.952461021021008" lon="26.357604973018169">
        <ele>181.34999999999999</ele>
        <time>2011-08-17T07:24:27Z</time>
      </trkpt>
      <trkpt lat="54.952995032072067" lon="26.357687031850219">
        <ele>181.83000000000001</ele>
        <time>2011-08-17T07:24:44Z</time>
      </trkpt>
      <trkpt lat="54.953514039516449" lon="26.357916025444865">
        <ele>182.78999999999999</ele>
        <time>2011-08-17T07:24:59Z</time>
      </trkpt>
      <trkpt lat="54.954132037237287" lon="26.358229005709291">
        <ele>182.78999999999999</ele>
        <time>2011-08-17T07:25:16Z</time>
      </trkpt>
      <trkpt lat="54.954792028293014" lon="26.358551038429141">
        <ele>183.75</ele>
        <time>2011-08-17T07:25:33Z</time>
      </trkpt>
      <trkpt lat="54.955527959391475" lon="26.358908023685217">
        <ele>183.75</ele>
        <time>2011-08-17T07:25:51Z</time>
      </trkpt>
      <trkpt lat="54.955608006566763" lon="26.358953034505248">
        <ele>184.22999999999999</ele>
        <time>2011-08-17T07:25:53Z</time>
      </trkpt>
      <trkpt lat="54.955696016550064" lon="26.358992010354996">
        <ele>183.75</ele>
        <time>2011-08-17T07:25:55Z</time>
      </trkpt>
      <trkpt lat="54.95598996989429" lon="26.359157972037792">
        <ele>183.27000000000001</ele>
        <time>2011-08-17T07:26:02Z</time>
      </trkpt>
      <trkpt lat="54.956657001748681" lon="26.359728025272489">
        <ele>183.27000000000001</ele>
        <time>2011-08-17T07:26:18Z</time>
      </trkpt>
      <trkpt lat="54.957237029448152" lon="26.360300006344914">
        <ele>182.31</ele>
        <time>2011-08-17T07:26:32Z</time>
      </trkpt>
      <trkpt lat="54.957611029967666" lon="26.360689010471106">
        <ele>182.78999999999999</ele>
        <time>2011-08-17T07:26:43Z</time>
      </trkpt>
      <trkpt lat="54.957919986918569" lon="26.361006014049053">
        <ele>184.22999999999999</ele>
        <time>2011-08-17T07:26:52Z</time>
      </trkpt>
      <trkpt lat="54.958111010491848" lon="26.361155966296792">
        <ele>184.22999999999999</ele>
        <time>2011-08-17T07:26:57Z</time>
      </trkpt>
      <trkpt lat="54.958412004634738" lon="26.361324023455381">
        <ele>185.19</ele>
        <time>2011-08-17T07:27:05Z</time>
      </trkpt>
      <trkpt lat="54.958491967990994" lon="26.361358975991607">
        <ele>184.71000000000001</ele>
        <time>2011-08-17T07:27:07Z</time>
      </trkpt>
      <trkpt lat="54.958926988765597" lon="26.361441034823656">
        <ele>185.19</ele>
        <time>2011-08-17T07:27:18Z</time>
      </trkpt>
      <trkpt lat="54.959369972348213" lon="26.361393006518483">
        <ele>185.19</ele>
        <time>2011-08-17T07:27:28Z</time>
      </trkpt>
      <trkpt lat="54.959808010607958" lon="26.36134103871882">
        <ele>184.22999999999999</ele>
        <time>2011-08-17T07:27:37Z</time>
      </trkpt>
      <trkpt lat="54.960204977542162" lon="26.36127901263535">
        <ele>182.78999999999999</ele>
        <time>2011-08-17T07:27:48Z</time>
      </trkpt>
      <trkpt lat="54.960265997797251" lon="26.361028980463743">
        <ele>181.34999999999999</ele>
        <time>2011-08-17T07:27:57Z</time>
      </trkpt>
      <trkpt lat="54.960265997797251" lon="26.361001990735531">
        <ele>181.34999999999999</ele>
        <time>2011-08-17T07:28:00Z</time>
      </trkpt>
      <trkpt lat="54.960270021110773" lon="26.361065022647381">
        <ele>181.83000000000001</ele>
        <time>2011-08-17T07:28:14Z</time>
      </trkpt>
      <trkpt lat="54.960261974483728" lon="26.361026968806982">
        <ele>181.83000000000001</ele>
        <time>2011-08-17T07:28:17Z</time>
      </trkpt>
      <trkpt lat="54.96017798781395" lon="26.36084902100265">
        <ele>181.83000000000001</ele>
        <time>2011-08-17T07:28:23Z</time>
      </trkpt>
      <trkpt lat="54.960144041106105" lon="26.360775008797646">
        <ele>181.34999999999999</ele>
        <time>2011-08-17T07:28:37Z</time>
      </trkpt>
      <trkpt lat="54.960144041106105" lon="26.360775008797646">
        <ele>181.83000000000001</ele>
        <time>2011-08-17T07:28:48Z</time>
      </trkpt>
      <trkpt lat="54.960174970328808" lon="26.360838040709496">
        <ele>182.31</ele>
        <time>2011-08-17T07:28:51Z</time>
      </trkpt>
      <trkpt lat="54.960292987525463" lon="26.361270966008306">
        <ele>182.31</ele>
        <time>2011-08-17T07:29:03Z</time>
      </trkpt>
      <trkpt lat="54.960303967818618" lon="26.361382026225328">
        <ele>182.31</ele>
        <time>2011-08-17T07:29:13Z</time>
      </trkpt>
      <trkpt lat="54.960322994738817" lon="26.361441034823656">
        <ele>181.83000000000001</ele>
        <time>2011-08-17T07:29:25Z</time>
      </trkpt>
      <trkpt lat="54.960334980860353" lon="26.361456038430333">
        <ele>182.31</ele>
        <time>2011-08-17T07:29:45Z</time>
      </trkpt>
      <trkpt lat="54.960373034700751" lon="26.361615965142846">
        <ele>180.87</ele>
        <time>2011-08-17T07:29:57Z</time>
      </trkpt>
      <trkpt lat="54.960376974195242" lon="26.361634992063046">
        <ele>181.34999999999999</ele>
        <time>2011-08-17T07:30:00Z</time>
      </trkpt>
      <trkpt lat="54.960388038307428" lon="26.361701963469386">
        <ele>180.87</ele>
        <time>2011-08-17T07:30:03Z</time>
      </trkpt>
      <trkpt lat="54.960433971136808" lon="26.361872032284737">
        <ele>178.46000000000001</ele>
        <time>2011-08-17T07:30:11Z</time>
      </trkpt>
      <trkpt lat="54.960547965019941" lon="26.362149976193905">
        <ele>175.58000000000001</ele>
        <time>2011-08-17T07:30:23Z</time>
      </trkpt>
      <trkpt lat="54.960593981668353" lon="26.362262964248657">
        <ele>174.62</ele>
        <time>2011-08-17T07:30:28Z</time>
      </trkpt>
      <trkpt lat="54.960666988044977" lon="26.362538980320096">
        <ele>171.25</ele>
        <time>2011-08-17T07:30:39Z</time>
      </trkpt>
      <trkpt lat="54.960716022178531" lon="26.362602012231946">
        <ele>171.25</ele>
        <time>2011-08-17T07:30:43Z</time>
      </trkpt>
      <trkpt lat="54.960747035220265" lon="26.362703014165163">
        <ele>170.77000000000001</ele>
        <time>2011-08-17T07:30:47Z</time>
      </trkpt>
      <trkpt lat="54.960949039086699" lon="26.362995039671659">
        <ele>167.88999999999999</ele>
        <time>2011-08-17T07:30:58Z</time>
      </trkpt>
      <trkpt lat="54.961009975522757" lon="26.363055976107717">
        <ele>168.37</ele>
        <time>2011-08-17T07:31:00Z</time>
      </trkpt>
      <trkpt lat="54.961346006020904" lon="26.363387983292341">
        <ele>166.93000000000001</ele>
        <time>2011-08-17T07:31:11Z</time>
      </trkpt>
      <trkpt lat="54.961494030430913" lon="26.363528966903687">
        <ele>165.96000000000001</ele>
        <time>2011-08-17T07:31:16Z</time>
      </trkpt>
      <trkpt lat="54.961711959913373" lon="26.364054009318352">
        <ele>164.03999999999999</ele>
        <time>2011-08-17T07:31:27Z</time>
      </trkpt>
      <trkpt lat="54.961769040673971" lon="26.364475032314658">
        <ele>162.59999999999999</ele>
        <time>2011-08-17T07:31:36Z</time>
      </trkpt>
      <trkpt lat="54.961802987381816" lon="26.364612998440862">
        <ele>163.08000000000001</ele>
        <time>2011-08-17T07:31:42Z</time>
      </trkpt>
      <trkpt lat="54.961941037327051" lon="26.364913992583752">
        <ele>163.08000000000001</ele>
        <time>2011-08-17T07:31:56Z</time>
      </trkpt>
      <trkpt lat="54.961947994306684" lon="26.364936958998442">
        <ele>163.08000000000001</ele>
        <time>2011-08-17T07:31:57Z</time>
      </trkpt>
      <trkpt lat="54.961967021226883" lon="26.364973001182079">
        <ele>163.08000000000001</ele>
        <time>2011-08-17T07:32:11Z</time>
      </trkpt>
      <trkpt lat="54.961967021226883" lon="26.364973001182079">
        <ele>163.08000000000001</ele>
        <time>2011-08-17T07:32:36Z</time>
      </trkpt>
      <trkpt lat="54.961964003741741" lon="26.364968977868557">
        <ele>162.59999999999999</ele>
        <time>2011-08-17T07:32:56Z</time>
      </trkpt>
      <trkpt lat="54.961983030661941" lon="26.365014994516969">
        <ele>162.12</ele>
        <time>2011-08-17T07:33:09Z</time>
      </trkpt>
      <trkpt lat="54.961983030661941" lon="26.365014994516969">
        <ele>161.63999999999999</ele>
        <time>2011-08-17T07:33:27Z</time>
      </trkpt>
      <trkpt lat="54.961986970156431" lon="26.365105016157031">
        <ele>162.12</ele>
        <time>2011-08-17T07:33:49Z</time>
      </trkpt>
      <trkpt lat="54.962073974311352" lon="26.365243988111615">
        <ele>162.59999999999999</ele>
        <time>2011-08-17T07:34:01Z</time>
      </trkpt>
      <trkpt lat="54.962097024545074" lon="26.365248011425138">
        <ele>162.59999999999999</ele>
        <time>2011-08-17T07:34:03Z</time>
      </trkpt>
      <trkpt lat="54.962192997336388" lon="26.365268966183066">
        <ele>162.59999999999999</ele>
        <time>2011-08-17T07:34:10Z</time>
      </trkpt>
      <trkpt lat="54.962280001491308" lon="26.365355970337987">
        <ele>162.59999999999999</ele>
        <time>2011-08-17T07:34:25Z</time>
      </trkpt>
      <trkpt lat="54.962284024804831" lon="26.365351025015116">
        <ele>162.12</ele>
        <time>2011-08-17T07:34:49Z</time>
      </trkpt>
      <trkpt lat="54.962284024804831" lon="26.365351025015116">
        <ele>162.12</ele>
        <time>2011-08-17T07:34:52Z</time>
      </trkpt>
      <trkpt lat="54.962306991219521" lon="26.36538103222847">
        <ele>162.59999999999999</ele>
        <time>2011-08-17T07:34:55Z</time>
      </trkpt>
      <trkpt lat="54.962378991767764" lon="26.365655958652496">
        <ele>162.59999999999999</ele>
        <time>2011-08-17T07:35:02Z</time>
      </trkpt>
      <trkpt lat="54.962368011474609" lon="26.365762995555997">
        <ele>162.12</ele>
        <time>2011-08-17T07:35:14Z</time>
      </trkpt>
      <trkpt lat="54.962363988161087" lon="26.365782022476196">
        <ele>163.08000000000001</ele>
        <time>2011-08-17T07:35:21Z</time>
      </trkpt>
      <trkpt lat="54.962357031181455" lon="26.365826027467847">
        <ele>162.12</ele>
        <time>2011-08-17T07:35:23Z</time>
      </trkpt>
      <trkpt lat="54.962280001491308" lon="26.365999029949307">
        <ele>162.59999999999999</ele>
        <time>2011-08-17T07:35:29Z</time>
      </trkpt>
      <trkpt lat="54.962227027863264" lon="26.366063989698887">
        <ele>162.59999999999999</ele>
        <time>2011-08-17T07:35:41Z</time>
      </trkpt>
      <trkpt lat="54.962185034528375" lon="26.366144036874175">
        <ele>162.59999999999999</ele>
        <time>2011-08-17T07:35:46Z</time>
      </trkpt>
      <trkpt lat="54.961989987641573" lon="26.366260964423418">
        <ele>162.59999999999999</ele>
        <time>2011-08-17T07:35:59Z</time>
      </trkpt>
      <trkpt lat="54.961884040385485" lon="26.366325002163649">
        <ele>162.12</ele>
        <time>2011-08-17T07:36:07Z</time>
      </trkpt>
      <trkpt lat="54.961741967126727" lon="26.366389961913228">
        <ele>164.52000000000001</ele>
        <time>2011-08-17T07:36:17Z</time>
      </trkpt>
      <trkpt lat="54.961730986833572" lon="26.366406977176666">
        <ele>164.03999999999999</ele>
        <time>2011-08-17T07:36:18Z</time>
      </trkpt>
      <trkpt lat="54.961693016812205" lon="26.366481995210052">
        <ele>165</ele>
        <time>2011-08-17T07:36:21Z</time>
      </trkpt>
      <trkpt lat="54.961662003770471" lon="26.36658500880003">
        <ele>164.52000000000001</ele>
        <time>2011-08-17T07:36:24Z</time>
      </trkpt>
      <trkpt lat="54.961627973243594" lon="26.366776032373309">
        <ele>165.96000000000001</ele>
        <time>2011-08-17T07:36:31Z</time>
      </trkpt>
      <trkpt lat="54.961616992950439" lon="26.366855995729566">
        <ele>166.44999999999999</ele>
        <time>2011-08-17T07:36:35Z</time>
      </trkpt>
      <trkpt lat="54.961585979908705" lon="26.366981975734234">
        <ele>167.41</ele>
        <time>2011-08-17T07:36:40Z</time>
      </trkpt>
      <trkpt lat="54.961567036807537" lon="26.367137962952256">
        <ele>167.41</ele>
        <time>2011-08-17T07:36:45Z</time>
      </trkpt>
      <trkpt lat="54.961600983515382" lon="26.367235025390983">
        <ele>167.88999999999999</ele>
        <time>2011-08-17T07:36:50Z</time>
      </trkpt>
      <trkpt lat="54.961673989892006" lon="26.367418002337217">
        <ele>168.37</ele>
        <time>2011-08-17T07:36:56Z</time>
      </trkpt>
      <trkpt lat="54.961693016812205" lon="26.367440968751907">
        <ele>168.37</ele>
        <time>2011-08-17T07:36:58Z</time>
      </trkpt>
      <trkpt lat="54.961735010147095" lon="26.367560997605324">
        <ele>169.33000000000001</ele>
        <time>2011-08-17T07:37:01Z</time>
      </trkpt>
      <trkpt lat="54.961895020678639" lon="26.367829972878098">
        <ele>169.81</ele>
        <time>2011-08-17T07:37:10Z</time>
      </trkpt>
      <trkpt lat="54.961959980428219" lon="26.368010016158223">
        <ele>170.77000000000001</ele>
        <time>2011-08-17T07:37:15Z</time>
      </trkpt>
      <trkpt lat="54.961970960721374" lon="26.368030970916152">
        <ele>170.28999999999999</ele>
        <time>2011-08-17T07:37:16Z</time>
      </trkpt>
      <trkpt lat="54.961989987641573" lon="26.368057038635015">
        <ele>171.25</ele>
        <time>2011-08-17T07:37:18Z</time>
      </trkpt>
      <trkpt lat="54.962062994018197" lon="26.368155023083091">
        <ele>171.25</ele>
        <time>2011-08-17T07:37:21Z</time>
      </trkpt>
      <trkpt lat="54.96215402148664" lon="26.36843103915453">
        <ele>172.69</ele>
        <time>2011-08-17T07:37:29Z</time>
      </trkpt>
      <trkpt lat="54.962166007608175" lon="26.368451993912458">
        <ele>172.69</ele>
        <time>2011-08-17T07:37:30Z</time>
      </trkpt>
      <trkpt lat="54.962200038135052" lon="26.368503961712122">
        <ele>172.69</ele>
        <time>2011-08-17T07:37:46Z</time>
      </trkpt>
      <trkpt lat="54.962200038135052" lon="26.368503961712122">
        <ele>168.84999999999999</ele>
        <time>2011-08-17T07:37:49Z</time>
      </trkpt>
      <trkpt lat="54.962200038135052" lon="26.368503961712122">
        <ele>172.21000000000001</ele>
        <time>2011-08-17T07:37:50Z</time>
      </trkpt>
      <trkpt lat="54.962200038135052" lon="26.368503961712122">
        <ele>172.21000000000001</ele>
        <time>2011-08-17T07:37:54Z</time>
      </trkpt>
      <trkpt lat="54.962200038135052" lon="26.368502033874393">
        <ele>172.21000000000001</ele>
        <time>2011-08-17T07:38:19Z</time>
      </trkpt>
      <trkpt lat="54.962203977629542" lon="26.368503961712122">
        <ele>172.69</ele>
        <time>2011-08-17T07:38:31Z</time>
      </trkpt>
      <trkpt lat="54.962172964587808" lon="26.368486024439335">
        <ele>172.69</ele>
        <time>2011-08-17T07:38:36Z</time>
      </trkpt>
      <trkpt lat="54.962104987353086" lon="26.368355015292764">
        <ele>171.25</ele>
        <time>2011-08-17T07:38:44Z</time>
      </trkpt>
      <trkpt lat="54.962109010666609" lon="26.368311010301113">
        <ele>170.77000000000001</ele>
        <time>2011-08-17T07:38:57Z</time>
      </trkpt>
      <trkpt lat="54.962109010666609" lon="26.368311010301113">
        <ele>170.77000000000001</ele>
        <time>2011-08-17T07:39:21Z</time>
      </trkpt>
      <trkpt lat="54.962109010666609" lon="26.368311010301113">
        <ele>170.77000000000001</ele>
        <time>2011-08-17T07:39:22Z</time>
      </trkpt>
      <trkpt lat="54.962131977081299" lon="26.368291983380914">
        <ele>170.77000000000001</ele>
        <time>2011-08-17T07:39:24Z</time>
      </trkpt>
      <trkpt lat="54.962315037846565" lon="26.368273040279746">
        <ele>171.25</ele>
        <time>2011-08-17T07:39:34Z</time>
      </trkpt>
      <trkpt lat="54.962401958182454" lon="26.36828200891614">
        <ele>172.21000000000001</ele>
        <time>2011-08-17T07:39:40Z</time>
      </trkpt>
      <trkpt lat="54.962467001751065" lon="26.368308998644352">
        <ele>172.69</ele>
        <time>2011-08-17T07:39:45Z</time>
      </trkpt>
      <trkpt lat="54.962623994797468" lon="26.368343029171228">
        <ele>173.16999999999999</ele>
        <time>2011-08-17T07:39:56Z</time>
      </trkpt>
      <trkpt lat="54.962715022265911" lon="26.368375970050693">
        <ele>173.16999999999999</ele>
        <time>2011-08-17T07:40:00Z</time>
      </trkpt>
      <trkpt lat="54.962814012542367" lon="26.368441013619304">
        <ele>174.13999999999999</ele>
        <time>2011-08-17T07:40:05Z</time>
      </trkpt>
      <trkpt lat="54.962851982563734" lon="26.368474960327148">
        <ele>175.09999999999999</ele>
        <time>2011-08-17T07:40:07Z</time>
      </trkpt>
      <trkpt lat="54.962959019467235" lon="26.368589038029313">
        <ele>175.58000000000001</ele>
        <time>2011-08-17T07:40:13Z</time>
      </trkpt>
      <trkpt lat="54.963038982823491" lon="26.368632959201932">
        <ele>175.58000000000001</ele>
        <time>2011-08-17T07:40:18Z</time>
      </trkpt>
      <trkpt lat="54.963062033057213" lon="26.368685010820627">
        <ele>176.06</ele>
        <time>2011-08-17T07:40:21Z</time>
      </trkpt>
      <trkpt lat="54.963111989200115" lon="26.36871300637722">
        <ele>176.06</ele>
        <time>2011-08-17T07:40:24Z</time>
      </trkpt>
      <trkpt lat="54.963463023304939" lon="26.368801016360521">
        <ele>177.5</ele>
        <time>2011-08-17T07:40:35Z</time>
      </trkpt>
      <trkpt lat="54.963515996932983" lon="26.368801016360521">
        <ele>177.97999999999999</ele>
        <time>2011-08-17T07:40:38Z</time>
      </trkpt>
      <trkpt lat="54.963710960000753" lon="26.368922973051667">
        <ele>178.94</ele>
        <time>2011-08-17T07:40:50Z</time>
      </trkpt>
      <trkpt lat="54.963825037702918" lon="26.369118019938469">
        <ele>181.83000000000001</ele>
        <time>2011-08-17T07:40:56Z</time>
      </trkpt>
      <trkpt lat="54.963936014100909" lon="26.36916202493012">
        <ele>182.31</ele>
        <time>2011-08-17T07:41:00Z</time>
      </trkpt>
      <trkpt lat="54.964127037674189" lon="26.36922799050808">
        <ele>182.78999999999999</ele>
        <time>2011-08-17T07:41:07Z</time>
      </trkpt>
      <trkpt lat="54.964229967445135" lon="26.36924902908504">
        <ele>183.27000000000001</ele>
        <time>2011-08-17T07:41:11Z</time>
      </trkpt>
      <trkpt lat="54.964358964934945" lon="26.369362017139792">
        <ele>184.71000000000001</ele>
        <time>2011-08-17T07:41:18Z</time>
      </trkpt>
      <trkpt lat="54.964443035423756" lon="26.369481962174177">
        <ele>185.19</ele>
        <time>2011-08-17T07:41:24Z</time>
      </trkpt>
      <trkpt lat="54.964473964646459" lon="26.369553040713072">
        <ele>185.66999999999999</ele>
        <time>2011-08-17T07:41:27Z</time>
      </trkpt>
      <trkpt lat="54.964558035135269" lon="26.369694024324417">
        <ele>185.19</ele>
        <time>2011-08-17T07:41:33Z</time>
      </trkpt>
      <trkpt lat="54.964630035683513" lon="26.369840959087014">
        <ele>184.71000000000001</ele>
        <time>2011-08-17T07:41:37Z</time>
      </trkpt>
      <trkpt lat="54.964774958789349" lon="26.370072970166802">
        <ele>184.71000000000001</ele>
        <time>2011-08-17T07:41:44Z</time>
      </trkpt>
      <trkpt lat="54.96486296877265" lon="26.370215965434909">
        <ele>184.71000000000001</ele>
        <time>2011-08-17T07:41:48Z</time>
      </trkpt>
      <trkpt lat="54.965073019266129" lon="26.37056197039783">
        <ele>187.11000000000001</ele>
        <time>2011-08-17T07:42:00Z</time>
      </trkpt>
      <trkpt lat="54.965091962367296" lon="26.370584014803171">
        <ele>186.63</ele>
        <time>2011-08-17T07:42:01Z</time>
      </trkpt>
      <trkpt lat="54.965152982622385" lon="26.370746959000826">
        <ele>186.15000000000001</ele>
        <time>2011-08-17T07:42:05Z</time>
      </trkpt>
      <trkpt lat="54.965401003137231" lon="26.371077038347721">
        <ele>184.71000000000001</ele>
        <time>2011-08-17T07:42:17Z</time>
      </trkpt>
      <trkpt lat="54.96542003005743" lon="26.371157001703978">
        <ele>184.22999999999999</ele>
        <time>2011-08-17T07:42:19Z</time>
      </trkpt>
      <trkpt lat="54.965633014217019" lon="26.371437041088939">
        <ele>181.34999999999999</ele>
        <time>2011-08-17T07:42:31Z</time>
      </trkpt>
      <trkpt lat="54.965977007523179" lon="26.371403010562062">
        <ele>179.90000000000001</ele>
        <time>2011-08-17T07:42:41Z</time>
      </trkpt>
      <trkpt lat="54.965999973937869" lon="26.371409967541695">
        <ele>180.38</ele>
        <time>2011-08-17T07:42:42Z</time>
      </trkpt>
      <trkpt lat="54.966060994192958" lon="26.37152899056673">
        <ele>180.38</ele>
        <time>2011-08-17T07:42:56Z</time>
      </trkpt>
      <trkpt lat="54.966060994192958" lon="26.37152899056673">
        <ele>180.87</ele>
        <time>2011-08-17T07:43:29Z</time>
      </trkpt>
      <trkpt lat="54.966060994192958" lon="26.371526978909969">
        <ele>181.34999999999999</ele>
        <time>2011-08-17T07:43:58Z</time>
      </trkpt>
      <trkpt lat="54.9660640116781" lon="26.371524967253208">
        <ele>180.87</ele>
        <time>2011-08-17T07:44:27Z</time>
      </trkpt>
      <trkpt lat="54.9660640116781" lon="26.371526978909969">
        <ele>181.34999999999999</ele>
        <time>2011-08-17T07:44:55Z</time>
      </trkpt>
      <trkpt lat="54.9660640116781" lon="26.371526978909969">
        <ele>181.83000000000001</ele>
        <time>2011-08-17T07:45:21Z</time>
      </trkpt>
      <trkpt lat="54.9660640116781" lon="26.37152899056673">
        <ele>181.83000000000001</ele>
        <time>2011-08-17T07:45:53Z</time>
      </trkpt>
      <trkpt lat="54.9660640116781" lon="26.37152899056673">
        <ele>181.83000000000001</ele>
        <time>2011-08-17T07:46:25Z</time>
      </trkpt>
      <trkpt lat="54.9660640116781" lon="26.371531002223492">
        <ele>182.78999999999999</ele>
        <time>2011-08-17T07:46:56Z</time>
      </trkpt>
      <trkpt lat="54.9660640116781" lon="26.371531002223492">
        <ele>182.78999999999999</ele>
        <time>2011-08-17T07:47:14Z</time>
      </trkpt>
      <trkpt lat="54.966144980862737" lon="26.371711967512965">
        <ele>181.34999999999999</ele>
        <time>2011-08-17T07:47:18Z</time>
      </trkpt>
      <trkpt lat="54.966170964762568" lon="26.371783968061209">
        <ele>182.31</ele>
        <time>2011-08-17T07:47:20Z</time>
      </trkpt>
      <trkpt lat="54.966240031644702" lon="26.372014973312616">
        <ele>182.78999999999999</ele>
        <time>2011-08-17T07:47:30Z</time>
      </trkpt>
      <trkpt lat="54.966251011937857" lon="26.372060989961028">
        <ele>183.27000000000001</ele>
        <time>2011-08-17T07:47:33Z</time>
      </trkpt>
      <trkpt lat="54.966334998607635" lon="26.372309010475874">
        <ele>184.22999999999999</ele>
        <time>2011-08-17T07:47:40Z</time>
      </trkpt>
      <trkpt lat="54.966376991942525" lon="26.372437002137303">
        <ele>183.75</ele>
        <time>2011-08-17T07:47:43Z</time>
      </trkpt>
      <trkpt lat="54.966403981670737" lon="26.372526017948985">
        <ele>183.27000000000001</ele>
        <time>2011-08-17T07:47:46Z</time>
      </trkpt>
      <trkpt lat="54.966438012197614" lon="26.372632971033454">
        <ele>183.75</ele>
        <time>2011-08-17T07:47:50Z</time>
      </trkpt>
      <trkpt lat="54.966487968340516" lon="26.372779989615083">
        <ele>182.78999999999999</ele>
        <time>2011-08-17T07:47:55Z</time>
      </trkpt>
      <trkpt lat="54.966586958616972" lon="26.372991967946291">
        <ele>182.78999999999999</ele>
        <time>2011-08-17T07:48:08Z</time>
      </trkpt>
      <trkpt lat="54.966610008850694" lon="26.373036978766322">
        <ele>182.78999999999999</ele>
        <time>2011-08-17T07:48:19Z</time>
      </trkpt>
      <trkpt lat="54.966750992462039" lon="26.373550035059452">
        <ele>181.83000000000001</ele>
        <time>2011-08-17T07:48:30Z</time>
      </trkpt>
      <trkpt lat="54.966785022988915" lon="26.373670985922217">
        <ele>182.31</ele>
        <time>2011-08-17T07:48:33Z</time>
      </trkpt>
      <trkpt lat="54.966865992173553" lon="26.373920012265444">
        <ele>184.71000000000001</ele>
        <time>2011-08-17T07:48:41Z</time>
      </trkpt>
      <trkpt lat="54.967051986604929" lon="26.374461986124516">
        <ele>188.08000000000001</ele>
        <time>2011-08-17T07:48:56Z</time>
      </trkpt>
      <trkpt lat="54.967090962454677" lon="26.37453499250114">
        <ele>188.56</ele>
        <time>2011-08-17T07:48:59Z</time>
      </trkpt>
      <trkpt lat="54.967196993529797" lon="26.374721992760897">
        <ele>190.47999999999999</ele>
        <time>2011-08-17T07:49:08Z</time>
      </trkpt>
      <trkpt lat="54.967243010178208" lon="26.374759962782264">
        <ele>191.44</ele>
        <time>2011-08-17T07:49:16Z</time>
      </trkpt>
      <trkpt lat="54.967190036550164" lon="26.374848978593946">
        <ele>192.88</ele>
        <time>2011-08-17T07:49:21Z</time>
      </trkpt>
      <trkpt lat="54.967063972726464" lon="26.375160031020641">
        <ele>194.31999999999999</ele>
        <time>2011-08-17T07:49:31Z</time>
      </trkpt>
      <trkpt lat="54.967045029625297" lon="26.375291962176561">
        <ele>194.80000000000001</ele>
        <time>2011-08-17T07:49:35Z</time>
      </trkpt>
      <trkpt lat="54.967014016583562" lon="26.375392964109778">
        <ele>195.28</ele>
        <time>2011-08-17T07:49:39Z</time>
      </trkpt>
      <trkpt lat="54.966994989663363" lon="26.375522967427969">
        <ele>196.25</ele>
        <time>2011-08-17T07:49:43Z</time>
      </trkpt>
      <trkpt lat="54.966979986056685" lon="26.375625981017947">
        <ele>196.72999999999999</ele>
        <time>2011-08-17T07:49:46Z</time>
      </trkpt>
      <trkpt lat="54.966918965801597" lon="26.375793032348156">
        <ele>198.65000000000001</ele>
        <time>2011-08-17T07:49:55Z</time>
      </trkpt>
      <trkpt lat="54.966895999386907" lon="26.37586796656251">
        <ele>198.16999999999999</ele>
        <time>2011-08-17T07:49:57Z</time>
      </trkpt>
      <trkpt lat="54.966831039637327" lon="26.376122022047639">
        <ele>197.69</ele>
        <time>2011-08-17T07:50:03Z</time>
      </trkpt>
      <trkpt lat="54.966720985248685" lon="26.376414969563484">
        <ele>199.61000000000001</ele>
        <time>2011-08-17T07:50:13Z</time>
      </trkpt>
      <trkpt lat="54.966578995808959" lon="26.376862982288003">
        <ele>200.09</ele>
        <time>2011-08-17T07:50:25Z</time>
      </trkpt>
      <trkpt lat="54.966442035511136" lon="26.377230025827885">
        <ele>201.53</ele>
        <time>2011-08-17T07:50:36Z</time>
      </trkpt>
      <trkpt lat="54.966309014707804" lon="26.377534959465265">
        <ele>202.00999999999999</ele>
        <time>2011-08-17T07:50:45Z</time>
      </trkpt>
      <trkpt lat="54.966209018602967" lon="26.37803602963686">
        <ele>202.00999999999999</ele>
        <time>2011-08-17T07:50:57Z</time>
      </trkpt>
      <trkpt lat="54.966201977804303" lon="26.378149017691612">
        <ele>201.53</ele>
        <time>2011-08-17T07:50:59Z</time>
      </trkpt>
      <trkpt lat="54.966212958097458" lon="26.378494016826153">
        <ele>200.09</ele>
        <time>2011-08-17T07:51:04Z</time>
      </trkpt>
      <trkpt lat="54.966206001117826" lon="26.378690991550684">
        <ele>198.16999999999999</ele>
        <time>2011-08-17T07:51:06Z</time>
      </trkpt>
      <trkpt lat="54.966201977804303" lon="26.379006989300251">
        <ele>197.21000000000001</ele>
        <time>2011-08-17T07:51:09Z</time>
      </trkpt>
      <trkpt lat="54.966198038309813" lon="26.379097010940313">
        <ele>196.72999999999999</ele>
        <time>2011-08-17T07:51:10Z</time>
      </trkpt>
      <trkpt lat="54.966174988076091" lon="26.3793929759413">
        <ele>193.84</ele>
        <time>2011-08-17T07:51:14Z</time>
      </trkpt>
      <trkpt lat="54.966186974197626" lon="26.379560027271509">
        <ele>192.40000000000001</ele>
        <time>2011-08-17T07:51:16Z</time>
      </trkpt>
      <trkpt lat="54.966152021661401" lon="26.380093032494187">
        <ele>192.88</ele>
        <time>2011-08-17T07:51:23Z</time>
      </trkpt>
      <trkpt lat="54.966128971427679" lon="26.380183976143599">
        <ele>193.36000000000001</ele>
        <time>2011-08-17T07:51:25Z</time>
      </trkpt>
      <trkpt lat="54.966106005012989" lon="26.3805500138551">
        <ele>194.31999999999999</ele>
        <time>2011-08-17T07:51:35Z</time>
      </trkpt>
      <trkpt lat="54.966102987527847" lon="26.380588989704847">
        <ele>194.31999999999999</ele>
        <time>2011-08-17T07:51:53Z</time>
      </trkpt>
      <trkpt lat="54.966098964214325" lon="26.380606004968286">
        <ele>193.84</ele>
        <time>2011-08-17T07:52:25Z</time>
      </trkpt>
      <trkpt lat="54.966098964214325" lon="26.380606004968286">
        <ele>193.84</ele>
        <time>2011-08-17T07:52:39Z</time>
      </trkpt>
      <trkpt lat="54.966110028326511" lon="26.380693009123206">
        <ele>194.31999999999999</ele>
        <time>2011-08-17T07:52:42Z</time>
      </trkpt>
      <trkpt lat="54.966206001117826" lon="26.381014036014676">
        <ele>196.72999999999999</ele>
        <time>2011-08-17T07:52:52Z</time>
      </trkpt>
      <trkpt lat="54.966240031644702" lon="26.381386024877429">
        <ele>197.21000000000001</ele>
        <time>2011-08-17T07:53:03Z</time>
      </trkpt>
      <trkpt lat="54.966309014707804" lon="26.381869995966554">
        <ele>197.21000000000001</ele>
        <time>2011-08-17T07:53:14Z</time>
      </trkpt>
      <trkpt lat="54.966328041628003" lon="26.381982984021306">
        <ele>197.69</ele>
        <time>2011-08-17T07:53:17Z</time>
      </trkpt>
      <trkpt lat="54.966403981670737" lon="26.382265035063028">
        <ele>200.56999999999999</ele>
        <time>2011-08-17T07:53:24Z</time>
      </trkpt>
      <trkpt lat="54.966396018862724" lon="26.382556976750493">
        <ele>202.00999999999999</ele>
        <time>2011-08-17T07:53:33Z</time>
      </trkpt>
      <trkpt lat="54.966393001377583" lon="26.382886972278357">
        <ele>202.97999999999999</ele>
        <time>2011-08-17T07:53:40Z</time>
      </trkpt>
      <trkpt lat="54.966346984729171" lon="26.383277988061309">
        <ele>202.97999999999999</ele>
        <time>2011-08-17T07:53:52Z</time>
      </trkpt>
      <trkpt lat="54.966351008042693" lon="26.383299026638269">
        <ele>202.97999999999999</ele>
        <time>2011-08-17T07:53:53Z</time>
      </trkpt>
      <trkpt lat="54.96636601164937" lon="26.383719965815544">
        <ele>202.49000000000001</ele>
        <time>2011-08-17T07:54:02Z</time>
      </trkpt>
      <trkpt lat="54.96636601164937" lon="26.383761959150434">
        <ele>202.49000000000001</ele>
        <time>2011-08-17T07:54:03Z</time>
      </trkpt>
      <trkpt lat="54.966376991942525" lon="26.384047027677298">
        <ele>202.97999999999999</ele>
        <time>2011-08-17T07:54:11Z</time>
      </trkpt>
      <trkpt lat="54.96638503856957" lon="26.384190022945404">
        <ele>202.97999999999999</ele>
        <time>2011-08-17T07:54:16Z</time>
      </trkpt>
      <trkpt lat="54.966225028038025" lon="26.38456704095006">
        <ele>203.46000000000001</ele>
        <time>2011-08-17T07:54:27Z</time>
      </trkpt>
      <trkpt lat="54.966132994741201" lon="26.384656978771091">
        <ele>202.97999999999999</ele>
        <time>2011-08-17T07:54:31Z</time>
      </trkpt>
      <trkpt lat="54.966080021113157" lon="26.384706012904644">
        <ele>202.97999999999999</ele>
        <time>2011-08-17T07:54:33Z</time>
      </trkpt>
      <trkpt lat="54.965899977833033" lon="26.384885972365737">
        <ele>202.49000000000001</ele>
        <time>2011-08-17T07:54:41Z</time>
      </trkpt>
      <trkpt lat="54.965800987556577" lon="26.38504397124052">
        <ele>202.97999999999999</ele>
        <time>2011-08-17T07:54:51Z</time>
      </trkpt>
      <trkpt lat="54.965800987556577" lon="26.38504397124052">
        <ele>202.49000000000001</ele>
        <time>2011-08-17T07:55:09Z</time>
      </trkpt>
      <trkpt lat="54.965796964243054" lon="26.385047994554043">
        <ele>202.49000000000001</ele>
        <time>2011-08-17T07:55:43Z</time>
      </trkpt>
      <trkpt lat="54.965796964243054" lon="26.385047994554043">
        <ele>202.49000000000001</ele>
        <time>2011-08-17T07:56:11Z</time>
      </trkpt>
      <trkpt lat="54.965796964243054" lon="26.385047994554043">
        <ele>202.97999999999999</ele>
        <time>2011-08-17T07:56:43Z</time>
      </trkpt>
      <trkpt lat="54.965794030576944" lon="26.385058974847198">
        <ele>203.46000000000001</ele>
        <time>2011-08-17T07:57:07Z</time>
      </trkpt>
      <trkpt lat="54.965701997280121" lon="26.385080013424158">
        <ele>203.46000000000001</ele>
        <time>2011-08-17T07:57:22Z</time>
      </trkpt>
      <trkpt lat="54.965675007551908" lon="26.38506299816072">
        <ele>202.97999999999999</ele>
        <time>2011-08-17T07:57:29Z</time>
      </trkpt>
      <trkpt lat="54.965576017275453" lon="26.384981023147702">
        <ele>202.49000000000001</ele>
        <time>2011-08-17T07:57:38Z</time>
      </trkpt>
      <trkpt lat="54.965552967041731" lon="26.384915979579091">
        <ele>202.97999999999999</ele>
        <time>2011-08-17T07:57:41Z</time>
      </trkpt>
      <trkpt lat="54.965508040040731" lon="26.38478497043252">
        <ele>202.97999999999999</ele>
        <time>2011-08-17T07:57:48Z</time>
      </trkpt>
      <trkpt lat="54.965504016727209" lon="26.384691009297967">
        <ele>203.46000000000001</ele>
        <time>2011-08-17T07:58:03Z</time>
      </trkpt>
      <trkpt lat="54.965504016727209" lon="26.384688997641206">
        <ele>202.97999999999999</ele>
        <time>2011-08-17T07:58:39Z</time>
      </trkpt>
      <trkpt lat="54.965508040040731" lon="26.384688997641206">
        <ele>203.94</ele>
        <time>2011-08-17T07:59:15Z</time>
      </trkpt>
      <trkpt lat="54.965508040040731" lon="26.384688997641206">
        <ele>204.41999999999999</ele>
        <time>2011-08-17T07:59:49Z</time>
      </trkpt>
      <trkpt lat="54.965508040040731" lon="26.384686985984445">
        <ele>204.41999999999999</ele>
        <time>2011-08-17T08:00:23Z</time>
      </trkpt>
      <trkpt lat="54.965508040040731" lon="26.384685980156064">
        <ele>204.41999999999999</ele>
        <time>2011-08-17T08:01:01Z</time>
      </trkpt>
      <trkpt lat="54.965504016727209" lon="26.384683968499303">
        <ele>204.41999999999999</ele>
        <time>2011-08-17T08:01:37Z</time>
      </trkpt>
      <trkpt lat="54.965504016727209" lon="26.384680029004812">
        <ele>203.94</ele>
        <time>2011-08-17T08:02:14Z</time>
      </trkpt>
      <trkpt lat="54.965508040040731" lon="26.384683968499303">
        <ele>204.41999999999999</ele>
        <time>2011-08-17T08:02:48Z</time>
      </trkpt>
      <trkpt lat="54.965508040040731" lon="26.384686985984445">
        <ele>204.41999999999999</ele>
        <time>2011-08-17T08:03:21Z</time>
      </trkpt>
      <trkpt lat="54.965508040040731" lon="26.384686985984445">
        <ele>204.41999999999999</ele>
        <time>2011-08-17T08:03:52Z</time>
      </trkpt>
      <trkpt lat="54.965480966493487" lon="26.384654967114329">
        <ele>203.94</ele>
        <time>2011-08-17T08:03:55Z</time>
      </trkpt>
      <trkpt lat="54.965401003137231" lon="26.384639963507652">
        <ele>202.97999999999999</ele>
        <time>2011-08-17T08:04:05Z</time>
      </trkpt>
      <trkpt lat="54.965393040329218" lon="26.384623032063246">
        <ele>202.49000000000001</ele>
        <time>2011-08-17T08:04:20Z</time>
      </trkpt>
      <trkpt lat="54.965350963175297" lon="26.384595958516002">
        <ele>199.61000000000001</ele>
        <time>2011-08-17T08:04:34Z</time>
      </trkpt>
      <trkpt lat="54.965350963175297" lon="26.384595958516002">
        <ele>200.09</ele>
        <time>2011-08-17T08:04:57Z</time>
      </trkpt>
      <trkpt lat="54.965305030345917" lon="26.384572992101312">
        <ele>198.65000000000001</ele>
        <time>2011-08-17T08:05:20Z</time>
      </trkpt>
      <trkpt lat="54.965251972898841" lon="26.384579027071595">
        <ele>195.77000000000001</ele>
        <time>2011-08-17T08:05:32Z</time>
      </trkpt>
      <trkpt lat="54.965236969292164" lon="26.384599981829524">
        <ele>195.28</ele>
        <time>2011-08-17T08:05:47Z</time>
      </trkpt>
      <trkpt lat="54.965214002877474" lon="26.384636024013162">
        <ele>193.36000000000001</ele>
        <time>2011-08-17T08:06:01Z</time>
      </trkpt>
      <trkpt lat="54.965194975957274" lon="26.384639963507652">
        <ele>192.88</ele>
        <time>2011-08-17T08:06:16Z</time>
      </trkpt>
      <trkpt lat="54.965182989835739" lon="26.3846530392766">
        <ele>191.44</ele>
        <time>2011-08-17T08:06:33Z</time>
      </trkpt>
      <trkpt lat="54.965167986229062" lon="26.3846530392766">
        <ele>190.96000000000001</ele>
        <time>2011-08-17T08:06:48Z</time>
      </trkpt>
      <trkpt lat="54.965148959308863" lon="26.384667959064245">
        <ele>189.03999999999999</ele>
        <time>2011-08-17T08:07:04Z</time>
      </trkpt>
      <trkpt lat="54.965091962367296" lon="26.384725961834192">
        <ele>187.11000000000001</ele>
        <time>2011-08-17T08:07:16Z</time>
      </trkpt>
      <trkpt lat="54.965061033144593" lon="26.384737025946379">
        <ele>185.66999999999999</ele>
        <time>2011-08-17T08:07:32Z</time>
      </trkpt>
      <trkpt lat="54.965007975697517" lon="26.384737025946379">
        <ele>183.75</ele>
        <time>2011-08-17T08:07:47Z</time>
      </trkpt>
      <trkpt lat="54.964943015947938" lon="26.384782958775759">
        <ele>182.78999999999999</ele>
        <time>2011-08-17T08:08:00Z</time>
      </trkpt>
      <trkpt lat="54.964828016236424" lon="26.384777007624507">
        <ele>181.34999999999999</ele>
        <time>2011-08-17T08:08:11Z</time>
      </trkpt>
      <trkpt lat="54.964747969061136" lon="26.384788993746042">
        <ele>180.87</ele>
        <time>2011-08-17T08:08:14Z</time>
      </trkpt>
      <trkpt lat="54.964507995173335" lon="26.384812965989113">
        <ele>179.90000000000001</ele>
        <time>2011-08-17T08:08:24Z</time>
      </trkpt>
      <trkpt lat="54.964443035423756" lon="26.384803997352719">
        <ele>180.38</ele>
        <time>2011-08-17T08:08:26Z</time>
      </trkpt>
      <trkpt lat="54.964314037933946" lon="26.384654967114329">
        <ele>178.94</ele>
        <time>2011-08-17T08:08:38Z</time>
      </trkpt>
      <trkpt lat="54.964314037933946" lon="26.384649015963078">
        <ele>178.94</ele>
        <time>2011-08-17T08:09:04Z</time>
      </trkpt>
      <trkpt lat="54.964314037933946" lon="26.384651027619839">
        <ele>178.94</ele>
        <time>2011-08-17T08:09:29Z</time>
      </trkpt>
      <trkpt lat="54.964314037933946" lon="26.384651027619839">
        <ele>178.94</ele>
        <time>2011-08-17T08:09:42Z</time>
      </trkpt>
      <trkpt lat="54.964294005185366" lon="26.384705007076263">
        <ele>178.46000000000001</ele>
        <time>2011-08-17T08:09:47Z</time>
      </trkpt>
      <trkpt lat="54.964355025440454" lon="26.384851019829512">
        <ele>179.41999999999999</ele>
        <time>2011-08-17T08:09:56Z</time>
      </trkpt>
      <trkpt lat="54.964362988248467" lon="26.384984962642193">
        <ele>179.41999999999999</ele>
        <time>2011-08-17T08:10:03Z</time>
      </trkpt>
      <trkpt lat="54.964305991306901" lon="26.385210016742349">
        <ele>177.5</ele>
        <time>2011-08-17T08:10:12Z</time>
      </trkpt>
      <trkpt lat="54.964298028498888" lon="26.385331973433495">
        <ele>176.06</ele>
        <time>2011-08-17T08:10:15Z</time>
      </trkpt>
      <trkpt lat="54.964207001030445" lon="26.385544035583735">
        <ele>174.13999999999999</ele>
        <time>2011-08-17T08:10:24Z</time>
      </trkpt>
      <trkpt lat="54.964207001030445" lon="26.385608995333314">
        <ele>173.66</ele>
        <time>2011-08-17T08:10:35Z</time>
      </trkpt>
      <trkpt lat="54.964207001030445" lon="26.385608995333314">
        <ele>173.16999999999999</ele>
        <time>2011-08-17T08:10:58Z</time>
      </trkpt>
      <trkpt lat="54.964202977716923" lon="26.385606983676553">
        <ele>173.16999999999999</ele>
        <time>2011-08-17T08:11:27Z</time>
      </trkpt>
      <trkpt lat="54.964207001030445" lon="26.385606983676553">
        <ele>172.69</ele>
        <time>2011-08-17T08:12:02Z</time>
      </trkpt>
      <trkpt lat="54.964207001030445" lon="26.385608995333314">
        <ele>173.16999999999999</ele>
        <time>2011-08-17T08:12:33Z</time>
      </trkpt>
      <trkpt lat="54.964207001030445" lon="26.385608995333314">
        <ele>172.69</ele>
        <time>2011-08-17T08:13:08Z</time>
      </trkpt>
      <trkpt lat="54.964211024343967" lon="26.385614024475217">
        <ele>173.16999999999999</ele>
        <time>2011-08-17T08:13:44Z</time>
      </trkpt>
      <trkpt lat="54.964214041829109" lon="26.385616036131978">
        <ele>172.69</ele>
        <time>2011-08-17T08:14:20Z</time>
      </trkpt>
      <trkpt lat="54.9642179813236" lon="26.385626010596752">
        <ele>173.16999999999999</ele>
        <time>2011-08-17T08:14:47Z</time>
      </trkpt>
      <trkpt lat="54.964211024343967" lon="26.385628022253513">
        <ele>173.16999999999999</ele>
        <time>2011-08-17T08:15:13Z</time>
      </trkpt>
      <trkpt lat="54.964180011302233" lon="26.385636990889907">
        <ele>174.13999999999999</ele>
        <time>2011-08-17T08:15:29Z</time>
      </trkpt>
      <trkpt lat="54.964096024632454" lon="26.385616036131978">
        <ele>173.66</ele>
        <time>2011-08-17T08:15:42Z</time>
      </trkpt>
      <trkpt lat="54.963942971080542" lon="26.385611006990075">
        <ele>174.13999999999999</ele>
        <time>2011-08-17T08:15:52Z</time>
      </trkpt>
      <trkpt lat="54.963927967473865" lon="26.385616036131978">
        <ele>174.13999999999999</ele>
        <time>2011-08-17T08:15:53Z</time>
      </trkpt>
      <trkpt lat="54.963768040761352" lon="26.385584017261863">
        <ele>176.06</ele>
        <time>2011-08-17T08:16:07Z</time>
      </trkpt>
      <trkpt lat="54.963650023564696" lon="26.385505981743336">
        <ele>178.94</ele>
        <time>2011-08-17T08:16:22Z</time>
      </trkpt>
      <trkpt lat="54.963623033836484" lon="26.385501958429813">
        <ele>178.94</ele>
        <time>2011-08-17T08:16:27Z</time>
      </trkpt>
      <trkpt lat="54.963439973071218" lon="26.385530037805438">
        <ele>178.46000000000001</ele>
        <time>2011-08-17T08:16:37Z</time>
      </trkpt>
      <trkpt lat="54.963322039693594" lon="26.385601032525301">
        <ele>178.46000000000001</ele>
        <time>2011-08-17T08:16:43Z</time>
      </trkpt>
      <trkpt lat="54.963219026103616" lon="26.385628022253513">
        <ele>178.46000000000001</ele>
        <time>2011-08-17T08:16:47Z</time>
      </trkpt>
      <trkpt lat="54.962990032508969" lon="26.385698011144996">
        <ele>178.46000000000001</ele>
        <time>2011-08-17T08:16:58Z</time>
      </trkpt>
      <trkpt lat="54.962893975898623" lon="26.385818039998412">
        <ele>178.94</ele>
        <time>2011-08-17T08:17:03Z</time>
      </trkpt>
      <trkpt lat="54.962757015600801" lon="26.385995987802744">
        <ele>179.41999999999999</ele>
        <time>2011-08-17T08:17:10Z</time>
      </trkpt>
      <trkpt lat="54.962700018659234" lon="26.386019038036466">
        <ele>179.90000000000001</ele>
        <time>2011-08-17T08:17:13Z</time>
      </trkpt>
      <trkpt lat="54.962612008675933" lon="26.386232022196054">
        <ele>180.38</ele>
        <time>2011-08-17T08:17:19Z</time>
      </trkpt>
      <trkpt lat="54.962559035047889" lon="26.386456992477179">
        <ele>181.34999999999999</ele>
        <time>2011-08-17T08:17:24Z</time>
      </trkpt>
      <trkpt lat="54.962341021746397" lon="26.387007012963295">
        <ele>179.90000000000001</ele>
        <time>2011-08-17T08:17:37Z</time>
      </trkpt>
      <trkpt lat="54.962161984294653" lon="26.387486038729548">
        <ele>177.97999999999999</ele>
        <time>2011-08-17T08:17:43Z</time>
      </trkpt>
      <trkpt lat="54.961864007636905" lon="26.388142006471753">
        <ele>177.5</ele>
        <time>2011-08-17T08:17:54Z</time>
      </trkpt>
      <trkpt lat="54.961657980456948" lon="26.388427997007966">
        <ele>178.46000000000001</ele>
        <time>2011-08-17T08:18:04Z</time>
      </trkpt>
      <trkpt lat="54.961600983515382" lon="26.388504020869732">
        <ele>178.46000000000001</ele>
        <time>2011-08-17T08:18:09Z</time>
      </trkpt>
      <trkpt lat="54.961459999904037" lon="26.388603011146188">
        <ele>177.5</ele>
        <time>2011-08-17T08:18:14Z</time>
      </trkpt>
      <trkpt lat="54.961376013234258" lon="26.388598987832665">
        <ele>177.02000000000001</ele>
        <time>2011-08-17T08:18:16Z</time>
      </trkpt>
      <trkpt lat="54.961238969117403" lon="26.388634024187922">
        <ele>177.97999999999999</ele>
        <time>2011-08-17T08:18:21Z</time>
      </trkpt>
      <trkpt lat="54.961178032681346" lon="26.388662019744515">
        <ele>176.53999999999999</ele>
        <time>2011-08-17T08:18:24Z</time>
      </trkpt>
      <trkpt lat="54.961127992719412" lon="26.388704013079405">
        <ele>178.46000000000001</ele>
        <time>2011-08-17T08:18:27Z</time>
      </trkpt>
      <trkpt lat="54.961070995777845" lon="26.388785988092422">
        <ele>178.94</ele>
        <time>2011-08-17T08:18:31Z</time>
      </trkpt>
      <trkpt lat="54.96097200550139" lon="26.389098968356848">
        <ele>177.97999999999999</ele>
        <time>2011-08-17T08:18:39Z</time>
      </trkpt>
      <trkpt lat="54.96097200550139" lon="26.389142973348498">
        <ele>178.94</ele>
        <time>2011-08-17T08:18:40Z</time>
      </trkpt>
      <trkpt lat="54.960949039086699" lon="26.389634991064668">
        <ele>177.97999999999999</ele>
        <time>2011-08-17T08:18:52Z</time>
      </trkpt>
      <trkpt lat="54.96095297858119" lon="26.389647983014584">
        <ele>177.97999999999999</ele>
        <time>2011-08-17T08:18:53Z</time>
      </trkpt>
      <trkpt lat="54.960960019379854" lon="26.389935985207558">
        <ele>178.46000000000001</ele>
        <time>2011-08-17T08:18:59Z</time>
      </trkpt>
      <trkpt lat="54.960960019379854" lon="26.389947971329093">
        <ele>177.97999999999999</ele>
        <time>2011-08-17T08:19:00Z</time>
      </trkpt>
      <trkpt lat="54.960910985246301" lon="26.390181994065642">
        <ele>177.97999999999999</ele>
        <time>2011-08-17T08:19:05Z</time>
      </trkpt>
      <trkpt lat="54.960853988304734" lon="26.390358014032245">
        <ele>177.97999999999999</ele>
        <time>2011-08-17T08:19:08Z</time>
      </trkpt>
      <trkpt lat="54.960723984986544" lon="26.390910968184471">
        <ele>177.97999999999999</ele>
        <time>2011-08-17T08:19:16Z</time>
      </trkpt>
      <trkpt lat="54.960692971944809" lon="26.390958996489644">
        <ele>177.97999999999999</ele>
        <time>2011-08-17T08:19:18Z</time>
      </trkpt>
      <trkpt lat="54.960505971685052" lon="26.391153037548065">
        <ele>177.02000000000001</ele>
        <time>2011-08-17T08:19:26Z</time>
      </trkpt>
      <trkpt lat="54.960433971136808" lon="26.391163012012839">
        <ele>176.06</ele>
        <time>2011-08-17T08:19:28Z</time>
      </trkpt>
      <trkpt lat="54.960396001115441" lon="26.391154965385795">
        <ele>175.58000000000001</ele>
        <time>2011-08-17T08:19:29Z</time>
      </trkpt>
      <trkpt lat="54.960300028324127" lon="26.391154965385795">
        <ele>175.09999999999999</ele>
        <time>2011-08-17T08:19:32Z</time>
      </trkpt>
      <trkpt lat="54.960044967010617" lon="26.391009958460927">
        <ele>176.06</ele>
        <time>2011-08-17T08:19:44Z</time>
      </trkpt>
      <trkpt lat="54.959948994219303" lon="26.390938041731715">
        <ele>177.02000000000001</ele>
        <time>2011-08-17T08:19:48Z</time>
      </trkpt>
      <trkpt lat="54.959648000076413" lon="26.390837039798498">
        <ele>177.97999999999999</ele>
        <time>2011-08-17T08:20:00Z</time>
      </trkpt>
      <trkpt lat="54.959347005933523" lon="26.39082002453506">
        <ele>176.53999999999999</ele>
        <time>2011-08-17T08:20:10Z</time>
      </trkpt>
      <trkpt lat="54.959243992343545" lon="26.390798985958099">
        <ele>174.13999999999999</ele>
        <time>2011-08-17T08:20:16Z</time>
      </trkpt>
      <trkpt lat="54.958907961845398" lon="26.390818012878299">
        <ele>171.25</ele>
        <time>2011-08-17T08:20:26Z</time>
      </trkpt>
      <trkpt lat="54.958801008760929" lon="26.39082295820117">
        <ele>171.25</ele>
        <time>2011-08-17T08:20:30Z</time>
      </trkpt>
      <trkpt lat="54.958621971309185" lon="26.390840979292989">
        <ele>170.77000000000001</ele>
        <time>2011-08-17T08:20:39Z</time>
      </trkpt>
      <trkpt lat="54.95861099101603" lon="26.390840979292989">
        <ele>171.25</ele>
        <time>2011-08-17T08:20:40Z</time>
      </trkpt>
      <trkpt lat="54.958374034613371" lon="26.390905017033219">
        <ele>171.72999999999999</ele>
        <time>2011-08-17T08:20:51Z</time>
      </trkpt>
      <trkpt lat="54.958350984379649" lon="26.390899987891316">
        <ele>171.72999999999999</ele>
        <time>2011-08-17T08:20:52Z</time>
      </trkpt>
      <trkpt lat="54.95811503380537" lon="26.390798985958099">
        <ele>172.69</ele>
        <time>2011-08-17T08:21:03Z</time>
      </trkpt>
      <trkpt lat="54.958042027428746" lon="26.390705024823546">
        <ele>171.72999999999999</ele>
        <time>2011-08-17T08:21:08Z</time>
      </trkpt>
      <trkpt lat="54.958042027428746" lon="26.390683986246586">
        <ele>171.25</ele>
        <time>2011-08-17T08:21:09Z</time>
      </trkpt>
      <trkpt lat="54.957909006625414" lon="26.390606034547091">
        <ele>171.25</ele>
        <time>2011-08-17T08:21:23Z</time>
      </trkpt>
      <trkpt lat="54.957909006625414" lon="26.390606034547091">
        <ele>170.77000000000001</ele>
        <time>2011-08-17T08:21:53Z</time>
      </trkpt>
      <trkpt lat="54.957873970270157" lon="26.390591030940413">
        <ele>170.77000000000001</ele>
        <time>2011-08-17T08:22:14Z</time>
      </trkpt>
      <trkpt lat="54.957774979993701" lon="26.390479970723391">
        <ele>169.81</ele>
        <time>2011-08-17T08:22:26Z</time>
      </trkpt>
      <trkpt lat="54.957756036892533" lon="26.390459015965462">
        <ele>169.81</ele>
        <time>2011-08-17T08:22:39Z</time>
      </trkpt>
      <trkpt lat="54.957759976387024" lon="26.390471002086997">
        <ele>169.81</ele>
        <time>2011-08-17T08:23:13Z</time>
      </trkpt>
      <trkpt lat="54.957759976387024" lon="26.390471002086997">
        <ele>170.28999999999999</ele>
        <time>2011-08-17T08:23:45Z</time>
      </trkpt>
      <trkpt lat="54.957759976387024" lon="26.390471002086997">
        <ele>170.28999999999999</ele>
        <time>2011-08-17T08:24:13Z</time>
      </trkpt>
      <trkpt lat="54.957759976387024" lon="26.390466978773475">
        <ele>170.28999999999999</ele>
        <time>2011-08-17T08:24:45Z</time>
      </trkpt>
      <trkpt lat="54.957759976387024" lon="26.390468990430236">
        <ele>170.28999999999999</ele>
        <time>2011-08-17T08:25:16Z</time>
      </trkpt>
      <trkpt lat="54.957759976387024" lon="26.390474019572139">
        <ele>169.81</ele>
        <time>2011-08-17T08:25:52Z</time>
      </trkpt>
      <trkpt lat="54.957759976387024" lon="26.390474019572139">
        <ele>169.81</ele>
        <time>2011-08-17T08:26:27Z</time>
      </trkpt>
      <trkpt lat="54.957759976387024" lon="26.390479970723391">
        <ele>169.81</ele>
        <time>2011-08-17T08:27:00Z</time>
      </trkpt>
      <trkpt lat="54.957756036892533" lon="26.390477959066629">
        <ele>170.28999999999999</ele>
        <time>2011-08-17T08:27:34Z</time>
      </trkpt>
      <trkpt lat="54.957756036892533" lon="26.3904760312289">
        <ele>169.33000000000001</ele>
        <time>2011-08-17T08:28:07Z</time>
      </trkpt>
      <trkpt lat="54.957759976387024" lon="26.390466978773475">
        <ele>169.81</ele>
        <time>2011-08-17T08:28:36Z</time>
      </trkpt>
      <trkpt lat="54.957759976387024" lon="26.390468990430236">
        <ele>169.81</ele>
        <time>2011-08-17T08:29:11Z</time>
      </trkpt>
      <trkpt lat="54.957759976387024" lon="26.390468990430236">
        <ele>169.81</ele>
        <time>2011-08-17T08:29:43Z</time>
      </trkpt>
      <trkpt lat="54.957763999700546" lon="26.390464967116714">
        <ele>170.28999999999999</ele>
        <time>2011-08-17T08:30:16Z</time>
      </trkpt>
      <trkpt lat="54.957763999700546" lon="26.390474019572139">
        <ele>168.84999999999999</ele>
        <time>2011-08-17T08:30:42Z</time>
      </trkpt>
      <trkpt lat="54.957767017185688" lon="26.390472007915378">
        <ele>169.81</ele>
        <time>2011-08-17T08:31:16Z</time>
      </trkpt>
      <trkpt lat="54.957767017185688" lon="26.390472007915378">
        <ele>169.33000000000001</ele>
        <time>2011-08-17T08:31:39Z</time>
      </trkpt>
      <trkpt lat="54.95777104049921" lon="26.390483994036913">
        <ele>169.33000000000001</ele>
        <time>2011-08-17T08:32:14Z</time>
      </trkpt>
      <trkpt lat="54.95777104049921" lon="26.390461027622223">
        <ele>169.81</ele>
        <time>2011-08-17T08:32:49Z</time>
      </trkpt>
      <trkpt lat="54.957767017185688" lon="26.390454992651939">
        <ele>169.81</ele>
        <time>2011-08-17T08:33:27Z</time>
      </trkpt>
      <trkpt lat="54.957767017185688" lon="26.390448035672307">
        <ele>169.33000000000001</ele>
        <time>2011-08-17T08:34:08Z</time>
      </trkpt>
      <trkpt lat="54.957763999700546" lon="26.390464967116714">
        <ele>169.81</ele>
        <time>2011-08-17T08:34:43Z</time>
      </trkpt>
      <trkpt lat="54.957759976387024" lon="26.390461027622223">
        <ele>169.33000000000001</ele>
        <time>2011-08-17T08:35:15Z</time>
      </trkpt>
      <trkpt lat="54.957759976387024" lon="26.390461027622223">
        <ele>169.81</ele>
        <time>2011-08-17T08:35:47Z</time>
      </trkpt>
      <trkpt lat="54.957756036892533" lon="26.390459015965462">
        <ele>169.81</ele>
        <time>2011-08-17T08:36:19Z</time>
      </trkpt>
      <trkpt lat="54.957759976387024" lon="26.390472007915378">
        <ele>169.33000000000001</ele>
        <time>2011-08-17T08:36:51Z</time>
      </trkpt>
      <trkpt lat="54.957756036892533" lon="26.390468990430236">
        <ele>169.33000000000001</ele>
        <time>2011-08-17T08:37:24Z</time>
      </trkpt>
      <trkpt lat="54.957747990265489" lon="26.390471002086997">
        <ele>169.33000000000001</ele>
        <time>2011-08-17T08:37:56Z</time>
      </trkpt>
      <trkpt lat="54.957747990265489" lon="26.390471002086997">
        <ele>168.37</ele>
        <time>2011-08-17T08:38:29Z</time>
      </trkpt>
      <trkpt lat="54.957741033285856" lon="26.390461027622223">
        <ele>168.84999999999999</ele>
        <time>2011-08-17T08:39:01Z</time>
      </trkpt>
      <trkpt lat="54.957737009972334" lon="26.390463039278984">
        <ele>168.84999999999999</ele>
        <time>2011-08-17T08:39:31Z</time>
      </trkpt>
      <trkpt lat="54.957737009972334" lon="26.390464967116714">
        <ele>168.37</ele>
        <time>2011-08-17T08:39:52Z</time>
      </trkpt>
      <trkpt lat="54.957737009972334" lon="26.390464967116714">
        <ele>168.37</ele>
        <time>2011-08-17T08:40:22Z</time>
      </trkpt>
      <trkpt lat="54.957737009972334" lon="26.390464967116714">
        <ele>167.88999999999999</ele>
        <time>2011-08-17T08:40:55Z</time>
      </trkpt>
      <trkpt lat="54.957732986658812" lon="26.390472007915378">
        <ele>168.84999999999999</ele>
        <time>2011-08-17T08:41:26Z</time>
      </trkpt>
      <trkpt lat="54.957737009972334" lon="26.390474019572139">
        <ele>168.37</ele>
        <time>2011-08-17T08:41:59Z</time>
      </trkpt>
      <trkpt lat="54.957737009972334" lon="26.390474019572139">
        <ele>168.37</ele>
        <time>2011-08-17T08:42:26Z</time>
      </trkpt>
      <trkpt lat="54.957737009972334" lon="26.390479970723391">
        <ele>168.84999999999999</ele>
        <time>2011-08-17T08:43:02Z</time>
      </trkpt>
      <trkpt lat="54.957737009972334" lon="26.390479970723391">
        <ele>168.84999999999999</ele>
        <time>2011-08-17T08:43:35Z</time>
      </trkpt>
      <trkpt lat="54.957737009972334" lon="26.390481982380152">
        <ele>168.37</ele>
        <time>2011-08-17T08:44:03Z</time>
      </trkpt>
      <trkpt lat="54.957741033285856" lon="26.390479970723391">
        <ele>168.84999999999999</ele>
        <time>2011-08-17T08:44:31Z</time>
      </trkpt>
      <trkpt lat="54.957710020244122" lon="26.390503020957112">
        <ele>169.33000000000001</ele>
        <time>2011-08-17T08:44:50Z</time>
      </trkpt>
      <trkpt lat="54.957607006654143" lon="26.390444012358785">
        <ele>169.33000000000001</ele>
        <time>2011-08-17T08:45:04Z</time>
      </trkpt>
      <trkpt lat="54.957400979474187" lon="26.390265980735421">
        <ele>169.33000000000001</ele>
        <time>2011-08-17T08:45:16Z</time>
      </trkpt>
      <trkpt lat="54.95717198587954" lon="26.389979990199208">
        <ele>168.84999999999999</ele>
        <time>2011-08-17T08:45:28Z</time>
      </trkpt>
      <trkpt lat="54.957156982272863" lon="26.389915030449629">
        <ele>169.33000000000001</ele>
        <time>2011-08-17T08:45:30Z</time>
      </trkpt>
      <trkpt lat="54.95708498172462" lon="26.389676984399557">
        <ele>169.81</ele>
        <time>2011-08-17T08:45:36Z</time>
      </trkpt>
      <trkpt lat="54.956965958699584" lon="26.389395017176867">
        <ele>169.33000000000001</ele>
        <time>2011-08-17T08:45:45Z</time>
      </trkpt>
      <trkpt lat="54.956767978146672" lon="26.38910299167037">
        <ele>169.81</ele>
        <time>2011-08-17T08:45:56Z</time>
      </trkpt>
      <trkpt lat="54.956737970933318" lon="26.389012970030308">
        <ele>169.81</ele>
        <time>2011-08-17T08:45:58Z</time>
      </trkpt>
      <trkpt lat="54.95667602866888" lon="26.388884978368878">
        <ele>169.33000000000001</ele>
        <time>2011-08-17T08:46:01Z</time>
      </trkpt>
      <trkpt lat="54.956508977338672" lon="26.388667970895767">
        <ele>170.28999999999999</ele>
        <time>2011-08-17T08:46:09Z</time>
      </trkpt>
      <trkpt lat="54.956474024802446" lon="26.388620026409626">
        <ele>169.81</ele>
        <time>2011-08-17T08:46:10Z</time>
      </trkpt>
      <trkpt lat="54.956360030919313" lon="26.388491028919816">
        <ele>170.28999999999999</ele>
        <time>2011-08-17T08:46:14Z</time>
      </trkpt>
      <trkpt lat="54.956200020387769" lon="26.388378040865064">
        <ele>169.81</ele>
        <time>2011-08-17T08:46:20Z</time>
      </trkpt>
      <trkpt lat="54.956119973212481" lon="26.388297993689775">
        <ele>169.81</ele>
        <time>2011-08-17T08:46:24Z</time>
      </trkpt>
      <trkpt lat="54.956043027341366" lon="26.388209983706474">
        <ele>170.77000000000001</ele>
        <time>2011-08-17T08:46:30Z</time>
      </trkpt>
      <trkpt lat="54.956016959622502" lon="26.388170002028346">
        <ele>169.81</ele>
        <time>2011-08-17T08:46:32Z</time>
      </trkpt>
      <trkpt lat="54.955935990437865" lon="26.388123985379934">
        <ele>170.77000000000001</ele>
        <time>2011-08-17T08:46:40Z</time>
      </trkpt>
      <trkpt lat="54.955799030140042" lon="26.387961963191628">
        <ele>171.72999999999999</ele>
        <time>2011-08-17T08:46:47Z</time>
      </trkpt>
      <trkpt lat="54.955685036256909" lon="26.387864984571934">
        <ele>171.72999999999999</ele>
        <time>2011-08-17T08:46:50Z</time>
      </trkpt>
      <trkpt lat="54.955593002960086" lon="26.387699022889137">
        <ele>171.25</ele>
        <time>2011-08-17T08:46:55Z</time>
      </trkpt>
      <trkpt lat="54.955307012423873" lon="26.387238018214703">
        <ele>172.21000000000001</ele>
        <time>2011-08-17T08:47:06Z</time>
      </trkpt>
      <trkpt lat="54.955166028812528" lon="26.386956973001361">
        <ele>171.72999999999999</ele>
        <time>2011-08-17T08:47:14Z</time>
      </trkpt>
      <trkpt lat="54.955135015770793" lon="26.38689000159502">
        <ele>171.72999999999999</ele>
        <time>2011-08-17T08:47:16Z</time>
      </trkpt>
      <trkpt lat="54.955124035477638" lon="26.386635024100542">
        <ele>171.25</ele>
        <time>2011-08-17T08:47:22Z</time>
      </trkpt>
      <trkpt lat="54.955109031870961" lon="26.386101013049483">
        <ele>172.21000000000001</ele>
        <time>2011-08-17T08:47:34Z</time>
      </trkpt>
      <trkpt lat="54.955067038536072" lon="26.385734975337982">
        <ele>173.16999999999999</ele>
        <time>2011-08-17T08:47:41Z</time>
      </trkpt>
      <trkpt lat="54.955109031870961" lon="26.385318981483579">
        <ele>174.13999999999999</ele>
        <time>2011-08-17T08:47:53Z</time>
      </trkpt>
      <trkpt lat="54.955093022435904" lon="26.385133992880583">
        <ele>175.58000000000001</ele>
        <time>2011-08-17T08:48:00Z</time>
      </trkpt>
      <trkpt lat="54.955073995515704" lon="26.384964007884264">
        <ele>176.06</ele>
        <time>2011-08-17T08:48:02Z</time>
      </trkpt>
      <trkpt lat="54.955073995515704" lon="26.384851019829512">
        <ele>176.53999999999999</ele>
        <time>2011-08-17T08:48:04Z</time>
      </trkpt>
      <trkpt lat="54.955073995515704" lon="26.384654967114329">
        <ele>176.06</ele>
        <time>2011-08-17T08:48:07Z</time>
      </trkpt>
      <trkpt lat="54.955096961930394" lon="26.384385991841555">
        <ele>176.53999999999999</ele>
        <time>2011-08-17T08:48:12Z</time>
      </trkpt>
      <trkpt lat="54.955219002440572" lon="26.38403101824224">
        <ele>176.53999999999999</ele>
        <time>2011-08-17T08:48:21Z</time>
      </trkpt>
      <trkpt lat="54.955260995775461" lon="26.383904032409191">
        <ele>176.53999999999999</ele>
        <time>2011-08-17T08:48:24Z</time>
      </trkpt>
      <trkpt lat="54.955338025465608" lon="26.383679984137416">
        <ele>177.02000000000001</ele>
        <time>2011-08-17T08:48:29Z</time>
      </trkpt>
      <trkpt lat="54.955413965508342" lon="26.383400028571486">
        <ele>177.5</ele>
        <time>2011-08-17T08:48:36Z</time>
      </trkpt>
      <trkpt lat="54.955588979646564" lon="26.382950004190207">
        <ele>178.46000000000001</ele>
        <time>2011-08-17T08:48:48Z</time>
      </trkpt>
      <trkpt lat="54.955654023215175" lon="26.38278597034514">
        <ele>178.94</ele>
        <time>2011-08-17T08:48:52Z</time>
      </trkpt>
      <trkpt lat="54.955708002671599" lon="26.382607016712427">
        <ele>178.94</ele>
        <time>2011-08-17T08:48:58Z</time>
      </trkpt>
      <trkpt lat="54.955733986571431" lon="26.382523030042648">
        <ele>178.46000000000001</ele>
        <time>2011-08-17T08:49:02Z</time>
      </trkpt>
      <trkpt lat="54.955893997102976" lon="26.382303005084395">
        <ele>178.94</ele>
        <time>2011-08-17T08:49:13Z</time>
      </trkpt>
      <trkpt lat="54.956004973500967" lon="26.38194995932281">
        <ele>179.41999999999999</ele>
        <time>2011-08-17T08:49:21Z</time>
      </trkpt>
      <trkpt lat="54.956028023734689" lon="26.381830014288425">
        <ele>179.41999999999999</ele>
        <time>2011-08-17T08:49:23Z</time>
      </trkpt>
      <trkpt lat="54.956218963488936" lon="26.381271025165915">
        <ele>179.41999999999999</ele>
        <time>2011-08-17T08:49:33Z</time>
      </trkpt>
      <trkpt lat="54.956429013982415" lon="26.380842039361596">
        <ele>178.46000000000001</ele>
        <time>2011-08-17T08:49:44Z</time>
      </trkpt>
      <trkpt lat="54.956538984552026" lon="26.380482036620378">
        <ele>177.5</ele>
        <time>2011-08-17T08:49:54Z</time>
      </trkpt>
      <trkpt lat="54.956626994535327" lon="26.380227981135249">
        <ele>176.53999999999999</ele>
        <time>2011-08-17T08:50:02Z</time>
      </trkpt>
      <trkpt lat="54.956917008385062" lon="26.379596991464496">
        <ele>176.06</ele>
        <time>2011-08-17T08:50:13Z</time>
      </trkpt>
      <trkpt lat="54.957141978666186" lon="26.379129029810429">
        <ele>176.06</ele>
        <time>2011-08-17T08:50:23Z</time>
      </trkpt>
      <trkpt lat="54.957424029707909" lon="26.37853198684752">
        <ele>176.53999999999999</ele>
        <time>2011-08-17T08:50:35Z</time>
      </trkpt>
      <trkpt lat="54.957618992775679" lon="26.378180030733347">
        <ele>175.09999999999999</ele>
        <time>2011-08-17T08:50:44Z</time>
      </trkpt>
      <trkpt lat="54.957805993035436" lon="26.377859003841877">
        <ele>175.58000000000001</ele>
        <time>2011-08-17T08:50:53Z</time>
      </trkpt>
      <trkpt lat="54.957981007173657" lon="26.377676026895642">
        <ele>175.58000000000001</ele>
        <time>2011-08-17T08:51:00Z</time>
      </trkpt>
      <trkpt lat="54.958079997450113" lon="26.377551974728703">
        <ele>175.09999999999999</ele>
        <time>2011-08-17T08:51:14Z</time>
      </trkpt>
      <trkpt lat="54.958079997450113" lon="26.377551974728703">
        <ele>175.58000000000001</ele>
        <time>2011-08-17T08:51:30Z</time>
      </trkpt>
      <trkpt lat="54.958102963864803" lon="26.377507969737053">
        <ele>174.62</ele>
        <time>2011-08-17T08:51:34Z</time>
      </trkpt>
      <trkpt lat="54.958260040730238" lon="26.377210998907685">
        <ele>176.06</ele>
        <time>2011-08-17T08:51:44Z</time>
      </trkpt>
      <trkpt lat="54.958401024341583" lon="26.377076972275972">
        <ele>176.53999999999999</ele>
        <time>2011-08-17T08:51:51Z</time>
      </trkpt>
      <trkpt lat="54.958469001576304" lon="26.376944035291672">
        <ele>177.02000000000001</ele>
        <time>2011-08-17T08:51:55Z</time>
      </trkpt>
      <trkpt lat="54.958552988246083" lon="26.376777989789844">
        <ele>177.02000000000001</ele>
        <time>2011-08-17T08:51:59Z</time>
      </trkpt>
      <trkpt lat="54.958838978782296" lon="26.376389991492033">
        <ele>177.02000000000001</ele>
        <time>2011-08-17T08:52:11Z</time>
      </trkpt>
      <trkpt lat="54.959045005962253" lon="26.376137025654316">
        <ele>177.02000000000001</ele>
        <time>2011-08-17T08:52:18Z</time>
      </trkpt>
      <trkpt lat="54.959175009280443" lon="26.376058990135789">
        <ele>176.53999999999999</ele>
        <time>2011-08-17T08:52:23Z</time>
      </trkpt>
      <trkpt lat="54.959309035912156" lon="26.376042980700731">
        <ele>177.02000000000001</ele>
        <time>2011-08-17T08:52:27Z</time>
      </trkpt>
      <trkpt lat="54.959396040067077" lon="26.375972991809249">
        <ele>177.02000000000001</ele>
        <time>2011-08-17T08:52:31Z</time>
      </trkpt>
      <trkpt lat="54.959579017013311" lon="26.375756990164518">
        <ele>177.97999999999999</ele>
        <time>2011-08-17T08:52:39Z</time>
      </trkpt>
      <trkpt lat="54.959617992863059" lon="26.375724971294403">
        <ele>177.02000000000001</ele>
        <time>2011-08-17T08:52:42Z</time>
      </trkpt>
      <trkpt lat="54.959751013666391" lon="26.375541994348168">
        <ele>177.97999999999999</ele>
        <time>2011-08-17T08:52:46Z</time>
      </trkpt>
      <trkpt lat="54.959965003654361" lon="26.375176962465048">
        <ele>178.46000000000001</ele>
        <time>2011-08-17T08:52:57Z</time>
      </trkpt>
      <trkpt lat="54.960204977542162" lon="26.374888960272074">
        <ele>178.46000000000001</ele>
        <time>2011-08-17T08:53:07Z</time>
      </trkpt>
      <trkpt lat="54.960316037759185" lon="26.374830035492778">
        <ele>178.46000000000001</ele>
        <time>2011-08-17T08:53:12Z</time>
      </trkpt>
      <trkpt lat="54.960345961153507" lon="26.374820983037353">
        <ele>177.97999999999999</ele>
        <time>2011-08-17T08:53:14Z</time>
      </trkpt>
      <trkpt lat="54.960547965019941" lon="26.374695003032684">
        <ele>178.94</ele>
        <time>2011-08-17T08:53:20Z</time>
      </trkpt>
      <trkpt lat="54.960738988593221" lon="26.374703971669078">
        <ele>178.46000000000001</ele>
        <time>2011-08-17T08:53:25Z</time>
      </trkpt>
      <trkpt lat="54.960987009108067" lon="26.374628031626344">
        <ele>179.41999999999999</ele>
        <time>2011-08-17T08:53:33Z</time>
      </trkpt>
      <trkpt lat="54.961060015484691" lon="26.374594001099467">
        <ele>179.41999999999999</ele>
        <time>2011-08-17T08:53:36Z</time>
      </trkpt>
      <trkpt lat="54.961163029074669" lon="26.374508002772927">
        <ele>179.41999999999999</ele>
        <time>2011-08-17T08:53:40Z</time>
      </trkpt>
      <trkpt lat="54.961310969665647" lon="26.374514037743211">
        <ele>178.94</ele>
        <time>2011-08-17T08:53:45Z</time>
      </trkpt>
      <trkpt lat="54.961349023506045" lon="26.374518983066082">
        <ele>178.94</ele>
        <time>2011-08-17T08:53:47Z</time>
      </trkpt>
      <trkpt lat="54.961467962712049" lon="26.37451202608645">
        <ele>178.94</ele>
        <time>2011-08-17T08:53:53Z</time>
      </trkpt>
      <trkpt lat="54.961730986833572" lon="26.374538009986281">
        <ele>178.94</ele>
        <time>2011-08-17T08:54:05Z</time>
      </trkpt>
      <trkpt lat="54.961750013753772" lon="26.374540021643043">
        <ele>178.46000000000001</ele>
        <time>2011-08-17T08:54:06Z</time>
      </trkpt>
      <trkpt lat="54.962124014273286" lon="26.37451202608645">
        <ele>177.97999999999999</ele>
        <time>2011-08-17T08:54:15Z</time>
      </trkpt>
      <trkpt lat="54.962357031181455" lon="26.374330976977944">
        <ele>177.97999999999999</ele>
        <time>2011-08-17T08:54:23Z</time>
      </trkpt>
      <trkpt lat="54.962471025064588" lon="26.374266017228365">
        <ele>178.46000000000001</ele>
        <time>2011-08-17T08:54:27Z</time>
      </trkpt>
      <trkpt lat="54.962810995057225" lon="26.373902997002006">
        <ele>178.94</ele>
        <time>2011-08-17T08:54:40Z</time>
      </trkpt>
      <trkpt lat="54.962924988940358" lon="26.373738963156939">
        <ele>178.46000000000001</ele>
        <time>2011-08-17T08:54:44Z</time>
      </trkpt>
      <trkpt lat="54.963035965338349" lon="26.373449033126235">
        <ele>178.94</ele>
        <time>2011-08-17T08:54:49Z</time>
      </trkpt>
      <trkpt lat="54.963177032768726" lon="26.372845033183694">
        <ele>179.41999999999999</ele>
        <time>2011-08-17T08:55:00Z</time>
      </trkpt>
      <trkpt lat="54.963199999183416" lon="26.372654009610415">
        <ele>179.90000000000001</ele>
        <time>2011-08-17T08:55:04Z</time>
      </trkpt>
      <trkpt lat="54.963183989748359" lon="26.372570022940636">
        <ele>180.38</ele>
        <time>2011-08-17T08:55:06Z</time>
      </trkpt>
      <trkpt lat="54.963210979476571" lon="26.372115975245833">
        <ele>180.38</ele>
        <time>2011-08-17T08:55:14Z</time>
      </trkpt>
      <trkpt lat="54.96312003582716" lon="26.371752033010125">
        <ele>180.38</ele>
        <time>2011-08-17T08:55:20Z</time>
      </trkpt>
      <trkpt lat="54.963065972551703" lon="26.37150602415204">
        <ele>180.38</ele>
        <time>2011-08-17T08:55:24Z</time>
      </trkpt>
      <trkpt lat="54.963023979216814" lon="26.371196983382106">
        <ele>180.87</ele>
        <time>2011-08-17T08:55:32Z</time>
      </trkpt>
      <trkpt lat="54.963138978928328" lon="26.370859025046229">
        <ele>178.94</ele>
        <time>2011-08-17T08:55:37Z</time>
      </trkpt>
      <trkpt lat="54.963104026392102" lon="26.370719969272614">
        <ele>178.94</ele>
        <time>2011-08-17T08:55:42Z</time>
      </trkpt>
      <trkpt lat="54.962818035855889" lon="26.370296012610197">
        <ele>179.41999999999999</ele>
        <time>2011-08-17T08:55:50Z</time>
      </trkpt>
      <trkpt lat="54.962543025612831" lon="26.369978003203869">
        <ele>180.87</ele>
        <time>2011-08-17T08:55:58Z</time>
      </trkpt>
      <trkpt lat="54.962387038394809" lon="26.369719002395868">
        <ele>182.31</ele>
        <time>2011-08-17T08:56:04Z</time>
      </trkpt>
      <trkpt lat="54.962378991767764" lon="26.369431000202894">
        <ele>184.22999999999999</ele>
        <time>2011-08-17T08:56:13Z</time>
      </trkpt>
      <trkpt lat="54.962333980947733" lon="26.369126988574862">
        <ele>184.71000000000001</ele>
        <time>2011-08-17T08:56:21Z</time>
      </trkpt>
      <trkpt lat="54.962299028411508" lon="26.368872011080384">
        <ele>186.63</ele>
        <time>2011-08-17T08:56:30Z</time>
      </trkpt>
      <trkpt lat="54.962131977081299" lon="26.368473032489419">
        <ele>186.63</ele>
        <time>2011-08-17T08:56:41Z</time>
      </trkpt>
      <trkpt lat="54.961913963779807" lon="26.368156028911471">
        <ele>184.22999999999999</ele>
        <time>2011-08-17T08:56:50Z</time>
      </trkpt>
      <trkpt lat="54.96185302734375" lon="26.368038011714816">
        <ele>183.27000000000001</ele>
        <time>2011-08-17T08:56:53Z</time>
      </trkpt>
      <trkpt lat="54.96172696352005" lon="26.367695024237037">
        <ele>182.78999999999999</ele>
        <time>2011-08-17T08:57:03Z</time>
      </trkpt>
      <trkpt lat="54.961669966578484" lon="26.367516992613673">
        <ele>181.83000000000001</ele>
        <time>2011-08-17T08:57:07Z</time>
      </trkpt>
      <trkpt lat="54.961600983515382" lon="26.367151038721204">
        <ele>181.34999999999999</ele>
        <time>2011-08-17T08:57:15Z</time>
      </trkpt>
      <trkpt lat="54.961605006828904" lon="26.367092030122876">
        <ele>181.83000000000001</ele>
        <time>2011-08-17T08:57:16Z</time>
      </trkpt>
      <trkpt lat="54.961642976850271" lon="26.366950962692499">
        <ele>180.38</ele>
        <time>2011-08-17T08:57:19Z</time>
      </trkpt>
      <trkpt lat="54.961666027083993" lon="26.366851972416043">
        <ele>179.41999999999999</ele>
        <time>2011-08-17T08:57:21Z</time>
      </trkpt>
      <trkpt lat="54.961684970185161" lon="26.366730015724897">
        <ele>178.94</ele>
        <time>2011-08-17T08:57:24Z</time>
      </trkpt>
      <trkpt lat="54.961697040125728" lon="26.366598000749946">
        <ele>178.94</ele>
        <time>2011-08-17T08:57:28Z</time>
      </trkpt>
      <trkpt lat="54.961730986833572" lon="26.366503033787012">
        <ele>177.5</ele>
        <time>2011-08-17T08:57:31Z</time>
      </trkpt>
      <trkpt lat="54.961838023737073" lon="26.366404965519905">
        <ele>177.02000000000001</ele>
        <time>2011-08-17T08:57:37Z</time>
      </trkpt>
      <trkpt lat="54.961986970156431" lon="26.366302035748959">
        <ele>177.5</ele>
        <time>2011-08-17T08:57:42Z</time>
      </trkpt>
      <trkpt lat="54.962043967097998" lon="26.36628502048552">
        <ele>177.97999999999999</ele>
        <time>2011-08-17T08:57:44Z</time>
      </trkpt>
      <trkpt lat="54.962321994826198" lon="26.365938009694219">
        <ele>178.94</ele>
        <time>2011-08-17T08:57:56Z</time>
      </trkpt>
      <trkpt lat="54.962341021746397" lon="26.365842958912253">
        <ele>177.97999999999999</ele>
        <time>2011-08-17T08:57:58Z</time>
      </trkpt>
      <trkpt lat="54.962296010926366" lon="26.365509023889899">
        <ele>177.97999999999999</ele>
        <time>2011-08-17T08:58:07Z</time>
      </trkpt>
      <trkpt lat="54.962128037586808" lon="26.365357981994748">
        <ele>178.94</ele>
        <time>2011-08-17T08:58:16Z</time>
      </trkpt>
      <trkpt lat="54.96202502399683" lon="26.365290004760027">
        <ele>178.94</ele>
        <time>2011-08-17T08:58:25Z</time>
      </trkpt>
      <trkpt lat="54.961986970156431" lon="26.36523200199008">
        <ele>178.46000000000001</ele>
        <time>2011-08-17T08:58:32Z</time>
      </trkpt>
      <trkpt lat="54.961979007348418" lon="26.365191014483571">
        <ele>178.94</ele>
        <time>2011-08-17T08:58:34Z</time>
      </trkpt>
      <trkpt lat="54.961967021226883" lon="26.365118008106947">
        <ele>178.94</ele>
        <time>2011-08-17T08:58:37Z</time>
      </trkpt>
      <trkpt lat="54.961964003741741" lon="26.365069979801774">
        <ele>178.46000000000001</ele>
        <time>2011-08-17T08:58:39Z</time>
      </trkpt>
      <trkpt lat="54.961890997365117" lon="26.364920027554035">
        <ele>178.94</ele>
        <time>2011-08-17T08:58:45Z</time>
      </trkpt>
      <trkpt lat="54.961723024025559" lon="26.364495987072587">
        <ele>178.46000000000001</ele>
        <time>2011-08-17T08:58:59Z</time>
      </trkpt>
      <trkpt lat="54.961669966578484" lon="26.364104971289635">
        <ele>180.38</ele>
        <time>2011-08-17T08:59:09Z</time>
      </trkpt>
      <trkpt lat="54.961528982967138" lon="26.363785034045577">
        <ele>180.87</ele>
        <time>2011-08-17T08:59:18Z</time>
      </trkpt>
      <trkpt lat="54.961486989632249" lon="26.363671962171793">
        <ele>181.83000000000001</ele>
        <time>2011-08-17T08:59:21Z</time>
      </trkpt>
      <trkpt lat="54.96138003654778" lon="26.363525027409196">
        <ele>182.78999999999999</ele>
        <time>2011-08-17T08:59:26Z</time>
      </trkpt>
      <trkpt lat="54.961174009367824" lon="26.363321011886001">
        <ele>183.75</ele>
        <time>2011-08-17T08:59:36Z</time>
      </trkpt>
      <trkpt lat="54.961085999384522" lon="26.363207018002868">
        <ele>184.22999999999999</ele>
        <time>2011-08-17T08:59:42Z</time>
      </trkpt>
      <trkpt lat="54.960987009108067" lon="26.36304097250104">
        <ele>185.66999999999999</ele>
        <time>2011-08-17T08:59:50Z</time>
      </trkpt>
      <trkpt lat="54.960957001894712" lon="26.362937958911061">
        <ele>186.15000000000001</ele>
        <time>2011-08-17T08:59:54Z</time>
      </trkpt>
      <trkpt lat="54.960853988304734" lon="26.362737966701388">
        <ele>188.08000000000001</ele>
        <time>2011-08-17T09:00:04Z</time>
      </trkpt>
      <trkpt lat="54.960762038826942" lon="26.362572005018592">
        <ele>190</ele>
        <time>2011-08-17T09:00:12Z</time>
      </trkpt>
      <trkpt lat="54.960677968338132" lon="26.362347034737468">
        <ele>191.91999999999999</ele>
        <time>2011-08-17T09:00:23Z</time>
      </trkpt>
      <trkpt lat="54.960617031902075" lon="26.362186018377542">
        <ele>195.28</ele>
        <time>2011-08-17T09:00:33Z</time>
      </trkpt>
      <trkpt lat="54.960571015253663" lon="26.362097002565861">
        <ele>195.77000000000001</ele>
        <time>2011-08-17T09:00:38Z</time>
      </trkpt>
      <trkpt lat="54.960541008040309" lon="26.362026007845998">
        <ele>195.77000000000001</ele>
        <time>2011-08-17T09:00:41Z</time>
      </trkpt>
      <trkpt lat="54.96047998778522" lon="26.361855017021298">
        <ele>197.21000000000001</ele>
        <time>2011-08-17T09:00:49Z</time>
      </trkpt>
      <trkpt lat="54.960463978350163" lon="26.36173096485436">
        <ele>197.69</ele>
        <time>2011-08-17T09:00:53Z</time>
      </trkpt>
      <trkpt lat="54.960396001115441" lon="26.361615965142846">
        <ele>197.69</ele>
        <time>2011-08-17T09:01:07Z</time>
      </trkpt>
      <trkpt lat="54.960373034700751" lon="26.361573971807957">
        <ele>197.21000000000001</ele>
        <time>2011-08-17T09:01:22Z</time>
      </trkpt>
      <trkpt lat="54.960373034700751" lon="26.361573971807957">
        <ele>196.72999999999999</ele>
        <time>2011-08-17T09:01:51Z</time>
      </trkpt>
      <trkpt lat="54.960369011387229" lon="26.361568020656705">
        <ele>196.25</ele>
        <time>2011-08-17T09:02:18Z</time>
      </trkpt>
      <trkpt lat="54.960364988073707" lon="26.361562991514802">
        <ele>196.72999999999999</ele>
        <time>2011-08-17T09:02:39Z</time>
      </trkpt>
      <trkpt lat="54.96032701805234" lon="26.361413961276412">
        <ele>198.16999999999999</ele>
        <time>2011-08-17T09:02:56Z</time>
      </trkpt>
      <trkpt lat="54.960312014445662" lon="26.361380014568567">
        <ele>197.21000000000001</ele>
        <time>2011-08-17T09:02:58Z</time>
      </trkpt>
      <trkpt lat="54.960261974483728" lon="26.361329974606633">
        <ele>197.69</ele>
        <time>2011-08-17T09:03:12Z</time>
      </trkpt>
      <trkpt lat="54.960213024169207" lon="26.361318994313478">
        <ele>197.21000000000001</ele>
        <time>2011-08-17T09:03:26Z</time>
      </trkpt>
      <trkpt lat="54.960213024169207" lon="26.361318994313478">
        <ele>197.69</ele>
        <time>2011-08-17T09:03:34Z</time>
      </trkpt>
      <trkpt lat="54.959987970069051" lon="26.361320000141859">
        <ele>198.65000000000001</ele>
        <time>2011-08-17T09:03:45Z</time>
      </trkpt>
      <trkpt lat="54.959766017273068" lon="26.361327962949872">
        <ele>198.65000000000001</ele>
        <time>2011-08-17T09:03:55Z</time>
      </trkpt>
      <trkpt lat="54.959483966231346" lon="26.36136400513351">
        <ele>199.61000000000001</ele>
        <time>2011-08-17T09:04:09Z</time>
      </trkpt>
      <trkpt lat="54.959206022322178" lon="26.361454026773572">
        <ele>199.61000000000001</ele>
        <time>2011-08-17T09:04:22Z</time>
      </trkpt>
      <trkpt lat="54.958805032074451" lon="26.361417984589934">
        <ele>199.61000000000001</ele>
        <time>2011-08-17T09:04:34Z</time>
      </trkpt>
      <trkpt lat="54.958370011299849" lon="26.361221009865403">
        <ele>198.65000000000001</ele>
        <time>2011-08-17T09:04:47Z</time>
      </trkpt>
      <trkpt lat="54.958000034093857" lon="26.360949017107487">
        <ele>197.69</ele>
        <time>2011-08-17T09:04:56Z</time>
      </trkpt>
      <trkpt lat="54.957798030227423" lon="26.360716000199318">
        <ele>197.21000000000001</ele>
        <time>2011-08-17T09:05:02Z</time>
      </trkpt>
      <trkpt lat="54.957545986399055" lon="26.3605079613626">
        <ele>196.72999999999999</ele>
        <time>2011-08-17T09:05:08Z</time>
      </trkpt>
      <trkpt lat="54.957442972809076" lon="26.360396984964609">
        <ele>196.72999999999999</ele>
        <time>2011-08-17T09:05:11Z</time>
      </trkpt>
      <trkpt lat="54.957168968394399" lon="26.360100014135242">
        <ele>195.77000000000001</ele>
        <time>2011-08-17T09:05:19Z</time>
      </trkpt>
      <trkpt lat="54.956649960950017" lon="26.359607996419072">
        <ele>196.72999999999999</ele>
        <time>2011-08-17T09:05:33Z</time>
      </trkpt>
      <trkpt lat="54.956511994823813" lon="26.359468018636107">
        <ele>197.21000000000001</ele>
        <time>2011-08-17T09:05:37Z</time>
      </trkpt>
      <trkpt lat="54.956393977627158" lon="26.359383026137948">
        <ele>196.25</ele>
        <time>2011-08-17T09:05:40Z</time>
      </trkpt>
      <trkpt lat="54.955898020416498" lon="26.359029980376363">
        <ele>196.72999999999999</ele>
        <time>2011-08-17T09:05:54Z</time>
      </trkpt>
      <trkpt lat="54.955349005758762" lon="26.358778020367026">
        <ele>196.72999999999999</ele>
        <time>2011-08-17T09:06:08Z</time>
      </trkpt>
      <trkpt lat="54.954535961151123" lon="26.358369989320636">
        <ele>196.72999999999999</ele>
        <time>2011-08-17T09:06:28Z</time>
      </trkpt>
      <trkpt lat="54.953807992860675" lon="26.358008980751038">
        <ele>196.72999999999999</ele>
        <time>2011-08-17T09:06:45Z</time>
      </trkpt>
      <trkpt lat="54.953013975173235" lon="26.357630034908652">
        <ele>195.77000000000001</ele>
        <time>2011-08-17T09:07:02Z</time>
      </trkpt>
      <trkpt lat="54.952914984896779" lon="26.357584018260241">
        <ele>195.28</ele>
        <time>2011-08-17T09:07:04Z</time>
      </trkpt>
      <trkpt lat="54.952197996899486" lon="26.357659958302975">
        <ele>194.31999999999999</ele>
        <time>2011-08-17T09:07:17Z</time>
      </trkpt>
      <trkpt lat="54.951693993061781" lon="26.358169997110963">
        <ele>191.44</ele>
        <time>2011-08-17T09:07:27Z</time>
      </trkpt>
      <trkpt lat="54.950927970930934" lon="26.358978012576699">
        <ele>188.08000000000001</ele>
        <time>2011-08-17T09:07:40Z</time>
      </trkpt>
      <trkpt lat="54.950115010142326" lon="26.359825003892183">
        <ele>185.19</ele>
        <time>2011-08-17T09:07:51Z</time>
      </trkpt>
      <trkpt lat="54.949588961899281" lon="26.360334036871791">
        <ele>181.83000000000001</ele>
        <time>2011-08-17T09:07:57Z</time>
      </trkpt>
      <trkpt lat="54.949070038273931" lon="26.360661014914513">
        <ele>178.94</ele>
        <time>2011-08-17T09:08:02Z</time>
      </trkpt>
      <trkpt lat="54.948180969804525" lon="26.361115984618664">
        <ele>175.58000000000001</ele>
        <time>2011-08-17T09:08:10Z</time>
      </trkpt>
      <trkpt lat="54.947551991790533" lon="26.36166600510478">
        <ele>177.5</ele>
        <time>2011-08-17T09:08:18Z</time>
      </trkpt>
      <trkpt lat="54.947104984894395" lon="26.362262964248657">
        <ele>180.87</ele>
        <time>2011-08-17T09:08:28Z</time>
      </trkpt>
      <trkpt lat="54.946495033800602" lon="26.363131999969482">
        <ele>181.83000000000001</ele>
        <time>2011-08-17T09:08:44Z</time>
      </trkpt>
      <trkpt lat="54.945820039138198" lon="26.364086028188467">
        <ele>181.83000000000001</ele>
        <time>2011-08-17T09:09:03Z</time>
      </trkpt>
      <trkpt lat="54.945129035040736" lon="26.36506101116538">
        <ele>182.31</ele>
        <time>2011-08-17T09:09:21Z</time>
      </trkpt>
      <trkpt lat="54.944987967610359" lon="26.365272989496589">
        <ele>182.31</ele>
        <time>2011-08-17T09:09:25Z</time>
      </trkpt>
      <trkpt lat="54.944939017295837" lon="26.365393018350005">
        <ele>181.83000000000001</ele>
        <time>2011-08-17T09:09:27Z</time>
      </trkpt>
      <trkpt lat="54.94492300786078" lon="26.365458983927965">
        <ele>181.83000000000001</ele>
        <time>2011-08-17T09:09:28Z</time>
      </trkpt>
      <trkpt lat="54.944919990375638" lon="26.365526039153337">
        <ele>182.31</ele>
        <time>2011-08-17T09:09:29Z</time>
      </trkpt>
      <trkpt lat="54.94492300786078" lon="26.365593010559678">
        <ele>182.78999999999999</ele>
        <time>2011-08-17T09:09:30Z</time>
      </trkpt>
      <trkpt lat="54.944939017295837" lon="26.365654030814767">
        <ele>182.31</ele>
        <time>2011-08-17T09:09:31Z</time>
      </trkpt>
      <trkpt lat="54.944957960397005" lon="26.365713039413095">
        <ele>182.31</ele>
        <time>2011-08-17T09:09:32Z</time>
      </trkpt>
      <trkpt lat="54.944976987317204" lon="26.365773975849152">
        <ele>182.78999999999999</ele>
        <time>2011-08-17T09:09:33Z</time>
      </trkpt>
      <trkpt lat="54.945277981460094" lon="26.366674024611712">
        <ele>182.78999999999999</ele>
        <time>2011-08-17T09:09:47Z</time>
      </trkpt>
      <trkpt lat="54.945400021970272" lon="26.366962026804686">
        <ele>183.27000000000001</ele>
        <time>2011-08-17T09:09:52Z</time>
      </trkpt>
      <trkpt lat="54.945422988384962" lon="26.367022963240743">
        <ele>183.27000000000001</ele>
        <time>2011-08-17T09:09:53Z</time>
      </trkpt>
      <trkpt lat="54.945671008899808" lon="26.367728970944881">
        <ele>184.22999999999999</ele>
        <time>2011-08-17T09:10:08Z</time>
      </trkpt>
      <trkpt lat="54.945880975574255" lon="26.36832601390779">
        <ele>184.71000000000001</ele>
        <time>2011-08-17T09:10:24Z</time>
      </trkpt>
      <trkpt lat="54.946055989712477" lon="26.369010983034968">
        <ele>185.19</ele>
        <time>2011-08-17T09:10:40Z</time>
      </trkpt>
      <trkpt lat="54.946097983047366" lon="26.369337039068341">
        <ele>185.19</ele>
        <time>2011-08-17T09:10:53Z</time>
      </trkpt>
      <trkpt lat="54.946082979440689" lon="26.369328992441297">
        <ele>185.66999999999999</ele>
        <time>2011-08-17T09:11:03Z</time>
      </trkpt>
      <trkpt lat="54.945930009707808" lon="26.369382971897721">
        <ele>185.66999999999999</ele>
        <time>2011-08-17T09:11:14Z</time>
      </trkpt>
      <trkpt lat="54.945816015824676" lon="26.369463019073009">
        <ele>187.59</ele>
        <time>2011-08-17T09:11:22Z</time>
      </trkpt>
      <trkpt lat="54.945579981431365" lon="26.369569972157478">
        <ele>189.03999999999999</ele>
        <time>2011-08-17T09:11:36Z</time>
      </trkpt>
      <trkpt lat="54.945587022230029" lon="26.369591010734439">
        <ele>188.08000000000001</ele>
        <time>2011-08-17T09:11:48Z</time>
      </trkpt>
      <trkpt lat="54.945651981979609" lon="26.369549017399549">
        <ele>188.08000000000001</ele>
        <time>2011-08-17T09:11:52Z</time>
      </trkpt>
      <trkpt lat="54.946007039397955" lon="26.369337039068341">
        <ele>185.66999999999999</ele>
        <time>2011-08-17T09:12:06Z</time>
      </trkpt>
      <trkpt lat="54.946030005812645" lon="26.369331004098058">
        <ele>184.71000000000001</ele>
        <time>2011-08-17T09:12:07Z</time>
      </trkpt>
      <trkpt lat="54.946124972775578" lon="26.369349025189877">
        <ele>184.71000000000001</ele>
        <time>2011-08-17T09:12:12Z</time>
      </trkpt>
      <trkpt lat="54.946220023557544" lon="26.369298985227942">
        <ele>184.71000000000001</ele>
        <time>2011-08-17T09:12:16Z</time>
      </trkpt>
      <trkpt lat="54.94644901715219" lon="26.369303008541465">
        <ele>184.22999999999999</ele>
        <time>2011-08-17T09:12:24Z</time>
      </trkpt>
      <trkpt lat="54.946757974103093" lon="26.369179040193558">
        <ele>181.83000000000001</ele>
        <time>2011-08-17T09:12:35Z</time>
      </trkpt>
      <trkpt lat="54.946917984634638" lon="26.369274007156491">
        <ele>181.83000000000001</ele>
        <time>2011-08-17T09:12:44Z</time>
      </trkpt>
      <trkpt lat="54.947014041244984" lon="26.369472993537784">
        <ele>181.83000000000001</ele>
        <time>2011-08-17T09:12:56Z</time>
      </trkpt>
      <trkpt lat="54.947017980739474" lon="26.369487997144461">
        <ele>181.83000000000001</ele>
        <time>2011-08-17T09:13:12Z</time>
      </trkpt>
      <trkpt lat="54.94713599793613" lon="26.369738029316068">
        <ele>181.83000000000001</ele>
        <time>2011-08-17T09:13:21Z</time>
      </trkpt>
      <trkpt lat="54.947441015392542" lon="26.370189981535077">
        <ele>181.83000000000001</ele>
        <time>2011-08-17T09:13:36Z</time>
      </trkpt>
      <trkpt lat="54.947749972343445" lon="26.370630031451583">
        <ele>183.27000000000001</ele>
        <time>2011-08-17T09:13:50Z</time>
      </trkpt>
      <trkpt lat="54.947842005640268" lon="26.371248029172421">
        <ele>182.78999999999999</ele>
        <time>2011-08-17T09:14:04Z</time>
      </trkpt>
      <trkpt lat="54.947837982326746" lon="26.371277030557394">
        <ele>182.78999999999999</ele>
        <time>2011-08-17T09:14:08Z</time>
      </trkpt>
      <trkpt lat="54.94784502312541" lon="26.371325980871916">
        <ele>182.78999999999999</ele>
        <time>2011-08-17T09:14:10Z</time>
      </trkpt>
      <trkpt lat="54.947806969285011" lon="26.371932998299599">
        <ele>184.22999999999999</ele>
        <time>2011-08-17T09:14:25Z</time>
      </trkpt>
      <trkpt lat="54.947788026183844" lon="26.372496010735631">
        <ele>185.66999999999999</ele>
        <time>2011-08-17T09:14:37Z</time>
      </trkpt>
      <trkpt lat="54.947742009535432" lon="26.373034967109561">
        <ele>187.11000000000001</ele>
        <time>2011-08-17T09:14:50Z</time>
      </trkpt>
      <trkpt lat="54.947677971795201" lon="26.37359001673758">
        <ele>189.52000000000001</ele>
        <time>2011-08-17T09:15:04Z</time>
      </trkpt>
      <trkpt lat="54.947593985125422" lon="26.374003998935223">
        <ele>190.96000000000001</ele>
        <time>2011-08-17T09:15:17Z</time>
      </trkpt>
      <trkpt lat="54.947509998455644" lon="26.37421203777194">
        <ele>191.44</ele>
        <time>2011-08-17T09:15:25Z</time>
      </trkpt>
      <trkpt lat="54.947269018739462" lon="26.374404989182949">
        <ele>192.88</ele>
        <time>2011-08-17T09:15:40Z</time>
      </trkpt>
      <trkpt lat="54.947128035128117" lon="26.374461986124516">
        <ele>188.56</ele>
        <time>2011-08-17T09:15:51Z</time>
      </trkpt>
      <trkpt lat="54.947128035128117" lon="26.374461986124516">
        <ele>201.05000000000001</ele>
        <time>2011-08-17T09:15:52Z</time>
      </trkpt>
      <trkpt lat="54.947128035128117" lon="26.374461986124516">
        <ele>193.84</ele>
        <time>2011-08-17T09:15:53Z</time>
      </trkpt>
      <trkpt lat="54.947128035128117" lon="26.374461986124516">
        <ele>192.88</ele>
        <time>2011-08-17T09:16:24Z</time>
      </trkpt>
      <trkpt lat="54.947032984346151" lon="26.37451596558094">
        <ele>193.36000000000001</ele>
        <time>2011-08-17T09:16:35Z</time>
      </trkpt>
      <trkpt lat="54.946682034060359" lon="26.374670024961233">
        <ele>193.36000000000001</ele>
        <time>2011-08-17T09:16:50Z</time>
      </trkpt>
      <trkpt lat="54.946338962763548" lon="26.374796004965901">
        <ele>194.80000000000001</ele>
        <time>2011-08-17T09:17:06Z</time>
      </trkpt>
      <trkpt lat="54.94597602635622" lon="26.374912010505795">
        <ele>194.80000000000001</ele>
        <time>2011-08-17T09:17:22Z</time>
      </trkpt>
      <trkpt lat="54.94567503221333" lon="26.374993985518813">
        <ele>195.28</ele>
        <time>2011-08-17T09:17:36Z</time>
      </trkpt>
      <trkpt lat="54.945334978401661" lon="26.375172017142177">
        <ele>194.31999999999999</ele>
        <time>2011-08-17T09:17:53Z</time>
      </trkpt>
      <trkpt lat="54.945250991731882" lon="26.375275030732155">
        <ele>194.31999999999999</ele>
        <time>2011-08-17T09:17:59Z</time>
      </trkpt>
      <trkpt lat="54.944981010630727" lon="26.375406039878726">
        <ele>192.40000000000001</ele>
        <time>2011-08-17T09:18:13Z</time>
      </trkpt>
      <trkpt lat="54.944888977333903" lon="26.375462030991912">
        <ele>191.91999999999999</ele>
        <time>2011-08-17T09:18:26Z</time>
      </trkpt>
      <trkpt lat="54.944888977333903" lon="26.375462030991912">
        <ele>195.77000000000001</ele>
        <time>2011-08-17T09:18:41Z</time>
      </trkpt>
      <trkpt lat="54.944888977333903" lon="26.375462030991912">
        <ele>192.40000000000001</ele>
        <time>2011-08-17T09:18:42Z</time>
      </trkpt>
      <trkpt lat="54.944888977333903" lon="26.375462030991912">
        <ele>187.11000000000001</ele>
        <time>2011-08-17T09:18:43Z</time>
      </trkpt>
      <trkpt lat="54.944888977333903" lon="26.375462030991912">
        <ele>192.40000000000001</ele>
        <time>2011-08-17T09:18:44Z</time>
      </trkpt>
      <trkpt lat="54.944888977333903" lon="26.375462030991912">
        <ele>196.72999999999999</ele>
        <time>2011-08-17T09:18:48Z</time>
      </trkpt>
      <trkpt lat="54.944888977333903" lon="26.375462030991912">
        <ele>190.96000000000001</ele>
        <time>2011-08-17T09:18:49Z</time>
      </trkpt>
      <trkpt lat="54.944888977333903" lon="26.375462030991912">
        <ele>193.36000000000001</ele>
        <time>2011-08-17T09:18:52Z</time>
      </trkpt>
      <trkpt lat="54.944888977333903" lon="26.375462030991912">
        <ele>190.47999999999999</ele>
        <time>2011-08-17T09:18:54Z</time>
      </trkpt>
      <trkpt lat="54.944888977333903" lon="26.375462030991912">
        <ele>193.84</ele>
        <time>2011-08-17T09:18:55Z</time>
      </trkpt>
      <trkpt lat="54.944888977333903" lon="26.375462030991912">
        <ele>190.47999999999999</ele>
        <time>2011-08-17T09:18:57Z</time>
      </trkpt>
      <trkpt lat="54.944888977333903" lon="26.375462030991912">
        <ele>193.84</ele>
        <time>2011-08-17T09:18:58Z</time>
      </trkpt>
      <trkpt lat="54.944888977333903" lon="26.375462030991912">
        <ele>194.31999999999999</ele>
        <time>2011-08-17T09:18:59Z</time>
      </trkpt>
      <trkpt lat="54.944888977333903" lon="26.375460019335151">
        <ele>190.47999999999999</ele>
        <time>2011-08-17T09:19:02Z</time>
      </trkpt>
      <trkpt lat="54.944888977333903" lon="26.375460019335151">
        <ele>191.91999999999999</ele>
        <time>2011-08-17T09:19:03Z</time>
      </trkpt>
      <trkpt lat="54.944888977333903" lon="26.375460019335151">
        <ele>192.40000000000001</ele>
        <time>2011-08-17T09:19:33Z</time>
      </trkpt>
      <trkpt lat="54.944888977333903" lon="26.375455996021628">
        <ele>191.91999999999999</ele>
        <time>2011-08-17T09:19:50Z</time>
      </trkpt>
      <trkpt lat="54.944653026759624" lon="26.375537971034646">
        <ele>190.96000000000001</ele>
        <time>2011-08-17T09:20:04Z</time>
      </trkpt>
      <trkpt lat="54.944369969889522" lon="26.375581976026297">
        <ele>189.52000000000001</ele>
        <time>2011-08-17T09:20:19Z</time>
      </trkpt>
      <trkpt lat="54.944110969081521" lon="26.375596979632974">
        <ele>188.56</ele>
        <time>2011-08-17T09:20:31Z</time>
      </trkpt>
      <trkpt lat="54.943782985210419" lon="26.375622041523457">
        <ele>185.66999999999999</ele>
        <time>2011-08-17T09:20:45Z</time>
      </trkpt>
      <trkpt lat="54.943591961637139" lon="26.375693958252668">
        <ele>184.71000000000001</ele>
        <time>2011-08-17T09:20:59Z</time>
      </trkpt>
      <trkpt lat="54.943534964695573" lon="26.375754978507757">
        <ele>187.59</ele>
        <time>2011-08-17T09:21:09Z</time>
      </trkpt>
      <trkpt lat="54.943534964695573" lon="26.375754978507757">
        <ele>178.46000000000001</ele>
        <time>2011-08-17T09:21:10Z</time>
      </trkpt>
      <trkpt lat="54.943534964695573" lon="26.375754978507757">
        <ele>184.71000000000001</ele>
        <time>2011-08-17T09:21:11Z</time>
      </trkpt>
      <trkpt lat="54.943534964695573" lon="26.375754978507757">
        <ele>181.34999999999999</ele>
        <time>2011-08-17T09:21:13Z</time>
      </trkpt>
      <trkpt lat="54.943534964695573" lon="26.375754978507757">
        <ele>185.66999999999999</ele>
        <time>2011-08-17T09:21:15Z</time>
      </trkpt>
      <trkpt lat="54.943534964695573" lon="26.375752966850996">
        <ele>183.75</ele>
        <time>2011-08-17T09:21:45Z</time>
      </trkpt>
      <trkpt lat="54.943534964695573" lon="26.375752966850996">
        <ele>184.22999999999999</ele>
        <time>2011-08-17T09:22:08Z</time>
      </trkpt>
      <trkpt lat="54.943519961088896" lon="26.375813987106085">
        <ele>184.22999999999999</ele>
        <time>2011-08-17T09:22:19Z</time>
      </trkpt>
      <trkpt lat="54.943519961088896" lon="26.375879030674696">
        <ele>183.75</ele>
        <time>2011-08-17T09:22:28Z</time>
      </trkpt>
      <trkpt lat="54.943534964695573" lon="26.375939967110753">
        <ele>183.75</ele>
        <time>2011-08-17T09:22:37Z</time>
      </trkpt>
      <trkpt lat="54.943583998829126" lon="26.376162003725767">
        <ele>183.75</ele>
        <time>2011-08-17T09:22:48Z</time>
      </trkpt>
      <trkpt lat="54.943630015477538" lon="26.376379011198878">
        <ele>184.22999999999999</ele>
        <time>2011-08-17T09:23:00Z</time>
      </trkpt>
      <trkpt lat="54.943709978833795" lon="26.376605993136764">
        <ele>184.22999999999999</ele>
        <time>2011-08-17T09:23:16Z</time>
      </trkpt>
      <trkpt lat="54.943733029067516" lon="26.376716969534755">
        <ele>184.22999999999999</ele>
        <time>2011-08-17T09:23:26Z</time>
      </trkpt>
      <trkpt lat="54.943740991875529" lon="26.376819983124733">
        <ele>183.75</ele>
        <time>2011-08-17T09:23:30Z</time>
      </trkpt>
      <trkpt lat="54.94382900185883" lon="26.377534959465265">
        <ele>184.22999999999999</ele>
        <time>2011-08-17T09:23:50Z</time>
      </trkpt>
      <trkpt lat="54.943878035992384" lon="26.377991018816829">
        <ele>184.71000000000001</ele>
        <time>2011-08-17T09:24:05Z</time>
      </trkpt>
      <trkpt lat="54.943927992135286" lon="26.378452023491263">
        <ele>184.71000000000001</ele>
        <time>2011-08-17T09:24:20Z</time>
      </trkpt>
      <trkpt lat="54.94399999268353" lon="26.37902501039207">
        <ele>185.19</ele>
        <time>2011-08-17T09:24:38Z</time>
      </trkpt>
      <trkpt lat="54.944061012938619" lon="26.379559021443129">
        <ele>185.19</ele>
        <time>2011-08-17T09:24:55Z</time>
      </trkpt>
      <trkpt lat="54.94412999600172" lon="26.380023965612054">
        <ele>185.66999999999999</ele>
        <time>2011-08-17T09:25:11Z</time>
      </trkpt>
      <trkpt lat="54.944186992943287" lon="26.38050701469183">
        <ele>186.15000000000001</ele>
        <time>2011-08-17T09:25:27Z</time>
      </trkpt>
      <trkpt lat="54.944243989884853" lon="26.380951004102826">
        <ele>186.15000000000001</ele>
        <time>2011-08-17T09:25:42Z</time>
      </trkpt>
      <trkpt lat="54.944309033453465" lon="26.381374038755894">
        <ele>186.63</ele>
        <time>2011-08-17T09:25:56Z</time>
      </trkpt>
      <trkpt lat="54.944385979324579" lon="26.38179799541831">
        <ele>186.63</ele>
        <time>2011-08-17T09:26:11Z</time>
      </trkpt>
      <trkpt lat="54.944446999579668" lon="26.382209965959191">
        <ele>186.63</ele>
        <time>2011-08-17T09:26:27Z</time>
      </trkpt>
      <trkpt lat="54.9444729834795" lon="26.382610034197569">
        <ele>187.11000000000001</ele>
        <time>2011-08-17T09:26:41Z</time>
      </trkpt>
      <trkpt lat="54.944477006793022" lon="26.382760992273688">
        <ele>187.11000000000001</ele>
        <time>2011-08-17T09:26:48Z</time>
      </trkpt>
      <trkpt lat="54.944488992914557" lon="26.38287004083395">
        <ele>187.59</ele>
        <time>2011-08-17T09:26:52Z</time>
      </trkpt>
      <trkpt lat="54.944508019834757" lon="26.383374966681004">
        <ele>187.59</ele>
        <time>2011-08-17T09:27:08Z</time>
      </trkpt>
      <trkpt lat="54.944503996521235" lon="26.383745027706027">
        <ele>188.08000000000001</ele>
        <time>2011-08-17T09:27:22Z</time>
      </trkpt>
      <trkpt lat="54.944511037319899" lon="26.38383898884058">
        <ele>188.08000000000001</ele>
        <time>2011-08-17T09:27:27Z</time>
      </trkpt>
      <trkpt lat="54.944534003734589" lon="26.384025989100337">
        <ele>188.08000000000001</ele>
        <time>2011-08-17T09:27:35Z</time>
      </trkpt>
      <trkpt lat="54.944488992914557" lon="26.384592019021511">
        <ele>188.08000000000001</ele>
        <time>2011-08-17T09:27:52Z</time>
      </trkpt>
      <trkpt lat="54.944415986537933" lon="26.385087976232171">
        <ele>188.56</ele>
        <time>2011-08-17T09:28:07Z</time>
      </trkpt>
      <trkpt lat="54.944354966282845" lon="26.385531965643167">
        <ele>189.52000000000001</ele>
        <time>2011-08-17T09:28:22Z</time>
      </trkpt>
      <trkpt lat="54.944316996261477" lon="26.385695999488235">
        <ele>189.52000000000001</ele>
        <time>2011-08-17T09:28:28Z</time>
      </trkpt>
      <trkpt lat="54.944160003215075" lon="26.385694993659854">
        <ele>188.56</ele>
        <time>2011-08-17T09:28:37Z</time>
      </trkpt>
      <trkpt lat="54.944103006273508" lon="26.38570798560977">
        <ele>188.08000000000001</ele>
        <time>2011-08-17T09:28:40Z</time>
      </trkpt>
      <trkpt lat="54.943995969370008" lon="26.38564302586019">
        <ele>188.08000000000001</ele>
        <time>2011-08-17T09:28:47Z</time>
      </trkpt>
      <trkpt lat="54.943778961896896" lon="26.385933039709926">
        <ele>189.52000000000001</ele>
        <time>2011-08-17T09:29:02Z</time>
      </trkpt>
      <trkpt lat="54.943642001599073" lon="26.386252976953983">
        <ele>190.47999999999999</ele>
        <time>2011-08-17T09:29:15Z</time>
      </trkpt>
      <trkpt lat="54.943583998829126" lon="26.386626977473497">
        <ele>191.91999999999999</ele>
        <time>2011-08-17T09:29:29Z</time>
      </trkpt>
      <trkpt lat="54.943477967754006" lon="26.386941969394684">
        <ele>191.91999999999999</ele>
        <time>2011-08-17T09:29:42Z</time>
      </trkpt>
      <trkpt lat="54.943455001339316" lon="26.387042971327901">
        <ele>191.44</ele>
        <time>2011-08-17T09:29:46Z</time>
      </trkpt>
      <trkpt lat="54.943438991904259" lon="26.387066021561623">
        <ele>191.91999999999999</ele>
        <time>2011-08-17T09:30:00Z</time>
      </trkpt>
      <trkpt lat="54.943438991904259" lon="26.387066021561623">
        <ele>190.96000000000001</ele>
        <time>2011-08-17T09:30:21Z</time>
      </trkpt>
      <trkpt lat="54.943438991904259" lon="26.387068033218384">
        <ele>190.47999999999999</ele>
        <time>2011-08-17T09:30:47Z</time>
      </trkpt>
      <trkpt lat="54.943438991904259" lon="26.387069961056113">
        <ele>190.47999999999999</ele>
        <time>2011-08-17T09:31:19Z</time>
      </trkpt>
      <trkpt lat="54.943438991904259" lon="26.387069961056113">
        <ele>188.56</ele>
        <time>2011-08-17T09:31:36Z</time>
      </trkpt>
      <trkpt lat="54.943438991904259" lon="26.387069961056113">
        <ele>192.40000000000001</ele>
        <time>2011-08-17T09:31:37Z</time>
      </trkpt>
      <trkpt lat="54.943438991904259" lon="26.387069961056113">
        <ele>187.59</ele>
        <time>2011-08-17T09:31:38Z</time>
      </trkpt>
      <trkpt lat="54.943438991904259" lon="26.387069961056113">
        <ele>193.36000000000001</ele>
        <time>2011-08-17T09:31:40Z</time>
      </trkpt>
      <trkpt lat="54.943438991904259" lon="26.387069961056113">
        <ele>189.52000000000001</ele>
        <time>2011-08-17T09:31:41Z</time>
      </trkpt>
      <trkpt lat="54.943438991904259" lon="26.387069961056113">
        <ele>186.63</ele>
        <time>2011-08-17T09:31:45Z</time>
      </trkpt>
      <trkpt lat="54.943438991904259" lon="26.387069961056113">
        <ele>192.40000000000001</ele>
        <time>2011-08-17T09:31:46Z</time>
      </trkpt>
      <trkpt lat="54.943438991904259" lon="26.387064009904861">
        <ele>189.03999999999999</ele>
        <time>2011-08-17T09:31:48Z</time>
      </trkpt>
      <trkpt lat="54.943438991904259" lon="26.387064009904861">
        <ele>190.96000000000001</ele>
        <time>2011-08-17T09:32:18Z</time>
      </trkpt>
      <trkpt lat="54.943438991904259" lon="26.3870619982481">
        <ele>190.96000000000001</ele>
        <time>2011-08-17T09:32:45Z</time>
      </trkpt>
      <trkpt lat="54.943438991904259" lon="26.3870619982481">
        <ele>186.63</ele>
        <time>2011-08-17T09:32:52Z</time>
      </trkpt>
      <trkpt lat="54.943438991904259" lon="26.3870619982481">
        <ele>189.03999999999999</ele>
        <time>2011-08-17T09:32:53Z</time>
      </trkpt>
      <trkpt lat="54.943438991904259" lon="26.3870619982481">
        <ele>196.25</ele>
        <time>2011-08-17T09:32:54Z</time>
      </trkpt>
      <trkpt lat="54.943438991904259" lon="26.3870619982481">
        <ele>190.96000000000001</ele>
        <time>2011-08-17T09:32:55Z</time>
      </trkpt>
      <trkpt lat="54.943438991904259" lon="26.387066021561623">
        <ele>190.96000000000001</ele>
        <time>2011-08-17T09:33:15Z</time>
      </trkpt>
      <trkpt lat="54.943438991904259" lon="26.387066021561623">
        <ele>190</ele>
        <time>2011-08-17T09:33:38Z</time>
      </trkpt>
      <trkpt lat="54.943438991904259" lon="26.387064009904861">
        <ele>193.84</ele>
        <time>2011-08-17T09:34:02Z</time>
      </trkpt>
      <trkpt lat="54.943438991904259" lon="26.387064009904861">
        <ele>192.40000000000001</ele>
        <time>2011-08-17T09:34:03Z</time>
      </trkpt>
      <trkpt lat="54.943438991904259" lon="26.387064009904861">
        <ele>190.96000000000001</ele>
        <time>2011-08-17T09:34:06Z</time>
      </trkpt>
      <trkpt lat="54.943435974419117" lon="26.387064009904861">
        <ele>190.47999999999999</ele>
        <time>2011-08-17T09:34:41Z</time>
      </trkpt>
      <trkpt lat="54.943435974419117" lon="26.387064009904861">
        <ele>190</ele>
        <time>2011-08-17T09:35:07Z</time>
      </trkpt>
      <trkpt lat="54.943401021882892" lon="26.387114971876144">
        <ele>190.47999999999999</ele>
        <time>2011-08-17T09:35:12Z</time>
      </trkpt>
      <trkpt lat="54.943329021334648" lon="26.387110026553273">
        <ele>190</ele>
        <time>2011-08-17T09:35:20Z</time>
      </trkpt>
      <trkpt lat="54.943283004686236" lon="26.387200970202684">
        <ele>190</ele>
        <time>2011-08-17T09:35:34Z</time>
      </trkpt>
      <trkpt lat="54.943230031058192" lon="26.387352012097836">
        <ele>189.52000000000001</ele>
        <time>2011-08-17T09:35:47Z</time>
      </trkpt>
      <trkpt lat="54.943157024681568" lon="26.387411020696163">
        <ele>190</ele>
        <time>2011-08-17T09:36:01Z</time>
      </trkpt>
      <trkpt lat="54.943157024681568" lon="26.387411020696163">
        <ele>189.52000000000001</ele>
        <time>2011-08-17T09:36:02Z</time>
      </trkpt>
      <trkpt lat="54.943111008033156" lon="26.387396017089486">
        <ele>189.52000000000001</ele>
        <time>2011-08-17T09:36:07Z</time>
      </trkpt>
      <trkpt lat="54.942992990836501" lon="26.387317981570959">
        <ele>189.52000000000001</ele>
        <time>2011-08-17T09:36:20Z</time>
      </trkpt>
      <trkpt lat="54.942901963368058" lon="26.387332985177636">
        <ele>189.52000000000001</ele>
        <time>2011-08-17T09:36:32Z</time>
      </trkpt>
      <trkpt lat="54.942825017496943" lon="26.38727598823607">
        <ele>189.52000000000001</ele>
        <time>2011-08-17T09:36:45Z</time>
      </trkpt>
      <trkpt lat="54.942805990576744" lon="26.387261990457773">
        <ele>190</ele>
        <time>2011-08-17T09:36:59Z</time>
      </trkpt>
      <trkpt lat="54.942757040262222" lon="26.387154031544924">
        <ele>190</ele>
        <time>2011-08-17T09:37:17Z</time>
      </trkpt>
      <trkpt lat="54.942748993635178" lon="26.387132992967963">
        <ele>190</ele>
        <time>2011-08-17T09:37:20Z</time>
      </trkpt>
      <trkpt lat="54.942718986421824" lon="26.387140033766627">
        <ele>189.52000000000001</ele>
        <time>2011-08-17T09:37:32Z</time>
      </trkpt>
      <trkpt lat="54.942718986421824" lon="26.387140033766627">
        <ele>189.03999999999999</ele>
        <time>2011-08-17T09:38:01Z</time>
      </trkpt>
      <trkpt lat="54.942630976438522" lon="26.387132992967963">
        <ele>189.03999999999999</ele>
        <time>2011-08-17T09:38:13Z</time>
      </trkpt>
      <trkpt lat="54.942573979496956" lon="26.387121006846428">
        <ele>189.03999999999999</ele>
        <time>2011-08-17T09:38:25Z</time>
      </trkpt>
      <trkpt lat="54.942551013082266" lon="26.387174986302853">
        <ele>189.52000000000001</ele>
        <time>2011-08-17T09:38:33Z</time>
      </trkpt>
      <trkpt lat="54.942546989768744" lon="26.387258972972631">
        <ele>189.52000000000001</ele>
        <time>2011-08-17T09:38:38Z</time>
      </trkpt>
      <trkpt lat="54.942546989768744" lon="26.38746801763773">
        <ele>190</ele>
        <time>2011-08-17T09:38:51Z</time>
      </trkpt>
      <trkpt lat="54.942524023354053" lon="26.387499030679464">
        <ele>190.47999999999999</ele>
        <time>2011-08-17T09:39:02Z</time>
      </trkpt>
      <trkpt lat="54.942500973120332" lon="26.387591985985637">
        <ele>190</ele>
        <time>2011-08-17T09:39:10Z</time>
      </trkpt>
      <trkpt lat="54.942482030019164" lon="26.387704974040389">
        <ele>190</ele>
        <time>2011-08-17T09:39:17Z</time>
      </trkpt>
      <trkpt lat="54.942489992827177" lon="26.387803964316845">
        <ele>190</ele>
        <time>2011-08-17T09:39:30Z</time>
      </trkpt>
      <trkpt lat="54.942467026412487" lon="26.387950982898474">
        <ele>190</ele>
        <time>2011-08-17T09:39:42Z</time>
      </trkpt>
      <trkpt lat="54.942470965906978" lon="26.38796397484839">
        <ele>190.47999999999999</ele>
        <time>2011-08-17T09:39:53Z</time>
      </trkpt>
      <trkpt lat="54.942463003098965" lon="26.388000017032027">
        <ele>190.47999999999999</ele>
        <time>2011-08-17T09:40:05Z</time>
      </trkpt>
      <trkpt lat="54.942463003098965" lon="26.388000017032027">
        <ele>193.84</ele>
        <time>2011-08-17T09:40:16Z</time>
      </trkpt>
      <trkpt lat="54.942463003098965" lon="26.388000017032027">
        <ele>185.66999999999999</ele>
        <time>2011-08-17T09:40:17Z</time>
      </trkpt>
      <trkpt lat="54.942463003098965" lon="26.388000017032027">
        <ele>186.63</ele>
        <time>2011-08-17T09:40:18Z</time>
      </trkpt>
      <trkpt lat="54.942463003098965" lon="26.388000017032027">
        <ele>191.44</ele>
        <time>2011-08-17T09:40:19Z</time>
      </trkpt>
      <trkpt lat="54.942463003098965" lon="26.388000017032027">
        <ele>190.96000000000001</ele>
        <time>2011-08-17T09:40:20Z</time>
      </trkpt>
      <trkpt lat="54.942463003098965" lon="26.388000017032027">
        <ele>187.59</ele>
        <time>2011-08-17T09:40:22Z</time>
      </trkpt>
      <trkpt lat="54.942535003647208" lon="26.388073023408651">
        <ele>190.47999999999999</ele>
        <time>2011-08-17T09:40:35Z</time>
      </trkpt>
      <trkpt lat="54.942551013082266" lon="26.388075035065413">
        <ele>190</ele>
        <time>2011-08-17T09:40:45Z</time>
      </trkpt>
      <trkpt lat="54.942576996982098" lon="26.388223981484771">
        <ele>190.96000000000001</ele>
        <time>2011-08-17T09:40:56Z</time>
      </trkpt>
      <trkpt lat="54.942593006417155" lon="26.38839103281498">
        <ele>190.47999999999999</ele>
        <time>2011-08-17T09:41:07Z</time>
      </trkpt>
      <trkpt lat="54.942612033337355" lon="26.388489017263055">
        <ele>190.96000000000001</ele>
        <time>2011-08-17T09:41:18Z</time>
      </trkpt>
      <trkpt lat="54.94258102029562" lon="26.388785988092422">
        <ele>190.96000000000001</ele>
        <time>2011-08-17T09:41:31Z</time>
      </trkpt>
      <trkpt lat="54.942627036944032" lon="26.388922026380897">
        <ele>191.91999999999999</ele>
        <time>2011-08-17T09:41:42Z</time>
      </trkpt>
      <trkpt lat="54.942687973380089" lon="26.389132998883724">
        <ele>191.44</ele>
        <time>2011-08-17T09:41:54Z</time>
      </trkpt>
      <trkpt lat="54.942783024162054" lon="26.389203993603587">
        <ele>191.44</ele>
        <time>2011-08-17T09:42:05Z</time>
      </trkpt>
      <trkpt lat="54.942847983911633" lon="26.389298960566521">
        <ele>191.91999999999999</ele>
        <time>2011-08-17T09:42:18Z</time>
      </trkpt>
      <trkpt lat="54.942795010283589" lon="26.389528037980199">
        <ele>191.91999999999999</ele>
        <time>2011-08-17T09:42:35Z</time>
      </trkpt>
      <trkpt lat="54.94277598336339" lon="26.389608001336455">
        <ele>191.91999999999999</ele>
        <time>2011-08-17T09:42:50Z</time>
      </trkpt>
      <trkpt lat="54.94277598336339" lon="26.389608001336455">
        <ele>191.91999999999999</ele>
        <time>2011-08-17T09:43:13Z</time>
      </trkpt>
      <trkpt lat="54.942759973928332" lon="26.389784021303058">
        <ele>191.91999999999999</ele>
        <time>2011-08-17T09:43:38Z</time>
      </trkpt>
      <trkpt lat="54.942726027220488" lon="26.389951994642615">
        <ele>192.88</ele>
        <time>2011-08-17T09:43:50Z</time>
      </trkpt>
      <trkpt lat="54.942707000300288" lon="26.390136983245611">
        <ele>191.91999999999999</ele>
        <time>2011-08-17T09:44:05Z</time>
      </trkpt>
      <trkpt lat="54.942638017237186" lon="26.390439989045262">
        <ele>193.36000000000001</ele>
        <time>2011-08-17T09:44:22Z</time>
      </trkpt>
      <trkpt lat="54.942539026960731" lon="26.390679962933064">
        <ele>194.31999999999999</ele>
        <time>2011-08-17T09:44:37Z</time>
      </trkpt>
      <trkpt lat="54.942473983392119" lon="26.390956984832883">
        <ele>194.31999999999999</ele>
        <time>2011-08-17T09:44:53Z</time>
      </trkpt>
      <trkpt lat="54.942389996722341" lon="26.391168963164091">
        <ele>193.84</ele>
        <time>2011-08-17T09:45:09Z</time>
      </trkpt>
      <trkpt lat="54.942332999780774" lon="26.391354035586119">
        <ele>193.36000000000001</ele>
        <time>2011-08-17T09:45:21Z</time>
      </trkpt>
      <trkpt lat="54.942234009504318" lon="26.39153097756207">
        <ele>192.88</ele>
        <time>2011-08-17T09:45:36Z</time>
      </trkpt>
      <trkpt lat="54.942183969542384" lon="26.391609013080597">
        <ele>192.88</ele>
        <time>2011-08-17T09:45:43Z</time>
      </trkpt>
      <trkpt lat="54.942012978717685" lon="26.391722001135349">
        <ele>191.91999999999999</ele>
        <time>2011-08-17T09:46:03Z</time>
      </trkpt>
      <trkpt lat="54.94193603284657" lon="26.391811016947031">
        <ele>192.40000000000001</ele>
        <time>2011-08-17T09:46:17Z</time>
      </trkpt>
      <trkpt lat="54.941894961521029" lon="26.391869019716978">
        <ele>191.44</ele>
        <time>2011-08-17T09:46:40Z</time>
      </trkpt>
      <trkpt lat="54.941750038415194" lon="26.391944959759712">
        <ele>191.91999999999999</ele>
        <time>2011-08-17T09:46:55Z</time>
      </trkpt>
      <trkpt lat="54.941730005666614" lon="26.391963986679912">
        <ele>190.96000000000001</ele>
        <time>2011-08-17T09:47:16Z</time>
      </trkpt>
      <trkpt lat="54.941699998453259" lon="26.392056019976735">
        <ele>190.47999999999999</ele>
        <time>2011-08-17T09:47:43Z</time>
      </trkpt>
      <trkpt lat="54.941689018160105" lon="26.39208803884685">
        <ele>190.96000000000001</ele>
        <time>2011-08-17T09:47:45Z</time>
      </trkpt>
      <trkpt lat="54.941627997905016" lon="26.392266992479563">
        <ele>190.96000000000001</ele>
        <time>2011-08-17T09:47:57Z</time>
      </trkpt>
      <trkpt lat="54.941611988469958" lon="26.392403030768037">
        <ele>190.47999999999999</ele>
        <time>2011-08-17T09:48:09Z</time>
      </trkpt>
      <trkpt lat="54.941620035097003" lon="26.392534039914608">
        <ele>190</ele>
        <time>2011-08-17T09:48:21Z</time>
      </trkpt>
      <trkpt lat="54.94163503870368" lon="26.39271198771894">
        <ele>190</ele>
        <time>2011-08-17T09:48:32Z</time>
      </trkpt>
      <trkpt lat="54.941665967926383" lon="26.392950033769011">
        <ele>190</ele>
        <time>2011-08-17T09:48:48Z</time>
      </trkpt>
      <trkpt lat="54.941668985411525" lon="26.392966965213418">
        <ele>190</ele>
        <time>2011-08-17T09:48:59Z</time>
      </trkpt>
      <trkpt lat="54.941689018160105" lon="26.39318497851491">
        <ele>189.52000000000001</ele>
        <time>2011-08-17T09:49:13Z</time>
      </trkpt>
      <trkpt lat="54.941692035645247" lon="26.393199982121587">
        <ele>189.52000000000001</ele>
        <time>2011-08-17T09:49:14Z</time>
      </trkpt>
      <trkpt lat="54.941699998453259" lon="26.393382959067822">
        <ele>189.52000000000001</ele>
        <time>2011-08-17T09:49:28Z</time>
      </trkpt>
      <trkpt lat="54.941707961261272" lon="26.393435010686517">
        <ele>189.52000000000001</ele>
        <time>2011-08-17T09:49:31Z</time>
      </trkpt>
      <trkpt lat="54.941737968474627" lon="26.393729969859123">
        <ele>189.52000000000001</ele>
        <time>2011-08-17T09:49:49Z</time>
      </trkpt>
      <trkpt lat="54.941750038415194" lon="26.393782021477818">
        <ele>189.52000000000001</ele>
        <time>2011-08-17T09:49:52Z</time>
      </trkpt>
      <trkpt lat="54.941779961809516" lon="26.39389400370419">
        <ele>189.52000000000001</ele>
        <time>2011-08-17T09:50:00Z</time>
      </trkpt>
      <trkpt lat="54.941845005378127" lon="26.394072035327554">
        <ele>190</ele>
        <time>2011-08-17T09:50:13Z</time>
      </trkpt>
      <trkpt lat="54.941917005926371" lon="26.3941939920187">
        <ele>189.03999999999999</ele>
        <time>2011-08-17T09:50:25Z</time>
      </trkpt>
      <trkpt lat="54.941933015361428" lon="26.394213018938899">
        <ele>190</ele>
        <time>2011-08-17T09:50:27Z</time>
      </trkpt>
      <trkpt lat="54.942062012851238" lon="26.394243026152253">
        <ele>189.52000000000001</ele>
        <time>2011-08-17T09:50:41Z</time>
      </trkpt>
      <trkpt lat="54.942210959270597" lon="26.394270015880466">
        <ele>189.03999999999999</ele>
        <time>2011-08-17T09:50:56Z</time>
      </trkpt>
      <trkpt lat="54.942368036136031" lon="26.394400019198656">
        <ele>189.03999999999999</ele>
        <time>2011-08-17T09:51:13Z</time>
      </trkpt>
      <trkpt lat="54.942504996433854" lon="26.394400019198656">
        <ele>190</ele>
        <time>2011-08-17T09:51:26Z</time>
      </trkpt>
      <trkpt lat="54.942691996693611" lon="26.394317960366607">
        <ele>190</ele>
        <time>2011-08-17T09:51:42Z</time>
      </trkpt>
      <trkpt lat="54.942741030827165" lon="26.394334975630045">
        <ele>189.52000000000001</ele>
        <time>2011-08-17T09:51:48Z</time>
      </trkpt>
      <trkpt lat="54.942847983911633" lon="26.394404964521527">
        <ele>190</ele>
        <time>2011-08-17T09:52:01Z</time>
      </trkpt>
      <trkpt lat="54.942901963368058" lon="26.394462967291474">
        <ele>190</ele>
        <time>2011-08-17T09:52:07Z</time>
      </trkpt>
      <trkpt lat="54.942977987229824" lon="26.394690033048391">
        <ele>190</ele>
        <time>2011-08-17T09:52:23Z</time>
      </trkpt>
      <trkpt lat="54.943049987778068" lon="26.394954985007644">
        <ele>190</ele>
        <time>2011-08-17T09:52:39Z</time>
      </trkpt>
      <trkpt lat="54.943073038011789" lon="26.395123964175582">
        <ele>190</ele>
        <time>2011-08-17T09:52:54Z</time>
      </trkpt>
      <trkpt lat="54.943073038011789" lon="26.395136034116149">
        <ele>190</ele>
        <time>2011-08-17T09:53:13Z</time>
      </trkpt>
      <trkpt lat="54.943069014698267" lon="26.395166041329503">
        <ele>190</ele>
        <time>2011-08-17T09:53:15Z</time>
      </trkpt>
      <trkpt lat="54.94305401109159" lon="26.39530903659761">
        <ele>190</ele>
        <time>2011-08-17T09:53:22Z</time>
      </trkpt>
      <trkpt lat="54.942986033856869" lon="26.395686976611614">
        <ele>190</ele>
        <time>2011-08-17T09:53:42Z</time>
      </trkpt>
      <trkpt lat="54.942944040521979" lon="26.396003980189562">
        <ele>190.47999999999999</ele>
        <time>2011-08-17T09:53:57Z</time>
      </trkpt>
      <trkpt lat="54.942916966974735" lon="26.396269015967846">
        <ele>190.96000000000001</ele>
        <time>2011-08-17T09:54:11Z</time>
      </trkpt>
      <trkpt lat="54.942901963368058" lon="26.396649973466992">
        <ele>190.96000000000001</ele>
        <time>2011-08-17T09:54:30Z</time>
      </trkpt>
      <trkpt lat="54.942817976698279" lon="26.396968988701701">
        <ele>190</ele>
        <time>2011-08-17T09:54:48Z</time>
      </trkpt>
      <trkpt lat="54.942822000011802" lon="26.397017017006874">
        <ele>190</ele>
        <time>2011-08-17T09:55:00Z</time>
      </trkpt>
      <trkpt lat="54.942795010283589" lon="26.397214997559786">
        <ele>189.52000000000001</ele>
        <time>2011-08-17T09:55:14Z</time>
      </trkpt>
      <trkpt lat="54.942780006676912" lon="26.397256990894675">
        <ele>190</ele>
        <time>2011-08-17T09:55:25Z</time>
      </trkpt>
      <trkpt lat="54.94277598336339" lon="26.397264031693339">
        <ele>190</ele>
        <time>2011-08-17T09:55:26Z</time>
      </trkpt>
      <trkpt lat="54.942763997241855" lon="26.397311976179481">
        <ele>190</ele>
        <time>2011-08-17T09:55:29Z</time>
      </trkpt>
      <trkpt lat="54.942729966714978" lon="26.397515991702676">
        <ele>190</ele>
        <time>2011-08-17T09:55:42Z</time>
      </trkpt>
      <trkpt lat="54.942714963108301" lon="26.397731993347406">
        <ele>190.47999999999999</ele>
        <time>2011-08-17T09:55:55Z</time>
      </trkpt>
      <trkpt lat="54.942711023613811" lon="26.397999040782452">
        <ele>190.96000000000001</ele>
        <time>2011-08-17T09:56:10Z</time>
      </trkpt>
      <trkpt lat="54.942630976438522" lon="26.398274973034859">
        <ele>191.91999999999999</ele>
        <time>2011-08-17T09:56:28Z</time>
      </trkpt>
      <trkpt lat="54.942557970061898" lon="26.398472031578422">
        <ele>192.40000000000001</ele>
        <time>2011-08-17T09:56:41Z</time>
      </trkpt>
      <trkpt lat="54.942455040290952" lon="26.3987079821527">
        <ele>193.84</ele>
        <time>2011-08-17T09:56:57Z</time>
      </trkpt>
      <trkpt lat="54.942348003387451" lon="26.399014005437493">
        <ele>195.28</ele>
        <time>2011-08-17T09:57:16Z</time>
      </trkpt>
      <trkpt lat="54.942244989797473" lon="26.399292033165693">
        <ele>194.31999999999999</ele>
        <time>2011-08-17T09:57:35Z</time>
      </trkpt>
      <trkpt lat="54.942150022834539" lon="26.399508034810424">
        <ele>193.84</ele>
        <time>2011-08-17T09:57:50Z</time>
      </trkpt>
      <trkpt lat="54.942062012851238" lon="26.399774998426437">
        <ele>193.84</ele>
        <time>2011-08-17T09:58:07Z</time>
      </trkpt>
      <trkpt lat="54.942054972052574" lon="26.399812968447804">
        <ele>193.36000000000001</ele>
        <time>2011-08-17T09:58:10Z</time>
      </trkpt>
      <trkpt lat="54.942062012851238" lon="26.399983959272504">
        <ele>193.84</ele>
        <time>2011-08-17T09:58:26Z</time>
      </trkpt>
      <trkpt lat="54.942062012851238" lon="26.399983959272504">
        <ele>193.84</ele>
        <time>2011-08-17T09:58:56Z</time>
      </trkpt>
      <trkpt lat="54.942058995366096" lon="26.399983959272504">
        <ele>193.36000000000001</ele>
        <time>2011-08-17T09:59:27Z</time>
      </trkpt>
      <trkpt lat="54.942058995366096" lon="26.399983959272504">
        <ele>193.84</ele>
        <time>2011-08-17T09:59:58Z</time>
      </trkpt>
      <trkpt lat="54.942058995366096" lon="26.399983959272504">
        <ele>193.36000000000001</ele>
        <time>2011-08-17T10:00:33Z</time>
      </trkpt>
      <trkpt lat="54.942058995366096" lon="26.399983959272504">
        <ele>193.36000000000001</ele>
        <time>2011-08-17T10:01:07Z</time>
      </trkpt>
      <trkpt lat="54.942058995366096" lon="26.399983959272504">
        <ele>193.36000000000001</ele>
        <time>2011-08-17T10:01:39Z</time>
      </trkpt>
      <trkpt lat="54.942058995366096" lon="26.400012960657477">
        <ele>193.36000000000001</ele>
        <time>2011-08-17T10:02:06Z</time>
      </trkpt>
      <trkpt lat="54.942058995366096" lon="26.400012960657477">
        <ele>188.56</ele>
        <time>2011-08-17T10:02:30Z</time>
      </trkpt>
      <trkpt lat="54.942058995366096" lon="26.400012960657477">
        <ele>193.84</ele>
        <time>2011-08-17T10:02:31Z</time>
      </trkpt>
      <trkpt lat="54.942058995366096" lon="26.400012960657477">
        <ele>190</ele>
        <time>2011-08-17T10:02:37Z</time>
      </trkpt>
      <trkpt lat="54.942058995366096" lon="26.400012960657477">
        <ele>194.31999999999999</ele>
        <time>2011-08-17T10:02:38Z</time>
      </trkpt>
      <trkpt lat="54.942058995366096" lon="26.400012960657477">
        <ele>188.08000000000001</ele>
        <time>2011-08-17T10:02:40Z</time>
      </trkpt>
      <trkpt lat="54.942058995366096" lon="26.400012960657477">
        <ele>193.36000000000001</ele>
        <time>2011-08-17T10:02:41Z</time>
      </trkpt>
      <trkpt lat="54.942058995366096" lon="26.400012960657477">
        <ele>197.21000000000001</ele>
        <time>2011-08-17T10:02:42Z</time>
      </trkpt>
      <trkpt lat="54.942058995366096" lon="26.400012960657477">
        <ele>193.36000000000001</ele>
        <time>2011-08-17T10:02:43Z</time>
      </trkpt>
      <trkpt lat="54.942058995366096" lon="26.400012960657477">
        <ele>192.40000000000001</ele>
        <time>2011-08-17T10:03:14Z</time>
      </trkpt>
      <trkpt lat="54.942058995366096" lon="26.400012960657477">
        <ele>192.88</ele>
        <time>2011-08-17T10:03:44Z</time>
      </trkpt>
      <trkpt lat="54.942058995366096" lon="26.400012960657477">
        <ele>193.36000000000001</ele>
        <time>2011-08-17T10:04:17Z</time>
      </trkpt>
      <trkpt lat="54.942058995366096" lon="26.400018995627761">
        <ele>193.36000000000001</ele>
        <time>2011-08-17T10:04:50Z</time>
      </trkpt>
      <trkpt lat="54.942058995366096" lon="26.400021007284522">
        <ele>192.40000000000001</ele>
        <time>2011-08-17T10:05:34Z</time>
      </trkpt>
      <trkpt lat="54.942058995366096" lon="26.400016983971">
        <ele>192.40000000000001</ele>
        <time>2011-08-17T10:06:06Z</time>
      </trkpt>
      <trkpt lat="54.942058995366096" lon="26.400016983971">
        <ele>192.88</ele>
        <time>2011-08-17T10:06:30Z</time>
      </trkpt>
      <trkpt lat="54.942058995366096" lon="26.400021007284522">
        <ele>192.88</ele>
        <time>2011-08-17T10:07:14Z</time>
      </trkpt>
      <trkpt lat="54.942054972052574" lon="26.400016983971">
        <ele>192.88</ele>
        <time>2011-08-17T10:07:53Z</time>
      </trkpt>
      <trkpt lat="54.942058995366096" lon="26.40008001588285">
        <ele>192.40000000000001</ele>
        <time>2011-08-17T10:08:22Z</time>
      </trkpt>
      <trkpt lat="54.942042985931039" lon="26.400144975632429">
        <ele>192.40000000000001</ele>
        <time>2011-08-17T10:08:27Z</time>
      </trkpt>
      <trkpt lat="54.942023959010839" lon="26.400442030280828">
        <ele>192.88</ele>
        <time>2011-08-17T10:08:46Z</time>
      </trkpt>
      <trkpt lat="54.942027982324362" lon="26.400543032214046">
        <ele>193.36000000000001</ele>
        <time>2011-08-17T10:08:52Z</time>
      </trkpt>
      <trkpt lat="54.942051032558084" lon="26.400888031348586">
        <ele>193.36000000000001</ele>
        <time>2011-08-17T10:09:11Z</time>
      </trkpt>
      <trkpt lat="54.942073998972774" lon="26.401225989684463">
        <ele>193.84</ele>
        <time>2011-08-17T10:09:29Z</time>
      </trkpt>
      <trkpt lat="54.942066036164761" lon="26.401395974680781">
        <ele>194.31999999999999</ele>
        <time>2011-08-17T10:09:40Z</time>
      </trkpt>
      <trkpt lat="54.942054972052574" lon="26.401430005207658">
        <ele>194.31999999999999</ele>
        <time>2011-08-17T10:09:42Z</time>
      </trkpt>
      <trkpt lat="54.94193603284657" lon="26.401690011844039">
        <ele>194.80000000000001</ele>
        <time>2011-08-17T10:09:59Z</time>
      </trkpt>
      <trkpt lat="54.941882975399494" lon="26.401779027655721">
        <ele>195.28</ele>
        <time>2011-08-17T10:10:15Z</time>
      </trkpt>
      <trkpt lat="54.941882975399494" lon="26.401779027655721">
        <ele>194.80000000000001</ele>
        <time>2011-08-17T10:10:35Z</time>
      </trkpt>
      <trkpt lat="54.941879035905004" lon="26.401781039312482">
        <ele>195.28</ele>
        <time>2011-08-17T10:10:57Z</time>
      </trkpt>
      <trkpt lat="54.941879035905004" lon="26.401779027655721">
        <ele>194.80000000000001</ele>
        <time>2011-08-17T10:11:25Z</time>
      </trkpt>
      <trkpt lat="54.941879035905004" lon="26.401779027655721">
        <ele>194.80000000000001</ele>
        <time>2011-08-17T10:11:45Z</time>
      </trkpt>
      <trkpt lat="54.941879035905004" lon="26.401779027655721">
        <ele>194.80000000000001</ele>
        <time>2011-08-17T10:12:08Z</time>
      </trkpt>
      <trkpt lat="54.941879035905004" lon="26.401779027655721">
        <ele>190</ele>
        <time>2011-08-17T10:12:10Z</time>
      </trkpt>
      <trkpt lat="54.941879035905004" lon="26.401779027655721">
        <ele>190.47999999999999</ele>
        <time>2011-08-17T10:12:11Z</time>
      </trkpt>
      <trkpt lat="54.941879035905004" lon="26.401779027655721">
        <ele>195.77000000000001</ele>
        <time>2011-08-17T10:12:12Z</time>
      </trkpt>
      <trkpt lat="54.941879035905004" lon="26.401779027655721">
        <ele>193.36000000000001</ele>
        <time>2011-08-17T10:12:13Z</time>
      </trkpt>
      <trkpt lat="54.941879035905004" lon="26.401779027655721">
        <ele>196.72999999999999</ele>
        <time>2011-08-17T10:12:14Z</time>
      </trkpt>
      <trkpt lat="54.941879035905004" lon="26.40177701599896">
        <ele>195.28</ele>
        <time>2011-08-17T10:12:39Z</time>
      </trkpt>
      <trkpt lat="54.941886998713017" lon="26.40177701599896">
        <ele>194.80000000000001</ele>
        <time>2011-08-17T10:13:11Z</time>
      </trkpt>
      <trkpt lat="54.941886998713017" lon="26.40177701599896">
        <ele>194.31999999999999</ele>
        <time>2011-08-17T10:13:37Z</time>
      </trkpt>
      <trkpt lat="54.941882975399494" lon="26.401772992685437">
        <ele>195.28</ele>
        <time>2011-08-17T10:14:08Z</time>
      </trkpt>
      <trkpt lat="54.941882975399494" lon="26.401775004342198">
        <ele>194.80000000000001</ele>
        <time>2011-08-17T10:14:36Z</time>
      </trkpt>
      <trkpt lat="54.941882975399494" lon="26.401771986857057">
        <ele>195.28</ele>
        <time>2011-08-17T10:15:05Z</time>
      </trkpt>
      <trkpt lat="54.941864032298326" lon="26.401834012940526">
        <ele>194.80000000000001</ele>
        <time>2011-08-17T10:15:23Z</time>
      </trkpt>
      <trkpt lat="54.941810974851251" lon="26.401953035965562">
        <ele>194.80000000000001</ele>
        <time>2011-08-17T10:15:29Z</time>
      </trkpt>
      <trkpt lat="54.941768981516361" lon="26.402045991271734">
        <ele>195.28</ele>
        <time>2011-08-17T10:15:34Z</time>
      </trkpt>
      <trkpt lat="54.941623974591494" lon="26.402327958494425">
        <ele>195.77000000000001</ele>
        <time>2011-08-17T10:15:49Z</time>
      </trkpt>
      <trkpt lat="54.941466981545091" lon="26.402633981779218">
        <ele>196.72999999999999</ele>
        <time>2011-08-17T10:16:02Z</time>
      </trkpt>
      <trkpt lat="54.941333960741758" lon="26.402877978980541">
        <ele>197.69</ele>
        <time>2011-08-17T10:16:14Z</time>
      </trkpt>
      <trkpt lat="54.941295990720391" lon="26.402969006448984">
        <ele>198.16999999999999</ele>
        <time>2011-08-17T10:16:29Z</time>
      </trkpt>
      <trkpt lat="54.941216027364135" lon="26.403099009767175">
        <ele>197.69</ele>
        <time>2011-08-17T10:16:42Z</time>
      </trkpt>
      <trkpt lat="54.941204041242599" lon="26.403130022808909">
        <ele>198.16999999999999</ele>
        <time>2011-08-17T10:16:44Z</time>
      </trkpt>
      <trkpt lat="54.941165987402201" lon="26.403229013085365">
        <ele>198.65000000000001</ele>
        <time>2011-08-17T10:16:48Z</time>
      </trkpt>
      <trkpt lat="54.941010000184178" lon="26.403537970036268">
        <ele>199.13</ele>
        <time>2011-08-17T10:17:02Z</time>
      </trkpt>
      <trkpt lat="54.94077698327601" lon="26.403956981375813">
        <ele>200.09</ele>
        <time>2011-08-17T10:17:17Z</time>
      </trkpt>
      <trkpt lat="54.940613033249974" lon="26.404271973297">
        <ele>200.56999999999999</ele>
        <time>2011-08-17T10:17:29Z</time>
      </trkpt>
      <trkpt lat="54.940598029643297" lon="26.404304997995496">
        <ele>201.05000000000001</ele>
        <time>2011-08-17T10:17:30Z</time>
      </trkpt>
      <trkpt lat="54.940398959442973" lon="26.404638011008501">
        <ele>201.53</ele>
        <time>2011-08-17T10:17:43Z</time>
      </trkpt>
      <trkpt lat="54.940208019688725" lon="26.404972029849887">
        <ele>202.00999999999999</ele>
        <time>2011-08-17T10:17:55Z</time>
      </trkpt>
      <trkpt lat="54.940033005550504" lon="26.405260032042861">
        <ele>202.49000000000001</ele>
        <time>2011-08-17T10:18:06Z</time>
      </trkpt>
      <trkpt lat="54.939895961433649" lon="26.405724976211786">
        <ele>203.94</ele>
        <time>2011-08-17T10:18:19Z</time>
      </trkpt>
      <trkpt lat="54.939826978370547" lon="26.406555036082864">
        <ele>205.86000000000001</ele>
        <time>2011-08-17T10:18:36Z</time>
      </trkpt>
      <trkpt lat="54.939784985035658" lon="26.406952003017068">
        <ele>206.34</ele>
        <time>2011-08-17T10:18:45Z</time>
      </trkpt>
      <trkpt lat="54.939757995307446" lon="26.407131040468812">
        <ele>206.34</ele>
        <time>2011-08-17T10:18:49Z</time>
      </trkpt>
      <trkpt lat="54.939678031951189" lon="26.407619034871459">
        <ele>207.78</ele>
        <time>2011-08-17T10:19:01Z</time>
      </trkpt>
      <trkpt lat="54.939663028344512" lon="26.407649964094162">
        <ele>207.78</ele>
        <time>2011-08-17T10:19:02Z</time>
      </trkpt>
      <trkpt lat="54.939533025026321" lon="26.408141981810331">
        <ele>209.22</ele>
        <time>2011-08-17T10:19:14Z</time>
      </trkpt>
      <trkpt lat="54.939434034749866" lon="26.408961983397603">
        <ele>209.69999999999999</ele>
        <time>2011-08-17T10:19:28Z</time>
      </trkpt>
      <trkpt lat="54.939219960942864" lon="26.410194039344788">
        <ele>212.11000000000001</ele>
        <time>2011-08-17T10:19:53Z</time>
      </trkpt>
      <trkpt lat="54.938969006761909" lon="26.411011023446918">
        <ele>213.06999999999999</ele>
        <time>2011-08-17T10:20:12Z</time>
      </trkpt>
      <trkpt lat="54.938744036480784" lon="26.411750977858901">
        <ele>215.47</ele>
        <time>2011-08-17T10:20:30Z</time>
      </trkpt>
      <trkpt lat="54.938506996259093" lon="26.412515994161367">
        <ele>216.43000000000001</ele>
        <time>2011-08-17T10:20:47Z</time>
      </trkpt>
      <trkpt lat="54.938228968530893" lon="26.413256032392383">
        <ele>217.88</ele>
        <time>2011-08-17T10:21:04Z</time>
      </trkpt>
      <trkpt lat="54.937878018245101" lon="26.413933038711548">
        <ele>219.31999999999999</ele>
        <time>2011-08-17T10:21:21Z</time>
      </trkpt>
      <trkpt lat="54.937504017725587" lon="26.414534021168947">
        <ele>220.75999999999999</ele>
        <time>2011-08-17T10:21:38Z</time>
      </trkpt>
      <trkpt lat="54.937130017206073" lon="26.415068032220006">
        <ele>221.72</ele>
        <time>2011-08-17T10:21:55Z</time>
      </trkpt>
      <trkpt lat="54.936741013079882" lon="26.41561696305871">
        <ele>221.72</ele>
        <time>2011-08-17T10:22:11Z</time>
      </trkpt>
      <trkpt lat="54.936316972598433" lon="26.416226997971535">
        <ele>221.72</ele>
        <time>2011-08-17T10:22:27Z</time>
      </trkpt>
      <trkpt lat="54.935969961807132" lon="26.416772995144129">
        <ele>223.63999999999999</ele>
        <time>2011-08-17T10:22:41Z</time>
      </trkpt>
      <trkpt lat="54.935623034834862" lon="26.417280016466975">
        <ele>224.61000000000001</ele>
        <time>2011-08-17T10:22:54Z</time>
      </trkpt>
      <trkpt lat="54.935249034315348" lon="26.417927015572786">
        <ele>225.09</ele>
        <time>2011-08-17T10:23:08Z</time>
      </trkpt>
      <trkpt lat="54.934794986620545" lon="26.418722039088607">
        <ele>225.09</ele>
        <time>2011-08-17T10:23:24Z</time>
      </trkpt>
      <trkpt lat="54.93424597196281" lon="26.419569030404091">
        <ele>225.56999999999999</ele>
        <time>2011-08-17T10:23:41Z</time>
      </trkpt>
      <trkpt lat="54.934212025254965" lon="26.41961102373898">
        <ele>225.09</ele>
        <time>2011-08-17T10:23:42Z</time>
      </trkpt>
      <trkpt lat="54.934146981686354" lon="26.419710014015436">
        <ele>224.61000000000001</ele>
        <time>2011-08-17T10:23:44Z</time>
      </trkpt>
      <trkpt lat="54.933460000902414" lon="26.420919019728899">
        <ele>223.16</ele>
        <time>2011-08-17T10:24:06Z</time>
      </trkpt>
      <trkpt lat="54.933002013713121" lon="26.42171697691083">
        <ele>220.75999999999999</ele>
        <time>2011-08-17T10:24:18Z</time>
      </trkpt>
      <trkpt lat="54.932873016223311" lon="26.421964997425675">
        <ele>220.75999999999999</ele>
        <time>2011-08-17T10:24:21Z</time>
      </trkpt>
      <trkpt lat="54.932330958545208" lon="26.422856999561191">
        <ele>219.31999999999999</ele>
        <time>2011-08-17T10:24:33Z</time>
      </trkpt>
      <trkpt lat="54.932198021560907" lon="26.423103008419275">
        <ele>219.80000000000001</ele>
        <time>2011-08-17T10:24:37Z</time>
      </trkpt>
      <trkpt lat="54.932006997987628" lon="26.423411965370178">
        <ele>220.28</ele>
        <time>2011-08-17T10:24:43Z</time>
      </trkpt>
      <trkpt lat="54.931622017174959" lon="26.423882022500038">
        <ele>221.72</ele>
        <time>2011-08-17T10:24:55Z</time>
      </trkpt>
      <trkpt lat="54.93140802718699" lon="26.424082014709711">
        <ele>222.68000000000001</ele>
        <time>2011-08-17T10:25:02Z</time>
      </trkpt>
      <trkpt lat="54.931071996688843" lon="26.424717027693987">
        <ele>224.12</ele>
        <time>2011-08-17T10:25:16Z</time>
      </trkpt>
      <trkpt lat="54.930926989763975" lon="26.424941997975111">
        <ele>224.12</ele>
        <time>2011-08-17T10:25:21Z</time>
      </trkpt>
      <trkpt lat="54.930328018963337" lon="26.42588404007256">
        <ele>221.72</ele>
        <time>2011-08-17T10:25:38Z</time>
      </trkpt>
      <trkpt lat="54.93029398843646" lon="26.425933996215463">
        <ele>222.19999999999999</ele>
        <time>2011-08-17T10:25:39Z</time>
      </trkpt>
      <trkpt lat="54.929934991523623" lon="26.426494996994734">
        <ele>222.68000000000001</ele>
        <time>2011-08-17T10:25:51Z</time>
      </trkpt>
      <trkpt lat="54.929420007392764" lon="26.427314998582006">
        <ele>224.12</ele>
        <time>2011-08-17T10:26:08Z</time>
      </trkpt>
      <trkpt lat="54.928821958601475" lon="26.428236002102494">
        <ele>224.12</ele>
        <time>2011-08-17T10:26:27Z</time>
      </trkpt>
      <trkpt lat="54.928787006065249" lon="26.42826802097261">
        <ele>224.12</ele>
        <time>2011-08-17T10:26:28Z</time>
      </trkpt>
      <trkpt lat="54.928534962236881" lon="26.428165007382631">
        <ele>224.12</ele>
        <time>2011-08-17T10:26:35Z</time>
      </trkpt>
      <trkpt lat="54.928420968353748" lon="26.427831994369626">
        <ele>218.36000000000001</ele>
        <time>2011-08-17T10:26:42Z</time>
      </trkpt>
      <trkpt lat="54.928409988060594" lon="26.427792012691498">
        <ele>224.61000000000001</ele>
        <time>2011-08-17T10:26:43Z</time>
      </trkpt>
      <trkpt lat="54.928363971412182" lon="26.42766997218132">
        <ele>224.61000000000001</ele>
        <time>2011-08-17T10:26:52Z</time>
      </trkpt>
      <trkpt lat="54.928363971412182" lon="26.42766997218132">
        <ele>219.80000000000001</ele>
        <time>2011-08-17T10:26:53Z</time>
      </trkpt>
      <trkpt lat="54.928363971412182" lon="26.42766997218132">
        <ele>224.12</ele>
        <time>2011-08-17T10:26:55Z</time>
      </trkpt>
      <trkpt lat="54.928363971412182" lon="26.42766997218132">
        <ele>218.84</ele>
        <time>2011-08-17T10:26:58Z</time>
      </trkpt>
      <trkpt lat="54.928363971412182" lon="26.42766997218132">
        <ele>223.63999999999999</ele>
        <time>2011-08-17T10:26:59Z</time>
      </trkpt>
      <trkpt lat="54.928363971412182" lon="26.42766997218132">
        <ele>219.80000000000001</ele>
        <time>2011-08-17T10:27:04Z</time>
      </trkpt>
      <trkpt lat="54.928363971412182" lon="26.42766997218132">
        <ele>223.63999999999999</ele>
        <time>2011-08-17T10:27:05Z</time>
      </trkpt>
      <trkpt lat="54.928356008604169" lon="26.427681036293507">
        <ele>223.16</ele>
        <time>2011-08-17T10:27:12Z</time>
      </trkpt>
      <trkpt lat="54.928356008604169" lon="26.427710959687829">
        <ele>223.16</ele>
        <time>2011-08-17T10:27:14Z</time>
      </trkpt>
      <trkpt lat="54.928554994985461" lon="26.428181016817689">
        <ele>224.12</ele>
        <time>2011-08-17T10:27:27Z</time>
      </trkpt>
      <trkpt lat="54.928668988868594" lon="26.428501037880778">
        <ele>224.12</ele>
        <time>2011-08-17T10:27:38Z</time>
      </trkpt>
      <trkpt lat="54.928791029378772" lon="26.428937986493111">
        <ele>223.63999999999999</ele>
        <time>2011-08-17T10:27:50Z</time>
      </trkpt>
      <trkpt lat="54.929035026580095" lon="26.429713983088732">
        <ele>223.63999999999999</ele>
        <time>2011-08-17T10:28:05Z</time>
      </trkpt>
      <trkpt lat="54.928905023261905" lon="26.430304991081357">
        <ele>223.16</ele>
        <time>2011-08-17T10:28:18Z</time>
      </trkpt>
      <trkpt lat="54.928749036043882" lon="26.430817041546106">
        <ele>223.63999999999999</ele>
        <time>2011-08-17T10:28:30Z</time>
      </trkpt>
      <trkpt lat="54.928679969161749" lon="26.430863980203867">
        <ele>223.16</ele>
        <time>2011-08-17T10:28:34Z</time>
      </trkpt>
      <trkpt lat="54.928565975278616" lon="26.430582012981176">
        <ele>223.16</ele>
        <time>2011-08-17T10:28:44Z</time>
      </trkpt>
      <trkpt lat="54.928604029119015" lon="26.430738000199199">
        <ele>223.16</ele>
        <time>2011-08-17T10:28:52Z</time>
      </trkpt>
      <trkpt lat="54.928649961948395" lon="26.430860962718725">
        <ele>225.56999999999999</ele>
        <time>2011-08-17T10:29:01Z</time>
      </trkpt>
      <trkpt lat="54.928649961948395" lon="26.430860962718725">
        <ele>221.72</ele>
        <time>2011-08-17T10:29:03Z</time>
      </trkpt>
      <trkpt lat="54.928649961948395" lon="26.430860962718725">
        <ele>222.68000000000001</ele>
        <time>2011-08-17T10:29:04Z</time>
      </trkpt>
      <trkpt lat="54.928649961948395" lon="26.430865991860628">
        <ele>223.63999999999999</ele>
        <time>2011-08-17T10:29:34Z</time>
      </trkpt>
      <trkpt lat="54.928764039650559" lon="26.430799020454288">
        <ele>223.16</ele>
        <time>2011-08-17T10:29:45Z</time>
      </trkpt>
      <trkpt lat="54.928882978856564" lon="26.430543959140778">
        <ele>223.63999999999999</ele>
        <time>2011-08-17T10:29:58Z</time>
      </trkpt>
      <trkpt lat="54.928996972739697" lon="26.429922021925449">
        <ele>224.12</ele>
        <time>2011-08-17T10:30:13Z</time>
      </trkpt>
      <trkpt lat="54.92893997579813" lon="26.429390022531152">
        <ele>223.16</ele>
        <time>2011-08-17T10:30:24Z</time>
      </trkpt>
      <trkpt lat="54.928821958601475" lon="26.429034965112805">
        <ele>212.11000000000001</ele>
        <time>2011-08-17T10:30:32Z</time>
      </trkpt>
      <trkpt lat="54.928809972479939" lon="26.428992971777916">
        <ele>224.61000000000001</ele>
        <time>2011-08-17T10:30:33Z</time>
      </trkpt>
      <trkpt lat="54.928794968873262" lon="26.428948966786265">
        <ele>212.59</ele>
        <time>2011-08-17T10:30:34Z</time>
      </trkpt>
      <trkpt lat="54.928779965266585" lon="26.428906973451376">
        <ele>225.56999999999999</ele>
        <time>2011-08-17T10:30:35Z</time>
      </trkpt>
      <trkpt lat="54.928725985810161" lon="26.428779987618327">
        <ele>218.36000000000001</ele>
        <time>2011-08-17T10:30:38Z</time>
      </trkpt>
      <trkpt lat="54.928706958889961" lon="26.428728019818664">
        <ele>224.12</ele>
        <time>2011-08-17T10:30:39Z</time>
      </trkpt>
      <trkpt lat="54.928492968901992" lon="26.428060987964272">
        <ele>224.12</ele>
        <time>2011-08-17T10:30:53Z</time>
      </trkpt>
      <trkpt lat="54.928264981135726" lon="26.427423041313887">
        <ele>222.68000000000001</ele>
        <time>2011-08-17T10:31:04Z</time>
      </trkpt>
      <trkpt lat="54.927837001159787" lon="26.426426013931632">
        <ele>221.24000000000001</ele>
        <time>2011-08-17T10:31:19Z</time>
      </trkpt>
      <trkpt lat="54.927360992878675" lon="26.425404008477926">
        <ele>219.80000000000001</ele>
        <time>2011-08-17T10:31:33Z</time>
      </trkpt>
      <trkpt lat="54.92676897905767" lon="26.424220986664295">
        <ele>217.40000000000001</ele>
        <time>2011-08-17T10:31:46Z</time>
      </trkpt>
      <trkpt lat="54.926593964919448" lon="26.42377900891006">
        <ele>217.40000000000001</ele>
        <time>2011-08-17T10:31:51Z</time>
      </trkpt>
      <trkpt lat="54.926212001591921" lon="26.422923970967531">
        <ele>215.94999999999999</ele>
        <time>2011-08-17T10:32:02Z</time>
      </trkpt>
      <trkpt lat="54.925849987193942" lon="26.422829004004598">
        <ele>214.50999999999999</ele>
        <time>2011-08-17T10:32:11Z</time>
      </trkpt>
      <trkpt lat="54.925773963332176" lon="26.422958001494408">
        <ele>214.03</ele>
        <time>2011-08-17T10:32:13Z</time>
      </trkpt>
      <trkpt lat="54.925468023866415" lon="26.423468040302396">
        <ele>210.66999999999999</ele>
        <time>2011-08-17T10:32:19Z</time>
      </trkpt>
      <trkpt lat="54.924847008660436" lon="26.42444796860218">
        <ele>210.66999999999999</ele>
        <time>2011-08-17T10:32:33Z</time>
      </trkpt>
      <trkpt lat="54.924347028136253" lon="26.425323039293289">
        <ele>209.69999999999999</ele>
        <time>2011-08-17T10:32:49Z</time>
      </trkpt>
      <trkpt lat="54.924187017604709" lon="26.425650017336011">
        <ele>209.69999999999999</ele>
        <time>2011-08-17T10:32:54Z</time>
      </trkpt>
      <trkpt lat="54.92374001070857" lon="26.426375973969698">
        <ele>210.66999999999999</ele>
        <time>2011-08-17T10:33:10Z</time>
      </trkpt>
      <trkpt lat="54.923385959118605" lon="26.426975028589368">
        <ele>212.59</ele>
        <time>2011-08-17T10:33:23Z</time>
      </trkpt>
      <trkpt lat="54.923050012439489" lon="26.42749403603375">
        <ele>215.94999999999999</ele>
        <time>2011-08-17T10:33:37Z</time>
      </trkpt>
      <trkpt lat="54.922896958887577" lon="26.427734009921551">
        <ele>218.84</ele>
        <time>2011-08-17T10:33:44Z</time>
      </trkpt>
      <trkpt lat="54.922728985548019" lon="26.428029974922538">
        <ele>211.63</ele>
        <time>2011-08-17T10:33:53Z</time>
      </trkpt>
      <trkpt lat="54.92270995862782" lon="26.428060987964272">
        <ele>220.75999999999999</ele>
        <time>2011-08-17T10:33:54Z</time>
      </trkpt>
      <trkpt lat="54.922695038840175" lon="26.428093006834388">
        <ele>216.91</ele>
        <time>2011-08-17T10:33:55Z</time>
      </trkpt>
      <trkpt lat="54.922661008313298" lon="26.428152015432715">
        <ele>220.75999999999999</ele>
        <time>2011-08-17T10:33:57Z</time>
      </trkpt>
      <trkpt lat="54.922390021383762" lon="26.428649984300137">
        <ele>218.84</ele>
        <time>2011-08-17T10:34:11Z</time>
      </trkpt>
      <trkpt lat="54.922095984220505" lon="26.429255995899439">
        <ele>217.40000000000001</ele>
        <time>2011-08-17T10:34:24Z</time>
      </trkpt>
      <trkpt lat="54.921718966215849" lon="26.430144980549812">
        <ele>216.91</ele>
        <time>2011-08-17T10:34:39Z</time>
      </trkpt>
      <trkpt lat="54.921458959579468" lon="26.430846964940429">
        <ele>217.88</ele>
        <time>2011-08-17T10:34:54Z</time>
      </trkpt>
      <trkpt lat="54.921284029260278" lon="26.43147099763155">
        <ele>219.31999999999999</ele>
        <time>2011-08-17T10:35:08Z</time>
      </trkpt>
      <trkpt lat="54.921154025942087" lon="26.43218002282083">
        <ele>220.75999999999999</ele>
        <time>2011-08-17T10:35:23Z</time>
      </trkpt>
      <trkpt lat="54.921055035665631" lon="26.432845965027809">
        <ele>222.19999999999999</ele>
        <time>2011-08-17T10:35:37Z</time>
      </trkpt>
      <trkpt lat="54.920955961570144" lon="26.433539986610413">
        <ele>224.61000000000001</ele>
        <time>2011-08-17T10:35:52Z</time>
      </trkpt>
      <trkpt lat="54.920917991548777" lon="26.433907030150294">
        <ele>225.56999999999999</ele>
        <time>2011-08-17T10:36:05Z</time>
      </trkpt>
      <trkpt lat="54.920917991548777" lon="26.433907030150294">
        <ele>221.24000000000001</ele>
        <time>2011-08-17T10:36:09Z</time>
      </trkpt>
      <trkpt lat="54.920917991548777" lon="26.433907030150294">
        <ele>223.63999999999999</ele>
        <time>2011-08-17T10:36:10Z</time>
      </trkpt>
      <trkpt lat="54.920917991548777" lon="26.433907030150294">
        <ele>220.28</ele>
        <time>2011-08-17T10:36:11Z</time>
      </trkpt>
      <trkpt lat="54.920917991548777" lon="26.433907030150294">
        <ele>225.56999999999999</ele>
        <time>2011-08-17T10:36:12Z</time>
      </trkpt>
      <trkpt lat="54.920917991548777" lon="26.433907030150294">
        <ele>225.09</ele>
        <time>2011-08-17T10:36:13Z</time>
      </trkpt>
      <trkpt lat="54.920917991548777" lon="26.433907030150294">
        <ele>225.09</ele>
        <time>2011-08-17T10:36:33Z</time>
      </trkpt>
      <trkpt lat="54.920917991548777" lon="26.433903006836772">
        <ele>225.09</ele>
        <time>2011-08-17T10:37:03Z</time>
      </trkpt>
      <trkpt lat="54.920913968235254" lon="26.433903006836772">
        <ele>225.56999999999999</ele>
        <time>2011-08-17T10:37:30Z</time>
      </trkpt>
      <trkpt lat="54.920913968235254" lon="26.433903006836772">
        <ele>225.09</ele>
        <time>2011-08-17T10:37:43Z</time>
      </trkpt>
      <trkpt lat="54.920925032347441" lon="26.4339620154351">
        <ele>225.09</ele>
        <time>2011-08-17T10:37:46Z</time>
      </trkpt>
      <trkpt lat="54.920913968235254" lon="26.434270972386003">
        <ele>225.09</ele>
        <time>2011-08-17T10:37:54Z</time>
      </trkpt>
      <trkpt lat="54.920886978507042" lon="26.434705993160605">
        <ele>225.09</ele>
        <time>2011-08-17T10:38:02Z</time>
      </trkpt>
      <trkpt lat="54.920772984623909" lon="26.435784995555878">
        <ele>224.61000000000001</ele>
        <time>2011-08-17T10:38:18Z</time>
      </trkpt>
      <trkpt lat="54.92073099128902" lon="26.436385978013277">
        <ele>223.63999999999999</ele>
        <time>2011-08-17T10:38:27Z</time>
      </trkpt>
      <trkpt lat="54.920605011284351" lon="26.437539998441935">
        <ele>222.19999999999999</ele>
        <time>2011-08-17T10:38:42Z</time>
      </trkpt>
      <trkpt lat="54.920569974929094" lon="26.437894972041249">
        <ele>222.68000000000001</ele>
        <time>2011-08-17T10:38:47Z</time>
      </trkpt>
      <trkpt lat="54.920512977987528" lon="26.438416996970773">
        <ele>222.68000000000001</ele>
        <time>2011-08-17T10:38:54Z</time>
      </trkpt>
      <trkpt lat="54.920497974380851" lon="26.438559992238879">
        <ele>222.19999999999999</ele>
        <time>2011-08-17T10:38:56Z</time>
      </trkpt>
      <trkpt lat="54.920440977439284" lon="26.439142031595111">
        <ele>222.68000000000001</ele>
        <time>2011-08-17T10:39:04Z</time>
      </trkpt>
      <trkpt lat="54.920241991057992" lon="26.440082984045148">
        <ele>222.68000000000001</ele>
        <time>2011-08-17T10:39:18Z</time>
      </trkpt>
      <trkpt lat="54.920123973861337" lon="26.440394958481193">
        <ele>222.68000000000001</ele>
        <time>2011-08-17T10:39:23Z</time>
      </trkpt>
      <trkpt lat="54.920009979978204" lon="26.440610960125923">
        <ele>222.19999999999999</ele>
        <time>2011-08-17T10:39:27Z</time>
      </trkpt>
      <trkpt lat="54.919487033039331" lon="26.44118101336062">
        <ele>220.75999999999999</ele>
        <time>2011-08-17T10:39:40Z</time>
      </trkpt>
      <trkpt lat="54.919059975072742" lon="26.441594995558262">
        <ele>218.36000000000001</ele>
        <time>2011-08-17T10:39:49Z</time>
      </trkpt>
      <trkpt lat="54.918694021180272" lon="26.441942006349564">
        <ele>216.91</ele>
        <time>2011-08-17T10:39:59Z</time>
      </trkpt>
      <trkpt lat="54.918269980698824" lon="26.442331010475755">
        <ele>216.43000000000001</ele>
        <time>2011-08-17T10:40:08Z</time>
      </trkpt>
      <trkpt lat="54.91785398684442" lon="26.442719008773565">
        <ele>215.94999999999999</ele>
        <time>2011-08-17T10:40:19Z</time>
      </trkpt>
      <trkpt lat="54.91740002296865" lon="26.443133996799588">
        <ele>215.94999999999999</ele>
        <time>2011-08-17T10:40:31Z</time>
      </trkpt>
      <trkpt lat="54.916743971407413" lon="26.443751994520426">
        <ele>215.94999999999999</ele>
        <time>2011-08-17T10:40:48Z</time>
      </trkpt>
      <trkpt lat="54.916710024699569" lon="26.443791976198554">
        <ele>215.47</ele>
        <time>2011-08-17T10:40:49Z</time>
      </trkpt>
      <trkpt lat="54.916046010330319" lon="26.444420032203197">
        <ele>214.50999999999999</ele>
        <time>2011-08-17T10:41:05Z</time>
      </trkpt>
      <trkpt lat="54.915615012869239" lon="26.444836026057601">
        <ele>214.50999999999999</ele>
        <time>2011-08-17T10:41:16Z</time>
      </trkpt>
      <trkpt lat="54.91557695902884" lon="26.444871984422207">
        <ele>214.03</ele>
        <time>2011-08-17T10:41:17Z</time>
      </trkpt>
      <trkpt lat="54.915417032316327" lon="26.445027971640229">
        <ele>214.03</ele>
        <time>2011-08-17T10:41:21Z</time>
      </trkpt>
      <trkpt lat="54.915378978475928" lon="26.445065019652247">
        <ele>214.03</ele>
        <time>2011-08-17T10:41:22Z</time>
      </trkpt>
      <trkpt lat="54.914874974638224" lon="26.445619985461235">
        <ele>213.55000000000001</ele>
        <time>2011-08-17T10:41:37Z</time>
      </trkpt>
      <trkpt lat="54.914546990767121" lon="26.446032961830497">
        <ele>213.55000000000001</ele>
        <time>2011-08-17T10:41:49Z</time>
      </trkpt>
      <trkpt lat="54.914509020745754" lon="26.446076966822147">
        <ele>213.55000000000001</ele>
        <time>2011-08-17T10:41:51Z</time>
      </trkpt>
      <trkpt lat="54.91447800770402" lon="26.446100017055869">
        <ele>214.03</ele>
        <time>2011-08-17T10:41:53Z</time>
      </trkpt>
      <trkpt lat="54.914473984390497" lon="26.446122983470559">
        <ele>213.55000000000001</ele>
        <time>2011-08-17T10:41:54Z</time>
      </trkpt>
      <trkpt lat="54.914482031017542" lon="26.446142010390759">
        <ele>213.55000000000001</ele>
        <time>2011-08-17T10:41:55Z</time>
      </trkpt>
      <trkpt lat="54.914494017139077" lon="26.44614402204752">
        <ele>213.06999999999999</ele>
        <time>2011-08-17T10:41:56Z</time>
      </trkpt>
      <trkpt lat="54.914504997432232" lon="26.446127006784081">
        <ele>214.03</ele>
        <time>2011-08-17T10:41:57Z</time>
      </trkpt>
      <trkpt lat="54.914504997432232" lon="26.446104040369391">
        <ele>213.55000000000001</ele>
        <time>2011-08-17T10:41:58Z</time>
      </trkpt>
      <trkpt lat="54.914512960240245" lon="26.44608099013567">
        <ele>213.06999999999999</ele>
        <time>2011-08-17T10:41:59Z</time>
      </trkpt>
      <trkpt lat="54.914524024352431" lon="26.446060035377741">
        <ele>213.55000000000001</ele>
        <time>2011-08-17T10:42:00Z</time>
      </trkpt>
      <trkpt lat="54.914603987708688" lon="26.445927014574409">
        <ele>213.55000000000001</ele>
        <time>2011-08-17T10:42:05Z</time>
      </trkpt>
      <trkpt lat="54.914618991315365" lon="26.445915028452873">
        <ele>213.55000000000001</ele>
        <time>2011-08-17T10:42:06Z</time>
      </trkpt>
      <trkpt lat="54.914645981043577" lon="26.44590999931097">
        <ele>213.55000000000001</ele>
        <time>2011-08-17T10:42:21Z</time>
      </trkpt>
      <trkpt lat="54.914676994085312" lon="26.44588896073401">
        <ele>214.03</ele>
        <time>2011-08-17T10:42:25Z</time>
      </trkpt>
      <trkpt lat="54.914684034883976" lon="26.445869011804461">
        <ele>213.55000000000001</ele>
        <time>2011-08-17T10:42:26Z</time>
      </trkpt>
      <trkpt lat="54.914684034883976" lon="26.44584696739912">
        <ele>214.03</ele>
        <time>2011-08-17T10:42:27Z</time>
      </trkpt>
      <trkpt lat="54.91467297077179" lon="26.44582400098443">
        <ele>213.55000000000001</ele>
        <time>2011-08-17T10:42:37Z</time>
      </trkpt>
      <trkpt lat="54.91467297077179" lon="26.445821989327669">
        <ele>213.55000000000001</ele>
        <time>2011-08-17T10:43:17Z</time>
      </trkpt>
      <trkpt lat="54.914676994085312" lon="26.445821989327669">
        <ele>213.55000000000001</ele>
        <time>2011-08-17T10:43:55Z</time>
      </trkpt>
      <trkpt lat="54.914676994085312" lon="26.445821989327669">
        <ele>213.55000000000001</ele>
        <time>2011-08-17T10:44:30Z</time>
      </trkpt>
      <trkpt lat="54.914676994085312" lon="26.445814026519656">
        <ele>214.03</ele>
        <time>2011-08-17T10:45:08Z</time>
      </trkpt>
      <trkpt lat="54.914680011570454" lon="26.445851996541023">
        <ele>213.06999999999999</ele>
        <time>2011-08-17T10:45:28Z</time>
      </trkpt>
      <trkpt lat="54.91467297077179" lon="26.445874962955713">
        <ele>214.03</ele>
        <time>2011-08-17T10:45:46Z</time>
      </trkpt>
      <trkpt lat="54.914676994085312" lon="26.445869011804461">
        <ele>213.55000000000001</ele>
        <time>2011-08-17T10:46:18Z</time>
      </trkpt>
      <trkpt lat="54.914599964395165" lon="26.44601795822382">
        <ele>214.03</ele>
        <time>2011-08-17T10:46:35Z</time>
      </trkpt>
      <trkpt lat="54.914531987160444" lon="26.446087025105953">
        <ele>214.03</ele>
        <time>2011-08-17T10:46:39Z</time>
      </trkpt>
      <trkpt lat="54.914473984390497" lon="26.446309983730316">
        <ele>214.50999999999999</ele>
        <time>2011-08-17T10:46:46Z</time>
      </trkpt>
      <trkpt lat="54.914489993825555" lon="26.446444010362029">
        <ele>213.55000000000001</ele>
        <time>2011-08-17T10:46:50Z</time>
      </trkpt>
      <trkpt lat="54.914783025160432" lon="26.447136020287871">
        <ele>212.59</ele>
        <time>2011-08-17T10:47:06Z</time>
      </trkpt>
      <trkpt lat="54.915050994604826" lon="26.447887038812041">
        <ele>211.15000000000001</ele>
        <time>2011-08-17T10:47:22Z</time>
      </trkpt>
      <trkpt lat="54.915142022073269" lon="26.448150984942913">
        <ele>211.63</ele>
        <time>2011-08-17T10:47:27Z</time>
      </trkpt>
      <trkpt lat="54.915194995701313" lon="26.448276964947581">
        <ele>211.63</ele>
        <time>2011-08-17T10:47:29Z</time>
      </trkpt>
      <trkpt lat="54.915221985429525" lon="26.44833798520267">
        <ele>211.15000000000001</ele>
        <time>2011-08-17T10:47:30Z</time>
      </trkpt>
      <trkpt lat="54.915336985141039" lon="26.448647025972605">
        <ele>210.66999999999999</ele>
        <time>2011-08-17T10:47:38Z</time>
      </trkpt>
      <trkpt lat="54.91535902954638" lon="26.448660017922521">
        <ele>211.15000000000001</ele>
        <time>2011-08-17T10:47:39Z</time>
      </trkpt>
      <trkpt lat="54.915417032316327" lon="26.448633028194308">
        <ele>210.66999999999999</ele>
        <time>2011-08-17T10:47:41Z</time>
      </trkpt>
      <trkpt lat="54.915824979543686" lon="26.448224997147918">
        <ele>210.66999999999999</ele>
        <time>2011-08-17T10:47:57Z</time>
      </trkpt>
      <trkpt lat="54.916119016706944" lon="26.447916040197015">
        <ele>211.63</ele>
        <time>2011-08-17T10:48:10Z</time>
      </trkpt>
      <trkpt lat="54.916321020573378" lon="26.447554025799036">
        <ele>213.06999999999999</ele>
        <time>2011-08-17T10:48:23Z</time>
      </trkpt>
      <trkpt lat="54.916405007243156" lon="26.447244985029101">
        <ele>214.03</ele>
        <time>2011-08-17T10:48:35Z</time>
      </trkpt>
      <trkpt lat="54.916400983929634" lon="26.447206009179354">
        <ele>214.50999999999999</ele>
        <time>2011-08-17T10:48:47Z</time>
      </trkpt>
      <trkpt lat="54.916400983929634" lon="26.447206009179354">
        <ele>214.50999999999999</ele>
        <time>2011-08-17T10:49:09Z</time>
      </trkpt>
      <trkpt lat="54.916388997808099" lon="26.447202991694212">
        <ele>214.50999999999999</ele>
        <time>2011-08-17T10:49:46Z</time>
      </trkpt>
      <trkpt lat="54.916388997808099" lon="26.447202991694212">
        <ele>214.50999999999999</ele>
        <time>2011-08-17T10:50:23Z</time>
      </trkpt>
      <trkpt lat="54.916385980322957" lon="26.447205003350973">
        <ele>214.99000000000001</ele>
        <time>2011-08-17T10:50:59Z</time>
      </trkpt>
      <trkpt lat="54.916385980322957" lon="26.447206009179354">
        <ele>214.99000000000001</ele>
        <time>2011-08-17T10:51:31Z</time>
      </trkpt>
      <trkpt lat="54.916385980322957" lon="26.447206009179354">
        <ele>215.47</ele>
        <time>2011-08-17T10:52:05Z</time>
      </trkpt>
      <trkpt lat="54.916382040828466" lon="26.447200980037451">
        <ele>214.99000000000001</ele>
        <time>2011-08-17T10:52:42Z</time>
      </trkpt>
      <trkpt lat="54.916382040828466" lon="26.447202991694212">
        <ele>215.47</ele>
        <time>2011-08-17T10:53:16Z</time>
      </trkpt>
      <trkpt lat="54.916382040828466" lon="26.447205003350973">
        <ele>214.99000000000001</ele>
        <time>2011-08-17T10:53:56Z</time>
      </trkpt>
      <trkpt lat="54.916385980322957" lon="26.447205003350973">
        <ele>214.99000000000001</ele>
        <time>2011-08-17T10:54:30Z</time>
      </trkpt>
      <trkpt lat="54.916382040828466" lon="26.447208020836115">
        <ele>214.50999999999999</ele>
        <time>2011-08-17T10:55:06Z</time>
      </trkpt>
      <trkpt lat="54.916385980322957" lon="26.447208020836115">
        <ele>214.99000000000001</ele>
        <time>2011-08-17T10:55:37Z</time>
      </trkpt>
      <trkpt lat="54.916385980322957" lon="26.447210032492876">
        <ele>214.50999999999999</ele>
        <time>2011-08-17T10:56:13Z</time>
      </trkpt>
      <trkpt lat="54.916388997808099" lon="26.447210032492876">
        <ele>214.99000000000001</ele>
        <time>2011-08-17T10:56:49Z</time>
      </trkpt>
      <trkpt lat="54.916385980322957" lon="26.447215983644128">
        <ele>215.47</ele>
        <time>2011-08-17T10:57:26Z</time>
      </trkpt>
      <trkpt lat="54.916385980322957" lon="26.447215983644128">
        <ele>215.47</ele>
        <time>2011-08-17T10:58:01Z</time>
      </trkpt>
      <trkpt lat="54.916388997808099" lon="26.447217995300889">
        <ele>215.47</ele>
        <time>2011-08-17T10:58:35Z</time>
      </trkpt>
      <trkpt lat="54.916388997808099" lon="26.447217995300889">
        <ele>214.99000000000001</ele>
        <time>2011-08-17T10:59:06Z</time>
      </trkpt>
      <trkpt lat="54.916385980322957" lon="26.447217995300889">
        <ele>215.47</ele>
        <time>2011-08-17T10:59:10Z</time>
      </trkpt>
      <trkpt lat="54.916388997808099" lon="26.447246996685863">
        <ele>215.47</ele>
        <time>2011-08-17T10:59:22Z</time>
      </trkpt>
      <trkpt lat="54.916373994201422" lon="26.447301981970668">
        <ele>215.47</ele>
        <time>2011-08-17T10:59:25Z</time>
      </trkpt>
      <trkpt lat="54.916382040828466" lon="26.447466015815735">
        <ele>214.50999999999999</ele>
        <time>2011-08-17T10:59:35Z</time>
      </trkpt>
      <trkpt lat="54.916321020573378" lon="26.447572968900204">
        <ele>213.55000000000001</ele>
        <time>2011-08-17T10:59:44Z</time>
      </trkpt>
      <trkpt lat="54.916285984218121" lon="26.447639018297195">
        <ele>213.55000000000001</ele>
        <time>2011-08-17T10:59:48Z</time>
      </trkpt>
      <trkpt lat="54.916244996711612" lon="26.447729039937258">
        <ele>212.59</ele>
        <time>2011-08-17T10:59:55Z</time>
      </trkpt>
      <trkpt lat="54.916209960356355" lon="26.447835993021727">
        <ele>213.06999999999999</ele>
        <time>2011-08-17T10:59:59Z</time>
      </trkpt>
      <trkpt lat="54.915885999798775" lon="26.448136987164617">
        <ele>212.59</ele>
        <time>2011-08-17T11:00:11Z</time>
      </trkpt>
      <trkpt lat="54.915501018986106" lon="26.448522973805666">
        <ele>211.15000000000001</ele>
        <time>2011-08-17T11:00:24Z</time>
      </trkpt>
      <trkpt lat="54.915375038981438" lon="26.448611989617348">
        <ele>211.15000000000001</ele>
        <time>2011-08-17T11:00:29Z</time>
      </trkpt>
      <trkpt lat="54.915173035115004" lon="26.448237989097834">
        <ele>212.11000000000001</ele>
        <time>2011-08-17T11:00:40Z</time>
      </trkpt>
      <trkpt lat="54.914986034855247" lon="26.448047971352935">
        <ele>212.11000000000001</ele>
        <time>2011-08-17T11:00:51Z</time>
      </trkpt>
      <trkpt lat="54.914986034855247" lon="26.448071021586657">
        <ele>212.11000000000001</ele>
        <time>2011-08-17T11:01:04Z</time>
      </trkpt>
      <trkpt lat="54.914986034855247" lon="26.448071021586657">
        <ele>212.59</ele>
        <time>2011-08-17T11:01:24Z</time>
      </trkpt>
      <trkpt lat="54.914982011541724" lon="26.448072027415037">
        <ele>212.11000000000001</ele>
        <time>2011-08-17T11:01:46Z</time>
      </trkpt>
      <trkpt lat="54.914982011541724" lon="26.44807999022305">
        <ele>212.59</ele>
        <time>2011-08-17T11:02:22Z</time>
      </trkpt>
      <trkpt lat="54.914982011541724" lon="26.44807999022305">
        <ele>212.59</ele>
        <time>2011-08-17T11:03:01Z</time>
      </trkpt>
      <trkpt lat="54.914982011541724" lon="26.448082001879811">
        <ele>212.59</ele>
        <time>2011-08-17T11:03:40Z</time>
      </trkpt>
      <trkpt lat="54.914986034855247" lon="26.448082001879811">
        <ele>212.11000000000001</ele>
        <time>2011-08-17T11:04:17Z</time>
      </trkpt>
      <trkpt lat="54.914986034855247" lon="26.448082001879811">
        <ele>215.94999999999999</ele>
        <time>2011-08-17T11:04:36Z</time>
      </trkpt>
      <trkpt lat="54.914986034855247" lon="26.448082001879811">
        <ele>206.81999999999999</ele>
        <time>2011-08-17T11:04:39Z</time>
      </trkpt>
      <trkpt lat="54.914986034855247" lon="26.448082001879811">
        <ele>210.19</ele>
        <time>2011-08-17T11:04:40Z</time>
      </trkpt>
      <trkpt lat="54.914986034855247" lon="26.448082001879811">
        <ele>213.55000000000001</ele>
        <time>2011-08-17T11:04:42Z</time>
      </trkpt>
      <trkpt lat="54.914986034855247" lon="26.448082001879811">
        <ele>209.69999999999999</ele>
        <time>2011-08-17T11:04:44Z</time>
      </trkpt>
      <trkpt lat="54.914986034855247" lon="26.44807999022305">
        <ele>213.55000000000001</ele>
        <time>2011-08-17T11:04:45Z</time>
      </trkpt>
      <trkpt lat="54.914986034855247" lon="26.44807999022305">
        <ele>208.74000000000001</ele>
        <time>2011-08-17T11:04:46Z</time>
      </trkpt>
      <trkpt lat="54.914986034855247" lon="26.44807999022305">
        <ele>214.50999999999999</ele>
        <time>2011-08-17T11:04:47Z</time>
      </trkpt>
      <trkpt lat="54.914986034855247" lon="26.44807999022305">
        <ele>213.06999999999999</ele>
        <time>2011-08-17T11:05:16Z</time>
      </trkpt>
      <trkpt lat="54.914986034855247" lon="26.44807999022305">
        <ele>213.06999999999999</ele>
        <time>2011-08-17T11:05:17Z</time>
      </trkpt>
      <trkpt lat="54.915046971291304" lon="26.448123995214701">
        <ele>212.59</ele>
        <time>2011-08-17T11:05:21Z</time>
      </trkpt>
      <trkpt lat="54.915175968781114" lon="26.448262967169285">
        <ele>212.59</ele>
        <time>2011-08-17T11:05:29Z</time>
      </trkpt>
      <trkpt lat="54.915241012349725" lon="26.448392970487475">
        <ele>212.59</ele>
        <time>2011-08-17T11:05:33Z</time>
      </trkpt>
      <trkpt lat="54.915507975965738" lon="26.44915203563869">
        <ele>211.15000000000001</ele>
        <time>2011-08-17T11:05:48Z</time>
      </trkpt>
      <trkpt lat="54.91553102619946" lon="26.449212972074747">
        <ele>211.15000000000001</ele>
        <time>2011-08-17T11:05:49Z</time>
      </trkpt>
      <trkpt lat="54.915938973426819" lon="26.450408985838294">
        <ele>209.22</ele>
        <time>2011-08-17T11:06:06Z</time>
      </trkpt>
      <trkpt lat="54.916388997808099" lon="26.451644981279969">
        <ele>208.74000000000001</ele>
        <time>2011-08-17T11:06:23Z</time>
      </trkpt>
      <trkpt lat="54.916813038289547" lon="26.4528470300138">
        <ele>207.78</ele>
        <time>2011-08-17T11:06:39Z</time>
      </trkpt>
      <trkpt lat="54.917301032692194" lon="26.45422400906682">
        <ele>206.81999999999999</ele>
        <time>2011-08-17T11:06:56Z</time>
      </trkpt>
      <trkpt lat="54.917777962982655" lon="26.455681035295129">
        <ele>206.81999999999999</ele>
        <time>2011-08-17T11:07:13Z</time>
      </trkpt>
      <trkpt lat="54.918236033990979" lon="26.457025995478034">
        <ele>206.34</ele>
        <time>2011-08-17T11:07:29Z</time>
      </trkpt>
      <trkpt lat="54.91883902810514" lon="26.458727018907666">
        <ele>205.38</ele>
        <time>2011-08-17T11:07:49Z</time>
      </trkpt>
      <trkpt lat="54.919002978131175" lon="26.459334958344698">
        <ele>204.41999999999999</ele>
        <time>2011-08-17T11:07:58Z</time>
      </trkpt>
      <trkpt lat="54.918983029201627" lon="26.45938097499311">
        <ele>203.94</ele>
        <time>2011-08-17T11:07:59Z</time>
      </trkpt>
      <trkpt lat="54.918911028653383" lon="26.459515001624823">
        <ele>204.41999999999999</ele>
        <time>2011-08-17T11:08:03Z</time>
      </trkpt>
      <trkpt lat="54.918857971206307" lon="26.459749024361372">
        <ele>203.46000000000001</ele>
        <time>2011-08-17T11:08:16Z</time>
      </trkpt>
      <trkpt lat="54.918857971206307" lon="26.459749024361372">
        <ele>203.94</ele>
        <time>2011-08-17T11:08:37Z</time>
      </trkpt>
      <trkpt lat="54.918857971206307" lon="26.45974500104785">
        <ele>203.94</ele>
        <time>2011-08-17T11:09:00Z</time>
      </trkpt>
      <trkpt lat="54.918857971206307" lon="26.45974500104785">
        <ele>205.86000000000001</ele>
        <time>2011-08-17T11:09:25Z</time>
      </trkpt>
      <trkpt lat="54.918857971206307" lon="26.45974500104785">
        <ele>203.94</ele>
        <time>2011-08-17T11:09:56Z</time>
      </trkpt>
      <trkpt lat="54.918857971206307" lon="26.459739971905947">
        <ele>204.41999999999999</ele>
        <time>2011-08-17T11:10:25Z</time>
      </trkpt>
      <trkpt lat="54.918857971206307" lon="26.459739971905947">
        <ele>203.94</ele>
        <time>2011-08-17T11:10:53Z</time>
      </trkpt>
      <trkpt lat="54.918857971206307" lon="26.459736032411456">
        <ele>204.41999999999999</ele>
        <time>2011-08-17T11:11:24Z</time>
      </trkpt>
      <trkpt lat="54.918854031711817" lon="26.459734020754695">
        <ele>203.94</ele>
        <time>2011-08-17T11:11:56Z</time>
      </trkpt>
      <trkpt lat="54.918850008398294" lon="26.459736032411456">
        <ele>204.41999999999999</ele>
        <time>2011-08-17T11:12:26Z</time>
      </trkpt>
      <trkpt lat="54.918850008398294" lon="26.459742989391088">
        <ele>204.90000000000001</ele>
        <time>2011-08-17T11:13:02Z</time>
      </trkpt>
      <trkpt lat="54.918850008398294" lon="26.459742989391088">
        <ele>203.94</ele>
        <time>2011-08-17T11:13:37Z</time>
      </trkpt>
      <trkpt lat="54.918850008398294" lon="26.459742989391088">
        <ele>204.41999999999999</ele>
        <time>2011-08-17T11:14:12Z</time>
      </trkpt>
      <trkpt lat="54.918845985084772" lon="26.459739971905947">
        <ele>204.41999999999999</ele>
        <time>2011-08-17T11:14:39Z</time>
      </trkpt>
      <trkpt lat="54.918845985084772" lon="26.459741983562708">
        <ele>204.41999999999999</ele>
        <time>2011-08-17T11:15:12Z</time>
      </trkpt>
      <trkpt lat="54.918845985084772" lon="26.459742989391088">
        <ele>203.94</ele>
        <time>2011-08-17T11:15:45Z</time>
      </trkpt>
      <trkpt lat="54.918845985084772" lon="26.459742989391088">
        <ele>204.41999999999999</ele>
        <time>2011-08-17T11:16:11Z</time>
      </trkpt>
      <trkpt lat="54.918845985084772" lon="26.459742989391088">
        <ele>203.46000000000001</ele>
        <time>2011-08-17T11:16:43Z</time>
      </trkpt>
      <trkpt lat="54.918845985084772" lon="26.45974500104785">
        <ele>203.94</ele>
        <time>2011-08-17T11:17:16Z</time>
      </trkpt>
      <trkpt lat="54.91884196177125" lon="26.45974500104785">
        <ele>203.46000000000001</ele>
        <time>2011-08-17T11:17:45Z</time>
      </trkpt>
      <trkpt lat="54.918845985084772" lon="26.459742989391088">
        <ele>203.94</ele>
        <time>2011-08-17T11:18:19Z</time>
      </trkpt>
      <trkpt lat="54.918845985084772" lon="26.459742989391088">
        <ele>203.94</ele>
        <time>2011-08-17T11:18:51Z</time>
      </trkpt>
      <trkpt lat="54.91884196177125" lon="26.459742989391088">
        <ele>203.46000000000001</ele>
        <time>2011-08-17T11:19:23Z</time>
      </trkpt>
      <trkpt lat="54.918845985084772" lon="26.459747012704611">
        <ele>203.46000000000001</ele>
        <time>2011-08-17T11:20:00Z</time>
      </trkpt>
      <trkpt lat="54.918845985084772" lon="26.459749024361372">
        <ele>203.46000000000001</ele>
        <time>2011-08-17T11:20:36Z</time>
      </trkpt>
      <trkpt lat="54.918845985084772" lon="26.45974500104785">
        <ele>203.46000000000001</ele>
        <time>2011-08-17T11:21:10Z</time>
      </trkpt>
      <trkpt lat="54.918845985084772" lon="26.45974500104785">
        <ele>203.94</ele>
        <time>2011-08-17T11:21:42Z</time>
      </trkpt>
      <trkpt lat="54.918845985084772" lon="26.459741983562708">
        <ele>203.94</ele>
        <time>2011-08-17T11:22:21Z</time>
      </trkpt>
      <trkpt lat="54.918845985084772" lon="26.459741983562708">
        <ele>202.97999999999999</ele>
        <time>2011-08-17T11:22:53Z</time>
      </trkpt>
      <trkpt lat="54.918845985084772" lon="26.459742989391088">
        <ele>203.46000000000001</ele>
        <time>2011-08-17T11:23:20Z</time>
      </trkpt>
      <trkpt lat="54.918865012004972" lon="26.459786994382739">
        <ele>203.46000000000001</ele>
        <time>2011-08-17T11:23:31Z</time>
      </trkpt>
      <trkpt lat="54.918803991749883" lon="26.460009030997753">
        <ele>203.94</ele>
        <time>2011-08-17T11:23:44Z</time>
      </trkpt>
      <trkpt lat="54.918700978159904" lon="26.45998396910727">
        <ele>202.97999999999999</ele>
        <time>2011-08-17T11:23:57Z</time>
      </trkpt>
      <trkpt lat="54.918736014515162" lon="26.46002596244216">
        <ele>203.46000000000001</ele>
        <time>2011-08-17T11:24:13Z</time>
      </trkpt>
      <trkpt lat="54.918736014515162" lon="26.460029985755682">
        <ele>203.94</ele>
        <time>2011-08-17T11:24:38Z</time>
      </trkpt>
      <trkpt lat="54.918736014515162" lon="26.460027974098921">
        <ele>204.41999999999999</ele>
        <time>2011-08-17T11:25:12Z</time>
      </trkpt>
      <trkpt lat="54.918736014515162" lon="26.46002403460443">
        <ele>203.94</ele>
        <time>2011-08-17T11:25:48Z</time>
      </trkpt>
      <trkpt lat="54.918736014515162" lon="26.460005007684231">
        <ele>203.94</ele>
        <time>2011-08-17T11:26:24Z</time>
      </trkpt>
      <trkpt lat="54.918736014515162" lon="26.460005007684231">
        <ele>203.94</ele>
        <time>2011-08-17T11:27:03Z</time>
      </trkpt>
      <trkpt lat="54.918731991201639" lon="26.460011964663863">
        <ele>204.41999999999999</ele>
        <time>2011-08-17T11:27:48Z</time>
      </trkpt>
      <trkpt lat="54.918724028393626" lon="26.460029985755682">
        <ele>204.90000000000001</ele>
        <time>2011-08-17T11:28:28Z</time>
      </trkpt>
      <trkpt lat="54.918724028393626" lon="26.460037026554346">
        <ele>203.46000000000001</ele>
        <time>2011-08-17T11:29:10Z</time>
      </trkpt>
      <trkpt lat="54.918727967888117" lon="26.460029985755682">
        <ele>204.41999999999999</ele>
        <time>2011-08-17T11:29:49Z</time>
      </trkpt>
      <trkpt lat="54.918727967888117" lon="26.460037026554346">
        <ele>203.94</ele>
        <time>2011-08-17T11:30:32Z</time>
      </trkpt>
      <trkpt lat="54.918727967888117" lon="26.460042977705598">
        <ele>204.41999999999999</ele>
        <time>2011-08-17T11:31:15Z</time>
      </trkpt>
      <trkpt lat="54.918727967888117" lon="26.460044989362359">
        <ele>203.94</ele>
        <time>2011-08-17T11:31:57Z</time>
      </trkpt>
      <trkpt lat="54.918727967888117" lon="26.46004700101912">
        <ele>203.94</ele>
        <time>2011-08-17T11:32:38Z</time>
      </trkpt>
      <trkpt lat="54.918731991201639" lon="26.460042977705598">
        <ele>203.94</ele>
        <time>2011-08-17T11:33:11Z</time>
      </trkpt>
      <trkpt lat="54.918727967888117" lon="26.460033003240824">
        <ele>203.94</ele>
        <time>2011-08-17T11:33:46Z</time>
      </trkpt>
      <trkpt lat="54.918727967888117" lon="26.460035014897585">
        <ele>203.46000000000001</ele>
        <time>2011-08-17T11:34:25Z</time>
      </trkpt>
      <trkpt lat="54.918736014515162" lon="26.460035014897585">
        <ele>203.94</ele>
        <time>2011-08-17T11:35:09Z</time>
      </trkpt>
      <trkpt lat="54.918736014515162" lon="26.460027974098921">
        <ele>203.94</ele>
        <time>2011-08-17T11:35:46Z</time>
      </trkpt>
      <trkpt lat="54.918731991201639" lon="26.460017999634147">
        <ele>203.46000000000001</ele>
        <time>2011-08-17T11:36:32Z</time>
      </trkpt>
      <trkpt lat="54.918736014515162" lon="26.46002403460443">
        <ele>203.46000000000001</ele>
        <time>2011-08-17T11:37:12Z</time>
      </trkpt>
      <trkpt lat="54.918731991201639" lon="26.460033003240824">
        <ele>202.97999999999999</ele>
        <time>2011-08-17T11:37:52Z</time>
      </trkpt>
      <trkpt lat="54.918731991201639" lon="26.460031997412443">
        <ele>202.97999999999999</ele>
        <time>2011-08-17T11:38:28Z</time>
      </trkpt>
      <trkpt lat="54.918731991201639" lon="26.460029985755682">
        <ele>202.49000000000001</ele>
        <time>2011-08-17T11:39:05Z</time>
      </trkpt>
      <trkpt lat="54.918724028393626" lon="26.46002596244216">
        <ele>202.49000000000001</ele>
        <time>2011-08-17T11:39:47Z</time>
      </trkpt>
      <trkpt lat="54.918724028393626" lon="26.460031997412443">
        <ele>202.97999999999999</ele>
        <time>2011-08-17T11:40:26Z</time>
      </trkpt>
      <trkpt lat="54.918720005080104" lon="26.460029985755682">
        <ele>202.00999999999999</ele>
        <time>2011-08-17T11:41:06Z</time>
      </trkpt>
      <trkpt lat="54.918724028393626" lon="26.460027974098921">
        <ele>202.00999999999999</ele>
        <time>2011-08-17T11:41:49Z</time>
      </trkpt>
      <trkpt lat="54.918727967888117" lon="26.460029985755682">
        <ele>202.97999999999999</ele>
        <time>2011-08-17T11:42:36Z</time>
      </trkpt>
      <trkpt lat="54.918731991201639" lon="26.460029985755682">
        <ele>202.49000000000001</ele>
        <time>2011-08-17T11:43:18Z</time>
      </trkpt>
      <trkpt lat="54.918736014515162" lon="26.460031997412443">
        <ele>202.49000000000001</ele>
        <time>2011-08-17T11:43:59Z</time>
      </trkpt>
      <trkpt lat="54.918736014515162" lon="26.460035014897585">
        <ele>202.97999999999999</ele>
        <time>2011-08-17T11:44:41Z</time>
      </trkpt>
      <trkpt lat="54.918739032000303" lon="26.460033003240824">
        <ele>202.97999999999999</ele>
        <time>2011-08-17T11:45:29Z</time>
      </trkpt>
      <trkpt lat="54.918736014515162" lon="26.460031997412443">
        <ele>203.46000000000001</ele>
        <time>2011-08-17T11:46:11Z</time>
      </trkpt>
      <trkpt lat="54.918739032000303" lon="26.460029985755682">
        <ele>202.97999999999999</ele>
        <time>2011-08-17T11:46:45Z</time>
      </trkpt>
      <trkpt lat="54.918736014515162" lon="26.460029985755682">
        <ele>203.46000000000001</ele>
        <time>2011-08-17T11:47:23Z</time>
      </trkpt>
      <trkpt lat="54.918731991201639" lon="26.460031997412443">
        <ele>202.97999999999999</ele>
        <time>2011-08-17T11:47:54Z</time>
      </trkpt>
      <trkpt lat="54.918731991201639" lon="26.46002403460443">
        <ele>203.46000000000001</ele>
        <time>2011-08-17T11:48:33Z</time>
      </trkpt>
      <trkpt lat="54.918727967888117" lon="26.46002403460443">
        <ele>202.97999999999999</ele>
        <time>2011-08-17T11:49:15Z</time>
      </trkpt>
      <trkpt lat="54.918727967888117" lon="26.460022022947669">
        <ele>203.46000000000001</ele>
        <time>2011-08-17T11:50:03Z</time>
      </trkpt>
      <trkpt lat="54.918724028393626" lon="26.460022022947669">
        <ele>203.46000000000001</ele>
        <time>2011-08-17T11:50:48Z</time>
      </trkpt>
      <trkpt lat="54.918727967888117" lon="26.460022022947669">
        <ele>202.97999999999999</ele>
        <time>2011-08-17T11:51:30Z</time>
      </trkpt>
      <trkpt lat="54.918727967888117" lon="26.46002403460443">
        <ele>202.97999999999999</ele>
        <time>2011-08-17T11:52:05Z</time>
      </trkpt>
      <trkpt lat="54.918731991201639" lon="26.46002596244216">
        <ele>202.49000000000001</ele>
        <time>2011-08-17T11:52:45Z</time>
      </trkpt>
      <trkpt lat="54.918727967888117" lon="26.460033003240824">
        <ele>202.49000000000001</ele>
        <time>2011-08-17T11:53:31Z</time>
      </trkpt>
      <trkpt lat="54.918731991201639" lon="26.460035014897585">
        <ele>202.49000000000001</ele>
        <time>2011-08-17T11:54:15Z</time>
      </trkpt>
      <trkpt lat="54.918727967888117" lon="26.460033003240824">
        <ele>202.00999999999999</ele>
        <time>2011-08-17T11:54:48Z</time>
      </trkpt>
      <trkpt lat="54.918727967888117" lon="26.460033003240824">
        <ele>202.49000000000001</ele>
        <time>2011-08-17T11:55:27Z</time>
      </trkpt>
      <trkpt lat="54.918727967888117" lon="26.460037026554346">
        <ele>202.97999999999999</ele>
        <time>2011-08-17T11:56:07Z</time>
      </trkpt>
      <trkpt lat="54.918724028393626" lon="26.460039038211107">
        <ele>202.97999999999999</ele>
        <time>2011-08-17T11:56:47Z</time>
      </trkpt>
      <trkpt lat="54.918727967888117" lon="26.460039038211107">
        <ele>202.49000000000001</ele>
        <time>2011-08-17T11:57:22Z</time>
      </trkpt>
      <trkpt lat="54.918727967888117" lon="26.460040966048837">
        <ele>202.49000000000001</ele>
        <time>2011-08-17T11:57:56Z</time>
      </trkpt>
      <trkpt lat="54.918727967888117" lon="26.460039038211107">
        <ele>202.97999999999999</ele>
        <time>2011-08-17T11:58:27Z</time>
      </trkpt>
      <trkpt lat="54.918727967888117" lon="26.460039038211107">
        <ele>202.49000000000001</ele>
        <time>2011-08-17T11:59:01Z</time>
      </trkpt>
      <trkpt lat="54.918731991201639" lon="26.460035014897585">
        <ele>202.97999999999999</ele>
        <time>2011-08-17T11:59:36Z</time>
      </trkpt>
      <trkpt lat="54.918731991201639" lon="26.460035014897585">
        <ele>202.97999999999999</ele>
        <time>2011-08-17T12:00:11Z</time>
      </trkpt>
      <trkpt lat="54.918727967888117" lon="26.460039038211107">
        <ele>202.49000000000001</ele>
        <time>2011-08-17T12:00:45Z</time>
      </trkpt>
      <trkpt lat="54.918724028393626" lon="26.460035014897585">
        <ele>202.97999999999999</ele>
        <time>2011-08-17T12:01:23Z</time>
      </trkpt>
      <trkpt lat="54.918720005080104" lon="26.46002596244216">
        <ele>202.97999999999999</ele>
        <time>2011-08-17T12:01:59Z</time>
      </trkpt>
      <trkpt lat="54.918715981766582" lon="26.46002596244216">
        <ele>202.49000000000001</ele>
        <time>2011-08-17T12:02:35Z</time>
      </trkpt>
      <trkpt lat="54.918715981766582" lon="26.460027974098921">
        <ele>202.49000000000001</ele>
        <time>2011-08-17T12:03:07Z</time>
      </trkpt>
      <trkpt lat="54.918720005080104" lon="26.460027974098921">
        <ele>202.49000000000001</ele>
        <time>2011-08-17T12:03:48Z</time>
      </trkpt>
      <trkpt lat="54.918720005080104" lon="26.460027974098921">
        <ele>202.49000000000001</ele>
        <time>2011-08-17T12:04:22Z</time>
      </trkpt>
      <trkpt lat="54.918715981766582" lon="26.46002596244216">
        <ele>202.49000000000001</ele>
        <time>2011-08-17T12:04:55Z</time>
      </trkpt>
      <trkpt lat="54.91871296428144" lon="26.460022022947669">
        <ele>202.00999999999999</ele>
        <time>2011-08-17T12:05:28Z</time>
      </trkpt>
      <trkpt lat="54.91871296428144" lon="26.460027974098921">
        <ele>202.49000000000001</ele>
        <time>2011-08-17T12:06:01Z</time>
      </trkpt>
      <trkpt lat="54.91871296428144" lon="26.460027974098921">
        <ele>201.53</ele>
        <time>2011-08-17T12:06:34Z</time>
      </trkpt>
      <trkpt lat="54.91871296428144" lon="26.460027974098921">
        <ele>202.49000000000001</ele>
        <time>2011-08-17T12:07:02Z</time>
      </trkpt>
      <trkpt lat="54.91871296428144" lon="26.460027974098921">
        <ele>202.49000000000001</ele>
        <time>2011-08-17T12:07:34Z</time>
      </trkpt>
      <trkpt lat="54.91871296428144" lon="26.46002403460443">
        <ele>202.00999999999999</ele>
        <time>2011-08-17T12:08:03Z</time>
      </trkpt>
      <trkpt lat="54.918715981766582" lon="26.460031997412443">
        <ele>202.97999999999999</ele>
        <time>2011-08-17T12:08:35Z</time>
      </trkpt>
      <trkpt lat="54.918715981766582" lon="26.460031997412443">
        <ele>203.46000000000001</ele>
        <time>2011-08-17T12:09:04Z</time>
      </trkpt>
      <trkpt lat="54.918715981766582" lon="26.460031997412443">
        <ele>202.97999999999999</ele>
        <time>2011-08-17T12:09:31Z</time>
      </trkpt>
      <trkpt lat="54.918736014515162" lon="26.46002403460443">
        <ele>202.97999999999999</ele>
        <time>2011-08-17T12:09:36Z</time>
      </trkpt>
      <trkpt lat="54.918892001733184" lon="26.459936024621129">
        <ele>203.46000000000001</ele>
        <time>2011-08-17T12:09:53Z</time>
      </trkpt>
      <trkpt lat="54.918892001733184" lon="26.459936024621129">
        <ele>203.46000000000001</ele>
        <time>2011-08-17T12:09:59Z</time>
      </trkpt>
      <trkpt lat="54.918918991461396" lon="26.459919009357691">
        <ele>203.46000000000001</ele>
        <time>2011-08-17T12:10:01Z</time>
      </trkpt>
      <trkpt lat="54.919113032519817" lon="26.459781965240836">
        <ele>203.46000000000001</ele>
        <time>2011-08-17T12:10:10Z</time>
      </trkpt>
      <trkpt lat="54.919219985604286" lon="26.459929989650846">
        <ele>203.94</ele>
        <time>2011-08-17T12:10:15Z</time>
      </trkpt>
      <trkpt lat="54.919517962262034" lon="26.460800031200051">
        <ele>203.46000000000001</ele>
        <time>2011-08-17T12:10:31Z</time>
      </trkpt>
      <trkpt lat="54.919909983873367" lon="26.461863024160266">
        <ele>202.97999999999999</ele>
        <time>2011-08-17T12:10:49Z</time>
      </trkpt>
      <trkpt lat="54.920162027701735" lon="26.462344983592629">
        <ele>203.94</ele>
        <time>2011-08-17T12:11:02Z</time>
      </trkpt>
      <trkpt lat="54.920403007417917" lon="26.462073996663094">
        <ele>202.49000000000001</ele>
        <time>2011-08-17T12:11:13Z</time>
      </trkpt>
      <trkpt lat="54.920551031827927" lon="26.461942987516522">
        <ele>202.49000000000001</ele>
        <time>2011-08-17T12:11:19Z</time>
      </trkpt>
      <trkpt lat="54.920696038752794" lon="26.461322978138924">
        <ele>203.46000000000001</ele>
        <time>2011-08-17T12:11:33Z</time>
      </trkpt>
      <trkpt lat="54.920532004907727" lon="26.460724007338285">
        <ele>203.94</ele>
        <time>2011-08-17T12:11:46Z</time>
      </trkpt>
      <trkpt lat="54.920475007966161" lon="26.460616970434785">
        <ele>203.94</ele>
        <time>2011-08-17T12:11:49Z</time>
      </trkpt>
      <trkpt lat="54.920464027673006" lon="26.46015495993197">
        <ele>203.94</ele>
        <time>2011-08-17T12:12:01Z</time>
      </trkpt>
      <trkpt lat="54.920620014891028" lon="26.459741983562708">
        <ele>205.38</ele>
        <time>2011-08-17T12:12:13Z</time>
      </trkpt>
      <trkpt lat="54.920897958800197" lon="26.459435038268566">
        <ele>206.34</ele>
        <time>2011-08-17T12:12:25Z</time>
      </trkpt>
      <trkpt lat="54.9213329795748" lon="26.459039999172091">
        <ele>207.30000000000001</ele>
        <time>2011-08-17T12:12:42Z</time>
      </trkpt>
      <trkpt lat="54.921585023403168" lon="26.458874037489295">
        <ele>207.78</ele>
        <time>2011-08-17T12:12:53Z</time>
      </trkpt>
      <trkpt lat="54.921883000060916" lon="26.458737999200821">
        <ele>207.78</ele>
        <time>2011-08-17T12:13:06Z</time>
      </trkpt>
      <trkpt lat="54.922215007245541" lon="26.458599027246237">
        <ele>208.25999999999999</ele>
        <time>2011-08-17T12:13:20Z</time>
      </trkpt>
      <trkpt lat="54.922568975016475" lon="26.458452008664608">
        <ele>207.78</ele>
        <time>2011-08-17T12:13:34Z</time>
      </trkpt>
      <trkpt lat="54.922843985259533" lon="26.458476986736059">
        <ele>207.30000000000001</ele>
        <time>2011-08-17T12:13:45Z</time>
      </trkpt>
      <trkpt lat="54.923171969130635" lon="26.458320999518037">
        <ele>206.81999999999999</ele>
        <time>2011-08-17T12:13:58Z</time>
      </trkpt>
      <trkpt lat="54.92350397631526" lon="26.458120001479983">
        <ele>207.30000000000001</ele>
        <time>2011-08-17T12:14:13Z</time>
      </trkpt>
      <trkpt lat="54.923786027356982" lon="26.457867035642266">
        <ele>207.30000000000001</ele>
        <time>2011-08-17T12:14:26Z</time>
      </trkpt>
      <trkpt lat="54.924197997897863" lon="26.457676012068987">
        <ele>206.34</ele>
        <time>2011-08-17T12:14:44Z</time>
      </trkpt>
      <trkpt lat="54.924530005082488" lon="26.457742983475327">
        <ele>205.38</ele>
        <time>2011-08-17T12:14:58Z</time>
      </trkpt>
      <trkpt lat="54.924923032522202" lon="26.457843985408545">
        <ele>204.90000000000001</ele>
        <time>2011-08-17T12:15:14Z</time>
      </trkpt>
      <trkpt lat="54.925209023058414" lon="26.457757987082005">
        <ele>205.38</ele>
        <time>2011-08-17T12:15:27Z</time>
      </trkpt>
      <trkpt lat="54.925487972795963" lon="26.457307962700725">
        <ele>205.86000000000001</ele>
        <time>2011-08-17T12:15:43Z</time>
      </trkpt>
      <trkpt lat="54.925739010795951" lon="26.457077041268349">
        <ele>207.30000000000001</ele>
        <time>2011-08-17T12:15:56Z</time>
      </trkpt>
      <trkpt lat="54.926003040745854" lon="26.457053991034627">
        <ele>207.30000000000001</ele>
        <time>2011-08-17T12:16:09Z</time>
      </trkpt>
      <trkpt lat="54.926322977989912" lon="26.456959024071693">
        <ele>207.30000000000001</ele>
        <time>2011-08-17T12:16:23Z</time>
      </trkpt>
      <trkpt lat="54.926669988781214" lon="26.456800019368529">
        <ele>209.69999999999999</ele>
        <time>2011-08-17T12:16:38Z</time>
      </trkpt>
      <trkpt lat="54.926937036216259" lon="26.456695999950171">
        <ele>210.66999999999999</ele>
        <time>2011-08-17T12:16:50Z</time>
      </trkpt>
      <trkpt lat="54.927287986502051" lon="26.456706980243325">
        <ele>211.15000000000001</ele>
        <time>2011-08-17T12:17:05Z</time>
      </trkpt>
      <trkpt lat="54.927474986761808" lon="26.456923987716436">
        <ele>211.63</ele>
        <time>2011-08-17T12:17:14Z</time>
      </trkpt>
      <trkpt lat="54.927624017000198" lon="26.45716899074614">
        <ele>211.15000000000001</ele>
        <time>2011-08-17T12:17:23Z</time>
      </trkpt>
      <trkpt lat="54.927802970632911" lon="26.457326989620924">
        <ele>211.63</ele>
        <time>2011-08-17T12:17:31Z</time>
      </trkpt>
      <trkpt lat="54.927887041121721" lon="26.457434026524425">
        <ele>211.15000000000001</ele>
        <time>2011-08-17T12:17:35Z</time>
      </trkpt>
      <trkpt lat="54.928158028051257" lon="26.457524970173836">
        <ele>211.15000000000001</ele>
        <time>2011-08-17T12:17:46Z</time>
      </trkpt>
      <trkpt lat="54.928424991667271" lon="26.457538967952132">
        <ele>210.66999999999999</ele>
        <time>2011-08-17T12:17:56Z</time>
      </trkpt>
      <trkpt lat="54.928641999140382" lon="26.457518013194203">
        <ele>209.69999999999999</ele>
        <time>2011-08-17T12:18:02Z</time>
      </trkpt>
      <trkpt lat="54.928954979404807" lon="26.457509966567159">
        <ele>209.69999999999999</ele>
        <time>2011-08-17T12:18:12Z</time>
      </trkpt>
      <trkpt lat="54.928981969133019" lon="26.457516001537442">
        <ele>209.69999999999999</ele>
        <time>2011-08-17T12:18:13Z</time>
      </trkpt>
      <trkpt lat="54.929047012701631" lon="26.45751197822392">
        <ele>210.19</ele>
        <time>2011-08-17T12:18:16Z</time>
      </trkpt>
      <trkpt lat="54.929176010191441" lon="26.457531005144119">
        <ele>209.69999999999999</ele>
        <time>2011-08-17T12:18:22Z</time>
      </trkpt>
      <trkpt lat="54.929291009902954" lon="26.457561012357473">
        <ele>208.74000000000001</ele>
        <time>2011-08-17T12:18:27Z</time>
      </trkpt>
      <trkpt lat="54.929473986849189" lon="26.457465961575508">
        <ele>209.69999999999999</ele>
        <time>2011-08-17T12:18:37Z</time>
      </trkpt>
      <trkpt lat="54.929503994062543" lon="26.457432014867663">
        <ele>209.22</ele>
        <time>2011-08-17T12:18:39Z</time>
      </trkpt>
      <trkpt lat="54.9295390304178" lon="26.457315003499389">
        <ele>209.69999999999999</ele>
        <time>2011-08-17T12:18:44Z</time>
      </trkpt>
      <trkpt lat="54.92958496324718" lon="26.457077041268349">
        <ele>210.66999999999999</ele>
        <time>2011-08-17T12:18:54Z</time>
      </trkpt>
      <trkpt lat="54.929596027359366" lon="26.457019960507751">
        <ele>210.19</ele>
        <time>2011-08-17T12:18:56Z</time>
      </trkpt>
      <trkpt lat="54.929641960188746" lon="26.456873025745153">
        <ele>210.19</ele>
        <time>2011-08-17T12:19:03Z</time>
      </trkpt>
      <trkpt lat="54.929820997640491" lon="26.456622993573546">
        <ele>211.15000000000001</ele>
        <time>2011-08-17T12:19:16Z</time>
      </trkpt>
      <trkpt lat="54.929939014837146" lon="26.456512017175555">
        <ele>211.15000000000001</ele>
        <time>2011-08-17T12:19:27Z</time>
      </trkpt>
      <trkpt lat="54.929928034543991" lon="26.456524003297091">
        <ele>211.63</ele>
        <time>2011-08-17T12:19:34Z</time>
      </trkpt>
      <trkpt lat="54.929867014288902" lon="26.456620981916785">
        <ele>211.15000000000001</ele>
        <time>2011-08-17T12:19:39Z</time>
      </trkpt>
      <trkpt lat="54.929592004045844" lon="26.457048039883375">
        <ele>210.66999999999999</ele>
        <time>2011-08-17T12:19:53Z</time>
      </trkpt>
      <trkpt lat="54.92956199683249" lon="26.457240991294384">
        <ele>209.22</ele>
        <time>2011-08-17T12:19:59Z</time>
      </trkpt>
      <trkpt lat="54.929503994062543" lon="26.457491023465991">
        <ele>208.25999999999999</ele>
        <time>2011-08-17T12:20:08Z</time>
      </trkpt>
      <trkpt lat="54.929508017376065" lon="26.457561012357473">
        <ele>208.74000000000001</ele>
        <time>2011-08-17T12:20:14Z</time>
      </trkpt>
      <trkpt lat="54.929645983502269" lon="26.457612980157137">
        <ele>209.69999999999999</ele>
        <time>2011-08-17T12:20:23Z</time>
      </trkpt>
      <trkpt lat="54.929909007623792" lon="26.457850020378828">
        <ele>208.25999999999999</ele>
        <time>2011-08-17T12:20:38Z</time>
      </trkpt>
      <trkpt lat="54.929976984858513" lon="26.458272971212864">
        <ele>207.30000000000001</ele>
        <time>2011-08-17T12:20:50Z</time>
      </trkpt>
      <trkpt lat="54.929981008172035" lon="26.458276994526386">
        <ele>207.78</ele>
        <time>2011-08-17T12:21:09Z</time>
      </trkpt>
      <trkpt lat="54.929981008172035" lon="26.458276994526386">
        <ele>207.30000000000001</ele>
        <time>2011-08-17T12:21:32Z</time>
      </trkpt>
      <trkpt lat="54.929981008172035" lon="26.458276994526386">
        <ele>201.53</ele>
        <time>2011-08-17T12:21:34Z</time>
      </trkpt>
      <trkpt lat="54.929981008172035" lon="26.458276994526386">
        <ele>206.34</ele>
        <time>2011-08-17T12:21:35Z</time>
      </trkpt>
      <trkpt lat="54.929981008172035" lon="26.458276994526386">
        <ele>209.22</ele>
        <time>2011-08-17T12:21:36Z</time>
      </trkpt>
      <trkpt lat="54.929981008172035" lon="26.458276994526386">
        <ele>208.74000000000001</ele>
        <time>2011-08-17T12:21:37Z</time>
      </trkpt>
      <trkpt lat="54.929981008172035" lon="26.458276994526386">
        <ele>205.38</ele>
        <time>2011-08-17T12:21:42Z</time>
      </trkpt>
      <trkpt lat="54.929981008172035" lon="26.458276994526386">
        <ele>208.25999999999999</ele>
        <time>2011-08-17T12:22:01Z</time>
      </trkpt>
      <trkpt lat="54.929981008172035" lon="26.458274982869625">
        <ele>210.19</ele>
        <time>2011-08-17T12:22:18Z</time>
      </trkpt>
      <trkpt lat="54.929981008172035" lon="26.458274982869625">
        <ele>204.90000000000001</ele>
        <time>2011-08-17T12:22:19Z</time>
      </trkpt>
      <trkpt lat="54.929981008172035" lon="26.458274982869625">
        <ele>209.69999999999999</ele>
        <time>2011-08-17T12:22:20Z</time>
      </trkpt>
      <trkpt lat="54.929976984858513" lon="26.458270959556103">
        <ele>207.78</ele>
        <time>2011-08-17T12:22:39Z</time>
      </trkpt>
      <trkpt lat="54.929985031485558" lon="26.458239024505019">
        <ele>208.25999999999999</ele>
        <time>2011-08-17T12:22:50Z</time>
      </trkpt>
      <trkpt lat="54.929976984858513" lon="26.458205999806523">
        <ele>207.78</ele>
        <time>2011-08-17T12:22:54Z</time>
      </trkpt>
      <trkpt lat="54.929958041757345" lon="26.458018999546766">
        <ele>208.25999999999999</ele>
        <time>2011-08-17T12:23:00Z</time>
      </trkpt>
      <trkpt lat="54.929779004305601" lon="26.457652961835265">
        <ele>209.22</ele>
        <time>2011-08-17T12:23:13Z</time>
      </trkpt>
      <trkpt lat="54.929569037631154" lon="26.457592025399208">
        <ele>209.22</ele>
        <time>2011-08-17T12:23:23Z</time>
      </trkpt>
      <trkpt lat="54.9295390304178" lon="26.457579033449292">
        <ele>208.74000000000001</ele>
        <time>2011-08-17T12:23:26Z</time>
      </trkpt>
      <trkpt lat="54.9295390304178" lon="26.457457998767495">
        <ele>209.22</ele>
        <time>2011-08-17T12:23:38Z</time>
      </trkpt>
      <trkpt lat="54.929572977125645" lon="26.457292959094048">
        <ele>210.19</ele>
        <time>2011-08-17T12:23:44Z</time>
      </trkpt>
      <trkpt lat="54.929671967402101" lon="26.456822985783219">
        <ele>210.66999999999999</ele>
        <time>2011-08-17T12:24:00Z</time>
      </trkpt>
      <trkpt lat="54.929934991523623" lon="26.456554010510445">
        <ele>211.15000000000001</ele>
        <time>2011-08-17T12:24:13Z</time>
      </trkpt>
      <trkpt lat="54.930194998160005" lon="26.456321999430656">
        <ele>211.63</ele>
        <time>2011-08-17T12:24:26Z</time>
      </trkpt>
      <trkpt lat="54.930461961776018" lon="26.456064004451036">
        <ele>213.06999999999999</ele>
        <time>2011-08-17T12:24:39Z</time>
      </trkpt>
      <trkpt lat="54.930751975625753" lon="26.455871975049376">
        <ele>215.47</ele>
        <time>2011-08-17T12:24:53Z</time>
      </trkpt>
      <trkpt lat="54.931094963103533" lon="26.45572897978127">
        <ele>214.50999999999999</ele>
        <time>2011-08-17T12:25:09Z</time>
      </trkpt>
      <trkpt lat="54.931312976405025" lon="26.455630995333195">
        <ele>214.03</ele>
        <time>2011-08-17T12:25:22Z</time>
      </trkpt>
      <trkpt lat="54.931553034111857" lon="26.455490011721849">
        <ele>214.50999999999999</ele>
        <time>2011-08-17T12:25:36Z</time>
      </trkpt>
      <trkpt lat="54.931622017174959" lon="26.455398984253407">
        <ele>214.50999999999999</ele>
        <time>2011-08-17T12:25:46Z</time>
      </trkpt>
      <trkpt lat="54.931664010509849" lon="26.455360008403659">
        <ele>214.99000000000001</ele>
        <time>2011-08-17T12:25:53Z</time>
      </trkpt>
      <trkpt lat="54.931727964431047" lon="26.455337963998318">
        <ele>214.50999999999999</ele>
        <time>2011-08-17T12:25:57Z</time>
      </trkpt>
      <trkpt lat="54.931835001334548" lon="26.455314997583628">
        <ele>214.50999999999999</ele>
        <time>2011-08-17T12:26:10Z</time>
      </trkpt>
      <trkpt lat="54.931842964142561" lon="26.455314997583628">
        <ele>214.50999999999999</ele>
        <time>2011-08-17T12:26:13Z</time>
      </trkpt>
      <trkpt lat="54.932072041556239" lon="26.455101007595658">
        <ele>215.47</ele>
        <time>2011-08-17T12:26:26Z</time>
      </trkpt>
      <trkpt lat="54.932349985465407" lon="26.454832032322884">
        <ele>216.91</ele>
        <time>2011-08-17T12:26:39Z</time>
      </trkpt>
      <trkpt lat="54.932662965729833" lon="26.454615024849772">
        <ele>217.88</ele>
        <time>2011-08-17T12:26:54Z</time>
      </trkpt>
      <trkpt lat="54.93276203982532" lon="26.454529026523232">
        <ele>218.36000000000001</ele>
        <time>2011-08-17T12:26:59Z</time>
      </trkpt>
      <trkpt lat="54.932888019829988" lon="26.454402962699533">
        <ele>219.31999999999999</ele>
        <time>2011-08-17T12:27:05Z</time>
      </trkpt>
      <trkpt lat="54.933163030073047" lon="26.45407497882843">
        <ele>221.72</ele>
        <time>2011-08-17T12:27:20Z</time>
      </trkpt>
      <trkpt lat="54.93327702395618" lon="26.453979006037116">
        <ele>223.16</ele>
        <time>2011-08-17T12:27:27Z</time>
      </trkpt>
      <trkpt lat="54.933308036997914" lon="26.453898958861828">
        <ele>223.16</ele>
        <time>2011-08-17T12:27:31Z</time>
      </trkpt>
      <trkpt lat="54.933380037546158" lon="26.453818995505571">
        <ele>223.16</ele>
        <time>2011-08-17T12:27:37Z</time>
      </trkpt>
      <trkpt lat="54.933506017550826" lon="26.453581033274531">
        <ele>223.16</ele>
        <time>2011-08-17T12:27:46Z</time>
      </trkpt>
      <trkpt lat="54.93370802141726" lon="26.453091027215123">
        <ele>224.12</ele>
        <time>2011-08-17T12:28:01Z</time>
      </trkpt>
      <trkpt lat="54.933856967836618" lon="26.452668998390436">
        <ele>224.61000000000001</ele>
        <time>2011-08-17T12:28:13Z</time>
      </trkpt>
      <trkpt lat="54.933998035266995" lon="26.452277982607484">
        <ele>225.56999999999999</ele>
        <time>2011-08-17T12:28:25Z</time>
      </trkpt>
      <trkpt lat="54.934119991958141" lon="26.451912028715014">
        <ele>226.53</ele>
        <time>2011-08-17T12:28:38Z</time>
      </trkpt>
      <trkpt lat="54.934218982234597" lon="26.451521012932062">
        <ele>226.05000000000001</ele>
        <time>2011-08-17T12:28:50Z</time>
      </trkpt>
      <trkpt lat="54.934383016079664" lon="26.451056990772486">
        <ele>227.00999999999999</ele>
        <time>2011-08-17T12:29:04Z</time>
      </trkpt>
      <trkpt lat="54.934531962499022" lon="26.450654994696379">
        <ele>226.05000000000001</ele>
        <time>2011-08-17T12:29:16Z</time>
      </trkpt>
      <trkpt lat="54.934592982754111" lon="26.450575031340122">
        <ele>226.05000000000001</ele>
        <time>2011-08-17T12:29:20Z</time>
      </trkpt>
      <trkpt lat="54.934727009385824" lon="26.450177980586886">
        <ele>226.05000000000001</ele>
        <time>2011-08-17T12:29:32Z</time>
      </trkpt>
      <trkpt lat="54.934727009385824" lon="26.450061975046992">
        <ele>226.05000000000001</ele>
        <time>2011-08-17T12:29:36Z</time>
      </trkpt>
      <trkpt lat="54.934818036854267" lon="26.449799034744501">
        <ele>225.56999999999999</ele>
        <time>2011-08-17T12:29:46Z</time>
      </trkpt>
      <trkpt lat="54.93497796356678" lon="26.449384968727827">
        <ele>224.61000000000001</ele>
        <time>2011-08-17T12:29:59Z</time>
      </trkpt>
      <trkpt lat="54.935005037114024" lon="26.449265023693442">
        <ele>223.63999999999999</ele>
        <time>2011-08-17T12:30:03Z</time>
      </trkpt>
      <trkpt lat="54.93510402739048" lon="26.448909966275096">
        <ele>220.75999999999999</ele>
        <time>2011-08-17T12:30:16Z</time>
      </trkpt>
      <trkpt lat="54.935177033767104" lon="26.448668986558914">
        <ele>218.36000000000001</ele>
        <time>2011-08-17T12:30:21Z</time>
      </trkpt>
      <trkpt lat="54.935225984081626" lon="26.448491960763931">
        <ele>216.91</ele>
        <time>2011-08-17T12:30:24Z</time>
      </trkpt>
      <trkpt lat="54.935333020985126" lon="26.448266990482807">
        <ele>215.94999999999999</ele>
        <time>2011-08-17T12:30:28Z</time>
      </trkpt>
      <trkpt lat="54.93592101149261" lon="26.447823001071811">
        <ele>214.99000000000001</ele>
        <time>2011-08-17T12:30:43Z</time>
      </trkpt>
      <trkpt lat="54.936274979263544" lon="26.447268035262823">
        <ele>214.03</ele>
        <time>2011-08-17T12:30:55Z</time>
      </trkpt>
      <trkpt lat="54.936611009761691" lon="26.446713991463184">
        <ele>213.55000000000001</ele>
        <time>2011-08-17T12:31:09Z</time>
      </trkpt>
      <trkpt lat="54.936886020004749" lon="26.44638299010694">
        <ele>212.59</ele>
        <time>2011-08-17T12:31:20Z</time>
      </trkpt>
      <trkpt lat="54.937194976955652" lon="26.446030028164387">
        <ele>211.63</ele>
        <time>2011-08-17T12:31:32Z</time>
      </trkpt>
      <trkpt lat="54.937583981081843" lon="26.445836992934346">
        <ele>211.15000000000001</ele>
        <time>2011-08-17T12:31:45Z</time>
      </trkpt>
      <trkpt lat="54.937893021851778" lon="26.445772033184767">
        <ele>210.19</ele>
        <time>2011-08-17T12:31:57Z</time>
      </trkpt>
      <trkpt lat="54.938095025718212" lon="26.445819977670908">
        <ele>209.69999999999999</ele>
        <time>2011-08-17T12:32:08Z</time>
      </trkpt>
      <trkpt lat="54.938147999346256" lon="26.445841016247869">
        <ele>209.69999999999999</ele>
        <time>2011-08-17T12:32:19Z</time>
      </trkpt>
      <trkpt lat="54.938147999346256" lon="26.445841016247869">
        <ele>209.69999999999999</ele>
        <time>2011-08-17T12:32:32Z</time>
      </trkpt>
      <trkpt lat="54.938313039019704" lon="26.445863982662559">
        <ele>209.22</ele>
        <time>2011-08-17T12:32:40Z</time>
      </trkpt>
      <trkpt lat="54.938568016514182" lon="26.445898013189435">
        <ele>208.25999999999999</ele>
        <time>2011-08-17T12:32:50Z</time>
      </trkpt>
      <trkpt lat="54.938590982928872" lon="26.445903964340687">
        <ele>208.25999999999999</ele>
        <time>2011-08-17T12:32:51Z</time>
      </trkpt>
      <trkpt lat="54.938720986247063" lon="26.445831041783094">
        <ele>207.78</ele>
        <time>2011-08-17T12:32:55Z</time>
      </trkpt>
      <trkpt lat="54.938952997326851" lon="26.44550297409296">
        <ele>207.30000000000001</ele>
        <time>2011-08-17T12:33:04Z</time>
      </trkpt>
      <trkpt lat="54.93903698399663" lon="26.445009028539062">
        <ele>207.30000000000001</ele>
        <time>2011-08-17T12:33:15Z</time>
      </trkpt>
      <trkpt lat="54.939181990921497" lon="26.44427502527833">
        <ele>207.78</ele>
        <time>2011-08-17T12:33:29Z</time>
      </trkpt>
      <trkpt lat="54.939334960654378" lon="26.44436102360487">
        <ele>207.30000000000001</ele>
        <time>2011-08-17T12:33:36Z</time>
      </trkpt>
      <trkpt lat="54.939952958375216" lon="26.444979021325707">
        <ele>205.38</ele>
        <time>2011-08-17T12:33:51Z</time>
      </trkpt>
      <trkpt lat="54.940272979438305" lon="26.445304993540049">
        <ele>204.41999999999999</ele>
        <time>2011-08-17T12:33:59Z</time>
      </trkpt>
      <trkpt lat="54.940398959442973" lon="26.445379005745053">
        <ele>203.94</ele>
        <time>2011-08-17T12:34:02Z</time>
      </trkpt>
      <trkpt lat="54.940987033769488" lon="26.445605987682939">
        <ele>202.97999999999999</ele>
        <time>2011-08-17T12:34:17Z</time>
      </trkpt>
      <trkpt lat="54.941212004050612" lon="26.445482019335032">
        <ele>202.49000000000001</ele>
        <time>2011-08-17T12:34:24Z</time>
      </trkpt>
      <trkpt lat="54.941222984343767" lon="26.44545896910131">
        <ele>202.49000000000001</ele>
        <time>2011-08-17T12:34:25Z</time>
      </trkpt>
      <trkpt lat="54.941234970465302" lon="26.445445977151394">
        <ele>202.97999999999999</ele>
        <time>2011-08-17T12:34:26Z</time>
      </trkpt>
      <trkpt lat="54.94124997407198" lon="26.44543600268662">
        <ele>202.49000000000001</ele>
        <time>2011-08-17T12:34:27Z</time>
      </trkpt>
      <trkpt lat="54.941261038184166" lon="26.445427034050226">
        <ele>202.49000000000001</ele>
        <time>2011-08-17T12:34:28Z</time>
      </trkpt>
      <trkpt lat="54.941330021247268" lon="26.445366013795137">
        <ele>195.28</ele>
        <time>2011-08-17T12:34:33Z</time>
      </trkpt>
      <trkpt lat="54.941345024853945" lon="26.445357967168093">
        <ele>203.46000000000001</ele>
        <time>2011-08-17T12:34:34Z</time>
      </trkpt>
      <trkpt lat="54.94135701097548" lon="26.445346986874938">
        <ele>208.25999999999999</ele>
        <time>2011-08-17T12:34:35Z</time>
      </trkpt>
      <trkpt lat="54.941367991268635" lon="26.445332989096642">
        <ele>201.05000000000001</ele>
        <time>2011-08-17T12:34:36Z</time>
      </trkpt>
      <trkpt lat="54.941382994875312" lon="26.445312034338713">
        <ele>202.00999999999999</ele>
        <time>2011-08-17T12:34:37Z</time>
      </trkpt>
      <trkpt lat="54.941456001251936" lon="26.445225030183792">
        <ele>201.53</ele>
        <time>2011-08-17T12:34:41Z</time>
      </trkpt>
      <trkpt lat="54.94148600846529" lon="26.445247996598482">
        <ele>201.53</ele>
        <time>2011-08-17T12:34:43Z</time>
      </trkpt>
      <trkpt lat="54.941497994586825" lon="26.445269035175443">
        <ele>201.53</ele>
        <time>2011-08-17T12:34:44Z</time>
      </trkpt>
      <trkpt lat="54.94150897487998" lon="26.44528797827661">
        <ele>201.53</ele>
        <time>2011-08-17T12:34:45Z</time>
      </trkpt>
      <trkpt lat="54.941528001800179" lon="26.445304993540049">
        <ele>201.53</ele>
        <time>2011-08-17T12:34:46Z</time>
      </trkpt>
      <trkpt lat="54.941605031490326" lon="26.445304993540049">
        <ele>201.53</ele>
        <time>2011-08-17T12:34:49Z</time>
      </trkpt>
      <trkpt lat="54.941951958462596" lon="26.444987989962101">
        <ele>201.53</ele>
        <time>2011-08-17T12:35:00Z</time>
      </trkpt>
      <trkpt lat="54.942241972312331" lon="26.444622036069632">
        <ele>200.09</ele>
        <time>2011-08-17T12:35:11Z</time>
      </trkpt>
      <trkpt lat="54.94260398671031" lon="26.444266978651285">
        <ele>199.61000000000001</ele>
        <time>2011-08-17T12:35:22Z</time>
      </trkpt>
      <trkpt lat="54.942940017208457" lon="26.444016024470329">
        <ele>199.61000000000001</ele>
        <time>2011-08-17T12:35:32Z</time>
      </trkpt>
      <trkpt lat="54.943001037463546" lon="26.443970007821918">
        <ele>199.61000000000001</ele>
        <time>2011-08-17T12:35:34Z</time>
      </trkpt>
      <trkpt lat="54.94320304132998" lon="26.443864982575178">
        <ele>199.13</ele>
        <time>2011-08-17T12:35:39Z</time>
      </trkpt>
      <trkpt lat="54.943496994674206" lon="26.443628026172519">
        <ele>195.77000000000001</ele>
        <time>2011-08-17T12:35:49Z</time>
      </trkpt>
      <trkpt lat="54.943522978574038" lon="26.443604975938797">
        <ele>199.13</ele>
        <time>2011-08-17T12:35:50Z</time>
      </trkpt>
      <trkpt lat="54.943793965503573" lon="26.443318985402584">
        <ele>198.65000000000001</ele>
        <time>2011-08-17T12:36:01Z</time>
      </trkpt>
      <trkpt lat="54.943920029327273" lon="26.443231981247663">
        <ele>193.84</ele>
        <time>2011-08-17T12:36:09Z</time>
      </trkpt>
      <trkpt lat="54.943938972428441" lon="26.443211026489735">
        <ele>198.65000000000001</ele>
        <time>2011-08-17T12:36:10Z</time>
      </trkpt>
      <trkpt lat="54.944016002118587" lon="26.443131985142827">
        <ele>198.16999999999999</ele>
        <time>2011-08-17T12:36:14Z</time>
      </trkpt>
      <trkpt lat="54.944061012938619" lon="26.443088985979557">
        <ele>190.96000000000001</ele>
        <time>2011-08-17T12:36:18Z</time>
      </trkpt>
      <trkpt lat="54.944061012938619" lon="26.443088985979557">
        <ele>204.90000000000001</ele>
        <time>2011-08-17T12:36:19Z</time>
      </trkpt>
      <trkpt lat="54.944061012938619" lon="26.443088985979557">
        <ele>202.49000000000001</ele>
        <time>2011-08-17T12:36:20Z</time>
      </trkpt>
      <trkpt lat="54.944061012938619" lon="26.443088985979557">
        <ele>198.16999999999999</ele>
        <time>2011-08-17T12:36:21Z</time>
      </trkpt>
      <trkpt lat="54.944061012938619" lon="26.443088985979557">
        <ele>194.31999999999999</ele>
        <time>2011-08-17T12:36:25Z</time>
      </trkpt>
      <trkpt lat="54.944061012938619" lon="26.443088985979557">
        <ele>198.16999999999999</ele>
        <time>2011-08-17T12:36:26Z</time>
      </trkpt>
      <trkpt lat="54.944061012938619" lon="26.443088985979557">
        <ele>197.69</ele>
        <time>2011-08-17T12:36:27Z</time>
      </trkpt>
      <trkpt lat="54.944061012938619" lon="26.443088985979557">
        <ele>198.65000000000001</ele>
        <time>2011-08-17T12:36:51Z</time>
      </trkpt>
      <trkpt lat="54.944065036252141" lon="26.443086974322796">
        <ele>193.84</ele>
        <time>2011-08-17T12:37:03Z</time>
      </trkpt>
      <trkpt lat="54.944065036252141" lon="26.443086974322796">
        <ele>198.65000000000001</ele>
        <time>2011-08-17T12:37:04Z</time>
      </trkpt>
      <trkpt lat="54.944065036252141" lon="26.443086974322796">
        <ele>203.46000000000001</ele>
        <time>2011-08-17T12:37:07Z</time>
      </trkpt>
      <trkpt lat="54.944065036252141" lon="26.443086974322796">
        <ele>199.13</ele>
        <time>2011-08-17T12:37:08Z</time>
      </trkpt>
      <trkpt lat="54.944065036252141" lon="26.443086974322796">
        <ele>194.80000000000001</ele>
        <time>2011-08-17T12:37:10Z</time>
      </trkpt>
      <trkpt lat="54.944065036252141" lon="26.443086974322796">
        <ele>199.13</ele>
        <time>2011-08-17T12:37:11Z</time>
      </trkpt>
      <trkpt lat="54.944065036252141" lon="26.443086974322796">
        <ele>194.31999999999999</ele>
        <time>2011-08-17T12:37:13Z</time>
      </trkpt>
      <trkpt lat="54.944065036252141" lon="26.443086974322796">
        <ele>193.36000000000001</ele>
        <time>2011-08-17T12:37:15Z</time>
      </trkpt>
      <trkpt lat="54.944065036252141" lon="26.443086974322796">
        <ele>199.61000000000001</ele>
        <time>2011-08-17T12:37:16Z</time>
      </trkpt>
      <trkpt lat="54.944065036252141" lon="26.443086974322796">
        <ele>195.77000000000001</ele>
        <time>2011-08-17T12:37:17Z</time>
      </trkpt>
      <trkpt lat="54.944065036252141" lon="26.443086974322796">
        <ele>200.09</ele>
        <time>2011-08-17T12:37:19Z</time>
      </trkpt>
      <trkpt lat="54.944065036252141" lon="26.443086974322796">
        <ele>191.91999999999999</ele>
        <time>2011-08-17T12:37:20Z</time>
      </trkpt>
      <trkpt lat="54.944065036252141" lon="26.443086974322796">
        <ele>199.13</ele>
        <time>2011-08-17T12:37:21Z</time>
      </trkpt>
      <trkpt lat="54.944065036252141" lon="26.443086974322796">
        <ele>192.88</ele>
        <time>2011-08-17T12:37:22Z</time>
      </trkpt>
      <trkpt lat="54.944065036252141" lon="26.443086974322796">
        <ele>201.05000000000001</ele>
        <time>2011-08-17T12:37:23Z</time>
      </trkpt>
      <trkpt lat="54.944065036252141" lon="26.443086974322796">
        <ele>197.21000000000001</ele>
        <time>2011-08-17T12:37:35Z</time>
      </trkpt>
      <trkpt lat="54.944061012938619" lon="26.443084962666035">
        <ele>200.56999999999999</ele>
        <time>2011-08-17T12:37:38Z</time>
      </trkpt>
      <trkpt lat="54.944061012938619" lon="26.443084962666035">
        <ele>192.88</ele>
        <time>2011-08-17T12:37:41Z</time>
      </trkpt>
      <trkpt lat="54.944061012938619" lon="26.443084962666035">
        <ele>202.00999999999999</ele>
        <time>2011-08-17T12:37:42Z</time>
      </trkpt>
      <trkpt lat="54.944061012938619" lon="26.443084962666035">
        <ele>193.36000000000001</ele>
        <time>2011-08-17T12:37:43Z</time>
      </trkpt>
      <trkpt lat="54.944061012938619" lon="26.443084962666035">
        <ele>200.56999999999999</ele>
        <time>2011-08-17T12:37:44Z</time>
      </trkpt>
      <trkpt lat="54.944061012938619" lon="26.443084962666035">
        <ele>194.80000000000001</ele>
        <time>2011-08-17T12:37:45Z</time>
      </trkpt>
      <trkpt lat="54.944061012938619" lon="26.443084962666035">
        <ele>199.13</ele>
        <time>2011-08-17T12:37:46Z</time>
      </trkpt>
      <trkpt lat="54.944061012938619" lon="26.443084962666035">
        <ele>202.97999999999999</ele>
        <time>2011-08-17T12:38:12Z</time>
      </trkpt>
      <trkpt lat="54.944061012938619" lon="26.443084962666035">
        <ele>193.36000000000001</ele>
        <time>2011-08-17T12:38:13Z</time>
      </trkpt>
      <trkpt lat="54.944061012938619" lon="26.443084962666035">
        <ele>199.61000000000001</ele>
        <time>2011-08-17T12:38:14Z</time>
      </trkpt>
      <trkpt lat="54.944061012938619" lon="26.443084962666035">
        <ele>196.72999999999999</ele>
        <time>2011-08-17T12:38:15Z</time>
      </trkpt>
      <trkpt lat="54.944056989625096" lon="26.443081023171544">
        <ele>199.13</ele>
        <time>2011-08-17T12:38:20Z</time>
      </trkpt>
      <trkpt lat="54.944056989625096" lon="26.443081023171544">
        <ele>199.61000000000001</ele>
        <time>2011-08-17T12:38:24Z</time>
      </trkpt>
      <trkpt lat="54.944056989625096" lon="26.443081023171544">
        <ele>201.05000000000001</ele>
        <time>2011-08-17T12:38:27Z</time>
      </trkpt>
      <trkpt lat="54.944056989625096" lon="26.443081023171544">
        <ele>194.31999999999999</ele>
        <time>2011-08-17T12:38:32Z</time>
      </trkpt>
      <trkpt lat="54.944056989625096" lon="26.443081023171544">
        <ele>194.31999999999999</ele>
        <time>2011-08-17T12:38:33Z</time>
      </trkpt>
      <trkpt lat="54.944056989625096" lon="26.443081023171544">
        <ele>198.16999999999999</ele>
        <time>2011-08-17T12:38:34Z</time>
      </trkpt>
      <trkpt lat="54.944056989625096" lon="26.443081023171544">
        <ele>202.00999999999999</ele>
        <time>2011-08-17T12:38:43Z</time>
      </trkpt>
      <trkpt lat="54.944056989625096" lon="26.443081023171544">
        <ele>197.21000000000001</ele>
        <time>2011-08-17T12:38:46Z</time>
      </trkpt>
      <trkpt lat="54.944061012938619" lon="26.443081023171544">
        <ele>198.65000000000001</ele>
        <time>2011-08-17T12:38:56Z</time>
      </trkpt>
      <trkpt lat="54.944180035963655" lon="26.442778017371893">
        <ele>199.13</ele>
        <time>2011-08-17T12:39:11Z</time>
      </trkpt>
      <trkpt lat="54.944176012650132" lon="26.442852029576898">
        <ele>199.13</ele>
        <time>2011-08-17T12:39:12Z</time>
      </trkpt>
      <trkpt lat="54.944224962964654" lon="26.442969962954521">
        <ele>193.84</ele>
        <time>2011-08-17T12:39:15Z</time>
      </trkpt>
      <trkpt lat="54.944224962964654" lon="26.442969962954521">
        <ele>196.25</ele>
        <time>2011-08-17T12:39:16Z</time>
      </trkpt>
      <trkpt lat="54.944221023470163" lon="26.442968035116792">
        <ele>200.09</ele>
        <time>2011-08-17T12:39:17Z</time>
      </trkpt>
      <trkpt lat="54.944224962964654" lon="26.442986978217959">
        <ele>199.61000000000001</ele>
        <time>2011-08-17T12:39:18Z</time>
      </trkpt>
      <trkpt lat="54.944221023470163" lon="26.442983960732818">
        <ele>195.77000000000001</ele>
        <time>2011-08-17T12:39:19Z</time>
      </trkpt>
      <trkpt lat="54.944218005985022" lon="26.442982032895088">
        <ele>200.09</ele>
        <time>2011-08-17T12:39:20Z</time>
      </trkpt>
      <trkpt lat="54.944213982671499" lon="26.442980021238327">
        <ele>192.88</ele>
        <time>2011-08-17T12:39:21Z</time>
      </trkpt>
      <trkpt lat="54.944206019863486" lon="26.442978009581566">
        <ele>200.56999999999999</ele>
        <time>2011-08-17T12:39:22Z</time>
      </trkpt>
      <trkpt lat="54.944198979064822" lon="26.442966023460031">
        <ele>197.21000000000001</ele>
        <time>2011-08-17T12:39:23Z</time>
      </trkpt>
      <trkpt lat="54.944186992943287" lon="26.442936016246676">
        <ele>202.97999999999999</ele>
        <time>2011-08-17T12:39:25Z</time>
      </trkpt>
      <trkpt lat="54.944180035963655" lon="26.442919000983238">
        <ele>198.65000000000001</ele>
        <time>2011-08-17T12:39:26Z</time>
      </trkpt>
      <trkpt lat="54.944164026528597" lon="26.442914977669716">
        <ele>202.97999999999999</ele>
        <time>2011-08-17T12:39:32Z</time>
      </trkpt>
      <trkpt lat="54.944156985729933" lon="26.442912966012955">
        <ele>202.49000000000001</ele>
        <time>2011-08-17T12:39:33Z</time>
      </trkpt>
      <trkpt lat="54.94414902292192" lon="26.442909026518464">
        <ele>196.72999999999999</ele>
        <time>2011-08-17T12:39:34Z</time>
      </trkpt>
      <trkpt lat="54.944144999608397" lon="26.442905003204942">
        <ele>197.21000000000001</ele>
        <time>2011-08-17T12:39:35Z</time>
      </trkpt>
      <trkpt lat="54.944137958809733" lon="26.442907014861703">
        <ele>201.05000000000001</ele>
        <time>2011-08-17T12:39:36Z</time>
      </trkpt>
      <trkpt lat="54.944134019315243" lon="26.4429019857198">
        <ele>193.36000000000001</ele>
        <time>2011-08-17T12:39:37Z</time>
      </trkpt>
      <trkpt lat="54.94412999600172" lon="26.4429019857198">
        <ele>199.13</ele>
        <time>2011-08-17T12:39:38Z</time>
      </trkpt>
      <trkpt lat="54.944114992395043" lon="26.442899974063039">
        <ele>200.56999999999999</ele>
        <time>2011-08-17T12:39:41Z</time>
      </trkpt>
      <trkpt lat="54.944103006273508" lon="26.442894022911787">
        <ele>196.72999999999999</ele>
        <time>2011-08-17T12:39:43Z</time>
      </trkpt>
      <trkpt lat="54.944092025980353" lon="26.442894022911787">
        <ele>200.09</ele>
        <time>2011-08-17T12:39:45Z</time>
      </trkpt>
      <trkpt lat="54.944072999060154" lon="26.442894022911787">
        <ele>196.72999999999999</ele>
        <time>2011-08-17T12:39:47Z</time>
      </trkpt>
      <trkpt lat="54.944050032645464" lon="26.442905003204942">
        <ele>203.46000000000001</ele>
        <time>2011-08-17T12:39:49Z</time>
      </trkpt>
      <trkpt lat="54.944041986018419" lon="26.442905003204942">
        <ele>193.84</ele>
        <time>2011-08-17T12:39:50Z</time>
      </trkpt>
      <trkpt lat="54.944035029038787" lon="26.442909026518464">
        <ele>198.65000000000001</ele>
        <time>2011-08-17T12:39:51Z</time>
      </trkpt>
      <trkpt lat="54.944019019603729" lon="26.442924030125141">
        <ele>195.28</ele>
        <time>2011-08-17T12:39:54Z</time>
      </trkpt>
      <trkpt lat="54.944016002118587" lon="26.442926041781902">
        <ele>200.09</ele>
        <time>2011-08-17T12:39:55Z</time>
      </trkpt>
      <trkpt lat="54.943995969370008" lon="26.442943979054689">
        <ele>194.80000000000001</ele>
        <time>2011-08-17T12:40:03Z</time>
      </trkpt>
      <trkpt lat="54.943993035703897" lon="26.442949008196592">
        <ele>200.56999999999999</ele>
        <time>2011-08-17T12:40:04Z</time>
      </trkpt>
      <trkpt lat="54.944019019603729" lon="26.443052021786571">
        <ele>196.72999999999999</ele>
        <time>2011-08-17T12:40:21Z</time>
      </trkpt>
      <trkpt lat="54.94402295909822" lon="26.443054033443332">
        <ele>201.05000000000001</ele>
        <time>2011-08-17T12:40:22Z</time>
      </trkpt>
      <trkpt lat="54.944031005725265" lon="26.443055961281061">
        <ele>202.00999999999999</ele>
        <time>2011-08-17T12:40:24Z</time>
      </trkpt>
      <trkpt lat="54.944035029038787" lon="26.443054033443332">
        <ele>195.28</ele>
        <time>2011-08-17T12:40:25Z</time>
      </trkpt>
      <trkpt lat="54.944037962704897" lon="26.443054033443332">
        <ele>201.05000000000001</ele>
        <time>2011-08-17T12:40:26Z</time>
      </trkpt>
      <trkpt lat="54.944077022373676" lon="26.443059984594584">
        <ele>199.61000000000001</ele>
        <time>2011-08-17T12:40:53Z</time>
      </trkpt>
      <trkpt lat="54.944077022373676" lon="26.443066019564867">
        <ele>200.09</ele>
        <time>2011-08-17T12:40:55Z</time>
      </trkpt>
      <trkpt lat="54.943995969370008" lon="26.443131985142827">
        <ele>200.56999999999999</ele>
        <time>2011-08-17T12:41:00Z</time>
      </trkpt>
      <trkpt lat="54.94393503293395" lon="26.443191999569535">
        <ele>200.09</ele>
        <time>2011-08-17T12:41:04Z</time>
      </trkpt>
      <trkpt lat="54.943706961348653" lon="26.443399032577872">
        <ele>200.56999999999999</ele>
        <time>2011-08-17T12:41:12Z</time>
      </trkpt>
      <trkpt lat="54.943489031866193" lon="26.443626014515758">
        <ele>200.56999999999999</ele>
        <time>2011-08-17T12:41:21Z</time>
      </trkpt>
      <trkpt lat="54.943393981084228" lon="26.443723998963833">
        <ele>201.05000000000001</ele>
        <time>2011-08-17T12:41:25Z</time>
      </trkpt>
      <trkpt lat="54.943107990548015" lon="26.443904964253306">
        <ele>201.53</ele>
        <time>2011-08-17T12:41:35Z</time>
      </trkpt>
      <trkpt lat="54.94277598336339" lon="26.444160025566816">
        <ele>201.53</ele>
        <time>2011-08-17T12:41:45Z</time>
      </trkpt>
      <trkpt lat="54.942566016688943" lon="26.444352976977825">
        <ele>202.00999999999999</ele>
        <time>2011-08-17T12:41:52Z</time>
      </trkpt>
      <trkpt lat="54.942340962588787" lon="26.444524973630905">
        <ele>202.00999999999999</ele>
        <time>2011-08-17T12:41:59Z</time>
      </trkpt>
      <trkpt lat="54.942073998972774" lon="26.444778023287654">
        <ele>202.49000000000001</ele>
        <time>2011-08-17T12:42:09Z</time>
      </trkpt>
      <trkpt lat="54.941894961521029" lon="26.44504901021719">
        <ele>203.46000000000001</ele>
        <time>2011-08-17T12:42:17Z</time>
      </trkpt>
      <trkpt lat="54.941779961809516" lon="26.445203991606832">
        <ele>203.46000000000001</ele>
        <time>2011-08-17T12:42:23Z</time>
      </trkpt>
      <trkpt lat="54.941547028720379" lon="26.445595007389784">
        <ele>203.94</ele>
        <time>2011-08-17T12:42:36Z</time>
      </trkpt>
      <trkpt lat="54.941497994586825" lon="26.445730039849877">
        <ele>204.90000000000001</ele>
        <time>2011-08-17T12:42:40Z</time>
      </trkpt>
      <trkpt lat="54.941627997905016" lon="26.44597596488893">
        <ele>203.46000000000001</ele>
        <time>2011-08-17T12:42:48Z</time>
      </trkpt>
      <trkpt lat="54.941902002319694" lon="26.446161037310958">
        <ele>202.97999999999999</ele>
        <time>2011-08-17T12:42:53Z</time>
      </trkpt>
      <trkpt lat="54.941879035905004" lon="26.446237983182073">
        <ele>202.49000000000001</ele>
        <time>2011-08-17T12:42:56Z</time>
      </trkpt>
      <trkpt lat="54.942042985931039" lon="26.446688007563353">
        <ele>202.00999999999999</ele>
        <time>2011-08-17T12:43:06Z</time>
      </trkpt>
      <trkpt lat="54.942141976207495" lon="26.446794960647821">
        <ele>202.49000000000001</ele>
        <time>2011-08-17T12:43:13Z</time>
      </trkpt>
      <trkpt lat="54.942219005897641" lon="26.446880036965013">
        <ele>202.00999999999999</ele>
        <time>2011-08-17T12:43:17Z</time>
      </trkpt>
      <trkpt lat="54.942276002839208" lon="26.447105007246137">
        <ele>201.53</ele>
        <time>2011-08-17T12:43:23Z</time>
      </trkpt>
      <trkpt lat="54.942340962588787" lon="26.447303993627429">
        <ele>202.00999999999999</ele>
        <time>2011-08-17T12:43:28Z</time>
      </trkpt>
      <trkpt lat="54.942478006705642" lon="26.447723004966974">
        <ele>201.53</ele>
        <time>2011-08-17T12:43:38Z</time>
      </trkpt>
      <trkpt lat="54.942493010312319" lon="26.447761980816722">
        <ele>201.05000000000001</ele>
        <time>2011-08-17T12:43:39Z</time>
      </trkpt>
      <trkpt lat="54.942738013342023" lon="26.448187027126551">
        <ele>201.05000000000001</ele>
        <time>2011-08-17T12:43:49Z</time>
      </trkpt>
      <trkpt lat="54.942837003618479" lon="26.448486009612679">
        <ele>201.05000000000001</ele>
        <time>2011-08-17T12:43:55Z</time>
      </trkpt>
      <trkpt lat="54.942962983623147" lon="26.449082968756557">
        <ele>201.05000000000001</ele>
        <time>2011-08-17T12:44:05Z</time>
      </trkpt>
      <trkpt lat="54.943027021363378" lon="26.449202997609973">
        <ele>200.09</ele>
        <time>2011-08-17T12:44:07Z</time>
      </trkpt>
      <trkpt lat="54.943088963627815" lon="26.449333000928164">
        <ele>200.09</ele>
        <time>2011-08-17T12:44:09Z</time>
      </trkpt>
      <trkpt lat="54.943263977766037" lon="26.449832981452346">
        <ele>199.61000000000001</ele>
        <time>2011-08-17T12:44:16Z</time>
      </trkpt>
      <trkpt lat="54.943344024941325" lon="26.450125006958842">
        <ele>199.61000000000001</ele>
        <time>2011-08-17T12:44:20Z</time>
      </trkpt>
      <trkpt lat="54.943519961088896" lon="26.450767982751131">
        <ele>199.13</ele>
        <time>2011-08-17T12:44:30Z</time>
      </trkpt>
      <trkpt lat="54.943519961088896" lon="26.450920030474663">
        <ele>198.65000000000001</ele>
        <time>2011-08-17T12:44:32Z</time>
      </trkpt>
      <trkpt lat="54.94350403547287" lon="26.451137959957123">
        <ele>198.65000000000001</ele>
        <time>2011-08-17T12:44:35Z</time>
      </trkpt>
      <trkpt lat="54.94352700188756" lon="26.45147499628365">
        <ele>198.65000000000001</ele>
        <time>2011-08-17T12:44:40Z</time>
      </trkpt>
      <trkpt lat="54.943595984950662" lon="26.451740032061934">
        <ele>199.13</ele>
        <time>2011-08-17T12:44:44Z</time>
      </trkpt>
      <trkpt lat="54.943610988557339" lon="26.452006995677948">
        <ele>199.61000000000001</ele>
        <time>2011-08-17T12:44:48Z</time>
      </trkpt>
      <trkpt lat="54.94372196495533" lon="26.452605966478586">
        <ele>199.13</ele>
        <time>2011-08-17T12:44:57Z</time>
      </trkpt>
      <trkpt lat="54.943839982151985" lon="26.452878965064883">
        <ele>200.09</ele>
        <time>2011-08-17T12:45:01Z</time>
      </trkpt>
      <trkpt lat="54.943942995741963" lon="26.453326977789402">
        <ele>199.61000000000001</ele>
        <time>2011-08-17T12:45:07Z</time>
      </trkpt>
      <trkpt lat="54.943995969370008" lon="26.453628977760673">
        <ele>199.61000000000001</ele>
        <time>2011-08-17T12:45:11Z</time>
      </trkpt>
      <trkpt lat="54.944053972139955" lon="26.45390298217535">
        <ele>199.61000000000001</ele>
        <time>2011-08-17T12:45:15Z</time>
      </trkpt>
      <trkpt lat="54.944182969629765" lon="26.454172041267157">
        <ele>199.61000000000001</ele>
        <time>2011-08-17T12:45:21Z</time>
      </trkpt>
      <trkpt lat="54.944305010139942" lon="26.454575965180993">
        <ele>199.61000000000001</ele>
        <time>2011-08-17T12:45:27Z</time>
      </trkpt>
      <trkpt lat="54.944396959617734" lon="26.454887017607689">
        <ele>199.61000000000001</ele>
        <time>2011-08-17T12:45:31Z</time>
      </trkpt>
      <trkpt lat="54.944526962935925" lon="26.455499986186624">
        <ele>200.09</ele>
        <time>2011-08-17T12:45:40Z</time>
      </trkpt>
      <trkpt lat="54.944553030654788" lon="26.455716993659735">
        <ele>200.09</ele>
        <time>2011-08-17T12:45:43Z</time>
      </trkpt>
      <trkpt lat="54.944649003446102" lon="26.456143967807293">
        <ele>200.09</ele>
        <time>2011-08-17T12:45:50Z</time>
      </trkpt>
      <trkpt lat="54.944770960137248" lon="26.456526014953852">
        <ele>200.09</ele>
        <time>2011-08-17T12:45:56Z</time>
      </trkpt>
      <trkpt lat="54.944842960685492" lon="26.45693002268672">
        <ele>200.56999999999999</ele>
        <time>2011-08-17T12:46:03Z</time>
      </trkpt>
      <trkpt lat="54.944981010630727" lon="26.457390021532774">
        <ele>200.56999999999999</ele>
        <time>2011-08-17T12:46:10Z</time>
      </trkpt>
      <trkpt lat="54.945099027827382" lon="26.457850020378828">
        <ele>200.56999999999999</ele>
        <time>2011-08-17T12:46:17Z</time>
      </trkpt>
      <trkpt lat="54.945231964811683" lon="26.458272971212864">
        <ele>200.56999999999999</ele>
        <time>2011-08-17T12:46:24Z</time>
      </trkpt>
      <trkpt lat="54.945262977853417" lon="26.458331979811192">
        <ele>200.56999999999999</ele>
        <time>2011-08-17T12:46:25Z</time>
      </trkpt>
      <trkpt lat="54.945460958406329" lon="26.45888501778245">
        <ele>200.09</ele>
        <time>2011-08-17T12:46:35Z</time>
      </trkpt>
      <trkpt lat="54.94556799530983" lon="26.459149969741702">
        <ele>199.61000000000001</ele>
        <time>2011-08-17T12:46:39Z</time>
      </trkpt>
      <trkpt lat="54.945690035820007" lon="26.459415005519986">
        <ele>198.65000000000001</ele>
        <time>2011-08-17T12:46:43Z</time>
      </trkpt>
      <trkpt lat="54.945807969197631" lon="26.459694039076567">
        <ele>199.13</ele>
        <time>2011-08-17T12:46:47Z</time>
      </trkpt>
      <trkpt lat="54.945926992222667" lon="26.459948010742664">
        <ele>198.65000000000001</ele>
        <time>2011-08-17T12:46:51Z</time>
      </trkpt>
      <trkpt lat="54.945988012477756" lon="26.460148002952337">
        <ele>199.13</ele>
        <time>2011-08-17T12:46:54Z</time>
      </trkpt>
      <trkpt lat="54.946109969168901" lon="26.460455032065511">
        <ele>198.16999999999999</ele>
        <time>2011-08-17T12:46:59Z</time>
      </trkpt>
      <trkpt lat="54.946304010227323" lon="26.460913019254804">
        <ele>198.65000000000001</ele>
        <time>2011-08-17T12:47:07Z</time>
      </trkpt>
      <trkpt lat="54.946395959705114" lon="26.461236979812384">
        <ele>198.16999999999999</ele>
        <time>2011-08-17T12:47:13Z</time>
      </trkpt>
      <trkpt lat="54.946434013545513" lon="26.461352985352278">
        <ele>198.65000000000001</ele>
        <time>2011-08-17T12:47:15Z</time>
      </trkpt>
      <trkpt lat="54.946502996608615" lon="26.461937036365271">
        <ele>199.61000000000001</ele>
        <time>2011-08-17T12:47:23Z</time>
      </trkpt>
      <trkpt lat="54.946568040177226" lon="26.462479010224342">
        <ele>199.13</ele>
        <time>2011-08-17T12:47:30Z</time>
      </trkpt>
      <trkpt lat="54.946552030742168" lon="26.462900033220649">
        <ele>199.13</ele>
        <time>2011-08-17T12:47:36Z</time>
      </trkpt>
      <trkpt lat="54.946419009938836" lon="26.463589025661349">
        <ele>200.09</ele>
        <time>2011-08-17T12:47:46Z</time>
      </trkpt>
      <trkpt lat="54.946346003562212" lon="26.464028991758823">
        <ele>200.09</ele>
        <time>2011-08-17T12:47:52Z</time>
      </trkpt>
      <trkpt lat="54.946181969717145" lon="26.464611031115055">
        <ele>198.65000000000001</ele>
        <time>2011-08-17T12:48:00Z</time>
      </trkpt>
      <trkpt lat="54.946094965562224" lon="26.464865002781153">
        <ele>198.65000000000001</ele>
        <time>2011-08-17T12:48:04Z</time>
      </trkpt>
      <trkpt lat="54.946003016084433" lon="26.465131966397166">
        <ele>199.13</ele>
        <time>2011-08-17T12:48:08Z</time>
      </trkpt>
      <trkpt lat="54.945930009707808" lon="26.465337993577123">
        <ele>198.65000000000001</ele>
        <time>2011-08-17T12:48:11Z</time>
      </trkpt>
      <trkpt lat="54.945735968649387" lon="26.465891031548381">
        <ele>198.65000000000001</ele>
        <time>2011-08-17T12:48:20Z</time>
      </trkpt>
      <trkpt lat="54.945614011958241" lon="26.466544987633824">
        <ele>198.65000000000001</ele>
        <time>2011-08-17T12:48:29Z</time>
      </trkpt>
      <trkpt lat="54.945605965331197" lon="26.466687982901931">
        <ele>198.65000000000001</ele>
        <time>2011-08-17T12:48:31Z</time>
      </trkpt>
      <trkpt lat="54.945533964782953" lon="26.467189975082874">
        <ele>198.65000000000001</ele>
        <time>2011-08-17T12:48:39Z</time>
      </trkpt>
      <trkpt lat="54.945491971448064" lon="26.46737102419138">
        <ele>199.13</ele>
        <time>2011-08-17T12:48:42Z</time>
      </trkpt>
      <trkpt lat="54.945415025576949" lon="26.468132017180324">
        <ele>197.69</ele>
        <time>2011-08-17T12:48:53Z</time>
      </trkpt>
      <trkpt lat="54.945403961464763" lon="26.468196976929903">
        <ele>198.16999999999999</ele>
        <time>2011-08-17T12:48:54Z</time>
      </trkpt>
      <trkpt lat="54.945319974794984" lon="26.46844700910151">
        <ele>197.69</ele>
        <time>2011-08-17T12:48:59Z</time>
      </trkpt>
      <trkpt lat="54.945286028087139" lon="26.468530995771289">
        <ele>198.16999999999999</ele>
        <time>2011-08-17T12:49:01Z</time>
      </trkpt>
      <trkpt lat="54.945057034492493" lon="26.468900972977281">
        <ele>198.16999999999999</ele>
        <time>2011-08-17T12:49:08Z</time>
      </trkpt>
      <trkpt lat="54.945000037550926" lon="26.469075987115502">
        <ele>197.69</ele>
        <time>2011-08-17T12:49:11Z</time>
      </trkpt>
      <trkpt lat="54.944965001195669" lon="26.469420986250043">
        <ele>197.21000000000001</ele>
        <time>2011-08-17T12:49:16Z</time>
      </trkpt>
      <trkpt lat="54.944969024509192" lon="26.469572028145194">
        <ele>197.69</ele>
        <time>2011-08-17T12:49:18Z</time>
      </trkpt>
      <trkpt lat="54.944957960397005" lon="26.470309970900416">
        <ele>197.21000000000001</ele>
        <time>2011-08-17T12:49:28Z</time>
      </trkpt>
      <trkpt lat="54.944954020902514" lon="26.470643989741802">
        <ele>196.25</ele>
        <time>2011-08-17T12:49:32Z</time>
      </trkpt>
      <trkpt lat="54.945015041157603" lon="26.471301969140768">
        <ele>195.28</ele>
        <time>2011-08-17T12:49:41Z</time>
      </trkpt>
      <trkpt lat="54.94507203809917" lon="26.471466002985835">
        <ele>195.28</ele>
        <time>2011-08-17T12:49:44Z</time>
      </trkpt>
      <trkpt lat="54.94535400532186" lon="26.471702959388494">
        <ele>194.31999999999999</ele>
        <time>2011-08-17T12:49:54Z</time>
      </trkpt>
      <trkpt lat="54.94571702554822" lon="26.471817037090659">
        <ele>192.88</ele>
        <time>2011-08-17T12:50:04Z</time>
      </trkpt>
      <trkpt lat="54.945865971967578" lon="26.471866993233562">
        <ele>192.88</ele>
        <time>2011-08-17T12:50:09Z</time>
      </trkpt>
      <trkpt lat="54.946181969717145" lon="26.472054999321699">
        <ele>192.40000000000001</ele>
        <time>2011-08-17T12:50:19Z</time>
      </trkpt>
      <trkpt lat="54.946601986885071" lon="26.472300002351403">
        <ele>191.91999999999999</ele>
        <time>2011-08-17T12:50:29Z</time>
      </trkpt>
      <trkpt lat="54.946682034060359" lon="26.472347024828196">
        <ele>191.44</ele>
        <time>2011-08-17T12:50:31Z</time>
      </trkpt>
      <trkpt lat="54.946803990751505" lon="26.472413996234536">
        <ele>192.40000000000001</ele>
        <time>2011-08-17T12:50:35Z</time>
      </trkpt>
      <trkpt lat="54.946938017383218" lon="26.472453977912664">
        <ele>192.88</ele>
        <time>2011-08-17T12:50:38Z</time>
      </trkpt>
      <trkpt lat="54.947322998195887" lon="26.472418019548059">
        <ele>193.36000000000001</ele>
        <time>2011-08-17T12:50:47Z</time>
      </trkpt>
      <trkpt lat="54.947502035647631" lon="26.472468981519341">
        <ele>193.84</ele>
        <time>2011-08-17T12:50:51Z</time>
      </trkpt>
      <trkpt lat="54.947830019518733" lon="26.472473004832864">
        <ele>191.91999999999999</ele>
        <time>2011-08-17T12:50:57Z</time>
      </trkpt>
      <trkpt lat="54.948380040004849" lon="26.472453977912664">
        <ele>190</ele>
        <time>2011-08-17T12:51:08Z</time>
      </trkpt>
      <trkpt lat="54.948433013632894" lon="26.472462024539709">
        <ele>190.47999999999999</ele>
        <time>2011-08-17T12:51:09Z</time>
      </trkpt>
      <trkpt lat="54.948532003909349" lon="26.472451966255903">
        <ele>190.47999999999999</ele>
        <time>2011-08-17T12:51:11Z</time>
      </trkpt>
      <trkpt lat="54.948714980855584" lon="26.472458001226187">
        <ele>190.47999999999999</ele>
        <time>2011-08-17T12:51:15Z</time>
      </trkpt>
      <trkpt lat="54.949013041332364" lon="26.47246696986258">
        <ele>190.47999999999999</ele>
        <time>2011-08-17T12:51:21Z</time>
      </trkpt>
      <trkpt lat="54.949165005236864" lon="26.472504017874599">
        <ele>190.96000000000001</ele>
        <time>2011-08-17T12:51:24Z</time>
      </trkpt>
      <trkpt lat="54.949356028810143" lon="26.472543999552727">
        <ele>191.44</ele>
        <time>2011-08-17T12:51:28Z</time>
      </trkpt>
      <trkpt lat="54.949637996032834" lon="26.472640978172421">
        <ele>191.91999999999999</ele>
        <time>2011-08-17T12:51:35Z</time>
      </trkpt>
      <trkpt lat="54.949965979903936" lon="26.472818003967404">
        <ele>192.88</ele>
        <time>2011-08-17T12:51:44Z</time>
      </trkpt>
      <trkpt lat="54.950089026242495" lon="26.472869971767068">
        <ele>192.88</ele>
        <time>2011-08-17T12:51:47Z</time>
      </trkpt>
      <trkpt lat="54.950351966544986" lon="26.472963010892272">
        <ele>192.88</ele>
        <time>2011-08-17T12:51:53Z</time>
      </trkpt>
      <trkpt lat="54.950748011469841" lon="26.473126960918307">
        <ele>194.31999999999999</ele>
        <time>2011-08-17T12:52:04Z</time>
      </trkpt>
      <trkpt lat="54.951045988127589" lon="26.473245983943343">
        <ele>195.28</ele>
        <time>2011-08-17T12:52:12Z</time>
      </trkpt>
      <trkpt lat="54.951122011989355" lon="26.473253024742007">
        <ele>195.28</ele>
        <time>2011-08-17T12:52:14Z</time>
      </trkpt>
      <trkpt lat="54.95141202583909" lon="26.473271967843175">
        <ele>194.31999999999999</ele>
        <time>2011-08-17T12:52:22Z</time>
      </trkpt>
      <trkpt lat="54.951529959216714" lon="26.473225029185414">
        <ele>194.31999999999999</ele>
        <time>2011-08-17T12:52:25Z</time>
      </trkpt>
      <trkpt lat="54.951766999438405" lon="26.473154034465551">
        <ele>193.36000000000001</ele>
        <time>2011-08-17T12:52:31Z</time>
      </trkpt>
      <trkpt lat="54.951865989714861" lon="26.473150011152029">
        <ele>192.88</ele>
        <time>2011-08-17T12:52:33Z</time>
      </trkpt>
      <trkpt lat="54.952136976644397" lon="26.473184963688254">
        <ele>192.40000000000001</ele>
        <time>2011-08-17T12:52:39Z</time>
      </trkpt>
      <trkpt lat="54.952338980510831" lon="26.473285965621471">
        <ele>192.40000000000001</ele>
        <time>2011-08-17T12:52:45Z</time>
      </trkpt>
      <trkpt lat="54.952503014355898" lon="26.473420998081565">
        <ele>192.40000000000001</ele>
        <time>2011-08-17T12:52:49Z</time>
      </trkpt>
      <trkpt lat="54.952824041247368" lon="26.473706988617778">
        <ele>193.36000000000001</ele>
        <time>2011-08-17T12:52:57Z</time>
      </trkpt>
      <trkpt lat="54.95304498821497" lon="26.474051987752318">
        <ele>193.36000000000001</ele>
        <time>2011-08-17T12:53:05Z</time>
      </trkpt>
      <trkpt lat="54.953158982098103" lon="26.474215015769005">
        <ele>193.84</ele>
        <time>2011-08-17T12:53:09Z</time>
      </trkpt>
      <trkpt lat="54.953365009278059" lon="26.474360022693872">
        <ele>193.84</ele>
        <time>2011-08-17T12:53:15Z</time>
      </trkpt>
      <trkpt lat="54.953658962622285" lon="26.474575018510222">
        <ele>193.36000000000001</ele>
        <time>2011-08-17T12:53:22Z</time>
      </trkpt>
      <trkpt lat="54.953692993149161" lon="26.47461298853159">
        <ele>192.88</ele>
        <time>2011-08-17T12:53:23Z</time>
      </trkpt>
      <trkpt lat="54.953800030052662" lon="26.474757995456457">
        <ele>193.36000000000001</ele>
        <time>2011-08-17T12:53:26Z</time>
      </trkpt>
      <trkpt lat="54.953983006998897" lon="26.475112969055772">
        <ele>192.88</ele>
        <time>2011-08-17T12:53:33Z</time>
      </trkpt>
      <trkpt lat="54.954078979790211" lon="26.475259987637401">
        <ele>192.88</ele>
        <time>2011-08-17T12:53:36Z</time>
      </trkpt>
      <trkpt lat="54.954280983656645" lon="26.475611021742225">
        <ele>192.88</ele>
        <time>2011-08-17T12:53:44Z</time>
      </trkpt>
      <trkpt lat="54.954327000305057" lon="26.475678998976946">
        <ele>192.88</ele>
        <time>2011-08-17T12:53:46Z</time>
      </trkpt>
      <trkpt lat="54.954418027773499" lon="26.475749993696809">
        <ele>192.88</ele>
        <time>2011-08-17T12:53:48Z</time>
      </trkpt>
      <trkpt lat="54.954632017761469" lon="26.475863987579942">
        <ele>192.88</ele>
        <time>2011-08-17T12:53:56Z</time>
      </trkpt>
      <trkpt lat="54.954810971394181" lon="26.476028021425009">
        <ele>193.36000000000001</ele>
        <time>2011-08-17T12:54:06Z</time>
      </trkpt>
      <trkpt lat="54.954982968047261" lon="26.476200018078089">
        <ele>193.36000000000001</ele>
        <time>2011-08-17T12:54:16Z</time>
      </trkpt>
      <trkpt lat="54.955051029101014" lon="26.476336978375912">
        <ele>192.88</ele>
        <time>2011-08-17T12:54:21Z</time>
      </trkpt>
      <trkpt lat="54.955235011875629" lon="26.476523978635669">
        <ele>191.91999999999999</ele>
        <time>2011-08-17T12:54:27Z</time>
      </trkpt>
      <trkpt lat="54.955521002411842" lon="26.47678398527205">
        <ele>191.44</ele>
        <time>2011-08-17T12:54:36Z</time>
      </trkpt>
      <trkpt lat="54.95579500682652" lon="26.477036029100418">
        <ele>191.44</ele>
        <time>2011-08-17T12:54:46Z</time>
      </trkpt>
      <trkpt lat="54.956131037324667" lon="26.477324031293392">
        <ele>190.96000000000001</ele>
        <time>2011-08-17T12:54:55Z</time>
      </trkpt>
      <trkpt lat="54.956565974280238" lon="26.477709012106061">
        <ele>191.44</ele>
        <time>2011-08-17T12:55:06Z</time>
      </trkpt>
      <trkpt lat="54.956604028120637" lon="26.477739019319415">
        <ele>190.96000000000001</ele>
        <time>2011-08-17T12:55:07Z</time>
      </trkpt>
      <trkpt lat="54.956809971481562" lon="26.477898024022579">
        <ele>190.96000000000001</ele>
        <time>2011-08-17T12:55:12Z</time>
      </trkpt>
      <trkpt lat="54.957005018368363" lon="26.478100027889013">
        <ele>190.47999999999999</ele>
        <time>2011-08-17T12:55:18Z</time>
      </trkpt>
      <trkpt lat="54.957168968394399" lon="26.478192983195186">
        <ele>190.96000000000001</ele>
        <time>2011-08-17T12:55:22Z</time>
      </trkpt>
      <trkpt lat="54.957301989197731" lon="26.478333966806531">
        <ele>190.96000000000001</ele>
        <time>2011-08-17T12:55:29Z</time>
      </trkpt>
      <trkpt lat="54.957412965595722" lon="26.478443015366793">
        <ele>190.96000000000001</ele>
        <time>2011-08-17T12:55:34Z</time>
      </trkpt>
      <trkpt lat="54.957705996930599" lon="26.478735040873289">
        <ele>191.44</ele>
        <time>2011-08-17T12:55:45Z</time>
      </trkpt>
      <trkpt lat="54.957897020503879" lon="26.479134019464254">
        <ele>190.96000000000001</ele>
        <time>2011-08-17T12:55:55Z</time>
      </trkpt>
      <trkpt lat="54.958084020763636" lon="26.479622013866901">
        <ele>192.40000000000001</ele>
        <time>2011-08-17T12:56:06Z</time>
      </trkpt>
      <trkpt lat="54.958323994651437" lon="26.480292985215783">
        <ele>191.91999999999999</ele>
        <time>2011-08-17T12:56:18Z</time>
      </trkpt>
      <trkpt lat="54.958564974367619" lon="26.480897990986705">
        <ele>192.40000000000001</ele>
        <time>2011-08-17T12:56:30Z</time>
      </trkpt>
      <trkpt lat="54.958660025149584" lon="26.481185993179679">
        <ele>192.40000000000001</ele>
        <time>2011-08-17T12:56:35Z</time>
      </trkpt>
      <trkpt lat="54.958880972117186" lon="26.481678010895848">
        <ele>192.40000000000001</ele>
        <time>2011-08-17T12:56:45Z</time>
      </trkpt>
      <trkpt lat="54.958907961845398" lon="26.481729978695512">
        <ele>191.91999999999999</ele>
        <time>2011-08-17T12:56:46Z</time>
      </trkpt>
      <trkpt lat="54.959007035940886" lon="26.481970036402345">
        <ele>190.96000000000001</ele>
        <time>2011-08-17T12:56:51Z</time>
      </trkpt>
      <trkpt lat="54.959217002615333" lon="26.482529025524855">
        <ele>188.56</ele>
        <time>2011-08-17T12:56:59Z</time>
      </trkpt>
      <trkpt lat="54.959251033142209" lon="26.482608988881111">
        <ele>188.08000000000001</ele>
        <time>2011-08-17T12:57:00Z</time>
      </trkpt>
      <trkpt lat="54.959342982620001" lon="26.482852986082435">
        <ele>187.59</ele>
        <time>2011-08-17T12:57:03Z</time>
      </trkpt>
      <trkpt lat="54.959419006481767" lon="26.483067981898785">
        <ele>186.63</ele>
        <time>2011-08-17T12:57:06Z</time>
      </trkpt>
      <trkpt lat="54.959564013406634" lon="26.483382973819971">
        <ele>186.15000000000001</ele>
        <time>2011-08-17T12:57:12Z</time>
      </trkpt>
      <trkpt lat="54.959655962884426" lon="26.483815982937813">
        <ele>186.63</ele>
        <time>2011-08-17T12:57:19Z</time>
      </trkpt>
      <trkpt lat="54.959742967039347" lon="26.48445300757885">
        <ele>185.66999999999999</ele>
        <time>2011-08-17T12:57:29Z</time>
      </trkpt>
      <trkpt lat="54.959751013666391" lon="26.4844970125705">
        <ele>185.66999999999999</ele>
        <time>2011-08-17T12:57:30Z</time>
      </trkpt>
      <trkpt lat="54.959797030314803" lon="26.484895991161466">
        <ele>185.66999999999999</ele>
        <time>2011-08-17T12:57:38Z</time>
      </trkpt>
      <trkpt lat="54.959808010607958" lon="26.484954999759793">
        <ele>185.19</ele>
        <time>2011-08-17T12:57:39Z</time>
      </trkpt>
      <trkpt lat="54.959827037528157" lon="26.485058013349771">
        <ele>185.19</ele>
        <time>2011-08-17T12:57:41Z</time>
      </trkpt>
      <trkpt lat="54.95985796675086" lon="26.485236966982484">
        <ele>185.19</ele>
        <time>2011-08-17T12:57:45Z</time>
      </trkpt>
      <trkpt lat="54.959942037239671" lon="26.485533015802503">
        <ele>183.75</ele>
        <time>2011-08-17T12:57:51Z</time>
      </trkpt>
      <trkpt lat="54.960078997537494" lon="26.485825041308999">
        <ele>183.27000000000001</ele>
        <time>2011-08-17T12:57:58Z</time>
      </trkpt>
      <trkpt lat="54.960105987265706" lon="26.485905004665256">
        <ele>183.27000000000001</ele>
        <time>2011-08-17T12:58:00Z</time>
      </trkpt>
      <trkpt lat="54.960216963663697" lon="26.48617004044354">
        <ele>183.27000000000001</ele>
        <time>2011-08-17T12:58:06Z</time>
      </trkpt>
      <trkpt lat="54.960273960605264" lon="26.486282022669911">
        <ele>183.27000000000001</ele>
        <time>2011-08-17T12:58:13Z</time>
      </trkpt>
      <trkpt lat="54.960334980860353" lon="26.486341031268239">
        <ele>182.78999999999999</ele>
        <time>2011-08-17T12:58:18Z</time>
      </trkpt>
      <trkpt lat="54.960376974195242" lon="26.486481009051204">
        <ele>183.75</ele>
        <time>2011-08-17T12:58:31Z</time>
      </trkpt>
      <trkpt lat="54.960388038307428" lon="26.486562984064221">
        <ele>183.27000000000001</ele>
        <time>2011-08-17T12:58:38Z</time>
      </trkpt>
      <trkpt lat="54.960468001663685" lon="26.486716959625483">
        <ele>183.27000000000001</ele>
        <time>2011-08-17T12:58:48Z</time>
      </trkpt>
      <trkpt lat="54.960509994998574" lon="26.486760964617133">
        <ele>183.27000000000001</ele>
        <time>2011-08-17T12:58:52Z</time>
      </trkpt>
      <trkpt lat="54.96052198112011" lon="26.486788038164377">
        <ele>182.78999999999999</ele>
        <time>2011-08-17T12:58:54Z</time>
      </trkpt>
      <trkpt lat="54.960509994998574" lon="26.486855009570718">
        <ele>182.78999999999999</ele>
        <time>2011-08-17T12:59:04Z</time>
      </trkpt>
      <trkpt lat="54.96052198112011" lon="26.486912006512284">
        <ele>182.78999999999999</ele>
        <time>2011-08-17T12:59:07Z</time>
      </trkpt>
      <trkpt lat="54.960705041885376" lon="26.487235967069864">
        <ele>183.27000000000001</ele>
        <time>2011-08-17T12:59:18Z</time>
      </trkpt>
      <trkpt lat="54.960811994969845" lon="26.487426990643144">
        <ele>182.78999999999999</ele>
        <time>2011-08-17T12:59:24Z</time>
      </trkpt>
      <trkpt lat="54.96099497191608" lon="26.487823035567999">
        <ele>183.27000000000001</ele>
        <time>2011-08-17T12:59:35Z</time>
      </trkpt>
      <trkpt lat="54.961108965799212" lon="26.488077007234097">
        <ele>182.78999999999999</ele>
        <time>2011-08-17T12:59:41Z</time>
      </trkpt>
      <trkpt lat="54.96138003654778" lon="26.488295020535588">
        <ele>183.27000000000001</ele>
        <time>2011-08-17T12:59:51Z</time>
      </trkpt>
      <trkpt lat="54.961651023477316" lon="26.488370960578322">
        <ele>182.78999999999999</ele>
        <time>2011-08-17T13:00:00Z</time>
      </trkpt>
      <trkpt lat="54.96189896017313" lon="26.488387975841761">
        <ele>182.78999999999999</ele>
        <time>2011-08-17T13:00:10Z</time>
      </trkpt>
      <trkpt lat="54.962100964039564" lon="26.488455031067133">
        <ele>182.78999999999999</ele>
        <time>2011-08-17T13:00:18Z</time>
      </trkpt>
      <trkpt lat="54.962321994826198" lon="26.488503981381655">
        <ele>183.75</ele>
        <time>2011-08-17T13:00:25Z</time>
      </trkpt>
      <trkpt lat="54.962565992027521" lon="26.488446984440088">
        <ele>183.75</ele>
        <time>2011-08-17T13:00:34Z</time>
      </trkpt>
      <trkpt lat="54.962775958701968" lon="26.488264007493854">
        <ele>185.19</ele>
        <time>2011-08-17T13:00:43Z</time>
      </trkpt>
      <trkpt lat="54.962875032797456" lon="26.488143978640437">
        <ele>185.19</ele>
        <time>2011-08-17T13:00:52Z</time>
      </trkpt>
      <trkpt lat="54.963008975610137" lon="26.488039037212729">
        <ele>184.71000000000001</ele>
        <time>2011-08-17T13:00:58Z</time>
      </trkpt>
      <trkpt lat="54.963177032768726" lon="26.487895958125591">
        <ele>184.71000000000001</ele>
        <time>2011-08-17T13:01:05Z</time>
      </trkpt>
      <trkpt lat="54.963390016928315" lon="26.487751035019755">
        <ele>184.71000000000001</ele>
        <time>2011-08-17T13:01:12Z</time>
      </trkpt>
      <trkpt lat="54.963656980544329" lon="26.487488010898232">
        <ele>185.19</ele>
        <time>2011-08-17T13:01:22Z</time>
      </trkpt>
      <trkpt lat="54.963973984122276" lon="26.487217023968697">
        <ele>185.19</ele>
        <time>2011-08-17T13:01:31Z</time>
      </trkpt>
      <trkpt lat="54.964114967733622" lon="26.48705299012363">
        <ele>184.22999999999999</ele>
        <time>2011-08-17T13:01:39Z</time>
      </trkpt>
      <trkpt lat="54.964241031557322" lon="26.486931033432484">
        <ele>185.66999999999999</ele>
        <time>2011-08-17T13:01:48Z</time>
      </trkpt>
      <trkpt lat="54.964320994913578" lon="26.486830031499267">
        <ele>185.19</ele>
        <time>2011-08-17T13:01:53Z</time>
      </trkpt>
      <trkpt lat="54.964455021545291" lon="26.48672902956605">
        <ele>185.19</ele>
        <time>2011-08-17T13:02:00Z</time>
      </trkpt>
      <trkpt lat="54.964729025959969" lon="26.486511016264558">
        <ele>186.15000000000001</ele>
        <time>2011-08-17T13:02:09Z</time>
      </trkpt>
      <trkpt lat="54.965007975697517" lon="26.486300965771079">
        <ele>185.19</ele>
        <time>2011-08-17T13:02:19Z</time>
      </trkpt>
      <trkpt lat="54.965194975957274" lon="26.486221002414823">
        <ele>185.66999999999999</ele>
        <time>2011-08-17T13:02:28Z</time>
      </trkpt>
      <trkpt lat="54.96524803340435" lon="26.486179009079933">
        <ele>186.15000000000001</ele>
        <time>2011-08-17T13:02:31Z</time>
      </trkpt>
      <trkpt lat="54.965473003685474" lon="26.486063003540039">
        <ele>186.63</ele>
        <time>2011-08-17T13:02:41Z</time>
      </trkpt>
      <trkpt lat="54.965530000627041" lon="26.486026961356401">
        <ele>186.15000000000001</ele>
        <time>2011-08-17T13:02:44Z</time>
      </trkpt>
      <trkpt lat="54.965645000338554" lon="26.485882038250566">
        <ele>185.66999999999999</ele>
        <time>2011-08-17T13:02:52Z</time>
      </trkpt>
      <trkpt lat="54.965739967301488" lon="26.485738959163427">
        <ele>185.66999999999999</ele>
        <time>2011-08-17T13:02:58Z</time>
      </trkpt>
      <trkpt lat="54.965752037242055" lon="26.485726973041892">
        <ele>186.15000000000001</ele>
        <time>2011-08-17T13:02:59Z</time>
      </trkpt>
      <trkpt lat="54.965899977833033" lon="26.485496973618865">
        <ele>185.19</ele>
        <time>2011-08-17T13:03:06Z</time>
      </trkpt>
      <trkpt lat="54.966179011389613" lon="26.485152980312705">
        <ele>185.19</ele>
        <time>2011-08-17T13:03:18Z</time>
      </trkpt>
      <trkpt lat="54.966399958357215" lon="26.484982995316386">
        <ele>185.19</ele>
        <time>2011-08-17T13:03:26Z</time>
      </trkpt>
      <trkpt lat="54.96666700579226" lon="26.484708990901709">
        <ele>185.19</ele>
        <time>2011-08-17T13:03:37Z</time>
      </trkpt>
      <trkpt lat="54.966801032423973" lon="26.484508998692036">
        <ele>185.19</ele>
        <time>2011-08-17T13:03:46Z</time>
      </trkpt>
      <trkpt lat="54.966891976073384" lon="26.484389975667">
        <ele>185.19</ele>
        <time>2011-08-17T13:03:51Z</time>
      </trkpt>
      <trkpt lat="54.967102026566863" lon="26.484191995114088">
        <ele>186.15000000000001</ele>
        <time>2011-08-17T13:04:00Z</time>
      </trkpt>
      <trkpt lat="54.967346023768187" lon="26.484233988448977">
        <ele>185.19</ele>
        <time>2011-08-17T13:04:10Z</time>
      </trkpt>
      <trkpt lat="54.967545010149479" lon="26.484386036172509">
        <ele>184.71000000000001</ele>
        <time>2011-08-17T13:04:18Z</time>
      </trkpt>
      <trkpt lat="54.96759002096951" lon="26.484409002587199">
        <ele>185.19</ele>
        <time>2011-08-17T13:04:20Z</time>
      </trkpt>
      <trkpt lat="54.967795964330435" lon="26.484512016177177">
        <ele>185.19</ele>
        <time>2011-08-17T13:04:30Z</time>
      </trkpt>
      <trkpt lat="54.967814991250634" lon="26.484502963721752">
        <ele>185.19</ele>
        <time>2011-08-17T13:04:31Z</time>
      </trkpt>
      <trkpt lat="54.967853967100382" lon="26.484462982043624">
        <ele>184.71000000000001</ele>
        <time>2011-08-17T13:04:33Z</time>
      </trkpt>
      <trkpt lat="54.967914987355471" lon="26.484387964010239">
        <ele>185.19</ele>
        <time>2011-08-17T13:04:36Z</time>
      </trkpt>
      <trkpt lat="54.967853967100382" lon="26.484105996787548">
        <ele>185.66999999999999</ele>
        <time>2011-08-17T13:04:45Z</time>
      </trkpt>
      <trkpt lat="54.967819014564157" lon="26.483754962682724">
        <ele>186.15000000000001</ele>
        <time>2011-08-17T13:04:55Z</time>
      </trkpt>
      <trkpt lat="54.967780960723758" lon="26.483538039028645">
        <ele>186.63</ele>
        <time>2011-08-17T13:05:00Z</time>
      </trkpt>
      <trkpt lat="54.967898977920413" lon="26.483256993815303">
        <ele>187.11000000000001</ele>
        <time>2011-08-17T13:05:12Z</time>
      </trkpt>
      <trkpt lat="54.967949017882347" lon="26.483189016580582">
        <ele>187.59</ele>
        <time>2011-08-17T13:05:15Z</time>
      </trkpt>
      <trkpt lat="54.968112967908382" lon="26.482963962480426">
        <ele>188.08000000000001</ele>
        <time>2011-08-17T13:05:27Z</time>
      </trkpt>
      <trkpt lat="54.968284964561462" lon="26.482734968885779">
        <ele>188.56</ele>
        <time>2011-08-17T13:05:39Z</time>
      </trkpt>
      <trkpt lat="54.968380015343428" lon="26.48258401080966">
        <ele>189.03999999999999</ele>
        <time>2011-08-17T13:05:49Z</time>
      </trkpt>
      <trkpt lat="54.968387978151441" lon="26.482589961960912">
        <ele>189.03999999999999</ele>
        <time>2011-08-17T13:05:54Z</time>
      </trkpt>
      <trkpt lat="54.968402981758118" lon="26.482648970559239">
        <ele>189.03999999999999</ele>
        <time>2011-08-17T13:06:01Z</time>
      </trkpt>
      <trkpt lat="54.968444975093007" lon="26.482674032449722">
        <ele>189.03999999999999</ele>
        <time>2011-08-17T13:06:05Z</time>
      </trkpt>
      <trkpt lat="54.968498032540083" lon="26.48269297555089">
        <ele>189.52000000000001</ele>
        <time>2011-08-17T13:06:16Z</time>
      </trkpt>
      <trkpt lat="54.968498032540083" lon="26.48269297555089">
        <ele>189.52000000000001</ele>
        <time>2011-08-17T13:06:37Z</time>
      </trkpt>
      <trkpt lat="54.968501972034574" lon="26.482690963894129">
        <ele>189.03999999999999</ele>
        <time>2011-08-17T13:06:59Z</time>
      </trkpt>
      <trkpt lat="54.968501972034574" lon="26.482690963894129">
        <ele>189.52000000000001</ele>
        <time>2011-08-17T13:07:23Z</time>
      </trkpt>
      <trkpt lat="54.968498032540083" lon="26.482698004692793">
        <ele>189.52000000000001</ele>
        <time>2011-08-17T13:07:46Z</time>
      </trkpt>
      <trkpt lat="54.968498032540083" lon="26.482698004692793">
        <ele>182.78999999999999</ele>
        <time>2011-08-17T13:07:49Z</time>
      </trkpt>
      <trkpt lat="54.968498032540083" lon="26.482698004692793">
        <ele>184.71000000000001</ele>
        <time>2011-08-17T13:07:50Z</time>
      </trkpt>
      <trkpt lat="54.968498032540083" lon="26.482698004692793">
        <ele>190.47999999999999</ele>
        <time>2011-08-17T13:07:51Z</time>
      </trkpt>
      <trkpt lat="54.968498032540083" lon="26.482698004692793">
        <ele>188.56</ele>
        <time>2011-08-17T13:07:52Z</time>
      </trkpt>
      <trkpt lat="54.968501972034574" lon="26.482700016349554">
        <ele>189.52000000000001</ele>
        <time>2011-08-17T13:08:13Z</time>
      </trkpt>
      <trkpt lat="54.968501972034574" lon="26.482700016349554">
        <ele>184.71000000000001</ele>
        <time>2011-08-17T13:08:20Z</time>
      </trkpt>
      <trkpt lat="54.968501972034574" lon="26.482700016349554">
        <ele>188.08000000000001</ele>
        <time>2011-08-17T13:08:21Z</time>
      </trkpt>
      <trkpt lat="54.968501972034574" lon="26.482700016349554">
        <ele>191.44</ele>
        <time>2011-08-17T13:08:22Z</time>
      </trkpt>
      <trkpt lat="54.968501972034574" lon="26.482700016349554">
        <ele>188.08000000000001</ele>
        <time>2011-08-17T13:08:23Z</time>
      </trkpt>
      <trkpt lat="54.968501972034574" lon="26.482700016349554">
        <ele>190.96000000000001</ele>
        <time>2011-08-17T13:08:24Z</time>
      </trkpt>
      <trkpt lat="54.968498032540083" lon="26.482698004692793">
        <ele>187.59</ele>
        <time>2011-08-17T13:08:27Z</time>
      </trkpt>
      <trkpt lat="54.968498032540083" lon="26.482698004692793">
        <ele>190.47999999999999</ele>
        <time>2011-08-17T13:08:28Z</time>
      </trkpt>
      <trkpt lat="54.968490991741419" lon="26.482698004692793">
        <ele>189.52000000000001</ele>
        <time>2011-08-17T13:08:40Z</time>
      </trkpt>
      <trkpt lat="54.968494009226561" lon="26.482685012742877">
        <ele>190.96000000000001</ele>
        <time>2011-08-17T13:08:55Z</time>
      </trkpt>
      <trkpt lat="54.968498032540083" lon="26.482678977772593">
        <ele>187.59</ele>
        <time>2011-08-17T13:08:58Z</time>
      </trkpt>
      <trkpt lat="54.968498032540083" lon="26.482678977772593">
        <ele>190.47999999999999</ele>
        <time>2011-08-17T13:08:59Z</time>
      </trkpt>
      <trkpt lat="54.968498032540083" lon="26.482656011357903">
        <ele>190</ele>
        <time>2011-08-17T13:09:11Z</time>
      </trkpt>
      <trkpt lat="54.968501972034574" lon="26.482660034671426">
        <ele>189.52000000000001</ele>
        <time>2011-08-17T13:09:27Z</time>
      </trkpt>
      <trkpt lat="54.968505995348096" lon="26.4826700091362">
        <ele>190</ele>
        <time>2011-08-17T13:09:47Z</time>
      </trkpt>
      <trkpt lat="54.968505995348096" lon="26.4826700091362">
        <ele>190</ele>
        <time>2011-08-17T13:10:09Z</time>
      </trkpt>
      <trkpt lat="54.968510018661618" lon="26.4826700091362">
        <ele>190</ele>
        <time>2011-08-17T13:10:36Z</time>
      </trkpt>
      <trkpt lat="54.968510018661618" lon="26.4826700091362">
        <ele>190.96000000000001</ele>
        <time>2011-08-17T13:10:54Z</time>
      </trkpt>
      <trkpt lat="54.968505995348096" lon="26.482665985822678">
        <ele>190.47999999999999</ele>
        <time>2011-08-17T13:11:07Z</time>
      </trkpt>
      <trkpt lat="54.968505995348096" lon="26.482665985822678">
        <ele>190.47999999999999</ele>
        <time>2011-08-17T13:11:11Z</time>
      </trkpt>
      <trkpt lat="54.968589982017875" lon="26.482680989429355">
        <ele>190.47999999999999</ele>
        <time>2011-08-17T13:11:17Z</time>
      </trkpt>
      <trkpt lat="54.968604985624552" lon="26.482698004692793">
        <ele>190.96000000000001</ele>
        <time>2011-08-17T13:11:31Z</time>
      </trkpt>
      <trkpt lat="54.968604985624552" lon="26.482698004692793">
        <ele>190.47999999999999</ele>
        <time>2011-08-17T13:11:49Z</time>
      </trkpt>
      <trkpt lat="54.968657959252596" lon="26.482694987207651">
        <ele>190.96000000000001</ele>
        <time>2011-08-17T13:11:59Z</time>
      </trkpt>
      <trkpt lat="54.968910003080964" lon="26.482806969434023">
        <ele>190.96000000000001</ele>
        <time>2011-08-17T13:12:09Z</time>
      </trkpt>
      <trkpt lat="54.968956019729376" lon="26.482828008010983">
        <ele>190.96000000000001</ele>
        <time>2011-08-17T13:12:11Z</time>
      </trkpt>
      <trkpt lat="54.968983009457588" lon="26.482843011617661">
        <ele>190.47999999999999</ele>
        <time>2011-08-17T13:12:26Z</time>
      </trkpt>
      <trkpt lat="54.968983009457588" lon="26.482843011617661">
        <ele>193.84</ele>
        <time>2011-08-17T13:12:38Z</time>
      </trkpt>
      <trkpt lat="54.968983009457588" lon="26.482843011617661">
        <ele>190.96000000000001</ele>
        <time>2011-08-17T13:12:40Z</time>
      </trkpt>
      <trkpt lat="54.968983009457588" lon="26.482843011617661">
        <ele>190.96000000000001</ele>
        <time>2011-08-17T13:12:41Z</time>
      </trkpt>
      <trkpt lat="54.968998013064265" lon="26.482840999960899">
        <ele>190.96000000000001</ele>
        <time>2011-08-17T13:12:44Z</time>
      </trkpt>
      <trkpt lat="54.969123993068933" lon="26.482879975810647">
        <ele>190.96000000000001</ele>
        <time>2011-08-17T13:12:51Z</time>
      </trkpt>
      <trkpt lat="54.969173027202487" lon="26.482870001345873">
        <ele>190.47999999999999</ele>
        <time>2011-08-17T13:12:53Z</time>
      </trkpt>
      <trkpt lat="54.969512997195125" lon="26.482892967760563">
        <ele>190.96000000000001</ele>
        <time>2011-08-17T13:13:04Z</time>
      </trkpt>
      <trkpt lat="54.969818014651537" lon="26.482921969145536">
        <ele>190.47999999999999</ele>
        <time>2011-08-17T13:13:14Z</time>
      </trkpt>
      <trkpt lat="54.97006201185286" lon="26.482966979965568">
        <ele>190.47999999999999</ele>
        <time>2011-08-17T13:13:23Z</time>
      </trkpt>
      <trkpt lat="54.970139041543007" lon="26.482986006885767">
        <ele>190.47999999999999</ele>
        <time>2011-08-17T13:13:26Z</time>
      </trkpt>
      <trkpt lat="54.970322018489242" lon="26.483158003538847">
        <ele>189.52000000000001</ele>
        <time>2011-08-17T13:13:32Z</time>
      </trkpt>
      <trkpt lat="54.970436012372375" lon="26.483288006857038">
        <ele>190</ele>
        <time>2011-08-17T13:13:37Z</time>
      </trkpt>
      <trkpt lat="54.970691995695233" lon="26.483475007116795">
        <ele>190</ele>
        <time>2011-08-17T13:13:46Z</time>
      </trkpt>
      <trkpt lat="54.970962982624769" lon="26.483822017908096">
        <ele>189.52000000000001</ele>
        <time>2011-08-17T13:13:57Z</time>
      </trkpt>
      <trkpt lat="54.971275040879846" lon="26.484180008992553">
        <ele>188.56</ele>
        <time>2011-08-17T13:14:08Z</time>
      </trkpt>
      <trkpt lat="54.971419963985682" lon="26.484502963721752">
        <ele>187.11000000000001</ele>
        <time>2011-08-17T13:14:16Z</time>
      </trkpt>
      <trkpt lat="54.971450977027416" lon="26.48484000004828">
        <ele>187.11000000000001</ele>
        <time>2011-08-17T13:14:22Z</time>
      </trkpt>
      <trkpt lat="54.971595983952284" lon="26.485211988911033">
        <ele>187.11000000000001</ele>
        <time>2011-08-17T13:14:28Z</time>
      </trkpt>
      <trkpt lat="54.971679970622063" lon="26.485652960836887">
        <ele>187.59</ele>
        <time>2011-08-17T13:14:35Z</time>
      </trkpt>
      <trkpt lat="54.971766974776983" lon="26.486092004925013">
        <ele>186.63</ele>
        <time>2011-08-17T13:14:42Z</time>
      </trkpt>
      <trkpt lat="54.971927991136909" lon="26.486402973532677">
        <ele>186.15000000000001</ele>
        <time>2011-08-17T13:14:49Z</time>
      </trkpt>
      <trkpt lat="54.971962021663785" lon="26.486425017938018">
        <ele>185.66999999999999</ele>
        <time>2011-08-17T13:14:50Z</time>
      </trkpt>
      <trkpt lat="54.972186991944909" lon="26.486520990729332">
        <ele>185.19</ele>
        <time>2011-08-17T13:15:00Z</time>
      </trkpt>
      <trkpt lat="54.972197972238064" lon="26.486520990729332">
        <ele>184.71000000000001</ele>
        <time>2011-08-17T13:15:06Z</time>
      </trkpt>
      <trkpt lat="54.972279025241733" lon="26.486525014042854">
        <ele>184.71000000000001</ele>
        <time>2011-08-17T13:15:10Z</time>
      </trkpt>
      <trkpt lat="54.972435012459755" lon="26.486540017649531">
        <ele>184.22999999999999</ele>
        <time>2011-08-17T13:15:15Z</time>
      </trkpt>
      <trkpt lat="54.972694013267756" lon="26.486511016264558">
        <ele>183.75</ele>
        <time>2011-08-17T13:15:24Z</time>
      </trkpt>
      <trkpt lat="54.972908003255725" lon="26.486619981005788">
        <ele>183.27000000000001</ele>
        <time>2011-08-17T13:15:31Z</time>
      </trkpt>
      <trkpt lat="54.973216960206628" lon="26.486934972926974">
        <ele>183.75</ele>
        <time>2011-08-17T13:15:41Z</time>
      </trkpt>
      <trkpt lat="54.973286027088761" lon="26.487087020650506">
        <ele>182.78999999999999</ele>
        <time>2011-08-17T13:15:44Z</time>
      </trkpt>
      <trkpt lat="54.973437990993261" lon="26.487437970936298">
        <ele>181.83000000000001</ele>
        <time>2011-08-17T13:15:51Z</time>
      </trkpt>
      <trkpt lat="54.973609987646341" lon="26.487837033346295">
        <ele>182.31</ele>
        <time>2011-08-17T13:15:58Z</time>
      </trkpt>
      <trkpt lat="54.973807968199253" lon="26.488460982218385">
        <ele>181.34999999999999</ele>
        <time>2011-08-17T13:16:08Z</time>
      </trkpt>
      <trkpt lat="54.974033022299409" lon="26.488946964964271">
        <ele>181.34999999999999</ele>
        <time>2011-08-17T13:16:17Z</time>
      </trkpt>
      <trkpt lat="54.974392019212246" lon="26.489443005993962">
        <ele>181.83000000000001</ele>
        <time>2011-08-17T13:16:28Z</time>
      </trkpt>
      <trkpt lat="54.974513975903392" lon="26.489650961011648">
        <ele>181.83000000000001</ele>
        <time>2011-08-17T13:16:32Z</time>
      </trkpt>
      <trkpt lat="54.974746992811561" lon="26.490056980401278">
        <ele>181.83000000000001</ele>
        <time>2011-08-17T13:16:42Z</time>
      </trkpt>
      <trkpt lat="54.974754033610225" lon="26.490071984007955">
        <ele>182.31</ele>
        <time>2011-08-17T13:16:49Z</time>
      </trkpt>
      <trkpt lat="54.974814970046282" lon="26.49023400619626">
        <ele>181.34999999999999</ele>
        <time>2011-08-17T13:16:59Z</time>
      </trkpt>
      <trkpt lat="54.97491798363626" lon="26.49038496427238">
        <ele>181.83000000000001</ele>
        <time>2011-08-17T13:17:03Z</time>
      </trkpt>
      <trkpt lat="54.975128034129739" lon="26.490764999762177">
        <ele>181.83000000000001</ele>
        <time>2011-08-17T13:17:12Z</time>
      </trkpt>
      <trkpt lat="54.975375970825553" lon="26.491127014160156">
        <ele>181.34999999999999</ele>
        <time>2011-08-17T13:17:20Z</time>
      </trkpt>
      <trkpt lat="54.975436991080642" lon="26.491287024691701">
        <ele>181.83000000000001</ele>
        <time>2011-08-17T13:17:23Z</time>
      </trkpt>
      <trkpt lat="54.975632037967443" lon="26.491705030202866">
        <ele>181.34999999999999</ele>
        <time>2011-08-17T13:17:33Z</time>
      </trkpt>
      <trkpt lat="54.975749971345067" lon="26.491897981613874">
        <ele>180.87</ele>
        <time>2011-08-17T13:17:42Z</time>
      </trkpt>
      <trkpt lat="54.975768998265266" lon="26.491925977170467">
        <ele>181.34999999999999</ele>
        <time>2011-08-17T13:17:43Z</time>
      </trkpt>
      <trkpt lat="54.975876035168767" lon="26.492154970765114">
        <ele>180.87</ele>
        <time>2011-08-17T13:17:49Z</time>
      </trkpt>
      <trkpt lat="54.975963961333036" lon="26.492417994886637">
        <ele>180.87</ele>
        <time>2011-08-17T13:17:56Z</time>
      </trkpt>
      <trkpt lat="54.976063035428524" lon="26.492806999012828">
        <ele>179.90000000000001</ele>
        <time>2011-08-17T13:18:03Z</time>
      </trkpt>
      <trkpt lat="54.97616202570498" lon="26.493372023105621">
        <ele>178.46000000000001</ele>
        <time>2011-08-17T13:18:16Z</time>
      </trkpt>
      <trkpt lat="54.97616202570498" lon="26.493533961474895">
        <ele>177.5</ele>
        <time>2011-08-17T13:18:27Z</time>
      </trkpt>
      <trkpt lat="54.976169988512993" lon="26.493689026683569">
        <ele>177.5</ele>
        <time>2011-08-17T13:18:31Z</time>
      </trkpt>
      <trkpt lat="54.976177029311657" lon="26.493847025558352">
        <ele>177.97999999999999</ele>
        <time>2011-08-17T13:18:35Z</time>
      </trkpt>
      <trkpt lat="54.976123971864581" lon="26.494261007755995">
        <ele>177.97999999999999</ele>
        <time>2011-08-17T13:18:44Z</time>
      </trkpt>
      <trkpt lat="54.976092958822846" lon="26.494445996358991">
        <ele>177.5</ele>
        <time>2011-08-17T13:18:55Z</time>
      </trkpt>
      <trkpt lat="54.976096982136369" lon="26.494456976652145">
        <ele>177.02000000000001</ele>
        <time>2011-08-17T13:19:18Z</time>
      </trkpt>
      <trkpt lat="54.976096982136369" lon="26.494456976652145">
        <ele>177.5</ele>
        <time>2011-08-17T13:19:24Z</time>
      </trkpt>
      <trkpt lat="54.976066974923015" lon="26.494584968313575">
        <ele>177.97999999999999</ele>
        <time>2011-08-17T13:19:36Z</time>
      </trkpt>
      <trkpt lat="54.976066974923015" lon="26.494618998840451">
        <ele>177.5</ele>
        <time>2011-08-17T13:19:55Z</time>
      </trkpt>
      <trkpt lat="54.976059012115002" lon="26.494643976911902">
        <ele>177.02000000000001</ele>
        <time>2011-08-17T13:20:10Z</time>
      </trkpt>
      <trkpt lat="54.976054988801479" lon="26.494648000225425">
        <ele>176.53999999999999</ele>
        <time>2011-08-17T13:20:23Z</time>
      </trkpt>
      <trkpt lat="54.976054988801479" lon="26.494648000225425">
        <ele>177.02000000000001</ele>
        <time>2011-08-17T13:20:46Z</time>
      </trkpt>
      <trkpt lat="54.976059012115002" lon="26.494652023538947">
        <ele>176.53999999999999</ele>
        <time>2011-08-17T13:21:10Z</time>
      </trkpt>
      <trkpt lat="54.976054988801479" lon="26.494672978296876">
        <ele>176.53999999999999</ele>
        <time>2011-08-17T13:21:39Z</time>
      </trkpt>
      <trkpt lat="54.976054988801479" lon="26.494672978296876">
        <ele>177.02000000000001</ele>
        <time>2011-08-17T13:22:09Z</time>
      </trkpt>
      <trkpt lat="54.976048031821847" lon="26.494698040187359">
        <ele>177.5</ele>
        <time>2011-08-17T13:22:27Z</time>
      </trkpt>
      <trkpt lat="54.976059012115002" lon="26.494714971631765">
        <ele>177.02000000000001</ele>
        <time>2011-08-17T13:22:40Z</time>
      </trkpt>
      <trkpt lat="54.976059012115002" lon="26.494711032137275">
        <ele>176.53999999999999</ele>
        <time>2011-08-17T13:22:56Z</time>
      </trkpt>
      <trkpt lat="54.976059012115002" lon="26.494726035743952">
        <ele>177.02000000000001</ele>
        <time>2011-08-17T13:23:09Z</time>
      </trkpt>
      <trkpt lat="54.976054988801479" lon="26.494726035743952">
        <ele>177.02000000000001</ele>
        <time>2011-08-17T13:23:27Z</time>
      </trkpt>
      <trkpt lat="54.976050965487957" lon="26.494740033522248">
        <ele>177.5</ele>
        <time>2011-08-17T13:23:48Z</time>
      </trkpt>
      <trkpt lat="54.976032022386789" lon="26.494783032685518">
        <ele>177.5</ele>
        <time>2011-08-17T13:23:59Z</time>
      </trkpt>
      <trkpt lat="54.976027999073267" lon="26.494823014363647">
        <ele>177.5</ele>
        <time>2011-08-17T13:24:11Z</time>
      </trkpt>
      <trkpt lat="54.976024981588125" lon="26.49487498216331">
        <ele>177.5</ele>
        <time>2011-08-17T13:24:29Z</time>
      </trkpt>
      <trkpt lat="54.976032022386789" lon="26.494916975498199">
        <ele>177.5</ele>
        <time>2011-08-17T13:24:32Z</time>
      </trkpt>
      <trkpt lat="54.976048031821847" lon="26.495037004351616">
        <ele>177.5</ele>
        <time>2011-08-17T13:24:39Z</time>
      </trkpt>
      <trkpt lat="54.97603596188128" lon="26.495101964101195">
        <ele>177.5</ele>
        <time>2011-08-17T13:24:54Z</time>
      </trkpt>
      <trkpt lat="54.97603596188128" lon="26.495101964101195">
        <ele>177.5</ele>
        <time>2011-08-17T13:25:20Z</time>
      </trkpt>
      <trkpt lat="54.976032022386789" lon="26.49511001072824">
        <ele>177.5</ele>
        <time>2011-08-17T13:25:24Z</time>
      </trkpt>
      <trkpt lat="54.976032022386789" lon="26.495115039870143">
        <ele>177.5</ele>
        <time>2011-08-17T13:25:34Z</time>
      </trkpt>
      <trkpt lat="54.976027999073267" lon="26.495120991021395">
        <ele>177.97999999999999</ele>
        <time>2011-08-17T13:25:56Z</time>
      </trkpt>
      <trkpt lat="54.976027999073267" lon="26.495123002678156">
        <ele>177.97999999999999</ele>
        <time>2011-08-17T13:26:32Z</time>
      </trkpt>
      <trkpt lat="54.976024981588125" lon="26.495123002678156">
        <ele>177.97999999999999</ele>
        <time>2011-08-17T13:27:01Z</time>
      </trkpt>
      <trkpt lat="54.976024981588125" lon="26.495123002678156">
        <ele>177.97999999999999</ele>
        <time>2011-08-17T13:27:33Z</time>
      </trkpt>
      <trkpt lat="54.976020958274603" lon="26.495129037648439">
        <ele>177.5</ele>
        <time>2011-08-17T13:28:07Z</time>
      </trkpt>
      <trkpt lat="54.976024981588125" lon="26.495129037648439">
        <ele>178.46000000000001</ele>
        <time>2011-08-17T13:28:37Z</time>
      </trkpt>
      <trkpt lat="54.976024981588125" lon="26.495130965486169">
        <ele>177.97999999999999</ele>
        <time>2011-08-17T13:29:10Z</time>
      </trkpt>
      <trkpt lat="54.976020958274603" lon="26.495123002678156">
        <ele>178.46000000000001</ele>
        <time>2011-08-17T13:29:47Z</time>
      </trkpt>
      <trkpt lat="54.976020958274603" lon="26.495120991021395">
        <ele>178.46000000000001</ele>
        <time>2011-08-17T13:30:21Z</time>
      </trkpt>
      <trkpt lat="54.976020958274603" lon="26.495120991021395">
        <ele>178.46000000000001</ele>
        <time>2011-08-17T13:30:49Z</time>
      </trkpt>
      <trkpt lat="54.976020958274603" lon="26.495118979364634">
        <ele>178.94</ele>
        <time>2011-08-17T13:31:22Z</time>
      </trkpt>
      <trkpt lat="54.976020958274603" lon="26.495118979364634">
        <ele>178.94</ele>
        <time>2011-08-17T13:31:53Z</time>
      </trkpt>
      <trkpt lat="54.976017018780112" lon="26.495120991021395">
        <ele>178.46000000000001</ele>
        <time>2011-08-17T13:32:31Z</time>
      </trkpt>
      <trkpt lat="54.97601299546659" lon="26.495130965486169">
        <ele>178.46000000000001</ele>
        <time>2011-08-17T13:33:11Z</time>
      </trkpt>
      <trkpt lat="54.976020958274603" lon="26.495130965486169">
        <ele>178.94</ele>
        <time>2011-08-17T13:33:48Z</time>
      </trkpt>
      <trkpt lat="54.976017018780112" lon="26.495127025991678">
        <ele>178.94</ele>
        <time>2011-08-17T13:34:24Z</time>
      </trkpt>
      <trkpt lat="54.976017018780112" lon="26.495123002678156">
        <ele>179.41999999999999</ele>
        <time>2011-08-17T13:34:57Z</time>
      </trkpt>
      <trkpt lat="54.976017018780112" lon="26.495123002678156">
        <ele>178.94</ele>
        <time>2011-08-17T13:35:32Z</time>
      </trkpt>
      <trkpt lat="54.976017018780112" lon="26.495120991021395">
        <ele>178.46000000000001</ele>
        <time>2011-08-17T13:36:03Z</time>
      </trkpt>
      <trkpt lat="54.976017018780112" lon="26.495130965486169">
        <ele>179.41999999999999</ele>
        <time>2011-08-17T13:36:31Z</time>
      </trkpt>
      <trkpt lat="54.97601299546659" lon="26.495135994628072">
        <ele>179.41999999999999</ele>
        <time>2011-08-17T13:37:06Z</time>
      </trkpt>
      <trkpt lat="54.976006038486958" lon="26.495158961042762">
        <ele>179.90000000000001</ele>
        <time>2011-08-17T13:37:37Z</time>
      </trkpt>
      <trkpt lat="54.976006038486958" lon="26.495158961042762">
        <ele>178.94</ele>
        <time>2011-08-17T13:38:06Z</time>
      </trkpt>
      <trkpt lat="54.976002015173435" lon="26.495160972699523">
        <ele>179.41999999999999</ele>
        <time>2011-08-17T13:38:40Z</time>
      </trkpt>
      <trkpt lat="54.976006038486958" lon="26.495155021548271">
        <ele>178.94</ele>
        <time>2011-08-17T13:39:13Z</time>
      </trkpt>
      <trkpt lat="54.976024981588125" lon="26.495197014883161">
        <ele>179.41999999999999</ele>
        <time>2011-08-17T13:39:36Z</time>
      </trkpt>
      <trkpt lat="54.976020958274603" lon="26.495204977691174">
        <ele>179.41999999999999</ele>
        <time>2011-08-17T13:39:56Z</time>
      </trkpt>
      <trkpt lat="54.976032022386789" lon="26.495263986289501">
        <ele>178.94</ele>
        <time>2011-08-17T13:40:08Z</time>
      </trkpt>
      <trkpt lat="54.976032022386789" lon="26.495263986289501">
        <ele>174.62</ele>
        <time>2011-08-17T13:40:26Z</time>
      </trkpt>
      <trkpt lat="54.976032022386789" lon="26.495263986289501">
        <ele>177.5</ele>
        <time>2011-08-17T13:40:27Z</time>
      </trkpt>
      <trkpt lat="54.976032022386789" lon="26.495263986289501">
        <ele>172.69</ele>
        <time>2011-08-17T13:40:28Z</time>
      </trkpt>
      <trkpt lat="54.976032022386789" lon="26.495263986289501">
        <ele>179.90000000000001</ele>
        <time>2011-08-17T13:40:30Z</time>
      </trkpt>
      <trkpt lat="54.976032022386789" lon="26.495263986289501">
        <ele>173.66</ele>
        <time>2011-08-17T13:40:31Z</time>
      </trkpt>
      <trkpt lat="54.976032022386789" lon="26.495263986289501">
        <ele>180.38</ele>
        <time>2011-08-17T13:40:33Z</time>
      </trkpt>
      <trkpt lat="54.976032022386789" lon="26.495263986289501">
        <ele>179.41999999999999</ele>
        <time>2011-08-17T13:40:34Z</time>
      </trkpt>
      <trkpt lat="54.976032022386789" lon="26.49526197463274">
        <ele>179.41999999999999</ele>
        <time>2011-08-17T13:41:06Z</time>
      </trkpt>
      <trkpt lat="54.976039985194802" lon="26.495265997946262">
        <ele>179.41999999999999</ele>
        <time>2011-08-17T13:41:41Z</time>
      </trkpt>
      <trkpt lat="54.976039985194802" lon="26.495265997946262">
        <ele>179.41999999999999</ele>
        <time>2011-08-17T13:41:49Z</time>
      </trkpt>
      <trkpt lat="54.97603596188128" lon="26.495331041514874">
        <ele>180.38</ele>
        <time>2011-08-17T13:41:52Z</time>
      </trkpt>
      <trkpt lat="54.976027999073267" lon="26.495791962370276">
        <ele>179.41999999999999</ele>
        <time>2011-08-17T13:42:02Z</time>
      </trkpt>
      <trkpt lat="54.97603596188128" lon="26.495831022039056">
        <ele>179.41999999999999</ele>
        <time>2011-08-17T13:42:03Z</time>
      </trkpt>
      <trkpt lat="54.976078039035201" lon="26.495903022587299">
        <ele>179.41999999999999</ele>
        <time>2011-08-17T13:42:07Z</time>
      </trkpt>
      <trkpt lat="54.976177029311657" lon="26.49605599232018">
        <ele>179.41999999999999</ele>
        <time>2011-08-17T13:42:20Z</time>
      </trkpt>
      <trkpt lat="54.976237965747714" lon="26.496081976220012">
        <ele>179.41999999999999</ele>
        <time>2011-08-17T13:42:30Z</time>
      </trkpt>
      <trkpt lat="54.976241989061236" lon="26.496110977604985">
        <ele>179.41999999999999</ele>
        <time>2011-08-17T13:42:44Z</time>
      </trkpt>
      <trkpt lat="54.976241989061236" lon="26.496110977604985">
        <ele>179.41999999999999</ele>
        <time>2011-08-17T13:42:45Z</time>
      </trkpt>
      <trkpt lat="54.976276019588113" lon="26.496156994253397">
        <ele>179.41999999999999</ele>
        <time>2011-08-17T13:42:48Z</time>
      </trkpt>
      <trkpt lat="54.976371992379427" lon="26.496222037822008">
        <ele>179.41999999999999</ele>
        <time>2011-08-17T13:42:55Z</time>
      </trkpt>
      <trkpt lat="54.976626969873905" lon="26.496607018634677">
        <ele>180.87</ele>
        <time>2011-08-17T13:43:06Z</time>
      </trkpt>
      <trkpt lat="54.977076994255185" lon="26.497093001380563">
        <ele>180.87</ele>
        <time>2011-08-17T13:43:21Z</time>
      </trkpt>
      <trkpt lat="54.9775580316782" lon="26.497267009690404">
        <ele>182.78999999999999</ele>
        <time>2011-08-17T13:43:37Z</time>
      </trkpt>
      <trkpt lat="54.97803496196866" lon="26.49738703854382">
        <ele>183.75</ele>
        <time>2011-08-17T13:43:53Z</time>
      </trkpt>
      <trkpt lat="54.978541983291507" lon="26.497447974979877">
        <ele>183.27000000000001</ele>
        <time>2011-08-17T13:44:08Z</time>
      </trkpt>
      <trkpt lat="54.979092003777623" lon="26.49760102853179">
        <ele>182.31</ele>
        <time>2011-08-17T13:44:24Z</time>
      </trkpt>
      <trkpt lat="54.979511015117168" lon="26.4977300260216">
        <ele>182.31</ele>
        <time>2011-08-17T13:44:35Z</time>
      </trkpt>
      <trkpt lat="54.979614028707147" lon="26.497829016298056">
        <ele>182.78999999999999</ele>
        <time>2011-08-17T13:44:39Z</time>
      </trkpt>
      <trkpt lat="54.979816032573581" lon="26.498116012662649">
        <ele>183.75</ele>
        <time>2011-08-17T13:44:50Z</time>
      </trkpt>
      <trkpt lat="54.979979982599616" lon="26.498316004872322">
        <ele>183.75</ele>
        <time>2011-08-17T13:44:58Z</time>
      </trkpt>
      <trkpt lat="54.980129012838006" lon="26.498552039265633">
        <ele>184.22999999999999</ele>
        <time>2011-08-17T13:45:08Z</time>
      </trkpt>
      <trkpt lat="54.980163965374231" lon="26.498609958216548">
        <ele>184.22999999999999</ele>
        <time>2011-08-17T13:45:11Z</time>
      </trkpt>
      <trkpt lat="54.980308972299099" lon="26.498872982338071">
        <ele>183.75</ele>
        <time>2011-08-17T13:45:24Z</time>
      </trkpt>
      <trkpt lat="54.980633016675711" lon="26.499286964535713">
        <ele>184.22999999999999</ele>
        <time>2011-08-17T13:45:34Z</time>
      </trkpt>
      <trkpt lat="54.980968041345477" lon="26.499598016962409">
        <ele>184.22999999999999</ele>
        <time>2011-08-17T13:45:46Z</time>
      </trkpt>
      <trkpt lat="54.98114800080657" lon="26.499811001121998">
        <ele>183.75</ele>
        <time>2011-08-17T13:45:53Z</time>
      </trkpt>
      <trkpt lat="54.981360984966159" lon="26.500064972788095">
        <ele>184.22999999999999</ele>
        <time>2011-08-17T13:46:03Z</time>
      </trkpt>
      <trkpt lat="54.981418987736106" lon="26.500081988051534">
        <ele>183.75</ele>
        <time>2011-08-17T13:46:06Z</time>
      </trkpt>
      <trkpt lat="54.981563994660974" lon="26.500207968056202">
        <ele>183.75</ele>
        <time>2011-08-17T13:46:13Z</time>
      </trkpt>
      <trkpt lat="54.981628032401204" lon="26.500253984704614">
        <ele>183.75</ele>
        <time>2011-08-17T13:46:15Z</time>
      </trkpt>
      <trkpt lat="54.981796005740762" lon="26.500279968604445">
        <ele>183.75</ele>
        <time>2011-08-17T13:46:23Z</time>
      </trkpt>
      <trkpt lat="54.98207101598382" lon="26.500463029369712">
        <ele>183.75</ele>
        <time>2011-08-17T13:46:33Z</time>
      </trkpt>
      <trkpt lat="54.982322975993156" lon="26.500664027407765">
        <ele>183.75</ele>
        <time>2011-08-17T13:46:43Z</time>
      </trkpt>
      <trkpt lat="54.982497990131378" lon="26.500807022675872">
        <ele>184.71000000000001</ele>
        <time>2011-08-17T13:46:49Z</time>
      </trkpt>
      <trkpt lat="54.982807030901313" lon="26.501053031533957">
        <ele>185.19</ele>
        <time>2011-08-17T13:47:02Z</time>
      </trkpt>
      <trkpt lat="54.982819017022848" lon="26.501046996563673">
        <ele>184.71000000000001</ele>
        <time>2011-08-17T13:47:06Z</time>
      </trkpt>
      <trkpt lat="54.982985984534025" lon="26.501137018203735">
        <ele>183.75</ele>
        <time>2011-08-17T13:47:14Z</time>
      </trkpt>
      <trkpt lat="54.983219001442194" lon="26.501337010413408">
        <ele>184.22999999999999</ele>
        <time>2011-08-17T13:47:19Z</time>
      </trkpt>
      <trkpt lat="54.983482025563717" lon="26.501581007614732">
        <ele>184.22999999999999</ele>
        <time>2011-08-17T13:47:25Z</time>
      </trkpt>
      <trkpt lat="54.984050989151001" lon="26.502159023657441">
        <ele>184.22999999999999</ele>
        <time>2011-08-17T13:47:36Z</time>
      </trkpt>
      <trkpt lat="54.984279982745647" lon="26.502507962286472">
        <ele>184.71000000000001</ele>
        <time>2011-08-17T13:47:45Z</time>
      </trkpt>
      <trkpt lat="54.98439397662878" lon="26.502661015838385">
        <ele>185.19</ele>
        <time>2011-08-17T13:47:49Z</time>
      </trkpt>
      <trkpt lat="54.984595980495214" lon="26.50295396335423">
        <ele>185.19</ele>
        <time>2011-08-17T13:47:58Z</time>
      </trkpt>
      <trkpt lat="54.984881971031427" lon="26.503560980781913">
        <ele>182.31</ele>
        <time>2011-08-17T13:48:11Z</time>
      </trkpt>
      <trkpt lat="54.984932010993361" lon="26.503695007413626">
        <ele>182.31</ele>
        <time>2011-08-17T13:48:16Z</time>
      </trkpt>
      <trkpt lat="54.984947014600039" lon="26.503799026831985">
        <ele>181.83000000000001</ele>
        <time>2011-08-17T13:48:21Z</time>
      </trkpt>
      <trkpt lat="54.985031001269817" lon="26.503921989351511">
        <ele>182.31</ele>
        <time>2011-08-17T13:48:26Z</time>
      </trkpt>
      <trkpt lat="54.985114987939596" lon="26.504077976569533">
        <ele>182.31</ele>
        <time>2011-08-17T13:48:30Z</time>
      </trkpt>
      <trkpt lat="54.985161004588008" lon="26.504210997372866">
        <ele>182.78999999999999</ele>
        <time>2011-08-17T13:48:33Z</time>
      </trkpt>
      <trkpt lat="54.985195035114884" lon="26.504365978762507">
        <ele>182.31</ele>
        <time>2011-08-17T13:48:37Z</time>
      </trkpt>
      <trkpt lat="54.985259994864464" lon="26.504668984562159">
        <ele>181.83000000000001</ele>
        <time>2011-08-17T13:48:47Z</time>
      </trkpt>
      <trkpt lat="54.985306011512876" lon="26.504880962893367">
        <ele>181.34999999999999</ele>
        <time>2011-08-17T13:48:53Z</time>
      </trkpt>
      <trkpt lat="54.985599964857101" lon="26.505214981734753">
        <ele>182.31</ele>
        <time>2011-08-17T13:49:05Z</time>
      </trkpt>
      <trkpt lat="54.986018976196647" lon="26.505605997517705">
        <ele>182.31</ele>
        <time>2011-08-17T13:49:18Z</time>
      </trkpt>
      <trkpt lat="54.986332040280104" lon="26.50583297945559">
        <ele>181.34999999999999</ele>
        <time>2011-08-17T13:49:29Z</time>
      </trkpt>
      <trkpt lat="54.986748034134507" lon="26.506188958883286">
        <ele>181.34999999999999</ele>
        <time>2011-08-17T13:49:41Z</time>
      </trkpt>
      <trkpt lat="54.987166961655021" lon="26.506190970540047">
        <ele>181.83000000000001</ele>
        <time>2011-08-17T13:49:52Z</time>
      </trkpt>
      <trkpt lat="54.987362008541822" lon="26.506116958335042">
        <ele>180.87</ele>
        <time>2011-08-17T13:50:03Z</time>
      </trkpt>
      <trkpt lat="54.987601982429624" lon="26.506039006635547">
        <ele>180.87</ele>
        <time>2011-08-17T13:50:15Z</time>
      </trkpt>
      <trkpt lat="54.987960979342461" lon="26.505882013589144">
        <ele>181.34999999999999</ele>
        <time>2011-08-17T13:50:30Z</time>
      </trkpt>
      <trkpt lat="54.988316036760807" lon="26.505778999999166">
        <ele>181.34999999999999</ele>
        <time>2011-08-17T13:50:42Z</time>
      </trkpt>
      <trkpt lat="54.988826997578144" lon="26.505528967827559">
        <ele>180.38</ele>
        <time>2011-08-17T13:50:56Z</time>
      </trkpt>
      <trkpt lat="54.989272998645902" lon="26.505295028910041">
        <ele>180.87</ele>
        <time>2011-08-17T13:51:08Z</time>
      </trkpt>
      <trkpt lat="54.989754036068916" lon="26.50531598366797">
        <ele>181.34999999999999</ele>
        <time>2011-08-17T13:51:19Z</time>
      </trkpt>
      <trkpt lat="54.989883033558726" lon="26.50537901557982">
        <ele>181.83000000000001</ele>
        <time>2011-08-17T13:51:22Z</time>
      </trkpt>
      <trkpt lat="54.990535983815789" lon="26.505830967798829">
        <ele>183.27000000000001</ele>
        <time>2011-08-17T13:51:40Z</time>
      </trkpt>
      <trkpt lat="54.990954995155334" lon="26.506172027438879">
        <ele>184.22999999999999</ele>
        <time>2011-08-17T13:51:54Z</time>
      </trkpt>
      <trkpt lat="54.991562012583017" lon="26.50673302821815">
        <ele>183.27000000000001</ele>
        <time>2011-08-17T13:52:11Z</time>
      </trkpt>
      <trkpt lat="54.991599982604384" lon="26.50677502155304">
        <ele>183.27000000000001</ele>
        <time>2011-08-17T13:52:12Z</time>
      </trkpt>
      <trkpt lat="54.992301966995001" lon="26.507523022592068">
        <ele>181.34999999999999</ele>
        <time>2011-08-17T13:52:29Z</time>
      </trkpt>
      <trkpt lat="54.993106964975595" lon="26.508309999480844">
        <ele>179.41999999999999</ele>
        <time>2011-08-17T13:52:46Z</time>
      </trkpt>
      <trkpt lat="54.993209978565574" lon="26.50840999558568">
        <ele>179.41999999999999</ele>
        <time>2011-08-17T13:52:48Z</time>
      </trkpt>
      <trkpt lat="54.993598982691765" lon="26.508785001933575">
        <ele>179.41999999999999</ele>
        <time>2011-08-17T13:52:57Z</time>
      </trkpt>
      <trkpt lat="54.994308007881045" lon="26.509166965261102">
        <ele>179.41999999999999</ele>
        <time>2011-08-17T13:53:14Z</time>
      </trkpt>
      <trkpt lat="54.994785021990538" lon="26.509370980784297">
        <ele>179.90000000000001</ele>
        <time>2011-08-17T13:53:25Z</time>
      </trkpt>
      <trkpt lat="54.995524976402521" lon="26.50942001491785">
        <ele>181.83000000000001</ele>
        <time>2011-08-17T13:53:43Z</time>
      </trkpt>
      <trkpt lat="54.996021017432213" lon="26.50937701575458">
        <ele>182.31</ele>
        <time>2011-08-17T13:53:57Z</time>
      </trkpt>
      <trkpt lat="54.996799025684595" lon="26.509266039356589">
        <ele>181.34999999999999</ele>
        <time>2011-08-17T13:54:16Z</time>
      </trkpt>
      <trkpt lat="54.997463040053844" lon="26.509132012724876">
        <ele>180.38</ele>
        <time>2011-08-17T13:54:31Z</time>
      </trkpt>
      <trkpt lat="54.997520036995411" lon="26.509121032431722">
        <ele>179.41999999999999</ele>
        <time>2011-08-17T13:54:32Z</time>
      </trkpt>
      <trkpt lat="54.998115990310907" lon="26.509003015235066">
        <ele>179.41999999999999</ele>
        <time>2011-08-17T13:54:44Z</time>
      </trkpt>
      <trkpt lat="54.998198971152306" lon="26.508996980264783">
        <ele>179.41999999999999</ele>
        <time>2011-08-17T13:54:46Z</time>
      </trkpt>
      <trkpt lat="54.998924005776644" lon="26.508921040222049">
        <ele>179.41999999999999</ele>
        <time>2011-08-17T13:55:02Z</time>
      </trkpt>
      <trkpt lat="54.999359026551247" lon="26.508883992210031">
        <ele>180.87</ele>
        <time>2011-08-17T13:55:13Z</time>
      </trkpt>
      <trkpt lat="54.999702014029026" lon="26.508895978331566">
        <ele>182.31</ele>
        <time>2011-08-17T13:55:23Z</time>
      </trkpt>
      <trkpt lat="54.999992027878761" lon="26.509405011311173">
        <ele>183.75</ele>
        <time>2011-08-17T13:55:36Z</time>
      </trkpt>
      <trkpt lat="55.000347001478076" lon="26.510513015091419">
        <ele>184.22999999999999</ele>
        <time>2011-08-17T13:55:54Z</time>
      </trkpt>
      <trkpt lat="55.000793002545834" lon="26.511470982804894">
        <ele>185.19</ele>
        <time>2011-08-17T13:56:11Z</time>
      </trkpt>
      <trkpt lat="55.001288959756494" lon="26.512524001300335">
        <ele>183.75</ele>
        <time>2011-08-17T13:56:28Z</time>
      </trkpt>
      <trkpt lat="55.001708976924419" lon="26.513609038665891">
        <ele>180.87</ele>
        <time>2011-08-17T13:56:42Z</time>
      </trkpt>
      <trkpt lat="55.00183898024261" lon="26.514218989759684">
        <ele>180.38</ele>
        <time>2011-08-17T13:56:50Z</time>
      </trkpt>
      <trkpt lat="55.001858007162809" lon="26.514377994462848">
        <ele>180.87</ele>
        <time>2011-08-17T13:56:52Z</time>
      </trkpt>
      <trkpt lat="55.001888014376163" lon="26.514673037454486">
        <ele>180.38</ele>
        <time>2011-08-17T13:56:56Z</time>
      </trkpt>
      <trkpt lat="55.002033021301031" lon="26.515781041234732">
        <ele>181.34999999999999</ele>
        <time>2011-08-17T13:57:11Z</time>
      </trkpt>
      <trkpt lat="55.002253968268633" lon="26.516761975362897">
        <ele>181.83000000000001</ele>
        <time>2011-08-17T13:57:26Z</time>
      </trkpt>
      <trkpt lat="55.002583041787148" lon="26.517649032175541">
        <ele>183.75</ele>
        <time>2011-08-17T13:57:42Z</time>
      </trkpt>
      <trkpt lat="55.002963999286294" lon="26.518527958542109">
        <ele>184.71000000000001</ele>
        <time>2011-08-17T13:57:59Z</time>
      </trkpt>
      <trkpt lat="55.003146976232529" lon="26.51889399625361">
        <ele>184.22999999999999</ele>
        <time>2011-08-17T13:58:06Z</time>
      </trkpt>
      <trkpt lat="55.003653997555375" lon="26.519749034196138">
        <ele>181.34999999999999</ele>
        <time>2011-08-17T13:58:20Z</time>
      </trkpt>
      <trkpt lat="55.003795986995101" lon="26.519979033619165">
        <ele>180.87</ele>
        <time>2011-08-17T13:58:24Z</time>
      </trkpt>
      <trkpt lat="55.003921966999769" lon="26.52020500972867">
        <ele>180.87</ele>
        <time>2011-08-17T13:58:28Z</time>
      </trkpt>
      <trkpt lat="55.004050964489579" lon="26.520417993888259">
        <ele>180.87</ele>
        <time>2011-08-17T13:58:32Z</time>
      </trkpt>
      <trkpt lat="55.004208041355014" lon="26.520671965554357">
        <ele>181.34999999999999</ele>
        <time>2011-08-17T13:58:37Z</time>
      </trkpt>
      <trkpt lat="55.004795026034117" lon="26.521525997668505">
        <ele>181.83000000000001</ele>
        <time>2011-08-17T13:58:54Z</time>
      </trkpt>
      <trkpt lat="55.005070036277175" lon="26.521877031773329">
        <ele>181.83000000000001</ele>
        <time>2011-08-17T13:59:01Z</time>
      </trkpt>
      <trkpt lat="55.005344040691853" lon="26.522079035639763">
        <ele>183.27000000000001</ele>
        <time>2011-08-17T13:59:08Z</time>
      </trkpt>
      <trkpt lat="55.005603963509202" lon="26.522195963189006">
        <ele>182.78999999999999</ele>
        <time>2011-08-17T13:59:14Z</time>
      </trkpt>
      <trkpt lat="55.006046025082469" lon="26.52237500064075">
        <ele>183.27000000000001</ele>
        <time>2011-08-17T13:59:24Z</time>
      </trkpt>
      <trkpt lat="55.00622196123004" lon="26.522421017289162">
        <ele>182.78999999999999</ele>
        <time>2011-08-17T13:59:28Z</time>
      </trkpt>
      <trkpt lat="55.006767036393285" lon="26.522579016163945">
        <ele>184.22999999999999</ele>
        <time>2011-08-17T13:59:43Z</time>
      </trkpt>
      <trkpt lat="55.007523000240326" lon="26.522799041122198">
        <ele>186.15000000000001</ele>
        <time>2011-08-17T14:00:04Z</time>
      </trkpt>
      <trkpt lat="55.007946034893394" lon="26.522918986156583">
        <ele>186.15000000000001</ele>
        <time>2011-08-17T14:00:18Z</time>
      </trkpt>
      <trkpt lat="55.008522039279342" lon="26.523076985031366">
        <ele>188.08000000000001</ele>
        <time>2011-08-17T14:00:36Z</time>
      </trkpt>
      <trkpt lat="55.00897197984159" lon="26.523199025541544">
        <ele>190.47999999999999</ele>
        <time>2011-08-17T14:00:51Z</time>
      </trkpt>
      <trkpt lat="55.009335000067949" lon="26.523303966969252">
        <ele>191.44</ele>
        <time>2011-08-17T14:01:05Z</time>
      </trkpt>
      <trkpt lat="55.009719980880618" lon="26.523478981107473">
        <ele>191.44</ele>
        <time>2011-08-17T14:01:17Z</time>
      </trkpt>
      <trkpt lat="55.010204035788774" lon="26.523866979405284">
        <ele>193.36000000000001</ele>
        <time>2011-08-17T14:01:32Z</time>
      </trkpt>
      <trkpt lat="55.010780040174723" lon="26.52432999573648">
        <ele>192.88</ele>
        <time>2011-08-17T14:01:49Z</time>
      </trkpt>
      <trkpt lat="55.011005010455847" lon="26.52450199238956">
        <ele>192.88</ele>
        <time>2011-08-17T14:01:55Z</time>
      </trkpt>
      <trkpt lat="55.011078016832471" lon="26.524563012644649">
        <ele>192.40000000000001</ele>
        <time>2011-08-17T14:01:57Z</time>
      </trkpt>
      <trkpt lat="55.01163499429822" lon="26.525075985118747">
        <ele>193.36000000000001</ele>
        <time>2011-08-17T14:02:13Z</time>
      </trkpt>
      <trkpt lat="55.012115025892854" lon="26.525763971731067">
        <ele>195.28</ele>
        <time>2011-08-17T14:02:31Z</time>
      </trkpt>
      <trkpt lat="55.01251601614058" lon="26.526423962786794">
        <ele>196.25</ele>
        <time>2011-08-17T14:02:47Z</time>
      </trkpt>
      <trkpt lat="55.012954976409674" lon="26.526999967172742">
        <ele>196.72999999999999</ele>
        <time>2011-08-17T14:03:03Z</time>
      </trkpt>
      <trkpt lat="55.013385973870754" lon="26.527287969365716">
        <ele>198.16999999999999</ele>
        <time>2011-08-17T14:03:16Z</time>
      </trkpt>
      <trkpt lat="55.013969019055367" lon="26.527699017897248">
        <ele>200.56999999999999</ele>
        <time>2011-08-17T14:03:33Z</time>
      </trkpt>
      <trkpt lat="55.014476962387562" lon="26.528008980676532">
        <ele>202.00999999999999</ele>
        <time>2011-08-17T14:03:49Z</time>
      </trkpt>
      <trkpt lat="55.014820033684373" lon="26.528263036161661">
        <ele>203.46000000000001</ele>
        <time>2011-08-17T14:04:02Z</time>
      </trkpt>
      <trkpt lat="55.01485800370574" lon="26.528701996430755">
        <ele>204.41999999999999</ele>
        <time>2011-08-17T14:04:12Z</time>
      </trkpt>
      <trkpt lat="55.014811987057328" lon="26.52970103546977">
        <ele>201.53</ele>
        <time>2011-08-17T14:04:25Z</time>
      </trkpt>
      <trkpt lat="55.014843000099063" lon="26.531011965125799">
        <ele>202.00999999999999</ele>
        <time>2011-08-17T14:04:39Z</time>
      </trkpt>
      <trkpt lat="55.014847023412585" lon="26.531094023957849">
        <ele>201.53</ele>
        <time>2011-08-17T14:04:40Z</time>
      </trkpt>
      <trkpt lat="55.014889016747475" lon="26.531364005059004">
        <ele>201.05000000000001</ele>
        <time>2011-08-17T14:04:43Z</time>
      </trkpt>
      <trkpt lat="55.014926986768842" lon="26.532178977504373">
        <ele>197.69</ele>
        <time>2011-08-17T14:04:50Z</time>
      </trkpt>
      <trkpt lat="55.014941990375519" lon="26.532910969108343">
        <ele>195.28</ele>
        <time>2011-08-17T14:04:55Z</time>
      </trkpt>
      <trkpt lat="55.015022037550807" lon="26.533559979870915">
        <ele>193.36000000000001</ele>
        <time>2011-08-17T14:04:59Z</time>
      </trkpt>
      <trkpt lat="55.015381034463644" lon="26.53526502661407">
        <ele>192.40000000000001</ele>
        <time>2011-08-17T14:05:12Z</time>
      </trkpt>
      <trkpt lat="55.015532998368144" lon="26.53625501319766">
        <ele>193.84</ele>
        <time>2011-08-17T14:05:25Z</time>
      </trkpt>
      <trkpt lat="55.015682028606534" lon="26.537077026441693">
        <ele>192.40000000000001</ele>
        <time>2011-08-17T14:05:35Z</time>
      </trkpt>
      <trkpt lat="55.015938011929393" lon="26.538178995251656">
        <ele>195.28</ele>
        <time>2011-08-17T14:05:51Z</time>
      </trkpt>
      <trkpt lat="55.016098022460938" lon="26.539293034002185">
        <ele>193.84</ele>
        <time>2011-08-17T14:06:04Z</time>
      </trkpt>
      <trkpt lat="55.01610598526895" lon="26.539382971823215">
        <ele>193.84</ele>
        <time>2011-08-17T14:06:05Z</time>
      </trkpt>
      <trkpt lat="55.016116965562105" lon="26.539468970149755">
        <ele>193.36000000000001</ele>
        <time>2011-08-17T14:06:06Z</time>
      </trkpt>
      <trkpt lat="55.016120988875628" lon="26.539551028981805">
        <ele>193.84</ele>
        <time>2011-08-17T14:06:07Z</time>
      </trkpt>
      <trkpt lat="55.016208998858929" lon="26.540647968649864">
        <ele>195.77000000000001</ele>
        <time>2011-08-17T14:06:22Z</time>
      </trkpt>
      <trkpt lat="55.016327016055584" lon="26.541451960802078">
        <ele>198.65000000000001</ele>
        <time>2011-08-17T14:06:37Z</time>
      </trkpt>
      <trkpt lat="55.016391975805163" lon="26.541869966313243">
        <ele>198.65000000000001</ele>
        <time>2011-08-17T14:06:48Z</time>
      </trkpt>
      <trkpt lat="55.016388036310673" lon="26.541891004890203">
        <ele>198.65000000000001</ele>
        <time>2011-08-17T14:07:02Z</time>
      </trkpt>
      <trkpt lat="55.016388036310673" lon="26.541895028203726">
        <ele>199.13</ele>
        <time>2011-08-17T14:07:33Z</time>
      </trkpt>
      <trkpt lat="55.016388036310673" lon="26.541895028203726">
        <ele>199.13</ele>
        <time>2011-08-17T14:07:55Z</time>
      </trkpt>
      <trkpt lat="55.016388036310673" lon="26.541898967698216">
        <ele>199.13</ele>
        <time>2011-08-17T14:08:21Z</time>
      </trkpt>
      <trkpt lat="55.01640303991735" lon="26.541903996840119">
        <ele>201.53</ele>
        <time>2011-08-17T14:08:43Z</time>
      </trkpt>
      <trkpt lat="55.01640303991735" lon="26.541903996840119">
        <ele>199.61000000000001</ele>
        <time>2011-08-17T14:09:14Z</time>
      </trkpt>
      <trkpt lat="55.01640303991735" lon="26.541906008496881">
        <ele>199.61000000000001</ele>
        <time>2011-08-17T14:09:39Z</time>
      </trkpt>
      <trkpt lat="55.016411002725363" lon="26.541922017931938">
        <ele>199.61000000000001</ele>
        <time>2011-08-17T14:09:52Z</time>
      </trkpt>
      <trkpt lat="55.016417959704995" lon="26.541940961033106">
        <ele>199.13</ele>
        <time>2011-08-17T14:09:53Z</time>
      </trkpt>
      <trkpt lat="55.01642600633204" lon="26.541964011266828">
        <ele>199.61000000000001</ele>
        <time>2011-08-17T14:09:54Z</time>
      </trkpt>
      <trkpt lat="55.016562966629863" lon="26.542568011209369">
        <ele>201.05000000000001</ele>
        <time>2011-08-17T14:10:08Z</time>
      </trkpt>
      <trkpt lat="55.016804030165076" lon="26.543333027511835">
        <ele>202.97999999999999</ele>
        <time>2011-08-17T14:10:24Z</time>
      </trkpt>
      <trkpt lat="55.017169984057546" lon="26.544000981375575">
        <ele>204.41999999999999</ele>
        <time>2011-08-17T14:10:40Z</time>
      </trkpt>
      <trkpt lat="55.017585977911949" lon="26.544701037928462">
        <ele>203.94</ele>
        <time>2011-08-17T14:10:56Z</time>
      </trkpt>
      <trkpt lat="55.01814303919673" lon="26.545781968161464">
        <ele>201.53</ele>
        <time>2011-08-17T14:11:14Z</time>
      </trkpt>
      <trkpt lat="55.018737986683846" lon="26.546839009970427">
        <ele>200.56999999999999</ele>
        <time>2011-08-17T14:11:31Z</time>
      </trkpt>
      <trkpt lat="55.019215000793338" lon="26.547678038477898">
        <ele>202.49000000000001</ele>
        <time>2011-08-17T14:11:48Z</time>
      </trkpt>
      <trkpt lat="55.019653039053082" lon="26.548488987609744">
        <ele>202.00999999999999</ele>
        <time>2011-08-17T14:12:03Z</time>
      </trkpt>
      <trkpt lat="55.019813971593976" lon="26.548774978145957">
        <ele>201.53</ele>
        <time>2011-08-17T14:12:08Z</time>
      </trkpt>
      <trkpt lat="55.020202975720167" lon="26.549387024715543">
        <ele>201.53</ele>
        <time>2011-08-17T14:12:21Z</time>
      </trkpt>
      <trkpt lat="55.020549986511469" lon="26.550076017156243">
        <ele>203.46000000000001</ele>
        <time>2011-08-17T14:12:35Z</time>
      </trkpt>
      <trkpt lat="55.020904960110784" lon="26.550697032362223">
        <ele>204.41999999999999</ele>
        <time>2011-08-17T14:12:49Z</time>
      </trkpt>
      <trkpt lat="55.021312991157174" lon="26.551226014271379">
        <ele>205.38</ele>
        <time>2011-08-17T14:13:03Z</time>
      </trkpt>
      <trkpt lat="55.021465038880706" lon="26.551458025351167">
        <ele>205.38</ele>
        <time>2011-08-17T14:13:08Z</time>
      </trkpt>
      <trkpt lat="55.021992009133101" lon="26.55211097560823">
        <ele>202.97999999999999</ele>
        <time>2011-08-17T14:13:21Z</time>
      </trkpt>
      <trkpt lat="55.022327033802867" lon="26.552681028842926">
        <ele>202.00999999999999</ele>
        <time>2011-08-17T14:13:29Z</time>
      </trkpt>
      <trkpt lat="55.022372966632247" lon="26.552748000249267">
        <ele>202.00999999999999</ele>
        <time>2011-08-17T14:13:30Z</time>
      </trkpt>
      <trkpt lat="55.022880993783474" lon="26.553387036547065">
        <ele>202.00999999999999</ele>
        <time>2011-08-17T14:13:44Z</time>
      </trkpt>
      <trkpt lat="55.02310898154974" lon="26.55367998406291">
        <ele>202.97999999999999</ele>
        <time>2011-08-17T14:13:55Z</time>
      </trkpt>
      <trkpt lat="55.023353984579444" lon="26.554035041481256">
        <ele>206.34</ele>
        <time>2011-08-17T14:14:07Z</time>
      </trkpt>
      <trkpt lat="55.0235600117594" lon="26.554350033402443">
        <ele>209.22</ele>
        <time>2011-08-17T14:14:18Z</time>
      </trkpt>
      <trkpt lat="55.023617008700967" lon="26.554408958181739">
        <ele>210.66999999999999</ele>
        <time>2011-08-17T14:14:21Z</time>
      </trkpt>
      <trkpt lat="55.023632012307644" lon="26.554437959566712">
        <ele>210.66999999999999</ele>
        <time>2011-08-17T14:14:22Z</time>
      </trkpt>
      <trkpt lat="55.023651039227843" lon="26.554464027285576">
        <ele>210.19</ele>
        <time>2011-08-17T14:14:23Z</time>
      </trkpt>
      <trkpt lat="55.023967958986759" lon="26.554907010868192">
        <ele>211.15000000000001</ele>
        <time>2011-08-17T14:14:38Z</time>
      </trkpt>
      <trkpt lat="55.024269036948681" lon="26.555272964760661">
        <ele>209.69999999999999</ele>
        <time>2011-08-17T14:14:48Z</time>
      </trkpt>
      <trkpt lat="55.024494007229805" lon="26.555601032450795">
        <ele>208.74000000000001</ele>
        <time>2011-08-17T14:14:54Z</time>
      </trkpt>
      <trkpt lat="55.024658041074872" lon="26.555929016321898">
        <ele>208.25999999999999</ele>
        <time>2011-08-17T14:14:59Z</time>
      </trkpt>
      <trkpt lat="55.024685030803084" lon="26.555982995778322">
        <ele>208.74000000000001</ele>
        <time>2011-08-17T14:15:00Z</time>
      </trkpt>
      <trkpt lat="55.024974960833788" lon="26.55666503123939">
        <ele>211.63</ele>
        <time>2011-08-17T14:15:13Z</time>
      </trkpt>
      <trkpt lat="55.025268997997046" lon="26.557356035336852">
        <ele>214.03</ele>
        <time>2011-08-17T14:15:30Z</time>
      </trkpt>
      <trkpt lat="55.025496985763311" lon="26.558044021949172">
        <ele>213.55000000000001</ele>
        <time>2011-08-17T14:15:45Z</time>
      </trkpt>
      <trkpt lat="55.025611985474825" lon="26.55829799361527">
        <ele>213.06999999999999</ele>
        <time>2011-08-17T14:15:49Z</time>
      </trkpt>
      <trkpt lat="55.025764033198357" lon="26.558970976620913">
        <ele>211.63</ele>
        <time>2011-08-17T14:16:00Z</time>
      </trkpt>
      <trkpt lat="55.025822035968304" lon="26.559213967993855">
        <ele>210.19</ele>
        <time>2011-08-17T14:16:03Z</time>
      </trkpt>
      <trkpt lat="55.025864029303193" lon="26.559403985738754">
        <ele>209.22</ele>
        <time>2011-08-17T14:16:05Z</time>
      </trkpt>
      <trkpt lat="55.026009036228061" lon="26.560158021748066">
        <ele>206.81999999999999</ele>
        <time>2011-08-17T14:16:12Z</time>
      </trkpt>
      <trkpt lat="55.02639401704073" lon="26.561372978612781">
        <ele>204.41999999999999</ele>
        <time>2011-08-17T14:16:24Z</time>
      </trkpt>
      <trkpt lat="55.026591997593641" lon="26.561743039637804">
        <ele>203.46000000000001</ele>
        <time>2011-08-17T14:16:29Z</time>
      </trkpt>
      <trkpt lat="55.02671797759831" lon="26.561917969956994">
        <ele>202.97999999999999</ele>
        <time>2011-08-17T14:16:32Z</time>
      </trkpt>
      <trkpt lat="55.026862984523177" lon="26.562203960493207">
        <ele>203.46000000000001</ele>
        <time>2011-08-17T14:16:37Z</time>
      </trkpt>
      <trkpt lat="55.027194991707802" lon="26.562852971255779">
        <ele>206.34</ele>
        <time>2011-08-17T14:16:52Z</time>
      </trkpt>
      <trkpt lat="55.027465978637338" lon="26.563397962599993">
        <ele>208.25999999999999</ele>
        <time>2011-08-17T14:17:10Z</time>
      </trkpt>
      <trkpt lat="55.027495985850692" lon="26.563443979248405">
        <ele>203.94</ele>
        <time>2011-08-17T14:17:18Z</time>
      </trkpt>
      <trkpt lat="55.027495985850692" lon="26.563443979248405">
        <ele>209.22</ele>
        <time>2011-08-17T14:17:19Z</time>
      </trkpt>
      <trkpt lat="55.027495985850692" lon="26.563443979248405">
        <ele>208.74000000000001</ele>
        <time>2011-08-17T14:17:48Z</time>
      </trkpt>
      <trkpt lat="55.027495985850692" lon="26.563441967591643">
        <ele>208.74000000000001</ele>
        <time>2011-08-17T14:18:15Z</time>
      </trkpt>
      <trkpt lat="55.027489028871059" lon="26.563480021432042">
        <ele>208.74000000000001</ele>
        <time>2011-08-17T14:18:38Z</time>
      </trkpt>
      <trkpt lat="55.027489028871059" lon="26.563480021432042">
        <ele>208.25999999999999</ele>
        <time>2011-08-17T14:19:01Z</time>
      </trkpt>
      <trkpt lat="55.027489028871059" lon="26.563480021432042">
        <ele>209.22</ele>
        <time>2011-08-17T14:19:21Z</time>
      </trkpt>
      <trkpt lat="55.02749296836555" lon="26.563460994511843">
        <ele>208.25999999999999</ele>
        <time>2011-08-17T14:19:38Z</time>
      </trkpt>
      <trkpt lat="55.027495985850692" lon="26.56345697119832">
        <ele>208.25999999999999</ele>
        <time>2011-08-17T14:20:11Z</time>
      </trkpt>
      <trkpt lat="55.027495985850692" lon="26.56345697119832">
        <ele>208.25999999999999</ele>
        <time>2011-08-17T14:20:27Z</time>
      </trkpt>
      <trkpt lat="55.027495985850692" lon="26.56345403753221">
        <ele>208.25999999999999</ele>
        <time>2011-08-17T14:20:58Z</time>
      </trkpt>
      <trkpt lat="55.027495985850692" lon="26.56345403753221">
        <ele>208.25999999999999</ele>
        <time>2011-08-17T14:21:30Z</time>
      </trkpt>
      <trkpt lat="55.027495985850692" lon="26.563445990905166">
        <ele>208.25999999999999</ele>
        <time>2011-08-17T14:21:57Z</time>
      </trkpt>
      <trkpt lat="55.027495985850692" lon="26.563450014218688">
        <ele>207.78</ele>
        <time>2011-08-17T14:22:21Z</time>
      </trkpt>
      <trkpt lat="55.027495985850692" lon="26.563450014218688">
        <ele>209.22</ele>
        <time>2011-08-17T14:22:49Z</time>
      </trkpt>
      <trkpt lat="55.027495985850692" lon="26.563443979248405">
        <ele>208.25999999999999</ele>
        <time>2011-08-17T14:23:06Z</time>
      </trkpt>
      <trkpt lat="55.027495985850692" lon="26.563441967591643">
        <ele>208.74000000000001</ele>
        <time>2011-08-17T14:23:24Z</time>
      </trkpt>
      <trkpt lat="55.027489028871059" lon="26.563450014218688">
        <ele>208.25999999999999</ele>
        <time>2011-08-17T14:23:45Z</time>
      </trkpt>
      <trkpt lat="55.027489028871059" lon="26.56345596536994">
        <ele>207.78</ele>
        <time>2011-08-17T14:24:05Z</time>
      </trkpt>
      <trkpt lat="55.027500009164214" lon="26.5634770039469">
        <ele>207.78</ele>
        <time>2011-08-17T14:24:19Z</time>
      </trkpt>
      <trkpt lat="55.027500009164214" lon="26.5634770039469">
        <ele>207.78</ele>
        <time>2011-08-17T14:24:39Z</time>
      </trkpt>
      <trkpt lat="55.027511995285749" lon="26.563497958704829">
        <ele>207.78</ele>
        <time>2011-08-17T14:25:03Z</time>
      </trkpt>
      <trkpt lat="55.027526998892426" lon="26.563531989231706">
        <ele>207.78</ele>
        <time>2011-08-17T14:25:05Z</time>
      </trkpt>
      <trkpt lat="55.027606962248683" lon="26.563727958127856">
        <ele>208.25999999999999</ele>
        <time>2011-08-17T14:25:13Z</time>
      </trkpt>
      <trkpt lat="55.027823969721794" lon="26.564156021922827">
        <ele>207.78</ele>
        <time>2011-08-17T14:25:27Z</time>
      </trkpt>
      <trkpt lat="55.028023039922118" lon="26.564512001350522">
        <ele>208.74000000000001</ele>
        <time>2011-08-17T14:25:39Z</time>
      </trkpt>
      <trkpt lat="55.028080036863685" lon="26.56465700827539">
        <ele>209.22</ele>
        <time>2011-08-17T14:25:44Z</time>
      </trkpt>
      <trkpt lat="55.028248010203242" lon="26.565092029049993">
        <ele>209.69999999999999</ele>
        <time>2011-08-17T14:25:56Z</time>
      </trkpt>
      <trkpt lat="55.028397040441632" lon="26.565642971545458">
        <ele>210.66999999999999</ele>
        <time>2011-08-17T14:26:09Z</time>
      </trkpt>
      <trkpt lat="55.028617987409234" lon="26.566277984529734">
        <ele>210.19</ele>
        <time>2011-08-17T14:26:22Z</time>
      </trkpt>
      <trkpt lat="55.028731981292367" lon="26.566628012806177">
        <ele>209.22</ele>
        <time>2011-08-17T14:26:29Z</time>
      </trkpt>
      <trkpt lat="55.028896015137434" lon="26.567133022472262">
        <ele>210.19</ele>
        <time>2011-08-17T14:26:40Z</time>
      </trkpt>
      <trkpt lat="55.029110005125403" lon="26.567803993821144">
        <ele>212.11000000000001</ele>
        <time>2011-08-17T14:26:54Z</time>
      </trkpt>
      <trkpt lat="55.02936196513474" lon="26.568303974345326">
        <ele>214.03</ele>
        <time>2011-08-17T14:27:09Z</time>
      </trkpt>
      <trkpt lat="55.029754992574453" lon="26.568657020106912">
        <ele>214.99000000000001</ele>
        <time>2011-08-17T14:27:25Z</time>
      </trkpt>
      <trkpt lat="55.030022040009499" lon="26.568987015634775">
        <ele>214.03</ele>
        <time>2011-08-17T14:27:35Z</time>
      </trkpt>
      <trkpt lat="55.030148020014167" lon="26.569172004237771">
        <ele>213.55000000000001</ele>
        <time>2011-08-17T14:27:39Z</time>
      </trkpt>
      <trkpt lat="55.030440967530012" lon="26.569612976163626">
        <ele>212.59</ele>
        <time>2011-08-17T14:27:49Z</time>
      </trkpt>
      <trkpt lat="55.030476003885269" lon="26.569693023338914">
        <ele>212.59</ele>
        <time>2011-08-17T14:27:52Z</time>
      </trkpt>
      <trkpt lat="55.030574994161725" lon="26.569840963929892">
        <ele>212.59</ele>
        <time>2011-08-17T14:27:58Z</time>
      </trkpt>
      <trkpt lat="55.030697034671903" lon="26.570043973624706">
        <ele>212.59</ele>
        <time>2011-08-17T14:28:05Z</time>
      </trkpt>
      <trkpt lat="55.030871964991093" lon="26.57041403464973">
        <ele>212.59</ele>
        <time>2011-08-17T14:28:19Z</time>
      </trkpt>
      <trkpt lat="55.031161978840828" lon="26.571137979626656">
        <ele>214.50999999999999</ele>
        <time>2011-08-17T14:28:34Z</time>
      </trkpt>
      <trkpt lat="55.031368006020784" lon="26.571602001786232">
        <ele>214.50999999999999</ele>
        <time>2011-08-17T14:28:46Z</time>
      </trkpt>
      <trkpt lat="55.031581996008754" lon="26.572171971201897">
        <ele>214.03</ele>
        <time>2011-08-17T14:28:58Z</time>
      </trkpt>
      <trkpt lat="55.031863963231444" lon="26.572811007499695">
        <ele>214.50999999999999</ele>
        <time>2011-08-17T14:29:11Z</time>
      </trkpt>
      <trkpt lat="55.032074013724923" lon="26.573398998007178">
        <ele>215.47</ele>
        <time>2011-08-17T14:29:22Z</time>
      </trkpt>
      <trkpt lat="55.0320890173316" lon="26.573444008827209">
        <ele>215.94999999999999</ele>
        <time>2011-08-17T14:29:23Z</time>
      </trkpt>
      <trkpt lat="55.032276017591357" lon="26.573926974087954">
        <ele>215.94999999999999</ele>
        <time>2011-08-17T14:29:36Z</time>
      </trkpt>
      <trkpt lat="55.032470980659127" lon="26.574423015117645">
        <ele>216.91</ele>
        <time>2011-08-17T14:29:50Z</time>
      </trkpt>
      <trkpt lat="55.032650018110871" lon="26.574874967336655">
        <ele>218.36000000000001</ele>
        <time>2011-08-17T14:30:03Z</time>
      </trkpt>
      <trkpt lat="55.03294799476862" lon="26.575507968664169">
        <ele>218.36000000000001</ele>
        <time>2011-08-17T14:30:18Z</time>
      </trkpt>
      <trkpt lat="55.033393995836377" lon="26.576550006866455">
        <ele>218.36000000000001</ele>
        <time>2011-08-17T14:30:36Z</time>
      </trkpt>
      <trkpt lat="55.03342098556459" lon="26.57660499215126">
        <ele>217.88</ele>
        <time>2011-08-17T14:30:37Z</time>
      </trkpt>
      <trkpt lat="55.033855000510812" lon="26.57772297039628">
        <ele>216.43000000000001</ele>
        <time>2011-08-17T14:30:56Z</time>
      </trkpt>
      <trkpt lat="55.034236963838339" lon="26.578484969213605">
        <ele>218.36000000000001</ele>
        <time>2011-08-17T14:31:11Z</time>
      </trkpt>
      <trkpt lat="55.034863008186221" lon="26.5791189763695">
        <ele>217.40000000000001</ele>
        <time>2011-08-17T14:31:26Z</time>
      </trkpt>
      <trkpt lat="55.03550698980689" lon="26.579566989094019">
        <ele>214.03</ele>
        <time>2011-08-17T14:31:40Z</time>
      </trkpt>
      <trkpt lat="55.035949973389506" lon="26.579766981303692">
        <ele>212.59</ele>
        <time>2011-08-17T14:31:48Z</time>
      </trkpt>
      <trkpt lat="55.036156000569463" lon="26.579823978245258">
        <ele>212.11000000000001</ele>
        <time>2011-08-17T14:31:52Z</time>
      </trkpt>
      <trkpt lat="55.036377031356096" lon="26.579960016533732">
        <ele>212.11000000000001</ele>
        <time>2011-08-17T14:31:57Z</time>
      </trkpt>
      <trkpt lat="55.036919005215168" lon="26.580418003723025">
        <ele>214.03</ele>
        <time>2011-08-17T14:32:11Z</time>
      </trkpt>
      <trkpt lat="55.037475982680917" lon="26.580960983410478">
        <ele>212.59</ele>
        <time>2011-08-17T14:32:25Z</time>
      </trkpt>
      <trkpt lat="55.037960037589073" lon="26.581607982516289">
        <ele>211.63</ele>
        <time>2011-08-17T14:32:37Z</time>
      </trkpt>
      <trkpt lat="55.038032960146666" lon="26.581704961135983">
        <ele>211.15000000000001</ele>
        <time>2011-08-17T14:32:39Z</time>
      </trkpt>
      <trkpt lat="55.038406038656831" lon="26.582528986036777">
        <ele>210.66999999999999</ele>
        <time>2011-08-17T14:32:54Z</time>
      </trkpt>
      <trkpt lat="55.038601001724601" lon="26.583427023142576">
        <ele>210.66999999999999</ele>
        <time>2011-08-17T14:33:08Z</time>
      </trkpt>
      <trkpt lat="55.03866202197969" lon="26.583867995068431">
        <ele>210.66999999999999</ele>
        <time>2011-08-17T14:33:14Z</time>
      </trkpt>
      <trkpt lat="55.038726981729269" lon="26.584182986989617">
        <ele>210.19</ele>
        <time>2011-08-17T14:33:19Z</time>
      </trkpt>
      <trkpt lat="55.038825972005725" lon="26.584409968927503">
        <ele>210.19</ele>
        <time>2011-08-17T14:33:24Z</time>
      </trkpt>
      <trkpt lat="55.038967039436102" lon="26.584443999454379">
        <ele>210.19</ele>
        <time>2011-08-17T14:33:28Z</time>
      </trkpt>
      <trkpt lat="55.039383033290505" lon="26.584323970600963">
        <ele>210.19</ele>
        <time>2011-08-17T14:33:39Z</time>
      </trkpt>
      <trkpt lat="55.039763990789652" lon="26.584327993914485">
        <ele>210.19</ele>
        <time>2011-08-17T14:33:50Z</time>
      </trkpt>
      <trkpt lat="55.039847977459431" lon="26.584641980007291">
        <ele>210.19</ele>
        <time>2011-08-17T14:33:56Z</time>
      </trkpt>
      <trkpt lat="55.040046963840723" lon="26.585147995501757">
        <ele>210.66999999999999</ele>
        <time>2011-08-17T14:34:07Z</time>
      </trkpt>
      <trkpt lat="55.040405038744211" lon="26.585772028192878">
        <ele>211.15000000000001</ele>
        <time>2011-08-17T14:34:20Z</time>
      </trkpt>
      <trkpt lat="55.040501011535525" lon="26.585972020402551">
        <ele>210.66999999999999</ele>
        <time>2011-08-17T14:34:24Z</time>
      </trkpt>
      <trkpt lat="55.040718019008636" lon="26.586285000666976">
        <ele>209.69999999999999</ele>
        <time>2011-08-17T14:34:30Z</time>
      </trkpt>
      <trkpt lat="55.040836036205292" lon="26.58640100620687">
        <ele>209.22</ele>
        <time>2011-08-17T14:34:33Z</time>
      </trkpt>
      <trkpt lat="55.041107023134828" lon="26.58672496676445">
        <ele>208.74000000000001</ele>
        <time>2011-08-17T14:34:39Z</time>
      </trkpt>
      <trkpt lat="55.041191009804606" lon="26.586839966475964">
        <ele>208.74000000000001</ele>
        <time>2011-08-17T14:34:41Z</time>
      </trkpt>
      <trkpt lat="55.041901040822268" lon="26.587627027183771">
        <ele>206.81999999999999</ele>
        <time>2011-08-17T14:34:57Z</time>
      </trkpt>
      <trkpt lat="55.042347041890025" lon="26.588105969130993">
        <ele>206.34</ele>
        <time>2011-08-17T14:35:09Z</time>
      </trkpt>
      <trkpt lat="55.042766975238919" lon="26.588621037080884">
        <ele>207.78</ele>
        <time>2011-08-17T14:35:21Z</time>
      </trkpt>
      <trkpt lat="55.043091019615531" lon="26.588939968496561">
        <ele>207.78</ele>
        <time>2011-08-17T14:35:30Z</time>
      </trkpt>
      <trkpt lat="55.043353959918022" lon="26.589244985952973">
        <ele>206.81999999999999</ele>
        <time>2011-08-17T14:35:37Z</time>
      </trkpt>
      <trkpt lat="55.043968018144369" lon="26.589921992272139">
        <ele>205.86000000000001</ele>
        <time>2011-08-17T14:35:51Z</time>
      </trkpt>
      <trkpt lat="55.044285021722317" lon="26.590284006670117">
        <ele>203.94</ele>
        <time>2011-08-17T14:35:57Z</time>
      </trkpt>
      <trkpt lat="55.044487025588751" lon="26.590510988608003">
        <ele>203.94</ele>
        <time>2011-08-17T14:36:01Z</time>
      </trkpt>
      <trkpt lat="55.044711995869875" lon="26.590751968324184">
        <ele>203.46000000000001</ele>
        <time>2011-08-17T14:36:06Z</time>
      </trkpt>
      <trkpt lat="55.0450249761343" lon="26.591095039620996">
        <ele>204.41999999999999</ele>
        <time>2011-08-17T14:36:13Z</time>
      </trkpt>
      <trkpt lat="55.045116003602743" lon="26.591168968006968">
        <ele>203.46000000000001</ele>
        <time>2011-08-17T14:36:15Z</time>
      </trkpt>
      <trkpt lat="55.045310966670513" lon="26.591397961601615">
        <ele>202.97999999999999</ele>
        <time>2011-08-17T14:36:20Z</time>
      </trkpt>
      <trkpt lat="55.045470977202058" lon="26.591608012095094">
        <ele>202.49000000000001</ele>
        <time>2011-08-17T14:36:24Z</time>
      </trkpt>
      <trkpt lat="55.04568899050355" lon="26.591804986819625">
        <ele>202.00999999999999</ele>
        <time>2011-08-17T14:36:29Z</time>
      </trkpt>
      <trkpt lat="55.045769037678838" lon="26.591866007074714">
        <ele>202.49000000000001</ele>
        <time>2011-08-17T14:36:31Z</time>
      </trkpt>
      <trkpt lat="55.046310005709529" lon="26.591874975711107">
        <ele>204.41999999999999</ele>
        <time>2011-08-17T14:36:43Z</time>
      </trkpt>
      <trkpt lat="55.046482002362609" lon="26.591822002083063">
        <ele>205.38</ele>
        <time>2011-08-17T14:36:47Z</time>
      </trkpt>
      <trkpt lat="55.047294963151217" lon="26.591669032350183">
        <ele>203.46000000000001</ele>
        <time>2011-08-17T14:37:05Z</time>
      </trkpt>
      <trkpt lat="55.047939028590918" lon="26.591504998505116">
        <ele>202.49000000000001</ele>
        <time>2011-08-17T14:37:19Z</time>
      </trkpt>
      <trkpt lat="55.048069031909108" lon="26.591430986300111">
        <ele>202.00999999999999</ele>
        <time>2011-08-17T14:37:22Z</time>
      </trkpt>
      <trkpt lat="55.048252008855343" lon="26.591268964111805">
        <ele>202.00999999999999</ele>
        <time>2011-08-17T14:37:27Z</time>
      </trkpt>
      <trkpt lat="55.048419982194901" lon="26.591167040169239">
        <ele>202.00999999999999</ele>
        <time>2011-08-17T14:37:31Z</time>
      </trkpt>
      <trkpt lat="55.04874000325799" lon="26.591010969132185">
        <ele>201.53</ele>
        <time>2011-08-17T14:37:38Z</time>
      </trkpt>
      <trkpt lat="55.049057006835937" lon="26.590953972190619">
        <ele>200.56999999999999</ele>
        <time>2011-08-17T14:37:45Z</time>
      </trkpt>
      <trkpt lat="55.049202013760805" lon="26.590911978855729">
        <ele>201.05000000000001</ele>
        <time>2011-08-17T14:37:48Z</time>
      </trkpt>
      <trkpt lat="55.050071971490979" lon="26.590684996917844">
        <ele>202.00999999999999</ele>
        <time>2011-08-17T14:38:06Z</time>
      </trkpt>
      <trkpt lat="55.050563989207149" lon="26.590588018298149">
        <ele>203.46000000000001</ele>
        <time>2011-08-17T14:38:20Z</time>
      </trkpt>
      <trkpt lat="55.050750989466906" lon="26.590532027184963">
        <ele>203.46000000000001</ele>
        <time>2011-08-17T14:38:25Z</time>
      </trkpt>
      <trkpt lat="55.051090037450194" lon="26.590421972796321">
        <ele>202.97999999999999</ele>
        <time>2011-08-17T14:38:33Z</time>
      </trkpt>
      <trkpt lat="55.051249964162707" lon="26.59037796780467">
        <ele>202.97999999999999</ele>
        <time>2011-08-17T14:38:37Z</time>
      </trkpt>
      <trkpt lat="55.051632011309266" lon="26.590721039101481">
        <ele>203.46000000000001</ele>
        <time>2011-08-17T14:38:49Z</time>
      </trkpt>
      <trkpt lat="55.051968041807413" lon="26.591430986300111">
        <ele>205.86000000000001</ele>
        <time>2011-08-17T14:39:04Z</time>
      </trkpt>
      <trkpt lat="55.052399039268494" lon="26.592085026204586">
        <ele>205.86000000000001</ele>
        <time>2011-08-17T14:39:18Z</time>
      </trkpt>
      <trkpt lat="55.052863983437419" lon="26.59284601919353">
        <ele>206.81999999999999</ele>
        <time>2011-08-17T14:39:33Z</time>
      </trkpt>
      <trkpt lat="55.053055007010698" lon="26.593164028599858">
        <ele>194.31999999999999</ele>
        <time>2011-08-17T14:39:40Z</time>
      </trkpt>
      <trkpt lat="55.053089037537575" lon="26.593208033591509">
        <ele>209.69999999999999</ele>
        <time>2011-08-17T14:39:41Z</time>
      </trkpt>
      <trkpt lat="55.053222980350256" lon="26.593429986387491">
        <ele>206.81999999999999</ele>
        <time>2011-08-17T14:39:46Z</time>
      </trkpt>
      <trkpt lat="55.053550964221358" lon="26.593985036015511">
        <ele>207.30000000000001</ele>
        <time>2011-08-17T14:40:00Z</time>
      </trkpt>
      <trkpt lat="55.054130991920829" lon="26.594939986243844">
        <ele>206.81999999999999</ele>
        <time>2011-08-17T14:40:17Z</time>
      </trkpt>
      <trkpt lat="55.054684029892087" lon="26.59546704031527">
        <ele>207.78</ele>
        <time>2011-08-17T14:40:33Z</time>
      </trkpt>
      <trkpt lat="55.055031040683389" lon="26.595616992563009">
        <ele>208.25999999999999</ele>
        <time>2011-08-17T14:40:48Z</time>
      </trkpt>
      <trkpt lat="55.055473018437624" lon="26.595798041671515">
        <ele>207.30000000000001</ele>
        <time>2011-08-17T14:41:02Z</time>
      </trkpt>
      <trkpt lat="55.056086992844939" lon="26.596171958371997">
        <ele>205.86000000000001</ele>
        <time>2011-08-17T14:41:19Z</time>
      </trkpt>
      <trkpt lat="55.056590996682644" lon="26.596436994150281">
        <ele>205.86000000000001</ele>
        <time>2011-08-17T14:41:33Z</time>
      </trkpt>
      <trkpt lat="55.057048983871937" lon="26.59667001105845">
        <ele>206.81999999999999</ele>
        <time>2011-08-17T14:41:48Z</time>
      </trkpt>
      <trkpt lat="55.057193990796804" lon="26.596775036305189">
        <ele>206.34</ele>
        <time>2011-08-17T14:41:57Z</time>
      </trkpt>
      <trkpt lat="55.057198014110327" lon="26.596780987456441">
        <ele>205.86000000000001</ele>
        <time>2011-08-17T14:42:15Z</time>
      </trkpt>
      <trkpt lat="55.05733497440815" lon="26.596852988004684">
        <ele>205.38</ele>
        <time>2011-08-17T14:42:29Z</time>
      </trkpt>
      <trkpt lat="55.057457014918327" lon="26.596901016309857">
        <ele>204.90000000000001</ele>
        <time>2011-08-17T14:42:32Z</time>
      </trkpt>
      <trkpt lat="55.057503031566739" lon="26.596916019916534">
        <ele>204.41999999999999</ele>
        <time>2011-08-17T14:42:33Z</time>
      </trkpt>
      <trkpt lat="55.057690031826496" lon="26.597022973001003">
        <ele>203.94</ele>
        <time>2011-08-17T14:42:37Z</time>
      </trkpt>
      <trkpt lat="55.058326972648501" lon="26.597341988235712">
        <ele>201.05000000000001</ele>
        <time>2011-08-17T14:42:48Z</time>
      </trkpt>
      <trkpt lat="55.058368965983391" lon="26.59737803041935">
        <ele>201.05000000000001</ele>
        <time>2011-08-17T14:42:49Z</time>
      </trkpt>
      <trkpt lat="55.058402996510267" lon="26.597418012097478">
        <ele>201.53</ele>
        <time>2011-08-17T14:42:50Z</time>
      </trkpt>
      <trkpt lat="55.058437027037144" lon="26.59746402874589">
        <ele>201.05000000000001</ele>
        <time>2011-08-17T14:42:51Z</time>
      </trkpt>
      <trkpt lat="55.058474997058511" lon="26.597519014030695">
        <ele>201.05000000000001</ele>
        <time>2011-08-17T14:42:52Z</time>
      </trkpt>
      <trkpt lat="55.058651017025113" lon="26.597805004566908">
        <ele>201.53</ele>
        <time>2011-08-17T14:42:57Z</time>
      </trkpt>
      <trkpt lat="55.058842040598392" lon="26.598396012559533">
        <ele>204.41999999999999</ele>
        <time>2011-08-17T14:43:08Z</time>
      </trkpt>
      <trkpt lat="55.058956034481525" lon="26.5990349650383">
        <ele>205.86000000000001</ele>
        <time>2011-08-17T14:43:22Z</time>
      </trkpt>
      <trkpt lat="55.059128031134605" lon="26.599808027967811">
        <ele>207.30000000000001</ele>
        <time>2011-08-17T14:43:37Z</time>
      </trkpt>
      <trkpt lat="55.059326011687517" lon="26.600764989852905">
        <ele>208.25999999999999</ele>
        <time>2011-08-17T14:43:53Z</time>
      </trkpt>
      <trkpt lat="55.05952499806881" lon="26.601609969511628">
        <ele>207.78</ele>
        <time>2011-08-17T14:44:07Z</time>
      </trkpt>
      <trkpt lat="55.059601021930575" lon="26.601662021130323">
        <ele>206.81999999999999</ele>
        <time>2011-08-17T14:44:09Z</time>
      </trkpt>
      <trkpt lat="55.06006202660501" lon="26.60193401388824">
        <ele>207.30000000000001</ele>
        <time>2011-08-17T14:44:22Z</time>
      </trkpt>
      <trkpt lat="55.060080969706178" lon="26.602135011926293">
        <ele>207.30000000000001</ele>
        <time>2011-08-17T14:44:25Z</time>
      </trkpt>
      <trkpt lat="55.0600849930197" lon="26.602209024131298">
        <ele>207.30000000000001</ele>
        <time>2011-08-17T14:44:26Z</time>
      </trkpt>
      <trkpt lat="55.060210973024368" lon="26.603425992652774">
        <ele>206.81999999999999</ele>
        <time>2011-08-17T14:44:44Z</time>
      </trkpt>
      <trkpt lat="55.060322033241391" lon="26.604001997038722">
        <ele>207.30000000000001</ele>
        <time>2011-08-17T14:44:55Z</time>
      </trkpt>
      <trkpt lat="55.060337036848068" lon="26.604081960394979">
        <ele>207.30000000000001</ele>
        <time>2011-08-17T14:45:07Z</time>
      </trkpt>
      <trkpt lat="55.060337036848068" lon="26.604081960394979">
        <ele>208.25999999999999</ele>
        <time>2011-08-17T14:45:38Z</time>
      </trkpt>
      <trkpt lat="55.060328990221024" lon="26.604095036163926">
        <ele>207.78</ele>
        <time>2011-08-17T14:45:42Z</time>
      </trkpt>
      <trkpt lat="55.060318009927869" lon="26.604114985093474">
        <ele>207.30000000000001</ele>
        <time>2011-08-17T14:45:43Z</time>
      </trkpt>
      <trkpt lat="55.060135032981634" lon="26.604283964261413">
        <ele>208.25999999999999</ele>
        <time>2011-08-17T14:46:00Z</time>
      </trkpt>
      <trkpt lat="55.060131009668112" lon="26.604292010888457">
        <ele>208.25999999999999</ele>
        <time>2011-08-17T14:46:17Z</time>
      </trkpt>
      <trkpt lat="55.060131009668112" lon="26.604292010888457">
        <ele>208.25999999999999</ele>
        <time>2011-08-17T14:46:47Z</time>
      </trkpt>
      <trkpt lat="55.060131009668112" lon="26.604292010888457">
        <ele>208.74000000000001</ele>
        <time>2011-08-17T14:47:12Z</time>
      </trkpt>
      <trkpt lat="55.060177026316524" lon="26.604280024766922">
        <ele>207.78</ele>
        <time>2011-08-17T14:47:21Z</time>
      </trkpt>
      <trkpt lat="55.060261012986302" lon="26.604364011436701">
        <ele>208.25999999999999</ele>
        <time>2011-08-17T14:47:36Z</time>
      </trkpt>
      <trkpt lat="55.060265036299825" lon="26.604368034750223">
        <ele>208.25999999999999</ele>
        <time>2011-08-17T14:47:56Z</time>
      </trkpt>
      <trkpt lat="55.060261012986302" lon="26.604364011436701">
        <ele>208.74000000000001</ele>
        <time>2011-08-17T14:48:24Z</time>
      </trkpt>
      <trkpt lat="55.060249026864767" lon="26.604393012821674">
        <ele>208.25999999999999</ele>
        <time>2011-08-17T14:48:37Z</time>
      </trkpt>
      <trkpt lat="55.060249026864767" lon="26.604391001164913">
        <ele>208.25999999999999</ele>
        <time>2011-08-17T14:49:11Z</time>
      </trkpt>
      <trkpt lat="55.060249026864767" lon="26.604397036135197">
        <ele>208.25999999999999</ele>
        <time>2011-08-17T14:49:57Z</time>
      </trkpt>
      <trkpt lat="55.060252966359258" lon="26.604391001164913">
        <ele>208.74000000000001</ele>
        <time>2011-08-17T14:50:36Z</time>
      </trkpt>
      <trkpt lat="55.060261012986302" lon="26.604397036135197">
        <ele>208.25999999999999</ele>
        <time>2011-08-17T14:51:22Z</time>
      </trkpt>
      <trkpt lat="55.06025698967278" lon="26.604400975629687">
        <ele>208.25999999999999</ele>
        <time>2011-08-17T14:52:09Z</time>
      </trkpt>
      <trkpt lat="55.060249026864767" lon="26.604398963972926">
        <ele>207.78</ele>
        <time>2011-08-17T14:52:54Z</time>
      </trkpt>
      <trkpt lat="55.060249026864767" lon="26.604403993114829">
        <ele>208.25999999999999</ele>
        <time>2011-08-17T14:53:34Z</time>
      </trkpt>
      <trkpt lat="55.060252966359258" lon="26.604408016428351">
        <ele>208.25999999999999</ele>
        <time>2011-08-17T14:54:14Z</time>
      </trkpt>
      <trkpt lat="55.06025698967278" lon="26.604408016428351">
        <ele>208.25999999999999</ele>
        <time>2011-08-17T14:54:59Z</time>
      </trkpt>
      <trkpt lat="55.06025698967278" lon="26.604403993114829">
        <ele>208.74000000000001</ele>
        <time>2011-08-17T14:55:45Z</time>
      </trkpt>
      <trkpt lat="55.06025698967278" lon="26.604398963972926">
        <ele>208.74000000000001</ele>
        <time>2011-08-17T14:56:18Z</time>
      </trkpt>
      <trkpt lat="55.06025698967278" lon="26.604395024478436">
        <ele>208.74000000000001</ele>
        <time>2011-08-17T14:56:47Z</time>
      </trkpt>
      <trkpt lat="55.060261012986302" lon="26.604395024478436">
        <ele>208.74000000000001</ele>
        <time>2011-08-17T14:57:15Z</time>
      </trkpt>
      <trkpt lat="55.060261012986302" lon="26.604395024478436">
        <ele>208.74000000000001</ele>
        <time>2011-08-17T14:57:43Z</time>
      </trkpt>
      <trkpt lat="55.060261012986302" lon="26.6043830383569">
        <ele>208.25999999999999</ele>
        <time>2011-08-17T14:58:13Z</time>
      </trkpt>
      <trkpt lat="55.060261012986302" lon="26.604369962587953">
        <ele>208.74000000000001</ele>
        <time>2011-08-17T14:58:40Z</time>
      </trkpt>
      <trkpt lat="55.060261012986302" lon="26.604360993951559">
        <ele>208.74000000000001</ele>
        <time>2011-08-17T14:59:09Z</time>
      </trkpt>
      <trkpt lat="55.060261012986302" lon="26.604360993951559">
        <ele>208.25999999999999</ele>
        <time>2011-08-17T14:59:46Z</time>
      </trkpt>
      <trkpt lat="55.060261012986302" lon="26.604366023093462">
        <ele>208.25999999999999</ele>
        <time>2011-08-17T15:00:23Z</time>
      </trkpt>
      <trkpt lat="55.06025698967278" lon="26.604358982294798">
        <ele>208.25999999999999</ele>
        <time>2011-08-17T15:01:07Z</time>
      </trkpt>
      <trkpt lat="55.06025698967278" lon="26.604344984516501">
        <ele>208.25999999999999</ele>
        <time>2011-08-17T15:01:38Z</time>
      </trkpt>
      <trkpt lat="55.06025698967278" lon="26.604344984516501">
        <ele>208.25999999999999</ele>
        <time>2011-08-17T15:02:07Z</time>
      </trkpt>
      <trkpt lat="55.06025698967278" lon="26.604380020871758">
        <ele>209.22</ele>
        <time>2011-08-17T15:02:24Z</time>
      </trkpt>
      <trkpt lat="55.060219019651413" lon="26.604467025026679">
        <ele>208.74000000000001</ele>
        <time>2011-08-17T15:02:38Z</time>
      </trkpt>
      <trkpt lat="55.060195969417691" lon="26.604479011148214">
        <ele>208.74000000000001</ele>
        <time>2011-08-17T15:02:47Z</time>
      </trkpt>
      <trkpt lat="55.060180965811014" lon="26.604485968127847">
        <ele>208.25999999999999</ele>
        <time>2011-08-17T15:02:48Z</time>
      </trkpt>
      <trkpt lat="55.060039982199669" lon="26.604540031403303">
        <ele>208.25999999999999</ele>
        <time>2011-08-17T15:02:55Z</time>
      </trkpt>
      <trkpt lat="55.059948032721877" lon="26.604538019746542">
        <ele>207.78</ele>
        <time>2011-08-17T15:03:00Z</time>
      </trkpt>
      <trkpt lat="55.059936968609691" lon="26.604513041675091">
        <ele>207.78</ele>
        <time>2011-08-17T15:03:01Z</time>
      </trkpt>
      <trkpt lat="55.059920959174633" lon="26.604479011148214">
        <ele>207.30000000000001</ele>
        <time>2011-08-17T15:03:02Z</time>
      </trkpt>
      <trkpt lat="55.059727001935244" lon="26.60395598039031">
        <ele>207.30000000000001</ele>
        <time>2011-08-17T15:03:15Z</time>
      </trkpt>
      <trkpt lat="55.059680985286832" lon="26.603876017034054">
        <ele>207.30000000000001</ele>
        <time>2011-08-17T15:03:27Z</time>
      </trkpt>
      <trkpt lat="55.059668999165297" lon="26.603799993172288">
        <ele>207.30000000000001</ele>
        <time>2011-08-17T15:03:31Z</time>
      </trkpt>
      <trkpt lat="55.059665981680155" lon="26.60376001149416">
        <ele>207.30000000000001</ele>
        <time>2011-08-17T15:03:32Z</time>
      </trkpt>
      <trkpt lat="55.059661958366632" lon="26.603723969310522">
        <ele>207.30000000000001</ele>
        <time>2011-08-17T15:03:33Z</time>
      </trkpt>
      <trkpt lat="55.059658018872142" lon="26.603684993460774">
        <ele>207.78</ele>
        <time>2011-08-17T15:03:34Z</time>
      </trkpt>
      <trkpt lat="55.059658018872142" lon="26.603641994297504">
        <ele>207.78</ele>
        <time>2011-08-17T15:03:35Z</time>
      </trkpt>
      <trkpt lat="55.059653995558619" lon="26.603595977649093">
        <ele>207.78</ele>
        <time>2011-08-17T15:03:36Z</time>
      </trkpt>
      <trkpt lat="55.059647038578987" lon="26.603548033162951">
        <ele>207.30000000000001</ele>
        <time>2011-08-17T15:03:37Z</time>
      </trkpt>
      <trkpt lat="55.05958903580904" lon="26.602477999404073">
        <ele>206.81999999999999</ele>
        <time>2011-08-17T15:03:54Z</time>
      </trkpt>
      <trkpt lat="55.059673022478819" lon="26.601820020005107">
        <ele>206.34</ele>
        <time>2011-08-17T15:04:07Z</time>
      </trkpt>
      <trkpt lat="55.059742005541921" lon="26.60178598947823">
        <ele>206.34</ele>
        <time>2011-08-17T15:04:18Z</time>
      </trkpt>
      <trkpt lat="55.059742005541921" lon="26.60178598947823">
        <ele>206.81999999999999</ele>
        <time>2011-08-17T15:04:20Z</time>
      </trkpt>
      <trkpt lat="55.059749968349934" lon="26.601813985034823">
        <ele>206.34</ele>
        <time>2011-08-17T15:04:33Z</time>
      </trkpt>
      <trkpt lat="55.059749968349934" lon="26.601813985034823">
        <ele>206.34</ele>
        <time>2011-08-17T15:05:02Z</time>
      </trkpt>
      <trkpt lat="55.059749968349934" lon="26.601809961721301">
        <ele>206.34</ele>
        <time>2011-08-17T15:05:36Z</time>
      </trkpt>
      <trkpt lat="55.059757009148598" lon="26.601809961721301">
        <ele>206.34</ele>
        <time>2011-08-17T15:06:10Z</time>
      </trkpt>
      <trkpt lat="55.059757009148598" lon="26.601811973378062">
        <ele>206.34</ele>
        <time>2011-08-17T15:06:31Z</time>
      </trkpt>
      <trkpt lat="55.059757009148598" lon="26.601811973378062">
        <ele>206.34</ele>
        <time>2011-08-17T15:06:54Z</time>
      </trkpt>
      <trkpt lat="55.059757009148598" lon="26.601807028055191">
        <ele>206.81999999999999</ele>
        <time>2011-08-17T15:07:29Z</time>
      </trkpt>
      <trkpt lat="55.059752985835075" lon="26.60180501639843">
        <ele>206.34</ele>
        <time>2011-08-17T15:08:01Z</time>
      </trkpt>
      <trkpt lat="55.059752985835075" lon="26.601800993084908">
        <ele>206.34</ele>
        <time>2011-08-17T15:08:33Z</time>
      </trkpt>
      <trkpt lat="55.059752985835075" lon="26.601800993084908">
        <ele>206.34</ele>
        <time>2011-08-17T15:09:11Z</time>
      </trkpt>
      <trkpt lat="55.059752985835075" lon="26.601798981428146">
        <ele>206.34</ele>
        <time>2011-08-17T15:09:48Z</time>
      </trkpt>
      <trkpt lat="55.059752985835075" lon="26.601798981428146">
        <ele>206.34</ele>
        <time>2011-08-17T15:10:21Z</time>
      </trkpt>
      <trkpt lat="55.059757009148598" lon="26.601796969771385">
        <ele>206.34</ele>
        <time>2011-08-17T15:10:55Z</time>
      </trkpt>
      <trkpt lat="55.05976103246212" lon="26.60180501639843">
        <ele>205.86000000000001</ele>
        <time>2011-08-17T15:11:25Z</time>
      </trkpt>
      <trkpt lat="55.05976103246212" lon="26.60180501639843">
        <ele>206.34</ele>
        <time>2011-08-17T15:11:56Z</time>
      </trkpt>
      <trkpt lat="55.05976103246212" lon="26.60180501639843">
        <ele>205.86000000000001</ele>
        <time>2011-08-17T15:12:24Z</time>
      </trkpt>
      <trkpt lat="55.059764971956611" lon="26.60180501639843">
        <ele>206.81999999999999</ele>
        <time>2011-08-17T15:12:55Z</time>
      </trkpt>
      <trkpt lat="55.05976103246212" lon="26.601800993084908">
        <ele>206.34</ele>
        <time>2011-08-17T15:13:30Z</time>
      </trkpt>
      <trkpt lat="55.059776036068797" lon="26.60178598947823">
        <ele>206.81999999999999</ele>
        <time>2011-08-17T15:14:01Z</time>
      </trkpt>
      <trkpt lat="55.059776036068797" lon="26.601783977821469">
        <ele>205.86000000000001</ele>
        <time>2011-08-17T15:14:32Z</time>
      </trkpt>
      <trkpt lat="55.059776036068797" lon="26.601780038326979">
        <ele>206.34</ele>
        <time>2011-08-17T15:15:11Z</time>
      </trkpt>
      <trkpt lat="55.059776036068797" lon="26.601780038326979">
        <ele>205.86000000000001</ele>
        <time>2011-08-17T15:15:44Z</time>
      </trkpt>
      <trkpt lat="55.059776036068797" lon="26.601776015013456">
        <ele>205.86000000000001</ele>
        <time>2011-08-17T15:16:13Z</time>
      </trkpt>
      <trkpt lat="55.059779975563288" lon="26.601778026670218">
        <ele>205.86000000000001</ele>
        <time>2011-08-17T15:16:47Z</time>
      </trkpt>
      <trkpt lat="55.059776036068797" lon="26.601774003356695">
        <ele>205.86000000000001</ele>
        <time>2011-08-17T15:17:23Z</time>
      </trkpt>
      <trkpt lat="55.059776036068797" lon="26.601778026670218">
        <ele>205.38</ele>
        <time>2011-08-17T15:17:54Z</time>
      </trkpt>
      <trkpt lat="55.059776036068797" lon="26.601778026670218">
        <ele>205.38</ele>
        <time>2011-08-17T15:18:33Z</time>
      </trkpt>
      <trkpt lat="55.059776036068797" lon="26.601780038326979">
        <ele>205.86000000000001</ele>
        <time>2011-08-17T15:19:09Z</time>
      </trkpt>
      <trkpt lat="55.059776036068797" lon="26.601780038326979">
        <ele>205.86000000000001</ele>
        <time>2011-08-17T15:19:32Z</time>
      </trkpt>
      <trkpt lat="55.059776036068797" lon="26.601780038326979">
        <ele>205.86000000000001</ele>
        <time>2011-08-17T15:20:03Z</time>
      </trkpt>
      <trkpt lat="55.059776036068797" lon="26.601778026670218">
        <ele>205.86000000000001</ele>
        <time>2011-08-17T15:20:34Z</time>
      </trkpt>
      <trkpt lat="55.059776036068797" lon="26.601778026670218">
        <ele>210.66999999999999</ele>
        <time>2011-08-17T15:20:37Z</time>
      </trkpt>
      <trkpt lat="55.059776036068797" lon="26.601778026670218">
        <ele>203.46000000000001</ele>
        <time>2011-08-17T15:20:38Z</time>
      </trkpt>
      <trkpt lat="55.059776036068797" lon="26.601778026670218">
        <ele>207.78</ele>
        <time>2011-08-17T15:20:41Z</time>
      </trkpt>
      <trkpt lat="55.059776036068797" lon="26.601778026670218">
        <ele>205.86000000000001</ele>
        <time>2011-08-17T15:20:56Z</time>
      </trkpt>
      <trkpt lat="55.059752985835075" lon="26.601822031661868">
        <ele>205.86000000000001</ele>
        <time>2011-08-17T15:21:28Z</time>
      </trkpt>
      <trkpt lat="55.059752985835075" lon="26.601822031661868">
        <ele>205.38</ele>
        <time>2011-08-17T15:21:34Z</time>
      </trkpt>
      <trkpt lat="55.059731025248766" lon="26.601820020005107">
        <ele>205.38</ele>
        <time>2011-08-17T15:21:36Z</time>
      </trkpt>
      <trkpt lat="55.059546958655119" lon="26.602101987227798">
        <ele>205.86000000000001</ele>
        <time>2011-08-17T15:21:49Z</time>
      </trkpt>
      <trkpt lat="55.059471018612385" lon="26.60210601054132">
        <ele>206.34</ele>
        <time>2011-08-17T15:21:52Z</time>
      </trkpt>
      <trkpt lat="55.059276977553964" lon="26.602099975571036">
        <ele>211.63</ele>
        <time>2011-08-17T15:21:58Z</time>
      </trkpt>
      <trkpt lat="55.059245964512229" lon="26.602108022198081">
        <ele>205.86000000000001</ele>
        <time>2011-08-17T15:21:59Z</time>
      </trkpt>
      <trkpt lat="55.05870801396668" lon="26.602226039394736">
        <ele>207.30000000000001</ele>
        <time>2011-08-17T15:22:14Z</time>
      </trkpt>
      <trkpt lat="55.0582579895854" lon="26.602273983880877">
        <ele>206.81999999999999</ele>
        <time>2011-08-17T15:22:25Z</time>
      </trkpt>
      <trkpt lat="55.057479981333017" lon="26.602337015792727">
        <ele>205.38</ele>
        <time>2011-08-17T15:22:42Z</time>
      </trkpt>
      <trkpt lat="55.057186027988791" lon="26.602418990805745">
        <ele>205.38</ele>
        <time>2011-08-17T15:22:49Z</time>
      </trkpt>
      <trkpt lat="55.056915041059256" lon="26.60178598947823">
        <ele>205.86000000000001</ele>
        <time>2011-08-17T15:22:59Z</time>
      </trkpt>
      <trkpt lat="55.056426962837577" lon="26.600287975743413">
        <ele>204.90000000000001</ele>
        <time>2011-08-17T15:23:17Z</time>
      </trkpt>
      <trkpt lat="55.055972998961806" lon="26.598966987803578">
        <ele>204.90000000000001</ele>
        <time>2011-08-17T15:23:33Z</time>
      </trkpt>
      <trkpt lat="55.055817011743784" lon="26.598509000614285">
        <ele>205.38</ele>
        <time>2011-08-17T15:23:39Z</time>
      </trkpt>
      <trkpt lat="55.055691031739116" lon="26.598154027014971">
        <ele>205.86000000000001</ele>
        <time>2011-08-17T15:23:44Z</time>
      </trkpt>
      <trkpt lat="55.055470000952482" lon="26.598142962902784">
        <ele>204.41999999999999</ele>
        <time>2011-08-17T15:23:50Z</time>
      </trkpt>
      <trkpt lat="55.055012013763189" lon="26.599346017464995">
        <ele>203.94</ele>
        <time>2011-08-17T15:24:06Z</time>
      </trkpt>
      <trkpt lat="55.054623009636998" lon="26.600384032353759">
        <ele>205.38</ele>
        <time>2011-08-17T15:24:22Z</time>
      </trkpt>
      <trkpt lat="55.054234005510807" lon="26.601281985640526">
        <ele>205.86000000000001</ele>
        <time>2011-08-17T15:24:39Z</time>
      </trkpt>
      <trkpt lat="55.053894035518169" lon="26.601970978081226">
        <ele>207.30000000000001</ele>
        <time>2011-08-17T15:24:53Z</time>
      </trkpt>
      <trkpt lat="55.053782975301147" lon="26.602185973897576">
        <ele>207.30000000000001</ele>
        <time>2011-08-17T15:24:57Z</time>
      </trkpt>
      <trkpt lat="55.053677028045058" lon="26.602413039654493">
        <ele>207.78</ele>
        <time>2011-08-17T15:25:01Z</time>
      </trkpt>
      <trkpt lat="55.053043020889163" lon="26.603383999317884">
        <ele>209.69999999999999</ele>
        <time>2011-08-17T15:25:23Z</time>
      </trkpt>
      <trkpt lat="55.052833976224065" lon="26.603518025949597">
        <ele>209.69999999999999</ele>
        <time>2011-08-17T15:25:34Z</time>
      </trkpt>
      <trkpt lat="55.052833976224065" lon="26.603518025949597">
        <ele>209.69999999999999</ele>
        <time>2011-08-17T15:26:08Z</time>
      </trkpt>
      <trkpt lat="55.052830036729574" lon="26.603511990979314">
        <ele>209.69999999999999</ele>
        <time>2011-08-17T15:26:26Z</time>
      </trkpt>
      <trkpt lat="55.052696010097861" lon="26.603647023439407">
        <ele>209.69999999999999</ele>
        <time>2011-08-17T15:26:34Z</time>
      </trkpt>
      <trkpt lat="55.052012968808413" lon="26.604197965934873">
        <ele>209.22</ele>
        <time>2011-08-17T15:26:53Z</time>
      </trkpt>
      <trkpt lat="55.051277037709951" lon="26.604881007224321">
        <ele>207.78</ele>
        <time>2011-08-17T15:27:12Z</time>
      </trkpt>
      <trkpt lat="55.051078973338008" lon="26.605055015534163">
        <ele>207.78</ele>
        <time>2011-08-17T15:27:22Z</time>
      </trkpt>
      <trkpt lat="55.050601959228516" lon="26.605275962501764">
        <ele>208.25999999999999</ele>
        <time>2011-08-17T15:27:36Z</time>
      </trkpt>
      <trkpt lat="55.050246985629201" lon="26.605370007455349">
        <ele>208.25999999999999</ele>
        <time>2011-08-17T15:27:45Z</time>
      </trkpt>
      <trkpt lat="55.049457997083664" lon="26.605634959414601">
        <ele>209.69999999999999</ele>
        <time>2011-08-17T15:28:04Z</time>
      </trkpt>
      <trkpt lat="55.048778979107738" lon="26.606128988787532">
        <ele>210.66999999999999</ele>
        <time>2011-08-17T15:28:21Z</time>
      </trkpt>
      <trkpt lat="55.048084035515785" lon="26.606707004830241">
        <ele>212.11000000000001</ele>
        <time>2011-08-17T15:28:38Z</time>
      </trkpt>
      <trkpt lat="55.047218017280102" lon="26.606985032558441">
        <ele>212.11000000000001</ele>
        <time>2011-08-17T15:28:57Z</time>
      </trkpt>
      <trkpt lat="55.046368008479476" lon="26.607153005897999">
        <ele>212.59</ele>
        <time>2011-08-17T15:29:15Z</time>
      </trkpt>
      <trkpt lat="55.045506013557315" lon="26.607330031692982">
        <ele>211.15000000000001</ele>
        <time>2011-08-17T15:29:33Z</time>
      </trkpt>
      <trkpt lat="55.044539999216795" lon="26.607539998367429">
        <ele>208.74000000000001</ele>
        <time>2011-08-17T15:29:51Z</time>
      </trkpt>
      <trkpt lat="55.043983021751046" lon="26.60762800835073">
        <ele>205.38</ele>
        <time>2011-08-17T15:29:59Z</time>
      </trkpt>
      <trkpt lat="55.043158996850252" lon="26.607808973640203">
        <ele>205.38</ele>
        <time>2011-08-17T15:30:13Z</time>
      </trkpt>
      <trkpt lat="55.042064990848303" lon="26.608024975284934">
        <ele>202.49000000000001</ele>
        <time>2011-08-17T15:30:32Z</time>
      </trkpt>
      <trkpt lat="55.041279019787908" lon="26.608221028000116">
        <ele>203.94</ele>
        <time>2011-08-17T15:30:47Z</time>
      </trkpt>
      <trkpt lat="55.040477961301804" lon="26.608369974419475">
        <ele>205.86000000000001</ele>
        <time>2011-08-17T15:31:04Z</time>
      </trkpt>
      <trkpt lat="55.039744963869452" lon="26.608507018536329">
        <ele>206.34</ele>
        <time>2011-08-17T15:31:20Z</time>
      </trkpt>
      <trkpt lat="55.039073992520571" lon="26.608696030452847">
        <ele>207.30000000000001</ele>
        <time>2011-08-17T15:31:35Z</time>
      </trkpt>
      <trkpt lat="55.038436967879534" lon="26.608859980478883">
        <ele>208.25999999999999</ele>
        <time>2011-08-17T15:31:51Z</time>
      </trkpt>
      <trkpt lat="55.038086017593741" lon="26.608971040695906">
        <ele>208.25999999999999</ele>
        <time>2011-08-17T15:32:01Z</time>
      </trkpt>
      <trkpt lat="55.037692990154028" lon="26.609187964349985">
        <ele>208.74000000000001</ele>
        <time>2011-08-17T15:32:10Z</time>
      </trkpt>
      <trkpt lat="55.037437006831169" lon="26.609273962676525">
        <ele>209.69999999999999</ele>
        <time>2011-08-17T15:32:16Z</time>
      </trkpt>
      <trkpt lat="55.036808028817177" lon="26.609440008178353">
        <ele>211.15000000000001</ele>
        <time>2011-08-17T15:32:33Z</time>
      </trkpt>
      <trkpt lat="55.036102021113038" lon="26.609674030914903">
        <ele>210.66999999999999</ele>
        <time>2011-08-17T15:32:50Z</time>
      </trkpt>
      <trkpt lat="55.035445969551802" lon="26.610198989510536">
        <ele>210.19</ele>
        <time>2011-08-17T15:33:05Z</time>
      </trkpt>
      <trkpt lat="55.034686988219619" lon="26.610708022490144">
        <ele>211.15000000000001</ele>
        <time>2011-08-17T15:33:22Z</time>
      </trkpt>
      <trkpt lat="55.034385994076729" lon="26.610890999436378">
        <ele>212.11000000000001</ele>
        <time>2011-08-17T15:33:32Z</time>
      </trkpt>
      <trkpt lat="55.033809989690781" lon="26.611245973035693">
        <ele>214.03</ele>
        <time>2011-08-17T15:33:50Z</time>
      </trkpt>
      <trkpt lat="55.033172965049744" lon="26.611526012420654">
        <ele>215.47</ele>
        <time>2011-08-17T15:34:08Z</time>
      </trkpt>
      <trkpt lat="55.032768035307527" lon="26.611608993262053">
        <ele>216.43000000000001</ele>
        <time>2011-08-17T15:34:20Z</time>
      </trkpt>
      <trkpt lat="55.032168980687857" lon="26.611634977161884">
        <ele>216.43000000000001</ele>
        <time>2011-08-17T15:34:35Z</time>
      </trkpt>
      <trkpt lat="55.031513012945652" lon="26.611575968563557">
        <ele>217.40000000000001</ele>
        <time>2011-08-17T15:34:52Z</time>
      </trkpt>
      <trkpt lat="55.030856961384416" lon="26.611425010487437">
        <ele>217.88</ele>
        <time>2011-08-17T15:35:08Z</time>
      </trkpt>
      <trkpt lat="55.030163023620844" lon="26.611511008813977">
        <ele>218.84</ele>
        <time>2011-08-17T15:35:26Z</time>
      </trkpt>
      <trkpt lat="55.029883990064263" lon="26.61158200353384">
        <ele>219.31999999999999</ele>
        <time>2011-08-17T15:35:38Z</time>
      </trkpt>
      <trkpt lat="55.02957503311336" lon="26.611634977161884">
        <ele>218.84</ele>
        <time>2011-08-17T15:35:51Z</time>
      </trkpt>
      <trkpt lat="55.029198015108705" lon="26.611759029328823">
        <ele>219.31999999999999</ele>
        <time>2011-08-17T15:36:07Z</time>
      </trkpt>
      <trkpt lat="55.028881011530757" lon="26.611808985471725">
        <ele>218.36000000000001</ele>
        <time>2011-08-17T15:36:20Z</time>
      </trkpt>
      <trkpt lat="55.028701974079013" lon="26.611889032647014">
        <ele>217.88</ele>
        <time>2011-08-17T15:36:32Z</time>
      </trkpt>
      <trkpt lat="55.028439033776522" lon="26.611890960484743">
        <ele>217.88</ele>
        <time>2011-08-17T15:36:45Z</time>
      </trkpt>
      <trkpt lat="55.028290003538132" lon="26.611976958811283">
        <ele>216.91</ele>
        <time>2011-08-17T15:36:53Z</time>
      </trkpt>
      <trkpt lat="55.028152037411928" lon="26.612019035965204">
        <ele>215.47</ele>
        <time>2011-08-17T15:37:01Z</time>
      </trkpt>
      <trkpt lat="55.028122030198574" lon="26.612085001543164">
        <ele>215.47</ele>
        <time>2011-08-17T15:37:04Z</time>
      </trkpt>
      <trkpt lat="55.028103003278375" lon="26.612131018191576">
        <ele>215.47</ele>
        <time>2011-08-17T15:37:14Z</time>
      </trkpt>
      <trkpt lat="55.028098979964852" lon="26.612224979326129">
        <ele>215.47</ele>
        <time>2011-08-17T15:37:21Z</time>
      </trkpt>
      <trkpt lat="55.028052963316441" lon="26.612409967929125">
        <ele>215.47</ele>
        <time>2011-08-17T15:37:31Z</time>
      </trkpt>
      <trkpt lat="55.027916003018618" lon="26.612448021769524">
        <ele>215.47</ele>
        <time>2011-08-17T15:37:47Z</time>
      </trkpt>
      <trkpt lat="55.027823969721794" lon="26.612417008727789">
        <ele>214.99000000000001</ele>
        <time>2011-08-17T15:37:59Z</time>
      </trkpt>
      <trkpt lat="55.027781976386905" lon="26.612421032041311">
        <ele>215.47</ele>
        <time>2011-08-17T15:38:04Z</time>
      </trkpt>
      <trkpt lat="55.027729002758861" lon="26.612439975142479">
        <ele>215.47</ele>
        <time>2011-08-17T15:38:09Z</time>
      </trkpt>
      <trkpt lat="55.027625989168882" lon="26.612513987347484">
        <ele>215.47</ele>
        <time>2011-08-17T15:38:20Z</time>
      </trkpt>
      <trkpt lat="55.027458015829325" lon="26.612562015652657">
        <ele>215.94999999999999</ele>
        <time>2011-08-17T15:38:36Z</time>
      </trkpt>
      <trkpt lat="55.027313008904457" lon="26.612512981519103">
        <ele>215.47</ele>
        <time>2011-08-17T15:38:51Z</time>
      </trkpt>
      <trkpt lat="55.02714897505939" lon="26.612459002062678">
        <ele>216.43000000000001</ele>
        <time>2011-08-17T15:39:06Z</time>
      </trkpt>
      <trkpt lat="55.027088038623333" lon="26.612451961264014">
        <ele>216.91</ele>
        <time>2011-08-17T15:39:12Z</time>
      </trkpt>
      <trkpt lat="55.026913024485111" lon="26.612409967929125">
        <ele>216.91</ele>
        <time>2011-08-17T15:39:29Z</time>
      </trkpt>
      <trkpt lat="55.026726024225354" lon="26.612421032041311">
        <ele>217.40000000000001</ele>
        <time>2011-08-17T15:39:45Z</time>
      </trkpt>
      <trkpt lat="55.026542963460088" lon="26.612402005121112">
        <ele>216.91</ele>
        <time>2011-08-17T15:40:00Z</time>
      </trkpt>
      <trkpt lat="55.026321010664105" lon="26.612456990405917">
        <ele>217.40000000000001</ele>
        <time>2011-08-17T15:40:18Z</time>
      </trkpt>
      <trkpt lat="55.026108026504517" lon="26.612459002062678">
        <ele>217.88</ele>
        <time>2011-08-17T15:40:35Z</time>
      </trkpt>
      <trkpt lat="55.025932006537914" lon="26.612554974853992">
        <ele>217.40000000000001</ele>
        <time>2011-08-17T15:40:50Z</time>
      </trkpt>
      <trkpt lat="55.02587903290987" lon="26.612637033686042">
        <ele>217.88</ele>
        <time>2011-08-17T15:40:56Z</time>
      </trkpt>
      <trkpt lat="55.025692032650113" lon="26.612681960687041">
        <ele>217.88</ele>
        <time>2011-08-17T15:41:12Z</time>
      </trkpt>
      <trkpt lat="55.025508971884847" lon="26.612694030627608">
        <ele>218.36000000000001</ele>
        <time>2011-08-17T15:41:27Z</time>
      </trkpt>
      <trkpt lat="55.02532197162509" lon="26.612734012305737">
        <ele>217.88</ele>
        <time>2011-08-17T15:41:42Z</time>
      </trkpt>
      <trkpt lat="55.025165984407067" lon="26.612796960398555">
        <ele>216.91</ele>
        <time>2011-08-17T15:41:57Z</time>
      </trkpt>
      <trkpt lat="55.025143017992377" lon="26.612793020904064">
        <ele>210.66999999999999</ele>
        <time>2011-08-17T15:42:03Z</time>
      </trkpt>
      <trkpt lat="55.025143017992377" lon="26.612793020904064">
        <ele>215.47</ele>
        <time>2011-08-17T15:42:04Z</time>
      </trkpt>
      <trkpt lat="55.025143017992377" lon="26.612793020904064">
        <ele>217.40000000000001</ele>
        <time>2011-08-17T15:42:07Z</time>
      </trkpt>
      <trkpt lat="55.025143017992377" lon="26.612793020904064">
        <ele>215.47</ele>
        <time>2011-08-17T15:42:09Z</time>
      </trkpt>
      <trkpt lat="55.025143017992377" lon="26.612793020904064">
        <ele>217.40000000000001</ele>
        <time>2011-08-17T15:42:11Z</time>
      </trkpt>
      <trkpt lat="55.025143017992377" lon="26.612793020904064">
        <ele>216.91</ele>
        <time>2011-08-17T15:42:28Z</time>
      </trkpt>
      <trkpt lat="55.025065988302231" lon="26.612769970670342">
        <ele>216.91</ele>
        <time>2011-08-17T15:42:40Z</time>
      </trkpt>
      <trkpt lat="55.025035981088877" lon="26.612732000648975">
        <ele>216.91</ele>
        <time>2011-08-17T15:42:44Z</time>
      </trkpt>
      <trkpt lat="55.02499801106751" lon="26.612697970122099">
        <ele>216.43000000000001</ele>
        <time>2011-08-17T15:42:55Z</time>
      </trkpt>
      <trkpt lat="55.02499801106751" lon="26.612697970122099">
        <ele>216.91</ele>
        <time>2011-08-17T15:42:56Z</time>
      </trkpt>
      <trkpt lat="55.024883011355996" lon="26.61265597678721">
        <ele>216.91</ele>
        <time>2011-08-17T15:43:10Z</time>
      </trkpt>
      <trkpt lat="55.024775974452496" lon="26.612609960138798">
        <ele>217.88</ele>
        <time>2011-08-17T15:43:24Z</time>
      </trkpt>
      <trkpt lat="55.024615963920951" lon="26.612566038966179">
        <ele>218.36000000000001</ele>
        <time>2011-08-17T15:43:39Z</time>
      </trkpt>
      <trkpt lat="55.024467017501593" lon="26.612617000937462">
        <ele>218.36000000000001</ele>
        <time>2011-08-17T15:43:52Z</time>
      </trkpt>
      <trkpt lat="55.024265013635159" lon="26.612503007054329">
        <ele>217.88</ele>
        <time>2011-08-17T15:44:10Z</time>
      </trkpt>
      <trkpt lat="55.024154959246516" lon="26.612542988732457">
        <ele>217.40000000000001</ele>
        <time>2011-08-17T15:44:23Z</time>
      </trkpt>
      <trkpt lat="55.024078013375401" lon="26.612652037292719">
        <ele>217.88</ele>
        <time>2011-08-17T15:44:39Z</time>
      </trkpt>
      <trkpt lat="55.023982962593436" lon="26.612907014787197">
        <ele>217.88</ele>
        <time>2011-08-17T15:44:55Z</time>
      </trkpt>
      <trkpt lat="55.023808032274246" lon="26.613037018105388">
        <ele>217.88</ele>
        <time>2011-08-17T15:45:12Z</time>
      </trkpt>
      <trkpt lat="55.023617008700967" lon="26.613070964813232">
        <ele>216.91</ele>
        <time>2011-08-17T15:45:25Z</time>
      </trkpt>
      <trkpt lat="55.023192968219519" lon="26.613182025030255">
        <ele>216.91</ele>
        <time>2011-08-17T15:45:42Z</time>
      </trkpt>
      <trkpt lat="55.023009991273284" lon="26.613468015566468">
        <ele>215.94999999999999</ele>
        <time>2011-08-17T15:45:54Z</time>
      </trkpt>
      <trkpt lat="55.02278896048665" lon="26.613773033022881">
        <ele>215.94999999999999</ele>
        <time>2011-08-17T15:46:07Z</time>
      </trkpt>
      <trkpt lat="55.022652000188828" lon="26.614325987175107">
        <ele>213.55000000000001</ele>
        <time>2011-08-17T15:46:20Z</time>
      </trkpt>
      <trkpt lat="55.022629033774137" lon="26.614578031003475">
        <ele>214.50999999999999</ele>
        <time>2011-08-17T15:46:31Z</time>
      </trkpt>
      <trkpt lat="55.022632973268628" lon="26.614566966891289">
        <ele>214.03</ele>
        <time>2011-08-17T15:46:46Z</time>
      </trkpt>
      <trkpt lat="55.022610006853938" lon="26.614645002409816">
        <ele>214.03</ele>
        <time>2011-08-17T15:47:05Z</time>
      </trkpt>
      <trkpt lat="55.022495007142425" lon="26.614950019866228">
        <ele>213.55000000000001</ele>
        <time>2011-08-17T15:47:17Z</time>
      </trkpt>
      <trkpt lat="55.022297026589513" lon="26.615373976528645">
        <ele>212.11000000000001</ele>
        <time>2011-08-17T15:47:31Z</time>
      </trkpt>
      <trkpt lat="55.022266013547778" lon="26.61555896513164">
        <ele>211.63</ele>
        <time>2011-08-17T15:47:37Z</time>
      </trkpt>
      <trkpt lat="55.022330973297358" lon="26.615671031177044">
        <ele>211.63</ele>
        <time>2011-08-17T15:47:43Z</time>
      </trkpt>
      <trkpt lat="55.022372966632247" lon="26.6157509945333">
        <ele>212.11000000000001</ele>
        <time>2011-08-17T15:47:57Z</time>
      </trkpt>
      <trkpt lat="55.022372966632247" lon="26.6157509945333">
        <ele>211.63</ele>
        <time>2011-08-17T15:48:02Z</time>
      </trkpt>
      <trkpt lat="55.022372966632247" lon="26.6157509945333">
        <ele>205.38</ele>
        <time>2011-08-17T15:48:04Z</time>
      </trkpt>
      <trkpt lat="55.022372966632247" lon="26.6157509945333">
        <ele>208.74000000000001</ele>
        <time>2011-08-17T15:48:05Z</time>
      </trkpt>
      <trkpt lat="55.022372966632247" lon="26.6157509945333">
        <ele>213.06999999999999</ele>
        <time>2011-08-17T15:48:06Z</time>
      </trkpt>
      <trkpt lat="55.022372966632247" lon="26.6157509945333">
        <ele>207.30000000000001</ele>
        <time>2011-08-17T15:48:13Z</time>
      </trkpt>
      <trkpt lat="55.022372966632247" lon="26.6157509945333">
        <ele>214.50999999999999</ele>
        <time>2011-08-17T15:48:14Z</time>
      </trkpt>
      <trkpt lat="55.022372966632247" lon="26.6157509945333">
        <ele>210.19</ele>
        <time>2011-08-17T15:48:15Z</time>
      </trkpt>
      <trkpt lat="55.022372966632247" lon="26.6157509945333">
        <ele>211.63</ele>
        <time>2011-08-17T15:48:18Z</time>
      </trkpt>
      <trkpt lat="55.022372966632247" lon="26.615753006190062">
        <ele>211.63</ele>
        <time>2011-08-17T15:48:31Z</time>
      </trkpt>
      <trkpt lat="55.022391993552446" lon="26.615865994244814">
        <ele>207.30000000000001</ele>
        <time>2011-08-17T15:48:36Z</time>
      </trkpt>
      <trkpt lat="55.022396016865969" lon="26.615888960659504">
        <ele>211.63</ele>
        <time>2011-08-17T15:48:37Z</time>
      </trkpt>
      <trkpt lat="55.022453013807535" lon="26.616291040554643">
        <ele>212.11000000000001</ele>
        <time>2011-08-17T15:48:49Z</time>
      </trkpt>
      <trkpt lat="55.022319993004203" lon="26.616855980828404">
        <ele>212.11000000000001</ele>
        <time>2011-08-17T15:49:04Z</time>
      </trkpt>
      <trkpt lat="55.022155959159136" lon="26.617308016866446">
        <ele>213.55000000000001</ele>
        <time>2011-08-17T15:49:18Z</time>
      </trkpt>
      <trkpt lat="55.022083036601543" lon="26.61768201738596">
        <ele>213.06999999999999</ele>
        <time>2011-08-17T15:49:29Z</time>
      </trkpt>
      <trkpt lat="55.022064009681344" lon="26.618183003738523">
        <ele>213.55000000000001</ele>
        <time>2011-08-17T15:49:43Z</time>
      </trkpt>
      <trkpt lat="55.021866029128432" lon="26.618451979011297">
        <ele>213.06999999999999</ele>
        <time>2011-08-17T15:49:55Z</time>
      </trkpt>
      <trkpt lat="55.021586995571852" lon="26.61843697540462">
        <ele>213.55000000000001</ele>
        <time>2011-08-17T15:50:07Z</time>
      </trkpt>
      <trkpt lat="55.02123998478055" lon="26.618304960429668">
        <ele>212.59</ele>
        <time>2011-08-17T15:50:21Z</time>
      </trkpt>
      <trkpt lat="55.021140994504094" lon="26.618279982358217">
        <ele>212.59</ele>
        <time>2011-08-17T15:50:25Z</time>
      </trkpt>
      <trkpt lat="55.020808987319469" lon="26.61828400567174">
        <ele>213.06999999999999</ele>
        <time>2011-08-17T15:50:39Z</time>
      </trkpt>
      <trkpt lat="55.020507993176579" lon="26.618244023993611">
        <ele>214.50999999999999</ele>
        <time>2011-08-17T15:50:53Z</time>
      </trkpt>
      <trkpt lat="55.020148996263742" lon="26.618190966546535">
        <ele>213.55000000000001</ele>
        <time>2011-08-17T15:51:08Z</time>
      </trkpt>
      <trkpt lat="55.020091999322176" lon="26.618258021771908">
        <ele>213.06999999999999</ele>
        <time>2011-08-17T15:51:12Z</time>
      </trkpt>
      <trkpt lat="55.0200579687953" lon="26.618374027311802">
        <ele>212.11000000000001</ele>
        <time>2011-08-17T15:51:19Z</time>
      </trkpt>
      <trkpt lat="55.020072972401977" lon="26.618530014529824">
        <ele>211.15000000000001</ele>
        <time>2011-08-17T15:51:32Z</time>
      </trkpt>
      <trkpt lat="55.020091999322176" lon="26.618748027831316">
        <ele>211.15000000000001</ele>
        <time>2011-08-17T15:51:47Z</time>
      </trkpt>
      <trkpt lat="55.020087976008654" lon="26.618874007835984">
        <ele>211.63</ele>
        <time>2011-08-17T15:51:53Z</time>
      </trkpt>
      <trkpt lat="55.019988985732198" lon="26.619231998920441">
        <ele>212.11000000000001</ele>
        <time>2011-08-17T15:52:11Z</time>
      </trkpt>
      <trkpt lat="55.019912961870432" lon="26.619489993900061">
        <ele>213.55000000000001</ele>
        <time>2011-08-17T15:52:27Z</time>
      </trkpt>
      <trkpt lat="55.019858982414007" lon="26.619768021628261">
        <ele>213.55000000000001</ele>
        <time>2011-08-17T15:52:41Z</time>
      </trkpt>
      <trkpt lat="55.019816989079118" lon="26.619887966662645">
        <ele>213.55000000000001</ele>
        <time>2011-08-17T15:52:48Z</time>
      </trkpt>
      <trkpt lat="55.019755968824029" lon="26.620142022147775">
        <ele>213.55000000000001</ele>
        <time>2011-08-17T15:53:07Z</time>
      </trkpt>
      <trkpt lat="55.019722022116184" lon="26.620201030746102">
        <ele>212.59</ele>
        <time>2011-08-17T15:53:13Z</time>
      </trkpt>
      <trkpt lat="55.019595958292484" lon="26.620192984119058">
        <ele>212.11000000000001</ele>
        <time>2011-08-17T15:53:25Z</time>
      </trkpt>
      <trkpt lat="55.019553964957595" lon="26.620164988562465">
        <ele>211.63</ele>
        <time>2011-08-17T15:53:39Z</time>
      </trkpt>
      <trkpt lat="55.019306028261781" lon="26.620145961642265">
        <ele>209.69999999999999</ele>
        <time>2011-08-17T15:53:51Z</time>
      </trkpt>
      <trkpt lat="55.019005034118891" lon="26.620116960257292">
        <ele>208.25999999999999</ele>
        <time>2011-08-17T15:54:03Z</time>
      </trkpt>
      <trkpt lat="55.018924986943603" lon="26.620105979964137">
        <ele>208.25999999999999</ele>
        <time>2011-08-17T15:54:09Z</time>
      </trkpt>
      <trkpt lat="55.018863966688514" lon="26.620127018541098">
        <ele>208.74000000000001</ele>
        <time>2011-08-17T15:54:12Z</time>
      </trkpt>
      <trkpt lat="55.018841000273824" lon="26.620294991880655">
        <ele>208.74000000000001</ele>
        <time>2011-08-17T15:54:18Z</time>
      </trkpt>
      <trkpt lat="55.018845023587346" lon="26.620474029332399">
        <ele>208.74000000000001</ele>
        <time>2011-08-17T15:54:24Z</time>
      </trkpt>
      <trkpt lat="55.018821973353624" lon="26.620560027658939">
        <ele>208.74000000000001</ele>
        <time>2011-08-17T15:54:37Z</time>
      </trkpt>
      <trkpt lat="55.018818033859134" lon="26.620566984638572">
        <ele>208.74000000000001</ele>
        <time>2011-08-17T15:54:54Z</time>
      </trkpt>
      <trkpt lat="55.018821973353624" lon="26.620560027658939">
        <ele>208.74000000000001</ele>
        <time>2011-08-17T15:55:25Z</time>
      </trkpt>
      <trkpt lat="55.018821973353624" lon="26.620560027658939">
        <ele>208.74000000000001</ele>
        <time>2011-08-17T15:55:57Z</time>
      </trkpt>
      <trkpt lat="55.018821973353624" lon="26.620560027658939">
        <ele>208.74000000000001</ele>
        <time>2011-08-17T15:56:33Z</time>
      </trkpt>
      <trkpt lat="55.018821973353624" lon="26.620562039315701">
        <ele>208.25999999999999</ele>
        <time>2011-08-17T15:57:10Z</time>
      </trkpt>
      <trkpt lat="55.018821973353624" lon="26.620560027658939">
        <ele>208.74000000000001</ele>
        <time>2011-08-17T15:57:43Z</time>
      </trkpt>
      <trkpt lat="55.018818033859134" lon="26.620556004345417">
        <ele>208.25999999999999</ele>
        <time>2011-08-17T15:58:17Z</time>
      </trkpt>
      <trkpt lat="55.018814010545611" lon="26.620558016002178">
        <ele>207.78</ele>
        <time>2011-08-17T15:58:55Z</time>
      </trkpt>
      <trkpt lat="55.018814010545611" lon="26.620551981031895">
        <ele>208.74000000000001</ele>
        <time>2011-08-17T15:59:35Z</time>
      </trkpt>
      <trkpt lat="55.018814010545611" lon="26.620556004345417">
        <ele>208.25999999999999</ele>
        <time>2011-08-17T16:00:10Z</time>
      </trkpt>
      <trkpt lat="55.018809987232089" lon="26.620556004345417">
        <ele>208.74000000000001</ele>
        <time>2011-08-17T16:00:48Z</time>
      </trkpt>
      <trkpt lat="55.018809987232089" lon="26.620556004345417">
        <ele>208.74000000000001</ele>
        <time>2011-08-17T16:01:14Z</time>
      </trkpt>
      <trkpt lat="55.018818033859134" lon="26.620558016002178">
        <ele>209.22</ele>
        <time>2011-08-17T16:01:48Z</time>
      </trkpt>
      <trkpt lat="55.018818033859134" lon="26.620551981031895">
        <ele>208.74000000000001</ele>
        <time>2011-08-17T16:02:24Z</time>
      </trkpt>
      <trkpt lat="55.018821973353624" lon="26.620546029880643">
        <ele>208.74000000000001</ele>
        <time>2011-08-17T16:02:52Z</time>
      </trkpt>
      <trkpt lat="55.018818033859134" lon="26.620546029880643">
        <ele>208.74000000000001</ele>
        <time>2011-08-17T16:03:21Z</time>
      </trkpt>
      <trkpt lat="55.018818033859134" lon="26.620546029880643">
        <ele>208.74000000000001</ele>
        <time>2011-08-17T16:03:51Z</time>
      </trkpt>
      <trkpt lat="55.018829014152288" lon="26.62058399990201">
        <ele>208.25999999999999</ele>
        <time>2011-08-17T16:04:12Z</time>
      </trkpt>
      <trkpt lat="55.018833037465811" lon="26.620630016550422">
        <ele>208.74000000000001</ele>
        <time>2011-08-17T16:04:18Z</time>
      </trkpt>
      <trkpt lat="55.018836976960301" lon="26.621134020388126">
        <ele>208.25999999999999</ele>
        <time>2011-08-17T16:04:32Z</time>
      </trkpt>
      <trkpt lat="55.018818033859134" lon="26.62185100838542">
        <ele>209.22</ele>
        <time>2011-08-17T16:04:47Z</time>
      </trkpt>
      <trkpt lat="55.018805963918567" lon="26.622297009453177">
        <ele>210.19</ele>
        <time>2011-08-17T16:04:58Z</time>
      </trkpt>
      <trkpt lat="55.018799006938934" lon="26.623060014098883">
        <ele>211.63</ele>
        <time>2011-08-17T16:05:16Z</time>
      </trkpt>
      <trkpt lat="55.018761036917567" lon="26.623739032074809">
        <ele>211.63</ele>
        <time>2011-08-17T16:05:30Z</time>
      </trkpt>
      <trkpt lat="55.018763970583677" lon="26.624453002586961">
        <ele>211.63</ele>
        <time>2011-08-17T16:05:44Z</time>
      </trkpt>
      <trkpt lat="55.018737986683846" lon="26.625153981149197">
        <ele>208.25999999999999</ele>
        <time>2011-08-17T16:05:56Z</time>
      </trkpt>
      <trkpt lat="55.01874502748251" lon="26.625438965857029">
        <ele>208.25999999999999</ele>
        <time>2011-08-17T16:05:59Z</time>
      </trkpt>
      <trkpt lat="55.018722983077168" lon="26.626231977716088">
        <ele>206.34</ele>
        <time>2011-08-17T16:06:07Z</time>
      </trkpt>
      <trkpt lat="55.018710996955633" lon="26.626924993470311">
        <ele>206.81999999999999</ele>
        <time>2011-08-17T16:06:17Z</time>
      </trkpt>
      <trkpt lat="55.018688030540943" lon="26.627152981236577">
        <ele>206.34</ele>
        <time>2011-08-17T16:06:20Z</time>
      </trkpt>
      <trkpt lat="55.018688030540943" lon="26.627344004809856">
        <ele>205.86000000000001</ele>
        <time>2011-08-17T16:06:22Z</time>
      </trkpt>
      <trkpt lat="55.018733963370323" lon="26.628390988335013">
        <ele>204.41999999999999</ele>
        <time>2011-08-17T16:06:33Z</time>
      </trkpt>
      <trkpt lat="55.01879096031189" lon="26.629486000165343">
        <ele>205.38</ele>
        <time>2011-08-17T16:06:49Z</time>
      </trkpt>
      <trkpt lat="55.018715020269156" lon="26.63023198954761">
        <ele>205.86000000000001</ele>
        <time>2011-08-17T16:07:02Z</time>
      </trkpt>
      <trkpt lat="55.018311012536287" lon="26.630822997540236">
        <ele>207.30000000000001</ele>
        <time>2011-08-17T16:07:17Z</time>
      </trkpt>
      <trkpt lat="55.018066009506583" lon="26.631603017449379">
        <ele>209.69999999999999</ele>
        <time>2011-08-17T16:07:33Z</time>
      </trkpt>
      <trkpt lat="55.017853025346994" lon="26.632511029019952">
        <ele>209.22</ele>
        <time>2011-08-17T16:07:49Z</time>
      </trkpt>
      <trkpt lat="55.017406018450856" lon="26.633437983691692">
        <ele>208.74000000000001</ele>
        <time>2011-08-17T16:08:06Z</time>
      </trkpt>
      <trkpt lat="55.017112987115979" lon="26.633978029713035">
        <ele>205.86000000000001</ele>
        <time>2011-08-17T16:08:17Z</time>
      </trkpt>
      <trkpt lat="55.016945013776422" lon="26.634202999994159">
        <ele>203.94</ele>
        <time>2011-08-17T16:08:21Z</time>
      </trkpt>
      <trkpt lat="55.016632033511996" lon="26.634730976074934">
        <ele>200.56999999999999</ele>
        <time>2011-08-17T16:08:30Z</time>
      </trkpt>
      <trkpt lat="55.016437992453575" lon="26.63508603349328">
        <ele>200.09</ele>
        <time>2011-08-17T16:08:37Z</time>
      </trkpt>
      <trkpt lat="55.016243029385805" lon="26.635571010410786">
        <ele>199.13</ele>
        <time>2011-08-17T16:08:44Z</time>
      </trkpt>
      <trkpt lat="55.015788981691003" lon="26.636554962024093">
        <ele>197.21000000000001</ele>
        <time>2011-08-17T16:08:59Z</time>
      </trkpt>
      <trkpt lat="55.015647998079658" lon="26.63678202778101">
        <ele>196.72999999999999</ele>
        <time>2011-08-17T16:09:03Z</time>
      </trkpt>
      <trkpt lat="55.015014996752143" lon="26.637849966064095">
        <ele>193.36000000000001</ele>
        <time>2011-08-17T16:09:18Z</time>
      </trkpt>
      <trkpt lat="55.014922963455319" lon="26.638004025444388">
        <ele>192.40000000000001</ele>
        <time>2011-08-17T16:09:20Z</time>
      </trkpt>
      <trkpt lat="55.014750966802239" lon="26.638250034302473">
        <ele>192.40000000000001</ele>
        <time>2011-08-17T16:09:24Z</time>
      </trkpt>
      <trkpt lat="55.014396999031305" lon="26.638649012893438">
        <ele>190.96000000000001</ele>
        <time>2011-08-17T16:09:32Z</time>
      </trkpt>
      <trkpt lat="55.01425601541996" lon="26.638871971517801">
        <ele>190.96000000000001</ele>
        <time>2011-08-17T16:09:36Z</time>
      </trkpt>
      <trkpt lat="55.014126012101769" lon="26.639075987040997">
        <ele>190.47999999999999</ele>
        <time>2011-08-17T16:09:40Z</time>
      </trkpt>
      <trkpt lat="55.013877991586924" lon="26.639533974230289">
        <ele>189.03999999999999</ele>
        <time>2011-08-17T16:09:49Z</time>
      </trkpt>
      <trkpt lat="55.013840021565557" lon="26.639895988628268">
        <ele>188.56</ele>
        <time>2011-08-17T16:09:54Z</time>
      </trkpt>
      <trkpt lat="55.013855025172234" lon="26.640247022733092">
        <ele>183.75</ele>
        <time>2011-08-17T16:10:04Z</time>
      </trkpt>
      <trkpt lat="55.013855025172234" lon="26.640247022733092">
        <ele>193.36000000000001</ele>
        <time>2011-08-17T16:10:05Z</time>
      </trkpt>
      <trkpt lat="55.013855025172234" lon="26.640247022733092">
        <ele>187.59</ele>
        <time>2011-08-17T16:10:06Z</time>
      </trkpt>
      <trkpt lat="55.013855025172234" lon="26.640247022733092">
        <ele>192.40000000000001</ele>
        <time>2011-08-17T16:10:07Z</time>
      </trkpt>
      <trkpt lat="55.013855025172234" lon="26.640247022733092">
        <ele>182.78999999999999</ele>
        <time>2011-08-17T16:10:08Z</time>
      </trkpt>
      <trkpt lat="55.013855025172234" lon="26.640247022733092">
        <ele>184.22999999999999</ele>
        <time>2011-08-17T16:10:09Z</time>
      </trkpt>
      <trkpt lat="55.013855025172234" lon="26.640247022733092">
        <ele>187.11000000000001</ele>
        <time>2011-08-17T16:10:12Z</time>
      </trkpt>
      <trkpt lat="55.013846978545189" lon="26.64026303216815">
        <ele>187.59</ele>
        <time>2011-08-17T16:10:13Z</time>
      </trkpt>
      <trkpt lat="55.013828035444021" lon="26.640408039093018">
        <ele>187.11000000000001</ele>
        <time>2011-08-17T16:10:18Z</time>
      </trkpt>
      <trkpt lat="55.013862987980247" lon="26.640716996043921">
        <ele>189.03999999999999</ele>
        <time>2011-08-17T16:10:30Z</time>
      </trkpt>
      <trkpt lat="55.013862987980247" lon="26.640762006863952">
        <ele>188.56</ele>
        <time>2011-08-17T16:10:49Z</time>
      </trkpt>
      <trkpt lat="55.013862987980247" lon="26.640762006863952">
        <ele>188.08000000000001</ele>
        <time>2011-08-17T16:11:09Z</time>
      </trkpt>
      <trkpt lat="55.013858964666724" lon="26.640744991600513">
        <ele>188.08000000000001</ele>
        <time>2011-08-17T16:11:11Z</time>
      </trkpt>
      <trkpt lat="55.013720998540521" lon="26.640390018001199">
        <ele>186.63</ele>
        <time>2011-08-17T16:11:22Z</time>
      </trkpt>
      <trkpt lat="55.013446994125843" lon="26.640606019645929">
        <ele>185.66999999999999</ele>
        <time>2011-08-17T16:11:32Z</time>
      </trkpt>
      <trkpt lat="55.013114986941218" lon="26.640837024897337">
        <ele>185.66999999999999</ele>
        <time>2011-08-17T16:11:44Z</time>
      </trkpt>
      <trkpt lat="55.012806029990315" lon="26.640754966065288">
        <ele>186.15000000000001</ele>
        <time>2011-08-17T16:11:55Z</time>
      </trkpt>
      <trkpt lat="55.012351982295513" lon="26.640825038775802">
        <ele>185.66999999999999</ele>
        <time>2011-08-17T16:12:07Z</time>
      </trkpt>
      <trkpt lat="55.011836998164654" lon="26.640949007123709">
        <ele>184.71000000000001</ele>
        <time>2011-08-17T16:12:17Z</time>
      </trkpt>
      <trkpt lat="55.011630970984697" lon="26.640798971056938">
        <ele>184.22999999999999</ele>
        <time>2011-08-17T16:12:22Z</time>
      </trkpt>
      <trkpt lat="55.011386973783374" lon="26.640340983867645">
        <ele>184.71000000000001</ele>
        <time>2011-08-17T16:12:30Z</time>
      </trkpt>
      <trkpt lat="55.011001992970705" lon="26.639385027810931">
        <ele>184.22999999999999</ele>
        <time>2011-08-17T16:12:45Z</time>
      </trkpt>
      <trkpt lat="55.010627992451191" lon="26.638326980173588">
        <ele>184.22999999999999</ele>
        <time>2011-08-17T16:13:01Z</time>
      </trkpt>
      <trkpt lat="55.010506035760045" lon="26.637984998524189">
        <ele>183.75</ele>
        <time>2011-08-17T16:13:06Z</time>
      </trkpt>
      <trkpt lat="55.010357005521655" lon="26.637762039899826">
        <ele>183.75</ele>
        <time>2011-08-17T16:13:10Z</time>
      </trkpt>
      <trkpt lat="55.01017402857542" lon="26.637560036033392">
        <ele>183.75</ele>
        <time>2011-08-17T16:13:15Z</time>
      </trkpt>
      <trkpt lat="55.010104961693287" lon="26.637472026050091">
        <ele>183.75</ele>
        <time>2011-08-17T16:13:17Z</time>
      </trkpt>
      <trkpt lat="55.009932965040207" lon="26.637096013873816">
        <ele>183.75</ele>
        <time>2011-08-17T16:13:23Z</time>
      </trkpt>
      <trkpt lat="55.009692991152406" lon="26.636576000601053">
        <ele>185.19</ele>
        <time>2011-08-17T16:13:33Z</time>
      </trkpt>
      <trkpt lat="55.009514037519693" lon="26.636190013960004">
        <ele>186.63</ele>
        <time>2011-08-17T16:13:44Z</time>
      </trkpt>
      <trkpt lat="55.009318990632892" lon="26.635618032887578">
        <ele>187.11000000000001</ele>
        <time>2011-08-17T16:13:57Z</time>
      </trkpt>
      <trkpt lat="55.009055966511369" lon="26.634983019903302">
        <ele>187.11000000000001</ele>
        <time>2011-08-17T16:14:10Z</time>
      </trkpt>
      <trkpt lat="55.00882001593709" lon="26.634308025240898">
        <ele>187.59</ele>
        <time>2011-08-17T16:14:26Z</time>
      </trkpt>
      <trkpt lat="55.00847602263093" lon="26.633508978411555">
        <ele>185.66999999999999</ele>
        <time>2011-08-17T16:14:40Z</time>
      </trkpt>
      <trkpt lat="55.008202018216252" lon="26.633015032857656">
        <ele>184.71000000000001</ele>
        <time>2011-08-17T16:14:52Z</time>
      </trkpt>
      <trkpt lat="55.007865987718105" lon="26.632575988769531">
        <ele>183.75</ele>
        <time>2011-08-17T16:15:03Z</time>
      </trkpt>
      <trkpt lat="55.007469020783901" lon="26.632430981844664">
        <ele>183.27000000000001</ele>
        <time>2011-08-17T16:15:14Z</time>
      </trkpt>
      <trkpt lat="55.007179006934166" lon="26.632720995694399">
        <ele>182.31</ele>
        <time>2011-08-17T16:15:25Z</time>
      </trkpt>
      <trkpt lat="55.006869966164231" lon="26.633176971226931">
        <ele>181.34999999999999</ele>
        <time>2011-08-17T16:15:37Z</time>
      </trkpt>
      <trkpt lat="55.006770975887775" lon="26.633334970101714">
        <ele>180.87</ele>
        <time>2011-08-17T16:15:47Z</time>
      </trkpt>
      <trkpt lat="55.006759995594621" lon="26.633349973708391">
        <ele>180.87</ele>
        <time>2011-08-17T16:15:49Z</time>
      </trkpt>
      <trkpt lat="55.006724959239364" lon="26.633476037532091">
        <ele>180.87</ele>
        <time>2011-08-17T16:15:54Z</time>
      </trkpt>
      <trkpt lat="55.006701992824674" lon="26.633572010323405">
        <ele>180.87</ele>
        <time>2011-08-17T16:16:08Z</time>
      </trkpt>
      <trkpt lat="55.006701992824674" lon="26.633572010323405">
        <ele>176.06</ele>
        <time>2011-08-17T16:16:16Z</time>
      </trkpt>
      <trkpt lat="55.006701992824674" lon="26.633572010323405">
        <ele>177.5</ele>
        <time>2011-08-17T16:16:17Z</time>
      </trkpt>
      <trkpt lat="55.006701992824674" lon="26.633572010323405">
        <ele>183.27000000000001</ele>
        <time>2011-08-17T16:16:18Z</time>
      </trkpt>
      <trkpt lat="55.006701992824674" lon="26.633572010323405">
        <ele>181.34999999999999</ele>
        <time>2011-08-17T16:16:19Z</time>
      </trkpt>
      <trkpt lat="55.006701992824674" lon="26.633572010323405">
        <ele>174.13999999999999</ele>
        <time>2011-08-17T16:16:22Z</time>
      </trkpt>
      <trkpt lat="55.006701992824674" lon="26.633572010323405">
        <ele>182.78999999999999</ele>
        <time>2011-08-17T16:16:23Z</time>
      </trkpt>
      <trkpt lat="55.006701992824674" lon="26.633572010323405">
        <ele>177.02000000000001</ele>
        <time>2011-08-17T16:16:25Z</time>
      </trkpt>
      <trkpt lat="55.006701992824674" lon="26.633572010323405">
        <ele>181.83000000000001</ele>
        <time>2011-08-17T16:16:26Z</time>
      </trkpt>
      <trkpt lat="55.006701992824674" lon="26.633572010323405">
        <ele>174.13999999999999</ele>
        <time>2011-08-17T16:16:39Z</time>
      </trkpt>
      <trkpt lat="55.006701992824674" lon="26.633572010323405">
        <ele>179.90000000000001</ele>
        <time>2011-08-17T16:16:40Z</time>
      </trkpt>
      <trkpt lat="55.006701992824674" lon="26.633572010323405">
        <ele>181.34999999999999</ele>
        <time>2011-08-17T16:17:10Z</time>
      </trkpt>
      <trkpt lat="55.006698975339532" lon="26.633577039465308">
        <ele>184.71000000000001</ele>
        <time>2011-08-17T16:17:44Z</time>
      </trkpt>
      <trkpt lat="55.006698975339532" lon="26.633577039465308">
        <ele>184.71000000000001</ele>
        <time>2011-08-17T16:17:45Z</time>
      </trkpt>
      <trkpt lat="55.006698975339532" lon="26.633577039465308">
        <ele>177.5</ele>
        <time>2011-08-17T16:17:46Z</time>
      </trkpt>
      <trkpt lat="55.006698975339532" lon="26.633577039465308">
        <ele>181.83000000000001</ele>
        <time>2011-08-17T16:17:47Z</time>
      </trkpt>
      <trkpt lat="55.006698975339532" lon="26.633577039465308">
        <ele>177.5</ele>
        <time>2011-08-17T16:17:50Z</time>
      </trkpt>
      <trkpt lat="55.006698975339532" lon="26.633577039465308">
        <ele>181.83000000000001</ele>
        <time>2011-08-17T16:17:51Z</time>
      </trkpt>
      <trkpt lat="55.006698975339532" lon="26.633577039465308">
        <ele>181.83000000000001</ele>
        <time>2011-08-17T16:17:52Z</time>
      </trkpt>
      <trkpt lat="55.006698975339532" lon="26.633572010323405">
        <ele>186.63</ele>
        <time>2011-08-17T16:18:12Z</time>
      </trkpt>
      <trkpt lat="55.006698975339532" lon="26.633572010323405">
        <ele>181.83000000000001</ele>
        <time>2011-08-17T16:18:13Z</time>
      </trkpt>
      <trkpt lat="55.006713978946209" lon="26.633563963696361">
        <ele>181.34999999999999</ele>
        <time>2011-08-17T16:18:28Z</time>
      </trkpt>
      <trkpt lat="55.006782962009311" lon="26.633341005071998">
        <ele>178.94</ele>
        <time>2011-08-17T16:18:35Z</time>
      </trkpt>
      <trkpt lat="55.006988989189267" lon="26.633019978180528">
        <ele>181.34999999999999</ele>
        <time>2011-08-17T16:18:48Z</time>
      </trkpt>
      <trkpt lat="55.007339017465711" lon="26.632476998493075">
        <ele>183.27000000000001</ele>
        <time>2011-08-17T16:19:04Z</time>
      </trkpt>
      <trkpt lat="55.007590977475047" lon="26.632355041801929">
        <ele>183.27000000000001</ele>
        <time>2011-08-17T16:19:16Z</time>
      </trkpt>
      <trkpt lat="55.007587037980556" lon="26.632305001839995">
        <ele>183.75</ele>
        <time>2011-08-17T16:19:26Z</time>
      </trkpt>
      <trkpt lat="55.007572034373879" lon="26.632287986576557">
        <ele>182.78999999999999</ele>
        <time>2011-08-17T16:19:29Z</time>
      </trkpt>
      <trkpt lat="55.007511014118791" lon="26.632118001580238">
        <ele>183.75</ele>
        <time>2011-08-17T16:19:35Z</time>
      </trkpt>
      <trkpt lat="55.007458040490746" lon="26.63147896528244">
        <ele>185.19</ele>
        <time>2011-08-17T16:19:50Z</time>
      </trkpt>
      <trkpt lat="55.007282020524144" lon="26.630908995866776">
        <ele>186.15000000000001</ele>
        <time>2011-08-17T16:20:04Z</time>
      </trkpt>
      <trkpt lat="55.007277997210622" lon="26.630904972553253">
        <ele>185.66999999999999</ele>
        <time>2011-08-17T16:20:15Z</time>
      </trkpt>
      <trkpt lat="55.007087979465723" lon="26.630766000598669">
        <ele>184.71000000000001</ele>
        <time>2011-08-17T16:20:25Z</time>
      </trkpt>
      <trkpt lat="55.006625968962908" lon="26.630542958155274">
        <ele>184.22999999999999</ele>
        <time>2011-08-17T16:20:40Z</time>
      </trkpt>
      <trkpt lat="55.006236964836717" lon="26.630096035078168">
        <ele>182.31</ele>
        <time>2011-08-17T16:20:53Z</time>
      </trkpt>
      <trkpt lat="55.005881991237402" lon="26.629745000973344">
        <ele>182.31</ele>
        <time>2011-08-17T16:21:05Z</time>
      </trkpt>
      <trkpt lat="55.005805967375636" lon="26.629613991826773">
        <ele>182.31</ele>
        <time>2011-08-17T16:21:09Z</time>
      </trkpt>
      <trkpt lat="55.005679987370968" lon="26.629074029624462">
        <ele>182.78999999999999</ele>
        <time>2011-08-17T16:21:22Z</time>
      </trkpt>
      <trkpt lat="55.005569010972977" lon="26.62868301384151">
        <ele>183.75</ele>
        <time>2011-08-17T16:21:32Z</time>
      </trkpt>
      <trkpt lat="55.005416963249445" lon="26.628124024719">
        <ele>186.15000000000001</ele>
        <time>2011-08-17T16:21:46Z</time>
      </trkpt>
      <trkpt lat="55.005317972972989" lon="26.627621026709676">
        <ele>186.15000000000001</ele>
        <time>2011-08-17T16:22:00Z</time>
      </trkpt>
      <trkpt lat="55.005317972972989" lon="26.627621026709676">
        <ele>189.52000000000001</ele>
        <time>2011-08-17T16:22:08Z</time>
      </trkpt>
      <trkpt lat="55.005317972972989" lon="26.627621026709676">
        <ele>186.63</ele>
        <time>2011-08-17T16:22:09Z</time>
      </trkpt>
      <trkpt lat="55.005317972972989" lon="26.627621026709676">
        <ele>183.75</ele>
        <time>2011-08-17T16:22:10Z</time>
      </trkpt>
      <trkpt lat="55.005317972972989" lon="26.627621026709676">
        <ele>187.59</ele>
        <time>2011-08-17T16:22:12Z</time>
      </trkpt>
      <trkpt lat="55.005317972972989" lon="26.627621026709676">
        <ele>180.87</ele>
        <time>2011-08-17T16:22:23Z</time>
      </trkpt>
      <trkpt lat="55.005317972972989" lon="26.627621026709676">
        <ele>187.11000000000001</ele>
        <time>2011-08-17T16:22:24Z</time>
      </trkpt>
      <trkpt lat="55.005317972972989" lon="26.627621026709676">
        <ele>181.83000000000001</ele>
        <time>2011-08-17T16:22:28Z</time>
      </trkpt>
      <trkpt lat="55.005317972972989" lon="26.627621026709676">
        <ele>187.11000000000001</ele>
        <time>2011-08-17T16:22:29Z</time>
      </trkpt>
      <trkpt lat="55.005317972972989" lon="26.627621026709676">
        <ele>183.75</ele>
        <time>2011-08-17T16:22:33Z</time>
      </trkpt>
      <trkpt lat="55.005317972972989" lon="26.627621026709676">
        <ele>186.63</ele>
        <time>2011-08-17T16:22:39Z</time>
      </trkpt>
      <trkpt lat="55.005317972972989" lon="26.627621026709676">
        <ele>186.15000000000001</ele>
        <time>2011-08-17T16:22:43Z</time>
      </trkpt>
      <trkpt lat="55.005272040143609" lon="26.62745900452137">
        <ele>185.66999999999999</ele>
        <time>2011-08-17T16:22:50Z</time>
      </trkpt>
      <trkpt lat="55.005226023495197" lon="26.627245014533401">
        <ele>186.15000000000001</ele>
        <time>2011-08-17T16:23:02Z</time>
      </trkpt>
      <trkpt lat="55.005180006846786" lon="26.626957012340426">
        <ele>185.66999999999999</ele>
        <time>2011-08-17T16:23:13Z</time>
      </trkpt>
      <trkpt lat="55.005099959671497" lon="26.626435993239284">
        <ele>185.19</ele>
        <time>2011-08-17T16:23:25Z</time>
      </trkpt>
      <trkpt lat="55.005015973001719" lon="26.625916985794902">
        <ele>186.15000000000001</ele>
        <time>2011-08-17T16:23:37Z</time>
      </trkpt>
      <trkpt lat="55.004864009097219" lon="26.625174013897777">
        <ele>187.11000000000001</ele>
        <time>2011-08-17T16:23:55Z</time>
      </trkpt>
      <trkpt lat="55.004696035757661" lon="26.624825997278094">
        <ele>186.63</ele>
        <time>2011-08-17T16:24:07Z</time>
      </trkpt>
      <trkpt lat="55.004681032150984" lon="26.624824991449714">
        <ele>186.63</ele>
        <time>2011-08-17T16:24:21Z</time>
      </trkpt>
      <trkpt lat="55.004639038816094" lon="26.624786015599966">
        <ele>186.63</ele>
        <time>2011-08-17T16:24:34Z</time>
      </trkpt>
      <trkpt lat="55.004615988582373" lon="26.624714015051723">
        <ele>186.63</ele>
        <time>2011-08-17T16:24:43Z</time>
      </trkpt>
      <trkpt lat="55.004584975540638" lon="26.624556016176939">
        <ele>187.11000000000001</ele>
        <time>2011-08-17T16:24:57Z</time>
      </trkpt>
      <trkpt lat="55.004584975540638" lon="26.624476974830031">
        <ele>187.11000000000001</ele>
        <time>2011-08-17T16:25:11Z</time>
      </trkpt>
      <trkpt lat="55.00458899885416" lon="26.624463982880116">
        <ele>187.59</ele>
        <time>2011-08-17T16:25:22Z</time>
      </trkpt>
      <trkpt lat="55.00460802577436" lon="26.624252004548907">
        <ele>187.11000000000001</ele>
        <time>2011-08-17T16:25:28Z</time>
      </trkpt>
      <trkpt lat="55.004547005519271" lon="26.623640041798353">
        <ele>188.56</ele>
        <time>2011-08-17T16:25:42Z</time>
      </trkpt>
      <trkpt lat="55.004298985004425" lon="26.623577009886503">
        <ele>189.03999999999999</ele>
        <time>2011-08-17T16:25:53Z</time>
      </trkpt>
      <trkpt lat="55.003863964229822" lon="26.623658984899521">
        <ele>188.08000000000001</ele>
        <time>2011-08-17T16:26:07Z</time>
      </trkpt>
      <trkpt lat="55.003219982609153" lon="26.623799968510866">
        <ele>185.66999999999999</ele>
        <time>2011-08-17T16:26:23Z</time>
      </trkpt>
      <trkpt lat="55.002833995968103" lon="26.623865012079477">
        <ele>186.15000000000001</ele>
        <time>2011-08-17T16:26:34Z</time>
      </trkpt>
      <trkpt lat="55.002235025167465" lon="26.623980011790991">
        <ele>188.08000000000001</ele>
        <time>2011-08-17T16:26:50Z</time>
      </trkpt>
      <trkpt lat="55.001868987455964" lon="26.62404103204608">
        <ele>187.11000000000001</ele>
        <time>2011-08-17T16:27:01Z</time>
      </trkpt>
      <trkpt lat="55.001681987196207" lon="26.624056035652757">
        <ele>186.15000000000001</ele>
        <time>2011-08-17T16:27:06Z</time>
      </trkpt>
      <trkpt lat="55.001479983329773" lon="26.624125018715858">
        <ele>186.15000000000001</ele>
        <time>2011-08-17T16:27:11Z</time>
      </trkpt>
      <trkpt lat="55.001255013048649" lon="26.62421596236527">
        <ele>186.15000000000001</ele>
        <time>2011-08-17T16:27:17Z</time>
      </trkpt>
      <trkpt lat="55.000777998939157" lon="26.624331967905164">
        <ele>185.19</ele>
        <time>2011-08-17T16:27:29Z</time>
      </trkpt>
      <trkpt lat="55.000487985089421" lon="26.624413020908833">
        <ele>184.71000000000001</ele>
        <time>2011-08-17T16:27:35Z</time>
      </trkpt>
      <trkpt lat="55.000282041728497" lon="26.624448979273438">
        <ele>185.19</ele>
        <time>2011-08-17T16:27:40Z</time>
      </trkpt>
      <trkpt lat="54.999679969623685" lon="26.624564984813333">
        <ele>186.15000000000001</ele>
        <time>2011-08-17T16:27:55Z</time>
      </trkpt>
      <trkpt lat="54.99904596246779" lon="26.624672021716833">
        <ele>183.75</ele>
        <time>2011-08-17T16:28:07Z</time>
      </trkpt>
      <trkpt lat="54.998901039361954" lon="26.624738993123174">
        <ele>183.75</ele>
        <time>2011-08-17T16:28:10Z</time>
      </trkpt>
      <trkpt lat="54.998198971152306" lon="26.625061025843024">
        <ele>183.27000000000001</ele>
        <time>2011-08-17T16:28:25Z</time>
      </trkpt>
      <trkpt lat="54.998069973662496" lon="26.625149035826325">
        <ele>183.75</ele>
        <time>2011-08-17T16:28:28Z</time>
      </trkpt>
      <trkpt lat="54.997707037255168" lon="26.625216007232666">
        <ele>183.75</ele>
        <time>2011-08-17T16:28:36Z</time>
      </trkpt>
      <trkpt lat="54.997017038986087" lon="26.625279961153865">
        <ele>183.75</ele>
        <time>2011-08-17T16:28:51Z</time>
      </trkpt>
      <trkpt lat="54.996925005689263" lon="26.625275015830994">
        <ele>183.75</ele>
        <time>2011-08-17T16:28:53Z</time>
      </trkpt>
      <trkpt lat="54.996426030993462" lon="26.625312985852361">
        <ele>184.22999999999999</ele>
        <time>2011-08-17T16:29:06Z</time>
      </trkpt>
      <trkpt lat="54.995654979720712" lon="26.625236961990595">
        <ele>183.75</ele>
        <time>2011-08-17T16:29:23Z</time>
      </trkpt>
      <trkpt lat="54.994831038638949" lon="26.625178959220648">
        <ele>185.19</ele>
        <time>2011-08-17T16:29:42Z</time>
      </trkpt>
      <trkpt lat="54.994255034253001" lon="26.625090027227998">
        <ele>187.11000000000001</ele>
        <time>2011-08-17T16:30:00Z</time>
      </trkpt>
      <trkpt lat="54.993583979085088" lon="26.625076029449701">
        <ele>187.59</ele>
        <time>2011-08-17T16:30:16Z</time>
      </trkpt>
      <trkpt lat="54.993019038811326" lon="26.624949965626001">
        <ele>187.11000000000001</ele>
        <time>2011-08-17T16:30:30Z</time>
      </trkpt>
      <trkpt lat="54.992503970861435" lon="26.624782998114824">
        <ele>187.59</ele>
        <time>2011-08-17T16:30:42Z</time>
      </trkpt>
      <trkpt lat="54.99174096621573" lon="26.624433975666761">
        <ele>186.63</ele>
        <time>2011-08-17T16:31:00Z</time>
      </trkpt>
      <trkpt lat="54.990845024585724" lon="26.623990992084146">
        <ele>185.19</ele>
        <time>2011-08-17T16:31:19Z</time>
      </trkpt>
      <trkpt lat="54.990330040454865" lon="26.623636018484831">
        <ele>183.75</ele>
        <time>2011-08-17T16:31:29Z</time>
      </trkpt>
      <trkpt lat="54.990188973024487" lon="26.623510038480163">
        <ele>182.78999999999999</ele>
        <time>2011-08-17T16:31:32Z</time>
      </trkpt>
      <trkpt lat="54.989967020228505" lon="26.623357990756631">
        <ele>182.78999999999999</ele>
        <time>2011-08-17T16:31:37Z</time>
      </trkpt>
      <trkpt lat="54.989539962261915" lon="26.623207032680511">
        <ele>181.34999999999999</ele>
        <time>2011-08-17T16:31:48Z</time>
      </trkpt>
      <trkpt lat="54.989299988374114" lon="26.622986001893878">
        <ele>182.31</ele>
        <time>2011-08-17T16:31:58Z</time>
      </trkpt>
      <trkpt lat="54.989196974784136" lon="26.622887011617422">
        <ele>182.31</ele>
        <time>2011-08-17T16:32:04Z</time>
      </trkpt>
      <trkpt lat="54.989051967859268" lon="26.622920958325267">
        <ele>182.31</ele>
        <time>2011-08-17T16:32:09Z</time>
      </trkpt>
      <trkpt lat="54.988770000636578" lon="26.623222036287189">
        <ele>183.27000000000001</ele>
        <time>2011-08-17T16:32:21Z</time>
      </trkpt>
      <trkpt lat="54.988743010908365" lon="26.623254977166653">
        <ele>183.75</ele>
        <time>2011-08-17T16:32:22Z</time>
      </trkpt>
      <trkpt lat="54.988644020631909" lon="26.623326977714896">
        <ele>183.27000000000001</ele>
        <time>2011-08-17T16:32:35Z</time>
      </trkpt>
      <trkpt lat="54.988509994000196" lon="26.623340975493193">
        <ele>183.75</ele>
        <time>2011-08-17T16:32:54Z</time>
      </trkpt>
      <trkpt lat="54.988063992932439" lon="26.62344197742641">
        <ele>185.66999999999999</ele>
        <time>2011-08-17T16:33:09Z</time>
      </trkpt>
      <trkpt lat="54.987782025709748" lon="26.623284984380007">
        <ele>185.66999999999999</ele>
        <time>2011-08-17T16:33:22Z</time>
      </trkpt>
      <trkpt lat="54.987243991345167" lon="26.62264795973897">
        <ele>183.27000000000001</ele>
        <time>2011-08-17T16:33:38Z</time>
      </trkpt>
      <trkpt lat="54.986781980842352" lon="26.622055023908615">
        <ele>184.22999999999999</ele>
        <time>2011-08-17T16:33:53Z</time>
      </trkpt>
      <trkpt lat="54.986495990306139" lon="26.62161597982049">
        <ele>184.22999999999999</ele>
        <time>2011-08-17T16:34:05Z</time>
      </trkpt>
      <trkpt lat="54.986422983929515" lon="26.621526964008808">
        <ele>184.22999999999999</ele>
        <time>2011-08-17T16:34:10Z</time>
      </trkpt>
      <trkpt lat="54.986385013908148" lon="26.621430991217494">
        <ele>183.75</ele>
        <time>2011-08-17T16:34:23Z</time>
      </trkpt>
      <trkpt lat="54.986381996423006" lon="26.621415987610817">
        <ele>183.75</ele>
        <time>2011-08-17T16:34:24Z</time>
      </trkpt>
      <trkpt lat="54.986278982833028" lon="26.621270980685949">
        <ele>183.27000000000001</ele>
        <time>2011-08-17T16:34:36Z</time>
      </trkpt>
      <trkpt lat="54.986209999769926" lon="26.621204009279609">
        <ele>183.27000000000001</ele>
        <time>2011-08-17T16:34:48Z</time>
      </trkpt>
      <trkpt lat="54.986163983121514" lon="26.62114298902452">
        <ele>184.22999999999999</ele>
        <time>2011-08-17T16:35:01Z</time>
      </trkpt>
      <trkpt lat="54.985888972878456" lon="26.620728000998497">
        <ele>186.15000000000001</ele>
        <time>2011-08-17T16:35:17Z</time>
      </trkpt>
      <trkpt lat="54.985722005367279" lon="26.620443016290665">
        <ele>185.66999999999999</ele>
        <time>2011-08-17T16:35:28Z</time>
      </trkpt>
      <trkpt lat="54.985545985400677" lon="26.62017404101789">
        <ele>185.19</ele>
        <time>2011-08-17T16:35:39Z</time>
      </trkpt>
      <trkpt lat="54.985431991517544" lon="26.620030961930752">
        <ele>185.19</ele>
        <time>2011-08-17T16:35:46Z</time>
      </trkpt>
      <trkpt lat="54.98518799431622" lon="26.619640029966831">
        <ele>185.66999999999999</ele>
        <time>2011-08-17T16:35:59Z</time>
      </trkpt>
      <trkpt lat="54.984851963818073" lon="26.619153963401914">
        <ele>185.66999999999999</ele>
        <time>2011-08-17T16:36:13Z</time>
      </trkpt>
      <trkpt lat="54.984516017138958" lon="26.618549041450024">
        <ele>184.71000000000001</ele>
        <time>2011-08-17T16:36:27Z</time>
      </trkpt>
      <trkpt lat="54.984375033527613" lon="26.618002038449049">
        <ele>185.19</ele>
        <time>2011-08-17T16:36:39Z</time>
      </trkpt>
      <trkpt lat="54.98413497582078" lon="26.617270968854427">
        <ele>183.27000000000001</ele>
        <time>2011-08-17T16:36:54Z</time>
      </trkpt>
      <trkpt lat="54.983863988891244" lon="26.616474017500877">
        <ele>181.83000000000001</ele>
        <time>2011-08-17T16:37:10Z</time>
      </trkpt>
      <trkpt lat="54.983733985573053" lon="26.616036985069513">
        <ele>183.27000000000001</ele>
        <time>2011-08-17T16:37:20Z</time>
      </trkpt>
      <trkpt lat="54.983627032488585" lon="26.615522000938654">
        <ele>184.22999999999999</ele>
        <time>2011-08-17T16:37:33Z</time>
      </trkpt>
      <trkpt lat="54.983546985313296" lon="26.615298958495259">
        <ele>183.75</ele>
        <time>2011-08-17T16:37:40Z</time>
      </trkpt>
      <trkpt lat="54.98348998837173" lon="26.615210026502609">
        <ele>183.75</ele>
        <time>2011-08-17T16:37:43Z</time>
      </trkpt>
      <trkpt lat="54.983334001153708" lon="26.61546902731061">
        <ele>182.31</ele>
        <time>2011-08-17T16:37:52Z</time>
      </trkpt>
      <trkpt lat="54.98329502530396" lon="26.615617973729968">
        <ele>181.34999999999999</ele>
        <time>2011-08-17T16:37:54Z</time>
      </trkpt>
      <trkpt lat="54.983219001442194" lon="26.615821989253163">
        <ele>180.38</ele>
        <time>2011-08-17T16:37:57Z</time>
      </trkpt>
      <trkpt lat="54.982783980667591" lon="26.616513999179006">
        <ele>179.90000000000001</ele>
        <time>2011-08-17T16:38:10Z</time>
      </trkpt>
      <trkpt lat="54.982201019302011" lon="26.617138031870127">
        <ele>179.41999999999999</ele>
        <time>2011-08-17T16:38:27Z</time>
      </trkpt>
      <trkpt lat="54.981658961623907" lon="26.617571040987968">
        <ele>181.83000000000001</ele>
        <time>2011-08-17T16:38:43Z</time>
      </trkpt>
      <trkpt lat="54.981022020801902" lon="26.617970019578934">
        <ele>181.83000000000001</ele>
        <time>2011-08-17T16:39:01Z</time>
      </trkpt>
      <trkpt lat="54.980534026399255" lon="26.617912016808987">
        <ele>183.75</ele>
        <time>2011-08-17T16:39:16Z</time>
      </trkpt>
      <trkpt lat="54.979973025619984" lon="26.617717975750566">
        <ele>185.19</ele>
        <time>2011-08-17T16:39:34Z</time>
      </trkpt>
      <trkpt lat="54.979304987937212" lon="26.617714036256075">
        <ele>182.31</ele>
        <time>2011-08-17T16:39:48Z</time>
      </trkpt>
      <trkpt lat="54.979195017367601" lon="26.617730967700481">
        <ele>182.31</ele>
        <time>2011-08-17T16:39:50Z</time>
      </trkpt>
      <trkpt lat="54.978951020166278" lon="26.617879997938871">
        <ele>182.31</ele>
        <time>2011-08-17T16:39:55Z</time>
      </trkpt>
      <trkpt lat="54.97869897633791" lon="26.618561027571559">
        <ele>181.83000000000001</ele>
        <time>2011-08-17T16:40:07Z</time>
      </trkpt>
      <trkpt lat="54.978385996073484" lon="26.619164021685719">
        <ele>181.83000000000001</ele>
        <time>2011-08-17T16:40:20Z</time>
      </trkpt>
      <trkpt lat="54.978172006085515" lon="26.619418999180198">
        <ele>181.83000000000001</ele>
        <time>2011-08-17T16:40:34Z</time>
      </trkpt>
      <trkpt lat="54.978157002478838" lon="26.619434002786875">
        <ele>182.31</ele>
        <time>2011-08-17T16:40:48Z</time>
      </trkpt>
      <trkpt lat="54.978157002478838" lon="26.619434002786875">
        <ele>182.78999999999999</ele>
        <time>2011-08-17T16:41:12Z</time>
      </trkpt>
      <trkpt lat="54.978198995813727" lon="26.619460992515087">
        <ele>182.78999999999999</ele>
        <time>2011-08-17T16:41:21Z</time>
      </trkpt>
      <trkpt lat="54.978198995813727" lon="26.619411036372185">
        <ele>182.31</ele>
        <time>2011-08-17T16:41:23Z</time>
      </trkpt>
      <trkpt lat="54.978236965835094" lon="26.619346998631954">
        <ele>182.31</ele>
        <time>2011-08-17T16:41:27Z</time>
      </trkpt>
      <trkpt lat="54.978317013010383" lon="26.619265023618937">
        <ele>182.31</ele>
        <time>2011-08-17T16:41:40Z</time>
      </trkpt>
      <trkpt lat="54.978317013010383" lon="26.619265023618937">
        <ele>176.06</ele>
        <time>2011-08-17T16:41:41Z</time>
      </trkpt>
      <trkpt lat="54.978317013010383" lon="26.619265023618937">
        <ele>183.75</ele>
        <time>2011-08-17T16:41:42Z</time>
      </trkpt>
      <trkpt lat="54.978508036583662" lon="26.61899596452713">
        <ele>181.83000000000001</ele>
        <time>2011-08-17T16:41:54Z</time>
      </trkpt>
      <trkpt lat="54.97878598049283" lon="26.618227008730173">
        <ele>181.83000000000001</ele>
        <time>2011-08-17T16:42:08Z</time>
      </trkpt>
      <trkpt lat="54.978882037103176" lon="26.617793999612331">
        <ele>182.31</ele>
        <time>2011-08-17T16:42:15Z</time>
      </trkpt>
      <trkpt lat="54.97893501073122" lon="26.617582021281123">
        <ele>181.83000000000001</ele>
        <time>2011-08-17T16:42:18Z</time>
      </trkpt>
      <trkpt lat="54.979014974087477" lon="26.617334000766277">
        <ele>181.34999999999999</ele>
        <time>2011-08-17T16:42:22Z</time>
      </trkpt>
      <trkpt lat="54.979038024321198" lon="26.617195028811693">
        <ele>182.31</ele>
        <time>2011-08-17T16:42:24Z</time>
      </trkpt>
      <trkpt lat="54.979045987129211" lon="26.617055973038077">
        <ele>181.34999999999999</ele>
        <time>2011-08-17T16:42:26Z</time>
      </trkpt>
      <trkpt lat="54.978831997141242" lon="26.616375027224422">
        <ele>183.75</ele>
        <time>2011-08-17T16:42:39Z</time>
      </trkpt>
      <trkpt lat="54.978436036035419" lon="26.615586960688233">
        <ele>184.71000000000001</ele>
        <time>2011-08-17T16:42:57Z</time>
      </trkpt>
      <trkpt lat="54.978043008595705" lon="26.615016991272569">
        <ele>185.19</ele>
        <time>2011-08-17T16:43:12Z</time>
      </trkpt>
      <trkpt lat="54.9774319678545" lon="26.614475017413497">
        <ele>185.66999999999999</ele>
        <time>2011-08-17T16:43:31Z</time>
      </trkpt>
      <trkpt lat="54.976852023974061" lon="26.613996997475624">
        <ele>186.63</ele>
        <time>2011-08-17T16:43:49Z</time>
      </trkpt>
      <trkpt lat="54.976352965459228" lon="26.613515960052609">
        <ele>184.71000000000001</ele>
        <time>2011-08-17T16:44:02Z</time>
      </trkpt>
      <trkpt lat="54.97568903490901" lon="26.612882958725095">
        <ele>183.27000000000001</ele>
        <time>2011-08-17T16:44:19Z</time>
      </trkpt>
      <trkpt lat="54.975493988022208" lon="26.612804001197219">
        <ele>182.31</ele>
        <time>2011-08-17T16:44:23Z</time>
      </trkpt>
      <trkpt lat="54.975306987762451" lon="26.61267701536417">
        <ele>181.83000000000001</ele>
        <time>2011-08-17T16:44:27Z</time>
      </trkpt>
      <trkpt lat="54.974688990041614" lon="26.612230008468032">
        <ele>182.78999999999999</ele>
        <time>2011-08-17T16:44:44Z</time>
      </trkpt>
      <trkpt lat="54.974651020020247" lon="26.612215004861355">
        <ele>182.78999999999999</ele>
        <time>2011-08-17T16:44:45Z</time>
      </trkpt>
      <trkpt lat="54.974148022010922" lon="26.612019035965204">
        <ele>182.78999999999999</ele>
        <time>2011-08-17T16:44:59Z</time>
      </trkpt>
      <trkpt lat="54.973831018432975" lon="26.612200001254678">
        <ele>183.75</ele>
        <time>2011-08-17T16:45:12Z</time>
      </trkpt>
      <trkpt lat="54.973503034561872" lon="26.612670980393887">
        <ele>183.27000000000001</ele>
        <time>2011-08-17T16:45:27Z</time>
      </trkpt>
      <trkpt lat="54.973099026829004" lon="26.612857980653644">
        <ele>183.27000000000001</ele>
        <time>2011-08-17T16:45:39Z</time>
      </trkpt>
      <trkpt lat="54.972683032974601" lon="26.613072976469994">
        <ele>186.63</ele>
        <time>2011-08-17T16:45:52Z</time>
      </trkpt>
      <trkpt lat="54.972221022471786" lon="26.613248996436596">
        <ele>187.11000000000001</ele>
        <time>2011-08-17T16:46:08Z</time>
      </trkpt>
      <trkpt lat="54.97180201113224" lon="26.613573040813208">
        <ele>187.59</ele>
        <time>2011-08-17T16:46:22Z</time>
      </trkpt>
      <trkpt lat="54.971432033926249" lon="26.613761968910694">
        <ele>187.59</ele>
        <time>2011-08-17T16:46:34Z</time>
      </trkpt>
      <trkpt lat="54.97089802287519" lon="26.613947041332722">
        <ele>187.59</ele>
        <time>2011-08-17T16:46:48Z</time>
      </trkpt>
      <trkpt lat="54.970469959080219" lon="26.614029016345739">
        <ele>187.59</ele>
        <time>2011-08-17T16:46:58Z</time>
      </trkpt>
      <trkpt lat="54.970202995464206" lon="26.614140998572111">
        <ele>186.63</ele>
        <time>2011-08-17T16:47:05Z</time>
      </trkpt>
      <trkpt lat="54.970042984932661" lon="26.614308971911669">
        <ele>185.66999999999999</ele>
        <time>2011-08-17T16:47:09Z</time>
      </trkpt>
      <trkpt lat="54.969776021316648" lon="26.614637039601803">
        <ele>185.19</ele>
        <time>2011-08-17T16:47:16Z</time>
      </trkpt>
      <trkpt lat="54.969523977488279" lon="26.615150012075901">
        <ele>184.71000000000001</ele>
        <time>2011-08-17T16:47:29Z</time>
      </trkpt>
      <trkpt lat="54.969520960003138" lon="26.615172978490591">
        <ele>184.71000000000001</ele>
        <time>2011-08-17T16:47:42Z</time>
      </trkpt>
      <trkpt lat="54.969528000801802" lon="26.61516803316772">
        <ele>185.19</ele>
        <time>2011-08-17T16:48:01Z</time>
      </trkpt>
      <trkpt lat="54.96958902105689" lon="26.615067031234503">
        <ele>185.19</ele>
        <time>2011-08-17T16:48:14Z</time>
      </trkpt>
      <trkpt lat="54.969710977748036" lon="26.615069964900613">
        <ele>186.63</ele>
        <time>2011-08-17T16:48:27Z</time>
      </trkpt>
      <trkpt lat="54.969837041571736" lon="26.615080023184419">
        <ele>187.11000000000001</ele>
        <time>2011-08-17T16:48:41Z</time>
      </trkpt>
      <trkpt lat="54.969845004379749" lon="26.615087985992432">
        <ele>186.63</ele>
        <time>2011-08-17T16:48:42Z</time>
      </trkpt>
      <trkpt lat="54.969909964129329" lon="26.615179013460875">
        <ele>187.11000000000001</ele>
        <time>2011-08-17T16:48:55Z</time>
      </trkpt>
      <trkpt lat="54.96991298161447" lon="26.615179013460875">
        <ele>186.63</ele>
        <time>2011-08-17T16:49:13Z</time>
      </trkpt>
      <trkpt lat="54.96991298161447" lon="26.615179013460875">
        <ele>187.11000000000001</ele>
        <time>2011-08-17T16:49:33Z</time>
      </trkpt>
      <trkpt lat="54.969909964129329" lon="26.615179013460875">
        <ele>187.11000000000001</ele>
        <time>2011-08-17T16:49:57Z</time>
      </trkpt>
      <trkpt lat="54.96991298161447" lon="26.61517096683383">
        <ele>187.11000000000001</ele>
        <time>2011-08-17T16:50:27Z</time>
      </trkpt>
      <trkpt lat="54.96991298161447" lon="26.615179013460875">
        <ele>186.63</ele>
        <time>2011-08-17T16:51:00Z</time>
      </trkpt>
      <trkpt lat="54.969917004927993" lon="26.615179013460875">
        <ele>187.11000000000001</ele>
        <time>2011-08-17T16:51:39Z</time>
      </trkpt>
      <trkpt lat="54.969917004927993" lon="26.615179013460875">
        <ele>187.11000000000001</ele>
        <time>2011-08-17T16:52:15Z</time>
      </trkpt>
      <trkpt lat="54.969921028241515" lon="26.61517096683383">
        <ele>187.11000000000001</ele>
        <time>2011-08-17T16:52:32Z</time>
      </trkpt>
      <trkpt lat="54.969921028241515" lon="26.61517096683383">
        <ele>187.11000000000001</ele>
        <time>2011-08-17T16:52:50Z</time>
      </trkpt>
      <trkpt lat="54.969917004927993" lon="26.615166021510959">
        <ele>187.11000000000001</ele>
        <time>2011-08-17T16:53:16Z</time>
      </trkpt>
      <trkpt lat="54.969917004927993" lon="26.615166021510959">
        <ele>187.11000000000001</ele>
        <time>2011-08-17T16:53:42Z</time>
      </trkpt>
      <trkpt lat="54.969917004927993" lon="26.615166021510959">
        <ele>187.11000000000001</ele>
        <time>2011-08-17T16:54:09Z</time>
      </trkpt>
      <trkpt lat="54.969917004927993" lon="26.615174990147352">
        <ele>187.59</ele>
        <time>2011-08-17T16:54:29Z</time>
      </trkpt>
      <trkpt lat="54.969917004927993" lon="26.615174990147352">
        <ele>187.59</ele>
        <time>2011-08-17T16:54:51Z</time>
      </trkpt>
      <trkpt lat="54.969917004927993" lon="26.615174990147352">
        <ele>184.22999999999999</ele>
        <time>2011-08-17T16:54:56Z</time>
      </trkpt>
      <trkpt lat="54.96991298161447" lon="26.615177001804113">
        <ele>187.59</ele>
        <time>2011-08-17T16:54:57Z</time>
      </trkpt>
      <trkpt lat="54.96991298161447" lon="26.615177001804113">
        <ele>182.78999999999999</ele>
        <time>2011-08-17T16:54:59Z</time>
      </trkpt>
      <trkpt lat="54.96991298161447" lon="26.615177001804113">
        <ele>190.47999999999999</ele>
        <time>2011-08-17T16:55:00Z</time>
      </trkpt>
      <trkpt lat="54.96991298161447" lon="26.615177001804113">
        <ele>187.59</ele>
        <time>2011-08-17T16:55:03Z</time>
      </trkpt>
      <trkpt lat="54.96991298161447" lon="26.615177001804113">
        <ele>185.66999999999999</ele>
        <time>2011-08-17T16:55:05Z</time>
      </trkpt>
      <trkpt lat="54.96991298161447" lon="26.615177001804113">
        <ele>187.59</ele>
        <time>2011-08-17T16:55:07Z</time>
      </trkpt>
    </trkseg>
  </trk>

  <trk>
    <name>18-АВГ-11 20:16:49</name>
    <extensions>
      <gpxx:TrackExtension xmlns:gpxx="http://www.garmin.com/xmlschemas/GpxExtensions/v3">
        <gpxx:DisplayColor>Red</gpxx:DisplayColor>
      </gpxx:TrackExtension>
    </extensions>
    <trkseg>
      <trkpt lat="54.96991298161447" lon="26.615177001804113">
        <ele>187.11000000000001</ele>
        <time>2011-08-17T16:55:31Z</time>
      </trkpt>
      <trkpt lat="54.96991298161447" lon="26.615177001804113">
        <ele>190.47999999999999</ele>
        <time>2011-08-17T16:55:45Z</time>
      </trkpt>
      <trkpt lat="54.96991298161447" lon="26.615177001804113">
        <ele>184.22999999999999</ele>
        <time>2011-08-17T16:55:46Z</time>
      </trkpt>
      <trkpt lat="54.96991298161447" lon="26.615177001804113">
        <ele>188.08000000000001</ele>
        <time>2011-08-17T16:55:47Z</time>
      </trkpt>
      <trkpt lat="54.96991298161447" lon="26.615177001804113">
        <ele>187.11000000000001</ele>
        <time>2011-08-17T16:55:58Z</time>
      </trkpt>
      <trkpt lat="54.969746014103293" lon="26.615083962678909">
        <ele>162.59999999999999</ele>
        <time>2011-08-18T07:44:38Z</time>
      </trkpt>
      <trkpt lat="54.969749031588435" lon="26.615071976557374">
        <ele>162.59999999999999</ele>
        <time>2011-08-18T07:44:39Z</time>
      </trkpt>
      <trkpt lat="54.969768980517983" lon="26.615054961293936">
        <ele>158.27000000000001</ele>
        <time>2011-08-18T07:44:49Z</time>
      </trkpt>
      <trkpt lat="54.969768980517983" lon="26.615051021799445">
        <ele>162.59999999999999</ele>
        <time>2011-08-18T07:44:50Z</time>
      </trkpt>
      <trkpt lat="54.969765041023493" lon="26.615045992657542">
        <ele>166.44999999999999</ele>
        <time>2011-08-18T07:44:52Z</time>
      </trkpt>
      <trkpt lat="54.969765041023493" lon="26.615046998485923">
        <ele>160.19999999999999</ele>
        <time>2011-08-18T07:44:53Z</time>
      </trkpt>
      <trkpt lat="54.969765041023493" lon="26.615043981000781">
        <ele>159.24000000000001</ele>
        <time>2011-08-18T07:44:55Z</time>
      </trkpt>
      <trkpt lat="54.969768980517983" lon="26.615046998485923">
        <ele>162.59999999999999</ele>
        <time>2011-08-18T07:44:56Z</time>
      </trkpt>
      <trkpt lat="54.969776021316648" lon="26.615051021799445">
        <ele>159.24000000000001</ele>
        <time>2011-08-18T07:45:01Z</time>
      </trkpt>
      <trkpt lat="54.969771998003125" lon="26.615053033456206">
        <ele>162.59999999999999</ele>
        <time>2011-08-18T07:45:02Z</time>
      </trkpt>
      <trkpt lat="54.969776021316648" lon="26.615054961293936">
        <ele>158.27000000000001</ele>
        <time>2011-08-18T07:45:03Z</time>
      </trkpt>
      <trkpt lat="54.969768980517983" lon="26.615115981549025">
        <ele>162.12</ele>
        <time>2011-08-18T07:45:04Z</time>
      </trkpt>
      <trkpt lat="54.969752971082926" lon="26.615098966285586">
        <ele>158.27000000000001</ele>
        <time>2011-08-18T07:45:05Z</time>
      </trkpt>
      <trkpt lat="54.969752971082926" lon="26.615110030397773">
        <ele>163.56</ele>
        <time>2011-08-18T07:45:07Z</time>
      </trkpt>
      <trkpt lat="54.969741990789771" lon="26.615098966285586">
        <ele>159.72</ele>
        <time>2011-08-18T07:45:08Z</time>
      </trkpt>
      <trkpt lat="54.969726987183094" lon="26.615107012912631">
        <ele>155.87</ele>
        <time>2011-08-18T07:45:11Z</time>
      </trkpt>
      <trkpt lat="54.969726987183094" lon="26.615108018741012">
        <ele>163.08000000000001</ele>
        <time>2011-08-18T07:45:12Z</time>
      </trkpt>
      <trkpt lat="54.969730004668236" lon="26.615111958235502">
        <ele>168.37</ele>
        <time>2011-08-18T07:45:13Z</time>
      </trkpt>
      <trkpt lat="54.969734027981758" lon="26.615115981549025">
        <ele>162.59999999999999</ele>
        <time>2011-08-18T07:45:14Z</time>
      </trkpt>
      <trkpt lat="54.969756994396448" lon="26.615142971277237">
        <ele>166.44999999999999</ele>
        <time>2011-08-18T07:45:17Z</time>
      </trkpt>
      <trkpt lat="54.969752971082926" lon="26.615146994590759">
        <ele>157.78999999999999</ele>
        <time>2011-08-18T07:45:19Z</time>
      </trkpt>
      <trkpt lat="54.969749031588435" lon="26.615146994590759">
        <ele>163.08000000000001</ele>
        <time>2011-08-18T07:45:20Z</time>
      </trkpt>
      <trkpt lat="54.969741990789771" lon="26.61514900624752">
        <ele>165.96000000000001</ele>
        <time>2011-08-18T07:45:21Z</time>
      </trkpt>
      <trkpt lat="54.969741990789771" lon="26.615146994590759">
        <ele>156.83000000000001</ele>
        <time>2011-08-18T07:45:22Z</time>
      </trkpt>
      <trkpt lat="54.969737967476249" lon="26.615142971277237">
        <ele>162.12</ele>
        <time>2011-08-18T07:45:23Z</time>
      </trkpt>
      <trkpt lat="54.969734027981758" lon="26.615135008469224">
        <ele>154.43000000000001</ele>
        <time>2011-08-18T07:45:25Z</time>
      </trkpt>
      <trkpt lat="54.969726987183094" lon="26.61512897349894">
        <ele>164.03999999999999</ele>
        <time>2011-08-18T07:45:26Z</time>
      </trkpt>
      <trkpt lat="54.969726987183094" lon="26.61512603983283">
        <ele>153.94999999999999</ele>
        <time>2011-08-18T07:45:27Z</time>
      </trkpt>
      <trkpt lat="54.969722963869572" lon="26.615122016519308">
        <ele>164.52000000000001</ele>
        <time>2011-08-18T07:45:28Z</time>
      </trkpt>
      <trkpt lat="54.969715001061559" lon="26.615117993205786">
        <ele>158.27000000000001</ele>
        <time>2011-08-18T07:45:30Z</time>
      </trkpt>
      <trkpt lat="54.969710977748036" lon="26.615120004862547">
        <ele>164.03999999999999</ele>
        <time>2011-08-18T07:45:31Z</time>
      </trkpt>
      <trkpt lat="54.969710977748036" lon="26.615120004862547">
        <ele>155.38999999999999</ele>
        <time>2011-08-18T07:45:32Z</time>
      </trkpt>
      <trkpt lat="54.969707038253546" lon="26.615122016519308">
        <ele>165</ele>
        <time>2011-08-18T07:45:33Z</time>
      </trkpt>
      <trkpt lat="54.969710977748036" lon="26.615117993205786">
        <ele>169.33000000000001</ele>
        <time>2011-08-18T07:45:34Z</time>
      </trkpt>
      <trkpt lat="54.969710977748036" lon="26.615117993205786">
        <ele>165.96000000000001</ele>
        <time>2011-08-18T07:45:35Z</time>
      </trkpt>
      <trkpt lat="54.969746014103293" lon="26.615120004862547">
        <ele>170.77000000000001</ele>
        <time>2011-08-18T07:45:40Z</time>
      </trkpt>
      <trkpt lat="54.969765041023493" lon="26.615161998197436">
        <ele>172.69</ele>
        <time>2011-08-18T07:45:43Z</time>
      </trkpt>
      <trkpt lat="54.969765041023493" lon="26.615174990147352">
        <ele>175.58000000000001</ele>
        <time>2011-08-18T07:45:47Z</time>
      </trkpt>
      <trkpt lat="54.969765041023493" lon="26.61517096683383">
        <ele>176.53999999999999</ele>
        <time>2011-08-18T07:45:49Z</time>
      </trkpt>
      <trkpt lat="54.969756994396448" lon="26.615146994590759">
        <ele>179.90000000000001</ele>
        <time>2011-08-18T07:45:53Z</time>
      </trkpt>
      <trkpt lat="54.969752971082926" lon="26.615132996812463">
        <ele>181.34999999999999</ele>
        <time>2011-08-18T07:45:55Z</time>
      </trkpt>
      <trkpt lat="54.969756994396448" lon="26.61512897349894">
        <ele>182.78999999999999</ele>
        <time>2011-08-18T07:45:59Z</time>
      </trkpt>
      <trkpt lat="54.969756994396448" lon="26.61512603983283">
        <ele>186.15000000000001</ele>
        <time>2011-08-18T07:46:06Z</time>
      </trkpt>
      <trkpt lat="54.969765041023493" lon="26.615115981549025">
        <ele>187.59</ele>
        <time>2011-08-18T07:46:11Z</time>
      </trkpt>
      <trkpt lat="54.969768980517983" lon="26.615108018741012">
        <ele>190.96000000000001</ele>
        <time>2011-08-18T07:46:26Z</time>
      </trkpt>
      <trkpt lat="54.969768980517983" lon="26.615108018741012">
        <ele>194.31999999999999</ele>
        <time>2011-08-18T07:46:50Z</time>
      </trkpt>
      <trkpt lat="54.969768980517983" lon="26.615107012912631">
        <ele>194.80000000000001</ele>
        <time>2011-08-18T07:47:22Z</time>
      </trkpt>
      <trkpt lat="54.969765041023493" lon="26.615113969892263">
        <ele>194.31999999999999</ele>
        <time>2011-08-18T07:47:50Z</time>
      </trkpt>
      <trkpt lat="54.969768980517983" lon="26.615120004862547">
        <ele>194.80000000000001</ele>
        <time>2011-08-18T07:48:23Z</time>
      </trkpt>
      <trkpt lat="54.969768980517983" lon="26.615120004862547">
        <ele>194.80000000000001</ele>
        <time>2011-08-18T07:48:54Z</time>
      </trkpt>
      <trkpt lat="54.969768980517983" lon="26.615124028176069">
        <ele>194.80000000000001</ele>
        <time>2011-08-18T07:49:22Z</time>
      </trkpt>
      <trkpt lat="54.969765041023493" lon="26.61512897349894">
        <ele>195.28</ele>
        <time>2011-08-18T07:49:48Z</time>
      </trkpt>
      <trkpt lat="54.969768980517983" lon="26.615137020125985">
        <ele>194.80000000000001</ele>
        <time>2011-08-18T07:50:02Z</time>
      </trkpt>
      <trkpt lat="54.969768980517983" lon="26.615137020125985">
        <ele>195.77000000000001</ele>
        <time>2011-08-18T07:50:31Z</time>
      </trkpt>
      <trkpt lat="54.969771998003125" lon="26.615130985155702">
        <ele>194.80000000000001</ele>
        <time>2011-08-18T07:50:59Z</time>
      </trkpt>
      <trkpt lat="54.969771998003125" lon="26.61512796767056">
        <ele>195.28</ele>
        <time>2011-08-18T07:51:28Z</time>
      </trkpt>
      <trkpt lat="54.969771998003125" lon="26.615142971277237">
        <ele>194.80000000000001</ele>
        <time>2011-08-18T07:51:59Z</time>
      </trkpt>
      <trkpt lat="54.969771998003125" lon="26.615142971277237">
        <ele>195.28</ele>
        <time>2011-08-18T07:52:24Z</time>
      </trkpt>
      <trkpt lat="54.969776021316648" lon="26.615135008469224">
        <ele>195.28</ele>
        <time>2011-08-18T07:52:55Z</time>
      </trkpt>
      <trkpt lat="54.969776021316648" lon="26.615135008469224">
        <ele>195.28</ele>
        <time>2011-08-18T07:53:22Z</time>
      </trkpt>
      <trkpt lat="54.969776021316648" lon="26.615135008469224">
        <ele>194.80000000000001</ele>
        <time>2011-08-18T07:53:49Z</time>
      </trkpt>
      <trkpt lat="54.969776021316648" lon="26.615135008469224">
        <ele>194.80000000000001</ele>
        <time>2011-08-18T07:54:22Z</time>
      </trkpt>
      <trkpt lat="54.969779960811138" lon="26.615142971277237">
        <ele>194.80000000000001</ele>
        <time>2011-08-18T07:54:50Z</time>
      </trkpt>
      <trkpt lat="54.969779960811138" lon="26.615142971277237">
        <ele>195.28</ele>
        <time>2011-08-18T07:55:24Z</time>
      </trkpt>
      <trkpt lat="54.96978398412466" lon="26.615144982933998">
        <ele>195.28</ele>
        <time>2011-08-18T07:56:02Z</time>
      </trkpt>
      <trkpt lat="54.969791024923325" lon="26.615157974883914">
        <ele>195.28</ele>
        <time>2011-08-18T07:56:37Z</time>
      </trkpt>
      <trkpt lat="54.969791024923325" lon="26.615157974883914">
        <ele>195.28</ele>
        <time>2011-08-18T07:57:10Z</time>
      </trkpt>
      <trkpt lat="54.969791024923325" lon="26.615155963227153">
        <ele>195.28</ele>
        <time>2011-08-18T07:57:40Z</time>
      </trkpt>
      <trkpt lat="54.969791024923325" lon="26.615164009854198">
        <ele>195.28</ele>
        <time>2011-08-18T07:58:08Z</time>
      </trkpt>
      <trkpt lat="54.969791024923325" lon="26.615166021510959">
        <ele>194.80000000000001</ele>
        <time>2011-08-18T07:58:39Z</time>
      </trkpt>
      <trkpt lat="54.969791024923325" lon="26.615166021510959">
        <ele>195.28</ele>
        <time>2011-08-18T07:59:14Z</time>
      </trkpt>
      <trkpt lat="54.969791024923325" lon="26.615181025117636">
        <ele>194.80000000000001</ele>
        <time>2011-08-18T07:59:49Z</time>
      </trkpt>
      <trkpt lat="54.96978398412466" lon="26.615184964612126">
        <ele>194.80000000000001</ele>
        <time>2011-08-18T08:00:33Z</time>
      </trkpt>
      <trkpt lat="54.96978398412466" lon="26.615183036774397">
        <ele>194.31999999999999</ele>
        <time>2011-08-18T08:01:08Z</time>
      </trkpt>
      <trkpt lat="54.969791024923325" lon="26.615184964612126">
        <ele>194.80000000000001</ele>
        <time>2011-08-18T08:01:45Z</time>
      </trkpt>
      <trkpt lat="54.969791024923325" lon="26.615186976268888">
        <ele>193.84</ele>
        <time>2011-08-18T08:02:25Z</time>
      </trkpt>
      <trkpt lat="54.969791024923325" lon="26.615184964612126">
        <ele>193.84</ele>
        <time>2011-08-18T08:02:59Z</time>
      </trkpt>
      <trkpt lat="54.969791024923325" lon="26.615188987925649">
        <ele>194.31999999999999</ele>
        <time>2011-08-18T08:03:38Z</time>
      </trkpt>
      <trkpt lat="54.969791024923325" lon="26.615188987925649">
        <ele>194.31999999999999</ele>
        <time>2011-08-18T08:04:14Z</time>
      </trkpt>
      <trkpt lat="54.969798987731338" lon="26.615186976268888">
        <ele>194.31999999999999</ele>
        <time>2011-08-18T08:04:48Z</time>
      </trkpt>
      <trkpt lat="54.96978398412466" lon="26.615188987925649">
        <ele>194.31999999999999</ele>
        <time>2011-08-18T08:05:26Z</time>
      </trkpt>
      <trkpt lat="54.96978398412466" lon="26.615184964612126">
        <ele>193.84</ele>
        <time>2011-08-18T08:05:59Z</time>
      </trkpt>
      <trkpt lat="54.96978398412466" lon="26.615184964612126">
        <ele>193.84</ele>
        <time>2011-08-18T08:06:35Z</time>
      </trkpt>
      <trkpt lat="54.969788007438183" lon="26.615181025117636">
        <ele>193.84</ele>
        <time>2011-08-18T08:07:07Z</time>
      </trkpt>
      <trkpt lat="54.969788007438183" lon="26.615179013460875">
        <ele>193.84</ele>
        <time>2011-08-18T08:07:41Z</time>
      </trkpt>
      <trkpt lat="54.969788007438183" lon="26.61517096683383">
        <ele>193.84</ele>
        <time>2011-08-18T08:08:10Z</time>
      </trkpt>
      <trkpt lat="54.969791024923325" lon="26.61516803316772">
        <ele>193.84</ele>
        <time>2011-08-18T08:08:39Z</time>
      </trkpt>
      <trkpt lat="54.969791024923325" lon="26.61516803316772">
        <ele>194.31999999999999</ele>
        <time>2011-08-18T08:09:15Z</time>
      </trkpt>
      <trkpt lat="54.969791024923325" lon="26.615169961005449">
        <ele>193.84</ele>
        <time>2011-08-18T08:09:29Z</time>
      </trkpt>
      <trkpt lat="54.96978398412466" lon="26.615157974883914">
        <ele>193.36000000000001</ele>
        <time>2011-08-18T08:09:46Z</time>
      </trkpt>
      <trkpt lat="54.96978398412466" lon="26.615157974883914">
        <ele>189.52000000000001</ele>
        <time>2011-08-18T08:09:56Z</time>
      </trkpt>
      <trkpt lat="54.96978398412466" lon="26.615157974883914">
        <ele>190</ele>
        <time>2011-08-18T08:09:57Z</time>
      </trkpt>
      <trkpt lat="54.96978398412466" lon="26.615157974883914">
        <ele>195.28</ele>
        <time>2011-08-18T08:09:59Z</time>
      </trkpt>
      <trkpt lat="54.969765041023493" lon="26.615142971277237">
        <ele>193.84</ele>
        <time>2011-08-18T08:10:16Z</time>
      </trkpt>
      <trkpt lat="54.969756994396448" lon="26.615139031782746">
        <ele>194.31999999999999</ele>
        <time>2011-08-18T08:10:37Z</time>
      </trkpt>
      <trkpt lat="54.969756994396448" lon="26.615139031782746">
        <ele>194.31999999999999</ele>
        <time>2011-08-18T08:10:38Z</time>
      </trkpt>
      <trkpt lat="54.969607964158058" lon="26.61521103233099">
        <ele>192.40000000000001</ele>
        <time>2011-08-18T08:10:44Z</time>
      </trkpt>
      <trkpt lat="54.969372013583779" lon="26.615544967353344">
        <ele>190.96000000000001</ele>
        <time>2011-08-18T08:10:53Z</time>
      </trkpt>
      <trkpt lat="54.969237986952066" lon="26.615909999236465">
        <ele>191.44</ele>
        <time>2011-08-18T08:10:58Z</time>
      </trkpt>
      <trkpt lat="54.969131033867598" lon="26.616221973672509">
        <ele>192.40000000000001</ele>
        <time>2011-08-18T08:11:03Z</time>
      </trkpt>
      <trkpt lat="54.969002036377788" lon="26.616555992513895">
        <ele>192.40000000000001</ele>
        <time>2011-08-18T08:11:09Z</time>
      </trkpt>
      <trkpt lat="54.968917965888977" lon="26.616837959736586">
        <ele>191.91999999999999</ele>
        <time>2011-08-18T08:11:13Z</time>
      </trkpt>
      <trkpt lat="54.968745969235897" lon="26.617372976616025">
        <ele>191.91999999999999</ele>
        <time>2011-08-18T08:11:22Z</time>
      </trkpt>
      <trkpt lat="54.968520998954773" lon="26.617864994332194">
        <ele>191.91999999999999</ele>
        <time>2011-08-18T08:11:32Z</time>
      </trkpt>
      <trkpt lat="54.968422008678317" lon="26.617971025407314">
        <ele>191.44</ele>
        <time>2011-08-18T08:11:35Z</time>
      </trkpt>
      <trkpt lat="54.968112967908382" lon="26.618438987061381">
        <ele>191.44</ele>
        <time>2011-08-18T08:11:46Z</time>
      </trkpt>
      <trkpt lat="54.967979025095701" lon="26.618581982329488">
        <ele>192.40000000000001</ele>
        <time>2011-08-18T08:11:50Z</time>
      </trkpt>
      <trkpt lat="54.967711977660656" lon="26.618931004777551">
        <ele>191.91999999999999</ele>
        <time>2011-08-18T08:11:58Z</time>
      </trkpt>
      <trkpt lat="54.967555990442634" lon="26.619216995313764">
        <ele>191.44</ele>
        <time>2011-08-18T08:12:02Z</time>
      </trkpt>
      <trkpt lat="54.966930029913783" lon="26.620694976300001">
        <ele>188.56</ele>
        <time>2011-08-18T08:12:20Z</time>
      </trkpt>
      <trkpt lat="54.966807989403605" lon="26.622042031958699">
        <ele>188.08000000000001</ele>
        <time>2011-08-18T08:12:36Z</time>
      </trkpt>
      <trkpt lat="54.966521998867393" lon="26.622619964182377">
        <ele>187.11000000000001</ele>
        <time>2011-08-18T08:12:46Z</time>
      </trkpt>
      <trkpt lat="54.966480005532503" lon="26.622622981667519">
        <ele>187.59</ele>
        <time>2011-08-18T08:12:47Z</time>
      </trkpt>
      <trkpt lat="54.966041967272758" lon="26.622425001114607">
        <ele>189.03999999999999</ele>
        <time>2011-08-18T08:13:00Z</time>
      </trkpt>
      <trkpt lat="54.965758994221687" lon="26.62230497226119">
        <ele>191.44</ele>
        <time>2011-08-18T08:13:12Z</time>
      </trkpt>
      <trkpt lat="54.965393040329218" lon="26.622242024168372">
        <ele>193.36000000000001</ele>
        <time>2011-08-18T08:13:25Z</time>
      </trkpt>
      <trkpt lat="54.965110989287496" lon="26.622185027226806">
        <ele>193.36000000000001</ele>
        <time>2011-08-18T08:13:35Z</time>
      </trkpt>
      <trkpt lat="54.964766995981336" lon="26.622043959796429">
        <ele>193.36000000000001</ele>
        <time>2011-08-18T08:13:45Z</time>
      </trkpt>
      <trkpt lat="54.964522998780012" lon="26.621928960084915">
        <ele>192.88</ele>
        <time>2011-08-18T08:13:51Z</time>
      </trkpt>
      <trkpt lat="54.964439012110233" lon="26.621840028092265">
        <ele>192.40000000000001</ele>
        <time>2011-08-18T08:13:54Z</time>
      </trkpt>
      <trkpt lat="54.964165007695556" lon="26.621569041162729">
        <ele>191.44</ele>
        <time>2011-08-18T08:14:00Z</time>
      </trkpt>
      <trkpt lat="54.963653963059187" lon="26.620916007086635">
        <ele>189.03999999999999</ele>
        <time>2011-08-18T08:14:12Z</time>
      </trkpt>
      <trkpt lat="54.963394040241838" lon="26.620505964383483">
        <ele>190</ele>
        <time>2011-08-18T08:14:20Z</time>
      </trkpt>
      <trkpt lat="54.963276023045182" lon="26.620375039055943">
        <ele>190.47999999999999</ele>
        <time>2011-08-18T08:14:23Z</time>
      </trkpt>
      <trkpt lat="54.963035965338349" lon="26.620302032679319">
        <ele>190.47999999999999</ele>
        <time>2011-08-18T08:14:28Z</time>
      </trkpt>
      <trkpt lat="54.962772019207478" lon="26.620373027399182">
        <ele>190.47999999999999</ele>
        <time>2011-08-18T08:14:34Z</time>
      </trkpt>
      <trkpt lat="54.962565992027521" lon="26.620418960228562">
        <ele>191.44</ele>
        <time>2011-08-18T08:14:39Z</time>
      </trkpt>
      <trkpt lat="54.962399024516344" lon="26.620501019060612">
        <ele>191.44</ele>
        <time>2011-08-18T08:14:43Z</time>
      </trkpt>
      <trkpt lat="54.962245970964432" lon="26.620562039315701">
        <ele>191.44</ele>
        <time>2011-08-18T08:14:47Z</time>
      </trkpt>
      <trkpt lat="54.961826037615538" lon="26.6207330301404">
        <ele>190.96000000000001</ele>
        <time>2011-08-18T08:14:57Z</time>
      </trkpt>
      <trkpt lat="54.961590003222227" lon="26.620807964354753">
        <ele>191.44</ele>
        <time>2011-08-18T08:15:02Z</time>
      </trkpt>
      <trkpt lat="54.961391016840935" lon="26.620846018195152">
        <ele>191.44</ele>
        <time>2011-08-18T08:15:06Z</time>
      </trkpt>
      <trkpt lat="54.960903022438288" lon="26.620505964383483">
        <ele>192.40000000000001</ele>
        <time>2011-08-18T08:15:18Z</time>
      </trkpt>
      <trkpt lat="54.960674028843641" lon="26.62019700743258">
        <ele>192.40000000000001</ele>
        <time>2011-08-18T08:15:25Z</time>
      </trkpt>
      <trkpt lat="54.960505971685052" lon="26.620006989687681">
        <ele>192.40000000000001</ele>
        <time>2011-08-18T08:15:29Z</time>
      </trkpt>
      <trkpt lat="54.960224004462361" lon="26.619768021628261">
        <ele>192.40000000000001</ele>
        <time>2011-08-18T08:15:36Z</time>
      </trkpt>
      <trkpt lat="54.959544986486435" lon="26.619557971134782">
        <ele>191.44</ele>
        <time>2011-08-18T08:15:50Z</time>
      </trkpt>
      <trkpt lat="54.959351029247046" lon="26.619507009163499">
        <ele>191.44</ele>
        <time>2011-08-18T08:15:54Z</time>
      </trkpt>
      <trkpt lat="54.958880972117186" lon="26.619418999180198">
        <ele>190.47999999999999</ele>
        <time>2011-08-18T08:16:05Z</time>
      </trkpt>
      <trkpt lat="54.958744011819363" lon="26.619396032765508">
        <ele>190.47999999999999</ele>
        <time>2011-08-18T08:16:08Z</time>
      </trkpt>
      <trkpt lat="54.958407981321216" lon="26.619241973385215">
        <ele>190.47999999999999</ele>
        <time>2011-08-18T08:16:17Z</time>
      </trkpt>
      <trkpt lat="54.95828602463007" lon="26.619071988388896">
        <ele>190.47999999999999</ele>
        <time>2011-08-18T08:16:23Z</time>
      </trkpt>
      <trkpt lat="54.958079997450113" lon="26.618922958150506">
        <ele>190</ele>
        <time>2011-08-18T08:16:29Z</time>
      </trkpt>
      <trkpt lat="54.957981007173657" lon="26.619113981723785">
        <ele>190.96000000000001</ele>
        <time>2011-08-18T08:16:34Z</time>
      </trkpt>
      <trkpt lat="54.958015037700534" lon="26.619537016376853">
        <ele>190.47999999999999</ele>
        <time>2011-08-18T08:16:40Z</time>
      </trkpt>
      <trkpt lat="54.958084020763636" lon="26.620026016607881">
        <ele>190.47999999999999</ele>
        <time>2011-08-18T08:16:47Z</time>
      </trkpt>
      <trkpt lat="54.958298010751605" lon="26.621066965162754">
        <ele>190</ele>
        <time>2011-08-18T08:17:00Z</time>
      </trkpt>
      <trkpt lat="54.958465984091163" lon="26.621756041422486">
        <ele>190</ele>
        <time>2011-08-18T08:17:08Z</time>
      </trkpt>
      <trkpt lat="54.958561034873128" lon="26.622185027226806">
        <ele>190.47999999999999</ele>
        <time>2011-08-18T08:17:13Z</time>
      </trkpt>
      <trkpt lat="54.958621971309185" lon="26.622434975579381">
        <ele>190.47999999999999</ele>
        <time>2011-08-18T08:17:16Z</time>
      </trkpt>
      <trkpt lat="54.958682991564274" lon="26.622675033286214">
        <ele>190</ele>
        <time>2011-08-18T08:17:19Z</time>
      </trkpt>
      <trkpt lat="54.958777958527207" lon="26.623099995777011">
        <ele>190</ele>
        <time>2011-08-18T08:17:24Z</time>
      </trkpt>
      <trkpt lat="54.959109965711832" lon="26.624626005068421">
        <ele>190.47999999999999</ele>
        <time>2011-08-18T08:17:41Z</time>
      </trkpt>
      <trkpt lat="54.959357986226678" lon="26.625899970531464">
        <ele>190</ele>
        <time>2011-08-18T08:17:55Z</time>
      </trkpt>
      <trkpt lat="54.959538029506803" lon="26.626948965713382">
        <ele>185.66999999999999</ele>
        <time>2011-08-18T08:18:07Z</time>
      </trkpt>
      <trkpt lat="54.959549009799957" lon="26.627033036202192">
        <ele>193.36000000000001</ele>
        <time>2011-08-18T08:18:08Z</time>
      </trkpt>
      <trkpt lat="54.95955697260797" lon="26.627117022871971">
        <ele>190</ele>
        <time>2011-08-18T08:18:09Z</time>
      </trkpt>
      <trkpt lat="54.95972796343267" lon="26.62892198190093">
        <ele>190.47999999999999</ele>
        <time>2011-08-18T08:18:29Z</time>
      </trkpt>
      <trkpt lat="54.95985402725637" lon="26.630471963435411">
        <ele>190.47999999999999</ele>
        <time>2011-08-18T08:18:45Z</time>
      </trkpt>
      <trkpt lat="54.960011020302773" lon="26.632302990183234">
        <ele>190</ele>
        <time>2011-08-18T08:19:04Z</time>
      </trkpt>
      <trkpt lat="54.960147980600595" lon="26.634473986923695">
        <ele>189.52000000000001</ele>
        <time>2011-08-18T08:19:26Z</time>
      </trkpt>
      <trkpt lat="54.960193997249007" lon="26.636430993676186">
        <ele>190</ele>
        <time>2011-08-18T08:19:46Z</time>
      </trkpt>
      <trkpt lat="54.960152003914118" lon="26.63843896239996">
        <ele>190.96000000000001</ele>
        <time>2011-08-18T08:20:07Z</time>
      </trkpt>
      <trkpt lat="54.960063993930817" lon="26.640388006344438">
        <ele>190.96000000000001</ele>
        <time>2011-08-18T08:20:28Z</time>
      </trkpt>
      <trkpt lat="54.959965003654361" lon="26.642288016155362">
        <ele>191.91999999999999</ele>
        <time>2011-08-18T08:20:49Z</time>
      </trkpt>
      <trkpt lat="54.959839023649693" lon="26.644725976511836">
        <ele>191.44</ele>
        <time>2011-08-18T08:21:14Z</time>
      </trkpt>
      <trkpt lat="54.959740033373237" lon="26.647081039845943">
        <ele>192.40000000000001</ele>
        <time>2011-08-18T08:21:38Z</time>
      </trkpt>
      <trkpt lat="54.959652023389935" lon="26.648499006405473">
        <ele>193.36000000000001</ele>
        <time>2011-08-18T08:21:53Z</time>
      </trkpt>
      <trkpt lat="54.959640959277749" lon="26.648608976975083">
        <ele>193.84</ele>
        <time>2011-08-18T08:21:55Z</time>
      </trkpt>
      <trkpt lat="54.959617992863059" lon="26.648652981966734">
        <ele>193.36000000000001</ele>
        <time>2011-08-18T08:22:08Z</time>
      </trkpt>
      <trkpt lat="54.959617992863059" lon="26.648652981966734">
        <ele>193.84</ele>
        <time>2011-08-18T08:22:35Z</time>
      </trkpt>
      <trkpt lat="54.959621010348201" lon="26.648647030815482">
        <ele>193.84</ele>
        <time>2011-08-18T08:23:03Z</time>
      </trkpt>
      <trkpt lat="54.959625033661723" lon="26.648647030815482">
        <ele>193.84</ele>
        <time>2011-08-18T08:23:30Z</time>
      </trkpt>
      <trkpt lat="54.959625033661723" lon="26.648647030815482">
        <ele>193.84</ele>
        <time>2011-08-18T08:23:44Z</time>
      </trkpt>
      <trkpt lat="54.959632996469736" lon="26.648726994171739">
        <ele>193.84</ele>
        <time>2011-08-18T08:24:10Z</time>
      </trkpt>
      <trkpt lat="54.959625033661723" lon="26.64879597723484">
        <ele>193.84</ele>
        <time>2011-08-18T08:24:25Z</time>
      </trkpt>
      <trkpt lat="54.959617992863059" lon="26.648920029401779">
        <ele>193.36000000000001</ele>
        <time>2011-08-18T08:24:30Z</time>
      </trkpt>
      <trkpt lat="54.95951103977859" lon="26.649494022130966">
        <ele>193.36000000000001</ele>
        <time>2011-08-18T08:24:46Z</time>
      </trkpt>
      <trkpt lat="54.959388999268413" lon="26.649969024583697">
        <ele>193.36000000000001</ele>
        <time>2011-08-18T08:24:56Z</time>
      </trkpt>
      <trkpt lat="54.958775024861097" lon="26.650619963183999">
        <ele>192.40000000000001</ele>
        <time>2011-08-18T08:25:12Z</time>
      </trkpt>
      <trkpt lat="54.957843963056803" lon="26.651148023083806">
        <ele>192.88</ele>
        <time>2011-08-18T08:25:31Z</time>
      </trkpt>
      <trkpt lat="54.956954978406429" lon="26.651656972244382">
        <ele>192.40000000000001</ele>
        <time>2011-08-18T08:25:48Z</time>
      </trkpt>
      <trkpt lat="54.956142017617822" lon="26.652456019073725">
        <ele>193.36000000000001</ele>
        <time>2011-08-18T08:26:05Z</time>
      </trkpt>
      <trkpt lat="54.955275999382138" lon="26.653934000059962">
        <ele>193.84</ele>
        <time>2011-08-18T08:26:27Z</time>
      </trkpt>
      <trkpt lat="54.954581977799535" lon="26.655122973024845">
        <ele>194.31999999999999</ele>
        <time>2011-08-18T08:26:47Z</time>
      </trkpt>
      <trkpt lat="54.953869013115764" lon="26.656353017315269">
        <ele>194.80000000000001</ele>
        <time>2011-08-18T08:27:05Z</time>
      </trkpt>
      <trkpt lat="54.95315202511847" lon="26.65756001137197">
        <ele>194.31999999999999</ele>
        <time>2011-08-18T08:27:20Z</time>
      </trkpt>
      <trkpt lat="54.952320037409663" lon="26.658948976546526">
        <ele>193.36000000000001</ele>
        <time>2011-08-18T08:27:39Z</time>
      </trkpt>
      <trkpt lat="54.951590979471803" lon="26.660280022770166">
        <ele>192.88</ele>
        <time>2011-08-18T08:27:56Z</time>
      </trkpt>
      <trkpt lat="54.950931994244456" lon="26.661593969911337">
        <ele>192.88</ele>
        <time>2011-08-18T08:28:13Z</time>
      </trkpt>
      <trkpt lat="54.950164966285229" lon="26.663173958659172">
        <ele>192.40000000000001</ele>
        <time>2011-08-18T08:28:34Z</time>
      </trkpt>
      <trkpt lat="54.94971502572298" lon="26.664037965238094">
        <ele>192.40000000000001</ele>
        <time>2011-08-18T08:28:46Z</time>
      </trkpt>
      <trkpt lat="54.949172968044877" lon="26.665140017867088">
        <ele>192.88</ele>
        <time>2011-08-18T08:29:00Z</time>
      </trkpt>
      <trkpt lat="54.94898596778512" lon="26.665521981194615">
        <ele>193.36000000000001</ele>
        <time>2011-08-18T08:29:05Z</time>
      </trkpt>
      <trkpt lat="54.948443993926048" lon="26.666607018560171">
        <ele>193.84</ele>
        <time>2011-08-18T08:29:19Z</time>
      </trkpt>
      <trkpt lat="54.9478679895401" lon="26.667856005951762">
        <ele>193.36000000000001</ele>
        <time>2011-08-18T08:29:34Z</time>
      </trkpt>
      <trkpt lat="54.947327021509409" lon="26.66892796754837">
        <ele>192.88</ele>
        <time>2011-08-18T08:29:47Z</time>
      </trkpt>
      <trkpt lat="54.94681203737855" lon="26.669958019629121">
        <ele>193.36000000000001</ele>
        <time>2011-08-18T08:30:00Z</time>
      </trkpt>
      <trkpt lat="54.946731990203261" lon="26.670123981311917">
        <ele>191.91999999999999</ele>
        <time>2011-08-18T08:30:02Z</time>
      </trkpt>
      <trkpt lat="54.946552030742168" lon="26.670549027621746">
        <ele>192.40000000000001</ele>
        <time>2011-08-18T08:30:07Z</time>
      </trkpt>
      <trkpt lat="54.946338962763548" lon="26.670957980677485">
        <ele>193.36000000000001</ele>
        <time>2011-08-18T08:30:12Z</time>
      </trkpt>
      <trkpt lat="54.945801012217999" lon="26.67204100638628">
        <ele>192.40000000000001</ele>
        <time>2011-08-18T08:30:26Z</time>
      </trkpt>
      <trkpt lat="54.945198018103838" lon="26.673296028748155">
        <ele>191.91999999999999</ele>
        <time>2011-08-18T08:30:42Z</time>
      </trkpt>
      <trkpt lat="54.944553030654788" lon="26.674574017524719">
        <ele>192.40000000000001</ele>
        <time>2011-08-18T08:30:59Z</time>
      </trkpt>
      <trkpt lat="54.944224962964654" lon="26.675340961664915">
        <ele>192.40000000000001</ele>
        <time>2011-08-18T08:31:09Z</time>
      </trkpt>
      <trkpt lat="54.943694975227118" lon="26.676476038992405">
        <ele>193.36000000000001</ele>
        <time>2011-08-18T08:31:23Z</time>
      </trkpt>
      <trkpt lat="54.943157024681568" lon="26.677556969225407">
        <ele>193.36000000000001</ele>
        <time>2011-08-18T08:31:37Z</time>
      </trkpt>
      <trkpt lat="54.942570040002465" lon="26.678743008524179">
        <ele>194.80000000000001</ele>
        <time>2011-08-18T08:31:53Z</time>
      </trkpt>
      <trkpt lat="54.941978026181459" lon="26.679961988702416">
        <ele>195.28</ele>
        <time>2011-08-18T08:32:13Z</time>
      </trkpt>
      <trkpt lat="54.941399004310369" lon="26.68115196749568">
        <ele>195.28</ele>
        <time>2011-08-18T08:32:33Z</time>
      </trkpt>
      <trkpt lat="54.940758040174842" lon="26.68245904147625">
        <ele>195.28</ele>
        <time>2011-08-18T08:32:51Z</time>
      </trkpt>
      <trkpt lat="54.93998003192246" lon="26.684112958610058">
        <ele>194.80000000000001</ele>
        <time>2011-08-18T08:33:12Z</time>
      </trkpt>
      <trkpt lat="54.939193977043033" lon="26.685681967064738">
        <ele>192.88</ele>
        <time>2011-08-18T08:33:32Z</time>
      </trkpt>
      <trkpt lat="54.939151983708143" lon="26.685739969834685">
        <ele>192.88</ele>
        <time>2011-08-18T08:33:33Z</time>
      </trkpt>
      <trkpt lat="54.938750993460417" lon="26.686150012537837">
        <ele>193.36000000000001</ele>
        <time>2011-08-18T08:33:42Z</time>
      </trkpt>
      <trkpt lat="54.938709000125527" lon="26.68617800809443">
        <ele>193.84</ele>
        <time>2011-08-18T08:33:43Z</time>
      </trkpt>
      <trkpt lat="54.938403982669115" lon="26.686416976153851">
        <ele>193.84</ele>
        <time>2011-08-18T08:33:55Z</time>
      </trkpt>
      <trkpt lat="54.938346985727549" lon="26.686459975317121">
        <ele>193.84</ele>
        <time>2011-08-18T08:33:58Z</time>
      </trkpt>
      <trkpt lat="54.938331982120872" lon="26.686483025550842">
        <ele>193.84</ele>
        <time>2011-08-18T08:33:59Z</time>
      </trkpt>
      <trkpt lat="54.938315972685814" lon="26.686497023329139">
        <ele>193.84</ele>
        <time>2011-08-18T08:34:00Z</time>
      </trkpt>
      <trkpt lat="54.938297029584646" lon="26.686497023329139">
        <ele>193.84</ele>
        <time>2011-08-18T08:34:01Z</time>
      </trkpt>
      <trkpt lat="54.938282025977969" lon="26.686495011672378">
        <ele>194.31999999999999</ele>
        <time>2011-08-18T08:34:02Z</time>
      </trkpt>
      <trkpt lat="54.938270961865783" lon="26.6864990349859">
        <ele>193.36000000000001</ele>
        <time>2011-08-18T08:34:03Z</time>
      </trkpt>
      <trkpt lat="54.93826299905777" lon="26.686500962823629">
        <ele>193.36000000000001</ele>
        <time>2011-08-18T08:34:14Z</time>
      </trkpt>
      <trkpt lat="54.93826299905777" lon="26.686500962823629">
        <ele>193.36000000000001</ele>
        <time>2011-08-18T08:34:42Z</time>
      </trkpt>
      <trkpt lat="54.93826299905777" lon="26.686497023329139">
        <ele>193.84</ele>
        <time>2011-08-18T08:35:11Z</time>
      </trkpt>
      <trkpt lat="54.938267022371292" lon="26.686497023329139">
        <ele>193.84</ele>
        <time>2011-08-18T08:35:46Z</time>
      </trkpt>
      <trkpt lat="54.938267022371292" lon="26.686497023329139">
        <ele>193.84</ele>
        <time>2011-08-18T08:36:17Z</time>
      </trkpt>
      <trkpt lat="54.938258975744247" lon="26.686493000015616">
        <ele>193.36000000000001</ele>
        <time>2011-08-18T08:36:48Z</time>
      </trkpt>
      <trkpt lat="54.938258975744247" lon="26.686495011672378">
        <ele>193.36000000000001</ele>
        <time>2011-08-18T08:37:27Z</time>
      </trkpt>
      <trkpt lat="54.938258975744247" lon="26.686488976702094">
        <ele>193.36000000000001</ele>
        <time>2011-08-18T08:38:10Z</time>
      </trkpt>
      <trkpt lat="54.93826299905777" lon="26.686495011672378">
        <ele>193.36000000000001</ele>
        <time>2011-08-18T08:38:50Z</time>
      </trkpt>
      <trkpt lat="54.93826299905777" lon="26.686486965045333">
        <ele>193.36000000000001</ele>
        <time>2011-08-18T08:39:25Z</time>
      </trkpt>
      <trkpt lat="54.93826299905777" lon="26.686486965045333">
        <ele>193.84</ele>
        <time>2011-08-18T08:40:03Z</time>
      </trkpt>
      <trkpt lat="54.93826299905777" lon="26.686477996408939">
        <ele>193.36000000000001</ele>
        <time>2011-08-18T08:40:36Z</time>
      </trkpt>
      <trkpt lat="54.938267022371292" lon="26.686480008065701">
        <ele>193.84</ele>
        <time>2011-08-18T08:41:04Z</time>
      </trkpt>
      <trkpt lat="54.938267022371292" lon="26.686477996408939">
        <ele>198.65000000000001</ele>
        <time>2011-08-18T08:41:36Z</time>
      </trkpt>
      <trkpt lat="54.938267022371292" lon="26.686477996408939">
        <ele>189.03999999999999</ele>
        <time>2011-08-18T08:41:37Z</time>
      </trkpt>
      <trkpt lat="54.938267022371292" lon="26.686477996408939">
        <ele>194.80000000000001</ele>
        <time>2011-08-18T08:41:38Z</time>
      </trkpt>
      <trkpt lat="54.938267022371292" lon="26.686477996408939">
        <ele>196.25</ele>
        <time>2011-08-18T08:41:42Z</time>
      </trkpt>
      <trkpt lat="54.938267022371292" lon="26.686477996408939">
        <ele>193.84</ele>
        <time>2011-08-18T08:41:50Z</time>
      </trkpt>
      <trkpt lat="54.938267022371292" lon="26.686477996408939">
        <ele>188.56</ele>
        <time>2011-08-18T08:41:53Z</time>
      </trkpt>
      <trkpt lat="54.938267022371292" lon="26.686477996408939">
        <ele>194.31999999999999</ele>
        <time>2011-08-18T08:41:54Z</time>
      </trkpt>
      <trkpt lat="54.938267022371292" lon="26.686477996408939">
        <ele>190.96000000000001</ele>
        <time>2011-08-18T08:41:55Z</time>
      </trkpt>
      <trkpt lat="54.938267022371292" lon="26.686477996408939">
        <ele>197.69</ele>
        <time>2011-08-18T08:41:56Z</time>
      </trkpt>
      <trkpt lat="54.938267022371292" lon="26.686477996408939">
        <ele>192.40000000000001</ele>
        <time>2011-08-18T08:41:57Z</time>
      </trkpt>
      <trkpt lat="54.938267022371292" lon="26.686477996408939">
        <ele>195.77000000000001</ele>
        <time>2011-08-18T08:41:58Z</time>
      </trkpt>
      <trkpt lat="54.938267022371292" lon="26.686477996408939">
        <ele>193.84</ele>
        <time>2011-08-18T08:42:01Z</time>
      </trkpt>
      <trkpt lat="54.938267022371292" lon="26.686471961438656">
        <ele>193.84</ele>
        <time>2011-08-18T08:42:36Z</time>
      </trkpt>
      <trkpt lat="54.93826299905777" lon="26.686470033600926">
        <ele>193.84</ele>
        <time>2011-08-18T08:43:13Z</time>
      </trkpt>
      <trkpt lat="54.938267022371292" lon="26.686471961438656">
        <ele>193.84</ele>
        <time>2011-08-18T08:43:51Z</time>
      </trkpt>
      <trkpt lat="54.938267022371292" lon="26.686480008065701">
        <ele>193.84</ele>
        <time>2011-08-18T08:44:31Z</time>
      </trkpt>
      <trkpt lat="54.938270961865783" lon="26.686473973095417">
        <ele>193.36000000000001</ele>
        <time>2011-08-18T08:45:03Z</time>
      </trkpt>
      <trkpt lat="54.938273979350924" lon="26.686480008065701">
        <ele>193.84</ele>
        <time>2011-08-18T08:45:37Z</time>
      </trkpt>
      <trkpt lat="54.938273979350924" lon="26.686475984752178">
        <ele>193.84</ele>
        <time>2011-08-18T08:46:10Z</time>
      </trkpt>
      <trkpt lat="54.938278002664447" lon="26.686475984752178">
        <ele>193.36000000000001</ele>
        <time>2011-08-18T08:46:45Z</time>
      </trkpt>
      <trkpt lat="54.938273979350924" lon="26.686480008065701">
        <ele>193.36000000000001</ele>
        <time>2011-08-18T08:47:25Z</time>
      </trkpt>
      <trkpt lat="54.938270961865783" lon="26.686488976702094">
        <ele>193.36000000000001</ele>
        <time>2011-08-18T08:48:07Z</time>
      </trkpt>
      <trkpt lat="54.938270961865783" lon="26.686493000015616">
        <ele>192.40000000000001</ele>
        <time>2011-08-18T08:48:44Z</time>
      </trkpt>
      <trkpt lat="54.938270961865783" lon="26.686493000015616">
        <ele>192.40000000000001</ele>
        <time>2011-08-18T08:49:21Z</time>
      </trkpt>
      <trkpt lat="54.938267022371292" lon="26.686495011672378">
        <ele>192.40000000000001</ele>
        <time>2011-08-18T08:49:51Z</time>
      </trkpt>
      <trkpt lat="54.938270961865783" lon="26.686493000015616">
        <ele>191.91999999999999</ele>
        <time>2011-08-18T08:50:22Z</time>
      </trkpt>
      <trkpt lat="54.938247995451093" lon="26.686515966430306">
        <ele>192.40000000000001</ele>
        <time>2011-08-18T08:50:30Z</time>
      </trkpt>
      <trkpt lat="54.937972985208035" lon="26.686859037727118">
        <ele>192.40000000000001</ele>
        <time>2011-08-18T08:50:44Z</time>
      </trkpt>
      <trkpt lat="54.937613988295197" lon="26.68746898882091">
        <ele>192.40000000000001</ele>
        <time>2011-08-18T08:50:59Z</time>
      </trkpt>
      <trkpt lat="54.937374014407396" lon="26.688568023964763">
        <ele>192.88</ele>
        <time>2011-08-18T08:51:18Z</time>
      </trkpt>
      <trkpt lat="54.937206041067839" lon="26.689496990293264">
        <ele>193.36000000000001</ele>
        <time>2011-08-18T08:51:33Z</time>
      </trkpt>
      <trkpt lat="54.937179973348975" lon="26.68952900916338">
        <ele>193.36000000000001</ele>
        <time>2011-08-18T08:51:34Z</time>
      </trkpt>
      <trkpt lat="54.937140997499228" lon="26.689536971971393">
        <ele>193.36000000000001</ele>
        <time>2011-08-18T08:51:35Z</time>
      </trkpt>
      <trkpt lat="54.93710302747786" lon="26.689531020820141">
        <ele>193.36000000000001</ele>
        <time>2011-08-18T08:51:36Z</time>
      </trkpt>
      <trkpt lat="54.937064973637462" lon="26.689523980021477">
        <ele>193.36000000000001</ele>
        <time>2011-08-18T08:51:37Z</time>
      </trkpt>
      <trkpt lat="54.936626013368368" lon="26.689331028610468">
        <ele>193.36000000000001</ele>
        <time>2011-08-18T08:51:48Z</time>
      </trkpt>
      <trkpt lat="54.93654303252697" lon="26.68927202001214">
        <ele>193.36000000000001</ele>
        <time>2011-08-18T08:51:50Z</time>
      </trkpt>
      <trkpt lat="54.935978008434176" lon="26.689008995890617">
        <ele>191.91999999999999</ele>
        <time>2011-08-18T08:52:05Z</time>
      </trkpt>
      <trkpt lat="54.935646001249552" lon="26.688828030601144">
        <ele>192.40000000000001</ele>
        <time>2011-08-18T08:52:18Z</time>
      </trkpt>
      <trkpt lat="54.935657987371087" lon="26.689001033082604">
        <ele>192.40000000000001</ele>
        <time>2011-08-18T08:52:29Z</time>
      </trkpt>
      <trkpt lat="54.935657987371087" lon="26.689001033082604">
        <ele>191.91999999999999</ele>
        <time>2011-08-18T08:52:54Z</time>
      </trkpt>
      <trkpt lat="54.935657987371087" lon="26.689001033082604">
        <ele>192.40000000000001</ele>
        <time>2011-08-18T08:53:25Z</time>
      </trkpt>
      <trkpt lat="54.935657987371087" lon="26.688994998112321">
        <ele>191.91999999999999</ele>
        <time>2011-08-18T08:53:56Z</time>
      </trkpt>
      <trkpt lat="54.935657987371087" lon="26.688994998112321">
        <ele>191.91999999999999</ele>
        <time>2011-08-18T08:54:25Z</time>
      </trkpt>
      <trkpt lat="54.935657987371087" lon="26.688994998112321">
        <ele>191.44</ele>
        <time>2011-08-18T08:54:55Z</time>
      </trkpt>
      <trkpt lat="54.935657987371087" lon="26.688997009769082">
        <ele>191.44</ele>
        <time>2011-08-18T08:55:20Z</time>
      </trkpt>
      <trkpt lat="54.935657987371087" lon="26.689001033082604">
        <ele>191.44</ele>
        <time>2011-08-18T08:55:50Z</time>
      </trkpt>
      <trkpt lat="54.935657987371087" lon="26.689001033082604">
        <ele>191.44</ele>
        <time>2011-08-18T08:56:22Z</time>
      </trkpt>
      <trkpt lat="54.935657987371087" lon="26.689004972577095">
        <ele>191.44</ele>
        <time>2011-08-18T08:56:51Z</time>
      </trkpt>
      <trkpt lat="54.935650024563074" lon="26.689011007547379">
        <ele>191.44</ele>
        <time>2011-08-18T08:57:21Z</time>
      </trkpt>
      <trkpt lat="54.935646001249552" lon="26.689017964527011">
        <ele>191.44</ele>
        <time>2011-08-18T08:57:49Z</time>
      </trkpt>
      <trkpt lat="54.935653964057565" lon="26.68901402503252">
        <ele>191.91999999999999</ele>
        <time>2011-08-18T08:57:53Z</time>
      </trkpt>
      <trkpt lat="54.9359439779073" lon="26.689114021137357">
        <ele>191.44</ele>
        <time>2011-08-18T08:58:10Z</time>
      </trkpt>
      <trkpt lat="54.936328958719969" lon="26.689360029995441">
        <ele>191.44</ele>
        <time>2011-08-18T08:58:30Z</time>
      </trkpt>
      <trkpt lat="54.936356032267213" lon="26.689382996410131">
        <ele>191.44</ele>
        <time>2011-08-18T08:58:32Z</time>
      </trkpt>
      <trkpt lat="54.936367012560368" lon="26.689558010548353">
        <ele>192.40000000000001</ele>
        <time>2011-08-18T08:58:39Z</time>
      </trkpt>
      <trkpt lat="54.936409005895257" lon="26.68967803940177">
        <ele>191.91999999999999</ele>
        <time>2011-08-18T08:58:43Z</time>
      </trkpt>
      <trkpt lat="54.936492992565036" lon="26.689747022464871">
        <ele>191.44</ele>
        <time>2011-08-18T08:58:53Z</time>
      </trkpt>
      <trkpt lat="54.936497015878558" lon="26.689735036343336">
        <ele>191.91999999999999</ele>
        <time>2011-08-18T08:59:08Z</time>
      </trkpt>
      <trkpt lat="54.936497015878558" lon="26.689735036343336">
        <ele>192.40000000000001</ele>
        <time>2011-08-18T08:59:42Z</time>
      </trkpt>
      <trkpt lat="54.936497015878558" lon="26.689735036343336">
        <ele>192.40000000000001</ele>
        <time>2011-08-18T09:00:21Z</time>
      </trkpt>
      <trkpt lat="54.936497015878558" lon="26.689735036343336">
        <ele>191.44</ele>
        <time>2011-08-18T09:01:01Z</time>
      </trkpt>
      <trkpt lat="54.936497015878558" lon="26.689734030514956">
        <ele>191.44</ele>
        <time>2011-08-18T09:01:45Z</time>
      </trkpt>
      <trkpt lat="54.936497015878558" lon="26.689732018858194">
        <ele>191.91999999999999</ele>
        <time>2011-08-18T09:02:30Z</time>
      </trkpt>
      <trkpt lat="54.936492992565036" lon="26.689734030514956">
        <ele>191.44</ele>
        <time>2011-08-18T09:03:13Z</time>
      </trkpt>
      <trkpt lat="54.936492992565036" lon="26.689747022464871">
        <ele>191.44</ele>
        <time>2011-08-18T09:03:56Z</time>
      </trkpt>
      <trkpt lat="54.936492992565036" lon="26.689752973616123">
        <ele>191.91999999999999</ele>
        <time>2011-08-18T09:04:42Z</time>
      </trkpt>
      <trkpt lat="54.936492992565036" lon="26.689749034121633">
        <ele>191.44</ele>
        <time>2011-08-18T09:05:27Z</time>
      </trkpt>
      <trkpt lat="54.936492992565036" lon="26.689755991101265">
        <ele>191.91999999999999</ele>
        <time>2011-08-18T09:06:12Z</time>
      </trkpt>
      <trkpt lat="54.936492992565036" lon="26.689752973616123">
        <ele>191.44</ele>
        <time>2011-08-18T09:06:53Z</time>
      </trkpt>
      <trkpt lat="54.936497015878558" lon="26.689747022464871">
        <ele>191.91999999999999</ele>
        <time>2011-08-18T09:07:35Z</time>
      </trkpt>
      <trkpt lat="54.936492992565036" lon="26.689760014414787">
        <ele>192.40000000000001</ele>
        <time>2011-08-18T09:08:16Z</time>
      </trkpt>
      <trkpt lat="54.936497015878558" lon="26.689753979444504">
        <ele>191.91999999999999</ele>
        <time>2011-08-18T09:08:48Z</time>
      </trkpt>
      <trkpt lat="54.936497015878558" lon="26.689752973616123">
        <ele>191.91999999999999</ele>
        <time>2011-08-18T09:09:21Z</time>
      </trkpt>
      <trkpt lat="54.936497015878558" lon="26.689747022464871">
        <ele>191.44</ele>
        <time>2011-08-18T09:09:57Z</time>
      </trkpt>
      <trkpt lat="54.93650103919208" lon="26.689736964181066">
        <ele>192.40000000000001</ele>
        <time>2011-08-18T09:10:38Z</time>
      </trkpt>
      <trkpt lat="54.93650103919208" lon="26.689730007201433">
        <ele>191.44</ele>
        <time>2011-08-18T09:11:17Z</time>
      </trkpt>
      <trkpt lat="54.93650103919208" lon="26.689718021079898">
        <ele>192.40000000000001</ele>
        <time>2011-08-18T09:11:55Z</time>
      </trkpt>
      <trkpt lat="54.93650103919208" lon="26.689718021079898">
        <ele>192.40000000000001</ele>
        <time>2011-08-18T09:12:13Z</time>
      </trkpt>
      <trkpt lat="54.936503972858191" lon="26.689727995544672">
        <ele>193.36000000000001</ele>
        <time>2011-08-18T09:12:23Z</time>
      </trkpt>
      <trkpt lat="54.936507996171713" lon="26.689749034121633">
        <ele>192.88</ele>
        <time>2011-08-18T09:12:39Z</time>
      </trkpt>
      <trkpt lat="54.936507996171713" lon="26.689749034121633">
        <ele>191.91999999999999</ele>
        <time>2011-08-18T09:13:04Z</time>
      </trkpt>
      <trkpt lat="54.936507996171713" lon="26.689760014414787">
        <ele>188.08000000000001</ele>
        <time>2011-08-18T09:13:06Z</time>
      </trkpt>
      <trkpt lat="54.936507996171713" lon="26.689760014414787">
        <ele>189.03999999999999</ele>
        <time>2011-08-18T09:13:07Z</time>
      </trkpt>
      <trkpt lat="54.936507996171713" lon="26.689760014414787">
        <ele>192.88</ele>
        <time>2011-08-18T09:13:08Z</time>
      </trkpt>
      <trkpt lat="54.936507996171713" lon="26.689760014414787">
        <ele>191.44</ele>
        <time>2011-08-18T09:13:09Z</time>
      </trkpt>
      <trkpt lat="54.936507996171713" lon="26.689760014414787">
        <ele>191.91999999999999</ele>
        <time>2011-08-18T09:13:18Z</time>
      </trkpt>
      <trkpt lat="54.936721986159682" lon="26.690020021051168">
        <ele>192.40000000000001</ele>
        <time>2011-08-18T09:13:29Z</time>
      </trkpt>
      <trkpt lat="54.936721986159682" lon="26.690114988014102">
        <ele>192.40000000000001</ele>
        <time>2011-08-18T09:13:31Z</time>
      </trkpt>
      <trkpt lat="54.936793986707926" lon="26.690262006595731">
        <ele>192.88</ele>
        <time>2011-08-18T09:13:36Z</time>
      </trkpt>
      <trkpt lat="54.93686699308455" lon="26.69032696634531">
        <ele>193.36000000000001</ele>
        <time>2011-08-18T09:13:40Z</time>
      </trkpt>
      <trkpt lat="54.936908986419439" lon="26.690816972404718">
        <ele>191.91999999999999</ele>
        <time>2011-08-18T09:13:52Z</time>
      </trkpt>
      <trkpt lat="54.936817036941648" lon="26.691671004518867">
        <ele>192.88</ele>
        <time>2011-08-18T09:14:07Z</time>
      </trkpt>
      <trkpt lat="54.936787029728293" lon="26.691798996180296">
        <ele>192.40000000000001</ele>
        <time>2011-08-18T09:14:09Z</time>
      </trkpt>
      <trkpt lat="54.936519982293248" lon="26.69270901940763">
        <ele>192.40000000000001</ele>
        <time>2011-08-18T09:14:23Z</time>
      </trkpt>
      <trkpt lat="54.936332982033491" lon="26.693564979359508">
        <ele>193.36000000000001</ele>
        <time>2011-08-18T09:14:37Z</time>
      </trkpt>
      <trkpt lat="54.936184035614133" lon="26.694585978984833">
        <ele>194.80000000000001</ele>
        <time>2011-08-18T09:14:52Z</time>
      </trkpt>
      <trkpt lat="54.936039028689265" lon="26.695666993036866">
        <ele>196.72999999999999</ele>
        <time>2011-08-18T09:15:07Z</time>
      </trkpt>
      <trkpt lat="54.935734011232853" lon="26.696971971541643">
        <ele>196.72999999999999</ele>
        <time>2011-08-18T09:15:25Z</time>
      </trkpt>
      <trkpt lat="54.935364034026861" lon="26.698278039693832">
        <ele>195.77000000000001</ele>
        <time>2011-08-18T09:15:42Z</time>
      </trkpt>
      <trkpt lat="54.935069996863604" lon="26.699376991018653">
        <ele>195.77000000000001</ele>
        <time>2011-08-18T09:15:56Z</time>
      </trkpt>
      <trkpt lat="54.93469599634409" lon="26.70068196952343">
        <ele>195.28</ele>
        <time>2011-08-18T09:16:13Z</time>
      </trkpt>
      <trkpt lat="54.934375975281" lon="26.701821992173791">
        <ele>194.31999999999999</ele>
        <time>2011-08-18T09:16:27Z</time>
      </trkpt>
      <trkpt lat="54.934067018330097" lon="26.702928990125656">
        <ele>193.36000000000001</ele>
        <time>2011-08-18T09:16:40Z</time>
      </trkpt>
      <trkpt lat="54.934043968096375" lon="26.703007025644183">
        <ele>193.84</ele>
        <time>2011-08-18T09:16:41Z</time>
      </trkpt>
      <trkpt lat="54.934021001681685" lon="26.703082965686917">
        <ele>193.36000000000001</ele>
        <time>2011-08-18T09:16:42Z</time>
      </trkpt>
      <trkpt lat="54.933884041383862" lon="26.703440034762025">
        <ele>193.84</ele>
        <time>2011-08-18T09:16:47Z</time>
      </trkpt>
      <trkpt lat="54.933845987543464" lon="26.703502982854843">
        <ele>193.36000000000001</ele>
        <time>2011-08-18T09:16:48Z</time>
      </trkpt>
      <trkpt lat="54.933193037286401" lon="26.70446396805346">
        <ele>193.36000000000001</ele>
        <time>2011-08-18T09:17:04Z</time>
      </trkpt>
      <trkpt lat="54.93265500292182" lon="26.705305008217692">
        <ele>192.88</ele>
        <time>2011-08-18T09:17:17Z</time>
      </trkpt>
      <trkpt lat="54.932095007970929" lon="26.706457016989589">
        <ele>192.88</ele>
        <time>2011-08-18T09:17:33Z</time>
      </trkpt>
      <trkpt lat="54.931637020781636" lon="26.707609025761485">
        <ele>193.36000000000001</ele>
        <time>2011-08-18T09:17:47Z</time>
      </trkpt>
      <trkpt lat="54.931243993341923" lon="26.708603035658598">
        <ele>194.80000000000001</ele>
        <time>2011-08-18T09:18:02Z</time>
      </trkpt>
      <trkpt lat="54.931122036650777" lon="26.708934959024191">
        <ele>195.28</ele>
        <time>2011-08-18T09:18:07Z</time>
      </trkpt>
      <trkpt lat="54.930633958429098" lon="26.710184030234814">
        <ele>196.72999999999999</ele>
        <time>2011-08-18T09:18:26Z</time>
      </trkpt>
      <trkpt lat="54.930510995909572" lon="26.710492987185717">
        <ele>197.21000000000001</ele>
        <time>2011-08-18T09:18:31Z</time>
      </trkpt>
      <trkpt lat="54.930214025080204" lon="26.711278958246112">
        <ele>200.09</ele>
        <time>2011-08-18T09:18:47Z</time>
      </trkpt>
      <trkpt lat="54.930015960708261" lon="26.711819004267454">
        <ele>203.46000000000001</ele>
        <time>2011-08-18T09:19:02Z</time>
      </trkpt>
      <trkpt lat="54.929836001247168" lon="26.712212031707168">
        <ele>204.90000000000001</ele>
        <time>2011-08-18T09:19:15Z</time>
      </trkpt>
      <trkpt lat="54.92956199683249" lon="26.712661972269416">
        <ele>207.30000000000001</ele>
        <time>2011-08-18T09:19:32Z</time>
      </trkpt>
      <trkpt lat="54.929295033216476" lon="26.713096993044019">
        <ele>209.22</ele>
        <time>2011-08-18T09:19:48Z</time>
      </trkpt>
      <trkpt lat="54.929123036563396" lon="26.713692024350166">
        <ele>211.63</ele>
        <time>2011-08-18T09:20:04Z</time>
      </trkpt>
      <trkpt lat="54.929259996861219" lon="26.71462400816381">
        <ele>210.19</ele>
        <time>2011-08-18T09:20:18Z</time>
      </trkpt>
      <trkpt lat="54.929424030706286" lon="26.715446021407843">
        <ele>206.81999999999999</ele>
        <time>2011-08-18T09:20:25Z</time>
      </trkpt>
      <trkpt lat="54.929508017376065" lon="26.716854013502598">
        <ele>206.34</ele>
        <time>2011-08-18T09:20:37Z</time>
      </trkpt>
      <trkpt lat="54.929493013769388" lon="26.717322980985045">
        <ele>206.81999999999999</ele>
        <time>2011-08-18T09:20:42Z</time>
      </trkpt>
      <trkpt lat="54.929497037082911" lon="26.717408979311585">
        <ele>206.81999999999999</ele>
        <time>2011-08-18T09:20:43Z</time>
      </trkpt>
      <trkpt lat="54.929503994062543" lon="26.717491038143635">
        <ele>207.30000000000001</ele>
        <time>2011-08-18T09:20:44Z</time>
      </trkpt>
      <trkpt lat="54.929512040689588" lon="26.717563960701227">
        <ele>207.78</ele>
        <time>2011-08-18T09:20:45Z</time>
      </trkpt>
      <trkpt lat="54.929523020982742" lon="26.717630010098219">
        <ele>207.30000000000001</ele>
        <time>2011-08-18T09:20:46Z</time>
      </trkpt>
      <trkpt lat="54.9295390304178" lon="26.71769698150456">
        <ele>208.25999999999999</ele>
        <time>2011-08-18T09:20:47Z</time>
      </trkpt>
      <trkpt lat="54.929550010710955" lon="26.717764036729932">
        <ele>207.78</ele>
        <time>2011-08-18T09:20:48Z</time>
      </trkpt>
      <trkpt lat="54.92956199683249" lon="26.717834025621414">
        <ele>207.78</ele>
        <time>2011-08-18T09:20:49Z</time>
      </trkpt>
      <trkpt lat="54.929581023752689" lon="26.717900997027755">
        <ele>208.25999999999999</ele>
        <time>2011-08-18T09:20:50Z</time>
      </trkpt>
      <trkpt lat="54.929607007652521" lon="26.718053966760635">
        <ele>208.25999999999999</ele>
        <time>2011-08-18T09:20:52Z</time>
      </trkpt>
      <trkpt lat="54.929623017087579" lon="26.718309028074145">
        <ele>208.25999999999999</ele>
        <time>2011-08-18T09:20:55Z</time>
      </trkpt>
      <trkpt lat="54.929614970460534" lon="26.718666013330221">
        <ele>208.25999999999999</ele>
        <time>2011-08-18T09:20:59Z</time>
      </trkpt>
      <trkpt lat="54.929596027359366" lon="26.718759974464774">
        <ele>208.25999999999999</ele>
        <time>2011-08-18T09:21:00Z</time>
      </trkpt>
      <trkpt lat="54.929572977125645" lon="26.718851001933217">
        <ele>208.74000000000001</ele>
        <time>2011-08-18T09:21:01Z</time>
      </trkpt>
      <trkpt lat="54.929545987397432" lon="26.718937000259757">
        <ele>208.74000000000001</ele>
        <time>2011-08-18T09:21:02Z</time>
      </trkpt>
      <trkpt lat="54.929520003497601" lon="26.719015035778284">
        <ele>208.74000000000001</ele>
        <time>2011-08-18T09:21:03Z</time>
      </trkpt>
      <trkpt lat="54.929355969652534" lon="26.719559021294117">
        <ele>209.69999999999999</ele>
        <time>2011-08-18T09:21:11Z</time>
      </trkpt>
      <trkpt lat="54.929310036823153" lon="26.719779968261719">
        <ele>209.69999999999999</ele>
        <time>2011-08-18T09:21:14Z</time>
      </trkpt>
      <trkpt lat="54.929301990196109" lon="26.719860015437007">
        <ele>209.22</ele>
        <time>2011-08-18T09:21:15Z</time>
      </trkpt>
      <trkpt lat="54.929295033216476" lon="26.720030000433326">
        <ele>209.69999999999999</ele>
        <time>2011-08-18T09:21:17Z</time>
      </trkpt>
      <trkpt lat="54.929279023781419" lon="26.721467999741435">
        <ele>207.30000000000001</ele>
        <time>2011-08-18T09:21:31Z</time>
      </trkpt>
      <trkpt lat="54.929253039881587" lon="26.721729012206197">
        <ele>207.78</ele>
        <time>2011-08-18T09:21:33Z</time>
      </trkpt>
      <trkpt lat="54.929156983271241" lon="26.723460964858532">
        <ele>207.78</ele>
        <time>2011-08-18T09:21:46Z</time>
      </trkpt>
      <trkpt lat="54.9294129665941" lon="26.725764982402325">
        <ele>208.74000000000001</ele>
        <time>2011-08-18T09:22:05Z</time>
      </trkpt>
      <trkpt lat="54.929732987657189" lon="26.727093011140823">
        <ele>208.74000000000001</ele>
        <time>2011-08-18T09:22:19Z</time>
      </trkpt>
      <trkpt lat="54.929915964603424" lon="26.728061959147453">
        <ele>211.63</ele>
        <time>2011-08-18T09:22:33Z</time>
      </trkpt>
      <trkpt lat="54.929943038150668" lon="26.728194979950786">
        <ele>211.15000000000001</ele>
        <time>2011-08-18T09:22:35Z</time>
      </trkpt>
      <trkpt lat="54.929985031485558" lon="26.728478958830237">
        <ele>212.11000000000001</ele>
        <time>2011-08-18T09:22:39Z</time>
      </trkpt>
      <trkpt lat="54.930076980963349" lon="26.729355035349727">
        <ele>214.03</ele>
        <time>2011-08-18T09:22:54Z</time>
      </trkpt>
      <trkpt lat="54.930007997900248" lon="26.730112005025148">
        <ele>216.43000000000001</ele>
        <time>2011-08-18T09:23:10Z</time>
      </trkpt>
      <trkpt lat="54.929909007623792" lon="26.731295026838779">
        <ele>216.43000000000001</ele>
        <time>2011-08-18T09:23:29Z</time>
      </trkpt>
      <trkpt lat="54.929801970720291" lon="26.732181999832392">
        <ele>216.43000000000001</ele>
        <time>2011-08-18T09:23:41Z</time>
      </trkpt>
      <trkpt lat="54.92971396073699" lon="26.732891025021672">
        <ele>214.99000000000001</ele>
        <time>2011-08-18T09:23:50Z</time>
      </trkpt>
      <trkpt lat="54.929687976837158" lon="26.733997017145157">
        <ele>213.55000000000001</ele>
        <time>2011-08-18T09:24:02Z</time>
      </trkpt>
      <trkpt lat="54.93001202121377" lon="26.735373996198177">
        <ele>211.63</ele>
        <time>2011-08-18T09:24:18Z</time>
      </trkpt>
      <trkpt lat="54.93029398843646" lon="26.736126020550728">
        <ele>210.66999999999999</ele>
        <time>2011-08-18T09:24:27Z</time>
      </trkpt>
      <trkpt lat="54.930449975654483" lon="26.736695989966393">
        <ele>209.69999999999999</ele>
        <time>2011-08-18T09:24:34Z</time>
      </trkpt>
      <trkpt lat="54.930564975365996" lon="26.737628979608417">
        <ele>209.69999999999999</ele>
        <time>2011-08-18T09:24:47Z</time>
      </trkpt>
      <trkpt lat="54.930515019223094" lon="26.739019034430385">
        <ele>211.15000000000001</ele>
        <time>2011-08-18T09:25:05Z</time>
      </trkpt>
      <trkpt lat="54.930431032553315" lon="26.740243965759873">
        <ele>210.19</ele>
        <time>2011-08-18T09:25:20Z</time>
      </trkpt>
      <trkpt lat="54.930401025339961" lon="26.740469019860029">
        <ele>209.69999999999999</ele>
        <time>2011-08-18T09:25:23Z</time>
      </trkpt>
      <trkpt lat="54.930346962064505" lon="26.741542993113399">
        <ele>211.63</ele>
        <time>2011-08-18T09:25:40Z</time>
      </trkpt>
      <trkpt lat="54.930274961516261" lon="26.742459973320365">
        <ele>214.03</ele>
        <time>2011-08-18T09:25:59Z</time>
      </trkpt>
      <trkpt lat="54.930214025080204" lon="26.743194982409477">
        <ele>214.99000000000001</ele>
        <time>2011-08-18T09:26:12Z</time>
      </trkpt>
      <trkpt lat="54.930225005373359" lon="26.744245989248157">
        <ele>216.43000000000001</ele>
        <time>2011-08-18T09:26:30Z</time>
      </trkpt>
      <trkpt lat="54.930210001766682" lon="26.745149977505207">
        <ele>216.91</ele>
        <time>2011-08-18T09:26:45Z</time>
      </trkpt>
      <trkpt lat="54.930168008431792" lon="26.746063018217683">
        <ele>218.36000000000001</ele>
        <time>2011-08-18T09:27:01Z</time>
      </trkpt>
      <trkpt lat="54.930148981511593" lon="26.747121987864375">
        <ele>217.88</ele>
        <time>2011-08-18T09:27:18Z</time>
      </trkpt>
      <trkpt lat="54.930118974298239" lon="26.748150028288364">
        <ele>218.84</ele>
        <time>2011-08-18T09:27:35Z</time>
      </trkpt>
      <trkpt lat="54.930202038958669" lon="26.749179996550083">
        <ele>218.84</ele>
        <time>2011-08-18T09:27:51Z</time>
      </trkpt>
      <trkpt lat="54.930263981223106" lon="26.750112986192107">
        <ele>220.75999999999999</ele>
        <time>2011-08-18T09:28:09Z</time>
      </trkpt>
      <trkpt lat="54.930304968729615" lon="26.751066008582711">
        <ele>222.19999999999999</ele>
        <time>2011-08-18T09:28:28Z</time>
      </trkpt>
      <trkpt lat="54.930308992043138" lon="26.75168601796031">
        <ele>222.68000000000001</ele>
        <time>2011-08-18T09:28:41Z</time>
      </trkpt>
      <trkpt lat="54.930308992043138" lon="26.751725999638438">
        <ele>222.68000000000001</ele>
        <time>2011-08-18T09:28:53Z</time>
      </trkpt>
      <trkpt lat="54.930308992043138" lon="26.751730022951961">
        <ele>223.63999999999999</ele>
        <time>2011-08-18T09:29:26Z</time>
      </trkpt>
      <trkpt lat="54.930308992043138" lon="26.751730022951961">
        <ele>222.68000000000001</ele>
        <time>2011-08-18T09:30:01Z</time>
      </trkpt>
      <trkpt lat="54.930308992043138" lon="26.751732034608722">
        <ele>222.68000000000001</ele>
        <time>2011-08-18T09:30:35Z</time>
      </trkpt>
      <trkpt lat="54.930328018963337" lon="26.751782996580005">
        <ele>223.16</ele>
        <time>2011-08-18T09:30:47Z</time>
      </trkpt>
      <trkpt lat="54.930328018963337" lon="26.751782996580005">
        <ele>223.16</ele>
        <time>2011-08-18T09:31:23Z</time>
      </trkpt>
      <trkpt lat="54.930328018963337" lon="26.751782996580005">
        <ele>223.16</ele>
        <time>2011-08-18T09:31:28Z</time>
      </trkpt>
      <trkpt lat="54.930362971499562" lon="26.752236960455775">
        <ele>222.19999999999999</ele>
        <time>2011-08-18T09:31:41Z</time>
      </trkpt>
      <trkpt lat="54.930397002026439" lon="26.752981022000313">
        <ele>222.19999999999999</ele>
        <time>2011-08-18T09:31:54Z</time>
      </trkpt>
      <trkpt lat="54.930392978712916" lon="26.753966985270381">
        <ele>222.19999999999999</ele>
        <time>2011-08-18T09:32:11Z</time>
      </trkpt>
      <trkpt lat="54.930599005892873" lon="26.754727978259325">
        <ele>223.63999999999999</ele>
        <time>2011-08-18T09:32:26Z</time>
      </trkpt>
      <trkpt lat="54.931056993082166" lon="26.755345975980163">
        <ele>224.61000000000001</ele>
        <time>2011-08-18T09:32:44Z</time>
      </trkpt>
      <trkpt lat="54.931335020810366" lon="26.755723999813199">
        <ele>223.16</ele>
        <time>2011-08-18T09:32:53Z</time>
      </trkpt>
      <trkpt lat="54.931824021041393" lon="26.756320958957076">
        <ele>222.68000000000001</ele>
        <time>2011-08-18T09:33:10Z</time>
      </trkpt>
      <trkpt lat="54.93216298520565" lon="26.756748016923666">
        <ele>224.12</ele>
        <time>2011-08-18T09:33:23Z</time>
      </trkpt>
      <trkpt lat="54.932400025427341" lon="26.757063008844852">
        <ele>224.12</ele>
        <time>2011-08-18T09:33:31Z</time>
      </trkpt>
      <trkpt lat="54.932864969596267" lon="26.757795000448823">
        <ele>223.16</ele>
        <time>2011-08-18T09:33:47Z</time>
      </trkpt>
      <trkpt lat="54.932972006499767" lon="26.758026005700231">
        <ele>222.19999999999999</ele>
        <time>2011-08-18T09:33:52Z</time>
      </trkpt>
      <trkpt lat="54.933009976521134" lon="26.758151985704899">
        <ele>222.68000000000001</ele>
        <time>2011-08-18T09:33:54Z</time>
      </trkpt>
      <trkpt lat="54.93328096345067" lon="26.75944103859365">
        <ele>220.75999999999999</ele>
        <time>2011-08-18T09:34:10Z</time>
      </trkpt>
      <trkpt lat="54.933575000613928" lon="26.760827992111444">
        <ele>218.36000000000001</ele>
        <time>2011-08-18T09:34:27Z</time>
      </trkpt>
      <trkpt lat="54.933609031140804" lon="26.761007029563189">
        <ele>217.88</ele>
        <time>2011-08-18T09:34:29Z</time>
      </trkpt>
      <trkpt lat="54.933715984225273" lon="26.761546991765499">
        <ele>217.40000000000001</ele>
        <time>2011-08-18T09:34:35Z</time>
      </trkpt>
      <trkpt lat="54.934005998075008" lon="26.76300996914506">
        <ele>216.43000000000001</ele>
        <time>2011-08-18T09:34:52Z</time>
      </trkpt>
      <trkpt lat="54.93418101221323" lon="26.764053013175726">
        <ele>217.40000000000001</ele>
        <time>2011-08-18T09:35:07Z</time>
      </trkpt>
      <trkpt lat="54.934284025803208" lon="26.765076024457812">
        <ele>216.91</ele>
        <time>2011-08-18T09:35:20Z</time>
      </trkpt>
      <trkpt lat="54.9343950022012" lon="26.765847997739911">
        <ele>216.91</ele>
        <time>2011-08-18T09:35:29Z</time>
      </trkpt>
      <trkpt lat="54.934612009674311" lon="26.76704803481698">
        <ele>215.47</ele>
        <time>2011-08-18T09:35:44Z</time>
      </trkpt>
      <trkpt lat="54.934737989678979" lon="26.767664020881057">
        <ele>214.50999999999999</ele>
        <time>2011-08-18T09:35:51Z</time>
      </trkpt>
      <trkpt lat="54.934752993285656" lon="26.76773501560092">
        <ele>214.03</ele>
        <time>2011-08-18T09:35:52Z</time>
      </trkpt>
      <trkpt lat="54.934856006875634" lon="26.768044978380203">
        <ele>214.99000000000001</ele>
        <time>2011-08-18T09:36:02Z</time>
      </trkpt>
      <trkpt lat="54.934856006875634" lon="26.768044978380203">
        <ele>214.50999999999999</ele>
        <time>2011-08-18T09:36:28Z</time>
      </trkpt>
      <trkpt lat="54.934867992997169" lon="26.768049001693726">
        <ele>214.03</ele>
        <time>2011-08-18T09:36:31Z</time>
      </trkpt>
      <trkpt lat="54.934882996603847" lon="26.768053025007248">
        <ele>214.50999999999999</ele>
        <time>2011-08-18T09:36:32Z</time>
      </trkpt>
      <trkpt lat="54.934887019917369" lon="26.7680589761585">
        <ele>214.50999999999999</ele>
        <time>2011-08-18T09:36:33Z</time>
      </trkpt>
      <trkpt lat="54.934956002980471" lon="26.768073979765177">
        <ele>214.50999999999999</ele>
        <time>2011-08-18T09:36:36Z</time>
      </trkpt>
      <trkpt lat="54.935439974069595" lon="26.768322000280023">
        <ele>217.40000000000001</ele>
        <time>2011-08-18T09:36:53Z</time>
      </trkpt>
      <trkpt lat="54.935848005115986" lon="26.768458960577846">
        <ele>218.36000000000001</ele>
        <time>2011-08-18T09:37:06Z</time>
      </trkpt>
      <trkpt lat="54.936290988698602" lon="26.768851988017559">
        <ele>219.80000000000001</ele>
        <time>2011-08-18T09:37:22Z</time>
      </trkpt>
      <trkpt lat="54.936263998970389" lon="26.769551960751414">
        <ele>220.75999999999999</ele>
        <time>2011-08-18T09:37:35Z</time>
      </trkpt>
      <trkpt lat="54.936156962066889" lon="26.770860962569714">
        <ele>219.31999999999999</ele>
        <time>2011-08-18T09:37:51Z</time>
      </trkpt>
      <trkpt lat="54.936015978455544" lon="26.771751036867499">
        <ele>218.84</ele>
        <time>2011-08-18T09:38:01Z</time>
      </trkpt>
      <trkpt lat="54.935988988727331" lon="26.771822031587362">
        <ele>217.88</ele>
        <time>2011-08-18T09:38:02Z</time>
      </trkpt>
      <trkpt lat="54.935927968472242" lon="26.771952034905553">
        <ele>218.36000000000001</ele>
        <time>2011-08-18T09:38:04Z</time>
      </trkpt>
      <trkpt lat="54.935894021764398" lon="26.77201297134161">
        <ele>217.88</ele>
        <time>2011-08-18T09:38:05Z</time>
      </trkpt>
      <trkpt lat="54.935822021216154" lon="26.772115984931588">
        <ele>218.36000000000001</ele>
        <time>2011-08-18T09:38:07Z</time>
      </trkpt>
      <trkpt lat="54.935782961547375" lon="26.772159989923239">
        <ele>218.36000000000001</ele>
        <time>2011-08-18T09:38:08Z</time>
      </trkpt>
      <trkpt lat="54.935188014060259" lon="26.772344978526235">
        <ele>217.88</ele>
        <time>2011-08-18T09:38:21Z</time>
      </trkpt>
      <trkpt lat="54.934280002489686" lon="26.772221010178328">
        <ele>214.99000000000001</ele>
        <time>2011-08-18T09:38:36Z</time>
      </trkpt>
      <trkpt lat="54.934227028861642" lon="26.772224027663469">
        <ele>214.99000000000001</ele>
        <time>2011-08-18T09:38:37Z</time>
      </trkpt>
      <trkpt lat="54.933678014203906" lon="26.772743035107851">
        <ele>213.55000000000001</ele>
        <time>2011-08-18T09:38:49Z</time>
      </trkpt>
      <trkpt lat="54.933124976232648" lon="26.773588014766574">
        <ele>211.63</ele>
        <time>2011-08-18T09:39:04Z</time>
      </trkpt>
      <trkpt lat="54.93252600543201" lon="26.774693001061678">
        <ele>210.19</ele>
        <time>2011-08-18T09:39:21Z</time>
      </trkpt>
      <trkpt lat="54.932078998535872" lon="26.775703020393848">
        <ele>207.30000000000001</ele>
        <time>2011-08-18T09:39:32Z</time>
      </trkpt>
      <trkpt lat="54.931683037430048" lon="26.776621006429195">
        <ele>203.94</ele>
        <time>2011-08-18T09:39:43Z</time>
      </trkpt>
      <trkpt lat="54.931137040257454" lon="26.777834035456181">
        <ele>204.90000000000001</ele>
        <time>2011-08-18T09:39:59Z</time>
      </trkpt>
      <trkpt lat="54.930584002286196" lon="26.778817987069488">
        <ele>204.41999999999999</ele>
        <time>2011-08-18T09:40:15Z</time>
      </trkpt>
      <trkpt lat="54.929961981251836" lon="26.779902018606663">
        <ele>202.97999999999999</ele>
        <time>2011-08-18T09:40:32Z</time>
      </trkpt>
      <trkpt lat="54.929405003786087" lon="26.780856968834996">
        <ele>203.94</ele>
        <time>2011-08-18T09:40:48Z</time>
      </trkpt>
      <trkpt lat="54.92891700938344" lon="26.78161796182394">
        <ele>204.90000000000001</ele>
        <time>2011-08-18T09:41:01Z</time>
      </trkpt>
      <trkpt lat="54.928398001939058" lon="26.782441986724734">
        <ele>204.90000000000001</ele>
        <time>2011-08-18T09:41:15Z</time>
      </trkpt>
      <trkpt lat="54.927967004477978" lon="26.783110024407506">
        <ele>205.86000000000001</ele>
        <time>2011-08-18T09:41:29Z</time>
      </trkpt>
      <trkpt lat="54.927410027012229" lon="26.783960033208132">
        <ele>207.30000000000001</ele>
        <time>2011-08-18T09:41:47Z</time>
      </trkpt>
      <trkpt lat="54.926867969334126" lon="26.784807024523616">
        <ele>208.25999999999999</ele>
        <time>2011-08-18T09:42:05Z</time>
      </trkpt>
      <trkpt lat="54.926333958283067" lon="26.785643035545945">
        <ele>207.30000000000001</ele>
        <time>2011-08-18T09:42:21Z</time>
      </trkpt>
      <trkpt lat="54.92595300078392" lon="26.786326998844743">
        <ele>203.94</ele>
        <time>2011-08-18T09:42:29Z</time>
      </trkpt>
      <trkpt lat="54.925830960273743" lon="26.786538977175951">
        <ele>202.97999999999999</ele>
        <time>2011-08-18T09:42:31Z</time>
      </trkpt>
      <trkpt lat="54.925640020519495" lon="26.786875007674098">
        <ele>201.53</ele>
        <time>2011-08-18T09:42:34Z</time>
      </trkpt>
      <trkpt lat="54.925445979461074" lon="26.787235010415316">
        <ele>200.09</ele>
        <time>2011-08-18T09:42:37Z</time>
      </trkpt>
      <trkpt lat="54.924666965380311" lon="26.788650965318084">
        <ele>198.65000000000001</ele>
        <time>2011-08-18T09:42:51Z</time>
      </trkpt>
      <trkpt lat="54.92395400069654" lon="26.789987962692976">
        <ele>197.69</ele>
        <time>2011-08-18T09:43:08Z</time>
      </trkpt>
      <trkpt lat="54.923710003495216" lon="26.790470005944371">
        <ele>197.69</ele>
        <time>2011-08-18T09:43:14Z</time>
      </trkpt>
      <trkpt lat="54.923247992992401" lon="26.791369970887899">
        <ele>199.61000000000001</ele>
        <time>2011-08-18T09:43:28Z</time>
      </trkpt>
      <trkpt lat="54.922737032175064" lon="26.792462971061468">
        <ele>201.53</ele>
        <time>2011-08-18T09:43:46Z</time>
      </trkpt>
      <trkpt lat="54.922278961166739" lon="26.793502997606993">
        <ele>202.97999999999999</ele>
        <time>2011-08-18T09:44:05Z</time>
      </trkpt>
      <trkpt lat="54.922047033905983" lon="26.794015970081091">
        <ele>203.46000000000001</ele>
        <time>2011-08-18T09:44:14Z</time>
      </trkpt>
      <trkpt lat="54.921627016738057" lon="26.79495801217854">
        <ele>203.94</ele>
        <time>2011-08-18T09:44:30Z</time>
      </trkpt>
      <trkpt lat="54.921130975708365" lon="26.796078002080321">
        <ele>203.46000000000001</ele>
        <time>2011-08-18T09:44:48Z</time>
      </trkpt>
      <trkpt lat="54.920723028481007" lon="26.796928010880947">
        <ele>203.46000000000001</ele>
        <time>2011-08-18T09:45:02Z</time>
      </trkpt>
      <trkpt lat="54.92019304074347" lon="26.798087982460856">
        <ele>203.94</ele>
        <time>2011-08-18T09:45:21Z</time>
      </trkpt>
      <trkpt lat="54.919712003320456" lon="26.799248037859797">
        <ele>202.97999999999999</ele>
        <time>2011-08-18T09:45:38Z</time>
      </trkpt>
      <trkpt lat="54.919276982545853" lon="26.80058503523469">
        <ele>199.61000000000001</ele>
        <time>2011-08-18T09:45:53Z</time>
      </trkpt>
      <trkpt lat="54.918980011716485" lon="26.801566975191236">
        <ele>196.72999999999999</ele>
        <time>2011-08-18T09:46:02Z</time>
      </trkpt>
      <trkpt lat="54.918446000665426" lon="26.803259029984474">
        <ele>194.31999999999999</ele>
        <time>2011-08-18T09:46:18Z</time>
      </trkpt>
      <trkpt lat="54.918251037597656" lon="26.803882978856564">
        <ele>193.36000000000001</ele>
        <time>2011-08-18T09:46:24Z</time>
      </trkpt>
      <trkpt lat="54.917973009869456" lon="26.804646989330649">
        <ele>193.84</ele>
        <time>2011-08-18T09:46:34Z</time>
      </trkpt>
      <trkpt lat="54.917518962174654" lon="26.805663965642452">
        <ele>192.88</ele>
        <time>2011-08-18T09:46:51Z</time>
      </trkpt>
      <trkpt lat="54.917244035750628" lon="26.806320017203689">
        <ele>191.44</ele>
        <time>2011-08-18T09:47:01Z</time>
      </trkpt>
      <trkpt lat="54.917210005223751" lon="26.806399980559945">
        <ele>191.44</ele>
        <time>2011-08-18T09:47:02Z</time>
      </trkpt>
      <trkpt lat="54.916976988315582" lon="26.806842964142561">
        <ele>189.52000000000001</ele>
        <time>2011-08-18T09:47:08Z</time>
      </trkpt>
      <trkpt lat="54.916934994980693" lon="26.806886969134212">
        <ele>189.52000000000001</ele>
        <time>2011-08-18T09:47:09Z</time>
      </trkpt>
      <trkpt lat="54.916888978332281" lon="26.806920999661088">
        <ele>189.03999999999999</ele>
        <time>2011-08-18T09:47:10Z</time>
      </trkpt>
      <trkpt lat="54.916842961683869" lon="26.806945977732539">
        <ele>189.03999999999999</ele>
        <time>2011-08-18T09:47:11Z</time>
      </trkpt>
      <trkpt lat="54.91680096834898" lon="26.806969027966261">
        <ele>189.03999999999999</ele>
        <time>2011-08-18T09:47:12Z</time>
      </trkpt>
      <trkpt lat="54.916607011109591" lon="26.806991994380951">
        <ele>188.08000000000001</ele>
        <time>2011-08-18T09:47:21Z</time>
      </trkpt>
      <trkpt lat="54.916469966992736" lon="26.806993000209332">
        <ele>187.59</ele>
        <time>2011-08-18T09:47:37Z</time>
      </trkpt>
      <trkpt lat="54.915812993422151" lon="26.806991994380951">
        <ele>185.66999999999999</ele>
        <time>2011-08-18T09:47:51Z</time>
      </trkpt>
      <trkpt lat="54.915470005944371" lon="26.807243032380939">
        <ele>184.71000000000001</ele>
        <time>2011-08-18T09:48:01Z</time>
      </trkpt>
      <trkpt lat="54.915523985400796" lon="26.807512007653713">
        <ele>186.15000000000001</ele>
        <time>2011-08-18T09:48:06Z</time>
      </trkpt>
      <trkpt lat="54.915683995932341" lon="26.808038977906108">
        <ele>187.59</ele>
        <time>2011-08-18T09:48:19Z</time>
      </trkpt>
      <trkpt lat="54.915839983150363" lon="26.808762000873685">
        <ele>189.03999999999999</ele>
        <time>2011-08-18T09:48:35Z</time>
      </trkpt>
      <trkpt lat="54.915870996192098" lon="26.809208001941442">
        <ele>188.56</ele>
        <time>2011-08-18T09:48:42Z</time>
      </trkpt>
      <trkpt lat="54.91585498675704" lon="26.80948100052774">
        <ele>187.59</ele>
        <time>2011-08-18T09:48:45Z</time>
      </trkpt>
      <trkpt lat="54.91572598926723" lon="26.810217015445232">
        <ele>184.22999999999999</ele>
        <time>2011-08-18T09:48:51Z</time>
      </trkpt>
      <trkpt lat="54.915538989007473" lon="26.810848005115986">
        <ele>182.78999999999999</ele>
        <time>2011-08-18T09:48:56Z</time>
      </trkpt>
      <trkpt lat="54.915054012089968" lon="26.812411984428763">
        <ele>181.34999999999999</ele>
        <time>2011-08-18T09:49:11Z</time>
      </trkpt>
      <trkpt lat="54.914795011281967" lon="26.813206002116203">
        <ele>180.38</ele>
        <time>2011-08-18T09:49:20Z</time>
      </trkpt>
      <trkpt lat="54.914771961048245" lon="26.814322974532843">
        <ele>179.41999999999999</ele>
        <time>2011-08-18T09:49:32Z</time>
      </trkpt>
      <trkpt lat="54.914726028218865" lon="26.815252024680376">
        <ele>179.90000000000001</ele>
        <time>2011-08-18T09:49:42Z</time>
      </trkpt>
      <trkpt lat="54.914665007963777" lon="26.816387018188834">
        <ele>181.83000000000001</ele>
        <time>2011-08-18T09:50:00Z</time>
      </trkpt>
      <trkpt lat="54.914612034335732" lon="26.817502984777093">
        <ele>180.87</ele>
        <time>2011-08-18T09:50:18Z</time>
      </trkpt>
      <trkpt lat="54.914416987448931" lon="26.818923968821764">
        <ele>179.41999999999999</ele>
        <time>2011-08-18T09:50:33Z</time>
      </trkpt>
      <trkpt lat="54.914146000519395" lon="26.820275969803333">
        <ele>180.87</ele>
        <time>2011-08-18T09:50:50Z</time>
      </trkpt>
      <trkpt lat="54.913803013041615" lon="26.821956960484385">
        <ele>177.97999999999999</ele>
        <time>2011-08-18T09:51:07Z</time>
      </trkpt>
      <trkpt lat="54.913548035547137" lon="26.823244001716375">
        <ele>179.41999999999999</ele>
        <time>2011-08-18T09:51:22Z</time>
      </trkpt>
      <trkpt lat="54.913394981995225" lon="26.824181014671922">
        <ele>182.78999999999999</ele>
        <time>2011-08-18T09:51:37Z</time>
      </trkpt>
      <trkpt lat="54.913321975618601" lon="26.824647970497608">
        <ele>182.78999999999999</ele>
        <time>2011-08-18T09:51:49Z</time>
      </trkpt>
      <trkpt lat="54.913269001990557" lon="26.825498985126615">
        <ele>182.78999999999999</ele>
        <time>2011-08-18T09:52:03Z</time>
      </trkpt>
      <trkpt lat="54.913246035575867" lon="26.826461981981993">
        <ele>185.19</ele>
        <time>2011-08-18T09:52:17Z</time>
      </trkpt>
      <trkpt lat="54.913261039182544" lon="26.827125996351242">
        <ele>185.66999999999999</ele>
        <time>2011-08-18T09:52:30Z</time>
      </trkpt>
      <trkpt lat="54.913238994777203" lon="26.827763020992279">
        <ele>187.59</ele>
        <time>2011-08-18T09:52:43Z</time>
      </trkpt>
      <trkpt lat="54.913238994777203" lon="26.827791016548872">
        <ele>184.22999999999999</ele>
        <time>2011-08-18T09:52:44Z</time>
      </trkpt>
      <trkpt lat="54.913238994777203" lon="26.827820017933846">
        <ele>188.08000000000001</ele>
        <time>2011-08-18T09:52:45Z</time>
      </trkpt>
      <trkpt lat="54.913242012262344" lon="26.827923031523824">
        <ele>184.22999999999999</ele>
        <time>2011-08-18T09:52:49Z</time>
      </trkpt>
      <trkpt lat="54.913242012262344" lon="26.827948009595275">
        <ele>188.56</ele>
        <time>2011-08-18T09:52:50Z</time>
      </trkpt>
      <trkpt lat="54.913249975070357" lon="26.828071977943182">
        <ele>187.59</ele>
        <time>2011-08-18T09:52:55Z</time>
      </trkpt>
      <trkpt lat="54.91327696479857" lon="26.828084969893098">
        <ele>187.59</ele>
        <time>2011-08-18T09:53:10Z</time>
      </trkpt>
      <trkpt lat="54.91327696479857" lon="26.828081030398607">
        <ele>188.08000000000001</ele>
        <time>2011-08-18T09:53:39Z</time>
      </trkpt>
      <trkpt lat="54.91327696479857" lon="26.828081030398607">
        <ele>187.59</ele>
        <time>2011-08-18T09:54:04Z</time>
      </trkpt>
      <trkpt lat="54.913273025304079" lon="26.828081030398607">
        <ele>188.08000000000001</ele>
        <time>2011-08-18T09:54:36Z</time>
      </trkpt>
      <trkpt lat="54.91327696479857" lon="26.828101985156536">
        <ele>187.59</ele>
        <time>2011-08-18T09:55:00Z</time>
      </trkpt>
      <trkpt lat="54.913261039182544" lon="26.828631972894073">
        <ele>187.59</ele>
        <time>2011-08-18T09:55:11Z</time>
      </trkpt>
      <trkpt lat="54.913342008367181" lon="26.829990008845925">
        <ele>184.71000000000001</ele>
        <time>2011-08-18T09:55:25Z</time>
      </trkpt>
      <trkpt lat="54.913524985313416" lon="26.831494979560375">
        <ele>181.34999999999999</ele>
        <time>2011-08-18T09:55:38Z</time>
      </trkpt>
      <trkpt lat="54.913750039413571" lon="26.832829965278506">
        <ele>178.46000000000001</ele>
        <time>2011-08-18T09:55:49Z</time>
      </trkpt>
      <trkpt lat="54.914062013849616" lon="26.834256984293461">
        <ele>175.58000000000001</ele>
        <time>2011-08-18T09:56:02Z</time>
      </trkpt>
      <trkpt lat="54.914146000519395" lon="26.83477196842432">
        <ele>172.21000000000001</ele>
        <time>2011-08-18T09:56:06Z</time>
      </trkpt>
      <trkpt lat="54.914168966934085" lon="26.834918987005949">
        <ele>172.21000000000001</ele>
        <time>2011-08-18T09:56:07Z</time>
      </trkpt>
      <trkpt lat="54.914298970252275" lon="26.835692971944809">
        <ele>169.33000000000001</ele>
        <time>2011-08-18T09:56:12Z</time>
      </trkpt>
      <trkpt lat="54.914391003549099" lon="26.836150959134102">
        <ele>167.88999999999999</ele>
        <time>2011-08-18T09:56:15Z</time>
      </trkpt>
      <trkpt lat="54.914718987420201" lon="26.838197987526655">
        <ele>165</ele>
        <time>2011-08-18T09:56:29Z</time>
      </trkpt>
      <trkpt lat="54.914856031537056" lon="26.839536996558309">
        <ele>164.52000000000001</ele>
        <time>2011-08-18T09:56:41Z</time>
      </trkpt>
      <trkpt lat="54.914867011830211" lon="26.839621989056468">
        <ele>164.52000000000001</ele>
        <time>2011-08-18T09:56:42Z</time>
      </trkpt>
      <trkpt lat="54.915157025679946" lon="26.840686993673444">
        <ele>165</ele>
        <time>2011-08-18T09:56:56Z</time>
      </trkpt>
      <trkpt lat="54.91540496237576" lon="26.841455027461052">
        <ele>165.96000000000001</ele>
        <time>2011-08-18T09:57:09Z</time>
      </trkpt>
      <trkpt lat="54.915634039789438" lon="26.84203295968473">
        <ele>167.88999999999999</ele>
        <time>2011-08-18T09:57:22Z</time>
      </trkpt>
      <trkpt lat="54.915885999798775" lon="26.842509973794222">
        <ele>170.28999999999999</ele>
        <time>2011-08-18T09:57:36Z</time>
      </trkpt>
      <trkpt lat="54.916152963414788" lon="26.842991011217237">
        <ele>170.77000000000001</ele>
        <time>2011-08-18T09:57:49Z</time>
      </trkpt>
      <trkpt lat="54.916393021121621" lon="26.843512030318379">
        <ele>169.81</ele>
        <time>2011-08-18T09:58:03Z</time>
      </trkpt>
      <trkpt lat="54.916393021121621" lon="26.843512030318379">
        <ele>173.16999999999999</ele>
        <time>2011-08-18T09:58:09Z</time>
      </trkpt>
      <trkpt lat="54.916393021121621" lon="26.843512030318379">
        <ele>164.03999999999999</ele>
        <time>2011-08-18T09:58:10Z</time>
      </trkpt>
      <trkpt lat="54.916393021121621" lon="26.843512030318379">
        <ele>171.25</ele>
        <time>2011-08-18T09:58:11Z</time>
      </trkpt>
      <trkpt lat="54.916393021121621" lon="26.843512030318379">
        <ele>167.41</ele>
        <time>2011-08-18T09:58:13Z</time>
      </trkpt>
      <trkpt lat="54.916393021121621" lon="26.843512030318379">
        <ele>170.77000000000001</ele>
        <time>2011-08-18T09:58:15Z</time>
      </trkpt>
      <trkpt lat="54.916393021121621" lon="26.843512030318379">
        <ele>164.03999999999999</ele>
        <time>2011-08-18T09:58:18Z</time>
      </trkpt>
      <trkpt lat="54.916393021121621" lon="26.843512030318379">
        <ele>167.88999999999999</ele>
        <time>2011-08-18T09:58:19Z</time>
      </trkpt>
      <trkpt lat="54.916393021121621" lon="26.843512030318379">
        <ele>170.28999999999999</ele>
        <time>2011-08-18T09:58:22Z</time>
      </trkpt>
      <trkpt lat="54.916393021121621" lon="26.843512030318379">
        <ele>170.28999999999999</ele>
        <time>2011-08-18T09:58:28Z</time>
      </trkpt>
      <trkpt lat="54.916481031104922" lon="26.843485040590167">
        <ele>170.77000000000001</ele>
        <time>2011-08-18T09:58:34Z</time>
      </trkpt>
      <trkpt lat="54.916809014976025" lon="26.843626024201512">
        <ele>171.25</ele>
        <time>2011-08-18T09:58:48Z</time>
      </trkpt>
      <trkpt lat="54.916943041607738" lon="26.844030031934381">
        <ele>169.33000000000001</ele>
        <time>2011-08-18T09:58:58Z</time>
      </trkpt>
      <trkpt lat="54.916961984708905" lon="26.844092980027199">
        <ele>169.33000000000001</ele>
        <time>2011-08-18T09:58:59Z</time>
      </trkpt>
      <trkpt lat="54.916987968608737" lon="26.844154000282288">
        <ele>168.84999999999999</ele>
        <time>2011-08-18T09:59:00Z</time>
      </trkpt>
      <trkpt lat="54.917277982458472" lon="26.844726987183094">
        <ele>168.37</ele>
        <time>2011-08-18T09:59:11Z</time>
      </trkpt>
      <trkpt lat="54.917614012956619" lon="26.845182040706277">
        <ele>167.41</ele>
        <time>2011-08-18T09:59:24Z</time>
      </trkpt>
      <trkpt lat="54.917675033211708" lon="26.845266027376056">
        <ele>167.88999999999999</ele>
        <time>2011-08-18T09:59:28Z</time>
      </trkpt>
      <trkpt lat="54.917708979919553" lon="26.84529704041779">
        <ele>166.93000000000001</ele>
        <time>2011-08-18T09:59:36Z</time>
      </trkpt>
      <trkpt lat="54.91757201962173" lon="26.845082966610789">
        <ele>167.88999999999999</ele>
        <time>2011-08-18T09:59:47Z</time>
      </trkpt>
      <trkpt lat="54.917255016043782" lon="26.844645012170076">
        <ele>168.84999999999999</ele>
        <time>2011-08-18T10:00:00Z</time>
      </trkpt>
      <trkpt lat="54.917014958336949" lon="26.844126004725695">
        <ele>168.84999999999999</ele>
        <time>2011-08-18T10:00:12Z</time>
      </trkpt>
      <trkpt lat="54.916804991662502" lon="26.843552011996508">
        <ele>171.25</ele>
        <time>2011-08-18T10:00:27Z</time>
      </trkpt>
      <trkpt lat="54.916569041088223" lon="26.843451010063291">
        <ele>170.28999999999999</ele>
        <time>2011-08-18T10:00:39Z</time>
      </trkpt>
      <trkpt lat="54.916312973946333" lon="26.843655025586486">
        <ele>170.28999999999999</ele>
        <time>2011-08-18T10:00:50Z</time>
      </trkpt>
      <trkpt lat="54.916019020602107" lon="26.844018967822194">
        <ele>168.84999999999999</ele>
        <time>2011-08-18T10:00:59Z</time>
      </trkpt>
      <trkpt lat="54.915996976196766" lon="26.844070013612509">
        <ele>168.37</ele>
        <time>2011-08-18T10:01:00Z</time>
      </trkpt>
      <trkpt lat="54.915980966761708" lon="26.844126004725695">
        <ele>168.37</ele>
        <time>2011-08-18T10:01:01Z</time>
      </trkpt>
      <trkpt lat="54.915977027267218" lon="26.844185013324022">
        <ele>167.88999999999999</ele>
        <time>2011-08-18T10:01:02Z</time>
      </trkpt>
      <trkpt lat="54.915969986468554" lon="26.84424402192235">
        <ele>167.88999999999999</ele>
        <time>2011-08-18T10:01:03Z</time>
      </trkpt>
      <trkpt lat="54.915969986468554" lon="26.844304958358407">
        <ele>168.37</ele>
        <time>2011-08-18T10:01:04Z</time>
      </trkpt>
      <trkpt lat="54.915965963155031" lon="26.844374025240541">
        <ele>167.88999999999999</ele>
        <time>2011-08-18T10:01:05Z</time>
      </trkpt>
      <trkpt lat="54.915936039760709" lon="26.845229985192418">
        <ele>167.88999999999999</ele>
        <time>2011-08-18T10:01:18Z</time>
      </trkpt>
      <trkpt lat="54.915965963155031" lon="26.846100026741624">
        <ele>167.88999999999999</ele>
        <time>2011-08-18T10:01:32Z</time>
      </trkpt>
      <trkpt lat="54.916141983121634" lon="26.847395030781627">
        <ele>165.96000000000001</ele>
        <time>2011-08-18T10:01:47Z</time>
      </trkpt>
      <trkpt lat="54.916152963414788" lon="26.847477005794644">
        <ele>165.47999999999999</ele>
        <time>2011-08-18T10:01:48Z</time>
      </trkpt>
      <trkpt lat="54.916152963414788" lon="26.848427010700107">
        <ele>165</ele>
        <time>2011-08-18T10:02:00Z</time>
      </trkpt>
      <trkpt lat="54.916237033903599" lon="26.849720003083348">
        <ele>163.08000000000001</ele>
        <time>2011-08-18T10:02:15Z</time>
      </trkpt>
      <trkpt lat="54.9161989800632" lon="26.850188970565796">
        <ele>162.59999999999999</ele>
        <time>2011-08-18T10:02:20Z</time>
      </trkpt>
      <trkpt lat="54.916125973686576" lon="26.850801017135382">
        <ele>162.59999999999999</ele>
        <time>2011-08-18T10:02:27Z</time>
      </trkpt>
      <trkpt lat="54.916282966732979" lon="26.851844983175397">
        <ele>161.16</ele>
        <time>2011-08-18T10:02:41Z</time>
      </trkpt>
      <trkpt lat="54.916290007531643" lon="26.851874990388751">
        <ele>161.63999999999999</ele>
        <time>2011-08-18T10:02:53Z</time>
      </trkpt>
      <trkpt lat="54.916290007531643" lon="26.851874990388751">
        <ele>161.63999999999999</ele>
        <time>2011-08-18T10:02:59Z</time>
      </trkpt>
      <trkpt lat="54.916252037510276" lon="26.852086968719959">
        <ele>162.12</ele>
        <time>2011-08-18T10:03:07Z</time>
      </trkpt>
      <trkpt lat="54.916224963963032" lon="26.852659033611417">
        <ele>162.59999999999999</ele>
        <time>2011-08-18T10:03:19Z</time>
      </trkpt>
      <trkpt lat="54.916095966473222" lon="26.853422038257122">
        <ele>162.59999999999999</ele>
        <time>2011-08-18T10:03:33Z</time>
      </trkpt>
      <trkpt lat="54.915760019794106" lon="26.853905003517866">
        <ele>163.08000000000001</ele>
        <time>2011-08-18T10:03:46Z</time>
      </trkpt>
      <trkpt lat="54.915485009551048" lon="26.854663984850049">
        <ele>163.08000000000001</ele>
        <time>2011-08-18T10:04:00Z</time>
      </trkpt>
      <trkpt lat="54.91531795822084" lon="26.855269996449351">
        <ele>162.12</ele>
        <time>2011-08-18T10:04:10Z</time>
      </trkpt>
      <trkpt lat="54.915073039010167" lon="26.855781963095069">
        <ele>161.16</ele>
        <time>2011-08-18T10:04:22Z</time>
      </trkpt>
      <trkpt lat="54.915001038461924" lon="26.856030989438295">
        <ele>161.63999999999999</ele>
        <time>2011-08-18T10:04:30Z</time>
      </trkpt>
      <trkpt lat="54.914947981014848" lon="26.856153029948473">
        <ele>161.63999999999999</ele>
        <time>2011-08-18T10:04:34Z</time>
      </trkpt>
      <trkpt lat="54.914970025420189" lon="26.85634003020823">
        <ele>161.63999999999999</ele>
        <time>2011-08-18T10:04:39Z</time>
      </trkpt>
      <trkpt lat="54.915039008483291" lon="26.856955010443926">
        <ele>161.63999999999999</ele>
        <time>2011-08-18T10:04:51Z</time>
      </trkpt>
      <trkpt lat="54.914837004616857" lon="26.857578037306666">
        <ele>161.63999999999999</ele>
        <time>2011-08-18T10:05:04Z</time>
      </trkpt>
      <trkpt lat="54.914603987708688" lon="26.858186982572079">
        <ele>162.12</ele>
        <time>2011-08-18T10:05:19Z</time>
      </trkpt>
      <trkpt lat="54.914531987160444" lon="26.858885027468204">
        <ele>163.56</ele>
        <time>2011-08-18T10:05:33Z</time>
      </trkpt>
      <trkpt lat="54.914557971060276" lon="26.859481986612082">
        <ele>162.59999999999999</ele>
        <time>2011-08-18T10:05:46Z</time>
      </trkpt>
      <trkpt lat="54.914612034335732" lon="26.860191011801362">
        <ele>161.16</ele>
        <time>2011-08-18T10:05:58Z</time>
      </trkpt>
      <trkpt lat="54.9146309774369" lon="26.860228981822729">
        <ele>160.68000000000001</ele>
        <time>2011-08-18T10:06:06Z</time>
      </trkpt>
      <trkpt lat="54.914623014628887" lon="26.860268041491508">
        <ele>161.16</ele>
        <time>2011-08-18T10:06:16Z</time>
      </trkpt>
      <trkpt lat="54.914639024063945" lon="26.860319003462791">
        <ele>161.63999999999999</ele>
        <time>2011-08-18T10:06:19Z</time>
      </trkpt>
      <trkpt lat="54.914696021005511" lon="26.860360996797681">
        <ele>160.68000000000001</ele>
        <time>2011-08-18T10:06:23Z</time>
      </trkpt>
      <trkpt lat="54.914760980755091" lon="26.860420005396008">
        <ele>161.63999999999999</ele>
        <time>2011-08-18T10:06:33Z</time>
      </trkpt>
      <trkpt lat="54.914786964654922" lon="26.860442971810699">
        <ele>161.16</ele>
        <time>2011-08-18T10:06:46Z</time>
      </trkpt>
      <trkpt lat="54.914837004616857" lon="26.860455963760614">
        <ele>160.68000000000001</ele>
        <time>2011-08-18T10:06:49Z</time>
      </trkpt>
      <trkpt lat="54.914878997951746" lon="26.860439032316208">
        <ele>161.16</ele>
        <time>2011-08-18T10:06:51Z</time>
      </trkpt>
      <trkpt lat="54.915173035115004" lon="26.860306011512876">
        <ele>162.12</ele>
        <time>2011-08-18T10:07:02Z</time>
      </trkpt>
      <trkpt lat="54.915523985400796" lon="26.860046004876494">
        <ele>161.16</ele>
        <time>2011-08-18T10:07:14Z</time>
      </trkpt>
      <trkpt lat="54.915691036731005" lon="26.859663035720587">
        <ele>160.68000000000001</ele>
        <time>2011-08-18T10:07:26Z</time>
      </trkpt>
      <trkpt lat="54.91570302285254" lon="26.859637973830104">
        <ele>154.43000000000001</ele>
        <time>2011-08-18T10:07:31Z</time>
      </trkpt>
      <trkpt lat="54.91570302285254" lon="26.859637973830104">
        <ele>165</ele>
        <time>2011-08-18T10:07:32Z</time>
      </trkpt>
      <trkpt lat="54.91570302285254" lon="26.859637973830104">
        <ele>156.83000000000001</ele>
        <time>2011-08-18T10:07:33Z</time>
      </trkpt>
      <trkpt lat="54.91570302285254" lon="26.859637973830104">
        <ele>161.16</ele>
        <time>2011-08-18T10:07:34Z</time>
      </trkpt>
      <trkpt lat="54.91570302285254" lon="26.859637973830104">
        <ele>165.96000000000001</ele>
        <time>2011-08-18T10:07:40Z</time>
      </trkpt>
      <trkpt lat="54.91570302285254" lon="26.859637973830104">
        <ele>159.24000000000001</ele>
        <time>2011-08-18T10:07:41Z</time>
      </trkpt>
      <trkpt lat="54.91570302285254" lon="26.859637973830104">
        <ele>165.96000000000001</ele>
        <time>2011-08-18T10:07:52Z</time>
      </trkpt>
      <trkpt lat="54.91570302285254" lon="26.859637973830104">
        <ele>157.31</ele>
        <time>2011-08-18T10:07:53Z</time>
      </trkpt>
      <trkpt lat="54.91570302285254" lon="26.859637973830104">
        <ele>157.31</ele>
        <time>2011-08-18T10:07:54Z</time>
      </trkpt>
      <trkpt lat="54.91570302285254" lon="26.859637973830104">
        <ele>164.52000000000001</ele>
        <time>2011-08-18T10:07:55Z</time>
      </trkpt>
      <trkpt lat="54.91570302285254" lon="26.859637973830104">
        <ele>161.63999999999999</ele>
        <time>2011-08-18T10:07:56Z</time>
      </trkpt>
      <trkpt lat="54.91570302285254" lon="26.859637973830104">
        <ele>156.83000000000001</ele>
        <time>2011-08-18T10:07:58Z</time>
      </trkpt>
      <trkpt lat="54.91570302285254" lon="26.859637973830104">
        <ele>162.59999999999999</ele>
        <time>2011-08-18T10:07:59Z</time>
      </trkpt>
      <trkpt lat="54.91570302285254" lon="26.859637973830104">
        <ele>165.96000000000001</ele>
        <time>2011-08-18T10:08:00Z</time>
      </trkpt>
      <trkpt lat="54.91570302285254" lon="26.859637973830104">
        <ele>157.78999999999999</ele>
        <time>2011-08-18T10:08:02Z</time>
      </trkpt>
      <trkpt lat="54.91570302285254" lon="26.859637973830104">
        <ele>162.12</ele>
        <time>2011-08-18T10:08:03Z</time>
      </trkpt>
      <trkpt lat="54.91570302285254" lon="26.859637973830104">
        <ele>167.88999999999999</ele>
        <time>2011-08-18T10:08:05Z</time>
      </trkpt>
      <trkpt lat="54.91570302285254" lon="26.859637973830104">
        <ele>160.68000000000001</ele>
        <time>2011-08-18T10:08:06Z</time>
      </trkpt>
      <trkpt lat="54.91570302285254" lon="26.859637973830104">
        <ele>162.59999999999999</ele>
        <time>2011-08-18T10:08:07Z</time>
      </trkpt>
      <trkpt lat="54.91570302285254" lon="26.859635962173343">
        <ele>158.75</ele>
        <time>2011-08-18T10:08:22Z</time>
      </trkpt>
      <trkpt lat="54.91570302285254" lon="26.859635962173343">
        <ele>163.08000000000001</ele>
        <time>2011-08-18T10:08:24Z</time>
      </trkpt>
      <trkpt lat="54.91570302285254" lon="26.859635962173343">
        <ele>157.78999999999999</ele>
        <time>2011-08-18T10:08:25Z</time>
      </trkpt>
      <trkpt lat="54.91570302285254" lon="26.859635962173343">
        <ele>162.59999999999999</ele>
        <time>2011-08-18T10:08:27Z</time>
      </trkpt>
      <trkpt lat="54.91570302285254" lon="26.859635962173343">
        <ele>161.16</ele>
        <time>2011-08-18T10:08:28Z</time>
      </trkpt>
      <trkpt lat="54.915698999539018" lon="26.859639985486865">
        <ele>165.96000000000001</ele>
        <time>2011-08-18T10:08:52Z</time>
      </trkpt>
      <trkpt lat="54.915698999539018" lon="26.859639985486865">
        <ele>156.83000000000001</ele>
        <time>2011-08-18T10:08:53Z</time>
      </trkpt>
      <trkpt lat="54.915698999539018" lon="26.859639985486865">
        <ele>164.52000000000001</ele>
        <time>2011-08-18T10:08:54Z</time>
      </trkpt>
      <trkpt lat="54.915698999539018" lon="26.859639985486865">
        <ele>158.27000000000001</ele>
        <time>2011-08-18T10:08:57Z</time>
      </trkpt>
      <trkpt lat="54.915698999539018" lon="26.859639985486865">
        <ele>163.56</ele>
        <time>2011-08-18T10:08:58Z</time>
      </trkpt>
      <trkpt lat="54.915698999539018" lon="26.859639985486865">
        <ele>161.63999999999999</ele>
        <time>2011-08-18T10:09:03Z</time>
      </trkpt>
      <trkpt lat="54.915749039500952" lon="26.85952196829021">
        <ele>161.16</ele>
        <time>2011-08-18T10:09:08Z</time>
      </trkpt>
      <trkpt lat="54.916053973138332" lon="26.859267996624112">
        <ele>161.16</ele>
        <time>2011-08-18T10:09:21Z</time>
      </trkpt>
      <trkpt lat="54.916430991142988" lon="26.859204964712262">
        <ele>160.68000000000001</ele>
        <time>2011-08-18T10:09:34Z</time>
      </trkpt>
      <trkpt lat="54.916831981390715" lon="26.859114021062851">
        <ele>160.68000000000001</ele>
        <time>2011-08-18T10:09:48Z</time>
      </trkpt>
      <trkpt lat="54.917190978303552" lon="26.859250981360674">
        <ele>161.16</ele>
        <time>2011-08-18T10:10:00Z</time>
      </trkpt>
      <trkpt lat="54.917370015755296" lon="26.85956597328186">
        <ele>161.16</ele>
        <time>2011-08-18T10:10:08Z</time>
      </trkpt>
      <trkpt lat="54.917629016563296" lon="26.860141977667809">
        <ele>160.68000000000001</ele>
        <time>2011-08-18T10:10:24Z</time>
      </trkpt>
      <trkpt lat="54.917506976053119" lon="26.860656961798668">
        <ele>160.68000000000001</ele>
        <time>2011-08-18T10:10:37Z</time>
      </trkpt>
      <trkpt lat="54.91738099604845" lon="26.861525997519493">
        <ele>161.16</ele>
        <time>2011-08-18T10:10:55Z</time>
      </trkpt>
      <trkpt lat="54.917343026027083" lon="26.861838977783918">
        <ele>155.87</ele>
        <time>2011-08-18T10:11:05Z</time>
      </trkpt>
      <trkpt lat="54.917343026027083" lon="26.861838977783918">
        <ele>163.56</ele>
        <time>2011-08-18T10:11:06Z</time>
      </trkpt>
      <trkpt lat="54.917343026027083" lon="26.861838977783918">
        <ele>160.19999999999999</ele>
        <time>2011-08-18T10:11:07Z</time>
      </trkpt>
      <trkpt lat="54.917343026027083" lon="26.861838977783918">
        <ele>161.63999999999999</ele>
        <time>2011-08-18T10:11:15Z</time>
      </trkpt>
      <trkpt lat="54.917216962203383" lon="26.862394027411938">
        <ele>161.63999999999999</ele>
        <time>2011-08-18T10:11:27Z</time>
      </trkpt>
      <trkpt lat="54.917064998298883" lon="26.863263985142112">
        <ele>161.16</ele>
        <time>2011-08-18T10:11:42Z</time>
      </trkpt>
      <trkpt lat="54.917064998298883" lon="26.863374961540103">
        <ele>161.16</ele>
        <time>2011-08-18T10:11:44Z</time>
      </trkpt>
      <trkpt lat="54.916943041607738" lon="26.863615019246936">
        <ele>160.68000000000001</ele>
        <time>2011-08-18T10:11:53Z</time>
      </trkpt>
      <trkpt lat="54.916770961135626" lon="26.863635974004865">
        <ele>161.16</ele>
        <time>2011-08-18T10:12:04Z</time>
      </trkpt>
      <trkpt lat="54.916770961135626" lon="26.863635974004865">
        <ele>164.52000000000001</ele>
        <time>2011-08-18T10:12:07Z</time>
      </trkpt>
      <trkpt lat="54.916770961135626" lon="26.863635974004865">
        <ele>160.68000000000001</ele>
        <time>2011-08-18T10:12:08Z</time>
      </trkpt>
      <trkpt lat="54.916770961135626" lon="26.863635974004865">
        <ele>160.68000000000001</ele>
        <time>2011-08-18T10:12:33Z</time>
      </trkpt>
      <trkpt lat="54.916770961135626" lon="26.863635974004865">
        <ele>156.34999999999999</ele>
        <time>2011-08-18T10:12:37Z</time>
      </trkpt>
      <trkpt lat="54.916770961135626" lon="26.863635974004865">
        <ele>161.16</ele>
        <time>2011-08-18T10:12:38Z</time>
      </trkpt>
      <trkpt lat="54.916770961135626" lon="26.863635974004865">
        <ele>158.27000000000001</ele>
        <time>2011-08-18T10:12:40Z</time>
      </trkpt>
      <trkpt lat="54.916770961135626" lon="26.863635974004865">
        <ele>162.12</ele>
        <time>2011-08-18T10:12:41Z</time>
      </trkpt>
      <trkpt lat="54.916770961135626" lon="26.863633962348104">
        <ele>158.27000000000001</ele>
        <time>2011-08-18T10:12:46Z</time>
      </trkpt>
      <trkpt lat="54.916770961135626" lon="26.863633962348104">
        <ele>163.08000000000001</ele>
        <time>2011-08-18T10:12:47Z</time>
      </trkpt>
      <trkpt lat="54.916770961135626" lon="26.863633962348104">
        <ele>160.19999999999999</ele>
        <time>2011-08-18T10:12:56Z</time>
      </trkpt>
      <trkpt lat="54.916774984449148" lon="26.863615019246936">
        <ele>160.19999999999999</ele>
        <time>2011-08-18T10:13:24Z</time>
      </trkpt>
      <trkpt lat="54.916774984449148" lon="26.863615019246936">
        <ele>161.16</ele>
        <time>2011-08-18T10:13:52Z</time>
      </trkpt>
      <trkpt lat="54.916774984449148" lon="26.863615019246936">
        <ele>154.91</ele>
        <time>2011-08-18T10:14:13Z</time>
      </trkpt>
      <trkpt lat="54.916774984449148" lon="26.863615019246936">
        <ele>160.19999999999999</ele>
        <time>2011-08-18T10:14:14Z</time>
      </trkpt>
      <trkpt lat="54.916774984449148" lon="26.863615019246936">
        <ele>165.47999999999999</ele>
        <time>2011-08-18T10:14:17Z</time>
      </trkpt>
      <trkpt lat="54.916774984449148" lon="26.863615019246936">
        <ele>163.08000000000001</ele>
        <time>2011-08-18T10:14:18Z</time>
      </trkpt>
      <trkpt lat="54.916774984449148" lon="26.863615019246936">
        <ele>161.16</ele>
        <time>2011-08-18T10:14:20Z</time>
      </trkpt>
      <trkpt lat="54.916774984449148" lon="26.863615019246936">
        <ele>165</ele>
        <time>2011-08-18T10:14:34Z</time>
      </trkpt>
      <trkpt lat="54.916774984449148" lon="26.863615019246936">
        <ele>156.34999999999999</ele>
        <time>2011-08-18T10:14:35Z</time>
      </trkpt>
      <trkpt lat="54.916774984449148" lon="26.863615019246936">
        <ele>163.56</ele>
        <time>2011-08-18T10:14:36Z</time>
      </trkpt>
      <trkpt lat="54.916774984449148" lon="26.863615019246936">
        <ele>156.83000000000001</ele>
        <time>2011-08-18T10:14:37Z</time>
      </trkpt>
      <trkpt lat="54.916774984449148" lon="26.863615019246936">
        <ele>162.12</ele>
        <time>2011-08-18T10:14:38Z</time>
      </trkpt>
      <trkpt lat="54.916774984449148" lon="26.863615019246936">
        <ele>165</ele>
        <time>2011-08-18T10:14:39Z</time>
      </trkpt>
      <trkpt lat="54.916774984449148" lon="26.863615019246936">
        <ele>156.34999999999999</ele>
        <time>2011-08-18T10:14:40Z</time>
      </trkpt>
      <trkpt lat="54.916774984449148" lon="26.863615019246936">
        <ele>163.56</ele>
        <time>2011-08-18T10:14:41Z</time>
      </trkpt>
      <trkpt lat="54.916774984449148" lon="26.863615019246936">
        <ele>160.19999999999999</ele>
        <time>2011-08-18T10:14:42Z</time>
      </trkpt>
      <trkpt lat="54.916774984449148" lon="26.863615019246936">
        <ele>164.52000000000001</ele>
        <time>2011-08-18T10:14:43Z</time>
      </trkpt>
      <trkpt lat="54.916774984449148" lon="26.863615019246936">
        <ele>161.16</ele>
        <time>2011-08-18T10:14:45Z</time>
      </trkpt>
      <trkpt lat="54.916762998327613" lon="26.863650977611542">
        <ele>161.16</ele>
        <time>2011-08-18T10:15:01Z</time>
      </trkpt>
      <trkpt lat="54.916785964742303" lon="26.863646032288671">
        <ele>161.63999999999999</ele>
        <time>2011-08-18T10:15:06Z</time>
      </trkpt>
      <trkpt lat="54.917038008570671" lon="26.863531032577157">
        <ele>161.16</ele>
        <time>2011-08-18T10:15:19Z</time>
      </trkpt>
      <trkpt lat="54.917068015784025" lon="26.863441010937095">
        <ele>161.63999999999999</ele>
        <time>2011-08-18T10:15:22Z</time>
      </trkpt>
      <trkpt lat="54.917117971926928" lon="26.863162983208895">
        <ele>161.63999999999999</ele>
        <time>2011-08-18T10:15:35Z</time>
      </trkpt>
      <trkpt lat="54.917117971926928" lon="26.863144040107727">
        <ele>161.63999999999999</ele>
        <time>2011-08-18T10:15:52Z</time>
      </trkpt>
      <trkpt lat="54.917117971926928" lon="26.863144040107727">
        <ele>161.16</ele>
        <time>2011-08-18T10:16:21Z</time>
      </trkpt>
      <trkpt lat="54.917117971926928" lon="26.863127024844289">
        <ele>161.63999999999999</ele>
        <time>2011-08-18T10:16:33Z</time>
      </trkpt>
      <trkpt lat="54.917171029374003" lon="26.862645987421274">
        <ele>162.59999999999999</ele>
        <time>2011-08-18T10:16:46Z</time>
      </trkpt>
      <trkpt lat="54.917343026027083" lon="26.862030001357198">
        <ele>162.59999999999999</ele>
        <time>2011-08-18T10:17:00Z</time>
      </trkpt>
      <trkpt lat="54.917427012696862" lon="26.86125903390348">
        <ele>162.59999999999999</ele>
        <time>2011-08-18T10:17:15Z</time>
      </trkpt>
      <trkpt lat="54.917537989094853" lon="26.860532993450761">
        <ele>161.63999999999999</ele>
        <time>2011-08-18T10:17:28Z</time>
      </trkpt>
      <trkpt lat="54.917633039876819" lon="26.859892029315233">
        <ele>161.63999999999999</ele>
        <time>2011-08-18T10:17:41Z</time>
      </trkpt>
      <trkpt lat="54.91735802963376" lon="26.859452985227108">
        <ele>161.16</ele>
        <time>2011-08-18T10:17:53Z</time>
      </trkpt>
      <trkpt lat="54.917048988863826" lon="26.859058029949665">
        <ele>160.68000000000001</ele>
        <time>2011-08-18T10:18:06Z</time>
      </trkpt>
      <trkpt lat="54.916595024988055" lon="26.85911200940609">
        <ele>161.16</ele>
        <time>2011-08-18T10:18:21Z</time>
      </trkpt>
      <trkpt lat="54.916149023920298" lon="26.859208988025784">
        <ele>161.16</ele>
        <time>2011-08-18T10:18:36Z</time>
      </trkpt>
      <trkpt lat="54.915760019794106" lon="26.85949900187552">
        <ele>161.16</ele>
        <time>2011-08-18T10:18:51Z</time>
      </trkpt>
      <trkpt lat="54.915568996220827" lon="26.860011974349618">
        <ele>161.63999999999999</ele>
        <time>2011-08-18T10:19:04Z</time>
      </trkpt>
      <trkpt lat="54.915320975705981" lon="26.860224036499858">
        <ele>162.12</ele>
        <time>2011-08-18T10:19:15Z</time>
      </trkpt>
      <trkpt lat="54.915065998211503" lon="26.860387986525893">
        <ele>161.63999999999999</ele>
        <time>2011-08-18T10:19:28Z</time>
      </trkpt>
      <trkpt lat="54.914867011830211" lon="26.860469961538911">
        <ele>162.12</ele>
        <time>2011-08-18T10:19:38Z</time>
      </trkpt>
      <trkpt lat="54.91482200101018" lon="26.860457975417376">
        <ele>162.12</ele>
        <time>2011-08-18T10:19:41Z</time>
      </trkpt>
      <trkpt lat="54.914775984361768" lon="26.860303999856114">
        <ele>162.12</ele>
        <time>2011-08-18T10:19:47Z</time>
      </trkpt>
      <trkpt lat="54.91462703794241" lon="26.859710980206728">
        <ele>162.59999999999999</ele>
        <time>2011-08-18T10:20:00Z</time>
      </trkpt>
      <trkpt lat="54.914536010473967" lon="26.85934997163713">
        <ele>164.52000000000001</ele>
        <time>2011-08-18T10:20:10Z</time>
      </trkpt>
      <trkpt lat="54.914520001038909" lon="26.858933977782726">
        <ele>164.03999999999999</ele>
        <time>2011-08-18T10:20:20Z</time>
      </trkpt>
      <trkpt lat="54.914566017687321" lon="26.858184970915318">
        <ele>163.56</ele>
        <time>2011-08-18T10:20:34Z</time>
      </trkpt>
      <trkpt lat="54.914810014888644" lon="26.857596980407834">
        <ele>162.59999999999999</ele>
        <time>2011-08-18T10:20:46Z</time>
      </trkpt>
      <trkpt lat="54.915001038461924" lon="26.856950987130404">
        <ele>162.12</ele>
        <time>2011-08-18T10:20:59Z</time>
      </trkpt>
      <trkpt lat="54.914913028478622" lon="26.856613028794527">
        <ele>162.59999999999999</ele>
        <time>2011-08-18T10:21:10Z</time>
      </trkpt>
      <trkpt lat="54.9149090051651" lon="26.85662099160254">
        <ele>162.59999999999999</ele>
        <time>2011-08-18T10:21:28Z</time>
      </trkpt>
      <trkpt lat="54.9149090051651" lon="26.85662099160254">
        <ele>162.12</ele>
        <time>2011-08-18T10:21:50Z</time>
      </trkpt>
      <trkpt lat="54.9149090051651" lon="26.85662099160254">
        <ele>162.12</ele>
        <time>2011-08-18T10:22:16Z</time>
      </trkpt>
      <trkpt lat="54.9149090051651" lon="26.856625014916062">
        <ele>162.12</ele>
        <time>2011-08-18T10:22:33Z</time>
      </trkpt>
      <trkpt lat="54.9149090051651" lon="26.856625014916062">
        <ele>162.59999999999999</ele>
        <time>2011-08-18T10:22:56Z</time>
      </trkpt>
      <trkpt lat="54.9149090051651" lon="26.856631971895695">
        <ele>162.12</ele>
        <time>2011-08-18T10:23:15Z</time>
      </trkpt>
      <trkpt lat="54.9149090051651" lon="26.856628032401204">
        <ele>162.12</ele>
        <time>2011-08-18T10:23:40Z</time>
      </trkpt>
      <trkpt lat="54.914805991575122" lon="26.856682011857629">
        <ele>162.59999999999999</ele>
        <time>2011-08-18T10:23:51Z</time>
      </trkpt>
      <trkpt lat="54.914546990767121" lon="26.856420999392867">
        <ele>163.56</ele>
        <time>2011-08-18T10:24:02Z</time>
      </trkpt>
      <trkpt lat="54.914226969704032" lon="26.85597600415349">
        <ele>164.03999999999999</ele>
        <time>2011-08-18T10:24:16Z</time>
      </trkpt>
      <trkpt lat="54.914036029949784" lon="26.855778023600578">
        <ele>163.56</ele>
        <time>2011-08-18T10:24:25Z</time>
      </trkpt>
      <trkpt lat="54.914009040221572" lon="26.855795038864017">
        <ele>164.03999999999999</ele>
        <time>2011-08-18T10:24:35Z</time>
      </trkpt>
      <trkpt lat="54.913979033008218" lon="26.855835020542145">
        <ele>164.52000000000001</ele>
        <time>2011-08-18T10:24:40Z</time>
      </trkpt>
      <trkpt lat="54.913951959460974" lon="26.855884976685047">
        <ele>165.47999999999999</ele>
        <time>2011-08-18T10:24:52Z</time>
      </trkpt>
      <trkpt lat="54.913937039673328" lon="26.855929987505078">
        <ele>165.47999999999999</ele>
        <time>2011-08-18T10:24:58Z</time>
      </trkpt>
      <trkpt lat="54.913788009434938" lon="26.856227964162827">
        <ele>166.93000000000001</ele>
        <time>2011-08-18T10:25:09Z</time>
      </trkpt>
      <trkpt lat="54.913471005856991" lon="26.856721993535757">
        <ele>165</ele>
        <time>2011-08-18T10:25:24Z</time>
      </trkpt>
      <trkpt lat="54.913508975878358" lon="26.857223985716701">
        <ele>164.52000000000001</ele>
        <time>2011-08-18T10:25:35Z</time>
      </trkpt>
      <trkpt lat="54.913429012522101" lon="26.857634028419852">
        <ele>165</ele>
        <time>2011-08-18T10:25:46Z</time>
      </trkpt>
      <trkpt lat="54.913325998932123" lon="26.857854975387454">
        <ele>165.47999999999999</ele>
        <time>2011-08-18T10:25:54Z</time>
      </trkpt>
      <trkpt lat="54.913345025852323" lon="26.858032001182437">
        <ele>166.44999999999999</ele>
        <time>2011-08-18T10:25:59Z</time>
      </trkpt>
      <trkpt lat="54.913394981995225" lon="26.858294019475579">
        <ele>166.93000000000001</ele>
        <time>2011-08-18T10:26:11Z</time>
      </trkpt>
      <trkpt lat="54.91340302862227" lon="26.85829896479845">
        <ele>166.44999999999999</ele>
        <time>2011-08-18T10:26:15Z</time>
      </trkpt>
      <trkpt lat="54.913436975330114" lon="26.858373982831836">
        <ele>167.41</ele>
        <time>2011-08-18T10:26:21Z</time>
      </trkpt>
      <trkpt lat="54.913475029170513" lon="26.858423016965389">
        <ele>166.93000000000001</ele>
        <time>2011-08-18T10:26:26Z</time>
      </trkpt>
      <trkpt lat="54.91353202611208" lon="26.858509015291929">
        <ele>166.44999999999999</ele>
        <time>2011-08-18T10:26:39Z</time>
      </trkpt>
      <trkpt lat="54.913650965318084" lon="26.858595013618469">
        <ele>165.96000000000001</ele>
        <time>2011-08-18T10:26:50Z</time>
      </trkpt>
      <trkpt lat="54.91368499584496" lon="26.858590990304947">
        <ele>166.44999999999999</ele>
        <time>2011-08-18T10:26:53Z</time>
      </trkpt>
      <trkpt lat="54.913798989728093" lon="26.85876801609993">
        <ele>165.96000000000001</ele>
        <time>2011-08-18T10:27:08Z</time>
      </trkpt>
      <trkpt lat="54.91372698917985" lon="26.859013019129634">
        <ele>165.47999999999999</ele>
        <time>2011-08-18T10:27:22Z</time>
      </trkpt>
      <trkpt lat="54.913719026371837" lon="26.859036991372705">
        <ele>164.52000000000001</ele>
        <time>2011-08-18T10:27:36Z</time>
      </trkpt>
      <trkpt lat="54.913719026371837" lon="26.859039003029466">
        <ele>165.47999999999999</ele>
        <time>2011-08-18T10:28:08Z</time>
      </trkpt>
      <trkpt lat="54.913719026371837" lon="26.859039003029466">
        <ele>160.68000000000001</ele>
        <time>2011-08-18T10:28:26Z</time>
      </trkpt>
      <trkpt lat="54.913719026371837" lon="26.859039003029466">
        <ele>166.44999999999999</ele>
        <time>2011-08-18T10:28:27Z</time>
      </trkpt>
      <trkpt lat="54.913719026371837" lon="26.859039003029466">
        <ele>163.08000000000001</ele>
        <time>2011-08-18T10:28:28Z</time>
      </trkpt>
      <trkpt lat="54.913719026371837" lon="26.859039003029466">
        <ele>166.44999999999999</ele>
        <time>2011-08-18T10:28:30Z</time>
      </trkpt>
      <trkpt lat="54.913719026371837" lon="26.859039003029466">
        <ele>162.12</ele>
        <time>2011-08-18T10:28:36Z</time>
      </trkpt>
      <trkpt lat="54.913719026371837" lon="26.859039003029466">
        <ele>167.88999999999999</ele>
        <time>2011-08-18T10:28:37Z</time>
      </trkpt>
      <trkpt lat="54.913719026371837" lon="26.859039003029466">
        <ele>167.88999999999999</ele>
        <time>2011-08-18T10:28:38Z</time>
      </trkpt>
      <trkpt lat="54.913719026371837" lon="26.859039003029466">
        <ele>161.63999999999999</ele>
        <time>2011-08-18T10:28:39Z</time>
      </trkpt>
      <trkpt lat="54.913719026371837" lon="26.859039003029466">
        <ele>165.96000000000001</ele>
        <time>2011-08-18T10:28:40Z</time>
      </trkpt>
      <trkpt lat="54.913715003058314" lon="26.859036991372705">
        <ele>165.96000000000001</ele>
        <time>2011-08-18T10:29:05Z</time>
      </trkpt>
      <trkpt lat="54.913715003058314" lon="26.859036991372705">
        <ele>160.68000000000001</ele>
        <time>2011-08-18T10:29:09Z</time>
      </trkpt>
      <trkpt lat="54.913715003058314" lon="26.859036991372705">
        <ele>162.59999999999999</ele>
        <time>2011-08-18T10:29:10Z</time>
      </trkpt>
      <trkpt lat="54.913715003058314" lon="26.859036991372705">
        <ele>166.44999999999999</ele>
        <time>2011-08-18T10:29:11Z</time>
      </trkpt>
      <trkpt lat="54.913715003058314" lon="26.859036991372705">
        <ele>165.47999999999999</ele>
        <time>2011-08-18T10:29:12Z</time>
      </trkpt>
      <trkpt lat="54.913715003058314" lon="26.859036991372705">
        <ele>165.47999999999999</ele>
        <time>2011-08-18T10:29:43Z</time>
      </trkpt>
      <trkpt lat="54.913715003058314" lon="26.859036991372705">
        <ele>161.16</ele>
        <time>2011-08-18T10:29:58Z</time>
      </trkpt>
      <trkpt lat="54.913715003058314" lon="26.859036991372705">
        <ele>162.59999999999999</ele>
        <time>2011-08-18T10:29:59Z</time>
      </trkpt>
      <trkpt lat="54.913715003058314" lon="26.859036991372705">
        <ele>165.96000000000001</ele>
        <time>2011-08-18T10:30:01Z</time>
      </trkpt>
      <trkpt lat="54.913715003058314" lon="26.859036991372705">
        <ele>165.96000000000001</ele>
        <time>2011-08-18T10:30:02Z</time>
      </trkpt>
      <trkpt lat="54.913715003058314" lon="26.859036991372705">
        <ele>169.33000000000001</ele>
        <time>2011-08-18T10:30:03Z</time>
      </trkpt>
      <trkpt lat="54.913715003058314" lon="26.859036991372705">
        <ele>164.52000000000001</ele>
        <time>2011-08-18T10:30:04Z</time>
      </trkpt>
      <trkpt lat="54.913715003058314" lon="26.859034979715943">
        <ele>165.96000000000001</ele>
        <time>2011-08-18T10:30:25Z</time>
      </trkpt>
      <trkpt lat="54.913719026371837" lon="26.859034979715943">
        <ele>164.03999999999999</ele>
        <time>2011-08-18T10:30:52Z</time>
      </trkpt>
      <trkpt lat="54.913719026371837" lon="26.859034979715943">
        <ele>165.47999999999999</ele>
        <time>2011-08-18T10:31:18Z</time>
      </trkpt>
      <trkpt lat="54.913722965866327" lon="26.859043026342988">
        <ele>165.96000000000001</ele>
        <time>2011-08-18T10:31:44Z</time>
      </trkpt>
      <trkpt lat="54.913722965866327" lon="26.859041014686227">
        <ele>165.96000000000001</ele>
        <time>2011-08-18T10:32:12Z</time>
      </trkpt>
      <trkpt lat="54.913722965866327" lon="26.859041014686227">
        <ele>167.41</ele>
        <time>2011-08-18T10:32:44Z</time>
      </trkpt>
      <trkpt lat="54.913750039413571" lon="26.859011007472873">
        <ele>166.44999999999999</ele>
        <time>2011-08-18T10:33:04Z</time>
      </trkpt>
      <trkpt lat="54.913753978908062" lon="26.858977982774377">
        <ele>166.44999999999999</ele>
        <time>2011-08-18T10:33:06Z</time>
      </trkpt>
      <trkpt lat="54.913792032748461" lon="26.858691992238164">
        <ele>166.93000000000001</ele>
        <time>2011-08-18T10:33:21Z</time>
      </trkpt>
      <trkpt lat="54.913650965318084" lon="26.858580010011792">
        <ele>167.41</ele>
        <time>2011-08-18T10:33:36Z</time>
      </trkpt>
      <trkpt lat="54.913482991978526" lon="26.858410025015473">
        <ele>168.37</ele>
        <time>2011-08-18T10:33:53Z</time>
      </trkpt>
      <trkpt lat="54.91340302862227" lon="26.85816602781415">
        <ele>167.88999999999999</ele>
        <time>2011-08-18T10:34:07Z</time>
      </trkpt>
      <trkpt lat="54.913372015580535" lon="26.858051028102636">
        <ele>167.88999999999999</ele>
        <time>2011-08-18T10:34:23Z</time>
      </trkpt>
      <trkpt lat="54.913372015580535" lon="26.858029989525676">
        <ele>167.41</ele>
        <time>2011-08-18T10:34:39Z</time>
      </trkpt>
      <trkpt lat="54.91336396895349" lon="26.857984978705645">
        <ele>167.41</ele>
        <time>2011-08-18T10:34:53Z</time>
      </trkpt>
      <trkpt lat="54.913456002250314" lon="26.857682978734374">
        <ele>166.93000000000001</ele>
        <time>2011-08-18T10:35:10Z</time>
      </trkpt>
      <trkpt lat="54.913508975878358" lon="26.857517017051578">
        <ele>165.47999999999999</ele>
        <time>2011-08-18T10:35:25Z</time>
      </trkpt>
      <trkpt lat="54.91353596560657" lon="26.857322975993156">
        <ele>165.47999999999999</ele>
        <time>2011-08-18T10:35:41Z</time>
      </trkpt>
      <trkpt lat="54.913539988920093" lon="26.857264973223209">
        <ele>165.96000000000001</ele>
        <time>2011-08-18T10:35:44Z</time>
      </trkpt>
      <trkpt lat="54.913517022505403" lon="26.857104962691665">
        <ele>165.47999999999999</ele>
        <time>2011-08-18T10:35:54Z</time>
      </trkpt>
      <trkpt lat="54.913466982543468" lon="26.856758035719395">
        <ele>165.47999999999999</ele>
        <time>2011-08-18T10:36:12Z</time>
      </trkpt>
      <trkpt lat="54.913466982543468" lon="26.856746971607208">
        <ele>165.47999999999999</ele>
        <time>2011-08-18T10:36:27Z</time>
      </trkpt>
      <trkpt lat="54.913486009463668" lon="26.856653010472655">
        <ele>165.96000000000001</ele>
        <time>2011-08-18T10:36:38Z</time>
      </trkpt>
      <trkpt lat="54.913497995585203" lon="26.856503980234265">
        <ele>166.93000000000001</ele>
        <time>2011-08-18T10:36:52Z</time>
      </trkpt>
      <trkpt lat="54.913448039442301" lon="26.856438014656305">
        <ele>165.47999999999999</ele>
        <time>2011-08-18T10:37:06Z</time>
      </trkpt>
      <trkpt lat="54.913433035835624" lon="26.856379006057978">
        <ele>165.47999999999999</ele>
        <time>2011-08-18T10:37:17Z</time>
      </trkpt>
      <trkpt lat="54.913376038894057" lon="26.856244979426265">
        <ele>166.44999999999999</ele>
        <time>2011-08-18T10:37:30Z</time>
      </trkpt>
      <trkpt lat="54.913238994777203" lon="26.856143977493048">
        <ele>166.93000000000001</ele>
        <time>2011-08-18T10:37:45Z</time>
      </trkpt>
      <trkpt lat="54.91310496814549" lon="26.856049010530114">
        <ele>166.93000000000001</ele>
        <time>2011-08-18T10:38:00Z</time>
      </trkpt>
      <trkpt lat="54.912978988140821" lon="26.855967035517097">
        <ele>166.93000000000001</ele>
        <time>2011-08-18T10:38:15Z</time>
      </trkpt>
      <trkpt lat="54.912853008136153" lon="26.855887994170189">
        <ele>167.88999999999999</ele>
        <time>2011-08-18T10:38:30Z</time>
      </trkpt>
      <trkpt lat="54.912700960412621" lon="26.855795038864017">
        <ele>169.33000000000001</ele>
        <time>2011-08-18T10:38:47Z</time>
      </trkpt>
      <trkpt lat="54.912540027871728" lon="26.855688001960516">
        <ele>169.33000000000001</ele>
        <time>2011-08-18T10:39:04Z</time>
      </trkpt>
      <trkpt lat="54.912407007068396" lon="26.855602003633976">
        <ele>168.37</ele>
        <time>2011-08-18T10:39:17Z</time>
      </trkpt>
      <trkpt lat="54.91233098320663" lon="26.855505025014281">
        <ele>168.84999999999999</ele>
        <time>2011-08-18T10:39:29Z</time>
      </trkpt>
      <trkpt lat="54.912296030670404" lon="26.855532014742494">
        <ele>168.84999999999999</ele>
        <time>2011-08-18T10:39:45Z</time>
      </trkpt>
      <trkpt lat="54.912296030670404" lon="26.855532014742494">
        <ele>168.84999999999999</ele>
        <time>2011-08-18T10:40:12Z</time>
      </trkpt>
      <trkpt lat="54.912296030670404" lon="26.855534026399255">
        <ele>168.84999999999999</ele>
        <time>2011-08-18T10:40:47Z</time>
      </trkpt>
      <trkpt lat="54.912296030670404" lon="26.855534026399255">
        <ele>168.84999999999999</ele>
        <time>2011-08-18T10:41:22Z</time>
      </trkpt>
      <trkpt lat="54.912299970164895" lon="26.855536038056016">
        <ele>168.37</ele>
        <time>2011-08-18T10:41:53Z</time>
      </trkpt>
      <trkpt lat="54.912296030670404" lon="26.855532014742494">
        <ele>170.28999999999999</ele>
        <time>2011-08-18T10:42:08Z</time>
      </trkpt>
      <trkpt lat="54.912296030670404" lon="26.855532014742494">
        <ele>167.41</ele>
        <time>2011-08-18T10:42:14Z</time>
      </trkpt>
      <trkpt lat="54.912296030670404" lon="26.855532014742494">
        <ele>166.44999999999999</ele>
        <time>2011-08-18T10:42:21Z</time>
      </trkpt>
      <trkpt lat="54.912296030670404" lon="26.855532014742494">
        <ele>169.81</ele>
        <time>2011-08-18T10:42:24Z</time>
      </trkpt>
      <trkpt lat="54.912284966558218" lon="26.855552969500422">
        <ele>168.84999999999999</ele>
        <time>2011-08-18T10:42:34Z</time>
      </trkpt>
      <trkpt lat="54.912215983495116" lon="26.855796966701746">
        <ele>168.84999999999999</ele>
        <time>2011-08-18T10:42:46Z</time>
      </trkpt>
      <trkpt lat="54.912154963240027" lon="26.856229975819588">
        <ele>167.88999999999999</ele>
        <time>2011-08-18T10:42:59Z</time>
      </trkpt>
      <trkpt lat="54.911956982687116" lon="26.856908993795514">
        <ele>167.41</ele>
        <time>2011-08-18T10:43:14Z</time>
      </trkpt>
      <trkpt lat="54.911765959113836" lon="26.857691025361419">
        <ele>166.44999999999999</ele>
        <time>2011-08-18T10:43:30Z</time>
      </trkpt>
      <trkpt lat="54.911564039066434" lon="26.85861999168992">
        <ele>165.47999999999999</ele>
        <time>2011-08-18T10:43:47Z</time>
      </trkpt>
      <trkpt lat="54.91144903935492" lon="26.859094994142652">
        <ele>165.96000000000001</ele>
        <time>2011-08-18T10:43:58Z</time>
      </trkpt>
      <trkpt lat="54.911292968317866" lon="26.85988599434495">
        <ele>164.52000000000001</ele>
        <time>2011-08-18T10:44:13Z</time>
      </trkpt>
      <trkpt lat="54.911259021610022" lon="26.860247002914548">
        <ele>164.52000000000001</ele>
        <time>2011-08-18T10:44:21Z</time>
      </trkpt>
      <trkpt lat="54.9112359713763" lon="26.860449006780982">
        <ele>164.03999999999999</ele>
        <time>2011-08-18T10:44:27Z</time>
      </trkpt>
      <trkpt lat="54.911136981099844" lon="26.860747989267111">
        <ele>164.03999999999999</ele>
        <time>2011-08-18T10:44:36Z</time>
      </trkpt>
      <trkpt lat="54.91099901497364" lon="26.860857037827373">
        <ele>165</ele>
        <time>2011-08-18T10:44:42Z</time>
      </trkpt>
      <trkpt lat="54.910933971405029" lon="26.861022999510169">
        <ele>165.47999999999999</ele>
        <time>2011-08-18T10:44:47Z</time>
      </trkpt>
      <trkpt lat="54.910770021378994" lon="26.861559022217989">
        <ele>165.96000000000001</ele>
        <time>2011-08-18T10:45:02Z</time>
      </trkpt>
      <trkpt lat="54.910671031102538" lon="26.861902009695768">
        <ele>165</ele>
        <time>2011-08-18T10:45:12Z</time>
      </trkpt>
      <trkpt lat="54.910621996968985" lon="26.862045004963875">
        <ele>164.52000000000001</ele>
        <time>2011-08-18T10:45:22Z</time>
      </trkpt>
      <trkpt lat="54.910557037219405" lon="26.862071994692087">
        <ele>164.03999999999999</ele>
        <time>2011-08-18T10:45:33Z</time>
      </trkpt>
      <trkpt lat="54.910496016964316" lon="26.862168973311782">
        <ele>165</ele>
        <time>2011-08-18T10:45:43Z</time>
      </trkpt>
      <trkpt lat="54.910496016964316" lon="26.862192023545504">
        <ele>165</ele>
        <time>2011-08-18T10:45:44Z</time>
      </trkpt>
      <trkpt lat="54.910542033612728" lon="26.862325966358185">
        <ele>165</ele>
        <time>2011-08-18T10:45:49Z</time>
      </trkpt>
      <trkpt lat="54.910553013905883" lon="26.862452030181885">
        <ele>165.47999999999999</ele>
        <time>2011-08-18T10:45:54Z</time>
      </trkpt>
      <trkpt lat="54.910563994199038" lon="26.862515984103084">
        <ele>165</ele>
        <time>2011-08-18T10:45:58Z</time>
      </trkpt>
      <trkpt lat="54.910599030554295" lon="26.862832987681031">
        <ele>165.47999999999999</ele>
        <time>2011-08-18T10:46:09Z</time>
      </trkpt>
      <trkpt lat="54.910602970048785" lon="26.86287104152143">
        <ele>165.96000000000001</ele>
        <time>2011-08-18T10:46:10Z</time>
      </trkpt>
      <trkpt lat="54.910621996968985" lon="26.863331040367484">
        <ele>166.93000000000001</ele>
        <time>2011-08-18T10:46:24Z</time>
      </trkpt>
      <trkpt lat="54.910683017224073" lon="26.863835966214538">
        <ele>166.93000000000001</ele>
        <time>2011-08-18T10:46:38Z</time>
      </trkpt>
      <trkpt lat="54.910602970048785" lon="26.864284984767437">
        <ele>168.84999999999999</ele>
        <time>2011-08-18T10:46:51Z</time>
      </trkpt>
      <trkpt lat="54.910529963672161" lon="26.864693015813828">
        <ele>170.28999999999999</ele>
        <time>2011-08-18T10:47:04Z</time>
      </trkpt>
      <trkpt lat="54.910522000864148" lon="26.865166006609797">
        <ele>171.25</ele>
        <time>2011-08-18T10:47:18Z</time>
      </trkpt>
      <trkpt lat="54.910506997257471" lon="26.865589041262865">
        <ele>171.25</ele>
        <time>2011-08-18T10:47:30Z</time>
      </trkpt>
      <trkpt lat="54.910460980609059" lon="26.866234028711915">
        <ele>171.25</ele>
        <time>2011-08-18T10:47:45Z</time>
      </trkpt>
      <trkpt lat="54.910361990332603" lon="26.866786982864141">
        <ele>170.77000000000001</ele>
        <time>2011-08-18T10:47:59Z</time>
      </trkpt>
      <trkpt lat="54.910179013386369" lon="26.867488967254758">
        <ele>169.33000000000001</ele>
        <time>2011-08-18T10:48:12Z</time>
      </trkpt>
      <trkpt lat="54.910029983147979" lon="26.868059020489454">
        <ele>169.33000000000001</ele>
        <time>2011-08-18T10:48:25Z</time>
      </trkpt>
      <trkpt lat="54.910159986466169" lon="26.868494041264057">
        <ele>167.88999999999999</ele>
        <time>2011-08-18T10:48:36Z</time>
      </trkpt>
      <trkpt lat="54.91014095954597" lon="26.868732003495097">
        <ele>167.88999999999999</ele>
        <time>2011-08-18T10:48:42Z</time>
      </trkpt>
      <trkpt lat="54.910122016444802" lon="26.868925038725138">
        <ele>166.93000000000001</ele>
        <time>2011-08-18T10:48:46Z</time>
      </trkpt>
      <trkpt lat="54.910065019503236" lon="26.869553010910749">
        <ele>166.93000000000001</ele>
        <time>2011-08-18T10:48:56Z</time>
      </trkpt>
      <trkpt lat="54.909939039498568" lon="26.870139995589852">
        <ele>168.84999999999999</ele>
        <time>2011-08-18T10:49:11Z</time>
      </trkpt>
      <trkpt lat="54.909896962344646" lon="26.87034803442657">
        <ele>170.77000000000001</ele>
        <time>2011-08-18T10:49:18Z</time>
      </trkpt>
      <trkpt lat="54.909790009260178" lon="26.87064902856946">
        <ele>171.72999999999999</ele>
        <time>2011-08-18T10:49:30Z</time>
      </trkpt>
      <trkpt lat="54.909763019531965" lon="26.870742989704013">
        <ele>171.72999999999999</ele>
        <time>2011-08-18T10:49:34Z</time>
      </trkpt>
      <trkpt lat="54.909713985398412" lon="26.870852960273623">
        <ele>171.72999999999999</ele>
        <time>2011-08-18T10:49:40Z</time>
      </trkpt>
      <trkpt lat="54.909697975963354" lon="26.870880033820868">
        <ele>171.72999999999999</ele>
        <time>2011-08-18T10:49:42Z</time>
      </trkpt>
      <trkpt lat="54.909691018983722" lon="26.87108002603054">
        <ele>172.21000000000001</ele>
        <time>2011-08-18T10:49:54Z</time>
      </trkpt>
      <trkpt lat="54.909691018983722" lon="26.87108002603054">
        <ele>168.84999999999999</ele>
        <time>2011-08-18T10:49:55Z</time>
      </trkpt>
      <trkpt lat="54.909691018983722" lon="26.87108002603054">
        <ele>173.66</ele>
        <time>2011-08-18T10:49:56Z</time>
      </trkpt>
      <trkpt lat="54.909691018983722" lon="26.87108002603054">
        <ele>171.25</ele>
        <time>2011-08-18T10:50:06Z</time>
      </trkpt>
      <trkpt lat="54.909676015377045" lon="26.87120801769197">
        <ele>171.72999999999999</ele>
        <time>2011-08-18T10:50:20Z</time>
      </trkpt>
      <trkpt lat="54.909676015377045" lon="26.87120801769197">
        <ele>171.72999999999999</ele>
        <time>2011-08-18T10:50:29Z</time>
      </trkpt>
      <trkpt lat="54.909706022590399" lon="26.871198965236545">
        <ele>171.72999999999999</ele>
        <time>2011-08-18T10:50:32Z</time>
      </trkpt>
      <trkpt lat="54.909721026197076" lon="26.871160995215178">
        <ele>171.25</ele>
        <time>2011-08-18T10:50:34Z</time>
      </trkpt>
      <trkpt lat="54.910132996737957" lon="26.870991010218859">
        <ele>168.84999999999999</ele>
        <time>2011-08-18T10:50:45Z</time>
      </trkpt>
      <trkpt lat="54.91106397472322" lon="26.870984975248575">
        <ele>167.41</ele>
        <time>2011-08-18T10:51:01Z</time>
      </trkpt>
      <trkpt lat="54.911823039874434" lon="26.871180022135377">
        <ele>164.52000000000001</ele>
        <time>2011-08-18T10:51:17Z</time>
      </trkpt>
      <trkpt lat="54.91239502094686" lon="26.871393006294966">
        <ele>167.41</ele>
        <time>2011-08-18T10:51:31Z</time>
      </trkpt>
      <trkpt lat="54.913016958162189" lon="26.87163901515305">
        <ele>168.37</ele>
        <time>2011-08-18T10:51:48Z</time>
      </trkpt>
      <trkpt lat="54.913429012522101" lon="26.871501971036196">
        <ele>168.37</ele>
        <time>2011-08-18T10:52:03Z</time>
      </trkpt>
      <trkpt lat="54.913440998643637" lon="26.87151001766324">
        <ele>168.84999999999999</ele>
        <time>2011-08-18T10:52:16Z</time>
      </trkpt>
      <trkpt lat="54.913528002798557" lon="26.871516974642873">
        <ele>167.88999999999999</ele>
        <time>2011-08-18T10:52:39Z</time>
      </trkpt>
      <trkpt lat="54.913566978648305" lon="26.871549999341369">
        <ele>167.41</ele>
        <time>2011-08-18T10:52:52Z</time>
      </trkpt>
      <trkpt lat="54.913524985313416" lon="26.871505994349718">
        <ele>167.41</ele>
        <time>2011-08-18T10:53:05Z</time>
      </trkpt>
      <trkpt lat="54.913478968665004" lon="26.87151001766324">
        <ele>168.37</ele>
        <time>2011-08-18T10:53:09Z</time>
      </trkpt>
      <trkpt lat="54.913394981995225" lon="26.871516974642873">
        <ele>168.84999999999999</ele>
        <time>2011-08-18T10:53:14Z</time>
      </trkpt>
      <trkpt lat="54.913035985082388" lon="26.871692994609475">
        <ele>168.84999999999999</ele>
        <time>2011-08-18T10:53:30Z</time>
      </trkpt>
      <trkpt lat="54.912951998412609" lon="26.871690982952714">
        <ele>168.84999999999999</ele>
        <time>2011-08-18T10:53:32Z</time>
      </trkpt>
      <trkpt lat="54.912257976830006" lon="26.871351012960076">
        <ele>167.41</ele>
        <time>2011-08-18T10:53:49Z</time>
      </trkpt>
      <trkpt lat="54.911521961912513" lon="26.87112201936543">
        <ele>165</ele>
        <time>2011-08-18T10:54:02Z</time>
      </trkpt>
      <trkpt lat="54.910888960584998" lon="26.870962008833885">
        <ele>166.44999999999999</ele>
        <time>2011-08-18T10:54:17Z</time>
      </trkpt>
      <trkpt lat="54.91026702336967" lon="26.870959997177124">
        <ele>167.41</ele>
        <time>2011-08-18T10:54:32Z</time>
      </trkpt>
      <trkpt lat="54.9097940325737" lon="26.871078014373779">
        <ele>170.28999999999999</ele>
        <time>2011-08-18T10:54:47Z</time>
      </trkpt>
      <trkpt lat="54.909583982080221" lon="26.871247999370098">
        <ele>171.25</ele>
        <time>2011-08-18T10:55:01Z</time>
      </trkpt>
      <trkpt lat="54.909573001787066" lon="26.871270965784788">
        <ele>167.88999999999999</ele>
        <time>2011-08-18T10:55:13Z</time>
      </trkpt>
      <trkpt lat="54.909573001787066" lon="26.871270965784788">
        <ele>171.25</ele>
        <time>2011-08-18T10:55:14Z</time>
      </trkpt>
      <trkpt lat="54.909573001787066" lon="26.871270965784788">
        <ele>166.93000000000001</ele>
        <time>2011-08-18T10:55:17Z</time>
      </trkpt>
      <trkpt lat="54.909573001787066" lon="26.871270965784788">
        <ele>174.62</ele>
        <time>2011-08-18T10:55:18Z</time>
      </trkpt>
      <trkpt lat="54.909573001787066" lon="26.871270965784788">
        <ele>168.84999999999999</ele>
        <time>2011-08-18T10:55:22Z</time>
      </trkpt>
      <trkpt lat="54.909573001787066" lon="26.871270965784788">
        <ele>172.69</ele>
        <time>2011-08-18T10:55:23Z</time>
      </trkpt>
      <trkpt lat="54.909573001787066" lon="26.871270965784788">
        <ele>168.37</ele>
        <time>2011-08-18T10:55:26Z</time>
      </trkpt>
      <trkpt lat="54.909573001787066" lon="26.871270965784788">
        <ele>172.21000000000001</ele>
        <time>2011-08-18T10:55:27Z</time>
      </trkpt>
      <trkpt lat="54.909573001787066" lon="26.871270965784788">
        <ele>167.88999999999999</ele>
        <time>2011-08-18T10:55:37Z</time>
      </trkpt>
      <trkpt lat="54.909573001787066" lon="26.871270965784788">
        <ele>173.16999999999999</ele>
        <time>2011-08-18T10:55:38Z</time>
      </trkpt>
      <trkpt lat="54.909573001787066" lon="26.871270965784788">
        <ele>167.88999999999999</ele>
        <time>2011-08-18T10:55:41Z</time>
      </trkpt>
      <trkpt lat="54.909573001787066" lon="26.871270965784788">
        <ele>167.88999999999999</ele>
        <time>2011-08-18T10:55:42Z</time>
      </trkpt>
      <trkpt lat="54.909576019272208" lon="26.871277000755072">
        <ele>173.16999999999999</ele>
        <time>2011-08-18T10:55:44Z</time>
      </trkpt>
      <trkpt lat="54.909576019272208" lon="26.871277000755072">
        <ele>173.16999999999999</ele>
        <time>2011-08-18T10:55:45Z</time>
      </trkpt>
      <trkpt lat="54.909576019272208" lon="26.871277000755072">
        <ele>166.44999999999999</ele>
        <time>2011-08-18T10:55:53Z</time>
      </trkpt>
      <trkpt lat="54.909576019272208" lon="26.871277000755072">
        <ele>172.69</ele>
        <time>2011-08-18T10:55:54Z</time>
      </trkpt>
      <trkpt lat="54.909576019272208" lon="26.871277000755072">
        <ele>177.02000000000001</ele>
        <time>2011-08-18T10:56:03Z</time>
      </trkpt>
      <trkpt lat="54.909576019272208" lon="26.871277000755072">
        <ele>172.69</ele>
        <time>2011-08-18T10:56:04Z</time>
      </trkpt>
      <trkpt lat="54.909576019272208" lon="26.871277000755072">
        <ele>165</ele>
        <time>2011-08-18T10:56:06Z</time>
      </trkpt>
      <trkpt lat="54.909576019272208" lon="26.871277000755072">
        <ele>170.77000000000001</ele>
        <time>2011-08-18T10:56:07Z</time>
      </trkpt>
      <trkpt lat="54.909576019272208" lon="26.871277000755072">
        <ele>171.72999999999999</ele>
        <time>2011-08-18T10:56:09Z</time>
      </trkpt>
      <trkpt lat="54.909576019272208" lon="26.871277000755072">
        <ele>168.37</ele>
        <time>2011-08-18T10:56:13Z</time>
      </trkpt>
      <trkpt lat="54.909576019272208" lon="26.871277000755072">
        <ele>172.69</ele>
        <time>2011-08-18T10:56:14Z</time>
      </trkpt>
      <trkpt lat="54.909576019272208" lon="26.871277000755072">
        <ele>169.33000000000001</ele>
        <time>2011-08-18T10:56:21Z</time>
      </trkpt>
      <trkpt lat="54.909576019272208" lon="26.871277000755072">
        <ele>174.13999999999999</ele>
        <time>2011-08-18T10:56:22Z</time>
      </trkpt>
      <trkpt lat="54.909576019272208" lon="26.871279012411833">
        <ele>169.81</ele>
        <time>2011-08-18T10:56:25Z</time>
      </trkpt>
      <trkpt lat="54.909576019272208" lon="26.871279012411833">
        <ele>165.47999999999999</ele>
        <time>2011-08-18T10:56:26Z</time>
      </trkpt>
      <trkpt lat="54.909576019272208" lon="26.871279012411833">
        <ele>168.37</ele>
        <time>2011-08-18T10:56:27Z</time>
      </trkpt>
      <trkpt lat="54.909576019272208" lon="26.871279012411833">
        <ele>172.21000000000001</ele>
        <time>2011-08-18T10:56:29Z</time>
      </trkpt>
      <trkpt lat="54.909576019272208" lon="26.871279012411833">
        <ele>177.02000000000001</ele>
        <time>2011-08-18T10:56:34Z</time>
      </trkpt>
      <trkpt lat="54.909576019272208" lon="26.871279012411833">
        <ele>168.37</ele>
        <time>2011-08-18T10:56:35Z</time>
      </trkpt>
      <trkpt lat="54.909576019272208" lon="26.871279012411833">
        <ele>170.77000000000001</ele>
        <time>2011-08-18T10:56:36Z</time>
      </trkpt>
      <trkpt lat="54.909576019272208" lon="26.871279012411833">
        <ele>174.13999999999999</ele>
        <time>2011-08-18T10:56:37Z</time>
      </trkpt>
      <trkpt lat="54.909576019272208" lon="26.871279012411833">
        <ele>168.84999999999999</ele>
        <time>2011-08-18T10:56:38Z</time>
      </trkpt>
      <trkpt lat="54.909576019272208" lon="26.871279012411833">
        <ele>171.72999999999999</ele>
        <time>2011-08-18T10:56:39Z</time>
      </trkpt>
      <trkpt lat="54.909576019272208" lon="26.871279012411833">
        <ele>172.69</ele>
        <time>2011-08-18T10:56:44Z</time>
      </trkpt>
      <trkpt lat="54.909576019272208" lon="26.871279012411833">
        <ele>169.33000000000001</ele>
        <time>2011-08-18T10:56:47Z</time>
      </trkpt>
      <trkpt lat="54.909576019272208" lon="26.871279012411833">
        <ele>172.69</ele>
        <time>2011-08-18T10:56:48Z</time>
      </trkpt>
      <trkpt lat="54.909576019272208" lon="26.871279012411833">
        <ele>166.93000000000001</ele>
        <time>2011-08-18T10:56:54Z</time>
      </trkpt>
      <trkpt lat="54.909576019272208" lon="26.871279012411833">
        <ele>176.53999999999999</ele>
        <time>2011-08-18T10:56:55Z</time>
      </trkpt>
      <trkpt lat="54.909576019272208" lon="26.871279012411833">
        <ele>176.53999999999999</ele>
        <time>2011-08-18T10:56:56Z</time>
      </trkpt>
      <trkpt lat="54.909576019272208" lon="26.871279012411833">
        <ele>170.77000000000001</ele>
        <time>2011-08-18T10:56:58Z</time>
      </trkpt>
      <trkpt lat="54.909576019272208" lon="26.871279012411833">
        <ele>170.28999999999999</ele>
        <time>2011-08-18T10:56:59Z</time>
      </trkpt>
      <trkpt lat="54.909576019272208" lon="26.871279012411833">
        <ele>172.21000000000001</ele>
        <time>2011-08-18T10:57:01Z</time>
      </trkpt>
      <trkpt lat="54.909576019272208" lon="26.871281024068594">
        <ele>165.96000000000001</ele>
        <time>2011-08-18T10:57:06Z</time>
      </trkpt>
      <trkpt lat="54.909576019272208" lon="26.871281024068594">
        <ele>173.66</ele>
        <time>2011-08-18T10:57:07Z</time>
      </trkpt>
      <trkpt lat="54.909634022042155" lon="26.871336009353399">
        <ele>172.21000000000001</ele>
        <time>2011-08-18T10:57:19Z</time>
      </trkpt>
      <trkpt lat="54.909637039527297" lon="26.871358975768089">
        <ele>172.21000000000001</ele>
        <time>2011-08-18T10:57:36Z</time>
      </trkpt>
      <trkpt lat="54.909637039527297" lon="26.87136098742485">
        <ele>172.21000000000001</ele>
        <time>2011-08-18T10:58:05Z</time>
      </trkpt>
      <trkpt lat="54.909637039527297" lon="26.871346989646554">
        <ele>171.72999999999999</ele>
        <time>2011-08-18T10:58:33Z</time>
      </trkpt>
      <trkpt lat="54.909625975415111" lon="26.871329974383116">
        <ele>172.21000000000001</ele>
        <time>2011-08-18T10:58:40Z</time>
      </trkpt>
      <trkpt lat="54.909603009000421" lon="26.871325029060245">
        <ele>172.69</ele>
        <time>2011-08-18T10:58:42Z</time>
      </trkpt>
      <trkpt lat="54.909263961017132" lon="26.871710009872913">
        <ele>171.25</ele>
        <time>2011-08-18T10:58:53Z</time>
      </trkpt>
      <trkpt lat="54.908980987966061" lon="26.87213497236371">
        <ele>172.69</ele>
        <time>2011-08-18T10:59:05Z</time>
      </trkpt>
      <trkpt lat="54.908702960237861" lon="26.872580973431468">
        <ele>172.21000000000001</ele>
        <time>2011-08-18T10:59:15Z</time>
      </trkpt>
      <trkpt lat="54.908286966383457" lon="26.873007025569677">
        <ele>174.62</ele>
        <time>2011-08-18T10:59:30Z</time>
      </trkpt>
      <trkpt lat="54.9081189930439" lon="26.873365016654134">
        <ele>177.02000000000001</ele>
        <time>2011-08-18T10:59:41Z</time>
      </trkpt>
      <trkpt lat="54.907985972240567" lon="26.873864997178316">
        <ele>178.46000000000001</ele>
        <time>2011-08-18T10:59:53Z</time>
      </trkpt>
      <trkpt lat="54.907870972529054" lon="26.874768985435367">
        <ele>177.97999999999999</ele>
        <time>2011-08-18T11:00:08Z</time>
      </trkpt>
      <trkpt lat="54.907867033034563" lon="26.874865964055061">
        <ele>177.5</ele>
        <time>2011-08-18T11:00:09Z</time>
      </trkpt>
      <trkpt lat="54.907837025821209" lon="26.876203967258334">
        <ele>174.13999999999999</ele>
        <time>2011-08-18T11:00:20Z</time>
      </trkpt>
      <trkpt lat="54.90775303915143" lon="26.877607014030218">
        <ele>171.25</ele>
        <time>2011-08-18T11:00:31Z</time>
      </trkpt>
      <trkpt lat="54.907719008624554" lon="26.877727964892983">
        <ele>171.25</ele>
        <time>2011-08-18T11:00:32Z</time>
      </trkpt>
      <trkpt lat="54.907677015289664" lon="26.877836007624865">
        <ele>171.25</ele>
        <time>2011-08-18T11:00:33Z</time>
      </trkpt>
      <trkpt lat="54.907562015578151" lon="26.878076987341046">
        <ele>171.72999999999999</ele>
        <time>2011-08-18T11:00:36Z</time>
      </trkpt>
      <trkpt lat="54.907542988657951" lon="26.878144964575768">
        <ele>172.69</ele>
        <time>2011-08-18T11:00:37Z</time>
      </trkpt>
      <trkpt lat="54.907508958131075" lon="26.878284020349383">
        <ele>173.16999999999999</ele>
        <time>2011-08-18T11:00:39Z</time>
      </trkpt>
      <trkpt lat="54.907481968402863" lon="26.878414023667574">
        <ele>173.66</ele>
        <time>2011-08-18T11:00:41Z</time>
      </trkpt>
      <trkpt lat="54.907318018376827" lon="26.879820004105568">
        <ele>171.25</ele>
        <time>2011-08-18T11:00:58Z</time>
      </trkpt>
      <trkpt lat="54.907313995063305" lon="26.879992000758648">
        <ele>171.25</ele>
        <time>2011-08-18T11:01:00Z</time>
      </trkpt>
      <trkpt lat="54.907412985339761" lon="26.880482006818056">
        <ele>169.81</ele>
        <time>2011-08-18T11:01:05Z</time>
      </trkpt>
      <trkpt lat="54.907608032226563" lon="26.880925996229053">
        <ele>171.25</ele>
        <time>2011-08-18T11:01:11Z</time>
      </trkpt>
      <trkpt lat="54.907635021954775" lon="26.88098500482738">
        <ele>172.21000000000001</ele>
        <time>2011-08-18T11:01:12Z</time>
      </trkpt>
      <trkpt lat="54.907729988917708" lon="26.881169993430376">
        <ele>174.13999999999999</ele>
        <time>2011-08-18T11:01:16Z</time>
      </trkpt>
      <trkpt lat="54.907879019156098" lon="26.881442992016673">
        <ele>177.5</ele>
        <time>2011-08-18T11:01:25Z</time>
      </trkpt>
      <trkpt lat="54.908088985830545" lon="26.881728982552886">
        <ele>179.41999999999999</ele>
        <time>2011-08-18T11:01:37Z</time>
      </trkpt>
      <trkpt lat="54.90826802328229" lon="26.881989995017648">
        <ele>182.78999999999999</ele>
        <time>2011-08-18T11:01:49Z</time>
      </trkpt>
      <trkpt lat="54.908545967191458" lon="26.882294006645679">
        <ele>186.15000000000001</ele>
        <time>2011-08-18T11:02:07Z</time>
      </trkpt>
      <trkpt lat="54.908772027119994" lon="26.882557030767202">
        <ele>186.63</ele>
        <time>2011-08-18T11:02:23Z</time>
      </trkpt>
      <trkpt lat="54.909145021811128" lon="26.882969001308084">
        <ele>183.27000000000001</ele>
        <time>2011-08-18T11:02:34Z</time>
      </trkpt>
      <trkpt lat="54.909203024581075" lon="26.88302599824965">
        <ele>183.27000000000001</ele>
        <time>2011-08-18T11:02:35Z</time>
      </trkpt>
      <trkpt lat="54.909576019272208" lon="26.883436040952802">
        <ele>181.34999999999999</ele>
        <time>2011-08-18T11:02:42Z</time>
      </trkpt>
      <trkpt lat="54.909697975963354" lon="26.883740974590182">
        <ele>181.83000000000001</ele>
        <time>2011-08-18T11:02:46Z</time>
      </trkpt>
      <trkpt lat="54.909706022590399" lon="26.884805979207158">
        <ele>182.78999999999999</ele>
        <time>2011-08-18T11:03:01Z</time>
      </trkpt>
      <trkpt lat="54.909679032862186" lon="26.885645007714629">
        <ele>186.15000000000001</ele>
        <time>2011-08-18T11:03:15Z</time>
      </trkpt>
      <trkpt lat="54.909618012607098" lon="26.886542961001396">
        <ele>189.03999999999999</ele>
        <time>2011-08-18T11:03:31Z</time>
      </trkpt>
      <trkpt lat="54.90966796875" lon="26.887428006157279">
        <ele>190</ele>
        <time>2011-08-18T11:03:47Z</time>
      </trkpt>
      <trkpt lat="54.909686995670199" lon="26.887582987546921">
        <ele>189.52000000000001</ele>
        <time>2011-08-18T11:03:49Z</time>
      </trkpt>
      <trkpt lat="54.909511981531978" lon="26.88822596333921">
        <ele>189.52000000000001</ele>
        <time>2011-08-18T11:03:59Z</time>
      </trkpt>
      <trkpt lat="54.90947300568223" lon="26.888257982209325">
        <ele>189.52000000000001</ele>
        <time>2011-08-18T11:04:00Z</time>
      </trkpt>
      <trkpt lat="54.909392958506942" lon="26.888314979150891">
        <ele>189.52000000000001</ele>
        <time>2011-08-18T11:04:02Z</time>
      </trkpt>
      <trkpt lat="54.909260021522641" lon="26.888365019112825">
        <ele>189.52000000000001</ele>
        <time>2011-08-18T11:04:05Z</time>
      </trkpt>
      <trkpt lat="54.909176034852862" lon="26.888402989134192">
        <ele>189.52000000000001</ele>
        <time>2011-08-18T11:04:07Z</time>
      </trkpt>
      <trkpt lat="54.908768003806472" lon="26.888708006590605">
        <ele>190.96000000000001</ele>
        <time>2011-08-18T11:04:19Z</time>
      </trkpt>
      <trkpt lat="54.908534986898303" lon="26.888904981315136">
        <ele>190.96000000000001</ele>
        <time>2011-08-18T11:04:25Z</time>
      </trkpt>
      <trkpt lat="54.908138019964099" lon="26.889259032905102">
        <ele>191.91999999999999</ele>
        <time>2011-08-18T11:04:38Z</time>
      </trkpt>
      <trkpt lat="54.90779503248632" lon="26.889498000964522">
        <ele>192.88</ele>
        <time>2011-08-18T11:04:50Z</time>
      </trkpt>
      <trkpt lat="54.90734500810504" lon="26.889649964869022">
        <ele>195.77000000000001</ele>
        <time>2011-08-18T11:05:05Z</time>
      </trkpt>
      <trkpt lat="54.906876040622592" lon="26.889776028692722">
        <ele>195.28</ele>
        <time>2011-08-18T11:05:19Z</time>
      </trkpt>
      <trkpt lat="54.906372036784887" lon="26.89000703394413">
        <ele>194.31999999999999</ele>
        <time>2011-08-18T11:05:33Z</time>
      </trkpt>
      <trkpt lat="54.906318979337811" lon="26.890020025894046">
        <ele>193.84</ele>
        <time>2011-08-18T11:05:34Z</time>
      </trkpt>
      <trkpt lat="54.905663011595607" lon="26.890089008957148">
        <ele>193.36000000000001</ele>
        <time>2011-08-18T11:05:47Z</time>
      </trkpt>
      <trkpt lat="54.905581958591938" lon="26.890086997300386">
        <ele>193.36000000000001</ele>
        <time>2011-08-18T11:05:49Z</time>
      </trkpt>
      <trkpt lat="54.905051970854402" lon="26.890126978978515">
        <ele>196.25</ele>
        <time>2011-08-18T11:06:05Z</time>
      </trkpt>
      <trkpt lat="54.90464000031352" lon="26.890414981171489">
        <ele>197.21000000000001</ele>
        <time>2011-08-18T11:06:19Z</time>
      </trkpt>
      <trkpt lat="54.904304975643754" lon="26.890783030539751">
        <ele>198.65000000000001</ele>
        <time>2011-08-18T11:06:35Z</time>
      </trkpt>
      <trkpt lat="54.904297012835741" lon="26.890786970034242">
        <ele>194.31999999999999</ele>
        <time>2011-08-18T11:06:40Z</time>
      </trkpt>
      <trkpt lat="54.904297012835741" lon="26.890786970034242">
        <ele>198.16999999999999</ele>
        <time>2011-08-18T11:06:41Z</time>
      </trkpt>
      <trkpt lat="54.904297012835741" lon="26.890786970034242">
        <ele>194.80000000000001</ele>
        <time>2011-08-18T11:06:43Z</time>
      </trkpt>
      <trkpt lat="54.904297012835741" lon="26.890786970034242">
        <ele>199.61000000000001</ele>
        <time>2011-08-18T11:06:44Z</time>
      </trkpt>
      <trkpt lat="54.904297012835741" lon="26.890786970034242">
        <ele>195.77000000000001</ele>
        <time>2011-08-18T11:06:56Z</time>
      </trkpt>
      <trkpt lat="54.904297012835741" lon="26.890786970034242">
        <ele>199.13</ele>
        <time>2011-08-18T11:06:57Z</time>
      </trkpt>
      <trkpt lat="54.904297012835741" lon="26.890786970034242">
        <ele>199.61000000000001</ele>
        <time>2011-08-18T11:07:13Z</time>
      </trkpt>
      <trkpt lat="54.904297012835741" lon="26.890786970034242">
        <ele>199.61000000000001</ele>
        <time>2011-08-18T11:07:21Z</time>
      </trkpt>
      <trkpt lat="54.904297012835741" lon="26.890786970034242">
        <ele>196.25</ele>
        <time>2011-08-18T11:07:26Z</time>
      </trkpt>
      <trkpt lat="54.904270023107529" lon="26.890827035531402">
        <ele>199.61000000000001</ele>
        <time>2011-08-18T11:07:37Z</time>
      </trkpt>
      <trkpt lat="54.903984032571316" lon="26.891332967206836">
        <ele>200.09</ele>
        <time>2011-08-18T11:07:51Z</time>
      </trkpt>
      <trkpt lat="54.903785968199372" lon="26.891927998512983">
        <ele>202.00999999999999</ele>
        <time>2011-08-18T11:08:03Z</time>
      </trkpt>
      <trkpt lat="54.903511041775346" lon="26.892677005380392">
        <ele>203.46000000000001</ele>
        <time>2011-08-18T11:08:19Z</time>
      </trkpt>
      <trkpt lat="54.903151961043477" lon="26.893144967034459">
        <ele>205.38</ele>
        <time>2011-08-18T11:08:33Z</time>
      </trkpt>
      <trkpt lat="54.902751976624131" lon="26.893388964235783">
        <ele>207.30000000000001</ele>
        <time>2011-08-18T11:08:47Z</time>
      </trkpt>
      <trkpt lat="54.902408989146352" lon="26.893607983365655">
        <ele>208.25999999999999</ele>
        <time>2011-08-18T11:08:59Z</time>
      </trkpt>
      <trkpt lat="54.90193197503686" lon="26.893823985010386">
        <ele>210.19</ele>
        <time>2011-08-18T11:09:16Z</time>
      </trkpt>
      <trkpt lat="54.901520004495978" lon="26.894032023847103">
        <ele>211.63</ele>
        <time>2011-08-18T11:09:32Z</time>
      </trkpt>
      <trkpt lat="54.90126796066761" lon="26.894530998542905">
        <ele>213.06999999999999</ele>
        <time>2011-08-18T11:09:46Z</time>
      </trkpt>
      <trkpt lat="54.901192020624876" lon="26.895313030108809">
        <ele>214.50999999999999</ele>
        <time>2011-08-18T11:10:01Z</time>
      </trkpt>
      <trkpt lat="54.90094400011003" lon="26.895956005901098">
        <ele>214.03</ele>
        <time>2011-08-18T11:10:15Z</time>
      </trkpt>
      <trkpt lat="54.900661027058959" lon="26.896404018625617">
        <ele>214.50999999999999</ele>
        <time>2011-08-18T11:10:27Z</time>
      </trkpt>
      <trkpt lat="54.900372019037604" lon="26.896945992484689">
        <ele>214.99000000000001</ele>
        <time>2011-08-18T11:10:39Z</time>
      </trkpt>
      <trkpt lat="54.900310998782516" lon="26.897038025781512">
        <ele>215.47</ele>
        <time>2011-08-18T11:10:41Z</time>
      </trkpt>
      <trkpt lat="54.90019197575748" lon="26.897242041304708">
        <ele>214.50999999999999</ele>
        <time>2011-08-18T11:10:45Z</time>
      </trkpt>
      <trkpt lat="54.899986032396555" lon="26.897598020732403">
        <ele>214.03</ele>
        <time>2011-08-18T11:10:51Z</time>
      </trkpt>
      <trkpt lat="54.8998489882797" lon="26.897805975750089">
        <ele>214.50999999999999</ele>
        <time>2011-08-18T11:10:55Z</time>
      </trkpt>
      <trkpt lat="54.899364011362195" lon="26.898398995399475">
        <ele>214.99000000000001</ele>
        <time>2011-08-18T11:11:10Z</time>
      </trkpt>
      <trkpt lat="54.898986993357539" lon="26.898786993697286">
        <ele>215.94999999999999</ele>
        <time>2011-08-18T11:11:23Z</time>
      </trkpt>
      <trkpt lat="54.898937037214637" lon="26.898849019780755">
        <ele>215.94999999999999</ele>
        <time>2011-08-18T11:11:29Z</time>
      </trkpt>
      <trkpt lat="54.898876016959548" lon="26.898728990927339">
        <ele>218.36000000000001</ele>
        <time>2011-08-18T11:11:43Z</time>
      </trkpt>
      <trkpt lat="54.898876016959548" lon="26.898728990927339">
        <ele>213.06999999999999</ele>
        <time>2011-08-18T11:11:45Z</time>
      </trkpt>
      <trkpt lat="54.898876016959548" lon="26.898728990927339">
        <ele>218.84</ele>
        <time>2011-08-18T11:11:46Z</time>
      </trkpt>
      <trkpt lat="54.898876016959548" lon="26.898728990927339">
        <ele>215.47</ele>
        <time>2011-08-18T11:11:49Z</time>
      </trkpt>
      <trkpt lat="54.898876016959548" lon="26.898728990927339">
        <ele>219.80000000000001</ele>
        <time>2011-08-18T11:11:50Z</time>
      </trkpt>
      <trkpt lat="54.898876016959548" lon="26.898728990927339">
        <ele>215.47</ele>
        <time>2011-08-18T11:11:51Z</time>
      </trkpt>
      <trkpt lat="54.898876016959548" lon="26.898728990927339">
        <ele>215.94999999999999</ele>
        <time>2011-08-18T11:12:12Z</time>
      </trkpt>
      <trkpt lat="54.898918010294437" lon="26.89888003282249">
        <ele>216.43000000000001</ele>
        <time>2011-08-18T11:12:22Z</time>
      </trkpt>
      <trkpt lat="54.89890300668776" lon="26.898911967873573">
        <ele>215.94999999999999</ele>
        <time>2011-08-18T11:12:37Z</time>
      </trkpt>
      <trkpt lat="54.89890300668776" lon="26.898913979530334">
        <ele>216.91</ele>
        <time>2011-08-18T11:13:06Z</time>
      </trkpt>
      <trkpt lat="54.89890300668776" lon="26.898913979530334">
        <ele>216.91</ele>
        <time>2011-08-18T11:13:33Z</time>
      </trkpt>
      <trkpt lat="54.89890300668776" lon="26.898915991187096">
        <ele>215.94999999999999</ele>
        <time>2011-08-18T11:13:54Z</time>
      </trkpt>
      <trkpt lat="54.89890300668776" lon="26.899045994505286">
        <ele>217.88</ele>
        <time>2011-08-18T11:14:12Z</time>
      </trkpt>
      <trkpt lat="54.89888004027307" lon="26.899122018367052">
        <ele>217.88</ele>
        <time>2011-08-18T11:14:14Z</time>
      </trkpt>
      <trkpt lat="54.898865036666393" lon="26.899250010028481">
        <ele>218.84</ele>
        <time>2011-08-18T11:14:17Z</time>
      </trkpt>
      <trkpt lat="54.898830000311136" lon="26.899362998083234">
        <ele>218.84</ele>
        <time>2011-08-18T11:14:20Z</time>
      </trkpt>
      <trkpt lat="54.898659009486437" lon="26.90019004046917">
        <ele>217.88</ele>
        <time>2011-08-18T11:14:33Z</time>
      </trkpt>
      <trkpt lat="54.898514002561569" lon="26.900714999064803">
        <ele>214.99000000000001</ele>
        <time>2011-08-18T11:14:39Z</time>
      </trkpt>
      <trkpt lat="54.898342005908489" lon="26.901156976819038">
        <ele>214.50999999999999</ele>
        <time>2011-08-18T11:14:44Z</time>
      </trkpt>
      <trkpt lat="54.898270005360246" lon="26.901424024254084">
        <ele>213.55000000000001</ele>
        <time>2011-08-18T11:14:47Z</time>
      </trkpt>
      <trkpt lat="54.898208985105157" lon="26.902096001431346">
        <ele>210.66999999999999</ele>
        <time>2011-08-18T11:14:53Z</time>
      </trkpt>
      <trkpt lat="54.898177972063422" lon="26.902475031092763">
        <ele>210.19</ele>
        <time>2011-08-18T11:14:56Z</time>
      </trkpt>
      <trkpt lat="54.898181995376945" lon="26.902946010231972">
        <ele>210.19</ele>
        <time>2011-08-18T11:15:00Z</time>
      </trkpt>
      <trkpt lat="54.898186018690467" lon="26.903149019926786">
        <ele>210.19</ele>
        <time>2011-08-18T11:15:02Z</time>
      </trkpt>
      <trkpt lat="54.898223988711834" lon="26.904068011790514">
        <ele>213.06999999999999</ele>
        <time>2011-08-18T11:15:14Z</time>
      </trkpt>
      <trkpt lat="54.898261958733201" lon="26.904518036171794">
        <ele>214.50999999999999</ele>
        <time>2011-08-18T11:15:23Z</time>
      </trkpt>
      <trkpt lat="54.898415012285113" lon="26.904589030891657">
        <ele>215.47</ele>
        <time>2011-08-18T11:15:32Z</time>
      </trkpt>
      <trkpt lat="54.898434039205313" lon="26.90459799952805">
        <ele>214.99000000000001</ele>
        <time>2011-08-18T11:15:33Z</time>
      </trkpt>
      <trkpt lat="54.89890300668776" lon="26.904504960402846">
        <ele>215.47</ele>
        <time>2011-08-18T11:15:48Z</time>
      </trkpt>
      <trkpt lat="54.899619994685054" lon="26.904305974021554">
        <ele>215.94999999999999</ele>
        <time>2011-08-18T11:16:04Z</time>
      </trkpt>
      <trkpt lat="54.899974968284369" lon="26.904196003451943">
        <ele>223.63999999999999</ele>
        <time>2011-08-18T11:16:12Z</time>
      </trkpt>
      <trkpt lat="54.900016961619258" lon="26.904186028987169">
        <ele>220.75999999999999</ele>
        <time>2011-08-18T11:16:13Z</time>
      </trkpt>
      <trkpt lat="54.900131039321423" lon="26.904151998460293">
        <ele>211.15000000000001</ele>
        <time>2011-08-18T11:16:16Z</time>
      </trkpt>
      <trkpt lat="54.900161968544126" lon="26.90414403565228">
        <ele>214.50999999999999</ele>
        <time>2011-08-18T11:16:17Z</time>
      </trkpt>
      <trkpt lat="54.900809973478317" lon="26.903971033170819">
        <ele>215.94999999999999</ele>
        <time>2011-08-18T11:16:32Z</time>
      </trkpt>
      <trkpt lat="54.901707004755735" lon="26.903670961037278">
        <ele>214.50999999999999</ele>
        <time>2011-08-18T11:16:50Z</time>
      </trkpt>
      <trkpt lat="54.902699002996087" lon="26.90322102047503">
        <ele>213.55000000000001</ele>
        <time>2011-08-18T11:17:08Z</time>
      </trkpt>
      <trkpt lat="54.903496038168669" lon="26.902741994708776">
        <ele>209.69999999999999</ele>
        <time>2011-08-18T11:17:22Z</time>
      </trkpt>
      <trkpt lat="54.90431603975594" lon="26.902436977252364">
        <ele>206.34</ele>
        <time>2011-08-18T11:17:35Z</time>
      </trkpt>
      <trkpt lat="54.905521022155881" lon="26.902514006942511">
        <ele>204.41999999999999</ele>
        <time>2011-08-18T11:17:53Z</time>
      </trkpt>
      <trkpt lat="54.906715024262667" lon="26.902669994160533">
        <ele>202.97999999999999</ele>
        <time>2011-08-18T11:18:11Z</time>
      </trkpt>
      <trkpt lat="54.907653965055943" lon="26.902802009135485">
        <ele>200.09</ele>
        <time>2011-08-18T11:18:26Z</time>
      </trkpt>
      <trkpt lat="54.908519983291626" lon="26.90300895832479">
        <ele>196.72999999999999</ele>
        <time>2011-08-18T11:18:39Z</time>
      </trkpt>
      <trkpt lat="54.908585026860237" lon="26.903029996901751">
        <ele>197.21000000000001</ele>
        <time>2011-08-18T11:18:40Z</time>
      </trkpt>
      <trkpt lat="54.909297991544008" lon="26.903373990207911">
        <ele>194.31999999999999</ele>
        <time>2011-08-18T11:18:51Z</time>
      </trkpt>
      <trkpt lat="54.909469988197088" lon="26.903483960777521">
        <ele>194.31999999999999</ele>
        <time>2011-08-18T11:18:58Z</time>
      </trkpt>
      <trkpt lat="54.909842982888222" lon="26.903773974627256">
        <ele>192.88</ele>
        <time>2011-08-18T11:19:08Z</time>
      </trkpt>
      <trkpt lat="54.910430973395705" lon="26.904378980398178">
        <ele>183.27000000000001</ele>
        <time>2011-08-18T11:19:19Z</time>
      </trkpt>
      <trkpt lat="54.910480007529259" lon="26.904440000653267">
        <ele>187.59</ele>
        <time>2011-08-18T11:19:20Z</time>
      </trkpt>
      <trkpt lat="54.910533986985683" lon="26.904503032565117">
        <ele>181.83000000000001</ele>
        <time>2011-08-18T11:19:21Z</time>
      </trkpt>
      <trkpt lat="54.910586960613728" lon="26.904567992314696">
        <ele>192.88</ele>
        <time>2011-08-18T11:19:22Z</time>
      </trkpt>
      <trkpt lat="54.910644963383675" lon="26.904629012569785">
        <ele>190.96000000000001</ele>
        <time>2011-08-18T11:19:23Z</time>
      </trkpt>
      <trkpt lat="54.911452978849411" lon="26.905579017475247">
        <ele>188.56</ele>
        <time>2011-08-18T11:19:38Z</time>
      </trkpt>
      <trkpt lat="54.912490993738174" lon="26.906493986025453">
        <ele>187.59</ele>
        <time>2011-08-18T11:19:55Z</time>
      </trkpt>
      <trkpt lat="54.913486009463668" lon="26.906840996816754">
        <ele>186.63</ele>
        <time>2011-08-18T11:20:10Z</time>
      </trkpt>
      <trkpt lat="54.91443601436913" lon="26.906727002933621">
        <ele>184.22999999999999</ele>
        <time>2011-08-18T11:20:26Z</time>
      </trkpt>
      <trkpt lat="54.915371015667915" lon="26.906192991882563">
        <ele>181.83000000000001</ele>
        <time>2011-08-18T11:20:42Z</time>
      </trkpt>
      <trkpt lat="54.916388997808099" lon="26.905425963923335">
        <ele>180.38</ele>
        <time>2011-08-18T11:21:00Z</time>
      </trkpt>
      <trkpt lat="54.917259039357305" lon="26.904798997566104">
        <ele>179.90000000000001</ele>
        <time>2011-08-18T11:21:16Z</time>
      </trkpt>
      <trkpt lat="54.918133020401001" lon="26.904158033430576">
        <ele>165.47999999999999</ele>
        <time>2011-08-18T11:21:32Z</time>
      </trkpt>
      <trkpt lat="54.918181970715523" lon="26.904118973761797">
        <ele>186.15000000000001</ele>
        <time>2011-08-18T11:21:33Z</time>
      </trkpt>
      <trkpt lat="54.918232010677457" lon="26.90408100374043">
        <ele>179.41999999999999</ele>
        <time>2011-08-18T11:21:34Z</time>
      </trkpt>
      <trkpt lat="54.919173968955874" lon="26.903511034324765">
        <ele>177.97999999999999</ele>
        <time>2011-08-18T11:21:51Z</time>
      </trkpt>
      <trkpt lat="54.920123973861337" lon="26.903362004086375">
        <ele>176.53999999999999</ele>
        <time>2011-08-18T11:22:06Z</time>
      </trkpt>
      <trkpt lat="54.92096702568233" lon="26.903698034584522">
        <ele>176.53999999999999</ele>
        <time>2011-08-18T11:22:20Z</time>
      </trkpt>
      <trkpt lat="54.921966986730695" lon="26.904334975406528">
        <ele>175.09999999999999</ele>
        <time>2011-08-18T11:22:37Z</time>
      </trkpt>
      <trkpt lat="54.922294970601797" lon="26.904605962336063">
        <ele>174.13999999999999</ele>
        <time>2011-08-18T11:22:43Z</time>
      </trkpt>
      <trkpt lat="54.922436038032174" lon="26.904923971742392">
        <ele>173.66</ele>
        <time>2011-08-18T11:22:47Z</time>
      </trkpt>
      <trkpt lat="54.922722028568387" lon="26.905702985823154">
        <ele>172.69</ele>
        <time>2011-08-18T11:22:56Z</time>
      </trkpt>
      <trkpt lat="54.923294009640813" lon="26.907006958499551">
        <ele>173.16999999999999</ele>
        <time>2011-08-18T11:23:13Z</time>
      </trkpt>
      <trkpt lat="54.923443039879203" lon="26.907380959019065">
        <ele>173.66</ele>
        <time>2011-08-18T11:23:18Z</time>
      </trkpt>
      <trkpt lat="54.923641020432115" lon="26.907725958153605">
        <ele>172.69</ele>
        <time>2011-08-18T11:23:23Z</time>
      </trkpt>
      <trkpt lat="54.924160027876496" lon="26.908692978322506">
        <ele>171.25</ele>
        <time>2011-08-18T11:23:37Z</time>
      </trkpt>
      <trkpt lat="54.924374017864466" lon="26.908972011879086">
        <ele>171.25</ele>
        <time>2011-08-18T11:23:42Z</time>
      </trkpt>
      <trkpt lat="54.924655985087156" lon="26.909268982708454">
        <ele>170.77000000000001</ele>
        <time>2011-08-18T11:23:49Z</time>
      </trkpt>
      <trkpt lat="54.924908028915524" lon="26.909691011533141">
        <ele>169.33000000000001</ele>
        <time>2011-08-18T11:23:55Z</time>
      </trkpt>
      <trkpt lat="54.92500701919198" lon="26.909935008734465">
        <ele>168.84999999999999</ele>
        <time>2011-08-18T11:23:58Z</time>
      </trkpt>
      <trkpt lat="54.925053035840392" lon="26.910107005387545">
        <ele>169.33000000000001</ele>
        <time>2011-08-18T11:24:00Z</time>
      </trkpt>
      <trkpt lat="54.925445979461074" lon="26.911294972524047">
        <ele>169.33000000000001</ele>
        <time>2011-08-18T11:24:14Z</time>
      </trkpt>
      <trkpt lat="54.925658963620663" lon="26.911910958588123">
        <ele>168.84999999999999</ele>
        <time>2011-08-18T11:24:21Z</time>
      </trkpt>
      <trkpt lat="54.925785027444363" lon="26.912773037329316">
        <ele>167.88999999999999</ele>
        <time>2011-08-18T11:24:30Z</time>
      </trkpt>
      <trkpt lat="54.92580397054553" lon="26.912968000397086">
        <ele>167.88999999999999</ele>
        <time>2011-08-18T11:24:32Z</time>
      </trkpt>
      <trkpt lat="54.925879994407296" lon="26.913539981469512">
        <ele>167.88999999999999</ele>
        <time>2011-08-18T11:24:38Z</time>
      </trkpt>
      <trkpt lat="54.925933973863721" lon="26.914478000253439">
        <ele>166.44999999999999</ele>
        <time>2011-08-18T11:24:47Z</time>
      </trkpt>
      <trkpt lat="54.925941014662385" lon="26.914898017421365">
        <ele>165.96000000000001</ele>
        <time>2011-08-18T11:24:51Z</time>
      </trkpt>
      <trkpt lat="54.92597202770412" lon="26.915213009342551">
        <ele>165.47999999999999</ele>
        <time>2011-08-18T11:24:54Z</time>
      </trkpt>
      <trkpt lat="54.926196997985244" lon="26.916267033666372">
        <ele>166.44999999999999</ele>
        <time>2011-08-18T11:25:06Z</time>
      </trkpt>
      <trkpt lat="54.926262041553855" lon="26.916555035859346">
        <ele>166.93000000000001</ele>
        <time>2011-08-18T11:25:10Z</time>
      </trkpt>
      <trkpt lat="54.926566975191236" lon="26.917611993849277">
        <ele>168.37</ele>
        <time>2011-08-18T11:25:26Z</time>
      </trkpt>
      <trkpt lat="54.926777025684714" lon="26.918352032080293">
        <ele>169.81</ele>
        <time>2011-08-18T11:25:40Z</time>
      </trkpt>
      <trkpt lat="54.927127975970507" lon="26.919226013123989">
        <ele>171.72999999999999</ele>
        <time>2011-08-18T11:25:59Z</time>
      </trkpt>
      <trkpt lat="54.927536007016897" lon="26.919600013643503">
        <ele>173.66</ele>
        <time>2011-08-18T11:26:15Z</time>
      </trkpt>
      <trkpt lat="54.928074041381478" lon="26.919905031099916">
        <ele>172.69</ele>
        <time>2011-08-18T11:26:31Z</time>
      </trkpt>
      <trkpt lat="54.928149981424212" lon="26.919975019991398">
        <ele>172.21000000000001</ele>
        <time>2011-08-18T11:26:40Z</time>
      </trkpt>
      <trkpt lat="54.928149981424212" lon="26.919978959485888">
        <ele>171.25</ele>
        <time>2011-08-18T11:27:17Z</time>
      </trkpt>
      <trkpt lat="54.928161967545748" lon="26.919973008334637">
        <ele>171.25</ele>
        <time>2011-08-18T11:27:22Z</time>
      </trkpt>
      <trkpt lat="54.928501015529037" lon="26.920151039958">
        <ele>171.72999999999999</ele>
        <time>2011-08-18T11:27:34Z</time>
      </trkpt>
      <trkpt lat="54.928543008863926" lon="26.920169983059168">
        <ele>170.77000000000001</ele>
        <time>2011-08-18T11:27:35Z</time>
      </trkpt>
      <trkpt lat="54.929276006296277" lon="26.920588994398713">
        <ele>169.33000000000001</ele>
        <time>2011-08-18T11:27:50Z</time>
      </trkpt>
      <trkpt lat="54.929607007652521" lon="26.920815976336598">
        <ele>168.84999999999999</ele>
        <time>2011-08-18T11:27:56Z</time>
      </trkpt>
      <trkpt lat="54.930266998708248" lon="26.921442020684481">
        <ele>167.88999999999999</ele>
        <time>2011-08-18T11:28:09Z</time>
      </trkpt>
      <trkpt lat="54.930931013077497" lon="26.922122966498137">
        <ele>167.41</ele>
        <time>2011-08-18T11:28:24Z</time>
      </trkpt>
      <trkpt lat="54.931498970836401" lon="26.922676004469395">
        <ele>167.88999999999999</ele>
        <time>2011-08-18T11:28:40Z</time>
      </trkpt>
      <trkpt lat="54.932418968528509" lon="26.92361100576818">
        <ele>165.47999999999999</ele>
        <time>2011-08-18T11:29:00Z</time>
      </trkpt>
      <trkpt lat="54.933060016483068" lon="26.924147028476">
        <ele>165.96000000000001</ele>
        <time>2011-08-18T11:29:15Z</time>
      </trkpt>
      <trkpt lat="54.933814974501729" lon="26.925066020339727">
        <ele>165.96000000000001</ele>
        <time>2011-08-18T11:29:34Z</time>
      </trkpt>
      <trkpt lat="54.934306992217898" lon="26.925842016935349">
        <ele>166.93000000000001</ele>
        <time>2011-08-18T11:29:48Z</time>
      </trkpt>
      <trkpt lat="54.934669006615877" lon="26.926374016329646">
        <ele>167.41</ele>
        <time>2011-08-18T11:29:59Z</time>
      </trkpt>
      <trkpt lat="54.935279963538051" lon="26.927255960181355">
        <ele>166.93000000000001</ele>
        <time>2011-08-18T11:30:16Z</time>
      </trkpt>
      <trkpt lat="54.935885975137353" lon="26.928055007010698">
        <ele>165.96000000000001</ele>
        <time>2011-08-18T11:30:32Z</time>
      </trkpt>
      <trkpt lat="54.936539009213448" lon="26.928880959749222">
        <ele>165.47999999999999</ele>
        <time>2011-08-18T11:30:48Z</time>
      </trkpt>
      <trkpt lat="54.937088023871183" lon="26.92973499186337">
        <ele>165.96000000000001</ele>
        <time>2011-08-18T11:31:04Z</time>
      </trkpt>
      <trkpt lat="54.937480967491865" lon="26.930808965116739">
        <ele>165.96000000000001</ele>
        <time>2011-08-18T11:31:20Z</time>
      </trkpt>
      <trkpt lat="54.937972985208035" lon="26.932371016591787">
        <ele>164.52000000000001</ele>
        <time>2011-08-18T11:31:40Z</time>
      </trkpt>
      <trkpt lat="54.938454022631049" lon="26.933706002309918">
        <ele>165.47999999999999</ele>
        <time>2011-08-18T11:31:59Z</time>
      </trkpt>
      <trkpt lat="54.938744036480784" lon="26.934379991143942">
        <ele>166.93000000000001</ele>
        <time>2011-08-18T11:32:11Z</time>
      </trkpt>
      <trkpt lat="54.939190037548542" lon="26.935450024902821">
        <ele>169.33000000000001</ele>
        <time>2011-08-18T11:32:30Z</time>
      </trkpt>
      <trkpt lat="54.939587004482746" lon="26.936408998444676">
        <ele>169.81</ele>
        <time>2011-08-18T11:32:48Z</time>
      </trkpt>
      <trkpt lat="54.939693035557866" lon="26.936640003696084">
        <ele>170.28999999999999</ele>
        <time>2011-08-18T11:32:52Z</time>
      </trkpt>
      <trkpt lat="54.940182035788894" lon="26.937365038320422">
        <ele>169.81</ele>
        <time>2011-08-18T11:33:08Z</time>
      </trkpt>
      <trkpt lat="54.940853007137775" lon="26.938090994954109">
        <ele>169.81</ele>
        <time>2011-08-18T11:33:27Z</time>
      </trkpt>
      <trkpt lat="54.941372014582157" lon="26.938661970198154">
        <ele>170.28999999999999</ele>
        <time>2011-08-18T11:33:43Z</time>
      </trkpt>
      <trkpt lat="54.941849028691649" lon="26.939192041754723">
        <ele>168.84999999999999</ele>
        <time>2011-08-18T11:33:58Z</time>
      </trkpt>
      <trkpt lat="54.942355966195464" lon="26.939712977036834">
        <ele>169.81</ele>
        <time>2011-08-18T11:34:13Z</time>
      </trkpt>
      <trkpt lat="54.942799033597112" lon="26.940083038061857">
        <ele>171.25</ele>
        <time>2011-08-18T11:34:27Z</time>
      </trkpt>
      <trkpt lat="54.942966001108289" lon="26.940609002485871">
        <ele>171.25</ele>
        <time>2011-08-18T11:34:39Z</time>
      </trkpt>
      <trkpt lat="54.943091981112957" lon="26.941394973546267">
        <ele>172.21000000000001</ele>
        <time>2011-08-18T11:34:52Z</time>
      </trkpt>
      <trkpt lat="54.943214021623135" lon="26.942330980673432">
        <ele>174.13999999999999</ele>
        <time>2011-08-18T11:35:07Z</time>
      </trkpt>
      <trkpt lat="54.943317035213113" lon="26.943100020289421">
        <ele>174.62</ele>
        <time>2011-08-18T11:35:20Z</time>
      </trkpt>
      <trkpt lat="54.943477967754006" lon="26.944171981886029">
        <ele>175.58000000000001</ele>
        <time>2011-08-18T11:35:39Z</time>
      </trkpt>
      <trkpt lat="54.943568995222449" lon="26.945316027849913">
        <ele>174.62</ele>
        <time>2011-08-18T11:35:56Z</time>
      </trkpt>
      <trkpt lat="54.943622974678874" lon="26.946495026350021">
        <ele>173.66</ele>
        <time>2011-08-18T11:36:10Z</time>
      </trkpt>
      <trkpt lat="54.943619035184383" lon="26.946574989706278">
        <ele>173.66</ele>
        <time>2011-08-18T11:36:11Z</time>
      </trkpt>
      <trkpt lat="54.943610988557339" lon="26.946653025224805">
        <ele>173.66</ele>
        <time>2011-08-18T11:36:12Z</time>
      </trkpt>
      <trkpt lat="54.943564971908927" lon="26.947863036766648">
        <ele>175.58000000000001</ele>
        <time>2011-08-18T11:36:28Z</time>
      </trkpt>
      <trkpt lat="54.943534964695573" lon="26.948677003383636">
        <ele>177.97999999999999</ele>
        <time>2011-08-18T11:36:43Z</time>
      </trkpt>
      <trkpt lat="54.943553991615772" lon="26.949374964460731">
        <ele>177.5</ele>
        <time>2011-08-18T11:36:56Z</time>
      </trkpt>
      <trkpt lat="54.943600008264184" lon="26.94988802075386">
        <ele>176.53999999999999</ele>
        <time>2011-08-18T11:37:07Z</time>
      </trkpt>
      <trkpt lat="54.943615011870861" lon="26.950049959123135">
        <ele>175.58000000000001</ele>
        <time>2011-08-18T11:37:19Z</time>
      </trkpt>
      <trkpt lat="54.943622974678874" lon="26.950799971818924">
        <ele>176.53999999999999</ele>
        <time>2011-08-18T11:37:34Z</time>
      </trkpt>
      <trkpt lat="54.943606965243816" lon="26.951379999518394">
        <ele>177.02000000000001</ele>
        <time>2011-08-18T11:37:45Z</time>
      </trkpt>
      <trkpt lat="54.943610988557339" lon="26.95220896974206">
        <ele>178.94</ele>
        <time>2011-08-18T11:38:01Z</time>
      </trkpt>
      <trkpt lat="54.943630015477538" lon="26.95250703021884">
        <ele>179.41999999999999</ele>
        <time>2011-08-18T11:38:14Z</time>
      </trkpt>
      <trkpt lat="54.943645019084215" lon="26.952576013281941">
        <ele>178.94</ele>
        <time>2011-08-18T11:38:24Z</time>
      </trkpt>
      <trkpt lat="54.943645019084215" lon="26.952576013281941">
        <ele>179.90000000000001</ele>
        <time>2011-08-18T11:38:57Z</time>
      </trkpt>
      <trkpt lat="54.943642001599073" lon="26.952576013281941">
        <ele>179.41999999999999</ele>
        <time>2011-08-18T11:39:32Z</time>
      </trkpt>
      <trkpt lat="54.943642001599073" lon="26.952569978311658">
        <ele>179.90000000000001</ele>
        <time>2011-08-18T11:40:04Z</time>
      </trkpt>
      <trkpt lat="54.943642001599073" lon="26.952576013281941">
        <ele>179.90000000000001</ele>
        <time>2011-08-18T11:40:42Z</time>
      </trkpt>
      <trkpt lat="54.943642001599073" lon="26.95257400162518">
        <ele>179.90000000000001</ele>
        <time>2011-08-18T11:41:18Z</time>
      </trkpt>
      <trkpt lat="54.943648958578706" lon="26.952580958604813">
        <ele>179.90000000000001</ele>
        <time>2011-08-18T11:41:55Z</time>
      </trkpt>
      <trkpt lat="54.943648958578706" lon="26.952584981918335">
        <ele>179.90000000000001</ele>
        <time>2011-08-18T11:42:34Z</time>
      </trkpt>
      <trkpt lat="54.943642001599073" lon="26.952601997181773">
        <ele>179.90000000000001</ele>
        <time>2011-08-18T11:42:51Z</time>
      </trkpt>
      <trkpt lat="54.943637978285551" lon="26.952618006616831">
        <ele>179.90000000000001</ele>
        <time>2011-08-18T11:43:00Z</time>
      </trkpt>
      <trkpt lat="54.943637978285551" lon="26.952652037143707">
        <ele>180.38</ele>
        <time>2011-08-18T11:43:01Z</time>
      </trkpt>
      <trkpt lat="54.94363403879106" lon="26.952690007165074">
        <ele>179.90000000000001</ele>
        <time>2011-08-18T11:43:02Z</time>
      </trkpt>
      <trkpt lat="54.943622974678874" lon="26.953381011262536">
        <ele>179.90000000000001</ele>
        <time>2011-08-18T11:43:15Z</time>
      </trkpt>
      <trkpt lat="54.943664968013763" lon="26.954268990084529">
        <ele>177.97999999999999</ele>
        <time>2011-08-18T11:43:26Z</time>
      </trkpt>
      <trkpt lat="54.943703021854162" lon="26.955069964751601">
        <ele>177.97999999999999</ele>
        <time>2011-08-18T11:43:35Z</time>
      </trkpt>
      <trkpt lat="54.943797988817096" lon="26.955817965790629">
        <ele>179.41999999999999</ele>
        <time>2011-08-18T11:43:49Z</time>
      </trkpt>
      <trkpt lat="54.943793965503573" lon="26.955872029066086">
        <ele>178.94</ele>
        <time>2011-08-18T11:43:52Z</time>
      </trkpt>
      <trkpt lat="54.94382900185883" lon="26.95590203627944">
        <ele>179.41999999999999</ele>
        <time>2011-08-18T11:43:56Z</time>
      </trkpt>
      <trkpt lat="54.943923968821764" lon="26.955777984112501">
        <ele>178.94</ele>
        <time>2011-08-18T11:44:01Z</time>
      </trkpt>
      <trkpt lat="54.944195039570332" lon="26.955859959125519">
        <ele>178.46000000000001</ele>
        <time>2011-08-18T11:44:13Z</time>
      </trkpt>
      <trkpt lat="54.944201996549964" lon="26.955890972167253">
        <ele>178.94</ele>
        <time>2011-08-18T11:44:14Z</time>
      </trkpt>
      <trkpt lat="54.944206019863486" lon="26.955984011292458">
        <ele>178.94</ele>
        <time>2011-08-18T11:44:28Z</time>
      </trkpt>
      <trkpt lat="54.944206019863486" lon="26.955984011292458">
        <ele>178.94</ele>
        <time>2011-08-18T11:44:54Z</time>
      </trkpt>
      <trkpt lat="54.944201996549964" lon="26.955984011292458">
        <ele>178.46000000000001</ele>
        <time>2011-08-18T11:45:14Z</time>
      </trkpt>
      <trkpt lat="54.944201996549964" lon="26.955984011292458">
        <ele>178.94</ele>
        <time>2011-08-18T11:45:37Z</time>
      </trkpt>
      <trkpt lat="54.944201996549964" lon="26.95598803460598">
        <ele>178.46000000000001</ele>
        <time>2011-08-18T11:46:01Z</time>
      </trkpt>
      <trkpt lat="54.944206019863486" lon="26.955989962443709">
        <ele>178.46000000000001</ele>
        <time>2011-08-18T11:46:40Z</time>
      </trkpt>
      <trkpt lat="54.944206019863486" lon="26.95598803460598">
        <ele>178.46000000000001</ele>
        <time>2011-08-18T11:47:21Z</time>
      </trkpt>
      <trkpt lat="54.944206019863486" lon="26.955986022949219">
        <ele>177.97999999999999</ele>
        <time>2011-08-18T11:48:02Z</time>
      </trkpt>
      <trkpt lat="54.944209959357977" lon="26.955989962443709">
        <ele>177.97999999999999</ele>
        <time>2011-08-18T11:48:39Z</time>
      </trkpt>
      <trkpt lat="54.944206019863486" lon="26.955993985757232">
        <ele>178.46000000000001</ele>
        <time>2011-08-18T11:49:14Z</time>
      </trkpt>
      <trkpt lat="54.944206019863486" lon="26.955995997413993">
        <ele>178.94</ele>
        <time>2011-08-18T11:49:43Z</time>
      </trkpt>
      <trkpt lat="54.944206019863486" lon="26.955995997413993">
        <ele>178.46000000000001</ele>
        <time>2011-08-18T11:50:05Z</time>
      </trkpt>
      <trkpt lat="54.944209959357977" lon="26.95598803460598">
        <ele>178.46000000000001</ele>
        <time>2011-08-18T11:50:23Z</time>
      </trkpt>
      <trkpt lat="54.944209959357977" lon="26.95598803460598">
        <ele>178.46000000000001</ele>
        <time>2011-08-18T11:50:49Z</time>
      </trkpt>
      <trkpt lat="54.944209959357977" lon="26.955986022949219">
        <ele>178.94</ele>
        <time>2011-08-18T11:51:16Z</time>
      </trkpt>
      <trkpt lat="54.944209959357977" lon="26.955986022949219">
        <ele>179.41999999999999</ele>
        <time>2011-08-18T11:51:35Z</time>
      </trkpt>
      <trkpt lat="54.944110969081521" lon="26.95575300604105">
        <ele>178.46000000000001</ele>
        <time>2011-08-18T11:51:48Z</time>
      </trkpt>
      <trkpt lat="54.943984989076853" lon="26.955769015476108">
        <ele>178.94</ele>
        <time>2011-08-18T11:51:54Z</time>
      </trkpt>
      <trkpt lat="54.943859009072185" lon="26.955804973840714">
        <ele>178.46000000000001</ele>
        <time>2011-08-18T11:51:59Z</time>
      </trkpt>
      <trkpt lat="54.943839982151985" lon="26.956232031807303">
        <ele>178.94</ele>
        <time>2011-08-18T11:52:12Z</time>
      </trkpt>
      <trkpt lat="54.943863032385707" lon="26.956387013196945">
        <ele>178.94</ele>
        <time>2011-08-18T11:52:19Z</time>
      </trkpt>
      <trkpt lat="54.943881975486875" lon="26.956604020670056">
        <ele>178.94</ele>
        <time>2011-08-18T11:52:27Z</time>
      </trkpt>
      <trkpt lat="54.943901002407074" lon="26.956745004281402">
        <ele>178.94</ele>
        <time>2011-08-18T11:52:32Z</time>
      </trkpt>
      <trkpt lat="54.943912988528609" lon="26.9573840405792">
        <ele>177.97999999999999</ele>
        <time>2011-08-18T11:52:47Z</time>
      </trkpt>
      <trkpt lat="54.943824978545308" lon="26.95850201882422">
        <ele>175.58000000000001</ele>
        <time>2011-08-18T11:53:00Z</time>
      </trkpt>
      <trkpt lat="54.943767981603742" lon="26.9598120264709">
        <ele>175.09999999999999</ele>
        <time>2011-08-18T11:53:16Z</time>
      </trkpt>
      <trkpt lat="54.943736968562007" lon="26.961119016632438">
        <ele>173.66</ele>
        <time>2011-08-18T11:53:32Z</time>
      </trkpt>
      <trkpt lat="54.943775022402406" lon="26.962427012622356">
        <ele>175.09999999999999</ele>
        <time>2011-08-18T11:53:49Z</time>
      </trkpt>
      <trkpt lat="54.94385096244514" lon="26.963916979730129">
        <ele>174.62</ele>
        <time>2011-08-18T11:54:08Z</time>
      </trkpt>
      <trkpt lat="54.943854985758662" lon="26.964000966399908">
        <ele>175.09999999999999</ele>
        <time>2011-08-18T11:54:09Z</time>
      </trkpt>
      <trkpt lat="54.944016002118587" lon="26.964758019894361">
        <ele>176.06</ele>
        <time>2011-08-18T11:54:19Z</time>
      </trkpt>
      <trkpt lat="54.944446999579668" lon="26.965745994821191">
        <ele>175.58000000000001</ele>
        <time>2011-08-18T11:54:35Z</time>
      </trkpt>
      <trkpt lat="54.944885037839413" lon="26.966695999726653">
        <ele>175.09999999999999</ele>
        <time>2011-08-18T11:54:50Z</time>
      </trkpt>
      <trkpt lat="54.944984028115869" lon="26.966962963342667">
        <ele>175.09999999999999</ele>
        <time>2011-08-18T11:54:54Z</time>
      </trkpt>
      <trkpt lat="54.945033984258771" lon="26.967093972489238">
        <ele>175.09999999999999</ele>
        <time>2011-08-18T11:54:56Z</time>
      </trkpt>
      <trkpt lat="54.945415025576949" lon="26.968299960717559">
        <ele>176.53999999999999</ele>
        <time>2011-08-18T11:55:16Z</time>
      </trkpt>
      <trkpt lat="54.945614011958241" lon="26.969018960371614">
        <ele>177.97999999999999</ele>
        <time>2011-08-18T11:55:31Z</time>
      </trkpt>
      <trkpt lat="54.945796988904476" lon="26.969796968623996">
        <ele>178.94</ele>
        <time>2011-08-18T11:55:46Z</time>
      </trkpt>
      <trkpt lat="54.945884998887777" lon="26.970568019896746">
        <ele>178.94</ele>
        <time>2011-08-18T11:56:00Z</time>
      </trkpt>
      <trkpt lat="54.945961022749543" lon="26.971390033140779">
        <ele>179.41999999999999</ele>
        <time>2011-08-18T11:56:14Z</time>
      </trkpt>
      <trkpt lat="54.9460409861058" lon="26.972100986167789">
        <ele>180.87</ele>
        <time>2011-08-18T11:56:27Z</time>
      </trkpt>
      <trkpt lat="54.946109969168901" lon="26.972743961960077">
        <ele>180.87</ele>
        <time>2011-08-18T11:56:38Z</time>
      </trkpt>
      <trkpt lat="54.946194039657712" lon="26.973873004317284">
        <ele>178.94</ele>
        <time>2011-08-18T11:56:51Z</time>
      </trkpt>
      <trkpt lat="54.946251036599278" lon="26.974195037037134">
        <ele>178.46000000000001</ele>
        <time>2011-08-18T11:56:55Z</time>
      </trkpt>
      <trkpt lat="54.946338962763548" lon="26.974454959854484">
        <ele>177.97999999999999</ele>
        <time>2011-08-18T11:56:59Z</time>
      </trkpt>
      <trkpt lat="54.946438036859035" lon="26.974695017561316">
        <ele>178.46000000000001</ele>
        <time>2011-08-18T11:57:03Z</time>
      </trkpt>
      <trkpt lat="54.94679301045835" lon="26.975328018888831">
        <ele>181.34999999999999</ele>
        <time>2011-08-18T11:57:17Z</time>
      </trkpt>
      <trkpt lat="54.947155024856329" lon="26.976059004664421">
        <ele>181.34999999999999</ele>
        <time>2011-08-18T11:57:32Z</time>
      </trkpt>
      <trkpt lat="54.947502035647631" lon="26.977098025381565">
        <ele>182.31</ele>
        <time>2011-08-18T11:57:51Z</time>
      </trkpt>
      <trkpt lat="54.947837982326746" lon="26.9776919670403">
        <ele>181.34999999999999</ele>
        <time>2011-08-18T11:58:03Z</time>
      </trkpt>
      <trkpt lat="54.948437036946416" lon="26.97852898389101">
        <ele>181.34999999999999</ele>
        <time>2011-08-18T11:58:21Z</time>
      </trkpt>
      <trkpt lat="54.948657983914018" lon="26.978673990815878">
        <ele>181.34999999999999</ele>
        <time>2011-08-18T11:58:27Z</time>
      </trkpt>
      <trkpt lat="54.949253015220165" lon="26.978730987757444">
        <ele>183.27000000000001</ele>
        <time>2011-08-18T11:58:43Z</time>
      </trkpt>
      <trkpt lat="54.949634978547692" lon="26.978754037991166">
        <ele>184.22999999999999</ele>
        <time>2011-08-18T11:58:55Z</time>
      </trkpt>
      <trkpt lat="54.950085002928972" lon="26.978737022727728">
        <ele>184.22999999999999</ele>
        <time>2011-08-18T11:59:07Z</time>
      </trkpt>
      <trkpt lat="54.950839960947633" lon="26.97887197136879">
        <ele>184.22999999999999</ele>
        <time>2011-08-18T11:59:26Z</time>
      </trkpt>
      <trkpt lat="54.950911961495876" lon="26.978946989402175">
        <ele>183.75</ele>
        <time>2011-08-18T11:59:28Z</time>
      </trkpt>
      <trkpt lat="54.951144978404045" lon="26.979264998808503">
        <ele>182.78999999999999</ele>
        <time>2011-08-18T11:59:34Z</time>
      </trkpt>
      <trkpt lat="54.951294008642435" lon="26.979555012658238">
        <ele>183.27000000000001</ele>
        <time>2011-08-18T11:59:39Z</time>
      </trkpt>
      <trkpt lat="54.951774962246418" lon="26.980256997048855">
        <ele>182.31</ele>
        <time>2011-08-18T11:59:54Z</time>
      </trkpt>
      <trkpt lat="54.951813016086817" lon="26.980285998433828">
        <ele>181.83000000000001</ele>
        <time>2011-08-18T11:59:55Z</time>
      </trkpt>
      <trkpt lat="54.951934972777963" lon="26.980470987036824">
        <ele>182.31</ele>
        <time>2011-08-18T11:59:59Z</time>
      </trkpt>
      <trkpt lat="54.952244013547897" lon="26.981446975842118">
        <ele>180.38</ele>
        <time>2011-08-18T12:00:14Z</time>
      </trkpt>
      <trkpt lat="54.95225097052753" lon="26.981473965570331">
        <ele>180.38</ele>
        <time>2011-08-18T12:00:28Z</time>
      </trkpt>
      <trkpt lat="54.95225097052753" lon="26.981473965570331">
        <ele>179.90000000000001</ele>
        <time>2011-08-18T12:00:38Z</time>
      </trkpt>
      <trkpt lat="54.952286006882787" lon="26.981586031615734">
        <ele>179.90000000000001</ele>
        <time>2011-08-18T12:00:43Z</time>
      </trkpt>
      <trkpt lat="54.952602004632354" lon="26.982660004869103">
        <ele>179.90000000000001</ele>
        <time>2011-08-18T12:01:02Z</time>
      </trkpt>
      <trkpt lat="54.952789004892111" lon="26.983260987326503">
        <ele>180.38</ele>
        <time>2011-08-18T12:01:12Z</time>
      </trkpt>
      <trkpt lat="54.952976005151868" lon="26.983883008360863">
        <ele>180.87</ele>
        <time>2011-08-18T12:01:22Z</time>
      </trkpt>
      <trkpt lat="54.953261995688081" lon="26.984853968024254">
        <ele>182.31</ele>
        <time>2011-08-18T12:01:38Z</time>
      </trkpt>
      <trkpt lat="54.953407002612948" lon="26.985336011275649">
        <ele>181.34999999999999</ele>
        <time>2011-08-18T12:01:45Z</time>
      </trkpt>
      <trkpt lat="54.953465005382895" lon="26.985554024577141">
        <ele>180.87</ele>
        <time>2011-08-18T12:01:48Z</time>
      </trkpt>
      <trkpt lat="54.953556032851338" lon="26.985872033983469">
        <ele>180.87</ele>
        <time>2011-08-18T12:01:52Z</time>
      </trkpt>
      <trkpt lat="54.953917963430285" lon="26.987098976969719">
        <ele>178.46000000000001</ele>
        <time>2011-08-18T12:02:08Z</time>
      </trkpt>
      <trkpt lat="54.954216023907065" lon="26.988070020452142">
        <ele>177.97999999999999</ele>
        <time>2011-08-18T12:02:21Z</time>
      </trkpt>
      <trkpt lat="54.954361030831933" lon="26.988538987934589">
        <ele>177.5</ele>
        <time>2011-08-18T12:02:27Z</time>
      </trkpt>
      <trkpt lat="54.954750034958124" lon="26.989860981702805">
        <ele>177.02000000000001</ele>
        <time>2011-08-18T12:02:44Z</time>
      </trkpt>
      <trkpt lat="54.955036025494337" lon="26.990823978558183">
        <ele>178.46000000000001</ele>
        <time>2011-08-18T12:02:57Z</time>
      </trkpt>
      <trkpt lat="54.955302989110351" lon="26.991715980693698">
        <ele>180.87</ele>
        <time>2011-08-18T12:03:12Z</time>
      </trkpt>
      <trkpt lat="54.955479009076953" lon="26.992258038371801">
        <ele>182.31</ele>
        <time>2011-08-18T12:03:25Z</time>
      </trkpt>
      <trkpt lat="54.955642959102988" lon="26.992795988917351">
        <ele>184.22999999999999</ele>
        <time>2011-08-18T12:03:41Z</time>
      </trkpt>
      <trkpt lat="54.955802969634533" lon="26.993359001353383">
        <ele>186.63</ele>
        <time>2011-08-18T12:03:58Z</time>
      </trkpt>
      <trkpt lat="54.956024000421166" lon="26.994055034592748">
        <ele>186.63</ele>
        <time>2011-08-18T12:04:16Z</time>
      </trkpt>
      <trkpt lat="54.956191973760724" lon="26.994627015665174">
        <ele>187.11000000000001</ele>
        <time>2011-08-18T12:04:28Z</time>
      </trkpt>
      <trkpt lat="54.956466984003782" lon="26.995533015578985">
        <ele>186.63</ele>
        <time>2011-08-18T12:04:45Z</time>
      </trkpt>
      <trkpt lat="54.956778958439827" lon="26.996552003547549">
        <ele>186.63</ele>
        <time>2011-08-18T12:05:03Z</time>
      </trkpt>
      <trkpt lat="54.957005018368363" lon="26.99735096655786">
        <ele>186.15000000000001</ele>
        <time>2011-08-18T12:05:16Z</time>
      </trkpt>
      <trkpt lat="54.957294026389718" lon="26.998259983956814">
        <ele>188.56</ele>
        <time>2011-08-18T12:05:33Z</time>
      </trkpt>
      <trkpt lat="54.957541963085532" lon="26.999115021899343">
        <ele>188.56</ele>
        <time>2011-08-18T12:05:48Z</time>
      </trkpt>
      <trkpt lat="54.957774979993701" lon="26.999898981302977">
        <ele>189.52000000000001</ele>
        <time>2011-08-18T12:06:02Z</time>
      </trkpt>
      <trkpt lat="54.957915963605046" lon="27.000305000692606">
        <ele>189.03999999999999</ele>
        <time>2011-08-18T12:06:14Z</time>
      </trkpt>
      <trkpt lat="54.957934990525246" lon="27.000406002625823">
        <ele>189.03999999999999</ele>
        <time>2011-08-18T12:06:29Z</time>
      </trkpt>
      <trkpt lat="54.957934990525246" lon="27.000406002625823">
        <ele>189.52000000000001</ele>
        <time>2011-08-18T12:06:56Z</time>
      </trkpt>
      <trkpt lat="54.957934990525246" lon="27.000406002625823">
        <ele>189.52000000000001</ele>
        <time>2011-08-18T12:07:25Z</time>
      </trkpt>
      <trkpt lat="54.957934990525246" lon="27.000406002625823">
        <ele>189.52000000000001</ele>
        <time>2011-08-18T12:07:49Z</time>
      </trkpt>
      <trkpt lat="54.957934990525246" lon="27.000406002625823">
        <ele>189.52000000000001</ele>
        <time>2011-08-18T12:08:15Z</time>
      </trkpt>
      <trkpt lat="54.957934990525246" lon="27.000403990969062">
        <ele>189.03999999999999</ele>
        <time>2011-08-18T12:08:43Z</time>
      </trkpt>
      <trkpt lat="54.957934990525246" lon="27.000410025939345">
        <ele>187.59</ele>
        <time>2011-08-18T12:09:16Z</time>
      </trkpt>
      <trkpt lat="54.957934990525246" lon="27.000410025939345">
        <ele>191.44</ele>
        <time>2011-08-18T12:09:17Z</time>
      </trkpt>
      <trkpt lat="54.957934990525246" lon="27.000410025939345">
        <ele>190.47999999999999</ele>
        <time>2011-08-18T12:09:18Z</time>
      </trkpt>
      <trkpt lat="54.957934990525246" lon="27.000410025939345">
        <ele>186.63</ele>
        <time>2011-08-18T12:09:25Z</time>
      </trkpt>
      <trkpt lat="54.957934990525246" lon="27.000410025939345">
        <ele>187.11000000000001</ele>
        <time>2011-08-18T12:09:26Z</time>
      </trkpt>
      <trkpt lat="54.957934990525246" lon="27.000410025939345">
        <ele>190.96000000000001</ele>
        <time>2011-08-18T12:09:27Z</time>
      </trkpt>
      <trkpt lat="54.957934990525246" lon="27.000410025939345">
        <ele>191.44</ele>
        <time>2011-08-18T12:09:29Z</time>
      </trkpt>
      <trkpt lat="54.957934990525246" lon="27.000410025939345">
        <ele>184.71000000000001</ele>
        <time>2011-08-18T12:09:30Z</time>
      </trkpt>
      <trkpt lat="54.957934990525246" lon="27.000410025939345">
        <ele>189.52000000000001</ele>
        <time>2011-08-18T12:09:31Z</time>
      </trkpt>
      <trkpt lat="54.957934990525246" lon="27.000410025939345">
        <ele>192.88</ele>
        <time>2011-08-18T12:09:35Z</time>
      </trkpt>
      <trkpt lat="54.957934990525246" lon="27.000410025939345">
        <ele>191.44</ele>
        <time>2011-08-18T12:09:36Z</time>
      </trkpt>
      <trkpt lat="54.957934990525246" lon="27.000410025939345">
        <ele>188.08000000000001</ele>
        <time>2011-08-18T12:09:37Z</time>
      </trkpt>
      <trkpt lat="54.957934990525246" lon="27.000410025939345">
        <ele>192.88</ele>
        <time>2011-08-18T12:09:38Z</time>
      </trkpt>
      <trkpt lat="54.957934990525246" lon="27.000410025939345">
        <ele>187.11000000000001</ele>
        <time>2011-08-18T12:09:39Z</time>
      </trkpt>
      <trkpt lat="54.957934990525246" lon="27.000403990969062">
        <ele>191.44</ele>
        <time>2011-08-18T12:09:42Z</time>
      </trkpt>
      <trkpt lat="54.957934990525246" lon="27.000403990969062">
        <ele>188.08000000000001</ele>
        <time>2011-08-18T12:09:43Z</time>
      </trkpt>
      <trkpt lat="54.957934990525246" lon="27.000403990969062">
        <ele>189.03999999999999</ele>
        <time>2011-08-18T12:09:48Z</time>
      </trkpt>
      <trkpt lat="54.957934990525246" lon="27.000403990969062">
        <ele>186.63</ele>
        <time>2011-08-18T12:09:54Z</time>
      </trkpt>
      <trkpt lat="54.957934990525246" lon="27.000403990969062">
        <ele>190.47999999999999</ele>
        <time>2011-08-18T12:09:56Z</time>
      </trkpt>
      <trkpt lat="54.957934990525246" lon="27.00040097348392">
        <ele>189.52000000000001</ele>
        <time>2011-08-18T12:10:26Z</time>
      </trkpt>
      <trkpt lat="54.957934990525246" lon="27.00040097348392">
        <ele>189.52000000000001</ele>
        <time>2011-08-18T12:10:28Z</time>
      </trkpt>
      <trkpt lat="54.957970026880503" lon="27.000494012609124">
        <ele>189.52000000000001</ele>
        <time>2011-08-18T12:10:33Z</time>
      </trkpt>
      <trkpt lat="54.958111010491848" lon="27.000982007011771">
        <ele>190.47999999999999</ele>
        <time>2011-08-18T12:10:46Z</time>
      </trkpt>
      <trkpt lat="54.958365987986326" lon="27.001793039962649">
        <ele>191.91999999999999</ele>
        <time>2011-08-18T12:11:05Z</time>
      </trkpt>
      <trkpt lat="54.958572015166283" lon="27.002486977726221">
        <ele>192.88</ele>
        <time>2011-08-18T12:11:19Z</time>
      </trkpt>
      <trkpt lat="54.958847025409341" lon="27.0033860206604">
        <ele>193.36000000000001</ele>
        <time>2011-08-18T12:11:36Z</time>
      </trkpt>
      <trkpt lat="54.959109965711832" lon="27.004194036126137">
        <ele>194.31999999999999</ele>
        <time>2011-08-18T12:11:51Z</time>
      </trkpt>
      <trkpt lat="54.959353962913156" lon="27.00497598387301">
        <ele>195.77000000000001</ele>
        <time>2011-08-18T12:12:05Z</time>
      </trkpt>
      <trkpt lat="54.959571976214647" lon="27.005613008514047">
        <ele>195.77000000000001</ele>
        <time>2011-08-18T12:12:17Z</time>
      </trkpt>
      <trkpt lat="54.959842963144183" lon="27.006437033414841">
        <ele>194.80000000000001</ele>
        <time>2011-08-18T12:12:30Z</time>
      </trkpt>
      <trkpt lat="54.960201038047671" lon="27.007432971149683">
        <ele>193.36000000000001</ele>
        <time>2011-08-18T12:12:45Z</time>
      </trkpt>
      <trkpt lat="54.960303967818618" lon="27.007685014978051">
        <ele>193.84</ele>
        <time>2011-08-18T12:12:49Z</time>
      </trkpt>
      <trkpt lat="54.960708981379867" lon="27.008806010708213">
        <ele>192.88</ele>
        <time>2011-08-18T12:13:06Z</time>
      </trkpt>
      <trkpt lat="54.961078958585858" lon="27.00983002781868">
        <ele>192.40000000000001</ele>
        <time>2011-08-18T12:13:21Z</time>
      </trkpt>
      <trkpt lat="54.961220026016235" lon="27.010251972824335">
        <ele>192.88</ele>
        <time>2011-08-18T12:13:28Z</time>
      </trkpt>
      <trkpt lat="54.961314992979169" lon="27.010493958368897">
        <ele>191.91999999999999</ele>
        <time>2011-08-18T12:13:32Z</time>
      </trkpt>
      <trkpt lat="54.961624033749104" lon="27.011359976604581">
        <ele>193.36000000000001</ele>
        <time>2011-08-18T12:13:48Z</time>
      </trkpt>
      <trkpt lat="54.961750013753772" lon="27.011999012902379">
        <ele>193.36000000000001</ele>
        <time>2011-08-18T12:14:03Z</time>
      </trkpt>
      <trkpt lat="54.961657980456948" lon="27.012038994580507">
        <ele>193.84</ele>
        <time>2011-08-18T12:14:08Z</time>
      </trkpt>
      <trkpt lat="54.961272999644279" lon="27.012082999572158">
        <ele>194.31999999999999</ele>
        <time>2011-08-18T12:14:24Z</time>
      </trkpt>
      <trkpt lat="54.961268976330757" lon="27.01208702288568">
        <ele>193.84</ele>
        <time>2011-08-18T12:14:38Z</time>
      </trkpt>
      <trkpt lat="54.961265958845615" lon="27.01208702288568">
        <ele>194.31999999999999</ele>
        <time>2011-08-18T12:15:07Z</time>
      </trkpt>
      <trkpt lat="54.961021039634943" lon="27.012115018442273">
        <ele>195.28</ele>
        <time>2011-08-18T12:15:18Z</time>
      </trkpt>
      <trkpt lat="54.960484011098742" lon="27.012168997898698">
        <ele>196.25</ele>
        <time>2011-08-18T12:15:35Z</time>
      </trkpt>
      <trkpt lat="54.959793007001281" lon="27.012254996225238">
        <ele>197.21000000000001</ele>
        <time>2011-08-18T12:15:54Z</time>
      </trkpt>
      <trkpt lat="54.959269976243377" lon="27.012338982895017">
        <ele>198.65000000000001</ele>
        <time>2011-08-18T12:16:10Z</time>
      </trkpt>
      <trkpt lat="54.958709981292486" lon="27.012408971786499">
        <ele>200.56999999999999</ele>
        <time>2011-08-18T12:16:27Z</time>
      </trkpt>
      <trkpt lat="54.958111010491848" lon="27.012479966506362">
        <ele>200.56999999999999</ele>
        <time>2011-08-18T12:16:44Z</time>
      </trkpt>
      <trkpt lat="54.957442972809076" lon="27.012558002024889">
        <ele>201.05000000000001</ele>
        <time>2011-08-18T12:17:01Z</time>
      </trkpt>
      <trkpt lat="54.956818018108606" lon="27.012679958716035">
        <ele>201.05000000000001</ele>
        <time>2011-08-18T12:17:17Z</time>
      </trkpt>
      <trkpt lat="54.956284007057548" lon="27.012868970632553">
        <ele>202.00999999999999</ele>
        <time>2011-08-18T12:17:31Z</time>
      </trkpt>
      <trkpt lat="54.955577999353409" lon="27.013235008344054">
        <ele>201.05000000000001</ele>
        <time>2011-08-18T12:17:48Z</time>
      </trkpt>
      <trkpt lat="54.955208022147417" lon="27.013412034139037">
        <ele>200.56999999999999</ele>
        <time>2011-08-18T12:17:56Z</time>
      </trkpt>
      <trkpt lat="54.954406963661313" lon="27.013787962496281">
        <ele>199.13</ele>
        <time>2011-08-18T12:18:12Z</time>
      </trkpt>
      <trkpt lat="54.95347598567605" lon="27.014217032119632">
        <ele>196.72999999999999</ele>
        <time>2011-08-18T12:18:30Z</time>
      </trkpt>
      <trkpt lat="54.953068038448691" lon="27.014436973258853">
        <ele>195.28</ele>
        <time>2011-08-18T12:18:38Z</time>
      </trkpt>
      <trkpt lat="54.952239990234375" lon="27.014830000698566">
        <ele>194.80000000000001</ele>
        <time>2011-08-18T12:18:55Z</time>
      </trkpt>
      <trkpt lat="54.951382018625736" lon="27.015219004824758">
        <ele>192.40000000000001</ele>
        <time>2011-08-18T12:19:12Z</time>
      </trkpt>
      <trkpt lat="54.95128302834928" lon="27.015251023694873">
        <ele>192.40000000000001</ele>
        <time>2011-08-18T12:19:14Z</time>
      </trkpt>
      <trkpt lat="54.95038197375834" lon="27.015691995620728">
        <ele>190.96000000000001</ele>
        <time>2011-08-18T12:19:33Z</time>
      </trkpt>
      <trkpt lat="54.950089026242495" lon="27.01582501642406">
        <ele>191.44</ele>
        <time>2011-08-18T12:19:39Z</time>
      </trkpt>
      <trkpt lat="54.950043009594083" lon="27.015854017809033">
        <ele>190.96000000000001</ele>
        <time>2011-08-18T12:19:40Z</time>
      </trkpt>
      <trkpt lat="54.949329039081931" lon="27.016174038872123">
        <ele>190.96000000000001</ele>
        <time>2011-08-18T12:19:57Z</time>
      </trkpt>
      <trkpt lat="54.948650021106005" lon="27.016489030793309">
        <ele>191.91999999999999</ele>
        <time>2011-08-18T12:20:17Z</time>
      </trkpt>
      <trkpt lat="54.948558993637562" lon="27.016538986936212">
        <ele>191.91999999999999</ele>
        <time>2011-08-18T12:20:27Z</time>
      </trkpt>
      <trkpt lat="54.948543990030885" lon="27.016549967229366">
        <ele>193.84</ele>
        <time>2011-08-18T12:20:28Z</time>
      </trkpt>
      <trkpt lat="54.948524041101336" lon="27.01655600219965">
        <ele>191.91999999999999</ele>
        <time>2011-08-18T12:20:29Z</time>
      </trkpt>
      <trkpt lat="54.948501996695995" lon="27.016562959179282">
        <ele>191.44</ele>
        <time>2011-08-18T12:20:30Z</time>
      </trkpt>
      <trkpt lat="54.948479030281305" lon="27.016575029119849">
        <ele>196.25</ele>
        <time>2011-08-18T12:20:31Z</time>
      </trkpt>
      <trkpt lat="54.948455980047584" lon="27.016588021069765">
        <ele>191.44</ele>
        <time>2011-08-18T12:20:32Z</time>
      </trkpt>
      <trkpt lat="54.948428990319371" lon="27.016602018848062">
        <ele>193.36000000000001</ele>
        <time>2011-08-18T12:20:33Z</time>
      </trkpt>
      <trkpt lat="54.94834098033607" lon="27.016644012182951">
        <ele>190.96000000000001</ele>
        <time>2011-08-18T12:20:36Z</time>
      </trkpt>
      <trkpt lat="54.947791965678334" lon="27.01694299466908">
        <ele>190.96000000000001</ele>
        <time>2011-08-18T12:20:50Z</time>
      </trkpt>
      <trkpt lat="54.947043964639306" lon="27.017349014058709">
        <ele>190.47999999999999</ele>
        <time>2011-08-18T12:21:08Z</time>
      </trkpt>
      <trkpt lat="54.946461003273726" lon="27.017657971009612">
        <ele>191.44</ele>
        <time>2011-08-18T12:21:23Z</time>
      </trkpt>
      <trkpt lat="54.945979965850711" lon="27.017886964604259">
        <ele>192.88</ele>
        <time>2011-08-18T12:21:36Z</time>
      </trkpt>
      <trkpt lat="54.945370014756918" lon="27.018203968182206">
        <ele>194.80000000000001</ele>
        <time>2011-08-18T12:21:54Z</time>
      </trkpt>
      <trkpt lat="54.944919990375638" lon="27.0184460375458">
        <ele>196.25</ele>
        <time>2011-08-18T12:22:09Z</time>
      </trkpt>
      <trkpt lat="54.944466026499867" lon="27.018705038353801">
        <ele>197.21000000000001</ele>
        <time>2011-08-18T12:22:24Z</time>
      </trkpt>
      <trkpt lat="54.943953976035118" lon="27.018976025283337">
        <ele>198.65000000000001</ele>
        <time>2011-08-18T12:22:39Z</time>
      </trkpt>
      <trkpt lat="54.943455001339316" lon="27.01922002248466">
        <ele>200.56999999999999</ele>
        <time>2011-08-18T12:22:54Z</time>
      </trkpt>
      <trkpt lat="54.943007994443178" lon="27.019466031342745">
        <ele>201.53</ele>
        <time>2011-08-18T12:23:08Z</time>
      </trkpt>
      <trkpt lat="54.942463003098965" lon="27.01973500661552">
        <ele>202.00999999999999</ele>
        <time>2011-08-18T12:23:24Z</time>
      </trkpt>
      <trkpt lat="54.941990012302995" lon="27.019988978281617">
        <ele>202.49000000000001</ele>
        <time>2011-08-18T12:23:39Z</time>
      </trkpt>
      <trkpt lat="54.941524984315038" lon="27.02025200240314">
        <ele>202.97999999999999</ele>
        <time>2011-08-18T12:23:52Z</time>
      </trkpt>
      <trkpt lat="54.940963983535767" lon="27.020672019571066">
        <ele>202.97999999999999</ele>
        <time>2011-08-18T12:24:08Z</time>
      </trkpt>
      <trkpt lat="54.940700959414244" lon="27.02089698985219">
        <ele>203.46000000000001</ele>
        <time>2011-08-18T12:24:15Z</time>
      </trkpt>
      <trkpt lat="54.940166026353836" lon="27.02154197730124">
        <ele>202.97999999999999</ele>
        <time>2011-08-18T12:24:31Z</time>
      </trkpt>
      <trkpt lat="54.93968197144568" lon="27.022327026352286">
        <ele>202.97999999999999</ele>
        <time>2011-08-18T12:24:48Z</time>
      </trkpt>
      <trkpt lat="54.939434034749866" lon="27.022861037403345">
        <ele>202.97999999999999</ele>
        <time>2011-08-18T12:24:58Z</time>
      </trkpt>
      <trkpt lat="54.939021980389953" lon="27.02379796653986">
        <ele>202.00999999999999</ele>
        <time>2011-08-18T12:25:15Z</time>
      </trkpt>
      <trkpt lat="54.938610009849072" lon="27.024755012243986">
        <ele>200.09</ele>
        <time>2011-08-18T12:25:31Z</time>
      </trkpt>
      <trkpt lat="54.938270961865783" lon="27.025532014667988">
        <ele>199.61000000000001</ele>
        <time>2011-08-18T12:25:43Z</time>
      </trkpt>
      <trkpt lat="54.937625974416733" lon="27.026978982612491">
        <ele>196.72999999999999</ele>
        <time>2011-08-18T12:26:05Z</time>
      </trkpt>
      <trkpt lat="54.937209980562329" lon="27.027911972254515">
        <ele>194.31999999999999</ele>
        <time>2011-08-18T12:26:19Z</time>
      </trkpt>
      <trkpt lat="54.937140997499228" lon="27.028063014149666">
        <ele>194.31999999999999</ele>
        <time>2011-08-18T12:26:31Z</time>
      </trkpt>
      <trkpt lat="54.93686699308455" lon="27.028683023527265">
        <ele>194.31999999999999</ele>
        <time>2011-08-18T12:26:41Z</time>
      </trkpt>
      <trkpt lat="54.936729026958346" lon="27.029008995741606">
        <ele>194.80000000000001</ele>
        <time>2011-08-18T12:26:46Z</time>
      </trkpt>
      <trkpt lat="54.936229968443513" lon="27.030176008120179">
        <ele>195.28</ele>
        <time>2011-08-18T12:27:04Z</time>
      </trkpt>
      <trkpt lat="54.935806011781096" lon="27.031158031895757">
        <ele>195.28</ele>
        <time>2011-08-18T12:27:18Z</time>
      </trkpt>
      <trkpt lat="54.93529899045825" lon="27.0324129704386">
        <ele>195.77000000000001</ele>
        <time>2011-08-18T12:27:36Z</time>
      </trkpt>
      <trkpt lat="54.934956002980471" lon="27.033285023644567">
        <ele>192.88</ele>
        <time>2011-08-18T12:27:49Z</time>
      </trkpt>
      <trkpt lat="54.934936976060271" lon="27.033351995050907">
        <ele>196.25</ele>
        <time>2011-08-18T12:27:50Z</time>
      </trkpt>
      <trkpt lat="54.934818036854267" lon="27.033647960051894">
        <ele>194.80000000000001</ele>
        <time>2011-08-18T12:27:55Z</time>
      </trkpt>
      <trkpt lat="54.934757016599178" lon="27.033833032473922">
        <ele>194.80000000000001</ele>
        <time>2011-08-18T12:27:58Z</time>
      </trkpt>
      <trkpt lat="54.934344962239265" lon="27.034927038475871">
        <ele>193.36000000000001</ele>
        <time>2011-08-18T12:28:14Z</time>
      </trkpt>
      <trkpt lat="54.933949001133442" lon="27.036217013373971">
        <ele>192.40000000000001</ele>
        <time>2011-08-18T12:28:32Z</time>
      </trkpt>
      <trkpt lat="54.933612970635295" lon="27.037758026272058">
        <ele>190</ele>
        <time>2011-08-18T12:28:50Z</time>
      </trkpt>
      <trkpt lat="54.93329999037087" lon="27.039465000852942">
        <ele>188.56</ele>
        <time>2011-08-18T12:29:09Z</time>
      </trkpt>
      <trkpt lat="54.933090023696423" lon="27.040925966575742">
        <ele>187.59</ele>
        <time>2011-08-18T12:29:27Z</time>
      </trkpt>
      <trkpt lat="54.933064039796591" lon="27.041547987610102">
        <ele>187.59</ele>
        <time>2011-08-18T12:29:36Z</time>
      </trkpt>
      <trkpt lat="54.933070996776223" lon="27.042141007259488">
        <ele>187.11000000000001</ele>
        <time>2011-08-18T12:29:43Z</time>
      </trkpt>
      <trkpt lat="54.933075020089746" lon="27.042299006134272">
        <ele>187.11000000000001</ele>
        <time>2011-08-18T12:29:45Z</time>
      </trkpt>
      <trkpt lat="54.9330860003829" lon="27.042690021917224">
        <ele>186.63</ele>
        <time>2011-08-18T12:29:50Z</time>
      </trkpt>
      <trkpt lat="54.933121036738157" lon="27.043124958872795">
        <ele>187.11000000000001</ele>
        <time>2011-08-18T12:29:55Z</time>
      </trkpt>
      <trkpt lat="54.933139979839325" lon="27.043216992169619">
        <ele>186.63</ele>
        <time>2011-08-18T12:29:56Z</time>
      </trkpt>
      <trkpt lat="54.933159006759524" lon="27.043302990496159">
        <ele>187.11000000000001</ele>
        <time>2011-08-18T12:29:57Z</time>
      </trkpt>
      <trkpt lat="54.933181973174214" lon="27.043463001027703">
        <ele>187.11000000000001</ele>
        <time>2011-08-18T12:29:59Z</time>
      </trkpt>
      <trkpt lat="54.933181973174214" lon="27.043539024889469">
        <ele>186.63</ele>
        <time>2011-08-18T12:30:00Z</time>
      </trkpt>
      <trkpt lat="54.933181973174214" lon="27.043618988245726">
        <ele>186.63</ele>
        <time>2011-08-18T12:30:01Z</time>
      </trkpt>
      <trkpt lat="54.933185996487737" lon="27.043699035421014">
        <ele>186.63</ele>
        <time>2011-08-18T12:30:02Z</time>
      </trkpt>
      <trkpt lat="54.933193037286401" lon="27.043776987120509">
        <ele>186.63</ele>
        <time>2011-08-18T12:30:03Z</time>
      </trkpt>
      <trkpt lat="54.933196976780891" lon="27.043860973790288">
        <ele>186.63</ele>
        <time>2011-08-18T12:30:04Z</time>
      </trkpt>
      <trkpt lat="54.933201000094414" lon="27.043941020965576">
        <ele>187.11000000000001</ele>
        <time>2011-08-18T12:30:05Z</time>
      </trkpt>
      <trkpt lat="54.93327702395618" lon="27.045189002528787">
        <ele>186.63</ele>
        <time>2011-08-18T12:30:20Z</time>
      </trkpt>
      <trkpt lat="54.933392023667693" lon="27.046477971598506">
        <ele>187.11000000000001</ele>
        <time>2011-08-18T12:30:35Z</time>
      </trkpt>
      <trkpt lat="54.933395041152835" lon="27.046563969925046">
        <ele>187.11000000000001</ele>
        <time>2011-08-18T12:30:36Z</time>
      </trkpt>
      <trkpt lat="54.933434017002583" lon="27.047065962105989">
        <ele>186.63</ele>
        <time>2011-08-18T12:30:42Z</time>
      </trkpt>
      <trkpt lat="54.933575000613928" lon="27.047625035047531">
        <ele>186.63</ele>
        <time>2011-08-18T12:30:49Z</time>
      </trkpt>
      <trkpt lat="54.933688994497061" lon="27.048207996413112">
        <ele>186.63</ele>
        <time>2011-08-18T12:30:56Z</time>
      </trkpt>
      <trkpt lat="54.933926034718752" lon="27.048962032422423">
        <ele>187.11000000000001</ele>
        <time>2011-08-18T12:31:06Z</time>
      </trkpt>
      <trkpt lat="54.933949001133442" lon="27.04902296885848">
        <ele>186.63</ele>
        <time>2011-08-18T12:31:07Z</time>
      </trkpt>
      <trkpt lat="54.93403198197484" lon="27.049268977716565">
        <ele>186.63</ele>
        <time>2011-08-18T12:31:11Z</time>
      </trkpt>
      <trkpt lat="54.93405201472342" lon="27.049335027113557">
        <ele>186.63</ele>
        <time>2011-08-18T12:31:12Z</time>
      </trkpt>
      <trkpt lat="54.934077998623252" lon="27.049399986863136">
        <ele>186.63</ele>
        <time>2011-08-18T12:31:13Z</time>
      </trkpt>
      <trkpt lat="54.934128038585186" lon="27.049529990181327">
        <ele>187.11000000000001</ele>
        <time>2011-08-18T12:31:15Z</time>
      </trkpt>
      <trkpt lat="54.934151004999876" lon="27.049596961587667">
        <ele>187.11000000000001</ele>
        <time>2011-08-18T12:31:16Z</time>
      </trkpt>
      <trkpt lat="54.934242032468319" lon="27.049868032336235">
        <ele>187.59</ele>
        <time>2011-08-18T12:31:20Z</time>
      </trkpt>
      <trkpt lat="54.934570016339421" lon="27.050787024199963">
        <ele>187.59</ele>
        <time>2011-08-18T12:31:34Z</time>
      </trkpt>
      <trkpt lat="54.934597006067634" lon="27.050853995606303">
        <ele>188.08000000000001</ele>
        <time>2011-08-18T12:31:35Z</time>
      </trkpt>
      <trkpt lat="54.934649979695678" lon="27.05097796395421">
        <ele>187.59</ele>
        <time>2011-08-18T12:31:37Z</time>
      </trkpt>
      <trkpt lat="54.93469599634409" lon="27.051108973100781">
        <ele>187.59</ele>
        <time>2011-08-18T12:31:39Z</time>
      </trkpt>
      <trkpt lat="54.934710999950767" lon="27.051174016669393">
        <ele>187.59</ele>
        <time>2011-08-18T12:31:40Z</time>
      </trkpt>
      <trkpt lat="54.934722986072302" lon="27.051236964762211">
        <ele>188.56</ele>
        <time>2011-08-18T12:31:41Z</time>
      </trkpt>
      <trkpt lat="54.934944016858935" lon="27.051868038251996">
        <ele>188.08000000000001</ele>
        <time>2011-08-18T12:31:51Z</time>
      </trkpt>
      <trkpt lat="54.935351964086294" lon="27.053061034530401">
        <ele>188.08000000000001</ele>
        <time>2011-08-18T12:32:09Z</time>
      </trkpt>
      <trkpt lat="54.935379037633538" lon="27.053118031471968">
        <ele>188.08000000000001</ele>
        <time>2011-08-18T12:32:10Z</time>
      </trkpt>
      <trkpt lat="54.935402004048228" lon="27.053180979564786">
        <ele>188.08000000000001</ele>
        <time>2011-08-18T12:32:11Z</time>
      </trkpt>
      <trkpt lat="54.935424970462918" lon="27.053249040618539">
        <ele>188.08000000000001</ele>
        <time>2011-08-18T12:32:12Z</time>
      </trkpt>
      <trkpt lat="54.93544802069664" lon="27.053320035338402">
        <ele>188.08000000000001</ele>
        <time>2011-08-18T12:32:13Z</time>
      </trkpt>
      <trkpt lat="54.93547098711133" lon="27.053389018401504">
        <ele>188.08000000000001</ele>
        <time>2011-08-18T12:32:14Z</time>
      </trkpt>
      <trkpt lat="54.935493031516671" lon="27.053464958444238">
        <ele>188.08000000000001</ele>
        <time>2011-08-18T12:32:15Z</time>
      </trkpt>
      <trkpt lat="54.935515997931361" lon="27.053536958992481">
        <ele>188.08000000000001</ele>
        <time>2011-08-18T12:32:16Z</time>
      </trkpt>
      <trkpt lat="54.935542987659574" lon="27.053609965369105">
        <ele>187.59</ele>
        <time>2011-08-18T12:32:17Z</time>
      </trkpt>
      <trkpt lat="54.935566037893295" lon="27.053680038079619">
        <ele>187.59</ele>
        <time>2011-08-18T12:32:18Z</time>
      </trkpt>
      <trkpt lat="54.935626974329352" lon="27.053879024460912">
        <ele>187.59</ele>
        <time>2011-08-18T12:32:21Z</time>
      </trkpt>
      <trkpt lat="54.935650024563074" lon="27.053945995867252">
        <ele>188.56</ele>
        <time>2011-08-18T12:32:22Z</time>
      </trkpt>
      <trkpt lat="54.935668967664242" lon="27.054013973101974">
        <ele>188.08000000000001</ele>
        <time>2011-08-18T12:32:23Z</time>
      </trkpt>
      <trkpt lat="54.935696041211486" lon="27.054081028327346">
        <ele>188.08000000000001</ele>
        <time>2011-08-18T12:32:24Z</time>
      </trkpt>
      <trkpt lat="54.935719007626176" lon="27.054147999733686">
        <ele>188.08000000000001</ele>
        <time>2011-08-18T12:32:25Z</time>
      </trkpt>
      <trkpt lat="54.935738034546375" lon="27.054211031645536">
        <ele>188.56</ele>
        <time>2011-08-18T12:32:26Z</time>
      </trkpt>
      <trkpt lat="54.935759995132685" lon="27.054271968081594">
        <ele>188.08000000000001</ele>
        <time>2011-08-18T12:32:27Z</time>
      </trkpt>
      <trkpt lat="54.935988988727331" lon="27.054869011044502">
        <ele>188.56</ele>
        <time>2011-08-18T12:32:37Z</time>
      </trkpt>
      <trkpt lat="54.936020001769066" lon="27.054931959137321">
        <ele>188.56</ele>
        <time>2011-08-18T12:32:38Z</time>
      </trkpt>
      <trkpt lat="54.93605000898242" lon="27.05499499104917">
        <ele>188.56</ele>
        <time>2011-08-18T12:32:39Z</time>
      </trkpt>
      <trkpt lat="54.936092002317309" lon="27.055137986317277">
        <ele>188.08000000000001</ele>
        <time>2011-08-18T12:32:41Z</time>
      </trkpt>
      <trkpt lat="54.936114968731999" lon="27.055202024057508">
        <ele>188.56</ele>
        <time>2011-08-18T12:32:42Z</time>
      </trkpt>
      <trkpt lat="54.936217982321978" lon="27.05553101375699">
        <ele>188.56</ele>
        <time>2011-08-18T12:32:47Z</time>
      </trkpt>
      <trkpt lat="54.936226028949022" lon="27.05559697933495">
        <ele>189.03999999999999</ele>
        <time>2011-08-18T12:32:48Z</time>
      </trkpt>
      <trkpt lat="54.936305992305279" lon="27.056311033666134">
        <ele>189.52000000000001</ele>
        <time>2011-08-18T12:33:02Z</time>
      </trkpt>
      <trkpt lat="54.936305992305279" lon="27.056315978989005">
        <ele>189.52000000000001</ele>
        <time>2011-08-18T12:33:22Z</time>
      </trkpt>
      <trkpt lat="54.936305992305279" lon="27.056317990645766">
        <ele>189.03999999999999</ele>
        <time>2011-08-18T12:33:47Z</time>
      </trkpt>
      <trkpt lat="54.936305992305279" lon="27.056317990645766">
        <ele>189.52000000000001</ele>
        <time>2011-08-18T12:34:18Z</time>
      </trkpt>
      <trkpt lat="54.936305992305279" lon="27.056313967332244">
        <ele>189.52000000000001</ele>
        <time>2011-08-18T12:34:49Z</time>
      </trkpt>
      <trkpt lat="54.936305992305279" lon="27.056322013959289">
        <ele>189.52000000000001</ele>
        <time>2011-08-18T12:35:14Z</time>
      </trkpt>
      <trkpt lat="54.936305992305279" lon="27.056322013959289">
        <ele>189.52000000000001</ele>
        <time>2011-08-18T12:35:39Z</time>
      </trkpt>
      <trkpt lat="54.936310015618801" lon="27.056326037272811">
        <ele>189.52000000000001</ele>
        <time>2011-08-18T12:35:56Z</time>
      </trkpt>
      <trkpt lat="54.936314038932323" lon="27.056339029222727">
        <ele>189.52000000000001</ele>
        <time>2011-08-18T12:36:04Z</time>
      </trkpt>
      <trkpt lat="54.936316972598433" lon="27.056398037821054">
        <ele>189.52000000000001</ele>
        <time>2011-08-18T12:36:07Z</time>
      </trkpt>
      <trkpt lat="54.936316972598433" lon="27.056423015892506">
        <ele>189.52000000000001</ele>
        <time>2011-08-18T12:36:08Z</time>
      </trkpt>
      <trkpt lat="54.936316972598433" lon="27.056450005620718">
        <ele>189.52000000000001</ele>
        <time>2011-08-18T12:36:09Z</time>
      </trkpt>
      <trkpt lat="54.936320995911956" lon="27.056472972035408">
        <ele>190</ele>
        <time>2011-08-18T12:36:10Z</time>
      </trkpt>
      <trkpt lat="54.936320995911956" lon="27.05649602226913">
        <ele>189.52000000000001</ele>
        <time>2011-08-18T12:36:11Z</time>
      </trkpt>
      <trkpt lat="54.936356032267213" lon="27.05666902475059">
        <ele>190</ele>
        <time>2011-08-18T12:36:16Z</time>
      </trkpt>
      <trkpt lat="54.936352008953691" lon="27.056703977286816">
        <ele>190</ele>
        <time>2011-08-18T12:36:17Z</time>
      </trkpt>
      <trkpt lat="54.936356032267213" lon="27.056740019470453">
        <ele>189.52000000000001</ele>
        <time>2011-08-18T12:36:18Z</time>
      </trkpt>
      <trkpt lat="54.936358965933323" lon="27.056773966178298">
        <ele>190</ele>
        <time>2011-08-18T12:36:19Z</time>
      </trkpt>
      <trkpt lat="54.936367012560368" lon="27.056806990876794">
        <ele>189.52000000000001</ele>
        <time>2011-08-18T12:36:20Z</time>
      </trkpt>
      <trkpt lat="54.936367012560368" lon="27.056844960898161">
        <ele>190</ele>
        <time>2011-08-18T12:36:21Z</time>
      </trkpt>
      <trkpt lat="54.93637103587389" lon="27.056876979768276">
        <ele>190</ele>
        <time>2011-08-18T12:36:22Z</time>
      </trkpt>
      <trkpt lat="54.936382016167045" lon="27.056984016671777">
        <ele>190</ele>
        <time>2011-08-18T12:36:26Z</time>
      </trkpt>
      <trkpt lat="54.936382016167045" lon="27.057008994743228">
        <ele>189.52000000000001</ele>
        <time>2011-08-18T12:36:27Z</time>
      </trkpt>
      <trkpt lat="54.93637103587389" lon="27.057074038311839">
        <ele>189.52000000000001</ele>
        <time>2011-08-18T12:36:40Z</time>
      </trkpt>
      <trkpt lat="54.936358965933323" lon="27.057118965312839">
        <ele>189.03999999999999</ele>
        <time>2011-08-18T12:36:43Z</time>
      </trkpt>
      <trkpt lat="54.936356032267213" lon="27.057140003889799">
        <ele>189.52000000000001</ele>
        <time>2011-08-18T12:36:44Z</time>
      </trkpt>
      <trkpt lat="54.936347985640168" lon="27.057189960032701">
        <ele>189.52000000000001</ele>
        <time>2011-08-18T12:36:47Z</time>
      </trkpt>
      <trkpt lat="54.936347985640168" lon="27.057208986952901">
        <ele>189.52000000000001</ele>
        <time>2011-08-18T12:36:48Z</time>
      </trkpt>
      <trkpt lat="54.936356032267213" lon="27.057373020797968">
        <ele>189.03999999999999</ele>
        <time>2011-08-18T12:37:03Z</time>
      </trkpt>
      <trkpt lat="54.936362989246845" lon="27.05750796943903">
        <ele>189.03999999999999</ele>
        <time>2011-08-18T12:37:15Z</time>
      </trkpt>
      <trkpt lat="54.936362989246845" lon="27.057525990530849">
        <ele>189.52000000000001</ele>
        <time>2011-08-18T12:37:16Z</time>
      </trkpt>
      <trkpt lat="54.936362989246845" lon="27.057577036321163">
        <ele>189.03999999999999</ele>
        <time>2011-08-18T12:37:19Z</time>
      </trkpt>
      <trkpt lat="54.936362989246845" lon="27.057595979422331">
        <ele>189.52000000000001</ele>
        <time>2011-08-18T12:37:20Z</time>
      </trkpt>
      <trkpt lat="54.936362989246845" lon="27.05761500634253">
        <ele>189.52000000000001</ele>
        <time>2011-08-18T12:37:21Z</time>
      </trkpt>
      <trkpt lat="54.936374975368381" lon="27.057795971632004">
        <ele>189.52000000000001</ele>
        <time>2011-08-18T12:37:33Z</time>
      </trkpt>
      <trkpt lat="54.936377992853522" lon="27.057929998263717">
        <ele>190</ele>
        <time>2011-08-18T12:37:44Z</time>
      </trkpt>
      <trkpt lat="54.93639400228858" lon="27.057952964678407">
        <ele>190</ele>
        <time>2011-08-18T12:37:55Z</time>
      </trkpt>
      <trkpt lat="54.936382016167045" lon="27.058095959946513">
        <ele>189.52000000000001</ele>
        <time>2011-08-18T12:38:07Z</time>
      </trkpt>
      <trkpt lat="54.936389978975058" lon="27.058249013498425">
        <ele>189.03999999999999</ele>
        <time>2011-08-18T12:38:17Z</time>
      </trkpt>
      <trkpt lat="54.936389978975058" lon="27.058268040418625">
        <ele>189.52000000000001</ele>
        <time>2011-08-18T12:38:18Z</time>
      </trkpt>
      <trkpt lat="54.93641696870327" lon="27.058466020971537">
        <ele>189.52000000000001</ele>
        <time>2011-08-18T12:38:31Z</time>
      </trkpt>
      <trkpt lat="54.936424009501934" lon="27.058673975989223">
        <ele>190</ele>
        <time>2011-08-18T12:38:44Z</time>
      </trkpt>
      <trkpt lat="54.936435995623469" lon="27.058693002909422">
        <ele>190</ele>
        <time>2011-08-18T12:38:46Z</time>
      </trkpt>
      <trkpt lat="54.936461979523301" lon="27.058776989579201">
        <ele>189.52000000000001</ele>
        <time>2011-08-18T12:38:51Z</time>
      </trkpt>
      <trkpt lat="54.936461979523301" lon="27.058890983462334">
        <ele>189.52000000000001</ele>
        <time>2011-08-18T12:38:58Z</time>
      </trkpt>
      <trkpt lat="54.936443036422133" lon="27.058928031474352">
        <ele>190</ele>
        <time>2011-08-18T12:39:01Z</time>
      </trkpt>
      <trkpt lat="54.936428032815456" lon="27.059130035340786">
        <ele>189.52000000000001</ele>
        <time>2011-08-18T12:39:16Z</time>
      </trkpt>
      <trkpt lat="54.936455022543669" lon="27.05920597538352">
        <ele>189.52000000000001</ele>
        <time>2011-08-18T12:39:25Z</time>
      </trkpt>
      <trkpt lat="54.936443036422133" lon="27.059424994513392">
        <ele>189.03999999999999</ele>
        <time>2011-08-18T12:39:41Z</time>
      </trkpt>
      <trkpt lat="54.936458962038159" lon="27.059648958966136">
        <ele>189.52000000000001</ele>
        <time>2011-08-18T12:39:56Z</time>
      </trkpt>
      <trkpt lat="54.936450999230146" lon="27.059695981442928">
        <ele>189.52000000000001</ele>
        <time>2011-08-18T12:39:59Z</time>
      </trkpt>
      <trkpt lat="54.936443036422133" lon="27.059744009748101">
        <ele>189.52000000000001</ele>
        <time>2011-08-18T12:40:02Z</time>
      </trkpt>
      <trkpt lat="54.936470026150346" lon="27.059935033321381">
        <ele>190</ele>
        <time>2011-08-18T12:40:15Z</time>
      </trkpt>
      <trkpt lat="54.936461979523301" lon="27.060094960033894">
        <ele>189.52000000000001</ele>
        <time>2011-08-18T12:40:29Z</time>
      </trkpt>
      <trkpt lat="54.936458962038159" lon="27.060153968632221">
        <ele>190</ele>
        <time>2011-08-18T12:40:33Z</time>
      </trkpt>
      <trkpt lat="54.936458962038159" lon="27.060352033004165">
        <ele>190.47999999999999</ele>
        <time>2011-08-18T12:40:46Z</time>
      </trkpt>
      <trkpt lat="54.936455022543669" lon="27.060379022732377">
        <ele>195.28</ele>
        <time>2011-08-18T12:40:59Z</time>
      </trkpt>
      <trkpt lat="54.936455022543669" lon="27.060379022732377">
        <ele>191.44</ele>
        <time>2011-08-18T12:41:00Z</time>
      </trkpt>
      <trkpt lat="54.936455022543669" lon="27.060379022732377">
        <ele>194.80000000000001</ele>
        <time>2011-08-18T12:41:01Z</time>
      </trkpt>
      <trkpt lat="54.936455022543669" lon="27.060379022732377">
        <ele>187.59</ele>
        <time>2011-08-18T12:41:02Z</time>
      </trkpt>
      <trkpt lat="54.936455022543669" lon="27.060379022732377">
        <ele>193.36000000000001</ele>
        <time>2011-08-18T12:41:03Z</time>
      </trkpt>
      <trkpt lat="54.936455022543669" lon="27.060379022732377">
        <ele>186.63</ele>
        <time>2011-08-18T12:41:05Z</time>
      </trkpt>
      <trkpt lat="54.936455022543669" lon="27.060379022732377">
        <ele>187.11000000000001</ele>
        <time>2011-08-18T12:41:06Z</time>
      </trkpt>
      <trkpt lat="54.936455022543669" lon="27.060379022732377">
        <ele>190.96000000000001</ele>
        <time>2011-08-18T12:41:07Z</time>
      </trkpt>
      <trkpt lat="54.936455022543669" lon="27.060379022732377">
        <ele>185.66999999999999</ele>
        <time>2011-08-18T12:41:09Z</time>
      </trkpt>
      <trkpt lat="54.936455022543669" lon="27.060379022732377">
        <ele>190.47999999999999</ele>
        <time>2011-08-18T12:41:10Z</time>
      </trkpt>
      <trkpt lat="54.936466002836823" lon="27.06038698554039">
        <ele>190</ele>
        <time>2011-08-18T12:41:27Z</time>
      </trkpt>
      <trkpt lat="54.936466002836823" lon="27.060401989147067">
        <ele>189.52000000000001</ele>
        <time>2011-08-18T12:41:31Z</time>
      </trkpt>
      <trkpt lat="54.936492992565036" lon="27.060559988021851">
        <ele>190.47999999999999</ele>
        <time>2011-08-18T12:41:36Z</time>
      </trkpt>
      <trkpt lat="54.936558036133647" lon="27.061285022646189">
        <ele>191.44</ele>
        <time>2011-08-18T12:41:51Z</time>
      </trkpt>
      <trkpt lat="54.936600029468536" lon="27.061972003430128">
        <ele>192.88</ele>
        <time>2011-08-18T12:42:04Z</time>
      </trkpt>
      <trkpt lat="54.936633976176381" lon="27.062453962862492">
        <ele>193.84</ele>
        <time>2011-08-18T12:42:15Z</time>
      </trkpt>
      <trkpt lat="54.936714023351669" lon="27.062617996707559">
        <ele>193.84</ele>
        <time>2011-08-18T12:42:23Z</time>
      </trkpt>
      <trkpt lat="54.936729026958346" lon="27.062688991427422">
        <ele>193.36000000000001</ele>
        <time>2011-08-18T12:42:33Z</time>
      </trkpt>
      <trkpt lat="54.936726009473205" lon="27.06268304027617">
        <ele>193.84</ele>
        <time>2011-08-18T12:42:35Z</time>
      </trkpt>
      <trkpt lat="54.936679992824793" lon="27.062659990042448">
        <ele>193.84</ele>
        <time>2011-08-18T12:42:40Z</time>
      </trkpt>
      <trkpt lat="54.936668006703258" lon="27.062723021954298">
        <ele>193.36000000000001</ele>
        <time>2011-08-18T12:42:48Z</time>
      </trkpt>
      <trkpt lat="54.936702959239483" lon="27.062898958101869">
        <ele>193.36000000000001</ele>
        <time>2011-08-18T12:42:54Z</time>
      </trkpt>
      <trkpt lat="54.936748975887895" lon="27.063511004671454">
        <ele>193.84</ele>
        <time>2011-08-18T12:43:07Z</time>
      </trkpt>
      <trkpt lat="54.936835980042815" lon="27.064084997400641">
        <ele>194.31999999999999</ele>
        <time>2011-08-18T12:43:19Z</time>
      </trkpt>
      <trkpt lat="54.937000013887882" lon="27.064513983204961">
        <ele>193.84</ele>
        <time>2011-08-18T12:43:32Z</time>
      </trkpt>
      <trkpt lat="54.937244011089206" lon="27.064978005364537">
        <ele>193.36000000000001</ele>
        <time>2011-08-18T12:43:46Z</time>
      </trkpt>
      <trkpt lat="54.937526984140277" lon="27.06541595980525">
        <ele>191.91999999999999</ele>
        <time>2011-08-18T12:43:58Z</time>
      </trkpt>
      <trkpt lat="54.937583981081843" lon="27.065559038892388">
        <ele>191.44</ele>
        <time>2011-08-18T12:44:08Z</time>
      </trkpt>
      <trkpt lat="54.937583981081843" lon="27.065559038892388">
        <ele>191.44</ele>
        <time>2011-08-18T12:44:17Z</time>
      </trkpt>
      <trkpt lat="54.93764097802341" lon="27.065675966441631">
        <ele>191.44</ele>
        <time>2011-08-18T12:44:28Z</time>
      </trkpt>
      <trkpt lat="54.937755977734923" lon="27.065958017483354">
        <ele>191.44</ele>
        <time>2011-08-18T12:44:45Z</time>
      </trkpt>
      <trkpt lat="54.937775004655123" lon="27.066068993881345">
        <ele>191.91999999999999</ele>
        <time>2011-08-18T12:44:54Z</time>
      </trkpt>
      <trkpt lat="54.937809035181999" lon="27.066177036613226">
        <ele>191.91999999999999</ele>
        <time>2011-08-18T12:45:04Z</time>
      </trkpt>
      <trkpt lat="54.937896961346269" lon="27.066603004932404">
        <ele>192.88</ele>
        <time>2011-08-18T12:45:16Z</time>
      </trkpt>
      <trkpt lat="54.937999974936247" lon="27.067271964624524">
        <ele>192.88</ele>
        <time>2011-08-18T12:45:30Z</time>
      </trkpt>
      <trkpt lat="54.938075998798013" lon="27.067809998989105">
        <ele>191.44</ele>
        <time>2011-08-18T12:45:38Z</time>
      </trkpt>
      <trkpt lat="54.938132995739579" lon="27.068120967596769">
        <ele>190.96000000000001</ele>
        <time>2011-08-18T12:45:42Z</time>
      </trkpt>
      <trkpt lat="54.938159985467792" lon="27.068355996161699">
        <ele>190.96000000000001</ele>
        <time>2011-08-18T12:45:46Z</time>
      </trkpt>
      <trkpt lat="54.938155962154269" lon="27.068720022216439">
        <ele>190.47999999999999</ele>
        <time>2011-08-18T12:45:53Z</time>
      </trkpt>
      <trkpt lat="54.938144981861115" lon="27.068868968635798">
        <ele>190.47999999999999</ele>
        <time>2011-08-18T12:45:56Z</time>
      </trkpt>
      <trkpt lat="54.938183035701513" lon="27.06915101967752">
        <ele>190.96000000000001</ele>
        <time>2011-08-18T12:46:01Z</time>
      </trkpt>
      <trkpt lat="54.938289988785982" lon="27.06979600712657">
        <ele>192.88</ele>
        <time>2011-08-18T12:46:12Z</time>
      </trkpt>
      <trkpt lat="54.938313039019704" lon="27.07020403817296">
        <ele>193.84</ele>
        <time>2011-08-18T12:46:23Z</time>
      </trkpt>
      <trkpt lat="54.938293006271124" lon="27.070638975128531">
        <ele>194.31999999999999</ele>
        <time>2011-08-18T12:46:36Z</time>
      </trkpt>
      <trkpt lat="54.938289988785982" lon="27.070673005655408">
        <ele>194.80000000000001</ele>
        <time>2011-08-18T12:46:37Z</time>
      </trkpt>
      <trkpt lat="54.938297029584646" lon="27.070867968723178">
        <ele>194.31999999999999</ele>
        <time>2011-08-18T12:46:42Z</time>
      </trkpt>
      <trkpt lat="54.938273979350924" lon="27.071370966732502">
        <ele>195.28</ele>
        <time>2011-08-18T12:46:55Z</time>
      </trkpt>
      <trkpt lat="54.938270961865783" lon="27.07190103828907">
        <ele>195.28</ele>
        <time>2011-08-18T12:47:07Z</time>
      </trkpt>
      <trkpt lat="54.938122015446424" lon="27.072586007416248">
        <ele>194.80000000000001</ele>
        <time>2011-08-18T12:47:20Z</time>
      </trkpt>
      <trkpt lat="54.938038028776646" lon="27.073074001818895">
        <ele>195.77000000000001</ele>
        <time>2011-08-18T12:47:31Z</time>
      </trkpt>
      <trkpt lat="54.938019001856446" lon="27.073773974552751">
        <ele>197.69</ele>
        <time>2011-08-18T12:47:45Z</time>
      </trkpt>
      <trkpt lat="54.938029982149601" lon="27.074070023372769">
        <ele>197.21000000000001</ele>
        <time>2011-08-18T12:47:52Z</time>
      </trkpt>
      <trkpt lat="54.938056971877813" lon="27.074231961742043">
        <ele>197.21000000000001</ele>
        <time>2011-08-18T12:47:56Z</time>
      </trkpt>
      <trkpt lat="54.93807197548449" lon="27.074420973658562">
        <ele>197.69</ele>
        <time>2011-08-18T12:48:01Z</time>
      </trkpt>
      <trkpt lat="54.938086979091167" lon="27.074615014716983">
        <ele>190.47999999999999</ele>
        <time>2011-08-18T12:48:13Z</time>
      </trkpt>
      <trkpt lat="54.938086979091167" lon="27.074615014716983">
        <ele>196.25</ele>
        <time>2011-08-18T12:48:14Z</time>
      </trkpt>
      <trkpt lat="54.938086979091167" lon="27.074615014716983">
        <ele>192.40000000000001</ele>
        <time>2011-08-18T12:48:15Z</time>
      </trkpt>
      <trkpt lat="54.938086979091167" lon="27.074615014716983">
        <ele>198.16999999999999</ele>
        <time>2011-08-18T12:48:16Z</time>
      </trkpt>
      <trkpt lat="54.938086979091167" lon="27.074615014716983">
        <ele>189.03999999999999</ele>
        <time>2011-08-18T12:48:19Z</time>
      </trkpt>
      <trkpt lat="54.938086979091167" lon="27.074615014716983">
        <ele>203.46000000000001</ele>
        <time>2011-08-18T12:48:20Z</time>
      </trkpt>
      <trkpt lat="54.938086979091167" lon="27.074615014716983">
        <ele>200.09</ele>
        <time>2011-08-18T12:48:21Z</time>
      </trkpt>
      <trkpt lat="54.938086979091167" lon="27.074615014716983">
        <ele>194.80000000000001</ele>
        <time>2011-08-18T12:48:22Z</time>
      </trkpt>
      <trkpt lat="54.938086979091167" lon="27.074615014716983">
        <ele>197.69</ele>
        <time>2011-08-18T12:48:23Z</time>
      </trkpt>
      <trkpt lat="54.93809100240469" lon="27.074620965868235">
        <ele>197.69</ele>
        <time>2011-08-18T12:48:47Z</time>
      </trkpt>
      <trkpt lat="54.938083961606026" lon="27.074677040800452">
        <ele>197.69</ele>
        <time>2011-08-18T12:49:04Z</time>
      </trkpt>
      <trkpt lat="54.938164008781314" lon="27.075161011889577">
        <ele>197.21000000000001</ele>
        <time>2011-08-18T12:49:15Z</time>
      </trkpt>
      <trkpt lat="54.938258975744247" lon="27.075678007677197">
        <ele>196.25</ele>
        <time>2011-08-18T12:49:24Z</time>
      </trkpt>
      <trkpt lat="54.938309015706182" lon="27.075961986556649">
        <ele>195.28</ele>
        <time>2011-08-18T12:49:29Z</time>
      </trkpt>
      <trkpt lat="54.938396019861102" lon="27.076454004272819">
        <ele>194.80000000000001</ele>
        <time>2011-08-18T12:49:36Z</time>
      </trkpt>
      <trkpt lat="54.938465002924204" lon="27.076670005917549">
        <ele>194.31999999999999</ele>
        <time>2011-08-18T12:49:39Z</time>
      </trkpt>
      <trkpt lat="54.938514959067106" lon="27.077022967860103">
        <ele>193.36000000000001</ele>
        <time>2011-08-18T12:49:44Z</time>
      </trkpt>
      <trkpt lat="54.938465002924204" lon="27.077496964484453">
        <ele>193.84</ele>
        <time>2011-08-18T12:49:53Z</time>
      </trkpt>
      <trkpt lat="54.938480006530881" lon="27.077780021354556">
        <ele>193.84</ele>
        <time>2011-08-18T12:50:01Z</time>
      </trkpt>
      <trkpt lat="54.938605986535549" lon="27.077927039936185">
        <ele>194.31999999999999</ele>
        <time>2011-08-18T12:50:07Z</time>
      </trkpt>
      <trkpt lat="54.93884302675724" lon="27.07856398075819">
        <ele>195.28</ele>
        <time>2011-08-18T12:50:21Z</time>
      </trkpt>
      <trkpt lat="54.939124993979931" lon="27.079317010939121">
        <ele>193.36000000000001</ele>
        <time>2011-08-18T12:50:34Z</time>
      </trkpt>
      <trkpt lat="54.939219960942864" lon="27.079535024240613">
        <ele>193.36000000000001</ele>
        <time>2011-08-18T12:50:38Z</time>
      </trkpt>
      <trkpt lat="54.939582981169224" lon="27.08064503967762">
        <ele>194.80000000000001</ele>
        <time>2011-08-18T12:50:58Z</time>
      </trkpt>
      <trkpt lat="54.939872995018959" lon="27.081436039879918">
        <ele>194.80000000000001</ele>
        <time>2011-08-18T12:51:14Z</time>
      </trkpt>
      <trkpt lat="54.940272979438305" lon="27.082510013133287">
        <ele>192.40000000000001</ele>
        <time>2011-08-18T12:51:30Z</time>
      </trkpt>
      <trkpt lat="54.940360989421606" lon="27.082727020606399">
        <ele>192.40000000000001</ele>
        <time>2011-08-18T12:51:33Z</time>
      </trkpt>
      <trkpt lat="54.940703976899385" lon="27.083598989993334">
        <ele>191.91999999999999</ele>
        <time>2011-08-18T12:51:45Z</time>
      </trkpt>
      <trkpt lat="54.941132040694356" lon="27.08464102819562">
        <ele>191.44</ele>
        <time>2011-08-18T12:52:00Z</time>
      </trkpt>
      <trkpt lat="54.941391041502357" lon="27.085289033129811">
        <ele>191.44</ele>
        <time>2011-08-18T12:52:10Z</time>
      </trkpt>
      <trkpt lat="54.941471004858613" lon="27.08550101146102">
        <ele>191.91999999999999</ele>
        <time>2011-08-18T12:52:13Z</time>
      </trkpt>
      <trkpt lat="54.941601008176804" lon="27.085853973403573">
        <ele>190.96000000000001</ele>
        <time>2011-08-18T12:52:18Z</time>
      </trkpt>
      <trkpt lat="54.941879035905004" lon="27.086585965007544">
        <ele>190.96000000000001</ele>
        <time>2011-08-18T12:52:29Z</time>
      </trkpt>
      <trkpt lat="54.942145999521017" lon="27.087399009615183">
        <ele>192.40000000000001</ele>
        <time>2011-08-18T12:52:43Z</time>
      </trkpt>
      <trkpt lat="54.942229986190796" lon="27.087636971846223">
        <ele>191.91999999999999</ele>
        <time>2011-08-18T12:52:47Z</time>
      </trkpt>
      <trkpt lat="54.942364012822509" lon="27.088007032871246">
        <ele>191.91999999999999</ele>
        <time>2011-08-18T12:52:53Z</time>
      </trkpt>
      <trkpt lat="54.942618990316987" lon="27.088698958978057">
        <ele>190.96000000000001</ele>
        <time>2011-08-18T12:53:04Z</time>
      </trkpt>
      <trkpt lat="54.942638017237186" lon="27.088766014203429">
        <ele>191.44</ele>
        <time>2011-08-18T12:53:05Z</time>
      </trkpt>
      <trkpt lat="54.942997014150023" lon="27.089854991063476">
        <ele>189.03999999999999</ele>
        <time>2011-08-18T12:53:20Z</time>
      </trkpt>
      <trkpt lat="54.943024003878236" lon="27.089923974126577">
        <ele>188.56</ele>
        <time>2011-08-18T12:53:21Z</time>
      </trkpt>
      <trkpt lat="54.943046970292926" lon="27.089995974674821">
        <ele>188.56</ele>
        <time>2011-08-18T12:53:22Z</time>
      </trkpt>
      <trkpt lat="54.943069014698267" lon="27.090066969394684">
        <ele>188.56</ele>
        <time>2011-08-18T12:53:23Z</time>
      </trkpt>
      <trkpt lat="54.943091981112957" lon="27.090138969942927">
        <ele>188.56</ele>
        <time>2011-08-18T12:53:24Z</time>
      </trkpt>
      <trkpt lat="54.943122994154692" lon="27.090208036825061">
        <ele>188.56</ele>
        <time>2011-08-18T12:53:25Z</time>
      </trkpt>
      <trkpt lat="54.943153001368046" lon="27.090279031544924">
        <ele>188.56</ele>
        <time>2011-08-18T12:53:26Z</time>
      </trkpt>
      <trkpt lat="54.943179991096258" lon="27.090349020436406">
        <ele>188.56</ele>
        <time>2011-08-18T12:53:27Z</time>
      </trkpt>
      <trkpt lat="54.943287027999759" lon="27.090635010972619">
        <ele>188.56</ele>
        <time>2011-08-18T12:53:31Z</time>
      </trkpt>
      <trkpt lat="54.943309994414449" lon="27.090710029006004">
        <ele>188.56</ele>
        <time>2011-08-18T12:53:32Z</time>
      </trkpt>
      <trkpt lat="54.943459024652839" lon="27.091117976233363">
        <ele>188.56</ele>
        <time>2011-08-18T12:53:38Z</time>
      </trkpt>
      <trkpt lat="54.943531025201082" lon="27.091385023668408">
        <ele>188.56</ele>
        <time>2011-08-18T12:53:42Z</time>
      </trkpt>
      <trkpt lat="54.943553991615772" lon="27.091447971761227">
        <ele>188.08000000000001</ele>
        <time>2011-08-18T12:53:43Z</time>
      </trkpt>
      <trkpt lat="54.943577041849494" lon="27.091506980359554">
        <ele>188.56</ele>
        <time>2011-08-18T12:53:44Z</time>
      </trkpt>
      <trkpt lat="54.943709978833795" lon="27.09186002612114">
        <ele>188.56</ele>
        <time>2011-08-18T12:53:50Z</time>
      </trkpt>
      <trkpt lat="54.944056989625096" lon="27.092636022716761">
        <ele>189.03999999999999</ele>
        <time>2011-08-18T12:54:05Z</time>
      </trkpt>
      <trkpt lat="54.9444729834795" lon="27.093596002086997">
        <ele>187.11000000000001</ele>
        <time>2011-08-18T12:54:19Z</time>
      </trkpt>
      <trkpt lat="54.945033984258771" lon="27.094638962298632">
        <ele>186.63</ele>
        <time>2011-08-18T12:54:37Z</time>
      </trkpt>
      <trkpt lat="54.945316035300493" lon="27.095147995278239">
        <ele>186.15000000000001</ele>
        <time>2011-08-18T12:54:46Z</time>
      </trkpt>
      <trkpt lat="54.945346964523196" lon="27.095202980563045">
        <ele>186.63</ele>
        <time>2011-08-18T12:54:47Z</time>
      </trkpt>
      <trkpt lat="54.945587022230029" lon="27.095684017986059">
        <ele>186.15000000000001</ele>
        <time>2011-08-18T12:54:55Z</time>
      </trkpt>
      <trkpt lat="54.945777961984277" lon="27.096233032643795">
        <ele>185.66999999999999</ele>
        <time>2011-08-18T12:55:03Z</time>
      </trkpt>
      <trkpt lat="54.945796988904476" lon="27.096297992393374">
        <ele>185.66999999999999</ele>
        <time>2011-08-18T12:55:04Z</time>
      </trkpt>
      <trkpt lat="54.945816015824676" lon="27.096368987113237">
        <ele>186.15000000000001</ele>
        <time>2011-08-18T12:55:05Z</time>
      </trkpt>
      <trkpt lat="54.945865971967578" lon="27.096581971272826">
        <ele>185.66999999999999</ele>
        <time>2011-08-18T12:55:08Z</time>
      </trkpt>
      <trkpt lat="54.945880975574255" lon="27.09665103815496">
        <ele>185.66999999999999</ele>
        <time>2011-08-18T12:55:09Z</time>
      </trkpt>
      <trkpt lat="54.945895979180932" lon="27.096720021218061">
        <ele>185.66999999999999</ele>
        <time>2011-08-18T12:55:10Z</time>
      </trkpt>
      <trkpt lat="54.946143999695778" lon="27.097747977823019">
        <ele>186.15000000000001</ele>
        <time>2011-08-18T12:55:27Z</time>
      </trkpt>
      <trkpt lat="54.946247013285756" lon="27.098314007744193">
        <ele>186.15000000000001</ele>
        <time>2011-08-18T12:55:40Z</time>
      </trkpt>
      <trkpt lat="54.946247013285756" lon="27.098314007744193">
        <ele>186.63</ele>
        <time>2011-08-18T12:55:55Z</time>
      </trkpt>
      <trkpt lat="54.946247013285756" lon="27.098314007744193">
        <ele>186.15000000000001</ele>
        <time>2011-08-18T12:56:19Z</time>
      </trkpt>
      <trkpt lat="54.946242989972234" lon="27.098311996087432">
        <ele>186.15000000000001</ele>
        <time>2011-08-18T12:56:47Z</time>
      </trkpt>
      <trkpt lat="54.946242989972234" lon="27.098311996087432">
        <ele>181.34999999999999</ele>
        <time>2011-08-18T12:56:57Z</time>
      </trkpt>
      <trkpt lat="54.946242989972234" lon="27.098311996087432">
        <ele>185.66999999999999</ele>
        <time>2011-08-18T12:56:58Z</time>
      </trkpt>
      <trkpt lat="54.946247013285756" lon="27.09830897860229">
        <ele>190.47999999999999</ele>
        <time>2011-08-18T12:57:00Z</time>
      </trkpt>
      <trkpt lat="54.946247013285756" lon="27.09830897860229">
        <ele>186.63</ele>
        <time>2011-08-18T12:57:01Z</time>
      </trkpt>
      <trkpt lat="54.946242989972234" lon="27.0983050391078">
        <ele>185.66999999999999</ele>
        <time>2011-08-18T12:57:24Z</time>
      </trkpt>
      <trkpt lat="54.946242989972234" lon="27.0983050391078">
        <ele>186.15000000000001</ele>
        <time>2011-08-18T12:57:44Z</time>
      </trkpt>
      <trkpt lat="54.946242989972234" lon="27.098299004137516">
        <ele>185.66999999999999</ele>
        <time>2011-08-18T12:58:07Z</time>
      </trkpt>
      <trkpt lat="54.946242989972234" lon="27.098292969167233">
        <ele>185.66999999999999</ele>
        <time>2011-08-18T12:58:46Z</time>
      </trkpt>
      <trkpt lat="54.946242989972234" lon="27.098301015794277">
        <ele>185.19</ele>
        <time>2011-08-18T12:59:29Z</time>
      </trkpt>
      <trkpt lat="54.946238966658711" lon="27.098299004137516">
        <ele>185.66999999999999</ele>
        <time>2011-08-18T13:00:10Z</time>
      </trkpt>
      <trkpt lat="54.946238966658711" lon="27.098299004137516">
        <ele>185.66999999999999</ele>
        <time>2011-08-18T13:00:52Z</time>
      </trkpt>
      <trkpt lat="54.946242989972234" lon="27.098303027451038">
        <ele>185.66999999999999</ele>
        <time>2011-08-18T13:01:32Z</time>
      </trkpt>
      <trkpt lat="54.946238966658711" lon="27.098306966945529">
        <ele>186.15000000000001</ele>
        <time>2011-08-18T13:02:11Z</time>
      </trkpt>
      <trkpt lat="54.946238966658711" lon="27.098309984430671">
        <ele>185.66999999999999</ele>
        <time>2011-08-18T13:02:51Z</time>
      </trkpt>
      <trkpt lat="54.946238966658711" lon="27.098309984430671">
        <ele>185.66999999999999</ele>
        <time>2011-08-18T13:03:27Z</time>
      </trkpt>
      <trkpt lat="54.946242989972234" lon="27.098311996087432">
        <ele>185.66999999999999</ele>
        <time>2011-08-18T13:04:09Z</time>
      </trkpt>
      <trkpt lat="54.946238966658711" lon="27.098311996087432">
        <ele>185.66999999999999</ele>
        <time>2011-08-18T13:04:47Z</time>
      </trkpt>
      <trkpt lat="54.946238966658711" lon="27.098311996087432">
        <ele>186.15000000000001</ele>
        <time>2011-08-18T13:05:12Z</time>
      </trkpt>
      <trkpt lat="54.946238966658711" lon="27.098311996087432">
        <ele>179.41999999999999</ele>
        <time>2011-08-18T13:05:15Z</time>
      </trkpt>
      <trkpt lat="54.946238966658711" lon="27.098311996087432">
        <ele>190.47999999999999</ele>
        <time>2011-08-18T13:05:16Z</time>
      </trkpt>
      <trkpt lat="54.946238966658711" lon="27.098311996087432">
        <ele>181.83000000000001</ele>
        <time>2011-08-18T13:05:17Z</time>
      </trkpt>
      <trkpt lat="54.946238966658711" lon="27.098311996087432">
        <ele>188.08000000000001</ele>
        <time>2011-08-18T13:05:19Z</time>
      </trkpt>
      <trkpt lat="54.946238966658711" lon="27.098311996087432">
        <ele>191.44</ele>
        <time>2011-08-18T13:05:20Z</time>
      </trkpt>
      <trkpt lat="54.946238966658711" lon="27.098311996087432">
        <ele>186.63</ele>
        <time>2011-08-18T13:05:21Z</time>
      </trkpt>
      <trkpt lat="54.946238966658711" lon="27.098311996087432">
        <ele>190</ele>
        <time>2011-08-18T13:05:22Z</time>
      </trkpt>
      <trkpt lat="54.946242989972234" lon="27.098311996087432">
        <ele>181.83000000000001</ele>
        <time>2011-08-18T13:05:25Z</time>
      </trkpt>
      <trkpt lat="54.946242989972234" lon="27.098311996087432">
        <ele>186.15000000000001</ele>
        <time>2011-08-18T13:05:26Z</time>
      </trkpt>
      <trkpt lat="54.946242989972234" lon="27.098311996087432">
        <ele>188.08000000000001</ele>
        <time>2011-08-18T13:05:28Z</time>
      </trkpt>
      <trkpt lat="54.946242989972234" lon="27.098311996087432">
        <ele>186.63</ele>
        <time>2011-08-18T13:05:31Z</time>
      </trkpt>
      <trkpt lat="54.946242989972234" lon="27.098311996087432">
        <ele>186.63</ele>
        <time>2011-08-18T13:05:59Z</time>
      </trkpt>
      <trkpt lat="54.946242989972234" lon="27.098314007744193">
        <ele>187.11000000000001</ele>
        <time>2011-08-18T13:06:28Z</time>
      </trkpt>
      <trkpt lat="54.946242989972234" lon="27.098314007744193">
        <ele>182.31</ele>
        <time>2011-08-18T13:06:30Z</time>
      </trkpt>
      <trkpt lat="54.946242989972234" lon="27.098314007744193">
        <ele>185.66999999999999</ele>
        <time>2011-08-18T13:06:31Z</time>
      </trkpt>
      <trkpt lat="54.946242989972234" lon="27.098323982208967">
        <ele>186.15000000000001</ele>
        <time>2011-08-18T13:06:47Z</time>
      </trkpt>
      <trkpt lat="54.946242989972234" lon="27.098323982208967">
        <ele>186.63</ele>
        <time>2011-08-18T13:07:16Z</time>
      </trkpt>
      <trkpt lat="54.946262016892433" lon="27.09835097193718">
        <ele>186.63</ele>
        <time>2011-08-18T13:07:32Z</time>
      </trkpt>
      <trkpt lat="54.946269979700446" lon="27.098365975543857">
        <ele>186.63</ele>
        <time>2011-08-18T13:07:33Z</time>
      </trkpt>
      <trkpt lat="54.946274003013968" lon="27.098385002464056">
        <ele>186.63</ele>
        <time>2011-08-18T13:07:34Z</time>
      </trkpt>
      <trkpt lat="54.946381039917469" lon="27.098765959963202">
        <ele>186.15000000000001</ele>
        <time>2011-08-18T13:07:52Z</time>
      </trkpt>
      <trkpt lat="54.946465026587248" lon="27.099067959934473">
        <ele>186.15000000000001</ele>
        <time>2011-08-18T13:08:03Z</time>
      </trkpt>
      <trkpt lat="54.946476006880403" lon="27.099092015996575">
        <ele>185.66999999999999</ele>
        <time>2011-08-18T13:08:04Z</time>
      </trkpt>
      <trkpt lat="54.946483969688416" lon="27.099121017381549">
        <ele>186.15000000000001</ele>
        <time>2011-08-18T13:08:05Z</time>
      </trkpt>
      <trkpt lat="54.94649101048708" lon="27.099154964089394">
        <ele>185.66999999999999</ele>
        <time>2011-08-18T13:08:06Z</time>
      </trkpt>
      <trkpt lat="54.946498973295093" lon="27.099187988787889">
        <ele>185.66999999999999</ele>
        <time>2011-08-18T13:08:07Z</time>
      </trkpt>
      <trkpt lat="54.946510037407279" lon="27.099220007658005">
        <ele>185.19</ele>
        <time>2011-08-18T13:08:08Z</time>
      </trkpt>
      <trkpt lat="54.94651397690177" lon="27.09925496019423">
        <ele>185.19</ele>
        <time>2011-08-18T13:08:09Z</time>
      </trkpt>
      <trkpt lat="54.946648003533483" lon="27.099695010110736">
        <ele>184.71000000000001</ele>
        <time>2011-08-18T13:08:20Z</time>
      </trkpt>
      <trkpt lat="54.946865011006594" lon="27.100396994501352">
        <ele>183.75</ele>
        <time>2011-08-18T13:08:34Z</time>
      </trkpt>
      <trkpt lat="54.947151001542807" lon="27.101191012188792">
        <ele>183.27000000000001</ele>
        <time>2011-08-18T13:08:48Z</time>
      </trkpt>
      <trkpt lat="54.947318974882364" lon="27.101566018536687">
        <ele>183.27000000000001</ele>
        <time>2011-08-18T13:08:55Z</time>
      </trkpt>
      <trkpt lat="54.947556015104055" lon="27.102202959358692">
        <ele>184.22999999999999</ele>
        <time>2011-08-18T13:09:07Z</time>
      </trkpt>
      <trkpt lat="54.947918029502034" lon="27.103220019489527">
        <ele>183.75</ele>
        <time>2011-08-18T13:09:24Z</time>
      </trkpt>
      <trkpt lat="54.948314996436238" lon="27.10425803437829">
        <ele>183.27000000000001</ele>
        <time>2011-08-18T13:09:41Z</time>
      </trkpt>
      <trkpt lat="54.948551030829549" lon="27.104877037927508">
        <ele>182.31</ele>
        <time>2011-08-18T13:09:54Z</time>
      </trkpt>
      <trkpt lat="54.94881103746593" lon="27.105577010661364">
        <ele>181.83000000000001</ele>
        <time>2011-08-18T13:10:07Z</time>
      </trkpt>
      <trkpt lat="54.949024021625519" lon="27.106261979788542">
        <ele>181.83000000000001</ele>
        <time>2011-08-18T13:10:19Z</time>
      </trkpt>
      <trkpt lat="54.949280004948378" lon="27.107011992484331">
        <ele>181.83000000000001</ele>
        <time>2011-08-18T13:10:33Z</time>
      </trkpt>
      <trkpt lat="54.949455019086599" lon="27.10771900601685">
        <ele>182.31</ele>
        <time>2011-08-18T13:10:46Z</time>
      </trkpt>
      <trkpt lat="54.94960798881948" lon="27.108398023992777">
        <ele>184.22999999999999</ele>
        <time>2011-08-18T13:11:00Z</time>
      </trkpt>
      <trkpt lat="54.949733968824148" lon="27.10937300696969">
        <ele>183.75</ele>
        <time>2011-08-18T13:11:16Z</time>
      </trkpt>
      <trkpt lat="54.949726006016135" lon="27.109441990032792">
        <ele>183.75</ele>
        <time>2011-08-18T13:11:17Z</time>
      </trkpt>
      <trkpt lat="54.949726006016135" lon="27.109509967267513">
        <ele>183.75</ele>
        <time>2011-08-18T13:11:18Z</time>
      </trkpt>
      <trkpt lat="54.949726006016135" lon="27.109579034149647">
        <ele>184.22999999999999</ele>
        <time>2011-08-18T13:11:19Z</time>
      </trkpt>
      <trkpt lat="54.949721982702613" lon="27.10965002886951">
        <ele>183.75</ele>
        <time>2011-08-18T13:11:20Z</time>
      </trkpt>
      <trkpt lat="54.949721982702613" lon="27.10971599444747">
        <ele>184.22999999999999</ele>
        <time>2011-08-18T13:11:21Z</time>
      </trkpt>
      <trkpt lat="54.949721982702613" lon="27.10978296585381">
        <ele>184.22999999999999</ele>
        <time>2011-08-18T13:11:22Z</time>
      </trkpt>
      <trkpt lat="54.949748972430825" lon="27.110616965219378">
        <ele>185.19</ele>
        <time>2011-08-18T13:11:35Z</time>
      </trkpt>
      <trkpt lat="54.949752995744348" lon="27.111647017300129">
        <ele>185.66999999999999</ele>
        <time>2011-08-18T13:11:51Z</time>
      </trkpt>
      <trkpt lat="54.949760036543012" lon="27.112390995025635">
        <ele>183.75</ele>
        <time>2011-08-18T13:12:01Z</time>
      </trkpt>
      <trkpt lat="54.949760036543012" lon="27.112467018887401">
        <ele>184.22999999999999</ele>
        <time>2011-08-18T13:12:02Z</time>
      </trkpt>
      <trkpt lat="54.949760036543012" lon="27.112544970586896">
        <ele>183.27000000000001</ele>
        <time>2011-08-18T13:12:03Z</time>
      </trkpt>
      <trkpt lat="54.949760036543012" lon="27.112627029418945">
        <ele>183.75</ele>
        <time>2011-08-18T13:12:04Z</time>
      </trkpt>
      <trkpt lat="54.949760036543012" lon="27.112709004431963">
        <ele>183.75</ele>
        <time>2011-08-18T13:12:05Z</time>
      </trkpt>
      <trkpt lat="54.949767999351025" lon="27.113120974972844">
        <ele>183.27000000000001</ele>
        <time>2011-08-18T13:12:10Z</time>
      </trkpt>
      <trkpt lat="54.94977998547256" lon="27.113278973847628">
        <ele>183.27000000000001</ele>
        <time>2011-08-18T13:12:12Z</time>
      </trkpt>
      <trkpt lat="54.949775962159038" lon="27.113960003480315">
        <ele>183.27000000000001</ele>
        <time>2011-08-18T13:12:24Z</time>
      </trkpt>
      <trkpt lat="54.949772022664547" lon="27.114107022061944">
        <ele>183.27000000000001</ele>
        <time>2011-08-18T13:12:28Z</time>
      </trkpt>
      <trkpt lat="54.949775962159038" lon="27.114690989255905">
        <ele>183.27000000000001</ele>
        <time>2011-08-18T13:12:42Z</time>
      </trkpt>
      <trkpt lat="54.949787026271224" lon="27.115068007260561">
        <ele>182.78999999999999</ele>
        <time>2011-08-18T13:12:50Z</time>
      </trkpt>
      <trkpt lat="54.949783002957702" lon="27.115231035277247">
        <ele>182.78999999999999</ele>
        <time>2011-08-18T13:13:02Z</time>
      </trkpt>
      <trkpt lat="54.949809992685914" lon="27.115697991102934">
        <ele>182.78999999999999</ele>
        <time>2011-08-18T13:13:12Z</time>
      </trkpt>
      <trkpt lat="54.950065976008773" lon="27.116631986573339">
        <ele>184.71000000000001</ele>
        <time>2011-08-18T13:13:29Z</time>
      </trkpt>
      <trkpt lat="54.950272003188729" lon="27.117433967068791">
        <ele>184.71000000000001</ele>
        <time>2011-08-18T13:13:42Z</time>
      </trkpt>
      <trkpt lat="54.950302010402083" lon="27.117581991478801">
        <ele>184.71000000000001</ele>
        <time>2011-08-18T13:13:44Z</time>
      </trkpt>
      <trkpt lat="54.950370993465185" lon="27.118032015860081">
        <ele>183.75</ele>
        <time>2011-08-18T13:13:50Z</time>
      </trkpt>
      <trkpt lat="54.950442994013429" lon="27.118585975840688">
        <ele>183.75</ele>
        <time>2011-08-18T13:13:58Z</time>
      </trkpt>
      <trkpt lat="54.950451040640473" lon="27.118795020505786">
        <ele>184.22999999999999</ele>
        <time>2011-08-18T13:14:01Z</time>
      </trkpt>
      <trkpt lat="54.950588000938296" lon="27.119618961587548">
        <ele>185.19</ele>
        <time>2011-08-18T13:14:14Z</time>
      </trkpt>
      <trkpt lat="54.950733007863164" lon="27.120627975091338">
        <ele>186.15000000000001</ele>
        <time>2011-08-18T13:14:31Z</time>
      </trkpt>
      <trkpt lat="54.951012041419744" lon="27.121716029942036">
        <ele>185.19</ele>
        <time>2011-08-18T13:14:48Z</time>
      </trkpt>
      <trkpt lat="54.951388975605369" lon="27.122874995693564">
        <ele>182.78999999999999</ele>
        <time>2011-08-18T13:15:01Z</time>
      </trkpt>
      <trkpt lat="54.951668009161949" lon="27.123730033636093">
        <ele>183.27000000000001</ele>
        <time>2011-08-18T13:15:14Z</time>
      </trkpt>
      <trkpt lat="54.951953999698162" lon="27.124711973592639">
        <ele>183.75</ele>
        <time>2011-08-18T13:15:30Z</time>
      </trkpt>
      <trkpt lat="54.952205959707499" lon="27.125529963523149">
        <ele>184.71000000000001</ele>
        <time>2011-08-18T13:15:44Z</time>
      </trkpt>
      <trkpt lat="54.95233504101634" lon="27.125976970419288">
        <ele>183.27000000000001</ele>
        <time>2011-08-18T13:15:50Z</time>
      </trkpt>
      <trkpt lat="54.952498991042376" lon="27.126508969813585">
        <ele>182.31</ele>
        <time>2011-08-18T13:15:57Z</time>
      </trkpt>
      <trkpt lat="54.952567974105477" lon="27.126725977286696">
        <ele>182.31</ele>
        <time>2011-08-18T13:16:00Z</time>
      </trkpt>
      <trkpt lat="54.952830998227" lon="27.127623008564115">
        <ele>181.83000000000001</ele>
        <time>2011-08-18T13:16:12Z</time>
      </trkpt>
      <trkpt lat="54.953220002353191" lon="27.128662029281259">
        <ele>181.34999999999999</ele>
        <time>2011-08-18T13:16:27Z</time>
      </trkpt>
      <trkpt lat="54.953541029244661" lon="27.129469038918614">
        <ele>180.87</ele>
        <time>2011-08-18T13:16:39Z</time>
      </trkpt>
      <trkpt lat="54.953743033111095" lon="27.130098016932607">
        <ele>179.90000000000001</ele>
        <time>2011-08-18T13:16:48Z</time>
      </trkpt>
      <trkpt lat="54.953888040035963" lon="27.130525996908545">
        <ele>178.94</ele>
        <time>2011-08-18T13:16:54Z</time>
      </trkpt>
      <trkpt lat="54.953941013664007" lon="27.130703022703528">
        <ele>178.46000000000001</ele>
        <time>2011-08-18T13:17:02Z</time>
      </trkpt>
      <trkpt lat="54.953941013664007" lon="27.130703022703528">
        <ele>177.5</ele>
        <time>2011-08-18T13:17:24Z</time>
      </trkpt>
      <trkpt lat="54.954025000333786" lon="27.130907038226724">
        <ele>178.46000000000001</ele>
        <time>2011-08-18T13:17:40Z</time>
      </trkpt>
      <trkpt lat="54.954192973673344" lon="27.131405007094145">
        <ele>177.5</ele>
        <time>2011-08-18T13:17:48Z</time>
      </trkpt>
      <trkpt lat="54.954288024455309" lon="27.131656967103481">
        <ele>177.5</ele>
        <time>2011-08-18T13:17:52Z</time>
      </trkpt>
      <trkpt lat="54.954394977539778" lon="27.131986962631345">
        <ele>176.53999999999999</ele>
        <time>2011-08-18T13:17:57Z</time>
      </trkpt>
      <trkpt lat="54.954478964209557" lon="27.13225401006639">
        <ele>176.06</ele>
        <time>2011-08-18T13:18:01Z</time>
      </trkpt>
      <trkpt lat="54.954544007778168" lon="27.13244603946805">
        <ele>177.02000000000001</ele>
        <time>2011-08-18T13:18:04Z</time>
      </trkpt>
      <trkpt lat="54.954696977511048" lon="27.13285599835217">
        <ele>176.53999999999999</ele>
        <time>2011-08-18T13:18:11Z</time>
      </trkpt>
      <trkpt lat="54.955001994967461" lon="27.133898036554456">
        <ele>177.5</ele>
        <time>2011-08-18T13:18:28Z</time>
      </trkpt>
      <trkpt lat="54.955028984695673" lon="27.133958972990513">
        <ele>177.97999999999999</ele>
        <time>2011-08-18T13:18:29Z</time>
      </trkpt>
      <trkpt lat="54.955524019896984" lon="27.134536989033222">
        <ele>176.53999999999999</ele>
        <time>2011-08-18T13:18:43Z</time>
      </trkpt>
      <trkpt lat="54.955982007086277" lon="27.134977038949728">
        <ele>174.62</ele>
        <time>2011-08-18T13:18:54Z</time>
      </trkpt>
      <trkpt lat="54.956004973500967" lon="27.135457992553711">
        <ele>173.16999999999999</ele>
        <time>2011-08-18T13:19:02Z</time>
      </trkpt>
      <trkpt lat="54.955848986282945" lon="27.135635018348694">
        <ele>173.66</ele>
        <time>2011-08-18T13:19:06Z</time>
      </trkpt>
      <trkpt lat="54.955582022666931" lon="27.135937018319964">
        <ele>174.13999999999999</ele>
        <time>2011-08-18T13:19:13Z</time>
      </trkpt>
      <trkpt lat="54.955425029620528" lon="27.136090993881226">
        <ele>174.13999999999999</ele>
        <time>2011-08-18T13:19:17Z</time>
      </trkpt>
      <trkpt lat="54.954886995255947" lon="27.136533977463841">
        <ele>174.62</ele>
        <time>2011-08-18T13:19:31Z</time>
      </trkpt>
      <trkpt lat="54.954517018049955" lon="27.136910995468497">
        <ele>175.58000000000001</ele>
        <time>2011-08-18T13:19:42Z</time>
      </trkpt>
      <trkpt lat="54.954207977280021" lon="27.137610968202353">
        <ele>177.5</ele>
        <time>2011-08-18T13:19:55Z</time>
      </trkpt>
      <trkpt lat="54.954020977020264" lon="27.138298032805324">
        <ele>177.02000000000001</ele>
        <time>2011-08-18T13:20:07Z</time>
      </trkpt>
      <trkpt lat="54.953896002843976" lon="27.138868002220988">
        <ele>177.5</ele>
        <time>2011-08-18T13:20:18Z</time>
      </trkpt>
      <trkpt lat="54.953746972605586" lon="27.139647016301751">
        <ele>178.94</ele>
        <time>2011-08-18T13:20:34Z</time>
      </trkpt>
      <trkpt lat="54.953728029504418" lon="27.139714993536472">
        <ele>178.94</ele>
        <time>2011-08-18T13:20:36Z</time>
      </trkpt>
      <trkpt lat="54.953677989542484" lon="27.139958990737796">
        <ele>179.41999999999999</ele>
        <time>2011-08-18T13:20:43Z</time>
      </trkpt>
      <trkpt lat="54.953571036458015" lon="27.140389988198876">
        <ele>181.34999999999999</ele>
        <time>2011-08-18T13:20:56Z</time>
      </trkpt>
      <trkpt lat="54.953442038968205" lon="27.140902038663626">
        <ele>182.31</ele>
        <time>2011-08-18T13:21:11Z</time>
      </trkpt>
      <trkpt lat="54.953297032043338" lon="27.141474019736052">
        <ele>183.27000000000001</ele>
        <time>2011-08-18T13:21:26Z</time>
      </trkpt>
      <trkpt lat="54.953091004863381" lon="27.142203999683261">
        <ele>183.75</ele>
        <time>2011-08-18T13:21:43Z</time>
      </trkpt>
      <trkpt lat="54.952896041795611" lon="27.142964992672205">
        <ele>183.75</ele>
        <time>2011-08-18T13:21:59Z</time>
      </trkpt>
      <trkpt lat="54.952754974365234" lon="27.143496992066503">
        <ele>191.44</ele>
        <time>2011-08-18T13:22:12Z</time>
      </trkpt>
      <trkpt lat="54.952751034870744" lon="27.14353596791625">
        <ele>190.47999999999999</ele>
        <time>2011-08-18T13:22:13Z</time>
      </trkpt>
      <trkpt lat="54.95274399407208" lon="27.143569998443127">
        <ele>178.46000000000001</ele>
        <time>2011-08-18T13:22:14Z</time>
      </trkpt>
      <trkpt lat="54.952736031264067" lon="27.143600005656481">
        <ele>185.66999999999999</ele>
        <time>2011-08-18T13:22:15Z</time>
      </trkpt>
      <trkpt lat="54.952697977423668" lon="27.143767978996038">
        <ele>181.83000000000001</ele>
        <time>2011-08-18T13:22:19Z</time>
      </trkpt>
      <trkpt lat="54.952685991302133" lon="27.14381399564445">
        <ele>184.71000000000001</ele>
        <time>2011-08-18T13:22:20Z</time>
      </trkpt>
      <trkpt lat="54.952510977163911" lon="27.14482300914824">
        <ele>182.31</ele>
        <time>2011-08-18T13:22:37Z</time>
      </trkpt>
      <trkpt lat="54.95227100327611" lon="27.146138967946172">
        <ele>180.87</ele>
        <time>2011-08-18T13:22:56Z</time>
      </trkpt>
      <trkpt lat="54.95224803686142" lon="27.146292021498084">
        <ele>181.34999999999999</ele>
        <time>2011-08-18T13:22:58Z</time>
      </trkpt>
      <trkpt lat="54.952217023819685" lon="27.146494025364518">
        <ele>173.16999999999999</ele>
        <time>2011-08-18T13:23:01Z</time>
      </trkpt>
      <trkpt lat="54.95220897719264" lon="27.146554961800575">
        <ele>177.97999999999999</ele>
        <time>2011-08-18T13:23:02Z</time>
      </trkpt>
      <trkpt lat="54.952197996899486" lon="27.14666903950274">
        <ele>183.75</ele>
        <time>2011-08-18T13:23:04Z</time>
      </trkpt>
      <trkpt lat="54.952190034091473" lon="27.146726958453655">
        <ele>183.27000000000001</ele>
        <time>2011-08-18T13:23:05Z</time>
      </trkpt>
      <trkpt lat="54.952290030196309" lon="27.14748602360487">
        <ele>181.34999999999999</ele>
        <time>2011-08-18T13:23:16Z</time>
      </trkpt>
      <trkpt lat="54.952374016866088" lon="27.148031014949083">
        <ele>181.83000000000001</ele>
        <time>2011-08-18T13:23:23Z</time>
      </trkpt>
      <trkpt lat="54.95238097384572" lon="27.148188007995486">
        <ele>182.31</ele>
        <time>2011-08-18T13:23:25Z</time>
      </trkpt>
      <trkpt lat="54.95238097384572" lon="27.148265959694982">
        <ele>181.83000000000001</ele>
        <time>2011-08-18T13:23:26Z</time>
      </trkpt>
      <trkpt lat="54.95237703435123" lon="27.148341983556747">
        <ele>181.83000000000001</ele>
        <time>2011-08-18T13:23:27Z</time>
      </trkpt>
      <trkpt lat="54.952286006882787" lon="27.149370023980737">
        <ele>183.27000000000001</ele>
        <time>2011-08-18T13:23:40Z</time>
      </trkpt>
      <trkpt lat="54.952292963862419" lon="27.150540975853801">
        <ele>182.78999999999999</ele>
        <time>2011-08-18T13:23:54Z</time>
      </trkpt>
      <trkpt lat="54.952311990782619" lon="27.151435995474458">
        <ele>183.27000000000001</ele>
        <time>2011-08-18T13:24:05Z</time>
      </trkpt>
      <trkpt lat="54.952328000217676" lon="27.151598017662764">
        <ele>183.27000000000001</ele>
        <time>2011-08-18T13:24:07Z</time>
      </trkpt>
      <trkpt lat="54.952365970239043" lon="27.152701998129487">
        <ele>184.22999999999999</ele>
        <time>2011-08-18T13:24:21Z</time>
      </trkpt>
      <trkpt lat="54.952374016866088" lon="27.15285899117589">
        <ele>183.75</ele>
        <time>2011-08-18T13:24:23Z</time>
      </trkpt>
      <trkpt lat="54.952395977452397" lon="27.153624007478356">
        <ele>183.75</ele>
        <time>2011-08-18T13:24:35Z</time>
      </trkpt>
      <trkpt lat="54.952407963573933" lon="27.154382988810539">
        <ele>183.75</ele>
        <time>2011-08-18T13:24:48Z</time>
      </trkpt>
      <trkpt lat="54.952395977452397" lon="27.155082961544394">
        <ele>184.22999999999999</ele>
        <time>2011-08-18T13:24:58Z</time>
      </trkpt>
      <trkpt lat="54.952301010489464" lon="27.156170010566711">
        <ele>185.19</ele>
        <time>2011-08-18T13:25:13Z</time>
      </trkpt>
      <trkpt lat="54.952178969979286" lon="27.157148011028767">
        <ele>187.11000000000001</ele>
        <time>2011-08-18T13:25:30Z</time>
      </trkpt>
      <trkpt lat="54.952064976096153" lon="27.158091980963945">
        <ele>188.08000000000001</ele>
        <time>2011-08-18T13:25:47Z</time>
      </trkpt>
      <trkpt lat="54.951946036890149" lon="27.159022958949208">
        <ele>188.08000000000001</ele>
        <time>2011-08-18T13:26:01Z</time>
      </trkpt>
      <trkpt lat="54.951747972518206" lon="27.160500017926097">
        <ele>188.56</ele>
        <time>2011-08-18T13:26:20Z</time>
      </trkpt>
      <trkpt lat="54.951575975865126" lon="27.161922007799149">
        <ele>188.56</ele>
        <time>2011-08-18T13:26:37Z</time>
      </trkpt>
      <trkpt lat="54.951404985040426" lon="27.1633630245924">
        <ele>188.56</ele>
        <time>2011-08-18T13:26:55Z</time>
      </trkpt>
      <trkpt lat="54.951351005584002" lon="27.164910994470119">
        <ele>188.56</ele>
        <time>2011-08-18T13:27:13Z</time>
      </trkpt>
      <trkpt lat="54.951346982270479" lon="27.165247024968266">
        <ele>188.56</ele>
        <time>2011-08-18T13:27:17Z</time>
      </trkpt>
      <trkpt lat="54.951343964785337" lon="27.16581498272717">
        <ele>188.56</ele>
        <time>2011-08-18T13:27:24Z</time>
      </trkpt>
      <trkpt lat="54.951572036370635" lon="27.167455991730094">
        <ele>190</ele>
        <time>2011-08-18T13:27:44Z</time>
      </trkpt>
      <trkpt lat="54.951817039400339" lon="27.168921986594796">
        <ele>189.03999999999999</ele>
        <time>2011-08-18T13:28:01Z</time>
      </trkpt>
      <trkpt lat="54.951980989426374" lon="27.16989696957171">
        <ele>188.08000000000001</ele>
        <time>2011-08-18T13:28:12Z</time>
      </trkpt>
      <trkpt lat="54.952042009681463" lon="27.170415977016091">
        <ele>188.08000000000001</ele>
        <time>2011-08-18T13:28:18Z</time>
      </trkpt>
      <trkpt lat="54.952033963054419" lon="27.170666009187698">
        <ele>188.08000000000001</ele>
        <time>2011-08-18T13:28:21Z</time>
      </trkpt>
      <trkpt lat="54.951964979991317" lon="27.171186022460461">
        <ele>187.59</ele>
        <time>2011-08-18T13:28:27Z</time>
      </trkpt>
      <trkpt lat="54.95192700996995" lon="27.171351984143257">
        <ele>187.59</ele>
        <time>2011-08-18T13:28:29Z</time>
      </trkpt>
      <trkpt lat="54.951880993321538" lon="27.171510988846421">
        <ele>187.59</ele>
        <time>2011-08-18T13:28:31Z</time>
      </trkpt>
      <trkpt lat="54.951487965881824" lon="27.172808004543185">
        <ele>187.59</ele>
        <time>2011-08-18T13:28:48Z</time>
      </trkpt>
      <trkpt lat="54.951466005295515" lon="27.17288201674819">
        <ele>187.59</ele>
        <time>2011-08-18T13:28:49Z</time>
      </trkpt>
      <trkpt lat="54.951168028637767" lon="27.173856999725103">
        <ele>188.08000000000001</ele>
        <time>2011-08-18T13:29:02Z</time>
      </trkpt>
      <trkpt lat="54.951098961755633" lon="27.173990020528436">
        <ele>187.59</ele>
        <time>2011-08-18T13:29:04Z</time>
      </trkpt>
      <trkpt lat="54.95070300064981" lon="27.174162017181516">
        <ele>188.08000000000001</ele>
        <time>2011-08-18T13:29:15Z</time>
      </trkpt>
      <trkpt lat="54.950149962678552" lon="27.174155982211232">
        <ele>189.52000000000001</ele>
        <time>2011-08-18T13:29:30Z</time>
      </trkpt>
      <trkpt lat="54.949576975777745" lon="27.174140978604555">
        <ele>189.52000000000001</ele>
        <time>2011-08-18T13:29:44Z</time>
      </trkpt>
      <trkpt lat="54.948802990838885" lon="27.174162017181516">
        <ele>189.52000000000001</ele>
        <time>2011-08-18T13:30:02Z</time>
      </trkpt>
      <trkpt lat="54.94851297698915" lon="27.174263019114733">
        <ele>190.47999999999999</ele>
        <time>2011-08-18T13:30:09Z</time>
      </trkpt>
      <trkpt lat="54.947822978720069" lon="27.174775991588831">
        <ele>191.44</ele>
        <time>2011-08-18T13:30:26Z</time>
      </trkpt>
      <trkpt lat="54.947701022028923" lon="27.174888979643583">
        <ele>191.44</ele>
        <time>2011-08-18T13:30:29Z</time>
      </trkpt>
      <trkpt lat="54.947342025116086" lon="27.175156027078629">
        <ele>191.91999999999999</ele>
        <time>2011-08-18T13:30:38Z</time>
      </trkpt>
      <trkpt lat="54.947300031781197" lon="27.175176981836557">
        <ele>191.44</ele>
        <time>2011-08-18T13:30:39Z</time>
      </trkpt>
      <trkpt lat="54.947258038446307" lon="27.175198020413518">
        <ele>191.91999999999999</ele>
        <time>2011-08-18T13:30:40Z</time>
      </trkpt>
      <trkpt lat="54.946628976613283" lon="27.175492979586124">
        <ele>192.88</ele>
        <time>2011-08-18T13:30:56Z</time>
      </trkpt>
      <trkpt lat="54.946495033800602" lon="27.176154982298613">
        <ele>193.36000000000001</ele>
        <time>2011-08-18T13:31:08Z</time>
      </trkpt>
      <trkpt lat="54.946423033252358" lon="27.176515990868211">
        <ele>198.16999999999999</ele>
        <time>2011-08-18T13:31:14Z</time>
      </trkpt>
      <trkpt lat="54.946399983018637" lon="27.176627973094583">
        <ele>193.84</ele>
        <time>2011-08-18T13:31:16Z</time>
      </trkpt>
      <trkpt lat="54.946392020210624" lon="27.176682036370039">
        <ele>195.28</ele>
        <time>2011-08-18T13:31:17Z</time>
      </trkpt>
      <trkpt lat="54.946383973583579" lon="27.176739033311605">
        <ele>191.91999999999999</ele>
        <time>2011-08-18T13:31:18Z</time>
      </trkpt>
      <trkpt lat="54.946377016603947" lon="27.176990993320942">
        <ele>194.80000000000001</ele>
        <time>2011-08-18T13:31:22Z</time>
      </trkpt>
      <trkpt lat="54.946377016603947" lon="27.177582001313567">
        <ele>194.31999999999999</ele>
        <time>2011-08-18T13:31:31Z</time>
      </trkpt>
      <trkpt lat="54.946323037147522" lon="27.178417006507516">
        <ele>192.88</ele>
        <time>2011-08-18T13:31:40Z</time>
      </trkpt>
      <trkpt lat="54.94617098942399" lon="27.179851988330483">
        <ele>195.28</ele>
        <time>2011-08-18T13:31:59Z</time>
      </trkpt>
      <trkpt lat="54.94617098942399" lon="27.180647011846304">
        <ele>195.77000000000001</ele>
        <time>2011-08-18T13:32:12Z</time>
      </trkpt>
      <trkpt lat="54.946124972775578" lon="27.181311026215553">
        <ele>193.84</ele>
        <time>2011-08-18T13:32:21Z</time>
      </trkpt>
      <trkpt lat="54.946045009419322" lon="27.18233697116375">
        <ele>192.40000000000001</ele>
        <time>2011-08-18T13:32:33Z</time>
      </trkpt>
      <trkpt lat="54.946036962792277" lon="27.182412995025516">
        <ele>192.88</ele>
        <time>2011-08-18T13:32:34Z</time>
      </trkpt>
      <trkpt lat="54.945972003042698" lon="27.183338021859527">
        <ele>193.36000000000001</ele>
        <time>2011-08-18T13:32:48Z</time>
      </trkpt>
      <trkpt lat="54.945820039138198" lon="27.184404032304883">
        <ele>192.88</ele>
        <time>2011-08-18T13:33:02Z</time>
      </trkpt>
      <trkpt lat="54.945805035531521" lon="27.184468992054462">
        <ele>192.88</ele>
        <time>2011-08-18T13:33:03Z</time>
      </trkpt>
      <trkpt lat="54.94556799530983" lon="27.185254963114858">
        <ele>192.88</ele>
        <time>2011-08-18T13:33:16Z</time>
      </trkpt>
      <trkpt lat="54.945488031953573" lon="27.185785034671426">
        <ele>192.88</ele>
        <time>2011-08-18T13:33:28Z</time>
      </trkpt>
      <trkpt lat="54.945479985326529" lon="27.185867009684443">
        <ele>192.88</ele>
        <time>2011-08-18T13:33:39Z</time>
      </trkpt>
      <trkpt lat="54.945518039166927" lon="27.185876984149218">
        <ele>193.84</ele>
        <time>2011-08-18T13:33:51Z</time>
      </trkpt>
      <trkpt lat="54.945518039166927" lon="27.185876984149218">
        <ele>193.36000000000001</ele>
        <time>2011-08-18T13:34:05Z</time>
      </trkpt>
      <trkpt lat="54.945521978661418" lon="27.185871032997966">
        <ele>192.88</ele>
        <time>2011-08-18T13:34:26Z</time>
      </trkpt>
      <trkpt lat="54.945521978661418" lon="27.185871032997966">
        <ele>193.36000000000001</ele>
        <time>2011-08-18T13:34:49Z</time>
      </trkpt>
      <trkpt lat="54.945518039166927" lon="27.185871032997966">
        <ele>193.84</ele>
        <time>2011-08-18T13:35:18Z</time>
      </trkpt>
      <trkpt lat="54.945518039166927" lon="27.185871032997966">
        <ele>193.84</ele>
        <time>2011-08-18T13:35:37Z</time>
      </trkpt>
      <trkpt lat="54.945521978661418" lon="27.185869021341205">
        <ele>193.84</ele>
        <time>2011-08-18T13:36:05Z</time>
      </trkpt>
      <trkpt lat="54.945521978661418" lon="27.185864998027682">
        <ele>194.31999999999999</ele>
        <time>2011-08-18T13:36:33Z</time>
      </trkpt>
      <trkpt lat="54.945521978661418" lon="27.185864998027682">
        <ele>193.84</ele>
        <time>2011-08-18T13:36:59Z</time>
      </trkpt>
      <trkpt lat="54.945518039166927" lon="27.185864998027682">
        <ele>193.84</ele>
        <time>2011-08-18T13:37:27Z</time>
      </trkpt>
      <trkpt lat="54.945521978661418" lon="27.185861980542541">
        <ele>193.84</ele>
        <time>2011-08-18T13:37:56Z</time>
      </trkpt>
      <trkpt lat="54.945521978661418" lon="27.185861980542541">
        <ele>193.84</ele>
        <time>2011-08-18T13:38:22Z</time>
      </trkpt>
      <trkpt lat="54.945521978661418" lon="27.185861980542541">
        <ele>193.84</ele>
        <time>2011-08-18T13:38:49Z</time>
      </trkpt>
      <trkpt lat="54.945518039166927" lon="27.185859968885779">
        <ele>194.31999999999999</ele>
        <time>2011-08-18T13:39:17Z</time>
      </trkpt>
      <trkpt lat="54.945521978661418" lon="27.185859968885779">
        <ele>194.31999999999999</ele>
        <time>2011-08-18T13:39:46Z</time>
      </trkpt>
      <trkpt lat="54.945521978661418" lon="27.185859968885779">
        <ele>194.31999999999999</ele>
        <time>2011-08-18T13:40:13Z</time>
      </trkpt>
      <trkpt lat="54.945518039166927" lon="27.185861980542541">
        <ele>193.84</ele>
        <time>2011-08-18T13:40:44Z</time>
      </trkpt>
      <trkpt lat="54.945518039166927" lon="27.185862986370921">
        <ele>194.31999999999999</ele>
        <time>2011-08-18T13:41:18Z</time>
      </trkpt>
      <trkpt lat="54.945515021681786" lon="27.185862986370921">
        <ele>193.84</ele>
        <time>2011-08-18T13:41:53Z</time>
      </trkpt>
      <trkpt lat="54.945515021681786" lon="27.185854017734528">
        <ele>194.31999999999999</ele>
        <time>2011-08-18T13:42:25Z</time>
      </trkpt>
      <trkpt lat="54.945515021681786" lon="27.185854017734528">
        <ele>194.31999999999999</ele>
        <time>2011-08-18T13:43:00Z</time>
      </trkpt>
      <trkpt lat="54.945510998368263" lon="27.185849994421005">
        <ele>193.84</ele>
        <time>2011-08-18T13:43:26Z</time>
      </trkpt>
      <trkpt lat="54.945510998368263" lon="27.185845971107483">
        <ele>194.31999999999999</ele>
        <time>2011-08-18T13:43:54Z</time>
      </trkpt>
      <trkpt lat="54.94554896838963" lon="27.185829039663076">
        <ele>194.31999999999999</ele>
        <time>2011-08-18T13:44:08Z</time>
      </trkpt>
      <trkpt lat="54.94554896838963" lon="27.185829039663076">
        <ele>193.84</ele>
        <time>2011-08-18T13:44:33Z</time>
      </trkpt>
      <trkpt lat="54.94554896838963" lon="27.185830967500806">
        <ele>193.84</ele>
        <time>2011-08-18T13:45:09Z</time>
      </trkpt>
      <trkpt lat="54.945552991703153" lon="27.185834990814328">
        <ele>193.84</ele>
        <time>2011-08-18T13:45:46Z</time>
      </trkpt>
      <trkpt lat="54.945557015016675" lon="27.185834990814328">
        <ele>193.84</ele>
        <time>2011-08-18T13:46:17Z</time>
      </trkpt>
      <trkpt lat="54.94554896838963" lon="27.185845971107483">
        <ele>194.31999999999999</ele>
        <time>2011-08-18T13:46:54Z</time>
      </trkpt>
      <trkpt lat="54.94554896838963" lon="27.185845971107483">
        <ele>193.84</ele>
        <time>2011-08-18T13:47:30Z</time>
      </trkpt>
      <trkpt lat="54.94554896838963" lon="27.185845971107483">
        <ele>193.84</ele>
        <time>2011-08-18T13:48:07Z</time>
      </trkpt>
      <trkpt lat="54.94554896838963" lon="27.185856029391289">
        <ele>194.31999999999999</ele>
        <time>2011-08-18T13:48:41Z</time>
      </trkpt>
      <trkpt lat="54.94554502889514" lon="27.185856029391289">
        <ele>193.36000000000001</ele>
        <time>2011-08-18T13:49:22Z</time>
      </trkpt>
      <trkpt lat="54.94554502889514" lon="27.185856029391289">
        <ele>193.84</ele>
        <time>2011-08-18T13:49:58Z</time>
      </trkpt>
      <trkpt lat="54.94554502889514" lon="27.185861980542541">
        <ele>193.84</ele>
        <time>2011-08-18T13:50:33Z</time>
      </trkpt>
      <trkpt lat="54.94554502889514" lon="27.185859968885779">
        <ele>193.36000000000001</ele>
        <time>2011-08-18T13:51:06Z</time>
      </trkpt>
      <trkpt lat="54.94554896838963" lon="27.185843037441373">
        <ele>193.84</ele>
        <time>2011-08-18T13:51:38Z</time>
      </trkpt>
      <trkpt lat="54.94554896838963" lon="27.185845971107483">
        <ele>193.36000000000001</ele>
        <time>2011-08-18T13:52:16Z</time>
      </trkpt>
      <trkpt lat="54.94554896838963" lon="27.185847982764244">
        <ele>193.84</ele>
        <time>2011-08-18T13:52:53Z</time>
      </trkpt>
      <trkpt lat="54.94554896838963" lon="27.185847982764244">
        <ele>193.84</ele>
        <time>2011-08-18T13:53:21Z</time>
      </trkpt>
      <trkpt lat="54.94554502889514" lon="27.185845971107483">
        <ele>193.84</ele>
        <time>2011-08-18T13:53:54Z</time>
      </trkpt>
      <trkpt lat="54.94554502889514" lon="27.185845971107483">
        <ele>193.36000000000001</ele>
        <time>2011-08-18T13:54:31Z</time>
      </trkpt>
      <trkpt lat="54.94554502889514" lon="27.185849994421005">
        <ele>193.36000000000001</ele>
        <time>2011-08-18T13:55:02Z</time>
      </trkpt>
      <trkpt lat="54.94554502889514" lon="27.185845971107483">
        <ele>193.84</ele>
        <time>2011-08-18T13:55:36Z</time>
      </trkpt>
      <trkpt lat="54.94554502889514" lon="27.185847982764244">
        <ele>193.36000000000001</ele>
        <time>2011-08-18T13:56:12Z</time>
      </trkpt>
      <trkpt lat="54.94554502889514" lon="27.185845971107483">
        <ele>193.84</ele>
        <time>2011-08-18T13:56:49Z</time>
      </trkpt>
      <trkpt lat="54.94554502889514" lon="27.185845971107483">
        <ele>193.36000000000001</ele>
        <time>2011-08-18T13:57:24Z</time>
      </trkpt>
      <trkpt lat="54.945541005581617" lon="27.185849994421005">
        <ele>193.36000000000001</ele>
        <time>2011-08-18T13:58:04Z</time>
      </trkpt>
      <trkpt lat="54.945541005581617" lon="27.185843959450722">
        <ele>193.84</ele>
        <time>2011-08-18T13:58:39Z</time>
      </trkpt>
      <trkpt lat="54.945541005581617" lon="27.185845971107483">
        <ele>193.84</ele>
        <time>2011-08-18T13:59:13Z</time>
      </trkpt>
      <trkpt lat="54.945541005581617" lon="27.185849994421005">
        <ele>193.84</ele>
        <time>2011-08-18T13:59:47Z</time>
      </trkpt>
      <trkpt lat="54.94554502889514" lon="27.185854017734528">
        <ele>193.84</ele>
        <time>2011-08-18T14:00:21Z</time>
      </trkpt>
      <trkpt lat="54.94554896838963" lon="27.185856029391289">
        <ele>193.84</ele>
        <time>2011-08-18T14:00:54Z</time>
      </trkpt>
      <trkpt lat="54.94554896838963" lon="27.185856029391289">
        <ele>193.84</ele>
        <time>2011-08-18T14:01:27Z</time>
      </trkpt>
      <trkpt lat="54.945552991703153" lon="27.185861980542541">
        <ele>193.84</ele>
        <time>2011-08-18T14:02:00Z</time>
      </trkpt>
      <trkpt lat="54.945552991703153" lon="27.185869021341205">
        <ele>193.84</ele>
        <time>2011-08-18T14:02:36Z</time>
      </trkpt>
      <trkpt lat="54.945552991703153" lon="27.185867009684443">
        <ele>193.84</ele>
        <time>2011-08-18T14:03:10Z</time>
      </trkpt>
      <trkpt lat="54.94554502889514" lon="27.185862986370921">
        <ele>193.84</ele>
        <time>2011-08-18T14:03:44Z</time>
      </trkpt>
      <trkpt lat="54.945541005581617" lon="27.185871032997966">
        <ele>193.84</ele>
        <time>2011-08-18T14:04:20Z</time>
      </trkpt>
      <trkpt lat="54.945537988096476" lon="27.185869021341205">
        <ele>193.84</ele>
        <time>2011-08-18T14:04:56Z</time>
      </trkpt>
      <trkpt lat="54.945537988096476" lon="27.185871032997966">
        <ele>194.31999999999999</ele>
        <time>2011-08-18T14:05:28Z</time>
      </trkpt>
      <trkpt lat="54.945537988096476" lon="27.185871032997966">
        <ele>194.31999999999999</ele>
        <time>2011-08-18T14:06:02Z</time>
      </trkpt>
      <trkpt lat="54.945537988096476" lon="27.185871032997966">
        <ele>193.84</ele>
        <time>2011-08-18T14:06:38Z</time>
      </trkpt>
      <trkpt lat="54.945537988096476" lon="27.185872960835695">
        <ele>194.31999999999999</ele>
        <time>2011-08-18T14:07:08Z</time>
      </trkpt>
      <trkpt lat="54.945537988096476" lon="27.185871032997966">
        <ele>193.84</ele>
        <time>2011-08-18T14:07:46Z</time>
      </trkpt>
      <trkpt lat="54.945537988096476" lon="27.185869021341205">
        <ele>193.84</ele>
        <time>2011-08-18T14:08:21Z</time>
      </trkpt>
      <trkpt lat="54.945537988096476" lon="27.185862986370921">
        <ele>194.31999999999999</ele>
        <time>2011-08-18T14:08:55Z</time>
      </trkpt>
      <trkpt lat="54.945537988096476" lon="27.185862986370921">
        <ele>193.84</ele>
        <time>2011-08-18T14:09:22Z</time>
      </trkpt>
      <trkpt lat="54.945537988096476" lon="27.185862986370921">
        <ele>193.84</ele>
        <time>2011-08-18T14:09:50Z</time>
      </trkpt>
      <trkpt lat="54.945533964782953" lon="27.185861980542541">
        <ele>193.84</ele>
        <time>2011-08-18T14:10:24Z</time>
      </trkpt>
      <trkpt lat="54.945533964782953" lon="27.185859968885779">
        <ele>193.84</ele>
        <time>2011-08-18T14:11:00Z</time>
      </trkpt>
      <trkpt lat="54.945537988096476" lon="27.185856029391289">
        <ele>194.31999999999999</ele>
        <time>2011-08-18T14:11:32Z</time>
      </trkpt>
      <trkpt lat="54.945530025288463" lon="27.185845971107483">
        <ele>194.31999999999999</ele>
        <time>2011-08-18T14:12:10Z</time>
      </trkpt>
      <trkpt lat="54.945530025288463" lon="27.185845971107483">
        <ele>193.84</ele>
        <time>2011-08-18T14:12:36Z</time>
      </trkpt>
      <trkpt lat="54.945537988096476" lon="27.185849994421005">
        <ele>193.84</ele>
        <time>2011-08-18T14:12:53Z</time>
      </trkpt>
      <trkpt lat="54.945537988096476" lon="27.185849994421005">
        <ele>194.31999999999999</ele>
        <time>2011-08-18T14:12:54Z</time>
      </trkpt>
      <trkpt lat="54.945537988096476" lon="27.185823004692793">
        <ele>194.31999999999999</ele>
        <time>2011-08-18T14:12:55Z</time>
      </trkpt>
      <trkpt lat="54.945533964782953" lon="27.185800960287452">
        <ele>194.80000000000001</ele>
        <time>2011-08-18T14:12:56Z</time>
      </trkpt>
      <trkpt lat="54.94552600197494" lon="27.185777993872762">
        <ele>193.84</ele>
        <time>2011-08-18T14:12:57Z</time>
      </trkpt>
      <trkpt lat="54.945521978661418" lon="27.185755027458072">
        <ele>193.84</ele>
        <time>2011-08-18T14:12:58Z</time>
      </trkpt>
      <trkpt lat="54.945515021681786" lon="27.185726026073098">
        <ele>193.84</ele>
        <time>2011-08-18T14:12:59Z</time>
      </trkpt>
      <trkpt lat="54.945506975054741" lon="27.185702975839376">
        <ele>194.80000000000001</ele>
        <time>2011-08-18T14:13:00Z</time>
      </trkpt>
      <trkpt lat="54.945499012246728" lon="27.185674980282784">
        <ele>194.31999999999999</ele>
        <time>2011-08-18T14:13:01Z</time>
      </trkpt>
      <trkpt lat="54.945484008640051" lon="27.185650002211332">
        <ele>194.31999999999999</ele>
        <time>2011-08-18T14:13:02Z</time>
      </trkpt>
      <trkpt lat="54.945205980911851" lon="27.185475993901491">
        <ele>195.28</ele>
        <time>2011-08-18T14:13:16Z</time>
      </trkpt>
      <trkpt lat="54.944770960137248" lon="27.185377003625035">
        <ele>194.80000000000001</ele>
        <time>2011-08-18T14:13:34Z</time>
      </trkpt>
      <trkpt lat="54.944641040638089" lon="27.185040973126888">
        <ele>195.77000000000001</ele>
        <time>2011-08-18T14:13:46Z</time>
      </trkpt>
      <trkpt lat="54.944629976525903" lon="27.184981964528561">
        <ele>194.80000000000001</ele>
        <time>2011-08-18T14:13:48Z</time>
      </trkpt>
      <trkpt lat="54.944592006504536" lon="27.184865958988667">
        <ele>196.25</ele>
        <time>2011-08-18T14:13:52Z</time>
      </trkpt>
      <trkpt lat="54.944587983191013" lon="27.184737967327237">
        <ele>196.25</ele>
        <time>2011-08-18T14:13:56Z</time>
      </trkpt>
      <trkpt lat="54.944595023989677" lon="27.184649035334587">
        <ele>196.25</ele>
        <time>2011-08-18T14:14:00Z</time>
      </trkpt>
      <trkpt lat="54.944592006504536" lon="27.184620033949614">
        <ele>195.77000000000001</ele>
        <time>2011-08-18T14:14:16Z</time>
      </trkpt>
      <trkpt lat="54.944575997069478" lon="27.184579968452454">
        <ele>196.25</ele>
        <time>2011-08-18T14:14:38Z</time>
      </trkpt>
      <trkpt lat="54.944571973755956" lon="27.184559013694525">
        <ele>196.25</ele>
        <time>2011-08-18T14:14:57Z</time>
      </trkpt>
      <trkpt lat="54.944571973755956" lon="27.184559013694525">
        <ele>196.25</ele>
        <time>2011-08-18T14:15:38Z</time>
      </trkpt>
      <trkpt lat="54.944575997069478" lon="27.184557002037764">
        <ele>196.25</ele>
        <time>2011-08-18T14:16:14Z</time>
      </trkpt>
      <trkpt lat="54.944575997069478" lon="27.184557002037764">
        <ele>196.25</ele>
        <time>2011-08-18T14:16:28Z</time>
      </trkpt>
      <trkpt lat="54.944511037319899" lon="27.184443008154631">
        <ele>196.25</ele>
        <time>2011-08-18T14:16:35Z</time>
      </trkpt>
      <trkpt lat="54.944426966831088" lon="27.184392968192697">
        <ele>196.25</ele>
        <time>2011-08-18T14:16:49Z</time>
      </trkpt>
      <trkpt lat="54.94443099014461" lon="27.184392968192697">
        <ele>195.77000000000001</ele>
        <time>2011-08-18T14:17:27Z</time>
      </trkpt>
      <trkpt lat="54.94443099014461" lon="27.184389028698206">
        <ele>196.25</ele>
        <time>2011-08-18T14:18:03Z</time>
      </trkpt>
      <trkpt lat="54.94443099014461" lon="27.184389028698206">
        <ele>195.77000000000001</ele>
        <time>2011-08-18T14:18:37Z</time>
      </trkpt>
      <trkpt lat="54.944426966831088" lon="27.184387017041445">
        <ele>196.72999999999999</ele>
        <time>2011-08-18T14:19:15Z</time>
      </trkpt>
      <trkpt lat="54.944426966831088" lon="27.184391040354967">
        <ele>196.25</ele>
        <time>2011-08-18T14:19:53Z</time>
      </trkpt>
      <trkpt lat="54.944426966831088" lon="27.184391040354967">
        <ele>196.72999999999999</ele>
        <time>2011-08-18T14:20:32Z</time>
      </trkpt>
      <trkpt lat="54.944424033164978" lon="27.184401014819741">
        <ele>196.72999999999999</ele>
        <time>2011-08-18T14:21:10Z</time>
      </trkpt>
      <trkpt lat="54.944420009851456" lon="27.18439900316298">
        <ele>196.72999999999999</ele>
        <time>2011-08-18T14:21:50Z</time>
      </trkpt>
      <trkpt lat="54.944424033164978" lon="27.184391040354967">
        <ele>196.72999999999999</ele>
        <time>2011-08-18T14:22:24Z</time>
      </trkpt>
      <trkpt lat="54.944420009851456" lon="27.184387017041445">
        <ele>196.72999999999999</ele>
        <time>2011-08-18T14:23:04Z</time>
      </trkpt>
      <trkpt lat="54.944415986537933" lon="27.184396991506219">
        <ele>196.72999999999999</ele>
        <time>2011-08-18T14:23:48Z</time>
      </trkpt>
      <trkpt lat="54.944415986537933" lon="27.184402020648122">
        <ele>196.72999999999999</ele>
        <time>2011-08-18T14:24:31Z</time>
      </trkpt>
      <trkpt lat="54.944420009851456" lon="27.184396991506219">
        <ele>197.21000000000001</ele>
        <time>2011-08-18T14:25:10Z</time>
      </trkpt>
      <trkpt lat="54.944424033164978" lon="27.184402020648122">
        <ele>196.72999999999999</ele>
        <time>2011-08-18T14:25:54Z</time>
      </trkpt>
      <trkpt lat="54.944420009851456" lon="27.184420041739941">
        <ele>196.72999999999999</ele>
        <time>2011-08-18T14:26:41Z</time>
      </trkpt>
      <trkpt lat="54.944415986537933" lon="27.184416018426418">
        <ele>197.21000000000001</ele>
        <time>2011-08-18T14:27:23Z</time>
      </trkpt>
      <trkpt lat="54.944424033164978" lon="27.184411995112896">
        <ele>197.21000000000001</ele>
        <time>2011-08-18T14:28:04Z</time>
      </trkpt>
      <trkpt lat="54.944420009851456" lon="27.184411995112896">
        <ele>196.72999999999999</ele>
        <time>2011-08-18T14:28:44Z</time>
      </trkpt>
      <trkpt lat="54.944420009851456" lon="27.184411995112896">
        <ele>197.21000000000001</ele>
        <time>2011-08-18T14:29:11Z</time>
      </trkpt>
      <trkpt lat="54.944435013458133" lon="27.184493970125914">
        <ele>198.16999999999999</ele>
        <time>2011-08-18T14:29:23Z</time>
      </trkpt>
      <trkpt lat="54.944435013458133" lon="27.184493970125914">
        <ele>196.72999999999999</ele>
        <time>2011-08-18T14:29:27Z</time>
      </trkpt>
      <trkpt lat="54.944435013458133" lon="27.184493970125914">
        <ele>197.21000000000001</ele>
        <time>2011-08-18T14:29:45Z</time>
      </trkpt>
      <trkpt lat="54.944492010399699" lon="27.18450696207583">
        <ele>197.21000000000001</ele>
        <time>2011-08-18T14:29:49Z</time>
      </trkpt>
      <trkpt lat="54.944580020383" lon="27.184893032535911">
        <ele>193.84</ele>
        <time>2011-08-18T14:29:58Z</time>
      </trkpt>
      <trkpt lat="54.944607010111213" lon="27.18500099144876">
        <ele>197.21000000000001</ele>
        <time>2011-08-18T14:30:00Z</time>
      </trkpt>
      <trkpt lat="54.944613967090845" lon="27.185062011703849">
        <ele>196.25</ele>
        <time>2011-08-18T14:30:01Z</time>
      </trkpt>
      <trkpt lat="54.944632994011045" lon="27.185245994478464">
        <ele>196.25</ele>
        <time>2011-08-18T14:30:04Z</time>
      </trkpt>
      <trkpt lat="54.944592006504536" lon="27.185406005010009">
        <ele>196.25</ele>
        <time>2011-08-18T14:30:07Z</time>
      </trkpt>
      <trkpt lat="54.944118009880185" lon="27.185539025813341">
        <ele>198.16999999999999</ele>
        <time>2011-08-18T14:30:21Z</time>
      </trkpt>
      <trkpt lat="54.943844005465508" lon="27.185610020533204">
        <ele>199.13</ele>
        <time>2011-08-18T14:30:28Z</time>
      </trkpt>
      <trkpt lat="54.94380603544414" lon="27.185610020533204">
        <ele>198.65000000000001</ele>
        <time>2011-08-18T14:30:29Z</time>
      </trkpt>
      <trkpt lat="54.943236988037825" lon="27.185662994161248">
        <ele>197.69</ele>
        <time>2011-08-18T14:30:43Z</time>
      </trkpt>
      <trkpt lat="54.942593006417155" lon="27.185741029679775">
        <ele>196.25</ele>
        <time>2011-08-18T14:30:58Z</time>
      </trkpt>
      <trkpt lat="54.941673008725047" lon="27.18585804104805">
        <ele>197.21000000000001</ele>
        <time>2011-08-18T14:31:17Z</time>
      </trkpt>
      <trkpt lat="54.941170010715723" lon="27.18594403937459">
        <ele>199.13</ele>
        <time>2011-08-18T14:31:29Z</time>
      </trkpt>
      <trkpt lat="54.940338023006916" lon="27.186048980802298">
        <ele>200.09</ele>
        <time>2011-08-18T14:31:49Z</time>
      </trkpt>
      <trkpt lat="54.939582981169224" lon="27.186179989948869">
        <ele>201.53</ele>
        <time>2011-08-18T14:32:08Z</time>
      </trkpt>
      <trkpt lat="54.939075037837029" lon="27.186238998547196">
        <ele>202.00999999999999</ele>
        <time>2011-08-18T14:32:22Z</time>
      </trkpt>
      <trkpt lat="54.938496015965939" lon="27.186347963288426">
        <ele>203.94</ele>
        <time>2011-08-18T14:32:39Z</time>
      </trkpt>
      <trkpt lat="54.938034005463123" lon="27.186399009078741">
        <ele>205.86000000000001</ele>
        <time>2011-08-18T14:32:53Z</time>
      </trkpt>
      <trkpt lat="54.937671991065145" lon="27.18648299574852">
        <ele>207.78</ele>
        <time>2011-08-18T14:33:05Z</time>
      </trkpt>
      <trkpt lat="54.937182990834117" lon="27.186524989083409">
        <ele>209.22</ele>
        <time>2011-08-18T14:33:20Z</time>
      </trkpt>
      <trkpt lat="54.936660965904593" lon="27.186573017388582">
        <ele>210.66999999999999</ele>
        <time>2011-08-18T14:33:36Z</time>
      </trkpt>
      <trkpt lat="54.936446975916624" lon="27.186573017388582">
        <ele>212.11000000000001</ele>
        <time>2011-08-18T14:33:43Z</time>
      </trkpt>
      <trkpt lat="54.935954958200455" lon="27.186588020995259">
        <ele>214.50999999999999</ele>
        <time>2011-08-18T14:34:00Z</time>
      </trkpt>
      <trkpt lat="54.935581041499972" lon="27.186583997681737">
        <ele>215.47</ele>
        <time>2011-08-18T14:34:13Z</time>
      </trkpt>
      <trkpt lat="54.93499799631536" lon="27.186577040702105">
        <ele>217.40000000000001</ele>
        <time>2011-08-18T14:34:33Z</time>
      </trkpt>
      <trkpt lat="54.934432972222567" lon="27.186562959104776">
        <ele>219.31999999999999</ele>
        <time>2011-08-18T14:34:51Z</time>
      </trkpt>
      <trkpt lat="54.933849005028605" lon="27.186562037095428">
        <ele>220.75999999999999</ele>
        <time>2011-08-18T14:35:10Z</time>
      </trkpt>
      <trkpt lat="54.933289010077715" lon="27.186538986861706">
        <ele>220.28</ele>
        <time>2011-08-18T14:35:27Z</time>
      </trkpt>
      <trkpt lat="54.932899000123143" lon="27.186381993815303">
        <ele>218.84</ele>
        <time>2011-08-18T14:35:40Z</time>
      </trkpt>
      <trkpt lat="54.932776959612966" lon="27.186351986601949">
        <ele>218.84</ele>
        <time>2011-08-18T14:35:43Z</time>
      </trkpt>
      <trkpt lat="54.932014038786292" lon="27.186028026044369">
        <ele>219.31999999999999</ele>
        <time>2011-08-18T14:36:01Z</time>
      </trkpt>
      <trkpt lat="54.931175010278821" lon="27.185849994421005">
        <ele>218.84</ele>
        <time>2011-08-18T14:36:20Z</time>
      </trkpt>
      <trkpt lat="54.930992033332586" lon="27.185770031064749">
        <ele>218.36000000000001</ele>
        <time>2011-08-18T14:36:24Z</time>
      </trkpt>
      <trkpt lat="54.930950039997697" lon="27.185733988881111">
        <ele>217.88</ele>
        <time>2011-08-18T14:36:25Z</time>
      </trkpt>
      <trkpt lat="54.93014101870358" lon="27.185113979503512">
        <ele>217.40000000000001</ele>
        <time>2011-08-18T14:36:43Z</time>
      </trkpt>
      <trkpt lat="54.929493013769388" lon="27.185027981176972">
        <ele>215.94999999999999</ele>
        <time>2011-08-18T14:36:55Z</time>
      </trkpt>
      <trkpt lat="54.928565975278616" lon="27.18500099144876">
        <ele>214.99000000000001</ele>
        <time>2011-08-18T14:37:13Z</time>
      </trkpt>
      <trkpt lat="54.928309991955757" lon="27.185052959248424">
        <ele>214.50999999999999</ele>
        <time>2011-08-18T14:37:18Z</time>
      </trkpt>
      <trkpt lat="54.927657963708043" lon="27.185278013348579">
        <ele>214.03</ele>
        <time>2011-08-18T14:37:33Z</time>
      </trkpt>
      <trkpt lat="54.927509017288685" lon="27.185330986976624">
        <ele>214.50999999999999</ele>
        <time>2011-08-18T14:37:49Z</time>
      </trkpt>
      <trkpt lat="54.926829999312758" lon="27.185570038855076">
        <ele>215.47</ele>
        <time>2011-08-18T14:38:06Z</time>
      </trkpt>
      <trkpt lat="54.926014021039009" lon="27.185797020792961">
        <ele>213.55000000000001</ele>
        <time>2011-08-18T14:38:22Z</time>
      </trkpt>
      <trkpt lat="54.925132999196649" lon="27.185926018282771">
        <ele>212.59</ele>
        <time>2011-08-18T14:38:38Z</time>
      </trkpt>
      <trkpt lat="54.924167990684509" lon="27.185982009395957">
        <ele>211.63</ele>
        <time>2011-08-18T14:38:55Z</time>
      </trkpt>
      <trkpt lat="54.923572959378362" lon="27.186048980802298">
        <ele>209.69999999999999</ele>
        <time>2011-08-18T14:39:04Z</time>
      </trkpt>
      <trkpt lat="54.918461004272103" lon="27.183781005442142">
        <ele>191.91999999999999</ele>
        <time>2011-08-18T14:42:59Z</time>
      </trkpt>
      <trkpt lat="54.918461004272103" lon="27.18377698212862">
        <ele>191.44</ele>
        <time>2011-08-18T14:43:01Z</time>
      </trkpt>
      <trkpt lat="54.918407024815679" lon="27.183791985735297">
        <ele>191.44</ele>
        <time>2011-08-18T14:43:33Z</time>
      </trkpt>
      <trkpt lat="54.918404007330537" lon="27.183783017098904">
        <ele>192.40000000000001</ele>
        <time>2011-08-18T14:44:01Z</time>
      </trkpt>
      <trkpt lat="54.918399984017015" lon="27.183719985187054">
        <ele>191.91999999999999</ele>
        <time>2011-08-18T14:44:15Z</time>
      </trkpt>
      <trkpt lat="54.918399984017015" lon="27.183692995458841">
        <ele>187.11000000000001</ele>
        <time>2011-08-18T14:44:23Z</time>
      </trkpt>
      <trkpt lat="54.918404007330537" lon="27.183692995458841">
        <ele>191.44</ele>
        <time>2011-08-18T14:44:24Z</time>
      </trkpt>
      <trkpt lat="54.918404007330537" lon="27.183686960488558">
        <ele>188.08000000000001</ele>
        <time>2011-08-18T14:44:27Z</time>
      </trkpt>
      <trkpt lat="54.918404007330537" lon="27.183685032650828">
        <ele>190.96000000000001</ele>
        <time>2011-08-18T14:44:28Z</time>
      </trkpt>
      <trkpt lat="54.918404007330537" lon="27.183683020994067">
        <ele>194.31999999999999</ele>
        <time>2011-08-18T14:44:30Z</time>
      </trkpt>
      <trkpt lat="54.918384980410337" lon="27.183635998517275">
        <ele>191.91999999999999</ele>
        <time>2011-08-18T14:44:35Z</time>
      </trkpt>
      <trkpt lat="54.918350027874112" lon="27.183085978031158">
        <ele>192.88</ele>
        <time>2011-08-18T14:44:46Z</time>
      </trkpt>
      <trkpt lat="54.918293030932546" lon="27.181895999237895">
        <ele>192.40000000000001</ele>
        <time>2011-08-18T14:45:02Z</time>
      </trkpt>
      <trkpt lat="54.918190017342567" lon="27.180770980194211">
        <ele>193.36000000000001</ele>
        <time>2011-08-18T14:45:17Z</time>
      </trkpt>
      <trkpt lat="54.918106030672789" lon="27.179558034986258">
        <ele>194.31999999999999</ele>
        <time>2011-08-18T14:45:35Z</time>
      </trkpt>
      <trkpt lat="54.918091027066112" lon="27.179347984492779">
        <ele>194.31999999999999</ele>
        <time>2011-08-18T14:45:38Z</time>
      </trkpt>
      <trkpt lat="54.918076023459435" lon="27.179276989772916">
        <ele>194.31999999999999</ele>
        <time>2011-08-18T14:45:39Z</time>
      </trkpt>
      <trkpt lat="54.918052973225713" lon="27.179217981174588">
        <ele>194.80000000000001</ele>
        <time>2011-08-18T14:45:40Z</time>
      </trkpt>
      <trkpt lat="54.918018020689487" lon="27.179169030860066">
        <ele>193.84</ele>
        <time>2011-08-18T14:45:41Z</time>
      </trkpt>
      <trkpt lat="54.917983990162611" lon="27.179130977019668">
        <ele>193.84</ele>
        <time>2011-08-18T14:45:42Z</time>
      </trkpt>
      <trkpt lat="54.917946020141244" lon="27.179105998948216">
        <ele>193.84</ele>
        <time>2011-08-18T14:45:43Z</time>
      </trkpt>
      <trkpt lat="54.917820040136576" lon="27.179081020876765">
        <ele>192.88</ele>
        <time>2011-08-18T14:45:46Z</time>
      </trkpt>
      <trkpt lat="54.91772498935461" lon="27.179074985906482">
        <ele>192.88</ele>
        <time>2011-08-18T14:45:48Z</time>
      </trkpt>
      <trkpt lat="54.917156025767326" lon="27.179050007835031">
        <ele>188.56</ele>
        <time>2011-08-18T14:45:58Z</time>
      </trkpt>
      <trkpt lat="54.916641041636467" lon="27.17896300368011">
        <ele>185.66999999999999</ele>
        <time>2011-08-18T14:46:08Z</time>
      </trkpt>
      <trkpt lat="54.9164770077914" lon="27.178943976759911">
        <ele>185.66999999999999</ele>
        <time>2011-08-18T14:46:11Z</time>
      </trkpt>
      <trkpt lat="54.915908966213465" lon="27.178892008960247">
        <ele>184.71000000000001</ele>
        <time>2011-08-18T14:46:24Z</time>
      </trkpt>
      <trkpt lat="54.915821040049195" lon="27.178905000910163">
        <ele>184.22999999999999</ele>
        <time>2011-08-18T14:46:26Z</time>
      </trkpt>
      <trkpt lat="54.915736969560385" lon="27.178934002295136">
        <ele>184.22999999999999</ele>
        <time>2011-08-18T14:46:28Z</time>
      </trkpt>
      <trkpt lat="54.915558015927672" lon="27.179039027541876">
        <ele>184.22999999999999</ele>
        <time>2011-08-18T14:46:32Z</time>
      </trkpt>
      <trkpt lat="54.915226008743048" lon="27.179234996438026">
        <ele>183.75</ele>
        <time>2011-08-18T14:46:39Z</time>
      </trkpt>
      <trkpt lat="54.91508100181818" lon="27.179301967844367">
        <ele>183.75</ele>
        <time>2011-08-18T14:46:42Z</time>
      </trkpt>
      <trkpt lat="54.91484496742487" lon="27.17965099029243">
        <ele>182.31</ele>
        <time>2011-08-18T14:46:50Z</time>
      </trkpt>
      <trkpt lat="54.914642041549087" lon="27.180847004055977">
        <ele>181.83000000000001</ele>
        <time>2011-08-18T14:47:09Z</time>
      </trkpt>
      <trkpt lat="54.914467027410865" lon="27.181878983974457">
        <ele>181.83000000000001</ele>
        <time>2011-08-18T14:47:25Z</time>
      </trkpt>
      <trkpt lat="54.914298970252275" lon="27.182905012741685">
        <ele>181.83000000000001</ele>
        <time>2011-08-18T14:47:41Z</time>
      </trkpt>
      <trkpt lat="54.914184976369143" lon="27.183660976588726">
        <ele>180.87</ele>
        <time>2011-08-18T14:47:56Z</time>
      </trkpt>
      <trkpt lat="54.914073999971151" lon="27.184361033141613">
        <ele>180.38</ele>
        <time>2011-08-18T14:48:10Z</time>
      </trkpt>
      <trkpt lat="54.914000993594527" lon="27.184889009222388">
        <ele>179.90000000000001</ele>
        <time>2011-08-18T14:48:24Z</time>
      </trkpt>
      <trkpt lat="54.913909966126084" lon="27.185346996411681">
        <ele>179.90000000000001</ele>
        <time>2011-08-18T14:48:37Z</time>
      </trkpt>
      <trkpt lat="54.913611989468336" lon="27.185801966115832">
        <ele>180.87</ele>
        <time>2011-08-18T14:48:51Z</time>
      </trkpt>
      <trkpt lat="54.913352988660336" lon="27.186036994680762">
        <ele>181.34999999999999</ele>
        <time>2011-08-18T14:49:06Z</time>
      </trkpt>
      <trkpt lat="54.913330022245646" lon="27.186046969145536">
        <ele>181.34999999999999</ele>
        <time>2011-08-18T14:49:18Z</time>
      </trkpt>
      <trkpt lat="54.913321975618601" lon="27.186049986630678">
        <ele>181.34999999999999</ele>
        <time>2011-08-18T14:49:19Z</time>
      </trkpt>
      <trkpt lat="54.913200018927455" lon="27.186171021312475">
        <ele>182.78999999999999</ele>
        <time>2011-08-18T14:49:36Z</time>
      </trkpt>
      <trkpt lat="54.9130629748106" lon="27.186294989660382">
        <ele>183.75</ele>
        <time>2011-08-18T14:49:52Z</time>
      </trkpt>
      <trkpt lat="54.91305903531611" lon="27.186307981610298">
        <ele>183.27000000000001</ele>
        <time>2011-08-18T14:49:53Z</time>
      </trkpt>
      <trkpt lat="54.913016958162189" lon="27.186395991593599">
        <ele>183.75</ele>
        <time>2011-08-18T14:50:03Z</time>
      </trkpt>
      <trkpt lat="54.912917967885733" lon="27.18648299574852">
        <ele>183.75</ele>
        <time>2011-08-18T14:50:10Z</time>
      </trkpt>
      <trkpt lat="54.912441037595272" lon="27.186907036229968">
        <ele>183.75</ele>
        <time>2011-08-18T14:50:30Z</time>
      </trkpt>
      <trkpt lat="54.912143982946873" lon="27.187182968482375">
        <ele>182.78999999999999</ele>
        <time>2011-08-18T14:50:43Z</time>
      </trkpt>
      <trkpt lat="54.91170896217227" lon="27.187569038942456">
        <ele>182.78999999999999</ele>
        <time>2011-08-18T14:50:59Z</time>
      </trkpt>
      <trkpt lat="54.91144903935492" lon="27.187740029767156">
        <ele>182.78999999999999</ele>
        <time>2011-08-18T14:51:09Z</time>
      </trkpt>
      <trkpt lat="54.911181991919875" lon="27.188001964241266">
        <ele>183.27000000000001</ele>
        <time>2011-08-18T14:51:23Z</time>
      </trkpt>
      <trkpt lat="54.910770021378994" lon="27.18833195976913">
        <ele>182.78999999999999</ele>
        <time>2011-08-18T14:51:39Z</time>
      </trkpt>
      <trkpt lat="54.910324020311236" lon="27.188719036057591">
        <ele>182.31</ele>
        <time>2011-08-18T14:51:56Z</time>
      </trkpt>
      <trkpt lat="54.909981032833457" lon="27.188979964703321">
        <ele>182.78999999999999</ele>
        <time>2011-08-18T14:52:10Z</time>
      </trkpt>
      <trkpt lat="54.909805012866855" lon="27.188976025208831">
        <ele>183.27000000000001</ele>
        <time>2011-08-18T14:52:24Z</time>
      </trkpt>
      <trkpt lat="54.909805012866855" lon="27.188976025208831">
        <ele>177.02000000000001</ele>
        <time>2011-08-18T14:52:25Z</time>
      </trkpt>
      <trkpt lat="54.909805012866855" lon="27.188976025208831">
        <ele>185.66999999999999</ele>
        <time>2011-08-18T14:52:26Z</time>
      </trkpt>
      <trkpt lat="54.909805012866855" lon="27.188976025208831">
        <ele>179.90000000000001</ele>
        <time>2011-08-18T14:52:27Z</time>
      </trkpt>
      <trkpt lat="54.909805012866855" lon="27.188976025208831">
        <ele>183.27000000000001</ele>
        <time>2011-08-18T14:52:28Z</time>
      </trkpt>
      <trkpt lat="54.909805012866855" lon="27.188976025208831">
        <ele>186.63</ele>
        <time>2011-08-18T14:52:29Z</time>
      </trkpt>
      <trkpt lat="54.909805012866855" lon="27.188976025208831">
        <ele>179.90000000000001</ele>
        <time>2011-08-18T14:52:30Z</time>
      </trkpt>
      <trkpt lat="54.909805012866855" lon="27.188976025208831">
        <ele>180.87</ele>
        <time>2011-08-18T14:52:31Z</time>
      </trkpt>
      <trkpt lat="54.909805012866855" lon="27.188976025208831">
        <ele>184.22999999999999</ele>
        <time>2011-08-18T14:52:33Z</time>
      </trkpt>
      <trkpt lat="54.909805012866855" lon="27.188976025208831">
        <ele>183.27000000000001</ele>
        <time>2011-08-18T14:52:53Z</time>
      </trkpt>
      <trkpt lat="54.909805012866855" lon="27.188970996066928">
        <ele>183.27000000000001</ele>
        <time>2011-08-18T14:53:24Z</time>
      </trkpt>
      <trkpt lat="54.909805012866855" lon="27.188968984410167">
        <ele>183.27000000000001</ele>
        <time>2011-08-18T14:54:07Z</time>
      </trkpt>
      <trkpt lat="54.909805012866855" lon="27.188968984410167">
        <ele>183.27000000000001</ele>
        <time>2011-08-18T14:54:44Z</time>
      </trkpt>
      <trkpt lat="54.909805012866855" lon="27.188966972753406">
        <ele>183.27000000000001</ele>
        <time>2011-08-18T14:55:25Z</time>
      </trkpt>
      <trkpt lat="54.909805012866855" lon="27.188961021602154">
        <ele>183.27000000000001</ele>
        <time>2011-08-18T14:56:01Z</time>
      </trkpt>
      <trkpt lat="54.909805012866855" lon="27.188961021602154">
        <ele>183.27000000000001</ele>
        <time>2011-08-18T14:56:38Z</time>
      </trkpt>
      <trkpt lat="54.909755978733301" lon="27.189022041857243">
        <ele>182.78999999999999</ele>
        <time>2011-08-18T14:56:45Z</time>
      </trkpt>
      <trkpt lat="54.909656988456845" lon="27.189121032133698">
        <ele>181.83000000000001</ele>
        <time>2011-08-18T14:56:52Z</time>
      </trkpt>
      <trkpt lat="54.909350965172052" lon="27.18940501101315">
        <ele>180.87</ele>
        <time>2011-08-18T14:57:07Z</time>
      </trkpt>
      <trkpt lat="54.909110991284251" lon="27.189594022929668">
        <ele>180.87</ele>
        <time>2011-08-18T14:57:22Z</time>
      </trkpt>
      <trkpt lat="54.908840004354715" lon="27.189784962683916">
        <ele>180.38</ele>
        <time>2011-08-18T14:57:35Z</time>
      </trkpt>
      <trkpt lat="54.908576980233192" lon="27.18987699598074">
        <ele>180.87</ele>
        <time>2011-08-18T14:57:48Z</time>
      </trkpt>
      <trkpt lat="54.908561976626515" lon="27.189880013465881">
        <ele>180.87</ele>
        <time>2011-08-18T14:57:49Z</time>
      </trkpt>
      <trkpt lat="54.908503973856568" lon="27.189911026507616">
        <ele>180.38</ele>
        <time>2011-08-18T14:57:53Z</time>
      </trkpt>
      <trkpt lat="54.908416969701648" lon="27.18996400013566">
        <ele>180.38</ele>
        <time>2011-08-18T14:57:59Z</time>
      </trkpt>
      <trkpt lat="54.908320996910334" lon="27.190014040097594">
        <ele>180.38</ele>
        <time>2011-08-18T14:58:10Z</time>
      </trkpt>
      <trkpt lat="54.908320996910334" lon="27.190014040097594">
        <ele>180.38</ele>
        <time>2011-08-18T14:58:14Z</time>
      </trkpt>
      <trkpt lat="54.908283026888967" lon="27.189959976822138">
        <ele>180.38</ele>
        <time>2011-08-18T14:58:19Z</time>
      </trkpt>
      <trkpt lat="54.908259976655245" lon="27.189860986545682">
        <ele>180.38</ele>
        <time>2011-08-18T14:58:26Z</time>
      </trkpt>
      <trkpt lat="54.908237010240555" lon="27.189832990989089">
        <ele>180.38</ele>
        <time>2011-08-18T14:58:30Z</time>
      </trkpt>
      <trkpt lat="54.908207003027201" lon="27.189818993210793">
        <ele>180.38</ele>
        <time>2011-08-18T14:58:39Z</time>
      </trkpt>
      <trkpt lat="54.907973986119032" lon="27.189904991537333">
        <ele>179.90000000000001</ele>
        <time>2011-08-18T14:58:52Z</time>
      </trkpt>
      <trkpt lat="54.907687995582819" lon="27.190089980140328">
        <ele>180.38</ele>
        <time>2011-08-18T14:59:07Z</time>
      </trkpt>
      <trkpt lat="54.907375015318394" lon="27.190210008993745">
        <ele>181.34999999999999</ele>
        <time>2011-08-18T14:59:22Z</time>
      </trkpt>
      <trkpt lat="54.907120037823915" lon="27.190288966521621">
        <ele>181.83000000000001</ele>
        <time>2011-08-18T14:59:34Z</time>
      </trkpt>
      <trkpt lat="54.906806973740458" lon="27.190389968454838">
        <ele>182.78999999999999</ele>
        <time>2011-08-18T14:59:50Z</time>
      </trkpt>
      <trkpt lat="54.906540010124445" lon="27.190408995375037">
        <ele>182.78999999999999</ele>
        <time>2011-08-18T15:00:03Z</time>
      </trkpt>
      <trkpt lat="54.906136002391577" lon="27.190476972609758">
        <ele>182.31</ele>
        <time>2011-08-18T15:00:20Z</time>
      </trkpt>
      <trkpt lat="54.905693018808961" lon="27.190401032567024">
        <ele>181.34999999999999</ele>
        <time>2011-08-18T15:00:36Z</time>
      </trkpt>
      <trkpt lat="54.905654964968562" lon="27.190335988998413">
        <ele>181.83000000000001</ele>
        <time>2011-08-18T15:00:39Z</time>
      </trkpt>
      <trkpt lat="54.90560500882566" lon="27.190532963722944">
        <ele>181.34999999999999</ele>
        <time>2011-08-18T15:00:50Z</time>
      </trkpt>
      <trkpt lat="54.90549897775054" lon="27.190889026969671">
        <ele>180.87</ele>
        <time>2011-08-18T15:01:04Z</time>
      </trkpt>
      <trkpt lat="54.905341984704137" lon="27.191153978928924">
        <ele>181.83000000000001</ele>
        <time>2011-08-18T15:01:17Z</time>
      </trkpt>
      <trkpt lat="54.905334021896124" lon="27.191172000020742">
        <ele>181.83000000000001</ele>
        <time>2011-08-18T15:01:18Z</time>
      </trkpt>
      <trkpt lat="54.905280964449048" lon="27.191297980025411">
        <ele>182.31</ele>
        <time>2011-08-18T15:01:24Z</time>
      </trkpt>
      <trkpt lat="54.90526202134788" lon="27.191380960866809">
        <ele>182.31</ele>
        <time>2011-08-18T15:01:27Z</time>
      </trkpt>
      <trkpt lat="54.905251041054726" lon="27.191521022468805">
        <ele>182.31</ele>
        <time>2011-08-18T15:01:32Z</time>
      </trkpt>
      <trkpt lat="54.905201001092792" lon="27.191859986633062">
        <ele>182.78999999999999</ele>
        <time>2011-08-18T15:01:43Z</time>
      </trkpt>
      <trkpt lat="54.905121037736535" lon="27.192019997164607">
        <ele>182.31</ele>
        <time>2011-08-18T15:01:49Z</time>
      </trkpt>
      <trkpt lat="54.905060017481446" lon="27.19215402379632">
        <ele>182.78999999999999</ele>
        <time>2011-08-18T15:01:54Z</time>
      </trkpt>
      <trkpt lat="54.905018024146557" lon="27.192280003800988">
        <ele>182.78999999999999</ele>
        <time>2011-08-18T15:01:58Z</time>
      </trkpt>
      <trkpt lat="54.904979970306158" lon="27.192457029595971">
        <ele>183.27000000000001</ele>
        <time>2011-08-18T15:02:03Z</time>
      </trkpt>
      <trkpt lat="54.904952980577946" lon="27.192612010985613">
        <ele>183.27000000000001</ele>
        <time>2011-08-18T15:02:09Z</time>
      </trkpt>
      <trkpt lat="54.904930014163256" lon="27.193060023710132">
        <ele>183.75</ele>
        <time>2011-08-18T15:02:23Z</time>
      </trkpt>
      <trkpt lat="54.904910987243056" lon="27.193220034241676">
        <ele>185.66999999999999</ele>
        <time>2011-08-18T15:02:35Z</time>
      </trkpt>
      <trkpt lat="54.904921967536211" lon="27.193194972351193">
        <ele>182.78999999999999</ele>
        <time>2011-08-18T15:02:46Z</time>
      </trkpt>
      <trkpt lat="54.904925990849733" lon="27.193164965137839">
        <ele>183.27000000000001</ele>
        <time>2011-08-18T15:02:48Z</time>
      </trkpt>
      <trkpt lat="54.904945017769933" lon="27.192748971283436">
        <ele>183.27000000000001</ele>
        <time>2011-08-18T15:02:59Z</time>
      </trkpt>
      <trkpt lat="54.904972007498145" lon="27.192651992663741">
        <ele>182.78999999999999</ele>
        <time>2011-08-18T15:03:04Z</time>
      </trkpt>
      <trkpt lat="54.905024981126189" lon="27.192376982420683">
        <ele>182.78999999999999</ele>
        <time>2011-08-18T15:03:12Z</time>
      </trkpt>
      <trkpt lat="54.905066974461079" lon="27.192165004089475">
        <ele>182.31</ele>
        <time>2011-08-18T15:03:17Z</time>
      </trkpt>
      <trkpt lat="54.905078960582614" lon="27.192125022411346">
        <ele>182.31</ele>
        <time>2011-08-18T15:03:18Z</time>
      </trkpt>
      <trkpt lat="54.905093964189291" lon="27.192093003541231">
        <ele>178.46000000000001</ele>
        <time>2011-08-18T15:03:19Z</time>
      </trkpt>
      <trkpt lat="54.90511299110949" lon="27.19206802546978">
        <ele>182.31</ele>
        <time>2011-08-18T15:03:20Z</time>
      </trkpt>
      <trkpt lat="54.905216004699469" lon="27.191849006339908">
        <ele>182.31</ele>
        <time>2011-08-18T15:03:27Z</time>
      </trkpt>
      <trkpt lat="54.905238971114159" lon="27.191580031067133">
        <ele>182.78999999999999</ele>
        <time>2011-08-18T15:03:33Z</time>
      </trkpt>
      <trkpt lat="54.905398981645703" lon="27.191057000309229">
        <ele>182.31</ele>
        <time>2011-08-18T15:03:47Z</time>
      </trkpt>
      <trkpt lat="54.905407028272748" lon="27.191035961732268">
        <ele>181.83000000000001</ele>
        <time>2011-08-18T15:03:48Z</time>
      </trkpt>
      <trkpt lat="54.905452961102128" lon="27.190960021689534">
        <ele>181.83000000000001</ele>
        <time>2011-08-18T15:03:52Z</time>
      </trkpt>
      <trkpt lat="54.905524961650372" lon="27.190876035019755">
        <ele>180.87</ele>
        <time>2011-08-18T15:03:56Z</time>
      </trkpt>
      <trkpt lat="54.905631998553872" lon="27.190468003973365">
        <ele>180.87</ele>
        <time>2011-08-18T15:04:06Z</time>
      </trkpt>
      <trkpt lat="54.905631998553872" lon="27.190301958471537">
        <ele>181.34999999999999</ele>
        <time>2011-08-18T15:04:10Z</time>
      </trkpt>
      <trkpt lat="54.905624035745859" lon="27.189496960490942">
        <ele>180.38</ele>
        <time>2011-08-18T15:04:27Z</time>
      </trkpt>
      <trkpt lat="54.90562797524035" lon="27.189049031585455">
        <ele>180.38</ele>
        <time>2011-08-18T15:04:38Z</time>
      </trkpt>
      <trkpt lat="54.905624035745859" lon="27.18839499168098">
        <ele>180.87</ele>
        <time>2011-08-18T15:04:53Z</time>
      </trkpt>
      <trkpt lat="54.905612971633673" lon="27.188128028064966">
        <ele>180.38</ele>
        <time>2011-08-18T15:05:00Z</time>
      </trkpt>
      <trkpt lat="54.905570978298783" lon="27.18789903447032">
        <ele>180.38</ele>
        <time>2011-08-18T15:05:07Z</time>
      </trkpt>
      <trkpt lat="54.905383978039026" lon="27.187613965943456">
        <ele>180.38</ele>
        <time>2011-08-18T15:05:20Z</time>
      </trkpt>
      <trkpt lat="54.905253974720836" lon="27.187575995922089">
        <ele>180.38</ele>
        <time>2011-08-18T15:05:27Z</time>
      </trkpt>
      <trkpt lat="54.904942000284791" lon="27.187454039230943">
        <ele>181.83000000000001</ele>
        <time>2011-08-18T15:05:44Z</time>
      </trkpt>
      <trkpt lat="54.904602030292153" lon="27.187338033691049">
        <ele>183.27000000000001</ele>
        <time>2011-08-18T15:06:00Z</time>
      </trkpt>
      <trkpt lat="54.904114035889506" lon="27.187226973474026">
        <ele>183.27000000000001</ele>
        <time>2011-08-18T15:06:18Z</time>
      </trkpt>
      <trkpt lat="54.903655964881182" lon="27.187193026766181">
        <ele>183.27000000000001</ele>
        <time>2011-08-18T15:06:35Z</time>
      </trkpt>
      <trkpt lat="54.903373997658491" lon="27.187134018167853">
        <ele>182.78999999999999</ele>
        <time>2011-08-18T15:06:46Z</time>
      </trkpt>
      <trkpt lat="54.903175011277199" lon="27.187048019841313">
        <ele>183.27000000000001</ele>
        <time>2011-08-18T15:06:56Z</time>
      </trkpt>
      <trkpt lat="54.903094964101911" lon="27.187006026506424">
        <ele>183.27000000000001</ele>
        <time>2011-08-18T15:07:00Z</time>
      </trkpt>
      <trkpt lat="54.902907963842154" lon="27.187097975984216">
        <ele>182.78999999999999</ele>
        <time>2011-08-18T15:07:11Z</time>
      </trkpt>
      <trkpt lat="54.902781983837485" lon="27.187430988997221">
        <ele>183.27000000000001</ele>
        <time>2011-08-18T15:07:22Z</time>
      </trkpt>
      <trkpt lat="54.902584003284574" lon="27.187831979244947">
        <ele>184.22999999999999</ele>
        <time>2011-08-18T15:07:35Z</time>
      </trkpt>
      <trkpt lat="54.902289966121316" lon="27.188152000308037">
        <ele>184.22999999999999</ele>
        <time>2011-08-18T15:07:48Z</time>
      </trkpt>
      <trkpt lat="54.901913031935692" lon="27.188365990296006">
        <ele>185.19</ele>
        <time>2011-08-18T15:08:02Z</time>
      </trkpt>
      <trkpt lat="54.901592005044222" lon="27.188649969175458">
        <ele>185.19</ele>
        <time>2011-08-18T15:08:16Z</time>
      </trkpt>
      <trkpt lat="54.90122202783823" lon="27.188835041597486">
        <ele>185.19</ele>
        <time>2011-08-18T15:08:30Z</time>
      </trkpt>
      <trkpt lat="54.900730010122061" lon="27.189071998000145">
        <ele>184.22999999999999</ele>
        <time>2011-08-18T15:08:47Z</time>
      </trkpt>
      <trkpt lat="54.900523982942104" lon="27.189249023795128">
        <ele>184.22999999999999</ele>
        <time>2011-08-18T15:08:56Z</time>
      </trkpt>
      <trkpt lat="54.900246039032936" lon="27.18951397575438">
        <ele>184.22999999999999</ele>
        <time>2011-08-18T15:09:09Z</time>
      </trkpt>
      <trkpt lat="54.899925012141466" lon="27.18955404125154">
        <ele>184.71000000000001</ele>
        <time>2011-08-18T15:09:22Z</time>
      </trkpt>
      <trkpt lat="54.899604991078377" lon="27.18959603458643">
        <ele>185.66999999999999</ele>
        <time>2011-08-18T15:09:35Z</time>
      </trkpt>
      <trkpt lat="54.89935303106904" lon="27.189651019871235">
        <ele>186.15000000000001</ele>
        <time>2011-08-18T15:09:46Z</time>
      </trkpt>
      <trkpt lat="54.899048013612628" lon="27.189840031787753">
        <ele>187.11000000000001</ele>
        <time>2011-08-18T15:09:58Z</time>
      </trkpt>
      <trkpt lat="54.89879596978426" lon="27.189894011244178">
        <ele>188.08000000000001</ele>
        <time>2011-08-18T15:10:10Z</time>
      </trkpt>
      <trkpt lat="54.898777026683092" lon="27.189975986257195">
        <ele>188.08000000000001</ele>
        <time>2011-08-18T15:10:13Z</time>
      </trkpt>
      <trkpt lat="54.898856990039349" lon="27.190589960664511">
        <ele>187.59</ele>
        <time>2011-08-18T15:10:25Z</time>
      </trkpt>
      <trkpt lat="54.898865036666393" lon="27.190665984526277">
        <ele>187.59</ele>
        <time>2011-08-18T15:10:26Z</time>
      </trkpt>
      <trkpt lat="54.898876016959548" lon="27.190742008388042">
        <ele>187.11000000000001</ele>
        <time>2011-08-18T15:10:27Z</time>
      </trkpt>
      <trkpt lat="54.898971989750862" lon="27.191978003829718">
        <ele>185.66999999999999</ele>
        <time>2011-08-18T15:10:41Z</time>
      </trkpt>
      <trkpt lat="54.898979030549526" lon="27.192055033519864">
        <ele>186.15000000000001</ele>
        <time>2011-08-18T15:10:42Z</time>
      </trkpt>
      <trkpt lat="54.898982970044017" lon="27.192128961905837">
        <ele>186.15000000000001</ele>
        <time>2011-08-18T15:10:43Z</time>
      </trkpt>
      <trkpt lat="54.898991016671062" lon="27.192198028787971">
        <ele>186.15000000000001</ele>
        <time>2011-08-18T15:10:44Z</time>
      </trkpt>
      <trkpt lat="54.899109033867717" lon="27.19320897012949">
        <ele>185.19</ele>
        <time>2011-08-18T15:10:58Z</time>
      </trkpt>
      <trkpt lat="54.899196960031986" lon="27.194287972524762">
        <ele>184.71000000000001</ele>
        <time>2011-08-18T15:11:11Z</time>
      </trkpt>
      <trkpt lat="54.899334004148841" lon="27.195723038166761">
        <ele>183.75</ele>
        <time>2011-08-18T15:11:29Z</time>
      </trkpt>
      <trkpt lat="54.89939502440393" lon="27.196361990645528">
        <ele>182.31</ele>
        <time>2011-08-18T15:11:35Z</time>
      </trkpt>
      <trkpt lat="54.89954799413681" lon="27.197944996878505">
        <ele>181.34999999999999</ele>
        <time>2011-08-18T15:11:51Z</time>
      </trkpt>
      <trkpt lat="54.899681014940143" lon="27.199222985655069">
        <ele>181.34999999999999</ele>
        <time>2011-08-18T15:12:06Z</time>
      </trkpt>
      <trkpt lat="54.899821998551488" lon="27.20079199410975">
        <ele>180.87</ele>
        <time>2011-08-18T15:12:25Z</time>
      </trkpt>
      <trkpt lat="54.899986032396555" lon="27.202410036697984">
        <ele>180.87</ele>
        <time>2011-08-18T15:12:44Z</time>
      </trkpt>
      <trkpt lat="54.900112012401223" lon="27.203814005479217">
        <ele>181.34999999999999</ele>
        <time>2011-08-18T15:13:01Z</time>
      </trkpt>
      <trkpt lat="54.900257019326091" lon="27.205245969817042">
        <ele>182.31</ele>
        <time>2011-08-18T15:13:19Z</time>
      </trkpt>
      <trkpt lat="54.900398002937436" lon="27.206784971058369">
        <ele>183.27000000000001</ele>
        <time>2011-08-18T15:13:38Z</time>
      </trkpt>
      <trkpt lat="54.900532029569149" lon="27.208206038922071">
        <ele>184.71000000000001</ele>
        <time>2011-08-18T15:13:59Z</time>
      </trkpt>
      <trkpt lat="54.90066496655345" lon="27.209673039615154">
        <ele>185.19</ele>
        <time>2011-08-18T15:14:20Z</time>
      </trkpt>
      <trkpt lat="54.900821959599853" lon="27.211094023659825">
        <ele>185.19</ele>
        <time>2011-08-18T15:14:40Z</time>
      </trkpt>
      <trkpt lat="54.900924973189831" lon="27.212130026891828">
        <ele>185.19</ele>
        <time>2011-08-18T15:14:56Z</time>
      </trkpt>
      <trkpt lat="54.900936037302017" lon="27.212268998846412">
        <ele>185.66999999999999</ele>
        <time>2011-08-18T15:14:58Z</time>
      </trkpt>
      <trkpt lat="54.901077020913363" lon="27.213515974581242">
        <ele>185.66999999999999</ele>
        <time>2011-08-18T15:15:15Z</time>
      </trkpt>
      <trkpt lat="54.901080960407853" lon="27.213598033413291">
        <ele>185.19</ele>
        <time>2011-08-18T15:15:16Z</time>
      </trkpt>
      <trkpt lat="54.901080960407853" lon="27.213958958163857">
        <ele>184.71000000000001</ele>
        <time>2011-08-18T15:15:20Z</time>
      </trkpt>
      <trkpt lat="54.901089007034898" lon="27.214703019708395">
        <ele>183.75</ele>
        <time>2011-08-18T15:15:28Z</time>
      </trkpt>
      <trkpt lat="54.901035027578473" lon="27.216033982113004">
        <ele>181.83000000000001</ele>
        <time>2011-08-18T15:15:41Z</time>
      </trkpt>
      <trkpt lat="54.901027986779809" lon="27.216351991519332">
        <ele>181.34999999999999</ele>
        <time>2011-08-18T15:15:44Z</time>
      </trkpt>
      <trkpt lat="54.901042990386486" lon="27.217746991664171">
        <ele>181.34999999999999</ele>
        <time>2011-08-18T15:15:59Z</time>
      </trkpt>
      <trkpt lat="54.901126977056265" lon="27.218945017084479">
        <ele>180.87</ele>
        <time>2011-08-18T15:16:12Z</time>
      </trkpt>
      <trkpt lat="54.901180034503341" lon="27.22025703638792">
        <ele>180.87</ele>
        <time>2011-08-18T15:16:28Z</time>
      </trkpt>
      <trkpt lat="54.901153966784477" lon="27.220818037167192">
        <ele>180.87</ele>
        <time>2011-08-18T15:16:35Z</time>
      </trkpt>
      <trkpt lat="54.901089007034898" lon="27.221306031569839">
        <ele>180.87</ele>
        <time>2011-08-18T15:16:41Z</time>
      </trkpt>
      <trkpt lat="54.901084983721375" lon="27.221388006582856">
        <ele>181.34999999999999</ele>
        <time>2011-08-18T15:16:42Z</time>
      </trkpt>
      <trkpt lat="54.901080960407853" lon="27.221467969939113">
        <ele>181.34999999999999</ele>
        <time>2011-08-18T15:16:43Z</time>
      </trkpt>
      <trkpt lat="54.901069980114698" lon="27.22154600545764">
        <ele>181.34999999999999</ele>
        <time>2011-08-18T15:16:44Z</time>
      </trkpt>
      <trkpt lat="54.901062017306685" lon="27.221629992127419">
        <ele>180.87</ele>
        <time>2011-08-18T15:16:45Z</time>
      </trkpt>
      <trkpt lat="54.901051037013531" lon="27.221713978797197">
        <ele>180.87</ele>
        <time>2011-08-18T15:16:46Z</time>
      </trkpt>
      <trkpt lat="54.900993034243584" lon="27.222215970978141">
        <ele>181.34999999999999</ele>
        <time>2011-08-18T15:16:52Z</time>
      </trkpt>
      <trkpt lat="54.90081399679184" lon="27.223639972507954">
        <ele>181.83000000000001</ele>
        <time>2011-08-18T15:17:11Z</time>
      </trkpt>
      <trkpt lat="54.900658009573817" lon="27.224908992648125">
        <ele>181.83000000000001</ele>
        <time>2011-08-18T15:17:27Z</time>
      </trkpt>
      <trkpt lat="54.900475032627583" lon="27.226298963651061">
        <ele>180.87</ele>
        <time>2011-08-18T15:17:44Z</time>
      </trkpt>
      <trkpt lat="54.900264982134104" lon="27.227923963218927">
        <ele>179.41999999999999</ele>
        <time>2011-08-18T15:18:03Z</time>
      </trkpt>
      <trkpt lat="54.900073958560824" lon="27.229333966970444">
        <ele>179.90000000000001</ele>
        <time>2011-08-18T15:18:20Z</time>
      </trkpt>
      <trkpt lat="54.899901961907744" lon="27.230512965470552">
        <ele>180.38</ele>
        <time>2011-08-18T15:18:35Z</time>
      </trkpt>
      <trkpt lat="54.899672968313098" lon="27.232151040807366">
        <ele>179.41999999999999</ele>
        <time>2011-08-18T15:18:55Z</time>
      </trkpt>
      <trkpt lat="54.899506000801921" lon="27.233440009877086">
        <ele>179.90000000000001</ele>
        <time>2011-08-18T15:19:12Z</time>
      </trkpt>
      <trkpt lat="54.899314977228642" lon="27.234964007511735">
        <ele>178.94</ele>
        <time>2011-08-18T15:19:32Z</time>
      </trkpt>
      <trkpt lat="54.899063017219305" lon="27.236091960221529">
        <ele>178.46000000000001</ele>
        <time>2011-08-18T15:19:47Z</time>
      </trkpt>
      <trkpt lat="54.898674013093114" lon="27.237098962068558">
        <ele>177.5</ele>
        <time>2011-08-18T15:20:02Z</time>
      </trkpt>
      <trkpt lat="54.898105971515179" lon="27.238248959183693">
        <ele>177.97999999999999</ele>
        <time>2011-08-18T15:20:21Z</time>
      </trkpt>
      <trkpt lat="54.89763599820435" lon="27.239222014322877">
        <ele>177.97999999999999</ele>
        <time>2011-08-18T15:20:37Z</time>
      </trkpt>
      <trkpt lat="54.897170970216393" lon="27.240180987864733">
        <ele>178.46000000000001</ele>
        <time>2011-08-18T15:20:54Z</time>
      </trkpt>
      <trkpt lat="54.896613992750645" lon="27.241330984979868">
        <ele>178.94</ele>
        <time>2011-08-18T15:21:12Z</time>
      </trkpt>
      <trkpt lat="54.896420035511255" lon="27.241755025461316">
        <ele>178.94</ele>
        <time>2011-08-18T15:21:19Z</time>
      </trkpt>
      <trkpt lat="54.895835984498262" lon="27.242898987606168">
        <ele>178.46000000000001</ele>
        <time>2011-08-18T15:21:38Z</time>
      </trkpt>
      <trkpt lat="54.895451003685594" lon="27.243600971996784">
        <ele>178.94</ele>
        <time>2011-08-18T15:21:50Z</time>
      </trkpt>
      <trkpt lat="54.894767962396145" lon="27.24421301856637">
        <ele>179.90000000000001</ele>
        <time>2011-08-18T15:22:08Z</time>
      </trkpt>
      <trkpt lat="54.894038988277316" lon="27.244831016287208">
        <ele>179.90000000000001</ele>
        <time>2011-08-18T15:22:26Z</time>
      </trkpt>
      <trkpt lat="54.893996994942427" lon="27.244864040985703">
        <ele>179.41999999999999</ele>
        <time>2011-08-18T15:22:27Z</time>
      </trkpt>
      <trkpt lat="54.893763978034258" lon="27.245042994618416">
        <ele>179.90000000000001</ele>
        <time>2011-08-18T15:22:33Z</time>
      </trkpt>
      <trkpt lat="54.893046990036964" lon="27.24560902453959">
        <ele>180.87</ele>
        <time>2011-08-18T15:22:51Z</time>
      </trkpt>
      <trkpt lat="54.892853032797575" lon="27.245764005929232">
        <ele>180.87</ele>
        <time>2011-08-18T15:22:56Z</time>
      </trkpt>
      <trkpt lat="54.892123974859715" lon="27.246344033628702">
        <ele>180.38</ele>
        <time>2011-08-18T15:23:14Z</time>
      </trkpt>
      <trkpt lat="54.8917690012604" lon="27.246628012508154">
        <ele>180.38</ele>
        <time>2011-08-18T15:23:23Z</time>
      </trkpt>
      <trkpt lat="54.8915980104357" lon="27.246779976412654">
        <ele>184.22999999999999</ele>
        <time>2011-08-18T15:23:28Z</time>
      </trkpt>
      <trkpt lat="54.891562974080443" lon="27.246799003332853">
        <ele>179.41999999999999</ele>
        <time>2011-08-18T15:23:29Z</time>
      </trkpt>
      <trkpt lat="54.891505977138877" lon="27.246839990839362">
        <ele>186.15000000000001</ele>
        <time>2011-08-18T15:23:31Z</time>
      </trkpt>
      <trkpt lat="54.891478987410665" lon="27.246862035244703">
        <ele>178.94</ele>
        <time>2011-08-18T15:23:32Z</time>
      </trkpt>
      <trkpt lat="54.89142601378262" lon="27.246911991387606">
        <ele>179.90000000000001</ele>
        <time>2011-08-18T15:23:34Z</time>
      </trkpt>
      <trkpt lat="54.891300033777952" lon="27.247044006362557">
        <ele>179.41999999999999</ele>
        <time>2011-08-18T15:23:38Z</time>
      </trkpt>
      <trkpt lat="54.891224009916186" lon="27.247128998860717">
        <ele>179.41999999999999</ele>
        <time>2011-08-18T15:23:40Z</time>
      </trkpt>
      <trkpt lat="54.890758981928229" lon="27.248218981549144">
        <ele>178.94</ele>
        <time>2011-08-18T15:23:57Z</time>
      </trkpt>
      <trkpt lat="54.890549015253782" lon="27.24889799952507">
        <ele>177.97999999999999</ele>
        <time>2011-08-18T15:24:12Z</time>
      </trkpt>
      <trkpt lat="54.890347011387348" lon="27.249484984204173">
        <ele>177.5</ele>
        <time>2011-08-18T15:24:28Z</time>
      </trkpt>
      <trkpt lat="54.890197981148958" lon="27.249998040497303">
        <ele>177.97999999999999</ele>
        <time>2011-08-18T15:24:42Z</time>
      </trkpt>
      <trkpt lat="54.88987703807652" lon="27.250991966575384">
        <ele>177.5</ele>
        <time>2011-08-18T15:25:01Z</time>
      </trkpt>
      <trkpt lat="54.889579983428121" lon="27.251997040584683">
        <ele>177.5</ele>
        <time>2011-08-18T15:25:18Z</time>
      </trkpt>
      <trkpt lat="54.889187039807439" lon="27.253229012712836">
        <ele>177.02000000000001</ele>
        <time>2011-08-18T15:25:38Z</time>
      </trkpt>
      <trkpt lat="54.888927033171058" lon="27.254024958238006">
        <ele>177.02000000000001</ele>
        <time>2011-08-18T15:25:51Z</time>
      </trkpt>
      <trkpt lat="54.888862995430827" lon="27.254211036488414">
        <ele>176.53999999999999</ele>
        <time>2011-08-18T15:25:54Z</time>
      </trkpt>
      <trkpt lat="54.888683035969734" lon="27.254539020359516">
        <ele>176.53999999999999</ele>
        <time>2011-08-18T15:26:00Z</time>
      </trkpt>
      <trkpt lat="54.888123041018844" lon="27.254889970645308">
        <ele>177.5</ele>
        <time>2011-08-18T15:26:16Z</time>
      </trkpt>
      <trkpt lat="54.887383002787828" lon="27.25517101585865">
        <ele>177.97999999999999</ele>
        <time>2011-08-18T15:26:35Z</time>
      </trkpt>
      <trkpt lat="54.886780008673668" lon="27.255753977224231">
        <ele>177.97999999999999</ele>
        <time>2011-08-18T15:26:53Z</time>
      </trkpt>
      <trkpt lat="54.886210961267352" lon="27.256578002125025">
        <ele>178.46000000000001</ele>
        <time>2011-08-18T15:27:12Z</time>
      </trkpt>
      <trkpt lat="54.885737970471382" lon="27.257192982360721">
        <ele>178.94</ele>
        <time>2011-08-18T15:27:28Z</time>
      </trkpt>
      <trkpt lat="54.885246036574244" lon="27.257833024486899">
        <ele>179.90000000000001</ele>
        <time>2011-08-18T15:27:44Z</time>
      </trkpt>
      <trkpt lat="54.884559977799654" lon="27.258698958903551">
        <ele>180.87</ele>
        <time>2011-08-18T15:28:04Z</time>
      </trkpt>
      <trkpt lat="54.883983973413706" lon="27.259234981611371">
        <ele>181.34999999999999</ele>
        <time>2011-08-18T15:28:20Z</time>
      </trkpt>
      <trkpt lat="54.883514000102878" lon="27.259652987122536">
        <ele>181.83000000000001</ele>
        <time>2011-08-18T15:28:35Z</time>
      </trkpt>
      <trkpt lat="54.883434036746621" lon="27.260336028411984">
        <ele>182.31</ele>
        <time>2011-08-18T15:28:47Z</time>
      </trkpt>
      <trkpt lat="54.883426995947957" lon="27.261376976966858">
        <ele>181.83000000000001</ele>
        <time>2011-08-18T15:29:03Z</time>
      </trkpt>
      <trkpt lat="54.883400006219745" lon="27.262395964935422">
        <ele>181.83000000000001</ele>
        <time>2011-08-18T15:29:18Z</time>
      </trkpt>
      <trkpt lat="54.883365975692868" lon="27.263697003945708">
        <ele>181.83000000000001</ele>
        <time>2011-08-18T15:29:37Z</time>
      </trkpt>
      <trkpt lat="54.883319959044456" lon="27.264699982479215">
        <ele>182.78999999999999</ele>
        <time>2011-08-18T15:29:52Z</time>
      </trkpt>
      <trkpt lat="54.883254999294877" lon="27.265964979305863">
        <ele>183.75</ele>
        <time>2011-08-18T15:30:11Z</time>
      </trkpt>
      <trkpt lat="54.883204959332943" lon="27.26728999055922">
        <ele>183.75</ele>
        <time>2011-08-18T15:30:30Z</time>
      </trkpt>
      <trkpt lat="54.883193979039788" lon="27.267692992463708">
        <ele>183.75</ele>
        <time>2011-08-18T15:30:36Z</time>
      </trkpt>
      <trkpt lat="54.883193979039788" lon="27.267978982999921">
        <ele>183.75</ele>
        <time>2011-08-18T15:30:40Z</time>
      </trkpt>
      <trkpt lat="54.883193979039788" lon="27.268052995204926">
        <ele>183.75</ele>
        <time>2011-08-18T15:30:41Z</time>
      </trkpt>
      <trkpt lat="54.883198002353311" lon="27.26812600158155">
        <ele>183.75</ele>
        <time>2011-08-18T15:30:42Z</time>
      </trkpt>
      <trkpt lat="54.883244019001722" lon="27.269539022818208">
        <ele>183.27000000000001</ele>
        <time>2011-08-18T15:31:01Z</time>
      </trkpt>
      <trkpt lat="54.883281989023089" lon="27.270546024665236">
        <ele>182.78999999999999</ele>
        <time>2011-08-18T15:31:17Z</time>
      </trkpt>
      <trkpt lat="54.883323982357979" lon="27.271664002910256">
        <ele>182.31</ele>
        <time>2011-08-18T15:31:34Z</time>
      </trkpt>
      <trkpt lat="54.88336899317801" lon="27.272782986983657">
        <ele>181.83000000000001</ele>
        <time>2011-08-18T15:31:49Z</time>
      </trkpt>
      <trkpt lat="54.883419033139944" lon="27.273836005479097">
        <ele>182.31</ele>
        <time>2011-08-18T15:32:05Z</time>
      </trkpt>
      <trkpt lat="54.883347032591701" lon="27.274104980751872">
        <ele>181.83000000000001</ele>
        <time>2011-08-18T15:32:10Z</time>
      </trkpt>
      <trkpt lat="54.883316019549966" lon="27.274131970480084">
        <ele>181.83000000000001</ele>
        <time>2011-08-18T15:32:11Z</time>
      </trkpt>
      <trkpt lat="54.883277965709567" lon="27.274155020713806">
        <ele>181.83000000000001</ele>
        <time>2011-08-18T15:32:12Z</time>
      </trkpt>
      <trkpt lat="54.883244019001722" lon="27.274175975471735">
        <ele>181.83000000000001</ele>
        <time>2011-08-18T15:32:13Z</time>
      </trkpt>
      <trkpt lat="54.883208982646465" lon="27.274197014048696">
        <ele>182.31</ele>
        <time>2011-08-18T15:32:14Z</time>
      </trkpt>
      <trkpt lat="54.883094988763332" lon="27.274260967969894">
        <ele>182.31</ele>
        <time>2011-08-18T15:32:18Z</time>
      </trkpt>
      <trkpt lat="54.883083002641797" lon="27.274304972961545">
        <ele>181.83000000000001</ele>
        <time>2011-08-18T15:32:19Z</time>
      </trkpt>
      <trkpt lat="54.883079985156655" lon="27.274360964074731">
        <ele>181.83000000000001</ele>
        <time>2011-08-18T15:32:20Z</time>
      </trkpt>
      <trkpt lat="54.882984012365341" lon="27.275056997314095">
        <ele>180.87</ele>
        <time>2011-08-18T15:32:32Z</time>
      </trkpt>
      <trkpt lat="54.882949981838465" lon="27.275188006460667">
        <ele>180.38</ele>
        <time>2011-08-18T15:32:35Z</time>
      </trkpt>
      <trkpt lat="54.882888961583376" lon="27.275210972875357">
        <ele>180.38</ele>
        <time>2011-08-18T15:32:46Z</time>
      </trkpt>
      <trkpt lat="54.882876975461841" lon="27.275210972875357">
        <ele>180.38</ele>
        <time>2011-08-18T15:33:01Z</time>
      </trkpt>
      <trkpt lat="54.882876975461841" lon="27.275210972875357">
        <ele>180.87</ele>
        <time>2011-08-18T15:33:22Z</time>
      </trkpt>
      <trkpt lat="54.882876975461841" lon="27.275208039209247">
        <ele>179.90000000000001</ele>
        <time>2011-08-18T15:33:50Z</time>
      </trkpt>
      <trkpt lat="54.882874041795731" lon="27.275208961218596">
        <ele>180.38</ele>
        <time>2011-08-18T15:34:19Z</time>
      </trkpt>
      <trkpt lat="54.882874041795731" lon="27.275208961218596">
        <ele>180.38</ele>
        <time>2011-08-18T15:34:45Z</time>
      </trkpt>
      <trkpt lat="54.882870018482208" lon="27.275210972875357">
        <ele>180.87</ele>
        <time>2011-08-18T15:35:16Z</time>
      </trkpt>
      <trkpt lat="54.882874041795731" lon="27.275208961218596">
        <ele>180.87</ele>
        <time>2011-08-18T15:35:46Z</time>
      </trkpt>
      <trkpt lat="54.882874041795731" lon="27.275208039209247">
        <ele>180.87</ele>
        <time>2011-08-18T15:36:11Z</time>
      </trkpt>
      <trkpt lat="54.882874041795731" lon="27.275208039209247">
        <ele>180.38</ele>
        <time>2011-08-18T15:36:40Z</time>
      </trkpt>
      <trkpt lat="54.882874041795731" lon="27.275208961218596">
        <ele>180.87</ele>
        <time>2011-08-18T15:37:09Z</time>
      </trkpt>
      <trkpt lat="54.882949981838465" lon="27.275221031159163">
        <ele>180.87</ele>
        <time>2011-08-18T15:37:39Z</time>
      </trkpt>
      <trkpt lat="54.882954005151987" lon="27.275204015895724">
        <ele>180.38</ele>
        <time>2011-08-18T15:38:01Z</time>
      </trkpt>
      <trkpt lat="54.882960962131619" lon="27.275190018117428">
        <ele>180.87</ele>
        <time>2011-08-18T15:38:31Z</time>
      </trkpt>
      <trkpt lat="54.882934978231788" lon="27.27525900118053">
        <ele>180.87</ele>
        <time>2011-08-18T15:39:01Z</time>
      </trkpt>
      <trkpt lat="54.882934978231788" lon="27.27525900118053">
        <ele>181.34999999999999</ele>
        <time>2011-08-18T15:39:31Z</time>
      </trkpt>
      <trkpt lat="54.882942019030452" lon="27.275291020050645">
        <ele>180.38</ele>
        <time>2011-08-18T15:39:59Z</time>
      </trkpt>
      <trkpt lat="54.883015025407076" lon="27.275307029485703">
        <ele>180.38</ele>
        <time>2011-08-18T15:40:26Z</time>
      </trkpt>
      <trkpt lat="54.883037991821766" lon="27.275228993967175">
        <ele>180.38</ele>
        <time>2011-08-18T15:40:58Z</time>
      </trkpt>
      <trkpt lat="54.883033968508244" lon="27.275210972875357">
        <ele>180.38</ele>
        <time>2011-08-18T15:41:26Z</time>
      </trkpt>
      <trkpt lat="54.88304503262043" lon="27.275206027552485">
        <ele>180.38</ele>
        <time>2011-08-18T15:41:56Z</time>
      </trkpt>
      <trkpt lat="54.88304503262043" lon="27.275208961218596">
        <ele>180.38</ele>
        <time>2011-08-18T15:42:25Z</time>
      </trkpt>
      <trkpt lat="54.88304503262043" lon="27.275208961218596">
        <ele>180.38</ele>
        <time>2011-08-18T15:42:53Z</time>
      </trkpt>
      <trkpt lat="54.883041009306908" lon="27.275222958996892">
        <ele>179.90000000000001</ele>
        <time>2011-08-18T15:43:23Z</time>
      </trkpt>
      <trkpt lat="54.883041009306908" lon="27.275221031159163">
        <ele>180.38</ele>
        <time>2011-08-18T15:43:57Z</time>
      </trkpt>
      <trkpt lat="54.88304503262043" lon="27.275221031159163">
        <ele>179.90000000000001</ele>
        <time>2011-08-18T15:44:30Z</time>
      </trkpt>
      <trkpt lat="54.88304503262043" lon="27.275221031159163">
        <ele>180.38</ele>
        <time>2011-08-18T15:44:59Z</time>
      </trkpt>
      <trkpt lat="54.88304503262043" lon="27.275221031159163">
        <ele>179.90000000000001</ele>
        <time>2011-08-18T15:45:28Z</time>
      </trkpt>
      <trkpt lat="54.883041009306908" lon="27.275224970653653">
        <ele>180.38</ele>
        <time>2011-08-18T15:46:00Z</time>
      </trkpt>
      <trkpt lat="54.883041009306908" lon="27.275226982310414">
        <ele>179.90000000000001</ele>
        <time>2011-08-18T15:46:31Z</time>
      </trkpt>
      <trkpt lat="54.883041009306908" lon="27.275228993967175">
        <ele>179.90000000000001</ele>
        <time>2011-08-18T15:47:04Z</time>
      </trkpt>
      <trkpt lat="54.88304503262043" lon="27.275229999795556">
        <ele>179.90000000000001</ele>
        <time>2011-08-18T15:47:41Z</time>
      </trkpt>
      <trkpt lat="54.88304503262043" lon="27.275229999795556">
        <ele>179.90000000000001</ele>
        <time>2011-08-18T15:48:03Z</time>
      </trkpt>
      <trkpt lat="54.883041009306908" lon="27.275232011452317">
        <ele>179.90000000000001</ele>
        <time>2011-08-18T15:48:19Z</time>
      </trkpt>
      <trkpt lat="54.883030029013753" lon="27.275261012837291">
        <ele>180.38</ele>
        <time>2011-08-18T15:48:21Z</time>
      </trkpt>
      <trkpt lat="54.882979989051819" lon="27.275155987590551">
        <ele>180.38</ele>
        <time>2011-08-18T15:48:32Z</time>
      </trkpt>
      <trkpt lat="54.88306799903512" lon="27.274449979886413">
        <ele>181.34999999999999</ele>
        <time>2011-08-18T15:48:48Z</time>
      </trkpt>
      <trkpt lat="54.88304503262043" lon="27.274315031245351">
        <ele>180.87</ele>
        <time>2011-08-18T15:48:51Z</time>
      </trkpt>
      <trkpt lat="54.882954005151987" lon="27.2742710262537">
        <ele>181.83000000000001</ele>
        <time>2011-08-18T15:48:55Z</time>
      </trkpt>
      <trkpt lat="54.882710007950664" lon="27.274222997948527">
        <ele>181.83000000000001</ele>
        <time>2011-08-18T15:49:04Z</time>
      </trkpt>
      <trkpt lat="54.882590984925628" lon="27.274220986291766">
        <ele>181.83000000000001</ele>
        <time>2011-08-18T15:49:09Z</time>
      </trkpt>
      <trkpt lat="54.882083963602781" lon="27.274148985743523">
        <ele>181.83000000000001</ele>
        <time>2011-08-18T15:49:23Z</time>
      </trkpt>
      <trkpt lat="54.881718009710312" lon="27.274126019328833">
        <ele>182.31</ele>
        <time>2011-08-18T15:49:32Z</time>
      </trkpt>
      <trkpt lat="54.881233032792807" lon="27.27403499186039">
        <ele>181.83000000000001</ele>
        <time>2011-08-18T15:49:44Z</time>
      </trkpt>
      <trkpt lat="54.88074897788465" lon="27.274000039324164">
        <ele>181.34999999999999</ele>
        <time>2011-08-18T15:49:58Z</time>
      </trkpt>
      <trkpt lat="54.880741015076637" lon="27.273994004353881">
        <ele>180.87</ele>
        <time>2011-08-18T15:50:15Z</time>
      </trkpt>
      <trkpt lat="54.880730034783483" lon="27.273974977433681">
        <ele>181.34999999999999</ele>
        <time>2011-08-18T15:50:48Z</time>
      </trkpt>
      <trkpt lat="54.880730034783483" lon="27.273974977433681">
        <ele>181.34999999999999</ele>
        <time>2011-08-18T15:50:49Z</time>
      </trkpt>
      <trkpt lat="54.880714025348425" lon="27.273979000747204">
        <ele>180.87</ele>
        <time>2011-08-18T15:50:51Z</time>
      </trkpt>
      <trkpt lat="54.88057698123157" lon="27.273963997140527">
        <ele>181.34999999999999</ele>
        <time>2011-08-18T15:51:01Z</time>
      </trkpt>
      <trkpt lat="54.880519984290004" lon="27.273956034332514">
        <ele>181.34999999999999</ele>
        <time>2011-08-18T15:51:17Z</time>
      </trkpt>
      <trkpt lat="54.880519984290004" lon="27.273956034332514">
        <ele>181.34999999999999</ele>
        <time>2011-08-18T15:51:42Z</time>
      </trkpt>
      <trkpt lat="54.880507998168468" lon="27.273963997140527">
        <ele>181.34999999999999</ele>
        <time>2011-08-18T15:51:57Z</time>
      </trkpt>
      <trkpt lat="54.880379000678658" lon="27.273976989090443">
        <ele>181.34999999999999</ele>
        <time>2011-08-18T15:52:12Z</time>
      </trkpt>
      <trkpt lat="54.880379000678658" lon="27.273976989090443">
        <ele>181.34999999999999</ele>
        <time>2011-08-18T15:52:42Z</time>
      </trkpt>
      <trkpt lat="54.880379000678658" lon="27.273976989090443">
        <ele>181.34999999999999</ele>
        <time>2011-08-18T15:53:13Z</time>
      </trkpt>
      <trkpt lat="54.880379000678658" lon="27.27397296577692">
        <ele>181.34999999999999</ele>
        <time>2011-08-18T15:53:30Z</time>
      </trkpt>
      <trkpt lat="54.880341030657291" lon="27.273968020454049">
        <ele>180.87</ele>
        <time>2011-08-18T15:53:33Z</time>
      </trkpt>
      <trkpt lat="54.879874996840954" lon="27.273957962170243">
        <ele>179.90000000000001</ele>
        <time>2011-08-18T15:53:48Z</time>
      </trkpt>
      <trkpt lat="54.879184998571873" lon="27.27394899353385">
        <ele>179.90000000000001</ele>
        <time>2011-08-18T15:54:05Z</time>
      </trkpt>
      <trkpt lat="54.878924991935492" lon="27.27409902960062">
        <ele>179.41999999999999</ele>
        <time>2011-08-18T15:54:12Z</time>
      </trkpt>
      <trkpt lat="54.878890961408615" lon="27.274133982136846">
        <ele>179.41999999999999</ele>
        <time>2011-08-18T15:54:13Z</time>
      </trkpt>
      <trkpt lat="54.878734974190593" lon="27.274291981011629">
        <ele>179.41999999999999</ele>
        <time>2011-08-18T15:54:17Z</time>
      </trkpt>
      <trkpt lat="54.878695998340845" lon="27.274343026801944">
        <ele>178.94</ele>
        <time>2011-08-18T15:54:18Z</time>
      </trkpt>
      <trkpt lat="54.878658028319478" lon="27.274397006258368">
        <ele>178.94</ele>
        <time>2011-08-18T15:54:19Z</time>
      </trkpt>
      <trkpt lat="54.878619974479079" lon="27.274445034563541">
        <ele>179.90000000000001</ele>
        <time>2011-08-18T15:54:20Z</time>
      </trkpt>
      <trkpt lat="54.87857798114419" lon="27.274488033726811">
        <ele>178.46000000000001</ele>
        <time>2011-08-18T15:54:21Z</time>
      </trkpt>
      <trkpt lat="54.877898963168263" lon="27.275353968143463">
        <ele>178.94</ele>
        <time>2011-08-18T15:54:38Z</time>
      </trkpt>
      <trkpt lat="54.877148028463125" lon="27.276292992755771">
        <ele>178.94</ele>
        <time>2011-08-18T15:54:54Z</time>
      </trkpt>
      <trkpt lat="54.876324003562331" lon="27.277625966817141">
        <ele>178.94</ele>
        <time>2011-08-18T15:55:14Z</time>
      </trkpt>
      <trkpt lat="54.875430995598435" lon="27.279133033007383">
        <ele>178.46000000000001</ele>
        <time>2011-08-18T15:55:35Z</time>
      </trkpt>
      <trkpt lat="54.874756000936031" lon="27.279751030728221">
        <ele>179.41999999999999</ele>
        <time>2011-08-18T15:55:49Z</time>
      </trkpt>
      <trkpt lat="54.874702021479607" lon="27.279784977436066">
        <ele>179.41999999999999</ele>
        <time>2011-08-18T15:55:50Z</time>
      </trkpt>
      <trkpt lat="54.873692002147436" lon="27.280303984880447">
        <ele>180.38</ele>
        <time>2011-08-18T15:56:09Z</time>
      </trkpt>
      <trkpt lat="54.872692041099072" lon="27.28082500398159">
        <ele>180.87</ele>
        <time>2011-08-18T15:56:28Z</time>
      </trkpt>
      <trkpt lat="54.871963988989592" lon="27.281162040308118">
        <ele>180.38</ele>
        <time>2011-08-18T15:56:42Z</time>
      </trkpt>
      <trkpt lat="54.870910970494151" lon="27.281665960326791">
        <ele>180.87</ele>
        <time>2011-08-18T15:57:01Z</time>
      </trkpt>
      <trkpt lat="54.869677992537618" lon="27.282155966386199">
        <ele>179.90000000000001</ele>
        <time>2011-08-18T15:57:22Z</time>
      </trkpt>
      <trkpt lat="54.868748020380735" lon="27.282042978331447">
        <ele>178.46000000000001</ele>
        <time>2011-08-18T15:57:37Z</time>
      </trkpt>
      <trkpt lat="54.867644961923361" lon="27.281792024150491">
        <ele>178.46000000000001</ele>
        <time>2011-08-18T15:57:57Z</time>
      </trkpt>
      <trkpt lat="54.866623040288687" lon="27.281568981707096">
        <ele>178.46000000000001</ele>
        <time>2011-08-18T15:58:16Z</time>
      </trkpt>
      <trkpt lat="54.865570021793246" lon="27.28133998811245">
        <ele>178.94</ele>
        <time>2011-08-18T15:58:36Z</time>
      </trkpt>
      <trkpt lat="54.86454801633954" lon="27.281093979254365">
        <ele>180.38</ele>
        <time>2011-08-18T15:58:57Z</time>
      </trkpt>
      <trkpt lat="54.863734971731901" lon="27.280928017571568">
        <ele>181.34999999999999</ele>
        <time>2011-08-18T15:59:14Z</time>
      </trkpt>
      <trkpt lat="54.862914970144629" lon="27.280759960412979">
        <ele>181.83000000000001</ele>
        <time>2011-08-18T15:59:31Z</time>
      </trkpt>
      <trkpt lat="54.862049035727978" lon="27.280571032315493">
        <ele>181.34999999999999</ele>
        <time>2011-08-18T15:59:47Z</time>
      </trkpt>
      <trkpt lat="54.861392984166741" lon="27.28043700568378">
        <ele>181.34999999999999</ele>
        <time>2011-08-18T15:59:59Z</time>
      </trkpt>
      <trkpt lat="54.861137000843883" lon="27.280382020398974">
        <ele>181.34999999999999</ele>
        <time>2011-08-18T16:00:04Z</time>
      </trkpt>
      <trkpt lat="54.861091990023851" lon="27.280358970165253">
        <ele>180.87</ele>
        <time>2011-08-18T16:00:05Z</time>
      </trkpt>
      <trkpt lat="54.861042033880949" lon="27.280345978215337">
        <ele>181.34999999999999</ele>
        <time>2011-08-18T16:00:06Z</time>
      </trkpt>
      <trkpt lat="54.860165035352111" lon="27.280173981562257">
        <ele>181.34999999999999</ele>
        <time>2011-08-18T16:00:22Z</time>
      </trkpt>
      <trkpt lat="54.859070023521781" lon="27.279931996017694">
        <ele>181.83000000000001</ele>
        <time>2011-08-18T16:00:41Z</time>
      </trkpt>
      <trkpt lat="54.858054975047708" lon="27.279720017686486">
        <ele>181.83000000000001</ele>
        <time>2011-08-18T16:00:59Z</time>
      </trkpt>
      <trkpt lat="54.856788972392678" lon="27.279456993564963">
        <ele>181.34999999999999</ele>
        <time>2011-08-18T16:01:21Z</time>
      </trkpt>
      <trkpt lat="54.855732014402747" lon="27.279227999970317">
        <ele>180.87</ele>
        <time>2011-08-18T16:01:40Z</time>
      </trkpt>
      <trkpt lat="54.854476992040873" lon="27.278959024697542">
        <ele>180.38</ele>
        <time>2011-08-18T16:02:03Z</time>
      </trkpt>
      <trkpt lat="54.853924037888646" lon="27.278838995844126">
        <ele>179.90000000000001</ele>
        <time>2011-08-18T16:02:13Z</time>
      </trkpt>
      <trkpt lat="54.853240996599197" lon="27.278691977262497">
        <ele>179.41999999999999</ele>
        <time>2011-08-18T16:02:30Z</time>
      </trkpt>
      <trkpt lat="54.852546975016594" lon="27.278530038893223">
        <ele>178.46000000000001</ele>
        <time>2011-08-18T16:02:50Z</time>
      </trkpt>
      <trkpt lat="54.85245100222528" lon="27.278496008366346">
        <ele>174.62</ele>
        <time>2011-08-18T16:02:57Z</time>
      </trkpt>
      <trkpt lat="54.85245100222528" lon="27.278496008366346">
        <ele>175.58000000000001</ele>
        <time>2011-08-18T16:02:58Z</time>
      </trkpt>
      <trkpt lat="54.85245100222528" lon="27.278496008366346">
        <ele>180.38</ele>
        <time>2011-08-18T16:03:00Z</time>
      </trkpt>
      <trkpt lat="54.85245100222528" lon="27.278496008366346">
        <ele>177.02000000000001</ele>
        <time>2011-08-18T16:03:01Z</time>
      </trkpt>
      <trkpt lat="54.85245100222528" lon="27.278496008366346">
        <ele>179.41999999999999</ele>
        <time>2011-08-18T16:03:04Z</time>
      </trkpt>
      <trkpt lat="54.85245100222528" lon="27.278496008366346">
        <ele>176.06</ele>
        <time>2011-08-18T16:03:06Z</time>
      </trkpt>
      <trkpt lat="54.85245100222528" lon="27.278496008366346">
        <ele>177.02000000000001</ele>
        <time>2011-08-18T16:03:07Z</time>
      </trkpt>
      <trkpt lat="54.85245100222528" lon="27.278496008366346">
        <ele>179.90000000000001</ele>
        <time>2011-08-18T16:03:10Z</time>
      </trkpt>
      <trkpt lat="54.85245100222528" lon="27.278496008366346">
        <ele>176.53999999999999</ele>
        <time>2011-08-18T16:03:16Z</time>
      </trkpt>
      <trkpt lat="54.85245100222528" lon="27.278496008366346">
        <ele>177.02000000000001</ele>
        <time>2011-08-18T16:03:17Z</time>
      </trkpt>
      <trkpt lat="54.85245100222528" lon="27.278496008366346">
        <ele>178.46000000000001</ele>
        <time>2011-08-18T16:03:19Z</time>
      </trkpt>
      <trkpt lat="54.85245100222528" lon="27.278496008366346">
        <ele>177.02000000000001</ele>
        <time>2011-08-18T16:03:22Z</time>
      </trkpt>
      <trkpt lat="54.85245100222528" lon="27.278493996709585">
        <ele>177.5</ele>
        <time>2011-08-18T16:03:50Z</time>
      </trkpt>
      <trkpt lat="54.85245100222528" lon="27.278493996709585">
        <ele>178.46000000000001</ele>
        <time>2011-08-18T16:03:54Z</time>
      </trkpt>
      <trkpt lat="54.85245100222528" lon="27.278493996709585">
        <ele>179.41999999999999</ele>
        <time>2011-08-18T16:04:13Z</time>
      </trkpt>
      <trkpt lat="54.852455025538802" lon="27.278486033901572">
        <ele>178.46000000000001</ele>
        <time>2011-08-18T16:04:29Z</time>
      </trkpt>
      <trkpt lat="54.852401968091726" lon="27.278496008366346">
        <ele>178.46000000000001</ele>
        <time>2011-08-18T16:04:33Z</time>
      </trkpt>
      <trkpt lat="54.851916991174221" lon="27.27839701808989">
        <ele>178.94</ele>
        <time>2011-08-18T16:04:46Z</time>
      </trkpt>
      <trkpt lat="54.851490017026663" lon="27.278313031420112">
        <ele>178.94</ele>
        <time>2011-08-18T16:04:55Z</time>
      </trkpt>
      <trkpt lat="54.850547974929214" lon="27.278097029775381">
        <ele>178.94</ele>
        <time>2011-08-18T16:05:14Z</time>
      </trkpt>
      <trkpt lat="54.849730990827084" lon="27.277616998180747">
        <ele>178.94</ele>
        <time>2011-08-18T16:05:31Z</time>
      </trkpt>
      <trkpt lat="54.848704962059855" lon="27.276824992150068">
        <ele>179.90000000000001</ele>
        <time>2011-08-18T16:05:52Z</time>
      </trkpt>
      <trkpt lat="54.847984034568071" lon="27.276277989149094">
        <ele>179.41999999999999</ele>
        <time>2011-08-18T16:06:07Z</time>
      </trkpt>
      <trkpt lat="54.847237039357424" lon="27.275756970047951">
        <ele>178.94</ele>
        <time>2011-08-18T16:06:22Z</time>
      </trkpt>
      <trkpt lat="54.846195001155138" lon="27.274973010644317">
        <ele>178.94</ele>
        <time>2011-08-18T16:06:44Z</time>
      </trkpt>
      <trkpt lat="54.845180958509445" lon="27.274195002391934">
        <ele>178.94</ele>
        <time>2011-08-18T16:07:05Z</time>
      </trkpt>
      <trkpt lat="54.84420002438128" lon="27.273439038544893">
        <ele>178.46000000000001</ele>
        <time>2011-08-18T16:07:25Z</time>
      </trkpt>
      <trkpt lat="54.843319002538919" lon="27.272778963670135">
        <ele>178.94</ele>
        <time>2011-08-18T16:07:43Z</time>
      </trkpt>
      <trkpt lat="54.842437980696559" lon="27.272112015634775">
        <ele>177.97999999999999</ele>
        <time>2011-08-18T16:08:01Z</time>
      </trkpt>
      <trkpt lat="54.841620996594429" lon="27.271487982943654">
        <ele>177.02000000000001</ele>
        <time>2011-08-18T16:08:17Z</time>
      </trkpt>
      <trkpt lat="54.840941978618503" lon="27.270953971892595">
        <ele>177.5</ele>
        <time>2011-08-18T16:08:31Z</time>
      </trkpt>
      <trkpt lat="54.840446021407843" lon="27.27057795971632">
        <ele>177.97999999999999</ele>
        <time>2011-08-18T16:08:41Z</time>
      </trkpt>
      <trkpt lat="54.839954003691673" lon="27.270181998610497">
        <ele>177.97999999999999</ele>
        <time>2011-08-18T16:08:51Z</time>
      </trkpt>
      <trkpt lat="54.838912971317768" lon="27.269357973709702">
        <ele>177.5</ele>
        <time>2011-08-18T16:09:11Z</time>
      </trkpt>
      <trkpt lat="54.838158013299108" lon="27.268783980980515">
        <ele>177.02000000000001</ele>
        <time>2011-08-18T16:09:26Z</time>
      </trkpt>
      <trkpt lat="54.837401965633035" lon="27.268200013786554">
        <ele>177.02000000000001</ele>
        <time>2011-08-18T16:09:41Z</time>
      </trkpt>
      <trkpt lat="54.836497977375984" lon="27.267520995810628">
        <ele>176.53999999999999</ele>
        <time>2011-08-18T16:09:59Z</time>
      </trkpt>
      <trkpt lat="54.835780989378691" lon="27.266955971717834">
        <ele>176.53999999999999</ele>
        <time>2011-08-18T16:10:14Z</time>
      </trkpt>
      <trkpt lat="54.834815980866551" lon="27.2661910392344">
        <ele>177.02000000000001</ele>
        <time>2011-08-18T16:10:35Z</time>
      </trkpt>
      <trkpt lat="54.833885002881289" lon="27.265475979074836">
        <ele>177.02000000000001</ele>
        <time>2011-08-18T16:10:55Z</time>
      </trkpt>
      <trkpt lat="54.833153011277318" lon="27.264911960810423">
        <ele>177.5</ele>
        <time>2011-08-18T16:11:12Z</time>
      </trkpt>
      <trkpt lat="54.832291016355157" lon="27.264369986951351">
        <ele>177.97999999999999</ele>
        <time>2011-08-18T16:11:31Z</time>
      </trkpt>
      <trkpt lat="54.831435978412628" lon="27.263951981440187">
        <ele>178.94</ele>
        <time>2011-08-18T16:11:49Z</time>
      </trkpt>
      <trkpt lat="54.830669034272432" lon="27.263584015890956">
        <ele>179.41999999999999</ele>
        <time>2011-08-18T16:12:06Z</time>
      </trkpt>
      <trkpt lat="54.829982975497842" lon="27.263237005099654">
        <ele>179.90000000000001</ele>
        <time>2011-08-18T16:12:21Z</time>
      </trkpt>
      <trkpt lat="54.829082004725933" lon="27.262791004031897">
        <ele>179.90000000000001</ele>
        <time>2011-08-18T16:12:40Z</time>
      </trkpt>
      <trkpt lat="54.828552016988397" lon="27.262526974081993">
        <ele>179.90000000000001</ele>
        <time>2011-08-18T16:12:51Z</time>
      </trkpt>
      <trkpt lat="54.82787299901247" lon="27.262214999645948">
        <ele>179.90000000000001</ele>
        <time>2011-08-18T16:13:04Z</time>
      </trkpt>
      <trkpt lat="54.827030031010509" lon="27.261792970821261">
        <ele>179.90000000000001</ele>
        <time>2011-08-18T16:13:20Z</time>
      </trkpt>
      <trkpt lat="54.82604599557817" lon="27.261330038309097">
        <ele>180.38</ele>
        <time>2011-08-18T16:13:38Z</time>
      </trkpt>
      <trkpt lat="54.825085010379553" lon="27.260881019756198">
        <ele>180.38</ele>
        <time>2011-08-18T16:13:55Z</time>
      </trkpt>
      <trkpt lat="54.824679996818304" lon="27.260817987844348">
        <ele>180.38</ele>
        <time>2011-08-18T16:14:07Z</time>
      </trkpt>
      <trkpt lat="54.824428958818316" lon="27.260710028931499">
        <ele>180.87</ele>
        <time>2011-08-18T16:14:20Z</time>
      </trkpt>
      <trkpt lat="54.824420996010303" lon="27.260706005617976">
        <ele>180.87</ele>
        <time>2011-08-18T16:14:34Z</time>
      </trkpt>
      <trkpt lat="54.824420996010303" lon="27.260706005617976">
        <ele>180.38</ele>
        <time>2011-08-18T16:14:53Z</time>
      </trkpt>
      <trkpt lat="54.824405992403626" lon="27.260695025324821">
        <ele>180.87</ele>
        <time>2011-08-18T16:15:23Z</time>
      </trkpt>
      <trkpt lat="54.824394006282091" lon="27.260696031153202">
        <ele>180.38</ele>
        <time>2011-08-18T16:15:43Z</time>
      </trkpt>
      <trkpt lat="54.824394006282091" lon="27.260696031153202">
        <ele>180.38</ele>
        <time>2011-08-18T16:15:58Z</time>
      </trkpt>
      <trkpt lat="54.824394006282091" lon="27.260696031153202">
        <ele>179.90000000000001</ele>
        <time>2011-08-18T16:16:16Z</time>
      </trkpt>
      <trkpt lat="54.824383025988936" lon="27.260699970647693">
        <ele>180.38</ele>
        <time>2011-08-18T16:16:46Z</time>
      </trkpt>
      <trkpt lat="54.824371039867401" lon="27.260699970647693">
        <ele>179.90000000000001</ele>
        <time>2011-08-18T16:17:22Z</time>
      </trkpt>
      <trkpt lat="54.824359975755215" lon="27.260701982304454">
        <ele>180.38</ele>
        <time>2011-08-18T16:17:55Z</time>
      </trkpt>
      <trkpt lat="54.824347989633679" lon="27.260697958990932">
        <ele>179.90000000000001</ele>
        <time>2011-08-18T16:18:31Z</time>
      </trkpt>
      <trkpt lat="54.824317982420325" lon="27.260686978697777">
        <ele>180.38</ele>
        <time>2011-08-18T16:19:11Z</time>
      </trkpt>
      <trkpt lat="54.824317982420325" lon="27.260686978697777">
        <ele>180.38</ele>
        <time>2011-08-18T16:19:35Z</time>
      </trkpt>
      <trkpt lat="54.824299039319158" lon="27.260684967041016">
        <ele>180.87</ele>
        <time>2011-08-18T16:19:54Z</time>
      </trkpt>
      <trkpt lat="54.824299039319158" lon="27.260684967041016">
        <ele>180.87</ele>
        <time>2011-08-18T16:20:07Z</time>
      </trkpt>
      <trkpt lat="54.824286969378591" lon="27.260668035596609">
        <ele>181.34999999999999</ele>
        <time>2011-08-18T16:20:14Z</time>
      </trkpt>
      <trkpt lat="54.823895031586289" lon="27.260490003973246">
        <ele>181.34999999999999</ele>
        <time>2011-08-18T16:20:27Z</time>
      </trkpt>
      <trkpt lat="54.823298994451761" lon="27.260243995115161">
        <ele>181.83000000000001</ele>
        <time>2011-08-18T16:20:41Z</time>
      </trkpt>
      <trkpt lat="54.822242958471179" lon="27.259773015975952">
        <ele>180.87</ele>
        <time>2011-08-18T16:21:02Z</time>
      </trkpt>
      <trkpt lat="54.821926038712263" lon="27.259588027372956">
        <ele>180.38</ele>
        <time>2011-08-18T16:21:08Z</time>
      </trkpt>
      <trkpt lat="54.821166973561049" lon="27.259140014648438">
        <ele>180.87</ele>
        <time>2011-08-18T16:21:23Z</time>
      </trkpt>
      <trkpt lat="54.820354012772441" lon="27.258655959740281">
        <ele>180.87</ele>
        <time>2011-08-18T16:21:38Z</time>
      </trkpt>
      <trkpt lat="54.820301039144397" lon="27.25863098166883">
        <ele>180.38</ele>
        <time>2011-08-18T16:21:39Z</time>
      </trkpt>
      <trkpt lat="54.819510960951447" lon="27.258163020014763">
        <ele>180.87</ele>
        <time>2011-08-18T16:21:55Z</time>
      </trkpt>
      <trkpt lat="54.818756002932787" lon="27.257735962048173">
        <ele>181.34999999999999</ele>
        <time>2011-08-18T16:22:10Z</time>
      </trkpt>
      <trkpt lat="54.818100035190582" lon="27.257345030084252">
        <ele>181.34999999999999</ele>
        <time>2011-08-18T16:22:24Z</time>
      </trkpt>
      <trkpt lat="54.817573986947536" lon="27.257025009021163">
        <ele>181.83000000000001</ele>
        <time>2011-08-18T16:22:36Z</time>
      </trkpt>
      <trkpt lat="54.817120023071766" lon="27.256741030141711">
        <ele>182.31</ele>
        <time>2011-08-18T16:22:46Z</time>
      </trkpt>
      <trkpt lat="54.816466988995671" lon="27.256205007433891">
        <ele>181.83000000000001</ele>
        <time>2011-08-18T16:22:59Z</time>
      </trkpt>
      <trkpt lat="54.815895007923245" lon="27.254925007000566">
        <ele>181.83000000000001</ele>
        <time>2011-08-18T16:23:17Z</time>
      </trkpt>
      <trkpt lat="54.815429979935288" lon="27.253310987725854">
        <ele>182.78999999999999</ele>
        <time>2011-08-18T16:23:36Z</time>
      </trkpt>
      <trkpt lat="54.815082969143987" lon="27.252114973962307">
        <ele>182.78999999999999</ele>
        <time>2011-08-18T16:23:50Z</time>
      </trkpt>
      <trkpt lat="54.814747022464871" lon="27.250860035419464">
        <ele>182.31</ele>
        <time>2011-08-18T16:24:04Z</time>
      </trkpt>
      <trkpt lat="54.814364975318313" lon="27.249418012797832">
        <ele>181.83000000000001</ele>
        <time>2011-08-18T16:24:20Z</time>
      </trkpt>
      <trkpt lat="54.813888967037201" lon="27.247598972171545">
        <ele>181.83000000000001</ele>
        <time>2011-08-18T16:24:40Z</time>
      </trkpt>
      <trkpt lat="54.813846973702312" lon="27.247419012710452">
        <ele>181.34999999999999</ele>
        <time>2011-08-18T16:24:42Z</time>
      </trkpt>
      <trkpt lat="54.813828030601144" lon="27.247327985242009">
        <ele>181.34999999999999</ele>
        <time>2011-08-18T16:24:43Z</time>
      </trkpt>
      <trkpt lat="54.813804980367422" lon="27.247237963601947">
        <ele>181.34999999999999</ele>
        <time>2011-08-18T16:24:44Z</time>
      </trkpt>
      <trkpt lat="54.813716970384121" lon="27.246867986395955">
        <ele>180.87</ele>
        <time>2011-08-18T16:24:48Z</time>
      </trkpt>
      <trkpt lat="54.813373982906342" lon="27.24556895904243">
        <ele>180.87</ele>
        <time>2011-08-18T16:25:02Z</time>
      </trkpt>
      <trkpt lat="54.812778029590845" lon="27.243829965591431">
        <ele>180.87</ele>
        <time>2011-08-18T16:25:21Z</time>
      </trkpt>
      <trkpt lat="54.812054000794888" lon="27.242657002061605">
        <ele>180.87</ele>
        <time>2011-08-18T16:25:38Z</time>
      </trkpt>
      <trkpt lat="54.811081029474735" lon="27.242059959098697">
        <ele>180.87</ele>
        <time>2011-08-18T16:25:56Z</time>
      </trkpt>
      <trkpt lat="54.810008984059095" lon="27.241498958319426">
        <ele>181.34999999999999</ele>
        <time>2011-08-18T16:26:16Z</time>
      </trkpt>
      <trkpt lat="54.808783968910575" lon="27.240941980853677">
        <ele>180.87</ele>
        <time>2011-08-18T16:26:38Z</time>
      </trkpt>
      <trkpt lat="54.808563021942973" lon="27.240891018882394">
        <ele>181.83000000000001</ele>
        <time>2011-08-18T16:26:42Z</time>
      </trkpt>
      <trkpt lat="54.807792976498604" lon="27.241337019950151">
        <ele>181.83000000000001</ele>
        <time>2011-08-18T16:26:57Z</time>
      </trkpt>
      <trkpt lat="54.807064002379775" lon="27.242228016257286">
        <ele>181.34999999999999</ele>
        <time>2011-08-18T16:27:13Z</time>
      </trkpt>
      <trkpt lat="54.807017985731363" lon="27.242287024855614">
        <ele>181.34999999999999</ele>
        <time>2011-08-18T16:27:14Z</time>
      </trkpt>
      <trkpt lat="54.806415997445583" lon="27.24305497482419">
        <ele>180.87</ele>
        <time>2011-08-18T16:27:27Z</time>
      </trkpt>
      <trkpt lat="54.80552701279521" lon="27.244159961119294">
        <ele>181.34999999999999</ele>
        <time>2011-08-18T16:27:46Z</time>
      </trkpt>
      <trkpt lat="54.805274968966842" lon="27.244556006044149">
        <ele>181.34999999999999</ele>
        <time>2011-08-18T16:27:52Z</time>
      </trkpt>
      <trkpt lat="54.805099032819271" lon="27.244822969660163">
        <ele>181.83000000000001</ele>
        <time>2011-08-18T16:27:56Z</time>
      </trkpt>
      <trkpt lat="54.804913038387895" lon="27.245165035128593">
        <ele>182.31</ele>
        <time>2011-08-18T16:28:01Z</time>
      </trkpt>
      <trkpt lat="54.804728971794248" lon="27.245436022058129">
        <ele>183.27000000000001</ele>
        <time>2011-08-18T16:28:06Z</time>
      </trkpt>
      <trkpt lat="54.804141987115145" lon="27.246197015047073">
        <ele>184.22999999999999</ele>
        <time>2011-08-18T16:28:19Z</time>
      </trkpt>
      <trkpt lat="54.804027993232012" lon="27.246342021971941">
        <ele>184.22999999999999</ele>
        <time>2011-08-18T16:28:22Z</time>
      </trkpt>
      <trkpt lat="54.803664973005652" lon="27.246786011382937">
        <ele>183.27000000000001</ele>
        <time>2011-08-18T16:28:29Z</time>
      </trkpt>
      <trkpt lat="54.803070025518537" lon="27.247665021568537">
        <ele>181.83000000000001</ele>
        <time>2011-08-18T16:28:41Z</time>
      </trkpt>
      <trkpt lat="54.8024139739573" lon="27.248486028984189">
        <ele>182.78999999999999</ele>
        <time>2011-08-18T16:28:54Z</time>
      </trkpt>
      <trkpt lat="54.801722969859838" lon="27.24883496761322">
        <ele>184.71000000000001</ele>
        <time>2011-08-18T16:29:07Z</time>
      </trkpt>
      <trkpt lat="54.800739018246531" lon="27.249394962564111">
        <ele>182.78999999999999</ele>
        <time>2011-08-18T16:29:24Z</time>
      </trkpt>
      <trkpt lat="54.799552978947759" lon="27.250243965536356">
        <ele>183.75</ele>
        <time>2011-08-18T16:29:44Z</time>
      </trkpt>
      <trkpt lat="54.79854597710073" lon="27.25095902569592">
        <ele>184.71000000000001</ele>
        <time>2011-08-18T16:30:02Z</time>
      </trkpt>
      <trkpt lat="54.79742799885571" lon="27.251760000362992">
        <ele>186.15000000000001</ele>
        <time>2011-08-18T16:30:24Z</time>
      </trkpt>
      <trkpt lat="54.796428959816694" lon="27.25239903666079">
        <ele>186.15000000000001</ele>
        <time>2011-08-18T16:30:44Z</time>
      </trkpt>
      <trkpt lat="54.795490019023418" lon="27.25300395861268">
        <ele>187.11000000000001</ele>
        <time>2011-08-18T16:31:02Z</time>
      </trkpt>
      <trkpt lat="54.794761966913939" lon="27.253462029621005">
        <ele>188.08000000000001</ele>
        <time>2011-08-18T16:31:19Z</time>
      </trkpt>
      <trkpt lat="54.794571027159691" lon="27.254024958238006">
        <ele>187.59</ele>
        <time>2011-08-18T16:31:33Z</time>
      </trkpt>
      <trkpt lat="54.794574966654181" lon="27.25409503094852">
        <ele>187.59</ele>
        <time>2011-08-18T16:31:44Z</time>
      </trkpt>
      <trkpt lat="54.794574966654181" lon="27.25409503094852">
        <ele>187.11000000000001</ele>
        <time>2011-08-18T16:32:03Z</time>
      </trkpt>
      <trkpt lat="54.794682003557682" lon="27.254628958180547">
        <ele>187.11000000000001</ele>
        <time>2011-08-18T16:32:15Z</time>
      </trkpt>
      <trkpt lat="54.794749980792403" lon="27.255072025582194">
        <ele>186.63</ele>
        <time>2011-08-18T16:32:22Z</time>
      </trkpt>
      <trkpt lat="54.794818963855505" lon="27.25656702183187">
        <ele>185.66999999999999</ele>
        <time>2011-08-18T16:32:39Z</time>
      </trkpt>
      <trkpt lat="54.794582007452846" lon="27.258278019726276">
        <ele>184.71000000000001</ele>
        <time>2011-08-18T16:32:56Z</time>
      </trkpt>
      <trkpt lat="54.794357037171721" lon="27.259824983775616">
        <ele>184.71000000000001</ele>
        <time>2011-08-18T16:33:11Z</time>
      </trkpt>
      <trkpt lat="54.794127959758043" lon="27.26142299361527">
        <ele>185.66999999999999</ele>
        <time>2011-08-18T16:33:27Z</time>
      </trkpt>
      <trkpt lat="54.793799975886941" lon="27.26288597099483">
        <ele>186.15000000000001</ele>
        <time>2011-08-18T16:33:42Z</time>
      </trkpt>
      <trkpt lat="54.793616998940706" lon="27.263567000627518">
        <ele>186.15000000000001</ele>
        <time>2011-08-18T16:33:49Z</time>
      </trkpt>
      <trkpt lat="54.793178960680962" lon="27.265199963003397">
        <ele>186.63</ele>
        <time>2011-08-18T16:34:06Z</time>
      </trkpt>
      <trkpt lat="54.792732037603855" lon="27.266790010035038">
        <ele>186.63</ele>
        <time>2011-08-18T16:34:24Z</time>
      </trkpt>
      <trkpt lat="54.792403969913721" lon="27.267960039898753">
        <ele>187.11000000000001</ele>
        <time>2011-08-18T16:34:39Z</time>
      </trkpt>
      <trkpt lat="54.792277989909053" lon="27.268415009602904">
        <ele>187.59</ele>
        <time>2011-08-18T16:34:46Z</time>
      </trkpt>
      <trkpt lat="54.792255023494363" lon="27.268478041514754">
        <ele>187.11000000000001</ele>
        <time>2011-08-18T16:34:47Z</time>
      </trkpt>
      <trkpt lat="54.792235996574163" lon="27.268545012921095">
        <ele>187.11000000000001</ele>
        <time>2011-08-18T16:34:48Z</time>
      </trkpt>
      <trkpt lat="54.792159972712398" lon="27.268831003457308">
        <ele>187.11000000000001</ele>
        <time>2011-08-18T16:34:52Z</time>
      </trkpt>
      <trkpt lat="54.792144969105721" lon="27.268904009833932">
        <ele>187.59</ele>
        <time>2011-08-18T16:34:53Z</time>
      </trkpt>
      <trkpt lat="54.791950006037951" lon="27.269583027809858">
        <ele>187.59</ele>
        <time>2011-08-18T16:35:03Z</time>
      </trkpt>
      <trkpt lat="54.791930979117751" lon="27.269643964245915">
        <ele>187.59</ele>
        <time>2011-08-18T16:35:04Z</time>
      </trkpt>
      <trkpt lat="54.791912036016583" lon="27.269704984501004">
        <ele>187.59</ele>
        <time>2011-08-18T16:35:05Z</time>
      </trkpt>
      <trkpt lat="54.791611041873693" lon="27.270893035456538">
        <ele>187.59</ele>
        <time>2011-08-18T16:35:21Z</time>
      </trkpt>
      <trkpt lat="54.791294038295746" lon="27.272169012576342">
        <ele>187.59</ele>
        <time>2011-08-18T16:35:37Z</time>
      </trkpt>
      <trkpt lat="54.790947027504444" lon="27.273611035197973">
        <ele>187.11000000000001</ele>
        <time>2011-08-18T16:35:53Z</time>
      </trkpt>
      <trkpt lat="54.790706969797611" lon="27.274592975154519">
        <ele>186.63</ele>
        <time>2011-08-18T16:36:04Z</time>
      </trkpt>
      <trkpt lat="54.790630023926497" lon="27.274858010932803">
        <ele>187.11000000000001</ele>
        <time>2011-08-18T16:36:07Z</time>
      </trkpt>
      <trkpt lat="54.790538996458054" lon="27.275222958996892">
        <ele>187.11000000000001</ele>
        <time>2011-08-18T16:36:11Z</time>
      </trkpt>
      <trkpt lat="54.790149992331862" lon="27.276851981878281">
        <ele>184.71000000000001</ele>
        <time>2011-08-18T16:36:27Z</time>
      </trkpt>
      <trkpt lat="54.790024012327194" lon="27.277538040652871">
        <ele>185.19</ele>
        <time>2011-08-18T16:36:34Z</time>
      </trkpt>
      <trkpt lat="54.79001596570015" lon="27.277640970423818">
        <ele>184.71000000000001</ele>
        <time>2011-08-18T16:36:35Z</time>
      </trkpt>
      <trkpt lat="54.790024012327194" lon="27.277741972357035">
        <ele>184.71000000000001</ele>
        <time>2011-08-18T16:36:36Z</time>
      </trkpt>
      <trkpt lat="54.790034992620349" lon="27.277842974290252">
        <ele>185.19</ele>
        <time>2011-08-18T16:36:37Z</time>
      </trkpt>
      <trkpt lat="54.790054019540548" lon="27.277940958738327">
        <ele>185.19</ele>
        <time>2011-08-18T16:36:38Z</time>
      </trkpt>
      <trkpt lat="54.790072962641716" lon="27.278033997863531">
        <ele>185.19</ele>
        <time>2011-08-18T16:36:39Z</time>
      </trkpt>
      <trkpt lat="54.790096012875438" lon="27.278124019503593">
        <ele>185.19</ele>
        <time>2011-08-18T16:36:40Z</time>
      </trkpt>
      <trkpt lat="54.79012300260365" lon="27.278214041143656">
        <ele>185.19</ele>
        <time>2011-08-18T16:36:41Z</time>
      </trkpt>
      <trkpt lat="54.790474036708474" lon="27.279417011886835">
        <ele>186.15000000000001</ele>
        <time>2011-08-18T16:36:56Z</time>
      </trkpt>
      <trkpt lat="54.790615020319819" lon="27.27985798381269">
        <ele>186.63</ele>
        <time>2011-08-18T16:37:02Z</time>
      </trkpt>
      <trkpt lat="54.790633963420987" lon="27.279927972704172">
        <ele>187.11000000000001</ele>
        <time>2011-08-18T16:37:03Z</time>
      </trkpt>
      <trkpt lat="54.791031014174223" lon="27.281133960932493">
        <ele>187.11000000000001</ele>
        <time>2011-08-18T16:37:20Z</time>
      </trkpt>
      <trkpt lat="54.791294038295746" lon="27.28200500831008">
        <ele>190.96000000000001</ele>
        <time>2011-08-18T16:37:31Z</time>
      </trkpt>
      <trkpt lat="54.791317004710436" lon="27.282082038000226">
        <ele>186.63</ele>
        <time>2011-08-18T16:37:32Z</time>
      </trkpt>
      <trkpt lat="54.791679019108415" lon="27.283361032605171">
        <ele>185.66999999999999</ele>
        <time>2011-08-18T16:37:48Z</time>
      </trkpt>
      <trkpt lat="54.792060982435942" lon="27.2846719622612">
        <ele>185.19</ele>
        <time>2011-08-18T16:38:04Z</time>
      </trkpt>
      <trkpt lat="54.792434982955456" lon="27.285922961309552">
        <ele>185.66999999999999</ele>
        <time>2011-08-18T16:38:19Z</time>
      </trkpt>
      <trkpt lat="54.792862040922046" lon="27.287342017516494">
        <ele>185.19</ele>
        <time>2011-08-18T16:38:36Z</time>
      </trkpt>
      <trkpt lat="54.793250961229205" lon="27.28862201794982">
        <ele>186.15000000000001</ele>
        <time>2011-08-18T16:38:52Z</time>
      </trkpt>
      <trkpt lat="54.793616998940706" lon="27.28980403393507">
        <ele>186.63</ele>
        <time>2011-08-18T16:39:09Z</time>
      </trkpt>
      <trkpt lat="54.794047996401787" lon="27.29124597273767">
        <ele>186.15000000000001</ele>
        <time>2011-08-18T16:39:26Z</time>
      </trkpt>
      <trkpt lat="54.794520987197757" lon="27.292866026982665">
        <ele>186.15000000000001</ele>
        <time>2011-08-18T16:39:44Z</time>
      </trkpt>
      <trkpt lat="54.794960031285882" lon="27.294368986040354">
        <ele>186.15000000000001</ele>
        <time>2011-08-18T16:40:01Z</time>
      </trkpt>
      <trkpt lat="54.795337971299887" lon="27.295572040602565">
        <ele>185.19</ele>
        <time>2011-08-18T16:40:15Z</time>
      </trkpt>
      <trkpt lat="54.795955969020724" lon="27.297398038208485">
        <ele>185.19</ele>
        <time>2011-08-18T16:40:35Z</time>
      </trkpt>
      <trkpt lat="54.796176999807358" lon="27.298007989302278">
        <ele>185.66999999999999</ele>
        <time>2011-08-18T16:40:42Z</time>
      </trkpt>
      <trkpt lat="54.79671897366643" lon="27.299598958343267">
        <ele>185.19</ele>
        <time>2011-08-18T16:41:00Z</time>
      </trkpt>
      <trkpt lat="54.79725600220263" lon="27.301132008433342">
        <ele>185.19</ele>
        <time>2011-08-18T16:41:17Z</time>
      </trkpt>
      <trkpt lat="54.79775195941329" lon="27.30252499692142">
        <ele>185.66999999999999</ele>
        <time>2011-08-18T16:41:32Z</time>
      </trkpt>
      <trkpt lat="54.798385966569185" lon="27.304305983707309">
        <ele>186.15000000000001</ele>
        <time>2011-08-18T16:41:51Z</time>
      </trkpt>
      <trkpt lat="54.798897011205554" lon="27.305807014927268">
        <ele>186.15000000000001</ele>
        <time>2011-08-18T16:42:09Z</time>
      </trkpt>
      <trkpt lat="54.799389028921723" lon="27.307274015620351">
        <ele>186.63</ele>
        <time>2011-08-18T16:42:27Z</time>
      </trkpt>
      <trkpt lat="54.799980036914349" lon="27.308989036828279">
        <ele>186.15000000000001</ele>
        <time>2011-08-18T16:42:47Z</time>
      </trkpt>
      <trkpt lat="54.800037033855915" lon="27.309167990460992">
        <ele>186.63</ele>
        <time>2011-08-18T16:42:49Z</time>
      </trkpt>
      <trkpt lat="54.800067963078618" lon="27.309256000444293">
        <ele>186.15000000000001</ele>
        <time>2011-08-18T16:42:50Z</time>
      </trkpt>
      <trkpt lat="54.800095036625862" lon="27.309345016255975">
        <ele>186.15000000000001</ele>
        <time>2011-08-18T16:42:51Z</time>
      </trkpt>
      <trkpt lat="54.800628963857889" lon="27.310975966975093">
        <ele>185.66999999999999</ele>
        <time>2011-08-18T16:43:10Z</time>
      </trkpt>
      <trkpt lat="54.800751004368067" lon="27.3113779630512">
        <ele>185.19</ele>
        <time>2011-08-18T16:43:15Z</time>
      </trkpt>
      <trkpt lat="54.800999024882913" lon="27.312159994617105">
        <ele>184.71000000000001</ele>
        <time>2011-08-18T16:43:25Z</time>
      </trkpt>
      <trkpt lat="54.801029032096267" lon="27.312248004600406">
        <ele>185.19</ele>
        <time>2011-08-18T16:43:26Z</time>
      </trkpt>
      <trkpt lat="54.801497999578714" lon="27.313745012506843">
        <ele>184.22999999999999</ele>
        <time>2011-08-18T16:43:43Z</time>
      </trkpt>
      <trkpt lat="54.801669996231794" lon="27.314326968044043">
        <ele>184.22999999999999</ele>
        <time>2011-08-18T16:43:50Z</time>
      </trkpt>
      <trkpt lat="54.80168198235333" lon="27.314399974420667">
        <ele>184.22999999999999</ele>
        <time>2011-08-18T16:43:51Z</time>
      </trkpt>
      <trkpt lat="54.801704026758671" lon="27.31447197496891">
        <ele>184.22999999999999</ele>
        <time>2011-08-18T16:43:52Z</time>
      </trkpt>
      <trkpt lat="54.802002003416419" lon="27.315352996811271">
        <ele>186.15000000000001</ele>
        <time>2011-08-18T16:44:07Z</time>
      </trkpt>
      <trkpt lat="54.802223034203053" lon="27.315993960946798">
        <ele>186.63</ele>
        <time>2011-08-18T16:44:19Z</time>
      </trkpt>
      <trkpt lat="54.802464013919234" lon="27.31674799695611">
        <ele>187.11000000000001</ele>
        <time>2011-08-18T16:44:31Z</time>
      </trkpt>
      <trkpt lat="54.802875984460115" lon="27.317785006016493">
        <ele>186.63</ele>
        <time>2011-08-18T16:44:46Z</time>
      </trkpt>
      <trkpt lat="54.803383005782962" lon="27.318834001198411">
        <ele>186.15000000000001</ele>
        <time>2011-08-18T16:45:02Z</time>
      </trkpt>
      <trkpt lat="54.804005026817322" lon="27.320047030225396">
        <ele>185.19</ele>
        <time>2011-08-18T16:45:20Z</time>
      </trkpt>
      <trkpt lat="54.804619001224637" lon="27.321231979876757">
        <ele>184.71000000000001</ele>
        <time>2011-08-18T16:45:38Z</time>
      </trkpt>
      <trkpt lat="54.805163992568851" lon="27.322363033890724">
        <ele>185.66999999999999</ele>
        <time>2011-08-18T16:45:57Z</time>
      </trkpt>
      <trkpt lat="54.805766986683011" lon="27.323555024340749">
        <ele>184.71000000000001</ele>
        <time>2011-08-18T16:46:16Z</time>
      </trkpt>
      <trkpt lat="54.806332010775805" lon="27.324692029505968">
        <ele>184.71000000000001</ele>
        <time>2011-08-18T16:46:34Z</time>
      </trkpt>
      <trkpt lat="54.806877002120018" lon="27.325892988592386">
        <ele>182.78999999999999</ele>
        <time>2011-08-18T16:46:51Z</time>
      </trkpt>
      <trkpt lat="54.806930981576443" lon="27.326062973588705">
        <ele>182.78999999999999</ele>
        <time>2011-08-18T16:46:53Z</time>
      </trkpt>
      <trkpt lat="54.807339012622833" lon="27.327973963692784">
        <ele>181.83000000000001</ele>
        <time>2011-08-18T16:47:14Z</time>
      </trkpt>
      <trkpt lat="54.807662973180413" lon="27.329668030142784">
        <ele>181.83000000000001</ele>
        <time>2011-08-18T16:47:32Z</time>
      </trkpt>
      <trkpt lat="54.807925997301936" lon="27.330951970070601">
        <ele>180.87</ele>
        <time>2011-08-18T16:47:46Z</time>
      </trkpt>
      <trkpt lat="54.808227997273207" lon="27.332487031817436">
        <ele>181.34999999999999</ele>
        <time>2011-08-18T16:48:04Z</time>
      </trkpt>
      <trkpt lat="54.808537038043141" lon="27.333967024460435">
        <ele>181.34999999999999</ele>
        <time>2011-08-18T16:48:21Z</time>
      </trkpt>
      <trkpt lat="54.808823028579354" lon="27.335385996848345">
        <ele>181.34999999999999</ele>
        <time>2011-08-18T16:48:39Z</time>
      </trkpt>
      <trkpt lat="54.809058979153633" lon="27.336688963696361">
        <ele>181.83000000000001</ele>
        <time>2011-08-18T16:48:55Z</time>
      </trkpt>
      <trkpt lat="54.809199962764978" lon="27.337953960523009">
        <ele>183.27000000000001</ele>
        <time>2011-08-18T16:49:10Z</time>
      </trkpt>
      <trkpt lat="54.809238016605377" lon="27.338691987097263">
        <ele>183.27000000000001</ele>
        <time>2011-08-18T16:49:19Z</time>
      </trkpt>
      <trkpt lat="54.809272969141603" lon="27.339755985885859">
        <ele>184.22999999999999</ele>
        <time>2011-08-18T16:49:33Z</time>
      </trkpt>
      <trkpt lat="54.80928797274828" lon="27.340147001668811">
        <ele>183.75</ele>
        <time>2011-08-18T16:49:38Z</time>
      </trkpt>
      <trkpt lat="54.809302976354957" lon="27.340540029108524">
        <ele>183.75</ele>
        <time>2011-08-18T16:49:43Z</time>
      </trkpt>
      <trkpt lat="54.809322003275156" lon="27.34102601185441">
        <ele>184.22999999999999</ele>
        <time>2011-08-18T16:49:49Z</time>
      </trkpt>
      <trkpt lat="54.809348993003368" lon="27.341356007382274">
        <ele>184.22999999999999</ele>
        <time>2011-08-18T16:49:53Z</time>
      </trkpt>
      <trkpt lat="54.809357039630413" lon="27.34151802957058">
        <ele>184.22999999999999</ele>
        <time>2011-08-18T16:49:55Z</time>
      </trkpt>
      <trkpt lat="54.80941403657198" lon="27.342360997572541">
        <ele>184.22999999999999</ele>
        <time>2011-08-18T16:50:05Z</time>
      </trkpt>
      <trkpt lat="54.80941797606647" lon="27.342525031417608">
        <ele>184.22999999999999</ele>
        <time>2011-08-18T16:50:07Z</time>
      </trkpt>
      <trkpt lat="54.80945996940136" lon="27.343184016644955">
        <ele>184.71000000000001</ele>
        <time>2011-08-18T16:50:15Z</time>
      </trkpt>
      <trkpt lat="54.809474973008037" lon="27.343419967219234">
        <ele>184.71000000000001</ele>
        <time>2011-08-18T16:50:18Z</time>
      </trkpt>
      <trkpt lat="54.809483019635081" lon="27.343584001064301">
        <ele>184.71000000000001</ele>
        <time>2011-08-18T16:50:20Z</time>
      </trkpt>
      <trkpt lat="54.809486037120223" lon="27.344008963555098">
        <ele>184.71000000000001</ele>
        <time>2011-08-18T16:50:25Z</time>
      </trkpt>
      <trkpt lat="54.809493999928236" lon="27.34555802308023">
        <ele>184.71000000000001</ele>
        <time>2011-08-18T16:50:43Z</time>
      </trkpt>
      <trkpt lat="54.809540016576648" lon="27.347071040421724">
        <ele>185.66999999999999</ele>
        <time>2011-08-18T16:51:01Z</time>
      </trkpt>
      <trkpt lat="54.809592990204692" lon="27.348596965894103">
        <ele>185.66999999999999</ele>
        <time>2011-08-18T16:51:18Z</time>
      </trkpt>
      <trkpt lat="54.809654010459781" lon="27.350145019590855">
        <ele>186.15000000000001</ele>
        <time>2011-08-18T16:51:36Z</time>
      </trkpt>
      <trkpt lat="54.809707989916205" lon="27.3516830150038">
        <ele>186.15000000000001</ele>
        <time>2011-08-18T16:51:53Z</time>
      </trkpt>
      <trkpt lat="54.809764986857772" lon="27.353191003203392">
        <ele>185.66999999999999</ele>
        <time>2011-08-18T16:52:11Z</time>
      </trkpt>
      <trkpt lat="54.809830030426383" lon="27.354763029143214">
        <ele>185.19</ele>
        <time>2011-08-18T16:52:30Z</time>
      </trkpt>
      <trkpt lat="54.809914017096162" lon="27.356727998703718">
        <ele>186.15000000000001</ele>
        <time>2011-08-18T16:52:54Z</time>
      </trkpt>
      <trkpt lat="54.809990040957928" lon="27.358576040714979">
        <ele>186.15000000000001</ele>
        <time>2011-08-18T16:53:16Z</time>
      </trkpt>
      <trkpt lat="54.810023987665772" lon="27.359324041754007">
        <ele>187.11000000000001</ele>
        <time>2011-08-18T16:53:25Z</time>
      </trkpt>
      <trkpt lat="54.810028010979295" lon="27.359407022595406">
        <ele>187.11000000000001</ele>
        <time>2011-08-18T16:53:26Z</time>
      </trkpt>
      <trkpt lat="54.810077967122197" lon="27.360872011631727">
        <ele>188.08000000000001</ele>
        <time>2011-08-18T16:53:43Z</time>
      </trkpt>
      <trkpt lat="54.810127001255751" lon="27.362090991809964">
        <ele>188.56</ele>
        <time>2011-08-18T16:53:59Z</time>
      </trkpt>
      <trkpt lat="54.810127001255751" lon="27.362169027328491">
        <ele>189.03999999999999</ele>
        <time>2011-08-18T16:54:00Z</time>
      </trkpt>
      <trkpt lat="54.810131024569273" lon="27.362246979027987">
        <ele>188.56</ele>
        <time>2011-08-18T16:54:01Z</time>
      </trkpt>
      <trkpt lat="54.810234038159251" lon="27.363605014979839">
        <ele>190</ele>
        <time>2011-08-18T16:54:17Z</time>
      </trkpt>
      <trkpt lat="54.81031802482903" lon="27.364754006266594">
        <ele>190</ele>
        <time>2011-08-18T16:54:32Z</time>
      </trkpt>
      <trkpt lat="54.810421038419008" lon="27.365699987858534">
        <ele>190.47999999999999</ele>
        <time>2011-08-18T16:54:44Z</time>
      </trkpt>
      <trkpt lat="54.810562022030354" lon="27.36702298745513">
        <ele>189.52000000000001</ele>
        <time>2011-08-18T16:55:01Z</time>
      </trkpt>
      <trkpt lat="54.810661012306809" lon="27.368395021185279">
        <ele>190</ele>
        <time>2011-08-18T16:55:18Z</time>
      </trkpt>
      <trkpt lat="54.810749022290111" lon="27.369602015241981">
        <ele>190.96000000000001</ele>
        <time>2011-08-18T16:55:32Z</time>
      </trkpt>
      <trkpt lat="54.810764025896788" lon="27.369922958314419">
        <ele>190.96000000000001</ele>
        <time>2011-08-18T16:55:36Z</time>
      </trkpt>
      <trkpt lat="54.810752961784601" lon="27.370770033448935">
        <ele>190.47999999999999</ele>
        <time>2011-08-18T16:55:46Z</time>
      </trkpt>
      <trkpt lat="54.810737958177924" lon="27.370849996805191">
        <ele>190.47999999999999</ele>
        <time>2011-08-18T16:55:47Z</time>
      </trkpt>
      <trkpt lat="54.810417015105486" lon="27.371970992535353">
        <ele>189.52000000000001</ele>
        <time>2011-08-18T16:56:01Z</time>
      </trkpt>
      <trkpt lat="54.809990040957928" lon="27.373272031545639">
        <ele>188.56</ele>
        <time>2011-08-18T16:56:17Z</time>
      </trkpt>
      <trkpt lat="54.809498023241758" lon="27.374759986996651">
        <ele>188.08000000000001</ele>
        <time>2011-08-18T16:56:34Z</time>
      </trkpt>
      <trkpt lat="54.809028971940279" lon="27.376230005174875">
        <ele>188.08000000000001</ele>
        <time>2011-08-18T16:56:51Z</time>
      </trkpt>
      <trkpt lat="54.808723032474518" lon="27.377147991210222">
        <ele>179.90000000000001</ele>
        <time>2011-08-18T16:57:03Z</time>
      </trkpt>
      <trkpt lat="54.808700988069177" lon="27.377219991758466">
        <ele>190.47999999999999</ele>
        <time>2011-08-18T16:57:04Z</time>
      </trkpt>
      <trkpt lat="54.808605015277863" lon="27.377501036971807">
        <ele>185.19</ele>
        <time>2011-08-18T16:57:08Z</time>
      </trkpt>
      <trkpt lat="54.808581965044141" lon="27.377573037520051">
        <ele>189.03999999999999</ele>
        <time>2011-08-18T16:57:09Z</time>
      </trkpt>
      <trkpt lat="54.808388007804751" lon="27.378169996663928">
        <ele>189.03999999999999</ele>
        <time>2011-08-18T16:57:17Z</time>
      </trkpt>
      <trkpt lat="54.807925997301936" lon="27.379561979323626">
        <ele>189.52000000000001</ele>
        <time>2011-08-18T16:57:37Z</time>
      </trkpt>
      <trkpt lat="54.807484019547701" lon="27.380920015275478">
        <ele>190</ele>
        <time>2011-08-18T16:57:57Z</time>
      </trkpt>
      <trkpt lat="54.807372959330678" lon="27.381272977218032">
        <ele>190</ele>
        <time>2011-08-18T16:58:02Z</time>
      </trkpt>
      <trkpt lat="54.80690399184823" lon="27.38272899761796">
        <ele>189.52000000000001</ele>
        <time>2011-08-18T16:58:21Z</time>
      </trkpt>
      <trkpt lat="54.806477017700672" lon="27.384164985269308">
        <ele>188.56</ele>
        <time>2011-08-18T16:58:38Z</time>
      </trkpt>
      <trkpt lat="54.805926997214556" lon="27.385883023962379">
        <ele>187.59</ele>
        <time>2011-08-18T16:58:58Z</time>
      </trkpt>
      <trkpt lat="54.805573029443622" lon="27.387005025520921">
        <ele>187.11000000000001</ele>
        <time>2011-08-18T16:59:11Z</time>
      </trkpt>
      <trkpt lat="54.805065002292395" lon="27.38844302482903">
        <ele>186.15000000000001</ele>
        <time>2011-08-18T16:59:28Z</time>
      </trkpt>
      <trkpt lat="54.804645990952849" lon="27.389729982241988">
        <ele>185.66999999999999</ele>
        <time>2011-08-18T16:59:43Z</time>
      </trkpt>
      <trkpt lat="54.804442981258035" lon="27.390403971076012">
        <ele>185.66999999999999</ele>
        <time>2011-08-18T16:59:51Z</time>
      </trkpt>
      <trkpt lat="54.804225973784924" lon="27.3910659737885">
        <ele>185.19</ele>
        <time>2011-08-18T16:59:59Z</time>
      </trkpt>
      <trkpt lat="54.804168976843357" lon="27.391211986541748">
        <ele>185.19</ele>
        <time>2011-08-18T17:00:01Z</time>
      </trkpt>
      <trkpt lat="54.803776033222675" lon="27.392463991418481">
        <ele>185.66999999999999</ele>
        <time>2011-08-18T17:00:16Z</time>
      </trkpt>
      <trkpt lat="54.803413012996316" lon="27.393522039055824">
        <ele>185.19</ele>
        <time>2011-08-18T17:00:29Z</time>
      </trkpt>
      <trkpt lat="54.803351992741227" lon="27.393668973818421">
        <ele>184.71000000000001</ele>
        <time>2011-08-18T17:00:31Z</time>
      </trkpt>
      <trkpt lat="54.803288038820028" lon="27.393875000998378">
        <ele>184.71000000000001</ele>
        <time>2011-08-18T17:00:34Z</time>
      </trkpt>
      <trkpt lat="54.80320698581636" lon="27.394096031785011">
        <ele>184.71000000000001</ele>
        <time>2011-08-18T17:00:37Z</time>
      </trkpt>
      <trkpt lat="54.802974974736571" lon="27.394810002297163">
        <ele>184.71000000000001</ele>
        <time>2011-08-18T17:00:46Z</time>
      </trkpt>
      <trkpt lat="54.802608015015721" lon="27.395896967500448">
        <ele>184.22999999999999</ele>
        <time>2011-08-18T17:01:00Z</time>
      </trkpt>
      <trkpt lat="54.802157990634441" lon="27.396993990987539">
        <ele>183.75</ele>
        <time>2011-08-18T17:01:15Z</time>
      </trkpt>
      <trkpt lat="54.801586009562016" lon="27.397980038076639">
        <ele>183.75</ele>
        <time>2011-08-18T17:01:31Z</time>
      </trkpt>
      <trkpt lat="54.801071025431156" lon="27.398857036605477">
        <ele>183.75</ele>
        <time>2011-08-18T17:01:45Z</time>
      </trkpt>
      <trkpt lat="54.800537014380097" lon="27.399805029854178">
        <ele>183.27000000000001</ele>
        <time>2011-08-18T17:02:00Z</time>
      </trkpt>
      <trkpt lat="54.800507007166743" lon="27.39987401291728">
        <ele>183.27000000000001</ele>
        <time>2011-08-18T17:02:01Z</time>
      </trkpt>
      <trkpt lat="54.799926979467273" lon="27.400832986459136">
        <ele>182.78999999999999</ele>
        <time>2011-08-18T17:02:16Z</time>
      </trkpt>
      <trkpt lat="54.799744002521038" lon="27.401189971715212">
        <ele>181.83000000000001</ele>
        <time>2011-08-18T17:02:25Z</time>
      </trkpt>
      <trkpt lat="54.799724975600839" lon="27.401236994192004">
        <ele>182.78999999999999</ele>
        <time>2011-08-18T17:02:27Z</time>
      </trkpt>
      <trkpt lat="54.799763029441237" lon="27.401384012773633">
        <ele>180.87</ele>
        <time>2011-08-18T17:02:32Z</time>
      </trkpt>
      <trkpt lat="54.800010966137052" lon="27.401563972234726">
        <ele>181.34999999999999</ele>
        <time>2011-08-18T17:02:45Z</time>
      </trkpt>
      <trkpt lat="54.800273990258574" lon="27.401714008301497">
        <ele>181.34999999999999</ele>
        <time>2011-08-18T17:02:57Z</time>
      </trkpt>
      <trkpt lat="54.800345990806818" lon="27.401740998029709">
        <ele>181.34999999999999</ele>
        <time>2011-08-18T17:03:08Z</time>
      </trkpt>
      <trkpt lat="54.800396030768752" lon="27.401750972494483">
        <ele>182.31</ele>
        <time>2011-08-18T17:03:15Z</time>
      </trkpt>
      <trkpt lat="54.800403993576765" lon="27.401758013293147">
        <ele>181.83000000000001</ele>
        <time>2011-08-18T17:03:17Z</time>
      </trkpt>
      <trkpt lat="54.800579007714987" lon="27.401718031615019">
        <ele>181.83000000000001</ele>
        <time>2011-08-18T17:03:31Z</time>
      </trkpt>
      <trkpt lat="54.800628963857889" lon="27.40174300968647">
        <ele>182.78999999999999</ele>
        <time>2011-08-18T17:03:35Z</time>
      </trkpt>
      <trkpt lat="54.800766007974744" lon="27.401967979967594">
        <ele>182.78999999999999</ele>
        <time>2011-08-18T17:03:52Z</time>
      </trkpt>
      <trkpt lat="54.800766007974744" lon="27.401967979967594">
        <ele>182.78999999999999</ele>
        <time>2011-08-18T17:04:23Z</time>
      </trkpt>
      <trkpt lat="54.800766007974744" lon="27.401962028816342">
        <ele>182.78999999999999</ele>
        <time>2011-08-18T17:04:53Z</time>
      </trkpt>
      <trkpt lat="54.800776988267899" lon="27.401969991624355">
        <ele>183.27000000000001</ele>
        <time>2011-08-18T17:05:26Z</time>
      </trkpt>
      <trkpt lat="54.800776988267899" lon="27.401972003281116">
        <ele>183.27000000000001</ele>
        <time>2011-08-18T17:05:58Z</time>
      </trkpt>
      <trkpt lat="54.800776988267899" lon="27.401972003281116">
        <ele>183.27000000000001</ele>
        <time>2011-08-18T17:06:25Z</time>
      </trkpt>
      <trkpt lat="54.800781011581421" lon="27.401969991624355">
        <ele>183.27000000000001</ele>
        <time>2011-08-18T17:06:51Z</time>
      </trkpt>
      <trkpt lat="54.800785034894943" lon="27.401964040473104">
        <ele>183.27000000000001</ele>
        <time>2011-08-18T17:07:19Z</time>
      </trkpt>
      <trkpt lat="54.800785034894943" lon="27.401964040473104">
        <ele>183.75</ele>
        <time>2011-08-18T17:07:41Z</time>
      </trkpt>
      <trkpt lat="54.800785034894943" lon="27.401972003281116">
        <ele>183.75</ele>
        <time>2011-08-18T17:08:13Z</time>
      </trkpt>
      <trkpt lat="54.800785034894943" lon="27.401978960260749">
        <ele>183.75</ele>
        <time>2011-08-18T17:08:41Z</time>
      </trkpt>
      <trkpt lat="54.800785034894943" lon="27.401984995231032">
        <ele>184.22999999999999</ele>
        <time>2011-08-18T17:09:09Z</time>
      </trkpt>
      <trkpt lat="54.800785034894943" lon="27.401984995231032">
        <ele>183.75</ele>
        <time>2011-08-18T17:09:38Z</time>
      </trkpt>
      <trkpt lat="54.800792997702956" lon="27.401976026594639">
        <ele>184.22999999999999</ele>
        <time>2011-08-18T17:10:07Z</time>
      </trkpt>
      <trkpt lat="54.800792997702956" lon="27.401967979967594">
        <ele>183.75</ele>
        <time>2011-08-18T17:10:29Z</time>
      </trkpt>
      <trkpt lat="54.800792997702956" lon="27.401967979967594">
        <ele>183.75</ele>
        <time>2011-08-18T17:11:02Z</time>
      </trkpt>
      <trkpt lat="54.800792997702956" lon="27.401967979967594">
        <ele>187.11000000000001</ele>
        <time>2011-08-18T17:11:05Z</time>
      </trkpt>
      <trkpt lat="54.800792997702956" lon="27.401967979967594">
        <ele>186.15000000000001</ele>
        <time>2011-08-18T17:11:06Z</time>
      </trkpt>
      <trkpt lat="54.800792997702956" lon="27.401967979967594">
        <ele>184.22999999999999</ele>
        <time>2011-08-18T17:11:08Z</time>
      </trkpt>
      <trkpt lat="54.800797021016479" lon="27.401967979967594">
        <ele>184.22999999999999</ele>
        <time>2011-08-18T17:11:42Z</time>
      </trkpt>
      <trkpt lat="54.800808001309633" lon="27.401964040473104">
        <ele>179.41999999999999</ele>
        <time>2011-08-18T17:11:57Z</time>
      </trkpt>
      <trkpt lat="54.800808001309633" lon="27.401964040473104">
        <ele>186.15000000000001</ele>
        <time>2011-08-18T17:11:58Z</time>
      </trkpt>
      <trkpt lat="54.800808001309633" lon="27.401967979967594">
        <ele>184.22999999999999</ele>
        <time>2011-08-18T17:12:29Z</time>
      </trkpt>
      <trkpt lat="54.800808001309633" lon="27.401967979967594">
        <ele>184.22999999999999</ele>
        <time>2011-08-18T17:12:51Z</time>
      </trkpt>
      <trkpt lat="54.800808001309633" lon="27.40195800550282">
        <ele>184.22999999999999</ele>
        <time>2011-08-18T17:13:22Z</time>
      </trkpt>
      <trkpt lat="54.800812024623156" lon="27.401978960260749">
        <ele>184.22999999999999</ele>
        <time>2011-08-18T17:13:46Z</time>
      </trkpt>
      <trkpt lat="54.80084203183651" lon="27.401998993009329">
        <ele>184.22999999999999</ele>
        <time>2011-08-18T17:13:49Z</time>
      </trkpt>
      <trkpt lat="54.800880001857877" lon="27.40204400382936">
        <ele>183.75</ele>
        <time>2011-08-18T17:14:00Z</time>
      </trkpt>
      <trkpt lat="54.800880001857877" lon="27.40204400382936">
        <ele>183.75</ele>
        <time>2011-08-18T17:14:27Z</time>
      </trkpt>
      <trkpt lat="54.800884025171399" lon="27.402039980515838">
        <ele>183.75</ele>
        <time>2011-08-18T17:14:54Z</time>
      </trkpt>
      <trkpt lat="54.800884025171399" lon="27.402041992172599">
        <ele>183.75</ele>
        <time>2011-08-18T17:15:18Z</time>
      </trkpt>
      <trkpt lat="54.800884025171399" lon="27.402041992172599">
        <ele>183.75</ele>
        <time>2011-08-18T17:15:46Z</time>
      </trkpt>
      <trkpt lat="54.800891987979412" lon="27.402046015486121">
        <ele>183.75</ele>
        <time>2011-08-18T17:16:15Z</time>
      </trkpt>
      <trkpt lat="54.800891987979412" lon="27.402046015486121">
        <ele>190</ele>
        <time>2011-08-18T17:16:34Z</time>
      </trkpt>
      <trkpt lat="54.800891987979412" lon="27.402046015486121">
        <ele>180.87</ele>
        <time>2011-08-18T17:16:35Z</time>
      </trkpt>
      <trkpt lat="54.800891987979412" lon="27.402053978294134">
        <ele>188.56</ele>
        <time>2011-08-18T17:16:36Z</time>
      </trkpt>
      <trkpt lat="54.800891987979412" lon="27.402053978294134">
        <ele>184.71000000000001</ele>
        <time>2011-08-18T17:16:37Z</time>
      </trkpt>
      <trkpt lat="54.800891987979412" lon="27.402053978294134">
        <ele>181.34999999999999</ele>
        <time>2011-08-18T17:16:47Z</time>
      </trkpt>
      <trkpt lat="54.800891987979412" lon="27.402053978294134">
        <ele>184.71000000000001</ele>
        <time>2011-08-18T17:16:48Z</time>
      </trkpt>
    </trkseg>
  </trk>

  <trk>
    <name>19-АВГ-11 14:30:14</name>
    <extensions>
      <gpxx:TrackExtension xmlns:gpxx="http://www.garmin.com/xmlschemas/GpxExtensions/v3">
        <gpxx:DisplayColor>Red</gpxx:DisplayColor>
      </gpxx:TrackExtension>
    </extensions>
    <trkseg>
      <trkpt lat="54.800891987979412" lon="27.402053978294134">
        <ele>184.22999999999999</ele>
        <time>2011-08-18T17:17:14Z</time>
      </trkpt>
      <trkpt lat="54.800891987979412" lon="27.402058001607656">
        <ele>185.19</ele>
        <time>2011-08-18T17:17:16Z</time>
      </trkpt>
      <trkpt lat="54.800891987979412" lon="27.402058001607656">
        <ele>184.71000000000001</ele>
        <time>2011-08-18T17:17:51Z</time>
      </trkpt>
      <trkpt lat="54.800872961059213" lon="27.402068981900811">
        <ele>184.22999999999999</ele>
        <time>2011-08-18T17:18:07Z</time>
      </trkpt>
      <trkpt lat="54.800872961059213" lon="27.402068981900811">
        <ele>188.08000000000001</ele>
        <time>2011-08-18T17:18:29Z</time>
      </trkpt>
      <trkpt lat="54.800872961059213" lon="27.402068981900811">
        <ele>184.71000000000001</ele>
        <time>2011-08-18T17:18:30Z</time>
      </trkpt>
      <trkpt lat="54.800872961059213" lon="27.402068981900811">
        <ele>180.87</ele>
        <time>2011-08-18T17:18:38Z</time>
      </trkpt>
      <trkpt lat="54.800872961059213" lon="27.402068981900811">
        <ele>185.66999999999999</ele>
        <time>2011-08-18T17:18:39Z</time>
      </trkpt>
      <trkpt lat="54.800872961059213" lon="27.40206697024405">
        <ele>184.22999999999999</ele>
        <time>2011-08-18T17:19:07Z</time>
      </trkpt>
      <trkpt lat="54.800872961059213" lon="27.40206697024405">
        <ele>184.71000000000001</ele>
        <time>2011-08-18T17:19:25Z</time>
      </trkpt>
      <trkpt lat="54.800876984372735" lon="27.402070993557572">
        <ele>183.27000000000001</ele>
        <time>2011-08-18T17:19:44Z</time>
      </trkpt>
      <trkpt lat="54.800872961059213" lon="27.402070993557572">
        <ele>183.75</ele>
        <time>2011-08-18T17:20:06Z</time>
      </trkpt>
      <trkpt lat="54.800884025171399" lon="27.402068981900811">
        <ele>183.27000000000001</ele>
        <time>2011-08-18T17:20:23Z</time>
      </trkpt>
      <trkpt lat="54.800884025171399" lon="27.402068981900811">
        <ele>183.75</ele>
        <time>2011-08-18T17:20:52Z</time>
      </trkpt>
      <trkpt lat="54.80088796466589" lon="27.402075016871095">
        <ele>183.27000000000001</ele>
        <time>2011-08-18T17:21:31Z</time>
      </trkpt>
      <trkpt lat="54.80088796466589" lon="27.402073005214334">
        <ele>183.27000000000001</ele>
        <time>2011-08-18T17:22:05Z</time>
      </trkpt>
      <trkpt lat="54.800891987979412" lon="27.402080968022346">
        <ele>183.27000000000001</ele>
        <time>2011-08-18T17:22:42Z</time>
      </trkpt>
      <trkpt lat="54.800891987979412" lon="27.402077028527856">
        <ele>183.27000000000001</ele>
        <time>2011-08-18T17:23:17Z</time>
      </trkpt>
      <trkpt lat="54.800896011292934" lon="27.402075016871095">
        <ele>183.27000000000001</ele>
        <time>2011-08-18T17:23:52Z</time>
      </trkpt>
      <trkpt lat="54.800896011292934" lon="27.402070993557572">
        <ele>183.27000000000001</ele>
        <time>2011-08-18T17:24:26Z</time>
      </trkpt>
      <trkpt lat="54.800900034606457" lon="27.402079040184617">
        <ele>182.31</ele>
        <time>2011-08-18T17:24:59Z</time>
      </trkpt>
      <trkpt lat="54.800900034606457" lon="27.402079040184617">
        <ele>183.27000000000001</ele>
        <time>2011-08-18T17:25:34Z</time>
      </trkpt>
      <trkpt lat="54.800900034606457" lon="27.402083985507488">
        <ele>182.78999999999999</ele>
        <time>2011-08-18T17:26:15Z</time>
      </trkpt>
      <trkpt lat="54.800906991586089" lon="27.402083985507488">
        <ele>183.27000000000001</ele>
        <time>2011-08-18T17:26:52Z</time>
      </trkpt>
      <trkpt lat="54.800896011292934" lon="27.402077028527856">
        <ele>182.78999999999999</ele>
        <time>2011-08-18T17:27:28Z</time>
      </trkpt>
      <trkpt lat="54.800896011292934" lon="27.402083985507488">
        <ele>182.78999999999999</ele>
        <time>2011-08-18T17:27:56Z</time>
      </trkpt>
      <trkpt lat="54.800891987979412" lon="27.402079040184617">
        <ele>182.31</ele>
        <time>2011-08-18T17:28:29Z</time>
      </trkpt>
      <trkpt lat="54.800900034606457" lon="27.402083985507488">
        <ele>182.78999999999999</ele>
        <time>2011-08-18T17:29:00Z</time>
      </trkpt>
      <trkpt lat="54.800900034606457" lon="27.402083985507488">
        <ele>182.78999999999999</ele>
        <time>2011-08-18T17:29:34Z</time>
      </trkpt>
      <trkpt lat="54.800896011292934" lon="27.402080968022346">
        <ele>182.78999999999999</ele>
        <time>2011-08-18T17:30:11Z</time>
      </trkpt>
      <trkpt lat="54.800891987979412" lon="27.402079040184617">
        <ele>182.78999999999999</ele>
        <time>2011-08-18T17:30:40Z</time>
      </trkpt>
      <trkpt lat="54.800902968272567" lon="27.402070993557572">
        <ele>182.78999999999999</ele>
        <time>2011-08-18T17:31:15Z</time>
      </trkpt>
      <trkpt lat="54.800902968272567" lon="27.402068981900811">
        <ele>182.78999999999999</ele>
        <time>2011-08-18T17:31:44Z</time>
      </trkpt>
      <trkpt lat="54.800900034606457" lon="27.40206697024405">
        <ele>182.78999999999999</ele>
        <time>2011-08-18T17:32:19Z</time>
      </trkpt>
      <trkpt lat="54.800900034606457" lon="27.40206697024405">
        <ele>182.31</ele>
        <time>2011-08-18T17:32:55Z</time>
      </trkpt>
      <trkpt lat="54.800896011292934" lon="27.402053978294134">
        <ele>182.31</ele>
        <time>2011-08-18T17:33:29Z</time>
      </trkpt>
      <trkpt lat="54.80088796466589" lon="27.402039980515838">
        <ele>182.78999999999999</ele>
        <time>2011-08-18T17:34:05Z</time>
      </trkpt>
      <trkpt lat="54.80088796466589" lon="27.402033023536205">
        <ele>182.78999999999999</ele>
        <time>2011-08-18T17:34:43Z</time>
      </trkpt>
      <trkpt lat="54.80088796466589" lon="27.402035035192966">
        <ele>181.83000000000001</ele>
        <time>2011-08-18T17:35:18Z</time>
      </trkpt>
      <trkpt lat="54.800891987979412" lon="27.402026988565922">
        <ele>182.78999999999999</ele>
        <time>2011-08-18T17:35:57Z</time>
      </trkpt>
      <trkpt lat="54.80088796466589" lon="27.40202103741467">
        <ele>182.78999999999999</ele>
        <time>2011-08-18T17:36:20Z</time>
      </trkpt>
      <trkpt lat="54.80088796466589" lon="27.40202103741467">
        <ele>182.78999999999999</ele>
        <time>2011-08-18T17:36:56Z</time>
      </trkpt>
      <trkpt lat="54.800880001857877" lon="27.402018019929528">
        <ele>183.27000000000001</ele>
        <time>2011-08-18T17:37:39Z</time>
      </trkpt>
      <trkpt lat="54.800884025171399" lon="27.402020031586289">
        <ele>183.27000000000001</ele>
        <time>2011-08-18T17:38:20Z</time>
      </trkpt>
      <trkpt lat="54.800884025171399" lon="27.402020031586289">
        <ele>182.78999999999999</ele>
        <time>2011-08-18T17:38:54Z</time>
      </trkpt>
      <trkpt lat="54.800884025171399" lon="27.402020031586289">
        <ele>183.27000000000001</ele>
        <time>2011-08-18T17:39:33Z</time>
      </trkpt>
      <trkpt lat="54.800884025171399" lon="27.402009973302484">
        <ele>183.75</ele>
        <time>2011-08-18T17:40:05Z</time>
      </trkpt>
      <trkpt lat="54.800884025171399" lon="27.402007961645722">
        <ele>183.27000000000001</ele>
        <time>2011-08-18T17:40:38Z</time>
      </trkpt>
      <trkpt lat="54.800884025171399" lon="27.401999998837709">
        <ele>182.78999999999999</ele>
        <time>2011-08-18T17:41:18Z</time>
      </trkpt>
      <trkpt lat="54.800880001857877" lon="27.401998993009329">
        <ele>183.75</ele>
        <time>2011-08-18T17:41:55Z</time>
      </trkpt>
      <trkpt lat="54.80088796466589" lon="27.401999998837709">
        <ele>183.75</ele>
        <time>2011-08-18T17:42:23Z</time>
      </trkpt>
      <trkpt lat="54.800880001857877" lon="27.401999998837709">
        <ele>183.75</ele>
        <time>2011-08-18T17:42:58Z</time>
      </trkpt>
      <trkpt lat="54.800880001857877" lon="27.401999998837709">
        <ele>184.22999999999999</ele>
        <time>2011-08-18T17:43:36Z</time>
      </trkpt>
      <trkpt lat="54.800880001857877" lon="27.401998993009329">
        <ele>183.27000000000001</ele>
        <time>2011-08-18T17:44:15Z</time>
      </trkpt>
      <trkpt lat="54.800884025171399" lon="27.402022965252399">
        <ele>183.75</ele>
        <time>2011-08-18T17:44:58Z</time>
      </trkpt>
      <trkpt lat="54.800880001857877" lon="27.402016008272767">
        <ele>183.27000000000001</ele>
        <time>2011-08-18T17:45:39Z</time>
      </trkpt>
      <trkpt lat="54.800876984372735" lon="27.402020031586289">
        <ele>183.27000000000001</ele>
        <time>2011-08-18T17:46:18Z</time>
      </trkpt>
      <trkpt lat="54.800876984372735" lon="27.402020031586289">
        <ele>180.38</ele>
        <time>2011-08-18T17:46:55Z</time>
      </trkpt>
      <trkpt lat="54.800876984372735" lon="27.402020031586289">
        <ele>185.19</ele>
        <time>2011-08-18T17:46:56Z</time>
      </trkpt>
      <trkpt lat="54.800876984372735" lon="27.402016008272767">
        <ele>181.34999999999999</ele>
        <time>2011-08-18T17:46:57Z</time>
      </trkpt>
      <trkpt lat="54.800876984372735" lon="27.402016008272767">
        <ele>184.22999999999999</ele>
        <time>2011-08-18T17:46:58Z</time>
      </trkpt>
      <trkpt lat="54.801089968532324" lon="27.402132013812661">
        <ele>179.41999999999999</ele>
        <time>2011-08-19T06:49:52Z</time>
      </trkpt>
      <trkpt lat="54.801086029037833" lon="27.402132013812661">
        <ele>179.41999999999999</ele>
        <time>2011-08-19T06:49:54Z</time>
      </trkpt>
      <trkpt lat="54.801005981862545" lon="27.402134025469422">
        <ele>179.90000000000001</ele>
        <time>2011-08-19T06:50:16Z</time>
      </trkpt>
      <trkpt lat="54.800983015447855" lon="27.40189203992486">
        <ele>174.13999999999999</ele>
        <time>2011-08-19T06:50:28Z</time>
      </trkpt>
      <trkpt lat="54.8009720351547" lon="27.401879969984293">
        <ele>179.90000000000001</ele>
        <time>2011-08-19T06:50:29Z</time>
      </trkpt>
      <trkpt lat="54.800957031548023" lon="27.401871001347899">
        <ele>183.75</ele>
        <time>2011-08-19T06:50:30Z</time>
      </trkpt>
      <trkpt lat="54.800944961607456" lon="27.401866978034377">
        <ele>181.83000000000001</ele>
        <time>2011-08-19T06:50:31Z</time>
      </trkpt>
      <trkpt lat="54.800938004627824" lon="27.401864966377616">
        <ele>178.46000000000001</ele>
        <time>2011-08-19T06:50:32Z</time>
      </trkpt>
      <trkpt lat="54.800911014899611" lon="27.401857003569603">
        <ele>183.75</ele>
        <time>2011-08-19T06:50:37Z</time>
      </trkpt>
      <trkpt lat="54.800902968272567" lon="27.401859015226364">
        <ele>180.87</ele>
        <time>2011-08-19T06:50:38Z</time>
      </trkpt>
      <trkpt lat="54.800860974937677" lon="27.401873013004661">
        <ele>180.87</ele>
        <time>2011-08-19T06:50:55Z</time>
      </trkpt>
      <trkpt lat="54.800808001309633" lon="27.401846023276448">
        <ele>180.87</ele>
        <time>2011-08-19T06:51:15Z</time>
      </trkpt>
      <trkpt lat="54.800812024623156" lon="27.401841999962926">
        <ele>179.41999999999999</ele>
        <time>2011-08-19T06:51:23Z</time>
      </trkpt>
      <trkpt lat="54.800815964117646" lon="27.401841999962926">
        <ele>180.87</ele>
        <time>2011-08-19T06:51:25Z</time>
      </trkpt>
      <trkpt lat="54.800812024623156" lon="27.401853986084461">
        <ele>181.34999999999999</ele>
        <time>2011-08-19T06:51:29Z</time>
      </trkpt>
      <trkpt lat="54.800785034894943" lon="27.401834037154913">
        <ele>185.19</ele>
        <time>2011-08-19T08:26:44Z</time>
      </trkpt>
      <trkpt lat="54.800812024623156" lon="27.40182900801301">
        <ele>184.22999999999999</ele>
        <time>2011-08-19T08:26:45Z</time>
      </trkpt>
      <trkpt lat="54.800845971331" lon="27.401982983574271">
        <ele>188.56</ele>
        <time>2011-08-19T08:27:00Z</time>
      </trkpt>
      <trkpt lat="54.800834991037846" lon="27.401982983574271">
        <ele>179.41999999999999</ele>
        <time>2011-08-19T08:27:01Z</time>
      </trkpt>
      <trkpt lat="54.80082300491631" lon="27.401978960260749">
        <ele>185.66999999999999</ele>
        <time>2011-08-19T08:27:02Z</time>
      </trkpt>
      <trkpt lat="54.800808001309633" lon="27.401960017159581">
        <ele>189.52000000000001</ele>
        <time>2011-08-19T08:27:04Z</time>
      </trkpt>
      <trkpt lat="54.800803977996111" lon="27.401950964704156">
        <ele>184.71000000000001</ele>
        <time>2011-08-19T08:27:05Z</time>
      </trkpt>
      <trkpt lat="54.800797021016479" lon="27.401947025209665">
        <ele>180.87</ele>
        <time>2011-08-19T08:27:06Z</time>
      </trkpt>
      <trkpt lat="54.800792997702956" lon="27.401949036866426">
        <ele>185.19</ele>
        <time>2011-08-19T08:27:07Z</time>
      </trkpt>
      <trkpt lat="54.800776988267899" lon="27.401938978582621">
        <ele>179.90000000000001</ele>
        <time>2011-08-19T08:27:11Z</time>
      </trkpt>
      <trkpt lat="54.800773970782757" lon="27.401938978582621">
        <ele>185.66999999999999</ele>
        <time>2011-08-19T08:27:12Z</time>
      </trkpt>
      <trkpt lat="54.800766007974744" lon="27.401938978582621">
        <ele>180.87</ele>
        <time>2011-08-19T08:27:14Z</time>
      </trkpt>
      <trkpt lat="54.800766007974744" lon="27.401938978582621">
        <ele>184.22999999999999</ele>
        <time>2011-08-19T08:27:15Z</time>
      </trkpt>
      <trkpt lat="54.800776988267899" lon="27.401921963319182">
        <ele>190.47999999999999</ele>
        <time>2011-08-19T08:27:24Z</time>
      </trkpt>
      <trkpt lat="54.800781011581421" lon="27.401917017996311">
        <ele>188.08000000000001</ele>
        <time>2011-08-19T08:27:25Z</time>
      </trkpt>
      <trkpt lat="54.800808001309633" lon="27.401903020218015">
        <ele>191.91999999999999</ele>
        <time>2011-08-19T08:27:30Z</time>
      </trkpt>
      <trkpt lat="54.800830967724323" lon="27.401910983026028">
        <ele>194.80000000000001</ele>
        <time>2011-08-19T08:27:35Z</time>
      </trkpt>
      <trkpt lat="54.800834991037846" lon="27.401940990239382">
        <ele>198.16999999999999</ele>
        <time>2011-08-19T08:27:40Z</time>
      </trkpt>
      <trkpt lat="54.80084203183651" lon="27.40195800550282">
        <ele>201.05000000000001</ele>
        <time>2011-08-19T08:27:45Z</time>
      </trkpt>
      <trkpt lat="54.800858041271567" lon="27.401947025209665">
        <ele>203.94</ele>
        <time>2011-08-19T08:27:50Z</time>
      </trkpt>
      <trkpt lat="54.800860974937677" lon="27.40195800550282">
        <ele>204.90000000000001</ele>
        <time>2011-08-19T08:27:52Z</time>
      </trkpt>
      <trkpt lat="54.800884025171399" lon="27.401954988017678">
        <ele>208.25999999999999</ele>
        <time>2011-08-19T08:28:05Z</time>
      </trkpt>
      <trkpt lat="54.800827028229833" lon="27.401923974975944">
        <ele>211.15000000000001</ele>
        <time>2011-08-19T08:28:24Z</time>
      </trkpt>
      <trkpt lat="54.800815964117646" lon="27.401934033259749">
        <ele>214.03</ele>
        <time>2011-08-19T08:28:43Z</time>
      </trkpt>
      <trkpt lat="54.80082300491631" lon="27.401921963319182">
        <ele>214.99000000000001</ele>
        <time>2011-08-19T08:29:13Z</time>
      </trkpt>
      <trkpt lat="54.80082300491631" lon="27.401921963319182">
        <ele>215.47</ele>
        <time>2011-08-19T08:29:41Z</time>
      </trkpt>
      <trkpt lat="54.800827028229833" lon="27.401918023824692">
        <ele>215.94999999999999</ele>
        <time>2011-08-19T08:30:09Z</time>
      </trkpt>
      <trkpt lat="54.800827028229833" lon="27.401906959712505">
        <ele>215.47</ele>
        <time>2011-08-19T08:30:44Z</time>
      </trkpt>
      <trkpt lat="54.800827028229833" lon="27.401903020218015">
        <ele>215.47</ele>
        <time>2011-08-19T08:31:11Z</time>
      </trkpt>
      <trkpt lat="54.800827028229833" lon="27.401903020218015">
        <ele>214.99000000000001</ele>
        <time>2011-08-19T08:31:29Z</time>
      </trkpt>
      <trkpt lat="54.800830967724323" lon="27.401906959712505">
        <ele>214.50999999999999</ele>
        <time>2011-08-19T08:32:06Z</time>
      </trkpt>
      <trkpt lat="54.800830967724323" lon="27.401898996904492">
        <ele>214.99000000000001</ele>
        <time>2011-08-19T08:32:41Z</time>
      </trkpt>
      <trkpt lat="54.800834991037846" lon="27.401903020218015">
        <ele>214.99000000000001</ele>
        <time>2011-08-19T08:33:15Z</time>
      </trkpt>
      <trkpt lat="54.800834991037846" lon="27.401895979419351">
        <ele>214.99000000000001</ele>
        <time>2011-08-19T08:33:51Z</time>
      </trkpt>
      <trkpt lat="54.800834991037846" lon="27.401895979419351">
        <ele>215.47</ele>
        <time>2011-08-19T08:34:23Z</time>
      </trkpt>
      <trkpt lat="54.800827028229833" lon="27.401893967762589">
        <ele>215.94999999999999</ele>
        <time>2011-08-19T08:34:58Z</time>
      </trkpt>
      <trkpt lat="54.800818981602788" lon="27.401888016611338">
        <ele>215.47</ele>
        <time>2011-08-19T08:35:30Z</time>
      </trkpt>
      <trkpt lat="54.800815964117646" lon="27.401881981641054">
        <ele>215.47</ele>
        <time>2011-08-19T08:36:02Z</time>
      </trkpt>
      <trkpt lat="54.800812024623156" lon="27.401879969984293">
        <ele>215.47</ele>
        <time>2011-08-19T08:36:31Z</time>
      </trkpt>
      <trkpt lat="54.800812024623156" lon="27.401879969984293">
        <ele>215.47</ele>
        <time>2011-08-19T08:37:03Z</time>
      </trkpt>
      <trkpt lat="54.800812024623156" lon="27.401875024661422">
        <ele>219.80000000000001</ele>
        <time>2011-08-19T08:37:22Z</time>
      </trkpt>
      <trkpt lat="54.800812024623156" lon="27.401875024661422">
        <ele>215.94999999999999</ele>
        <time>2011-08-19T08:37:24Z</time>
      </trkpt>
      <trkpt lat="54.800797021016479" lon="27.401863038539886">
        <ele>216.91</ele>
        <time>2011-08-19T08:37:56Z</time>
      </trkpt>
      <trkpt lat="54.800797021016479" lon="27.401863038539886">
        <ele>216.91</ele>
        <time>2011-08-19T08:38:25Z</time>
      </trkpt>
      <trkpt lat="54.800803977996111" lon="27.401854991912842">
        <ele>216.91</ele>
        <time>2011-08-19T08:38:54Z</time>
      </trkpt>
      <trkpt lat="54.800803977996111" lon="27.401857003569603">
        <ele>216.43000000000001</ele>
        <time>2011-08-19T08:39:21Z</time>
      </trkpt>
      <trkpt lat="54.800803977996111" lon="27.401857003569603">
        <ele>215.94999999999999</ele>
        <time>2011-08-19T08:39:43Z</time>
      </trkpt>
      <trkpt lat="54.80080003850162" lon="27.401839988306165">
        <ele>215.94999999999999</ele>
        <time>2011-08-19T08:40:14Z</time>
      </trkpt>
      <trkpt lat="54.800803977996111" lon="27.401844011619687">
        <ele>216.91</ele>
        <time>2011-08-19T08:40:46Z</time>
      </trkpt>
      <trkpt lat="54.80080003850162" lon="27.401849962770939">
        <ele>216.43000000000001</ele>
        <time>2011-08-19T08:41:14Z</time>
      </trkpt>
      <trkpt lat="54.80080003850162" lon="27.401849962770939">
        <ele>215.94999999999999</ele>
        <time>2011-08-19T08:41:46Z</time>
      </trkpt>
      <trkpt lat="54.800812024623156" lon="27.401871001347899">
        <ele>216.91</ele>
        <time>2011-08-19T08:42:22Z</time>
      </trkpt>
      <trkpt lat="54.800812024623156" lon="27.401864966377616">
        <ele>216.43000000000001</ele>
        <time>2011-08-19T08:42:47Z</time>
      </trkpt>
      <trkpt lat="54.800803977996111" lon="27.401871001347899">
        <ele>216.43000000000001</ele>
        <time>2011-08-19T08:43:00Z</time>
      </trkpt>
      <trkpt lat="54.800803977996111" lon="27.401871001347899">
        <ele>215.94999999999999</ele>
        <time>2011-08-19T08:43:32Z</time>
      </trkpt>
      <trkpt lat="54.80080003850162" lon="27.401868989691138">
        <ele>215.94999999999999</ele>
        <time>2011-08-19T08:43:42Z</time>
      </trkpt>
      <trkpt lat="54.800773970782757" lon="27.401857003569603">
        <ele>215.94999999999999</ele>
        <time>2011-08-19T08:43:45Z</time>
      </trkpt>
      <trkpt lat="54.80071596801281" lon="27.401785003021359">
        <ele>215.47</ele>
        <time>2011-08-19T08:44:00Z</time>
      </trkpt>
      <trkpt lat="54.800685960799456" lon="27.401772011071444">
        <ele>215.47</ele>
        <time>2011-08-19T08:44:23Z</time>
      </trkpt>
      <trkpt lat="54.80054103769362" lon="27.401777040213346">
        <ele>214.99000000000001</ele>
        <time>2011-08-19T08:44:36Z</time>
      </trkpt>
      <trkpt lat="54.800453027710319" lon="27.401728006079793">
        <ele>214.99000000000001</ele>
        <time>2011-08-19T08:44:49Z</time>
      </trkpt>
      <trkpt lat="54.800273990258574" lon="27.401691041886806">
        <ele>214.03</ele>
        <time>2011-08-19T08:45:02Z</time>
      </trkpt>
      <trkpt lat="54.800158990547061" lon="27.401666985824704">
        <ele>214.03</ele>
        <time>2011-08-19T08:45:12Z</time>
      </trkpt>
      <trkpt lat="54.800060000270605" lon="27.401600014418364">
        <ele>213.55000000000001</ele>
        <time>2011-08-19T08:45:25Z</time>
      </trkpt>
      <trkpt lat="54.79994198307395" lon="27.401490965858102">
        <ele>213.06999999999999</ele>
        <time>2011-08-19T08:45:36Z</time>
      </trkpt>
      <trkpt lat="54.79974702000618" lon="27.401334978640079">
        <ele>213.06999999999999</ele>
        <time>2011-08-19T08:45:49Z</time>
      </trkpt>
      <trkpt lat="54.799685999751091" lon="27.401290973648429">
        <ele>214.03</ele>
        <time>2011-08-19T08:45:57Z</time>
      </trkpt>
      <trkpt lat="54.799633026123047" lon="27.401297008618712">
        <ele>214.03</ele>
        <time>2011-08-19T08:46:10Z</time>
      </trkpt>
      <trkpt lat="54.79961802251637" lon="27.401319975033402">
        <ele>213.06999999999999</ele>
        <time>2011-08-19T08:46:18Z</time>
      </trkpt>
      <trkpt lat="54.799389028921723" lon="27.401716019958258">
        <ele>213.06999999999999</ele>
        <time>2011-08-19T08:46:30Z</time>
      </trkpt>
      <trkpt lat="54.79927402921021" lon="27.401938978582621">
        <ele>213.06999999999999</ele>
        <time>2011-08-19T08:46:34Z</time>
      </trkpt>
      <trkpt lat="54.7991450317204" lon="27.402174007147551">
        <ele>213.06999999999999</ele>
        <time>2011-08-19T08:46:38Z</time>
      </trkpt>
      <trkpt lat="54.798888964578509" lon="27.402614979073405">
        <ele>213.06999999999999</ele>
        <time>2011-08-19T08:46:45Z</time>
      </trkpt>
      <trkpt lat="54.798656031489372" lon="27.403130969032645">
        <ele>213.06999999999999</ele>
        <time>2011-08-19T08:46:52Z</time>
      </trkpt>
      <trkpt lat="54.79854597710073" lon="27.403550986200571">
        <ele>212.59</ele>
        <time>2011-08-19T08:46:57Z</time>
      </trkpt>
      <trkpt lat="54.798476994037628" lon="27.4038050416857">
        <ele>213.06999999999999</ele>
        <time>2011-08-19T08:47:00Z</time>
      </trkpt>
      <trkpt lat="54.798367023468018" lon="27.404131013900042">
        <ele>212.11000000000001</ele>
        <time>2011-08-19T08:47:04Z</time>
      </trkpt>
      <trkpt lat="54.798164013773203" lon="27.405343959107995">
        <ele>212.59</ele>
        <time>2011-08-19T08:47:17Z</time>
      </trkpt>
      <trkpt lat="54.797951029613614" lon="27.406464032828808">
        <ele>212.59</ele>
        <time>2011-08-19T08:47:29Z</time>
      </trkpt>
      <trkpt lat="54.797839969396591" lon="27.40702603943646">
        <ele>212.59</ele>
        <time>2011-08-19T08:47:35Z</time>
      </trkpt>
      <trkpt lat="54.797817002981901" lon="27.40711597725749">
        <ele>212.59</ele>
        <time>2011-08-19T08:47:36Z</time>
      </trkpt>
      <trkpt lat="54.797797976061702" lon="27.407207004725933">
        <ele>213.06999999999999</ele>
        <time>2011-08-19T08:47:37Z</time>
      </trkpt>
      <trkpt lat="54.797504022717476" lon="27.408817000687122">
        <ele>212.59</ele>
        <time>2011-08-19T08:47:56Z</time>
      </trkpt>
      <trkpt lat="54.797218032181263" lon="27.410407969728112">
        <ele>213.55000000000001</ele>
        <time>2011-08-19T08:48:16Z</time>
      </trkpt>
      <trkpt lat="54.796935981139541" lon="27.411962980404496">
        <ele>213.06999999999999</ele>
        <time>2011-08-19T08:48:35Z</time>
      </trkpt>
      <trkpt lat="54.796638004481792" lon="27.413595020771027">
        <ele>213.55000000000001</ele>
        <time>2011-08-19T08:48:54Z</time>
      </trkpt>
      <trkpt lat="54.796420997008681" lon="27.415196970105171">
        <ele>213.06999999999999</ele>
        <time>2011-08-19T08:49:13Z</time>
      </trkpt>
      <trkpt lat="54.796348996460438" lon="27.415735004469752">
        <ele>212.59</ele>
        <time>2011-08-19T08:49:20Z</time>
      </trkpt>
      <trkpt lat="54.796295017004013" lon="27.415936002507806">
        <ele>212.59</ele>
        <time>2011-08-19T08:49:23Z</time>
      </trkpt>
      <trkpt lat="54.796268027275801" lon="27.41598897613585">
        <ele>212.59</ele>
        <time>2011-08-19T08:49:24Z</time>
      </trkpt>
      <trkpt lat="54.795974995940924" lon="27.416520975530148">
        <ele>212.11000000000001</ele>
        <time>2011-08-19T08:49:37Z</time>
      </trkpt>
      <trkpt lat="54.795704009011388" lon="27.416535979136825">
        <ele>212.59</ele>
        <time>2011-08-19T08:49:45Z</time>
      </trkpt>
      <trkpt lat="54.795563025400043" lon="27.416259963065386">
        <ele>212.11000000000001</ele>
        <time>2011-08-19T08:49:50Z</time>
      </trkpt>
      <trkpt lat="54.795039994642138" lon="27.415273999795318">
        <ele>211.63</ele>
        <time>2011-08-19T08:50:08Z</time>
      </trkpt>
      <trkpt lat="54.794357037171721" lon="27.414009002968669">
        <ele>211.15000000000001</ele>
        <time>2011-08-19T08:50:29Z</time>
      </trkpt>
      <trkpt lat="54.794254023581743" lon="27.41381797939539">
        <ele>210.19</ele>
        <time>2011-08-19T08:50:32Z</time>
      </trkpt>
      <trkpt lat="54.794219993054867" lon="27.413760982453823">
        <ele>210.19</ele>
        <time>2011-08-19T08:50:33Z</time>
      </trkpt>
      <trkpt lat="54.79418596252799" lon="27.413703985512257">
        <ele>210.19</ele>
        <time>2011-08-19T08:50:34Z</time>
      </trkpt>
      <trkpt lat="54.794146986678243" lon="27.413652017712593">
        <ele>211.15000000000001</ele>
        <time>2011-08-19T08:50:35Z</time>
      </trkpt>
      <trkpt lat="54.794109016656876" lon="27.41360298357904">
        <ele>210.66999999999999</ele>
        <time>2011-08-19T08:50:36Z</time>
      </trkpt>
      <trkpt lat="54.79399099946022" lon="27.413465017452836">
        <ele>210.66999999999999</ele>
        <time>2011-08-19T08:50:39Z</time>
      </trkpt>
      <trkpt lat="54.793170997872949" lon="27.412758003920317">
        <ele>210.19</ele>
        <time>2011-08-19T08:50:58Z</time>
      </trkpt>
      <trkpt lat="54.793133027851582" lon="27.412706036120653">
        <ele>210.19</ele>
        <time>2011-08-19T08:50:59Z</time>
      </trkpt>
      <trkpt lat="54.792434982955456" lon="27.411451013758779">
        <ele>209.22</ele>
        <time>2011-08-19T08:51:20Z</time>
      </trkpt>
      <trkpt lat="54.791831988841295" lon="27.410603016614914">
        <ele>209.22</ele>
        <time>2011-08-19T08:51:37Z</time>
      </trkpt>
      <trkpt lat="54.791297977790236" lon="27.409734986722469">
        <ele>208.74000000000001</ele>
        <time>2011-08-19T08:51:53Z</time>
      </trkpt>
      <trkpt lat="54.7907679900527" lon="27.40889897570014">
        <ele>209.22</ele>
        <time>2011-08-19T08:52:08Z</time>
      </trkpt>
      <trkpt lat="54.790440006181598" lon="27.408395977690816">
        <ele>209.69999999999999</ele>
        <time>2011-08-19T08:52:17Z</time>
      </trkpt>
      <trkpt lat="54.79040103033185" lon="27.408358007669449">
        <ele>209.69999999999999</ele>
        <time>2011-08-19T08:52:18Z</time>
      </trkpt>
      <trkpt lat="54.790359036996961" lon="27.408329006284475">
        <ele>209.69999999999999</ele>
        <time>2011-08-19T08:52:19Z</time>
      </trkpt>
      <trkpt lat="54.790314026176929" lon="27.408309979364276">
        <ele>209.69999999999999</ele>
        <time>2011-08-19T08:52:20Z</time>
      </trkpt>
      <trkpt lat="54.790263986214995" lon="27.408300004899502">
        <ele>210.19</ele>
        <time>2011-08-19T08:52:21Z</time>
      </trkpt>
      <trkpt lat="54.790217969566584" lon="27.408302016556263">
        <ele>210.19</ele>
        <time>2011-08-19T08:52:22Z</time>
      </trkpt>
      <trkpt lat="54.790169019252062" lon="27.408309979364276">
        <ele>209.69999999999999</ele>
        <time>2011-08-19T08:52:23Z</time>
      </trkpt>
      <trkpt lat="54.790118979290128" lon="27.408322971314192">
        <ele>209.69999999999999</ele>
        <time>2011-08-19T08:52:24Z</time>
      </trkpt>
      <trkpt lat="54.790070028975606" lon="27.408341998234391">
        <ele>209.22</ele>
        <time>2011-08-19T08:52:25Z</time>
      </trkpt>
      <trkpt lat="54.789295038208365" lon="27.408839967101812">
        <ele>209.22</ele>
        <time>2011-08-19T08:52:41Z</time>
      </trkpt>
      <trkpt lat="54.788963031023741" lon="27.409195024520159">
        <ele>209.69999999999999</ele>
        <time>2011-08-19T08:52:48Z</time>
      </trkpt>
      <trkpt lat="54.788321983069181" lon="27.409916035830975">
        <ele>208.74000000000001</ele>
        <time>2011-08-19T08:53:03Z</time>
      </trkpt>
      <trkpt lat="54.788218969479203" lon="27.410011002793908">
        <ele>207.78</ele>
        <time>2011-08-19T08:53:11Z</time>
      </trkpt>
      <trkpt lat="54.788218969479203" lon="27.410011002793908">
        <ele>206.81999999999999</ele>
        <time>2011-08-19T08:53:38Z</time>
      </trkpt>
      <trkpt lat="54.788170019164681" lon="27.410106975585222">
        <ele>207.78</ele>
        <time>2011-08-19T08:53:43Z</time>
      </trkpt>
      <trkpt lat="54.787853015586734" lon="27.410434959456325">
        <ele>207.30000000000001</ele>
        <time>2011-08-19T08:53:54Z</time>
      </trkpt>
      <trkpt lat="54.787247003987432" lon="27.411118000745773">
        <ele>206.81999999999999</ele>
        <time>2011-08-19T08:54:10Z</time>
      </trkpt>
      <trkpt lat="54.786597993224859" lon="27.41184001788497">
        <ele>205.38</ele>
        <time>2011-08-19T08:54:27Z</time>
      </trkpt>
      <trkpt lat="54.786400012671947" lon="27.412073034793139">
        <ele>206.34</ele>
        <time>2011-08-19T08:54:32Z</time>
      </trkpt>
      <trkpt lat="54.785575987771153" lon="27.413012981414795">
        <ele>203.46000000000001</ele>
        <time>2011-08-19T08:54:52Z</time>
      </trkpt>
      <trkpt lat="54.784946003928781" lon="27.413716977462173">
        <ele>204.41999999999999</ele>
        <time>2011-08-19T08:55:08Z</time>
      </trkpt>
      <trkpt lat="54.783997004851699" lon="27.414804026484489">
        <ele>203.46000000000001</ele>
        <time>2011-08-19T08:55:30Z</time>
      </trkpt>
      <trkpt lat="54.783187983557582" lon="27.415732992812991">
        <ele>202.97999999999999</ele>
        <time>2011-08-19T08:55:48Z</time>
      </trkpt>
      <trkpt lat="54.78299000300467" lon="27.415909012779593">
        <ele>202.97999999999999</ele>
        <time>2011-08-19T08:55:52Z</time>
      </trkpt>
      <trkpt lat="54.782532015815377" lon="27.416412010788918">
        <ele>202.97999999999999</ele>
        <time>2011-08-19T08:56:02Z</time>
      </trkpt>
      <trkpt lat="54.781658034771681" lon="27.417380958795547">
        <ele>202.97999999999999</ele>
        <time>2011-08-19T08:56:22Z</time>
      </trkpt>
      <trkpt lat="54.780681962147355" lon="27.4184799939394">
        <ele>202.49000000000001</ele>
        <time>2011-08-19T08:56:44Z</time>
      </trkpt>
      <trkpt lat="54.779903031885624" lon="27.419359004124999">
        <ele>202.00999999999999</ele>
        <time>2011-08-19T08:57:02Z</time>
      </trkpt>
      <trkpt lat="54.778861999511719" lon="27.420544037595391">
        <ele>199.61000000000001</ele>
        <time>2011-08-19T08:57:25Z</time>
      </trkpt>
      <trkpt lat="54.778125984594226" lon="27.421367978677154">
        <ele>200.09</ele>
        <time>2011-08-19T08:57:41Z</time>
      </trkpt>
      <trkpt lat="54.778034035116434" lon="27.421474009752274">
        <ele>200.09</ele>
        <time>2011-08-19T08:57:43Z</time>
      </trkpt>
      <trkpt lat="54.777911994606256" lon="27.421653969213367">
        <ele>200.09</ele>
        <time>2011-08-19T08:57:46Z</time>
      </trkpt>
      <trkpt lat="54.777793977409601" lon="27.421791013330221">
        <ele>199.13</ele>
        <time>2011-08-19T08:57:49Z</time>
      </trkpt>
      <trkpt lat="54.777496000751853" lon="27.422152021899819">
        <ele>199.13</ele>
        <time>2011-08-19T08:57:57Z</time>
      </trkpt>
      <trkpt lat="54.777287039905787" lon="27.422534991055727">
        <ele>198.16999999999999</ele>
        <time>2011-08-19T08:58:07Z</time>
      </trkpt>
      <trkpt lat="54.777340013533831" lon="27.422721991315484">
        <ele>197.69</ele>
        <time>2011-08-19T08:58:11Z</time>
      </trkpt>
      <trkpt lat="54.777965974062681" lon="27.423559008166194">
        <ele>197.69</ele>
        <time>2011-08-19T08:58:29Z</time>
      </trkpt>
      <trkpt lat="54.778686985373497" lon="27.424544971436262">
        <ele>197.69</ele>
        <time>2011-08-19T08:58:47Z</time>
      </trkpt>
      <trkpt lat="54.779415037482977" lon="27.425523977726698">
        <ele>197.21000000000001</ele>
        <time>2011-08-19T08:59:05Z</time>
      </trkpt>
      <trkpt lat="54.780093971639872" lon="27.426466019824147">
        <ele>196.72999999999999</ele>
        <time>2011-08-19T08:59:22Z</time>
      </trkpt>
      <trkpt lat="54.780955966562033" lon="27.427643006667495">
        <ele>197.21000000000001</ele>
        <time>2011-08-19T08:59:42Z</time>
      </trkpt>
      <trkpt lat="54.781898008659482" lon="27.428946979343891">
        <ele>196.72999999999999</ele>
        <time>2011-08-19T09:00:02Z</time>
      </trkpt>
      <trkpt lat="54.782542996108532" lon="27.430154979228973">
        <ele>195.28</ele>
        <time>2011-08-19T09:00:18Z</time>
      </trkpt>
      <trkpt lat="54.783084969967604" lon="27.431718958541751">
        <ele>194.80000000000001</ele>
        <time>2011-08-19T09:00:35Z</time>
      </trkpt>
      <trkpt lat="54.783675977960229" lon="27.433217978104949">
        <ele>194.80000000000001</ele>
        <time>2011-08-19T09:00:54Z</time>
      </trkpt>
      <trkpt lat="54.783844035118818" lon="27.433576975017786">
        <ele>194.80000000000001</ele>
        <time>2011-08-19T09:00:59Z</time>
      </trkpt>
      <trkpt lat="54.783874964341521" lon="27.433645036071539">
        <ele>194.80000000000001</ele>
        <time>2011-08-19T09:01:00Z</time>
      </trkpt>
      <trkpt lat="54.783904971554875" lon="27.433717958629131">
        <ele>194.80000000000001</ele>
        <time>2011-08-19T09:01:01Z</time>
      </trkpt>
      <trkpt lat="54.784416016191244" lon="27.434941967949271">
        <ele>195.28</ele>
        <time>2011-08-19T09:01:17Z</time>
      </trkpt>
      <trkpt lat="54.784946003928781" lon="27.436132030561566">
        <ele>195.28</ele>
        <time>2011-08-19T09:01:33Z</time>
      </trkpt>
      <trkpt lat="54.785484038293362" lon="27.437382023781538">
        <ele>194.80000000000001</ele>
        <time>2011-08-19T09:01:49Z</time>
      </trkpt>
      <trkpt lat="54.785991981625557" lon="27.438560016453266">
        <ele>194.31999999999999</ele>
        <time>2011-08-19T09:02:04Z</time>
      </trkpt>
      <trkpt lat="54.78640696965158" lon="27.439546985551715">
        <ele>193.36000000000001</ele>
        <time>2011-08-19T09:02:16Z</time>
      </trkpt>
      <trkpt lat="54.786895969882607" lon="27.4406529776752">
        <ele>192.40000000000001</ele>
        <time>2011-08-19T09:02:30Z</time>
      </trkpt>
      <trkpt lat="54.786980040371418" lon="27.440793961286545">
        <ele>192.40000000000001</ele>
        <time>2011-08-19T09:02:32Z</time>
      </trkpt>
      <trkpt lat="54.787829965353012" lon="27.441974971443415">
        <ele>192.40000000000001</ele>
        <time>2011-08-19T09:02:51Z</time>
      </trkpt>
      <trkpt lat="54.787990981712937" lon="27.442218968644738">
        <ele>193.36000000000001</ele>
        <time>2011-08-19T09:02:55Z</time>
      </trkpt>
      <trkpt lat="54.788025012239814" lon="27.442287029698491">
        <ele>192.88</ele>
        <time>2011-08-19T09:02:56Z</time>
      </trkpt>
      <trkpt lat="54.788330029696226" lon="27.443440966308117">
        <ele>193.36000000000001</ele>
        <time>2011-08-19T09:03:11Z</time>
      </trkpt>
      <trkpt lat="54.788345033302903" lon="27.44381002150476">
        <ele>192.88</ele>
        <time>2011-08-19T09:03:15Z</time>
      </trkpt>
      <trkpt lat="54.788330029696226" lon="27.443986963480711">
        <ele>193.84</ele>
        <time>2011-08-19T09:03:17Z</time>
      </trkpt>
      <trkpt lat="54.787956029176712" lon="27.445562006905675">
        <ele>193.84</ele>
        <time>2011-08-19T09:03:36Z</time>
      </trkpt>
      <trkpt lat="54.787513967603445" lon="27.447279039770365">
        <ele>193.36000000000001</ele>
        <time>2011-08-19T09:03:56Z</time>
      </trkpt>
      <trkpt lat="54.787417994812131" lon="27.447609035298228">
        <ele>191.91999999999999</ele>
        <time>2011-08-19T09:04:04Z</time>
      </trkpt>
      <trkpt lat="54.787417994812131" lon="27.447609035298228">
        <ele>191.44</ele>
        <time>2011-08-19T09:04:33Z</time>
      </trkpt>
      <trkpt lat="54.787341970950365" lon="27.447947999462485">
        <ele>191.91999999999999</ele>
        <time>2011-08-19T09:04:43Z</time>
      </trkpt>
      <trkpt lat="54.787037037312984" lon="27.449136972427368">
        <ele>191.91999999999999</ele>
        <time>2011-08-19T09:05:00Z</time>
      </trkpt>
      <trkpt lat="54.786777030676603" lon="27.450308008119464">
        <ele>191.44</ele>
        <time>2011-08-19T09:05:16Z</time>
      </trkpt>
      <trkpt lat="54.786593969911337" lon="27.451297994703054">
        <ele>191.91999999999999</ele>
        <time>2011-08-19T09:05:32Z</time>
      </trkpt>
      <trkpt lat="54.786525992676616" lon="27.451679036021233">
        <ele>190.96000000000001</ele>
        <time>2011-08-19T09:05:38Z</time>
      </trkpt>
      <trkpt lat="54.78653697296977" lon="27.45173997245729">
        <ele>191.91999999999999</ele>
        <time>2011-08-19T09:05:39Z</time>
      </trkpt>
      <trkpt lat="54.786563962697983" lon="27.451788000762463">
        <ele>191.44</ele>
        <time>2011-08-19T09:05:40Z</time>
      </trkpt>
      <trkpt lat="54.786587012931705" lon="27.451836029067636">
        <ele>190.96000000000001</ele>
        <time>2011-08-19T09:05:41Z</time>
      </trkpt>
      <trkpt lat="54.786612996831536" lon="27.451884979382157">
        <ele>191.44</ele>
        <time>2011-08-19T09:05:42Z</time>
      </trkpt>
      <trkpt lat="54.78685799986124" lon="27.452209023758769">
        <ele>191.44</ele>
        <time>2011-08-19T09:05:52Z</time>
      </trkpt>
      <trkpt lat="54.786861017346382" lon="27.45221296325326">
        <ele>191.44</ele>
        <time>2011-08-19T09:06:09Z</time>
      </trkpt>
      <trkpt lat="54.786861017346382" lon="27.45221296325326">
        <ele>191.44</ele>
        <time>2011-08-19T09:06:33Z</time>
      </trkpt>
      <trkpt lat="54.786861017346382" lon="27.45221296325326">
        <ele>191.44</ele>
        <time>2011-08-19T09:07:10Z</time>
      </trkpt>
      <trkpt lat="54.78685799986124" lon="27.452199971303344">
        <ele>190.47999999999999</ele>
        <time>2011-08-19T09:07:38Z</time>
      </trkpt>
      <trkpt lat="54.78685799986124" lon="27.452201982960105">
        <ele>190.47999999999999</ele>
        <time>2011-08-19T09:08:12Z</time>
      </trkpt>
      <trkpt lat="54.786861017346382" lon="27.452196031808853">
        <ele>190</ele>
        <time>2011-08-19T09:08:52Z</time>
      </trkpt>
      <trkpt lat="54.786868980154395" lon="27.452208017930388">
        <ele>190</ele>
        <time>2011-08-19T09:09:24Z</time>
      </trkpt>
      <trkpt lat="54.786868980154395" lon="27.452196031808853">
        <ele>189.52000000000001</ele>
        <time>2011-08-19T09:10:00Z</time>
      </trkpt>
      <trkpt lat="54.786868980154395" lon="27.452196031808853">
        <ele>189.03999999999999</ele>
        <time>2011-08-19T09:10:31Z</time>
      </trkpt>
      <trkpt lat="54.786873003467917" lon="27.452192008495331">
        <ele>189.03999999999999</ele>
        <time>2011-08-19T09:11:05Z</time>
      </trkpt>
      <trkpt lat="54.78687702678144" lon="27.452194020152092">
        <ele>188.08000000000001</ele>
        <time>2011-08-19T09:11:46Z</time>
      </trkpt>
      <trkpt lat="54.78687996044755" lon="27.45218999683857">
        <ele>188.08000000000001</ele>
        <time>2011-08-19T09:12:27Z</time>
      </trkpt>
      <trkpt lat="54.78687702678144" lon="27.452192008495331">
        <ele>187.59</ele>
        <time>2011-08-19T09:13:02Z</time>
      </trkpt>
      <trkpt lat="54.78687702678144" lon="27.452194020152092">
        <ele>187.59</ele>
        <time>2011-08-19T09:13:31Z</time>
      </trkpt>
      <trkpt lat="54.78687702678144" lon="27.452201982960105">
        <ele>186.15000000000001</ele>
        <time>2011-08-19T09:14:06Z</time>
      </trkpt>
      <trkpt lat="54.78687702678144" lon="27.452194020152092">
        <ele>186.63</ele>
        <time>2011-08-19T09:14:39Z</time>
      </trkpt>
      <trkpt lat="54.78687702678144" lon="27.452194020152092">
        <ele>186.63</ele>
        <time>2011-08-19T09:15:08Z</time>
      </trkpt>
      <trkpt lat="54.786873003467917" lon="27.452192008495331">
        <ele>186.63</ele>
        <time>2011-08-19T09:15:40Z</time>
      </trkpt>
      <trkpt lat="54.78687702678144" lon="27.452192008495331">
        <ele>186.15000000000001</ele>
        <time>2011-08-19T09:16:20Z</time>
      </trkpt>
      <trkpt lat="54.78687996044755" lon="27.45218999683857">
        <ele>186.15000000000001</ele>
        <time>2011-08-19T09:16:58Z</time>
      </trkpt>
      <trkpt lat="54.78687996044755" lon="27.452194020152092">
        <ele>186.15000000000001</ele>
        <time>2011-08-19T09:17:31Z</time>
      </trkpt>
      <trkpt lat="54.78687996044755" lon="27.452194020152092">
        <ele>185.66999999999999</ele>
        <time>2011-08-19T09:18:08Z</time>
      </trkpt>
      <trkpt lat="54.78687702678144" lon="27.45218999683857">
        <ele>185.19</ele>
        <time>2011-08-19T09:18:39Z</time>
      </trkpt>
      <trkpt lat="54.78687702678144" lon="27.452186979353428">
        <ele>185.19</ele>
        <time>2011-08-19T09:19:16Z</time>
      </trkpt>
      <trkpt lat="54.78687702678144" lon="27.452186979353428">
        <ele>185.19</ele>
        <time>2011-08-19T09:19:48Z</time>
      </trkpt>
      <trkpt lat="54.78687702678144" lon="27.452186979353428">
        <ele>185.19</ele>
        <time>2011-08-19T09:20:23Z</time>
      </trkpt>
      <trkpt lat="54.786883983761072" lon="27.452184967696667">
        <ele>184.71000000000001</ele>
        <time>2011-08-19T09:21:05Z</time>
      </trkpt>
      <trkpt lat="54.786888007074594" lon="27.452181028202176">
        <ele>184.71000000000001</ele>
        <time>2011-08-19T09:21:40Z</time>
      </trkpt>
      <trkpt lat="54.786888007074594" lon="27.452172981575131">
        <ele>184.22999999999999</ele>
        <time>2011-08-19T09:22:21Z</time>
      </trkpt>
      <trkpt lat="54.786892030388117" lon="27.452177004888654">
        <ele>184.22999999999999</ele>
        <time>2011-08-19T09:23:00Z</time>
      </trkpt>
      <trkpt lat="54.786888007074594" lon="27.452174993231893">
        <ele>183.75</ele>
        <time>2011-08-19T09:23:42Z</time>
      </trkpt>
      <trkpt lat="54.786883983761072" lon="27.452184967696667">
        <ele>184.22999999999999</ele>
        <time>2011-08-19T09:24:21Z</time>
      </trkpt>
      <trkpt lat="54.78687996044755" lon="27.45218999683857">
        <ele>183.27000000000001</ele>
        <time>2011-08-19T09:24:50Z</time>
      </trkpt>
      <trkpt lat="54.78687996044755" lon="27.452194020152092">
        <ele>183.27000000000001</ele>
        <time>2011-08-19T09:25:27Z</time>
      </trkpt>
      <trkpt lat="54.786873003467917" lon="27.452197959646583">
        <ele>183.27000000000001</ele>
        <time>2011-08-19T09:25:59Z</time>
      </trkpt>
      <trkpt lat="54.78687702678144" lon="27.452201982960105">
        <ele>182.78999999999999</ele>
        <time>2011-08-19T09:26:35Z</time>
      </trkpt>
      <trkpt lat="54.78687702678144" lon="27.452201982960105">
        <ele>182.31</ele>
        <time>2011-08-19T09:27:05Z</time>
      </trkpt>
      <trkpt lat="54.78687702678144" lon="27.452199971303344">
        <ele>182.31</ele>
        <time>2011-08-19T09:27:42Z</time>
      </trkpt>
      <trkpt lat="54.78687702678144" lon="27.452203994616866">
        <ele>182.31</ele>
        <time>2011-08-19T09:28:14Z</time>
      </trkpt>
      <trkpt lat="54.78687702678144" lon="27.452203994616866">
        <ele>182.31</ele>
        <time>2011-08-19T09:28:48Z</time>
      </trkpt>
      <trkpt lat="54.78687702678144" lon="27.452203994616866">
        <ele>182.31</ele>
        <time>2011-08-19T09:29:26Z</time>
      </trkpt>
      <trkpt lat="54.78687702678144" lon="27.452199971303344">
        <ele>182.31</ele>
        <time>2011-08-19T09:29:57Z</time>
      </trkpt>
      <trkpt lat="54.78687702678144" lon="27.452197959646583">
        <ele>181.83000000000001</ele>
        <time>2011-08-19T09:30:33Z</time>
      </trkpt>
      <trkpt lat="54.78687702678144" lon="27.452197959646583">
        <ele>181.34999999999999</ele>
        <time>2011-08-19T09:31:04Z</time>
      </trkpt>
      <trkpt lat="54.786873003467917" lon="27.452196031808853">
        <ele>181.83000000000001</ele>
        <time>2011-08-19T09:31:38Z</time>
      </trkpt>
      <trkpt lat="54.786873003467917" lon="27.452199971303344">
        <ele>181.83000000000001</ele>
        <time>2011-08-19T09:32:08Z</time>
      </trkpt>
      <trkpt lat="54.78687702678144" lon="27.452201982960105">
        <ele>180.87</ele>
        <time>2011-08-19T09:32:37Z</time>
      </trkpt>
      <trkpt lat="54.78687702678144" lon="27.452201982960105">
        <ele>180.87</ele>
        <time>2011-08-19T09:33:05Z</time>
      </trkpt>
      <trkpt lat="54.78687702678144" lon="27.452203994616866">
        <ele>180.87</ele>
        <time>2011-08-19T09:33:40Z</time>
      </trkpt>
      <trkpt lat="54.78687702678144" lon="27.452206006273627">
        <ele>180.87</ele>
        <time>2011-08-19T09:34:11Z</time>
      </trkpt>
      <trkpt lat="54.78687996044755" lon="27.452208017930388">
        <ele>180.87</ele>
        <time>2011-08-19T09:34:48Z</time>
      </trkpt>
      <trkpt lat="54.78687702678144" lon="27.452206006273627">
        <ele>180.38</ele>
        <time>2011-08-19T09:35:25Z</time>
      </trkpt>
      <trkpt lat="54.78687702678144" lon="27.452209023758769">
        <ele>180.87</ele>
        <time>2011-08-19T09:35:59Z</time>
      </trkpt>
      <trkpt lat="54.78687702678144" lon="27.452209023758769">
        <ele>180.38</ele>
        <time>2011-08-19T09:36:30Z</time>
      </trkpt>
      <trkpt lat="54.78687702678144" lon="27.452199971303344">
        <ele>181.83000000000001</ele>
        <time>2011-08-19T09:36:49Z</time>
      </trkpt>
      <trkpt lat="54.78687996044755" lon="27.45221103541553">
        <ele>180.87</ele>
        <time>2011-08-19T09:37:06Z</time>
      </trkpt>
      <trkpt lat="54.78687996044755" lon="27.452209023758769">
        <ele>181.34999999999999</ele>
        <time>2011-08-19T09:37:36Z</time>
      </trkpt>
      <trkpt lat="54.786892030388117" lon="27.452203994616866">
        <ele>181.34999999999999</ele>
        <time>2011-08-19T09:37:54Z</time>
      </trkpt>
      <trkpt lat="54.786853976547718" lon="27.45212403126061">
        <ele>182.31</ele>
        <time>2011-08-19T09:38:03Z</time>
      </trkpt>
      <trkpt lat="54.786780970171094" lon="27.452036021277308">
        <ele>181.34999999999999</ele>
        <time>2011-08-19T09:38:08Z</time>
      </trkpt>
      <trkpt lat="54.786624982953072" lon="27.451495975255966">
        <ele>179.90000000000001</ele>
        <time>2011-08-19T09:38:23Z</time>
      </trkpt>
      <trkpt lat="54.786758003756404" lon="27.450796002522111">
        <ele>179.41999999999999</ele>
        <time>2011-08-19T09:38:37Z</time>
      </trkpt>
      <trkpt lat="54.786934023723006" lon="27.449897965416312">
        <ele>178.94</ele>
        <time>2011-08-19T09:38:53Z</time>
      </trkpt>
      <trkpt lat="54.787132004275918" lon="27.448995988816023">
        <ele>178.94</ele>
        <time>2011-08-19T09:39:07Z</time>
      </trkpt>
      <trkpt lat="54.787365021184087" lon="27.448080014437437">
        <ele>179.41999999999999</ele>
        <time>2011-08-19T09:39:22Z</time>
      </trkpt>
      <trkpt lat="54.787600971758366" lon="27.447159010916948">
        <ele>179.90000000000001</ele>
        <time>2011-08-19T09:39:37Z</time>
      </trkpt>
      <trkpt lat="54.787871958687901" lon="27.446128958836198">
        <ele>179.90000000000001</ele>
        <time>2011-08-19T09:39:53Z</time>
      </trkpt>
      <trkpt lat="54.788173958659172" lon="27.444949960336089">
        <ele>179.90000000000001</ele>
        <time>2011-08-19T09:40:10Z</time>
      </trkpt>
      <trkpt lat="54.788390966132283" lon="27.443805998191237">
        <ele>180.38</ele>
        <time>2011-08-19T09:40:27Z</time>
      </trkpt>
      <trkpt lat="54.788326006382704" lon="27.442908966913819">
        <ele>179.90000000000001</ele>
        <time>2011-08-19T09:40:42Z</time>
      </trkpt>
      <trkpt lat="54.788227016106248" lon="27.442589029669762">
        <ele>178.94</ele>
        <time>2011-08-19T09:40:55Z</time>
      </trkpt>
      <trkpt lat="54.788227016106248" lon="27.442589029669762">
        <ele>178.94</ele>
        <time>2011-08-19T09:41:21Z</time>
      </trkpt>
      <trkpt lat="54.788222992792726" lon="27.442587018013">
        <ele>178.94</ele>
        <time>2011-08-19T09:41:52Z</time>
      </trkpt>
      <trkpt lat="54.788222992792726" lon="27.442587018013">
        <ele>178.94</ele>
        <time>2011-08-19T09:41:55Z</time>
      </trkpt>
      <trkpt lat="54.78814696893096" lon="27.442459026351571">
        <ele>179.41999999999999</ele>
        <time>2011-08-19T09:42:00Z</time>
      </trkpt>
      <trkpt lat="54.787594014778733" lon="27.441571969538927">
        <ele>178.46000000000001</ele>
        <time>2011-08-19T09:42:15Z</time>
      </trkpt>
      <trkpt lat="54.786914996802807" lon="27.440559016540647">
        <ele>178.46000000000001</ele>
        <time>2011-08-19T09:42:33Z</time>
      </trkpt>
      <trkpt lat="54.786548959091306" lon="27.439761981368065">
        <ele>178.94</ele>
        <time>2011-08-19T09:42:46Z</time>
      </trkpt>
      <trkpt lat="54.786518029868603" lon="27.439697021618485">
        <ele>178.94</ele>
        <time>2011-08-19T09:42:47Z</time>
      </trkpt>
      <trkpt lat="54.786156015470624" lon="27.438877020031214">
        <ele>179.90000000000001</ele>
        <time>2011-08-19T09:43:01Z</time>
      </trkpt>
      <trkpt lat="54.786129025742412" lon="27.438823962584138">
        <ele>179.41999999999999</ele>
        <time>2011-08-19T09:43:02Z</time>
      </trkpt>
      <trkpt lat="54.785667015239596" lon="27.437777984887362">
        <ele>179.90000000000001</ele>
        <time>2011-08-19T09:43:20Z</time>
      </trkpt>
      <trkpt lat="54.785641031339765" lon="27.437720987945795">
        <ele>179.90000000000001</ele>
        <time>2011-08-19T09:43:21Z</time>
      </trkpt>
      <trkpt lat="54.785542041063309" lon="27.437483025714755">
        <ele>179.90000000000001</ele>
        <time>2011-08-19T09:43:25Z</time>
      </trkpt>
      <trkpt lat="54.785518990829587" lon="27.437417982146144">
        <ele>179.41999999999999</ele>
        <time>2011-08-19T09:43:26Z</time>
      </trkpt>
      <trkpt lat="54.785496024414897" lon="27.437353022396564">
        <ele>179.90000000000001</ele>
        <time>2011-08-19T09:43:27Z</time>
      </trkpt>
      <trkpt lat="54.784999983385205" lon="27.436171006411314">
        <ele>179.90000000000001</ele>
        <time>2011-08-19T09:43:46Z</time>
      </trkpt>
      <trkpt lat="54.784889006987214" lon="27.435924997553229">
        <ele>179.90000000000001</ele>
        <time>2011-08-19T09:43:50Z</time>
      </trkpt>
      <trkpt lat="54.78485899977386" lon="27.435866994783282">
        <ele>180.38</ele>
        <time>2011-08-19T09:43:51Z</time>
      </trkpt>
      <trkpt lat="54.784556999802589" lon="27.435156041756272">
        <ele>179.90000000000001</ele>
        <time>2011-08-19T09:44:02Z</time>
      </trkpt>
      <trkpt lat="54.784531015902758" lon="27.435086974874139">
        <ele>179.90000000000001</ele>
        <time>2011-08-19T09:44:03Z</time>
      </trkpt>
      <trkpt lat="54.783974038437009" lon="27.433769004419446">
        <ele>179.90000000000001</ele>
        <time>2011-08-19T09:44:23Z</time>
      </trkpt>
      <trkpt lat="54.783545974642038" lon="27.432803995907307">
        <ele>178.94</ele>
        <time>2011-08-19T09:44:39Z</time>
      </trkpt>
      <trkpt lat="54.783099973574281" lon="27.431649975478649">
        <ele>178.94</ele>
        <time>2011-08-19T09:44:57Z</time>
      </trkpt>
      <trkpt lat="54.78283703327179" lon="27.43091999553144">
        <ele>180.38</ele>
        <time>2011-08-19T09:45:08Z</time>
      </trkpt>
      <trkpt lat="54.782783975824714" lon="27.43079200387001">
        <ele>179.41999999999999</ele>
        <time>2011-08-19T09:45:10Z</time>
      </trkpt>
      <trkpt lat="54.782372005283833" lon="27.429664973169565">
        <ele>180.38</ele>
        <time>2011-08-19T09:45:27Z</time>
      </trkpt>
      <trkpt lat="54.781815027818084" lon="27.428766014054418">
        <ele>179.90000000000001</ele>
        <time>2011-08-19T09:45:45Z</time>
      </trkpt>
      <trkpt lat="54.781193006783724" lon="27.427907958626747">
        <ele>180.87</ele>
        <time>2011-08-19T09:46:05Z</time>
      </trkpt>
      <trkpt lat="54.780917996540666" lon="27.427539993077517">
        <ele>182.78999999999999</ele>
        <time>2011-08-19T09:46:14Z</time>
      </trkpt>
      <trkpt lat="54.780379962176085" lon="27.42679400369525">
        <ele>181.83000000000001</ele>
        <time>2011-08-19T09:46:33Z</time>
      </trkpt>
      <trkpt lat="54.779915018007159" lon="27.426176005974412">
        <ele>180.38</ele>
        <time>2011-08-19T09:46:49Z</time>
      </trkpt>
      <trkpt lat="54.779490977525711" lon="27.42559396661818">
        <ele>181.34999999999999</ele>
        <time>2011-08-19T09:47:03Z</time>
      </trkpt>
      <trkpt lat="54.778872979804873" lon="27.424757033586502">
        <ele>180.38</ele>
        <time>2011-08-19T09:47:22Z</time>
      </trkpt>
      <trkpt lat="54.778175018727779" lon="27.423817003145814">
        <ele>180.87</ele>
        <time>2011-08-19T09:47:42Z</time>
      </trkpt>
      <trkpt lat="54.777542017400265" lon="27.422974035143852">
        <ele>180.38</ele>
        <time>2011-08-19T09:48:01Z</time>
      </trkpt>
      <trkpt lat="54.777236999943852" lon="27.422556029632688">
        <ele>180.38</ele>
        <time>2011-08-19T09:48:11Z</time>
      </trkpt>
      <trkpt lat="54.77675998583436" lon="27.421909030526876">
        <ele>179.90000000000001</ele>
        <time>2011-08-19T09:48:27Z</time>
      </trkpt>
      <trkpt lat="54.776042997837067" lon="27.420959025621414">
        <ele>179.90000000000001</ele>
        <time>2011-08-19T09:48:50Z</time>
      </trkpt>
      <trkpt lat="54.775368003174663" lon="27.420012960210443">
        <ele>180.87</ele>
        <time>2011-08-19T09:49:12Z</time>
      </trkpt>
      <trkpt lat="54.775306982919574" lon="27.41992000490427">
        <ele>180.38</ele>
        <time>2011-08-19T09:49:14Z</time>
      </trkpt>
      <trkpt lat="54.775097016245127" lon="27.419509962201118">
        <ele>180.87</ele>
        <time>2011-08-19T09:49:22Z</time>
      </trkpt>
      <trkpt lat="54.774754028767347" lon="27.418760033324361">
        <ele>180.87</ele>
        <time>2011-08-19T09:49:35Z</time>
      </trkpt>
      <trkpt lat="54.774727039039135" lon="27.418699013069272">
        <ele>180.87</ele>
        <time>2011-08-19T09:49:36Z</time>
      </trkpt>
      <trkpt lat="54.774703988805413" lon="27.418635981157422">
        <ele>180.38</ele>
        <time>2011-08-19T09:49:37Z</time>
      </trkpt>
      <trkpt lat="54.774299981072545" lon="27.417696034535766">
        <ele>180.38</ele>
        <time>2011-08-19T09:49:52Z</time>
      </trkpt>
      <trkpt lat="54.77379203774035" lon="27.416498009115458">
        <ele>180.87</ele>
        <time>2011-08-19T09:50:11Z</time>
      </trkpt>
      <trkpt lat="54.773571006953716" lon="27.415981013327837">
        <ele>180.38</ele>
        <time>2011-08-19T09:50:19Z</time>
      </trkpt>
      <trkpt lat="54.773548040539026" lon="27.415913036093116">
        <ele>180.38</ele>
        <time>2011-08-19T09:50:20Z</time>
      </trkpt>
      <trkpt lat="54.773292979225516" lon="27.415338959544897">
        <ele>180.38</ele>
        <time>2011-08-19T09:50:29Z</time>
      </trkpt>
      <trkpt lat="54.773265989497304" lon="27.415279028937221">
        <ele>179.90000000000001</ele>
        <time>2011-08-19T09:50:30Z</time>
      </trkpt>
      <trkpt lat="54.773238999769092" lon="27.415215997025371">
        <ele>179.90000000000001</ele>
        <time>2011-08-19T09:50:31Z</time>
      </trkpt>
      <trkpt lat="54.773216033354402" lon="27.415150031447411">
        <ele>180.38</ele>
        <time>2011-08-19T09:50:32Z</time>
      </trkpt>
      <trkpt lat="54.77319298312068" lon="27.415080964565277">
        <ele>180.38</ele>
        <time>2011-08-19T09:50:33Z</time>
      </trkpt>
      <trkpt lat="54.772785035893321" lon="27.413670960813761">
        <ele>180.38</ele>
        <time>2011-08-19T09:50:53Z</time>
      </trkpt>
      <trkpt lat="54.772537015378475" lon="27.41284903138876">
        <ele>180.38</ele>
        <time>2011-08-19T09:51:06Z</time>
      </trkpt>
      <trkpt lat="54.772495022043586" lon="27.412726990878582">
        <ele>181.34999999999999</ele>
        <time>2011-08-19T09:51:08Z</time>
      </trkpt>
      <trkpt lat="54.772434001788497" lon="27.412539990618825">
        <ele>180.38</ele>
        <time>2011-08-19T09:51:11Z</time>
      </trkpt>
      <trkpt lat="54.772029994055629" lon="27.411172986030579">
        <ele>180.38</ele>
        <time>2011-08-19T09:51:32Z</time>
      </trkpt>
      <trkpt lat="54.771670997142792" lon="27.409998010843992">
        <ele>179.41999999999999</ele>
        <time>2011-08-19T09:51:50Z</time>
      </trkpt>
      <trkpt lat="54.771362040191889" lon="27.408971982076764">
        <ele>178.94</ele>
        <time>2011-08-19T09:52:05Z</time>
      </trkpt>
      <trkpt lat="54.771011006087065" lon="27.407743027433753">
        <ele>177.5</ele>
        <time>2011-08-19T09:52:22Z</time>
      </trkpt>
      <trkpt lat="54.770626025274396" lon="27.406529998406768">
        <ele>177.02000000000001</ele>
        <time>2011-08-19T09:52:40Z</time>
      </trkpt>
      <trkpt lat="54.770298041403294" lon="27.405411014333367">
        <ele>178.46000000000001</ele>
        <time>2011-08-19T09:52:58Z</time>
      </trkpt>
      <trkpt lat="54.770065024495125" lon="27.404370987787843">
        <ele>179.41999999999999</ele>
        <time>2011-08-19T09:53:15Z</time>
      </trkpt>
      <trkpt lat="54.769858997315168" lon="27.403478985652328">
        <ele>179.41999999999999</ele>
        <time>2011-08-19T09:53:30Z</time>
      </trkpt>
      <trkpt lat="54.769691023975611" lon="27.402816982939839">
        <ele>179.90000000000001</ele>
        <time>2011-08-19T09:53:40Z</time>
      </trkpt>
      <trkpt lat="54.769363040104508" lon="27.401345958933234">
        <ele>179.90000000000001</ele>
        <time>2011-08-19T09:54:00Z</time>
      </trkpt>
      <trkpt lat="54.769104039296508" lon="27.4002839718014">
        <ele>178.94</ele>
        <time>2011-08-19T09:54:14Z</time>
      </trkpt>
      <trkpt lat="54.76883296854794" lon="27.399174040183425">
        <ele>178.94</ele>
        <time>2011-08-19T09:54:29Z</time>
      </trkpt>
      <trkpt lat="54.76852803491056" lon="27.397949025034904">
        <ele>178.94</ele>
        <time>2011-08-19T09:54:47Z</time>
      </trkpt>
      <trkpt lat="54.768214970827103" lon="27.396647986024618">
        <ele>179.41999999999999</ele>
        <time>2011-08-19T09:55:07Z</time>
      </trkpt>
      <trkpt lat="54.76786402054131" lon="27.395276958122849">
        <ele>178.94</ele>
        <time>2011-08-19T09:55:29Z</time>
      </trkpt>
      <trkpt lat="54.767574006691575" lon="27.394027970731258">
        <ele>179.90000000000001</ele>
        <time>2011-08-19T09:55:49Z</time>
      </trkpt>
      <trkpt lat="54.767273012548685" lon="27.392801027745008">
        <ele>179.41999999999999</ele>
        <time>2011-08-19T09:56:08Z</time>
      </trkpt>
      <trkpt lat="54.767189025878906" lon="27.392487041652203">
        <ele>179.41999999999999</ele>
        <time>2011-08-19T09:56:13Z</time>
      </trkpt>
      <trkpt lat="54.767169998958707" lon="27.392427027225494">
        <ele>178.94</ele>
        <time>2011-08-19T09:56:14Z</time>
      </trkpt>
      <trkpt lat="54.767147032544017" lon="27.392362989485264">
        <ele>178.94</ele>
        <time>2011-08-19T09:56:15Z</time>
      </trkpt>
      <trkpt lat="54.766613021492958" lon="27.391077037900686">
        <ele>177.97999999999999</ele>
        <time>2011-08-19T09:56:36Z</time>
      </trkpt>
      <trkpt lat="54.766224017366767" lon="27.390304980799556">
        <ele>177.02000000000001</ele>
        <time>2011-08-19T09:56:49Z</time>
      </trkpt>
      <trkpt lat="54.766158973798156" lon="27.390194004401565">
        <ele>177.97999999999999</ele>
        <time>2011-08-19T09:56:51Z</time>
      </trkpt>
      <trkpt lat="54.766128966584802" lon="27.390137007459998">
        <ele>177.5</ele>
        <time>2011-08-19T09:56:52Z</time>
      </trkpt>
      <trkpt lat="54.766101976856589" lon="27.390075987204909">
        <ele>177.5</ele>
        <time>2011-08-19T09:56:53Z</time>
      </trkpt>
      <trkpt lat="54.766068030148745" lon="27.390016978606582">
        <ele>177.5</ele>
        <time>2011-08-19T09:56:54Z</time>
      </trkpt>
      <trkpt lat="54.766032993793488" lon="27.389960987493396">
        <ele>177.5</ele>
        <time>2011-08-19T09:56:55Z</time>
      </trkpt>
      <trkpt lat="54.765450032427907" lon="27.388984998688102">
        <ele>177.5</ele>
        <time>2011-08-19T09:57:13Z</time>
      </trkpt>
      <trkpt lat="54.764922978356481" lon="27.388116968795657">
        <ele>177.5</ele>
        <time>2011-08-19T09:57:29Z</time>
      </trkpt>
      <trkpt lat="54.764717034995556" lon="27.387796025723219">
        <ele>177.02000000000001</ele>
        <time>2011-08-19T09:57:35Z</time>
      </trkpt>
      <trkpt lat="54.764153016731143" lon="27.38670302554965">
        <ele>177.02000000000001</ele>
        <time>2011-08-19T09:57:53Z</time>
      </trkpt>
      <trkpt lat="54.76369502954185" lon="27.38539301790297">
        <ele>176.53999999999999</ele>
        <time>2011-08-19T09:58:11Z</time>
      </trkpt>
      <trkpt lat="54.763248022645712" lon="27.384129026904702">
        <ele>176.53999999999999</ele>
        <time>2011-08-19T09:58:29Z</time>
      </trkpt>
      <trkpt lat="54.762984998524189" lon="27.382897976785898">
        <ele>176.06</ele>
        <time>2011-08-19T09:58:46Z</time>
      </trkpt>
      <trkpt lat="54.762839991599321" lon="27.381350006908178">
        <ele>176.53999999999999</ele>
        <time>2011-08-19T09:59:06Z</time>
      </trkpt>
      <trkpt lat="54.762694984674454" lon="27.379809999838471">
        <ele>176.06</ele>
        <time>2011-08-19T09:59:26Z</time>
      </trkpt>
      <trkpt lat="54.762546960264444" lon="27.378310980275273">
        <ele>177.5</ele>
        <time>2011-08-19T09:59:46Z</time>
      </trkpt>
      <trkpt lat="54.762378986924887" lon="27.376604005694389">
        <ele>177.02000000000001</ele>
        <time>2011-08-19T10:00:09Z</time>
      </trkpt>
      <trkpt lat="54.762233980000019" lon="27.375030973926187">
        <ele>177.97999999999999</ele>
        <time>2011-08-19T10:00:29Z</time>
      </trkpt>
      <trkpt lat="54.762123003602028" lon="27.37389799207449">
        <ele>178.94</ele>
        <time>2011-08-19T10:00:45Z</time>
      </trkpt>
      <trkpt lat="54.762028036639094" lon="27.372834999114275">
        <ele>178.46000000000001</ele>
        <time>2011-08-19T10:01:02Z</time>
      </trkpt>
      <trkpt lat="54.761802982538939" lon="27.371656000614166">
        <ele>177.97999999999999</ele>
        <time>2011-08-19T10:01:20Z</time>
      </trkpt>
      <trkpt lat="54.761780016124249" lon="27.371584000065923">
        <ele>177.97999999999999</ele>
        <time>2011-08-19T10:01:21Z</time>
      </trkpt>
      <trkpt lat="54.76152403280139" lon="27.3707390204072">
        <ele>176.53999999999999</ele>
        <time>2011-08-19T10:01:32Z</time>
      </trkpt>
      <trkpt lat="54.761287998408079" lon="27.369554992765188">
        <ele>176.06</ele>
        <time>2011-08-19T10:01:48Z</time>
      </trkpt>
      <trkpt lat="54.761192025616765" lon="27.367846006527543">
        <ele>177.02000000000001</ele>
        <time>2011-08-19T10:02:08Z</time>
      </trkpt>
      <trkpt lat="54.761081971228123" lon="27.366436002776027">
        <ele>176.53999999999999</ele>
        <time>2011-08-19T10:02:26Z</time>
      </trkpt>
      <trkpt lat="54.760990021750331" lon="27.365237977355719">
        <ele>177.02000000000001</ele>
        <time>2011-08-19T10:02:42Z</time>
      </trkpt>
      <trkpt lat="54.760982980951667" lon="27.365165976807475">
        <ele>176.53999999999999</ele>
        <time>2011-08-19T10:02:43Z</time>
      </trkpt>
      <trkpt lat="54.760867981240153" lon="27.363769970834255">
        <ele>177.02000000000001</ele>
        <time>2011-08-19T10:03:02Z</time>
      </trkpt>
      <trkpt lat="54.760830011218786" lon="27.363399993628263">
        <ele>177.02000000000001</ele>
        <time>2011-08-19T10:03:07Z</time>
      </trkpt>
      <trkpt lat="54.760764967650175" lon="27.363056000322104">
        <ele>176.53999999999999</ele>
        <time>2011-08-19T10:03:12Z</time>
      </trkpt>
      <trkpt lat="54.760619960725307" lon="27.362674959003925">
        <ele>176.53999999999999</ele>
        <time>2011-08-19T10:03:18Z</time>
      </trkpt>
      <trkpt lat="54.760590037330985" lon="27.362620979547501">
        <ele>177.02000000000001</ele>
        <time>2011-08-19T10:03:19Z</time>
      </trkpt>
      <trkpt lat="54.760562963783741" lon="27.362568005919456">
        <ele>176.53999999999999</ele>
        <time>2011-08-19T10:03:20Z</time>
      </trkpt>
      <trkpt lat="54.760032976046205" lon="27.361721014603972">
        <ele>176.53999999999999</ele>
        <time>2011-08-19T10:03:36Z</time>
      </trkpt>
      <trkpt lat="54.759453032165766" lon="27.36094300635159">
        <ele>177.5</ele>
        <time>2011-08-19T10:03:52Z</time>
      </trkpt>
      <trkpt lat="54.75933501496911" lon="27.360810991376638">
        <ele>177.02000000000001</ele>
        <time>2011-08-19T10:03:56Z</time>
      </trkpt>
      <trkpt lat="54.759314982220531" lon="27.360780984163284">
        <ele>177.02000000000001</ele>
        <time>2011-08-19T10:04:07Z</time>
      </trkpt>
      <trkpt lat="54.759314982220531" lon="27.360780984163284">
        <ele>177.02000000000001</ele>
        <time>2011-08-19T10:04:29Z</time>
      </trkpt>
      <trkpt lat="54.759314982220531" lon="27.360778972506523">
        <ele>177.02000000000001</ele>
        <time>2011-08-19T10:05:00Z</time>
      </trkpt>
      <trkpt lat="54.759314982220531" lon="27.360778972506523">
        <ele>176.06</ele>
        <time>2011-08-19T10:05:20Z</time>
      </trkpt>
      <trkpt lat="54.759314982220531" lon="27.360785007476807">
        <ele>176.53999999999999</ele>
        <time>2011-08-19T10:05:46Z</time>
      </trkpt>
      <trkpt lat="54.759314982220531" lon="27.360785007476807">
        <ele>177.02000000000001</ele>
        <time>2011-08-19T10:06:02Z</time>
      </trkpt>
      <trkpt lat="54.759308025240898" lon="27.36077100969851">
        <ele>177.5</ele>
        <time>2011-08-19T10:06:06Z</time>
      </trkpt>
      <trkpt lat="54.759136028587818" lon="27.360604964196682">
        <ele>177.5</ele>
        <time>2011-08-19T10:06:14Z</time>
      </trkpt>
      <trkpt lat="54.758548960089684" lon="27.360232975333929">
        <ele>178.46000000000001</ele>
        <time>2011-08-19T10:06:32Z</time>
      </trkpt>
      <trkpt lat="54.757984019815922" lon="27.359858974814415">
        <ele>179.90000000000001</ele>
        <time>2011-08-19T10:06:49Z</time>
      </trkpt>
      <trkpt lat="54.757324028760195" lon="27.359454967081547">
        <ele>180.38</ele>
        <time>2011-08-19T10:07:08Z</time>
      </trkpt>
      <trkpt lat="54.756579967215657" lon="27.358985999599099">
        <ele>179.90000000000001</ele>
        <time>2011-08-19T10:07:29Z</time>
      </trkpt>
      <trkpt lat="54.755886029452085" lon="27.358548967167735">
        <ele>179.41999999999999</ele>
        <time>2011-08-19T10:07:47Z</time>
      </trkpt>
      <trkpt lat="54.755150014534593" lon="27.35808402299881">
        <ele>179.90000000000001</ele>
        <time>2011-08-19T10:08:06Z</time>
      </trkpt>
      <trkpt lat="54.754547020420432" lon="27.357686972245574">
        <ele>180.38</ele>
        <time>2011-08-19T10:08:23Z</time>
      </trkpt>
      <trkpt lat="54.753799019381404" lon="27.357211969792843">
        <ele>180.38</ele>
        <time>2011-08-19T10:08:44Z</time>
      </trkpt>
      <trkpt lat="54.753241958096623" lon="27.356807962059975">
        <ele>181.83000000000001</ele>
        <time>2011-08-19T10:09:00Z</time>
      </trkpt>
      <trkpt lat="54.752658996731043" lon="27.356189964339137">
        <ele>180.87</ele>
        <time>2011-08-19T10:09:17Z</time>
      </trkpt>
      <trkpt lat="54.752227999269962" lon="27.355643967166543">
        <ele>184.71000000000001</ele>
        <time>2011-08-19T10:09:30Z</time>
      </trkpt>
      <trkpt lat="54.751651994884014" lon="27.354800999164581">
        <ele>184.22999999999999</ele>
        <time>2011-08-19T10:09:48Z</time>
      </trkpt>
      <trkpt lat="54.751620981842279" lon="27.354748025536537">
        <ele>183.75</ele>
        <time>2011-08-19T10:09:49Z</time>
      </trkpt>
      <trkpt lat="54.751457031816244" lon="27.354409983381629">
        <ele>182.78999999999999</ele>
        <time>2011-08-19T10:09:55Z</time>
      </trkpt>
      <trkpt lat="54.75095696747303" lon="27.353298040106893">
        <ele>182.31</ele>
        <time>2011-08-19T10:10:13Z</time>
      </trkpt>
      <trkpt lat="54.75078203715384" lon="27.352910963818431">
        <ele>181.83000000000001</ele>
        <time>2011-08-19T10:10:19Z</time>
      </trkpt>
      <trkpt lat="54.750320026651025" lon="27.351858029142022">
        <ele>181.34999999999999</ele>
        <time>2011-08-19T10:10:35Z</time>
      </trkpt>
      <trkpt lat="54.749877965077758" lon="27.35082596540451">
        <ele>180.87</ele>
        <time>2011-08-19T10:10:52Z</time>
      </trkpt>
      <trkpt lat="54.749461971223354" lon="27.349567003548145">
        <ele>179.41999999999999</ele>
        <time>2011-08-19T10:11:11Z</time>
      </trkpt>
      <trkpt lat="54.749100040644407" lon="27.348437961190939">
        <ele>180.87</ele>
        <time>2011-08-19T10:11:28Z</time>
      </trkpt>
      <trkpt lat="54.74897800013423" lon="27.348050968721509">
        <ele>178.94</ele>
        <time>2011-08-19T10:11:34Z</time>
      </trkpt>
      <trkpt lat="54.748608022928238" lon="27.34682796522975">
        <ele>178.46000000000001</ele>
        <time>2011-08-19T10:11:51Z</time>
      </trkpt>
      <trkpt lat="54.748508026823401" lon="27.346530994400382">
        <ele>177.5</ele>
        <time>2011-08-19T10:11:55Z</time>
      </trkpt>
      <trkpt lat="54.74835597909987" lon="27.345979968085885">
        <ele>177.5</ele>
        <time>2011-08-19T10:12:02Z</time>
      </trkpt>
      <trkpt lat="54.748198986053467" lon="27.345059970393777">
        <ele>175.09999999999999</ele>
        <time>2011-08-19T10:12:13Z</time>
      </trkpt>
      <trkpt lat="54.748195968568325" lon="27.344477009028196">
        <ele>175.09999999999999</ele>
        <time>2011-08-19T10:12:20Z</time>
      </trkpt>
      <trkpt lat="54.74835597909987" lon="27.343447040766478">
        <ele>175.09999999999999</ele>
        <time>2011-08-19T10:12:34Z</time>
      </trkpt>
      <trkpt lat="54.748577009886503" lon="27.342205010354519">
        <ele>176.53999999999999</ele>
        <time>2011-08-19T10:12:50Z</time>
      </trkpt>
      <trkpt lat="54.748774990439415" lon="27.340954011306167">
        <ele>177.5</ele>
        <time>2011-08-19T10:13:07Z</time>
      </trkpt>
      <trkpt lat="54.748946987092495" lon="27.339794039726257">
        <ele>177.02000000000001</ele>
        <time>2011-08-19T10:13:22Z</time>
      </trkpt>
      <trkpt lat="54.749157037585974" lon="27.338453019037843">
        <ele>177.02000000000001</ele>
        <time>2011-08-19T10:13:39Z</time>
      </trkpt>
      <trkpt lat="54.749344037845731" lon="27.337197996675968">
        <ele>177.02000000000001</ele>
        <time>2011-08-19T10:13:55Z</time>
      </trkpt>
      <trkpt lat="54.749404974281788" lon="27.336803041398525">
        <ele>177.02000000000001</ele>
        <time>2011-08-19T10:14:00Z</time>
      </trkpt>
      <trkpt lat="54.749458031728864" lon="27.336507998406887">
        <ele>177.97999999999999</ele>
        <time>2011-08-19T10:14:04Z</time>
      </trkpt>
      <trkpt lat="54.749672021716833" lon="27.335186004638672">
        <ele>177.5</ele>
        <time>2011-08-19T10:14:22Z</time>
      </trkpt>
      <trkpt lat="54.749832032248378" lon="27.3336579836905">
        <ele>177.02000000000001</ele>
        <time>2011-08-19T10:14:40Z</time>
      </trkpt>
      <trkpt lat="54.749786015599966" lon="27.332307994365692">
        <ele>177.5</ele>
        <time>2011-08-19T10:14:56Z</time>
      </trkpt>
      <trkpt lat="54.749512011185288" lon="27.330769998952746">
        <ele>176.53999999999999</ele>
        <time>2011-08-19T10:15:16Z</time>
      </trkpt>
      <trkpt lat="54.749226020649076" lon="27.329486981034279">
        <ele>177.97999999999999</ele>
        <time>2011-08-19T10:15:33Z</time>
      </trkpt>
      <trkpt lat="54.74906500428915" lon="27.329041985794902">
        <ele>177.5</ele>
        <time>2011-08-19T10:15:40Z</time>
      </trkpt>
      <trkpt lat="54.748961990699172" lon="27.328868983313441">
        <ele>177.02000000000001</ele>
        <time>2011-08-19T10:15:43Z</time>
      </trkpt>
      <trkpt lat="54.748547002673149" lon="27.328649964183569">
        <ele>176.06</ele>
        <time>2011-08-19T10:15:52Z</time>
      </trkpt>
      <trkpt lat="54.747978039085865" lon="27.328826989978552">
        <ele>176.06</ele>
        <time>2011-08-19T10:16:04Z</time>
      </trkpt>
      <trkpt lat="54.747643014416099" lon="27.328477967530489">
        <ele>175.58000000000001</ele>
        <time>2011-08-19T10:16:14Z</time>
      </trkpt>
      <trkpt lat="54.747612001374364" lon="27.328342013061047">
        <ele>175.09999999999999</ele>
        <time>2011-08-19T10:16:16Z</time>
      </trkpt>
      <trkpt lat="54.747440004721284" lon="27.326902002096176">
        <ele>175.58000000000001</ele>
        <time>2011-08-19T10:16:34Z</time>
      </trkpt>
      <trkpt lat="54.74740999750793" lon="27.326669991016388">
        <ele>175.58000000000001</ele>
        <time>2011-08-19T10:16:37Z</time>
      </trkpt>
      <trkpt lat="54.747249986976385" lon="27.32544899918139">
        <ele>176.53999999999999</ele>
        <time>2011-08-19T10:16:53Z</time>
      </trkpt>
      <trkpt lat="54.747062986716628" lon="27.324156006798148">
        <ele>177.5</ele>
        <time>2011-08-19T10:17:10Z</time>
      </trkpt>
      <trkpt lat="54.74691797979176" lon="27.323026964440942">
        <ele>178.94</ele>
        <time>2011-08-19T10:17:26Z</time>
      </trkpt>
      <trkpt lat="54.746886966750026" lon="27.321605980396271">
        <ele>178.46000000000001</ele>
        <time>2011-08-19T10:17:46Z</time>
      </trkpt>
      <trkpt lat="54.746901970356703" lon="27.32042295858264">
        <ele>179.90000000000001</ele>
        <time>2011-08-19T10:18:01Z</time>
      </trkpt>
      <trkpt lat="54.746941030025482" lon="27.319119991734624">
        <ele>178.94</ele>
        <time>2011-08-19T10:18:19Z</time>
      </trkpt>
      <trkpt lat="54.746974976733327" lon="27.317664977163076">
        <ele>178.46000000000001</ele>
        <time>2011-08-19T10:18:39Z</time>
      </trkpt>
      <trkpt lat="54.747025016695261" lon="27.316194958984852">
        <ele>178.94</ele>
        <time>2011-08-19T10:18:59Z</time>
      </trkpt>
      <trkpt lat="54.747077990323305" lon="27.314709015190601">
        <ele>179.90000000000001</ele>
        <time>2011-08-19T10:19:19Z</time>
      </trkpt>
      <trkpt lat="54.747082013636827" lon="27.314000995829701">
        <ele>179.41999999999999</ele>
        <time>2011-08-19T10:19:32Z</time>
      </trkpt>
      <trkpt lat="54.747082013636827" lon="27.313744006678462">
        <ele>178.94</ele>
        <time>2011-08-19T10:19:43Z</time>
      </trkpt>
      <trkpt lat="54.747082013636827" lon="27.313744006678462">
        <ele>179.41999999999999</ele>
        <time>2011-08-19T10:20:04Z</time>
      </trkpt>
      <trkpt lat="54.74708603695035" lon="27.313741995021701">
        <ele>178.94</ele>
        <time>2011-08-19T10:20:39Z</time>
      </trkpt>
      <trkpt lat="54.74708603695035" lon="27.313741995021701">
        <ele>178.94</ele>
        <time>2011-08-19T10:21:00Z</time>
      </trkpt>
      <trkpt lat="54.74708897061646" lon="27.313683992251754">
        <ele>177.5</ele>
        <time>2011-08-19T10:21:13Z</time>
      </trkpt>
      <trkpt lat="54.747082013636827" lon="27.313692038878798">
        <ele>177.02000000000001</ele>
        <time>2011-08-19T10:21:44Z</time>
      </trkpt>
      <trkpt lat="54.74708897061646" lon="27.31369799003005">
        <ele>178.46000000000001</ele>
        <time>2011-08-19T10:22:12Z</time>
      </trkpt>
      <trkpt lat="54.74708603695035" lon="27.313690027222037">
        <ele>178.46000000000001</ele>
        <time>2011-08-19T10:22:47Z</time>
      </trkpt>
      <trkpt lat="54.74708603695035" lon="27.313686003908515">
        <ele>178.94</ele>
        <time>2011-08-19T10:23:31Z</time>
      </trkpt>
      <trkpt lat="54.74708603695035" lon="27.313686003908515">
        <ele>178.94</ele>
        <time>2011-08-19T10:24:03Z</time>
      </trkpt>
      <trkpt lat="54.74708897061646" lon="27.31369799003005">
        <ele>178.46000000000001</ele>
        <time>2011-08-19T10:24:35Z</time>
      </trkpt>
      <trkpt lat="54.74708897061646" lon="27.313706958666444">
        <ele>178.94</ele>
        <time>2011-08-19T10:25:05Z</time>
      </trkpt>
      <trkpt lat="54.74708897061646" lon="27.313705030828714">
        <ele>178.94</ele>
        <time>2011-08-19T10:25:38Z</time>
      </trkpt>
      <trkpt lat="54.74708897061646" lon="27.313704025000334">
        <ele>177.97999999999999</ele>
        <time>2011-08-19T10:26:12Z</time>
      </trkpt>
      <trkpt lat="54.747082013636827" lon="27.313690027222037">
        <ele>178.46000000000001</ele>
        <time>2011-08-19T10:26:37Z</time>
      </trkpt>
      <trkpt lat="54.747082013636827" lon="27.313690027222037">
        <ele>178.46000000000001</ele>
        <time>2011-08-19T10:26:38Z</time>
      </trkpt>
      <trkpt lat="54.747055023908615" lon="27.313607968389988">
        <ele>178.94</ele>
        <time>2011-08-19T10:26:42Z</time>
      </trkpt>
      <trkpt lat="54.746802980080247" lon="27.312897015362978">
        <ele>179.90000000000001</ele>
        <time>2011-08-19T10:26:57Z</time>
      </trkpt>
      <trkpt lat="54.746329989284277" lon="27.312459982931614">
        <ele>179.41999999999999</ele>
        <time>2011-08-19T10:27:12Z</time>
      </trkpt>
      <trkpt lat="54.745892034843564" lon="27.312142979353666">
        <ele>179.90000000000001</ele>
        <time>2011-08-19T10:27:25Z</time>
      </trkpt>
      <trkpt lat="54.745204970240593" lon="27.311667976900935">
        <ele>180.38</ele>
        <time>2011-08-19T10:27:43Z</time>
      </trkpt>
      <trkpt lat="54.744544979184866" lon="27.311204960569739">
        <ele>181.83000000000001</ele>
        <time>2011-08-19T10:28:00Z</time>
      </trkpt>
      <trkpt lat="54.743926981464028" lon="27.310748985037208">
        <ele>180.87</ele>
        <time>2011-08-19T10:28:17Z</time>
      </trkpt>
      <trkpt lat="54.743319964036345" lon="27.310308013111353">
        <ele>181.83000000000001</ele>
        <time>2011-08-19T10:28:34Z</time>
      </trkpt>
      <trkpt lat="54.742759969085455" lon="27.309908028692007">
        <ele>181.83000000000001</ele>
        <time>2011-08-19T10:28:50Z</time>
      </trkpt>
      <trkpt lat="54.742039041593671" lon="27.309384997934103">
        <ele>181.83000000000001</ele>
        <time>2011-08-19T10:29:08Z</time>
      </trkpt>
      <trkpt lat="54.741402016952634" lon="27.308929022401571">
        <ele>183.27000000000001</ele>
        <time>2011-08-19T10:29:25Z</time>
      </trkpt>
      <trkpt lat="54.740730039775372" lon="27.308448990806937">
        <ele>182.78999999999999</ele>
        <time>2011-08-19T10:29:42Z</time>
      </trkpt>
      <trkpt lat="54.739994024857879" lon="27.307905005291104">
        <ele>182.31</ele>
        <time>2011-08-19T10:30:00Z</time>
      </trkpt>
      <trkpt lat="54.73973804153502" lon="27.307713981717825">
        <ele>180.87</ele>
        <time>2011-08-19T10:30:06Z</time>
      </trkpt>
      <trkpt lat="54.738811003044248" lon="27.307043010368943">
        <ele>180.87</ele>
        <time>2011-08-19T10:30:27Z</time>
      </trkpt>
      <trkpt lat="54.737884970381856" lon="27.306359969079494">
        <ele>179.41999999999999</ele>
        <time>2011-08-19T10:30:47Z</time>
      </trkpt>
      <trkpt lat="54.737124983221292" lon="27.305809026584029">
        <ele>178.94</ele>
        <time>2011-08-19T10:31:04Z</time>
      </trkpt>
      <trkpt lat="54.73653799854219" lon="27.305396972224116">
        <ele>177.97999999999999</ele>
        <time>2011-08-19T10:31:18Z</time>
      </trkpt>
      <trkpt lat="54.735992001369596" lon="27.304978966712952">
        <ele>178.46000000000001</ele>
        <time>2011-08-19T10:31:32Z</time>
      </trkpt>
      <trkpt lat="54.73587398417294" lon="27.304891962558031">
        <ele>178.46000000000001</ele>
        <time>2011-08-19T10:31:35Z</time>
      </trkpt>
      <trkpt lat="54.735561003908515" lon="27.304551992565393">
        <ele>177.5</ele>
        <time>2011-08-19T10:31:43Z</time>
      </trkpt>
      <trkpt lat="54.73511902615428" lon="27.303476007655263">
        <ele>177.02000000000001</ele>
        <time>2011-08-19T10:31:59Z</time>
      </trkpt>
      <trkpt lat="54.734886009246111" lon="27.302788021042943">
        <ele>176.53999999999999</ele>
        <time>2011-08-19T10:32:08Z</time>
      </trkpt>
      <trkpt lat="54.734862959012389" lon="27.302715014666319">
        <ele>176.53999999999999</ele>
        <time>2011-08-19T10:32:09Z</time>
      </trkpt>
      <trkpt lat="54.734561964869499" lon="27.301796022802591">
        <ele>177.02000000000001</ele>
        <time>2011-08-19T10:32:22Z</time>
      </trkpt>
      <trkpt lat="54.734351998195052" lon="27.301167966797948">
        <ele>176.06</ele>
        <time>2011-08-19T10:32:30Z</time>
      </trkpt>
      <trkpt lat="54.734321990981698" lon="27.301095966249704">
        <ele>175.58000000000001</ele>
        <time>2011-08-19T10:32:31Z</time>
      </trkpt>
      <trkpt lat="54.734299024567008" lon="27.301018014550209">
        <ele>176.06</ele>
        <time>2011-08-19T10:32:32Z</time>
      </trkpt>
      <trkpt lat="54.733940027654171" lon="27.299957033246756">
        <ele>175.58000000000001</ele>
        <time>2011-08-19T10:32:46Z</time>
      </trkpt>
      <trkpt lat="54.733913037925959" lon="27.299891989678144">
        <ele>176.06</ele>
        <time>2011-08-19T10:32:47Z</time>
      </trkpt>
      <trkpt lat="54.733890993520617" lon="27.299824012443423">
        <ele>175.58000000000001</ele>
        <time>2011-08-19T10:32:48Z</time>
      </trkpt>
      <trkpt lat="54.733687983825803" lon="27.299228981137276">
        <ele>177.02000000000001</ele>
        <time>2011-08-19T10:32:57Z</time>
      </trkpt>
      <trkpt lat="54.733433006331325" lon="27.29850796982646">
        <ele>175.58000000000001</ele>
        <time>2011-08-19T10:33:07Z</time>
      </trkpt>
      <trkpt lat="54.733108961954713" lon="27.297629965469241">
        <ele>176.06</ele>
        <time>2011-08-19T10:33:20Z</time>
      </trkpt>
      <trkpt lat="54.732707971706986" lon="27.296404028311372">
        <ele>176.53999999999999</ele>
        <time>2011-08-19T10:33:37Z</time>
      </trkpt>
      <trkpt lat="54.732296001166105" lon="27.295210026204586">
        <ele>176.53999999999999</ele>
        <time>2011-08-19T10:33:53Z</time>
      </trkpt>
      <trkpt lat="54.732273034751415" lon="27.29513400234282">
        <ele>176.53999999999999</ele>
        <time>2011-08-19T10:33:54Z</time>
      </trkpt>
      <trkpt lat="54.731911020353436" lon="27.294071009382606">
        <ele>176.06</ele>
        <time>2011-08-19T10:34:08Z</time>
      </trkpt>
      <trkpt lat="54.731709016487002" lon="27.29343599639833">
        <ele>177.5</ele>
        <time>2011-08-19T10:34:17Z</time>
      </trkpt>
      <trkpt lat="54.731304002925754" lon="27.292248029261827">
        <ele>178.46000000000001</ele>
        <time>2011-08-19T10:34:35Z</time>
      </trkpt>
      <trkpt lat="54.730811985209584" lon="27.290920000523329">
        <ele>176.53999999999999</ele>
        <time>2011-08-19T10:34:55Z</time>
      </trkpt>
      <trkpt lat="54.730701008811593" lon="27.290710033848882">
        <ele>177.02000000000001</ele>
        <time>2011-08-19T10:34:59Z</time>
      </trkpt>
      <trkpt lat="54.730636971071362" lon="27.290614983066916">
        <ele>177.02000000000001</ele>
        <time>2011-08-19T10:35:01Z</time>
      </trkpt>
      <trkpt lat="54.729976980015635" lon="27.290337039157748">
        <ele>177.5</ele>
        <time>2011-08-19T10:35:17Z</time>
      </trkpt>
      <trkpt lat="54.729762990027666" lon="27.290333015844226">
        <ele>176.53999999999999</ele>
        <time>2011-08-19T10:35:22Z</time>
      </trkpt>
      <trkpt lat="54.729068968445063" lon="27.290818998590112">
        <ele>177.02000000000001</ele>
        <time>2011-08-19T10:35:38Z</time>
      </trkpt>
      <trkpt lat="54.728218037635088" lon="27.291532969102263">
        <ele>174.62</ele>
        <time>2011-08-19T10:35:55Z</time>
      </trkpt>
      <trkpt lat="54.727409016340971" lon="27.29206102900207">
        <ele>173.66</ele>
        <time>2011-08-19T10:36:11Z</time>
      </trkpt>
      <trkpt lat="54.727253029122949" lon="27.292105033993721">
        <ele>173.16999999999999</ele>
        <time>2011-08-19T10:36:14Z</time>
      </trkpt>
      <trkpt lat="54.727108022198081" lon="27.292116014286876">
        <ele>173.16999999999999</ele>
        <time>2011-08-19T10:36:17Z</time>
      </trkpt>
      <trkpt lat="54.726825971156359" lon="27.29212598875165">
        <ele>173.66</ele>
        <time>2011-08-19T10:36:23Z</time>
      </trkpt>
      <trkpt lat="54.726040000095963" lon="27.292034039273858">
        <ele>173.66</ele>
        <time>2011-08-19T10:36:41Z</time>
      </trkpt>
      <trkpt lat="54.725254029035568" lon="27.291863970458508">
        <ele>173.66</ele>
        <time>2011-08-19T10:36:59Z</time>
      </trkpt>
      <trkpt lat="54.724823031574488" lon="27.291761040687561">
        <ele>175.58000000000001</ele>
        <time>2011-08-19T10:37:09Z</time>
      </trkpt>
      <trkpt lat="54.724129009991884" lon="27.291555013507605">
        <ele>175.58000000000001</ele>
        <time>2011-08-19T10:37:26Z</time>
      </trkpt>
      <trkpt lat="54.723499026149511" lon="27.291375976055861">
        <ele>177.5</ele>
        <time>2011-08-19T10:37:43Z</time>
      </trkpt>
      <trkpt lat="54.723189985379577" lon="27.291285032406449">
        <ele>177.5</ele>
        <time>2011-08-19T10:37:51Z</time>
      </trkpt>
      <trkpt lat="54.723147992044687" lon="27.291276985779405">
        <ele>177.97999999999999</ele>
        <time>2011-08-19T10:37:52Z</time>
      </trkpt>
      <trkpt lat="54.722457993775606" lon="27.29109400883317">
        <ele>177.5</ele>
        <time>2011-08-19T10:38:09Z</time>
      </trkpt>
      <trkpt lat="54.721850976347923" lon="27.290966017171741">
        <ele>177.97999999999999</ele>
        <time>2011-08-19T10:38:25Z</time>
      </trkpt>
      <trkpt lat="54.721184028312564" lon="27.290856968611479">
        <ele>177.5</ele>
        <time>2011-08-19T10:38:42Z</time>
      </trkpt>
      <trkpt lat="54.72049000672996" lon="27.290757978335023">
        <ele>178.46000000000001</ele>
        <time>2011-08-19T10:38:59Z</time>
      </trkpt>
      <trkpt lat="54.720150036737323" lon="27.290697041898966">
        <ele>179.41999999999999</ele>
        <time>2011-08-19T10:39:07Z</time>
      </trkpt>
      <trkpt lat="54.719616025686264" lon="27.290614983066916">
        <ele>178.94</ele>
        <time>2011-08-19T10:39:20Z</time>
      </trkpt>
      <trkpt lat="54.718914041295648" lon="27.290515992790461">
        <ele>179.90000000000001</ele>
        <time>2011-08-19T10:39:36Z</time>
      </trkpt>
      <trkpt lat="54.718471979722381" lon="27.290461007505655">
        <ele>178.94</ele>
        <time>2011-08-19T10:39:47Z</time>
      </trkpt>
      <trkpt lat="54.717888012528419" lon="27.29036302305758">
        <ele>178.46000000000001</ele>
        <time>2011-08-19T10:40:01Z</time>
      </trkpt>
      <trkpt lat="54.71705200150609" lon="27.29023695923388">
        <ele>177.02000000000001</ele>
        <time>2011-08-19T10:40:19Z</time>
      </trkpt>
      <trkpt lat="54.716285979375243" lon="27.290129000321031">
        <ele>176.53999999999999</ele>
        <time>2011-08-19T10:40:34Z</time>
      </trkpt>
      <trkpt lat="54.715576032176614" lon="27.290030010044575">
        <ele>176.06</ele>
        <time>2011-08-19T10:40:49Z</time>
      </trkpt>
      <trkpt lat="54.714831970632076" lon="27.289920961484313">
        <ele>177.5</ele>
        <time>2011-08-19T10:41:08Z</time>
      </trkpt>
      <trkpt lat="54.714198969304562" lon="27.289811996743083">
        <ele>177.97999999999999</ele>
        <time>2011-08-19T10:41:24Z</time>
      </trkpt>
      <trkpt lat="54.713688008487225" lon="27.289737984538078">
        <ele>177.97999999999999</ele>
        <time>2011-08-19T10:41:37Z</time>
      </trkpt>
      <trkpt lat="54.713279977440834" lon="27.28967503644526">
        <ele>177.5</ele>
        <time>2011-08-19T10:41:50Z</time>
      </trkpt>
      <trkpt lat="54.713248964399099" lon="27.289649974554777">
        <ele>176.53999999999999</ele>
        <time>2011-08-19T10:42:06Z</time>
      </trkpt>
      <trkpt lat="54.713248964399099" lon="27.289649974554777">
        <ele>177.02000000000001</ele>
        <time>2011-08-19T10:42:32Z</time>
      </trkpt>
      <trkpt lat="54.713245024904609" lon="27.289638994261622">
        <ele>177.5</ele>
        <time>2011-08-19T10:42:57Z</time>
      </trkpt>
      <trkpt lat="54.713245024904609" lon="27.289638994261622">
        <ele>177.5</ele>
        <time>2011-08-19T10:43:22Z</time>
      </trkpt>
      <trkpt lat="54.713245024904609" lon="27.289640000090003">
        <ele>177.5</ele>
        <time>2011-08-19T10:44:02Z</time>
      </trkpt>
      <trkpt lat="54.713089037686586" lon="27.289666989818215">
        <ele>177.5</ele>
        <time>2011-08-19T10:44:15Z</time>
      </trkpt>
      <trkpt lat="54.713043021038175" lon="27.289669001474977">
        <ele>177.97999999999999</ele>
        <time>2011-08-19T10:44:16Z</time>
      </trkpt>
      <trkpt lat="54.712661979719996" lon="27.289710994809866">
        <ele>177.02000000000001</ele>
        <time>2011-08-19T10:44:24Z</time>
      </trkpt>
      <trkpt lat="54.711768971756101" lon="27.2899129986763">
        <ele>177.5</ele>
        <time>2011-08-19T10:44:41Z</time>
      </trkpt>
      <trkpt lat="54.711044020950794" lon="27.290043001994491">
        <ele>177.97999999999999</ele>
        <time>2011-08-19T10:44:56Z</time>
      </trkpt>
      <trkpt lat="54.710552003234625" lon="27.290097987279296">
        <ele>178.94</ele>
        <time>2011-08-19T10:45:07Z</time>
      </trkpt>
      <trkpt lat="54.710505986586213" lon="27.290102010592818">
        <ele>178.94</ele>
        <time>2011-08-19T10:45:08Z</time>
      </trkpt>
      <trkpt lat="54.710418982431293" lon="27.290129000321031">
        <ele>178.94</ele>
        <time>2011-08-19T10:45:10Z</time>
      </trkpt>
      <trkpt lat="54.710376989096403" lon="27.29014802724123">
        <ele>179.41999999999999</ele>
        <time>2011-08-19T10:45:11Z</time>
      </trkpt>
      <trkpt lat="54.709534021094441" lon="27.290379032492638">
        <ele>178.94</ele>
        <time>2011-08-19T10:45:29Z</time>
      </trkpt>
      <trkpt lat="54.709087014198303" lon="27.290524039417505">
        <ele>178.94</ele>
        <time>2011-08-19T10:45:38Z</time>
      </trkpt>
      <trkpt lat="54.708278998732567" lon="27.290717996656895">
        <ele>177.97999999999999</ele>
        <time>2011-08-19T10:45:56Z</time>
      </trkpt>
      <trkpt lat="54.70770601183176" lon="27.290855040773749">
        <ele>177.02000000000001</ele>
        <time>2011-08-19T10:46:11Z</time>
      </trkpt>
      <trkpt lat="54.707478024065495" lon="27.290915977209806">
        <ele>176.53999999999999</ele>
        <time>2011-08-19T10:46:23Z</time>
      </trkpt>
      <trkpt lat="54.707478024065495" lon="27.290915977209806">
        <ele>177.02000000000001</ele>
        <time>2011-08-19T10:46:48Z</time>
      </trkpt>
      <trkpt lat="54.707321031019092" lon="27.290981020778418">
        <ele>176.53999999999999</ele>
        <time>2011-08-19T10:47:05Z</time>
      </trkpt>
      <trkpt lat="54.707213994115591" lon="27.290983032435179">
        <ele>176.06</ele>
        <time>2011-08-19T10:47:16Z</time>
      </trkpt>
      <trkpt lat="54.70716898329556" lon="27.290999963879585">
        <ele>176.53999999999999</ele>
        <time>2011-08-19T10:47:48Z</time>
      </trkpt>
      <trkpt lat="54.707058006897569" lon="27.291357032954693">
        <ele>176.53999999999999</ele>
        <time>2011-08-19T10:47:59Z</time>
      </trkpt>
      <trkpt lat="54.707088014110923" lon="27.291881991550326">
        <ele>176.06</ele>
        <time>2011-08-19T10:48:10Z</time>
      </trkpt>
      <trkpt lat="54.707110980525613" lon="27.292067985981703">
        <ele>176.06</ele>
        <time>2011-08-19T10:48:14Z</time>
      </trkpt>
      <trkpt lat="54.707164959982038" lon="27.292163958773017">
        <ele>175.58000000000001</ele>
        <time>2011-08-19T10:48:18Z</time>
      </trkpt>
      <trkpt lat="54.707222040742636" lon="27.292177034541965">
        <ele>175.58000000000001</ele>
        <time>2011-08-19T10:48:29Z</time>
      </trkpt>
      <trkpt lat="54.707252969965339" lon="27.2921890206635">
        <ele>176.06</ele>
        <time>2011-08-19T10:48:32Z</time>
      </trkpt>
      <trkpt lat="54.707260010764003" lon="27.292167982086539">
        <ele>176.06</ele>
        <time>2011-08-19T10:48:34Z</time>
      </trkpt>
      <trkpt lat="54.70725598745048" lon="27.292136969044805">
        <ele>176.06</ele>
        <time>2011-08-19T10:48:36Z</time>
      </trkpt>
      <trkpt lat="54.707172000780702" lon="27.292140992358327">
        <ele>176.06</ele>
        <time>2011-08-19T10:48:45Z</time>
      </trkpt>
      <trkpt lat="54.707100000232458" lon="27.291855001822114">
        <ele>176.06</ele>
        <time>2011-08-19T10:48:54Z</time>
      </trkpt>
      <trkpt lat="54.707080973312259" lon="27.29118000715971">
        <ele>176.53999999999999</ele>
        <time>2011-08-19T10:49:12Z</time>
      </trkpt>
      <trkpt lat="54.707016013562679" lon="27.291070958599448">
        <ele>176.53999999999999</ele>
        <time>2011-08-19T10:49:17Z</time>
      </trkpt>
      <trkpt lat="54.706778973340988" lon="27.291060984134674">
        <ele>176.06</ele>
        <time>2011-08-19T10:49:28Z</time>
      </trkpt>
      <trkpt lat="54.70676003023982" lon="27.291056038811803">
        <ele>175.58000000000001</ele>
        <time>2011-08-19T10:49:42Z</time>
      </trkpt>
      <trkpt lat="54.70676003023982" lon="27.291058972477913">
        <ele>174.62</ele>
        <time>2011-08-19T10:50:11Z</time>
      </trkpt>
      <trkpt lat="54.70676003023982" lon="27.291058972477913">
        <ele>175.58000000000001</ele>
        <time>2011-08-19T10:50:35Z</time>
      </trkpt>
      <trkpt lat="54.706741003319621" lon="27.291070958599448">
        <ele>175.58000000000001</ele>
        <time>2011-08-19T10:50:58Z</time>
      </trkpt>
      <trkpt lat="54.70637496560812" lon="27.29118000715971">
        <ele>175.58000000000001</ele>
        <time>2011-08-19T10:51:10Z</time>
      </trkpt>
      <trkpt lat="54.70560098066926" lon="27.291229041293263">
        <ele>174.62</ele>
        <time>2011-08-19T10:51:27Z</time>
      </trkpt>
      <trkpt lat="54.704685006290674" lon="27.291128039360046">
        <ele>172.69</ele>
        <time>2011-08-19T10:51:46Z</time>
      </trkpt>
      <trkpt lat="54.704020991921425" lon="27.290777005255222">
        <ele>172.69</ele>
        <time>2011-08-19T10:52:01Z</time>
      </trkpt>
      <trkpt lat="54.7034299839288" lon="27.29017099365592">
        <ele>172.21000000000001</ele>
        <time>2011-08-19T10:52:16Z</time>
      </trkpt>
      <trkpt lat="54.70265599898994" lon="27.289356021210551">
        <ele>172.21000000000001</ele>
        <time>2011-08-19T10:52:36Z</time>
      </trkpt>
      <trkpt lat="54.701996007934213" lon="27.288670968264341">
        <ele>173.16999999999999</ele>
        <time>2011-08-19T10:52:52Z</time>
      </trkpt>
      <trkpt lat="54.701907997950912" lon="27.288585975766182">
        <ele>172.21000000000001</ele>
        <time>2011-08-19T10:52:54Z</time>
      </trkpt>
      <trkpt lat="54.701149016618729" lon="27.287771003320813">
        <ele>172.69</ele>
        <time>2011-08-19T10:53:12Z</time>
      </trkpt>
      <trkpt lat="54.700966039672494" lon="27.28759397752583">
        <ele>172.21000000000001</ele>
        <time>2011-08-19T10:53:16Z</time>
      </trkpt>
      <trkpt lat="54.700656998902559" lon="27.287232968956232">
        <ele>173.16999999999999</ele>
        <time>2011-08-19T10:53:24Z</time>
      </trkpt>
      <trkpt lat="54.700622968375683" lon="27.287188963964581">
        <ele>173.16999999999999</ele>
        <time>2011-08-19T10:53:25Z</time>
      </trkpt>
      <trkpt lat="54.700583992525935" lon="27.287148982286453">
        <ele>173.16999999999999</ele>
        <time>2011-08-19T10:53:26Z</time>
      </trkpt>
      <trkpt lat="54.700520038604736" lon="27.287061978131533">
        <ele>172.69</ele>
        <time>2011-08-19T10:53:28Z</time>
      </trkpt>
      <trkpt lat="54.700492965057492" lon="27.287001041695476">
        <ele>172.21000000000001</ele>
        <time>2011-08-19T10:53:29Z</time>
      </trkpt>
      <trkpt lat="54.700469998642802" lon="27.28692602366209">
        <ele>172.69</ele>
        <time>2011-08-19T10:53:30Z</time>
      </trkpt>
      <trkpt lat="54.700450971722603" lon="27.286847988143563">
        <ele>173.16999999999999</ele>
        <time>2011-08-19T10:53:31Z</time>
      </trkpt>
      <trkpt lat="54.700438985601068" lon="27.286766013130546">
        <ele>172.21000000000001</ele>
        <time>2011-08-19T10:53:32Z</time>
      </trkpt>
      <trkpt lat="54.700438985601068" lon="27.286684038117528">
        <ele>171.72999999999999</ele>
        <time>2011-08-19T10:53:33Z</time>
      </trkpt>
      <trkpt lat="54.700447032228112" lon="27.286606002599001">
        <ele>172.21000000000001</ele>
        <time>2011-08-19T10:53:34Z</time>
      </trkpt>
      <trkpt lat="54.700459018349648" lon="27.286535007879138">
        <ele>172.21000000000001</ele>
        <time>2011-08-19T10:53:35Z</time>
      </trkpt>
      <trkpt lat="54.700474021956325" lon="27.28647599928081">
        <ele>171.72999999999999</ele>
        <time>2011-08-19T10:53:36Z</time>
      </trkpt>
      <trkpt lat="54.700485002249479" lon="27.286434005945921">
        <ele>172.21000000000001</ele>
        <time>2011-08-19T10:53:37Z</time>
      </trkpt>
      <trkpt lat="54.700504029169679" lon="27.286394024267793">
        <ele>171.72999999999999</ele>
        <time>2011-08-19T10:53:38Z</time>
      </trkpt>
      <trkpt lat="54.700520038604736" lon="27.28634599596262">
        <ele>172.21000000000001</ele>
        <time>2011-08-19T10:53:39Z</time>
      </trkpt>
      <trkpt lat="54.700538981705904" lon="27.286291010677814">
        <ele>171.72999999999999</ele>
        <time>2011-08-19T10:53:40Z</time>
      </trkpt>
      <trkpt lat="54.700649036094546" lon="27.28595900349319">
        <ele>172.69</ele>
        <time>2011-08-19T10:53:45Z</time>
      </trkpt>
      <trkpt lat="54.700667979195714" lon="27.285892032086849">
        <ele>172.21000000000001</ele>
        <time>2011-08-19T10:53:46Z</time>
      </trkpt>
      <trkpt lat="54.701011972501874" lon="27.284850999712944">
        <ele>172.69</ele>
        <time>2011-08-19T10:54:00Z</time>
      </trkpt>
      <trkpt lat="54.701430983841419" lon="27.283610980957747">
        <ele>173.16999999999999</ele>
        <time>2011-08-19T10:54:17Z</time>
      </trkpt>
      <trkpt lat="54.701613960787654" lon="27.282762983813882">
        <ele>173.66</ele>
        <time>2011-08-19T10:54:28Z</time>
      </trkpt>
      <trkpt lat="54.701590994372964" lon="27.281396985054016">
        <ele>174.62</ele>
        <time>2011-08-19T10:54:45Z</time>
      </trkpt>
      <trkpt lat="54.701430983841419" lon="27.280138023197651">
        <ele>175.58000000000001</ele>
        <time>2011-08-19T10:55:02Z</time>
      </trkpt>
      <trkpt lat="54.701363006606698" lon="27.279628990218043">
        <ele>175.58000000000001</ele>
        <time>2011-08-19T10:55:09Z</time>
      </trkpt>
      <trkpt lat="54.701171983033419" lon="27.278186967596412">
        <ele>177.02000000000001</ele>
        <time>2011-08-19T10:55:29Z</time>
      </trkpt>
      <trkpt lat="54.700951036065817" lon="27.276605973020196">
        <ele>177.5</ele>
        <time>2011-08-19T10:55:50Z</time>
      </trkpt>
      <trkpt lat="54.70078700222075" lon="27.275338964536786">
        <ele>178.46000000000001</ele>
        <time>2011-08-19T10:56:07Z</time>
      </trkpt>
      <trkpt lat="54.700606958940625" lon="27.274043960496783">
        <ele>178.94</ele>
        <time>2011-08-19T10:56:25Z</time>
      </trkpt>
      <trkpt lat="54.700393974781036" lon="27.272563967853785">
        <ele>180.87</ele>
        <time>2011-08-19T10:56:45Z</time>
      </trkpt>
      <trkpt lat="54.700206974521279" lon="27.271272987127304">
        <ele>181.83000000000001</ele>
        <time>2011-08-19T10:57:04Z</time>
      </trkpt>
      <trkpt lat="54.700007988139987" lon="27.269800035282969">
        <ele>183.75</ele>
        <time>2011-08-19T10:57:24Z</time>
      </trkpt>
      <trkpt lat="54.699836997315288" lon="27.268565967679024">
        <ele>183.27000000000001</ele>
        <time>2011-08-19T10:57:41Z</time>
      </trkpt>
      <trkpt lat="54.699649997055531" lon="27.267114976420999">
        <ele>180.87</ele>
        <time>2011-08-19T10:57:58Z</time>
      </trkpt>
      <trkpt lat="54.699398037046194" lon="27.265408001840115">
        <ele>178.94</ele>
        <time>2011-08-19T10:58:17Z</time>
      </trkpt>
      <trkpt lat="54.699177006259561" lon="27.263842010870576">
        <ele>178.46000000000001</ele>
        <time>2011-08-19T10:58:35Z</time>
      </trkpt>
      <trkpt lat="54.698975002393126" lon="27.262538960203528">
        <ele>178.94</ele>
        <time>2011-08-19T10:58:52Z</time>
      </trkpt>
      <trkpt lat="54.698818009346724" lon="27.261332971975207">
        <ele>180.87</ele>
        <time>2011-08-19T10:59:09Z</time>
      </trkpt>
      <trkpt lat="54.698752965778112" lon="27.260880013927817">
        <ele>180.38</ele>
        <time>2011-08-19T10:59:16Z</time>
      </trkpt>
      <trkpt lat="54.6985740121454" lon="27.259628009051085">
        <ele>180.38</ele>
        <time>2011-08-19T10:59:33Z</time>
      </trkpt>
      <trkpt lat="54.698418024927378" lon="27.258527968078852">
        <ele>180.38</ele>
        <time>2011-08-19T10:59:47Z</time>
      </trkpt>
      <trkpt lat="54.698299001902342" lon="27.257710983976722">
        <ele>179.41999999999999</ele>
        <time>2011-08-19T10:59:57Z</time>
      </trkpt>
      <trkpt lat="54.698116024956107" lon="27.25641799159348">
        <ele>179.41999999999999</ele>
        <time>2011-08-19T11:00:13Z</time>
      </trkpt>
      <trkpt lat="54.698013011366129" lon="27.255742996931076">
        <ele>180.38</ele>
        <time>2011-08-19T11:00:23Z</time>
      </trkpt>
      <trkpt lat="54.697784017771482" lon="27.254531979560852">
        <ele>181.34999999999999</ele>
        <time>2011-08-19T11:00:41Z</time>
      </trkpt>
      <trkpt lat="54.697624007239938" lon="27.253874000161886">
        <ele>182.31</ele>
        <time>2011-08-19T11:00:54Z</time>
      </trkpt>
      <trkpt lat="54.697437006980181" lon="27.253137985244393">
        <ele>182.78999999999999</ele>
        <time>2011-08-19T11:01:07Z</time>
      </trkpt>
      <trkpt lat="54.697182029485703" lon="27.25227003917098">
        <ele>183.27000000000001</ele>
        <time>2011-08-19T11:01:22Z</time>
      </trkpt>
      <trkpt lat="54.696892015635967" lon="27.251286003738642">
        <ele>183.27000000000001</ele>
        <time>2011-08-19T11:01:39Z</time>
      </trkpt>
      <trkpt lat="54.696545004844666" lon="27.250203983858228">
        <ele>183.27000000000001</ele>
        <time>2011-08-19T11:01:56Z</time>
      </trkpt>
      <trkpt lat="54.696434028446674" lon="27.249883962795138">
        <ele>182.78999999999999</ele>
        <time>2011-08-19T11:02:01Z</time>
      </trkpt>
      <trkpt lat="54.695994984358549" lon="27.248561969026923">
        <ele>182.78999999999999</ele>
        <time>2011-08-19T11:02:20Z</time>
      </trkpt>
      <trkpt lat="54.695594999939203" lon="27.24747802130878">
        <ele>182.78999999999999</ele>
        <time>2011-08-19T11:02:36Z</time>
      </trkpt>
      <trkpt lat="54.695170959457755" lon="27.246364988386631">
        <ele>182.31</ele>
        <time>2011-08-19T11:02:52Z</time>
      </trkpt>
      <trkpt lat="54.694778015837073" lon="27.245333008468151">
        <ele>182.31</ele>
        <time>2011-08-19T11:03:09Z</time>
      </trkpt>
      <trkpt lat="54.694347018375993" lon="27.244208995252848">
        <ele>181.83000000000001</ele>
        <time>2011-08-19T11:03:26Z</time>
      </trkpt>
      <trkpt lat="54.693950973451138" lon="27.243189001455903">
        <ele>182.31</ele>
        <time>2011-08-19T11:03:41Z</time>
      </trkpt>
      <trkpt lat="54.693503966554999" lon="27.242010002955794">
        <ele>180.87</ele>
        <time>2011-08-19T11:03:58Z</time>
      </trkpt>
      <trkpt lat="54.693118985742331" lon="27.24101398140192">
        <ele>180.38</ele>
        <time>2011-08-19T11:04:13Z</time>
      </trkpt>
      <trkpt lat="54.692740961909294" lon="27.240050984546542">
        <ele>179.90000000000001</ele>
        <time>2011-08-19T11:04:27Z</time>
      </trkpt>
      <trkpt lat="54.692370984703302" lon="27.23916401155293">
        <ele>179.41999999999999</ele>
        <time>2011-08-19T11:04:41Z</time>
      </trkpt>
      <trkpt lat="54.691872010007501" lon="27.238007979467511">
        <ele>179.41999999999999</ele>
        <time>2011-08-19T11:04:59Z</time>
      </trkpt>
      <trkpt lat="54.691486023366451" lon="27.237256960943341">
        <ele>179.41999999999999</ele>
        <time>2011-08-19T11:05:12Z</time>
      </trkpt>
      <trkpt lat="54.691058965399861" lon="27.236464032903314">
        <ele>179.90000000000001</ele>
        <time>2011-08-19T11:05:27Z</time>
      </trkpt>
      <trkpt lat="54.690600978210568" lon="27.23559801466763">
        <ele>179.41999999999999</ele>
        <time>2011-08-19T11:05:43Z</time>
      </trkpt>
      <trkpt lat="54.690090017393231" lon="27.234648009762168">
        <ele>179.41999999999999</ele>
        <time>2011-08-19T11:06:01Z</time>
      </trkpt>
      <trkpt lat="54.689582996070385" lon="27.233735974878073">
        <ele>179.90000000000001</ele>
        <time>2011-08-19T11:06:19Z</time>
      </trkpt>
      <trkpt lat="54.689186029136181" lon="27.232987973839045">
        <ele>179.41999999999999</ele>
        <time>2011-08-19T11:06:33Z</time>
      </trkpt>
      <trkpt lat="54.688849998638034" lon="27.232365030795336">
        <ele>180.87</ele>
        <time>2011-08-19T11:06:45Z</time>
      </trkpt>
      <trkpt lat="54.688335014507174" lon="27.231389963999391">
        <ele>179.90000000000001</ele>
        <time>2011-08-19T11:07:03Z</time>
      </trkpt>
      <trkpt lat="54.687766972929239" lon="27.230330994352698">
        <ele>178.94</ele>
        <time>2011-08-19T11:07:22Z</time>
      </trkpt>
      <trkpt lat="54.687199015170336" lon="27.229229025542736">
        <ele>179.90000000000001</ele>
        <time>2011-08-19T11:07:41Z</time>
      </trkpt>
      <trkpt lat="54.686737004667521" lon="27.228291006758809">
        <ele>179.41999999999999</ele>
        <time>2011-08-19T11:07:57Z</time>
      </trkpt>
      <trkpt lat="54.686710014939308" lon="27.228233003988862">
        <ele>179.41999999999999</ele>
        <time>2011-08-19T11:07:58Z</time>
      </trkpt>
      <trkpt lat="54.686234006658196" lon="27.227146038785577">
        <ele>178.94</ele>
        <time>2011-08-19T11:08:15Z</time>
      </trkpt>
      <trkpt lat="54.685707036405802" lon="27.225867966189981">
        <ele>178.46000000000001</ele>
        <time>2011-08-19T11:08:34Z</time>
      </trkpt>
      <trkpt lat="54.685276038944721" lon="27.224695002660155">
        <ele>179.41999999999999</ele>
        <time>2011-08-19T11:08:53Z</time>
      </trkpt>
      <trkpt lat="54.684936990961432" lon="27.223685989156365">
        <ele>177.97999999999999</ele>
        <time>2011-08-19T11:09:08Z</time>
      </trkpt>
      <trkpt lat="54.68458897434175" lon="27.222604975104332">
        <ele>178.94</ele>
        <time>2011-08-19T11:09:23Z</time>
      </trkpt>
      <trkpt lat="54.684184966608882" lon="27.2211819794029">
        <ele>178.94</ele>
        <time>2011-08-19T11:09:42Z</time>
      </trkpt>
      <trkpt lat="54.683795962482691" lon="27.219697963446379">
        <ele>178.94</ele>
        <time>2011-08-19T11:10:00Z</time>
      </trkpt>
      <trkpt lat="54.683430008590221" lon="27.218269016593695">
        <ele>178.94</ele>
        <time>2011-08-19T11:10:18Z</time>
      </trkpt>
      <trkpt lat="54.683139994740486" lon="27.217181967571378">
        <ele>178.46000000000001</ele>
        <time>2011-08-19T11:10:32Z</time>
      </trkpt>
      <trkpt lat="54.682788960635662" lon="27.215846981853247">
        <ele>179.41999999999999</ele>
        <time>2011-08-19T11:10:50Z</time>
      </trkpt>
      <trkpt lat="54.682442033663392" lon="27.21456496976316">
        <ele>180.87</ele>
        <time>2011-08-19T11:11:08Z</time>
      </trkpt>
      <trkpt lat="54.682140033692122" lon="27.213383037596941">
        <ele>180.38</ele>
        <time>2011-08-19T11:11:26Z</time>
      </trkpt>
      <trkpt lat="54.681908022612333" lon="27.212537974119186">
        <ele>180.38</ele>
        <time>2011-08-19T11:11:39Z</time>
      </trkpt>
      <trkpt lat="54.681618008762598" lon="27.211444973945618">
        <ele>181.83000000000001</ele>
        <time>2011-08-19T11:11:55Z</time>
      </trkpt>
      <trkpt lat="54.681305028498173" lon="27.210258012637496">
        <ele>182.31</ele>
        <time>2011-08-19T11:12:12Z</time>
      </trkpt>
      <trkpt lat="54.68102297745645" lon="27.209159983322024">
        <ele>181.83000000000001</ele>
        <time>2011-08-19T11:12:28Z</time>
      </trkpt>
      <trkpt lat="54.680744027718902" lon="27.208088021725416">
        <ele>182.31</ele>
        <time>2011-08-19T11:12:44Z</time>
      </trkpt>
      <trkpt lat="54.680439010262489" lon="27.20693601295352">
        <ele>182.31</ele>
        <time>2011-08-19T11:13:02Z</time>
      </trkpt>
      <trkpt lat="54.680186966434121" lon="27.205964969471097">
        <ele>181.83000000000001</ele>
        <time>2011-08-19T11:13:16Z</time>
      </trkpt>
      <trkpt lat="54.679897036403418" lon="27.204860989004374">
        <ele>181.83000000000001</ele>
        <time>2011-08-19T11:13:31Z</time>
      </trkpt>
      <trkpt lat="54.679843978956342" lon="27.204642975702882">
        <ele>181.34999999999999</ele>
        <time>2011-08-19T11:13:34Z</time>
      </trkpt>
      <trkpt lat="54.679595958441496" lon="27.203706968575716">
        <ele>180.38</ele>
        <time>2011-08-19T11:13:47Z</time>
      </trkpt>
      <trkpt lat="54.679546002298594" lon="27.203489039093256">
        <ele>180.38</ele>
        <time>2011-08-19T11:13:50Z</time>
      </trkpt>
      <trkpt lat="54.679321032017469" lon="27.202608017250896">
        <ele>180.38</ele>
        <time>2011-08-19T11:14:04Z</time>
      </trkpt>
      <trkpt lat="54.679049961268902" lon="27.201584000140429">
        <ele>181.34999999999999</ele>
        <time>2011-08-19T11:14:19Z</time>
      </trkpt>
      <trkpt lat="54.678809987381101" lon="27.200678000226617">
        <ele>181.83000000000001</ele>
        <time>2011-08-19T11:14:33Z</time>
      </trkpt>
      <trkpt lat="54.678790960460901" lon="27.200611028820276">
        <ele>181.83000000000001</ele>
        <time>2011-08-19T11:14:34Z</time>
      </trkpt>
      <trkpt lat="54.678706973791122" lon="27.200271980836987">
        <ele>181.83000000000001</ele>
        <time>2011-08-19T11:14:39Z</time>
      </trkpt>
      <trkpt lat="54.678431963548064" lon="27.199218962341547">
        <ele>182.78999999999999</ele>
        <time>2011-08-19T11:14:55Z</time>
      </trkpt>
      <trkpt lat="54.678191989660263" lon="27.198296030983329">
        <ele>183.27000000000001</ele>
        <time>2011-08-19T11:15:08Z</time>
      </trkpt>
      <trkpt lat="54.677910022437572" lon="27.197218034416437">
        <ele>182.78999999999999</ele>
        <time>2011-08-19T11:15:23Z</time>
      </trkpt>
      <trkpt lat="54.677765015512705" lon="27.196657033637166">
        <ele>183.27000000000001</ele>
        <time>2011-08-19T11:15:31Z</time>
      </trkpt>
      <trkpt lat="54.677448011934757" lon="27.195451967418194">
        <ele>183.75</ele>
        <time>2011-08-19T11:15:48Z</time>
      </trkpt>
      <trkpt lat="54.677219018340111" lon="27.194569017738104">
        <ele>183.75</ele>
        <time>2011-08-19T11:16:01Z</time>
      </trkpt>
      <trkpt lat="54.676967980340123" lon="27.193623958155513">
        <ele>182.31</ele>
        <time>2011-08-19T11:16:16Z</time>
      </trkpt>
      <trkpt lat="54.676800007000566" lon="27.192574040964246">
        <ele>181.83000000000001</ele>
        <time>2011-08-19T11:16:32Z</time>
      </trkpt>
      <trkpt lat="54.676773017272353" lon="27.191738029941916">
        <ele>181.83000000000001</ele>
        <time>2011-08-19T11:16:44Z</time>
      </trkpt>
      <trkpt lat="54.676978960633278" lon="27.190535981208086">
        <ele>182.78999999999999</ele>
        <time>2011-08-19T11:17:02Z</time>
      </trkpt>
      <trkpt lat="54.677165960893035" lon="27.189961988478899">
        <ele>183.75</ele>
        <time>2011-08-19T11:17:12Z</time>
      </trkpt>
      <trkpt lat="54.677588995546103" lon="27.189156990498304">
        <ele>184.22999999999999</ele>
        <time>2011-08-19T11:17:29Z</time>
      </trkpt>
      <trkpt lat="54.677895018830895" lon="27.188686011359096">
        <ele>183.75</ele>
        <time>2011-08-19T11:17:44Z</time>
      </trkpt>
      <trkpt lat="54.677974982187152" lon="27.188528012484312">
        <ele>182.78999999999999</ele>
        <time>2011-08-19T11:17:47Z</time>
      </trkpt>
      <trkpt lat="54.67820699326694" lon="27.18770801089704">
        <ele>184.22999999999999</ele>
        <time>2011-08-19T11:18:00Z</time>
      </trkpt>
      <trkpt lat="54.678329033777118" lon="27.187173999845982">
        <ele>182.78999999999999</ele>
        <time>2011-08-19T11:18:08Z</time>
      </trkpt>
      <trkpt lat="54.678595997393131" lon="27.18588100746274">
        <ele>183.27000000000001</ele>
        <time>2011-08-19T11:18:28Z</time>
      </trkpt>
      <trkpt lat="54.678673027083278" lon="27.185519998893142">
        <ele>183.27000000000001</ele>
        <time>2011-08-19T11:18:34Z</time>
      </trkpt>
      <trkpt lat="54.678684007376432" lon="27.185453027486801">
        <ele>183.27000000000001</ele>
        <time>2011-08-19T11:18:35Z</time>
      </trkpt>
      <trkpt lat="54.678908977657557" lon="27.184402020648122">
        <ele>184.22999999999999</ele>
        <time>2011-08-19T11:18:52Z</time>
      </trkpt>
      <trkpt lat="54.679146017879248" lon="27.183255963027477">
        <ele>186.15000000000001</ele>
        <time>2011-08-19T11:19:11Z</time>
      </trkpt>
      <trkpt lat="54.67930200509727" lon="27.182599995285273">
        <ele>186.63</ele>
        <time>2011-08-19T11:19:24Z</time>
      </trkpt>
      <trkpt lat="54.679542984813452" lon="27.181716961786151">
        <ele>187.59</ele>
        <time>2011-08-19T11:19:40Z</time>
      </trkpt>
      <trkpt lat="54.679882032796741" lon="27.18066000379622">
        <ele>189.03999999999999</ele>
        <time>2011-08-19T11:19:59Z</time>
      </trkpt>
      <trkpt lat="54.680190989747643" lon="27.179770013317466">
        <ele>190</ele>
        <time>2011-08-19T11:20:15Z</time>
      </trkpt>
      <trkpt lat="54.680511010810733" lon="27.178820008412004">
        <ele>191.44</ele>
        <time>2011-08-19T11:20:33Z</time>
      </trkpt>
      <trkpt lat="54.680798007175326" lon="27.177975028753281">
        <ele>191.91999999999999</ele>
        <time>2011-08-19T11:20:48Z</time>
      </trkpt>
      <trkpt lat="54.681133031845093" lon="27.176994010806084">
        <ele>192.40000000000001</ele>
        <time>2011-08-19T11:21:05Z</time>
      </trkpt>
      <trkpt lat="54.681522035971284" lon="27.175829010084271">
        <ele>193.84</ele>
        <time>2011-08-19T11:21:25Z</time>
      </trkpt>
      <trkpt lat="54.681892013177276" lon="27.174703991040587">
        <ele>193.36000000000001</ele>
        <time>2011-08-19T11:21:44Z</time>
      </trkpt>
      <trkpt lat="54.682022016495466" lon="27.174325967207551">
        <ele>193.84</ele>
        <time>2011-08-19T11:21:50Z</time>
      </trkpt>
      <trkpt lat="54.682128969579935" lon="27.174025978893042">
        <ele>193.36000000000001</ele>
        <time>2011-08-19T11:21:55Z</time>
      </trkpt>
      <trkpt lat="54.682453013956547" lon="27.173089971765876">
        <ele>194.80000000000001</ele>
        <time>2011-08-19T11:22:12Z</time>
      </trkpt>
      <trkpt lat="54.682620987296104" lon="27.172627961263061">
        <ele>195.28</ele>
        <time>2011-08-19T11:22:26Z</time>
      </trkpt>
      <trkpt lat="54.682620987296104" lon="27.172627961263061">
        <ele>194.80000000000001</ele>
        <time>2011-08-19T11:22:47Z</time>
      </trkpt>
      <trkpt lat="54.682644037529826" lon="27.172554032877088">
        <ele>195.28</ele>
        <time>2011-08-19T11:22:59Z</time>
      </trkpt>
      <trkpt lat="54.682644037529826" lon="27.172554032877088">
        <ele>194.80000000000001</ele>
        <time>2011-08-19T11:23:15Z</time>
      </trkpt>
      <trkpt lat="54.682686030864716" lon="27.172429980710149">
        <ele>195.28</ele>
        <time>2011-08-19T11:23:20Z</time>
      </trkpt>
      <trkpt lat="54.682903038337827" lon="27.171822041273117">
        <ele>195.77000000000001</ele>
        <time>2011-08-19T11:23:37Z</time>
      </trkpt>
      <trkpt lat="54.682930028066039" lon="27.171734031289816">
        <ele>195.28</ele>
        <time>2011-08-19T11:23:51Z</time>
      </trkpt>
      <trkpt lat="54.682930028066039" lon="27.171734031289816">
        <ele>195.28</ele>
        <time>2011-08-19T11:24:17Z</time>
      </trkpt>
      <trkpt lat="54.68293396756053" lon="27.171732019633055">
        <ele>195.77000000000001</ele>
        <time>2011-08-19T11:24:33Z</time>
      </trkpt>
      <trkpt lat="54.682952994480729" lon="27.171649960801005">
        <ele>195.77000000000001</ele>
        <time>2011-08-19T11:24:37Z</time>
      </trkpt>
      <trkpt lat="54.683159021660686" lon="27.171024000272155">
        <ele>196.25</ele>
        <time>2011-08-19T11:24:53Z</time>
      </trkpt>
      <trkpt lat="54.683430008590221" lon="27.170203998684883">
        <ele>196.72999999999999</ele>
        <time>2011-08-19T11:25:09Z</time>
      </trkpt>
      <trkpt lat="54.683753969147801" lon="27.169412998482585">
        <ele>197.69</ele>
        <time>2011-08-19T11:25:25Z</time>
      </trkpt>
      <trkpt lat="54.684333996847272" lon="27.169025000184774">
        <ele>199.61000000000001</ele>
        <time>2011-08-19T11:25:42Z</time>
      </trkpt>
      <trkpt lat="54.684723000973463" lon="27.168820984661579">
        <ele>200.56999999999999</ele>
        <time>2011-08-19T11:25:57Z</time>
      </trkpt>
      <trkpt lat="54.684723000973463" lon="27.168820984661579">
        <ele>200.09</ele>
        <time>2011-08-19T11:26:15Z</time>
      </trkpt>
      <trkpt lat="54.68477999791503" lon="27.168816039338708">
        <ele>200.09</ele>
        <time>2011-08-19T11:26:30Z</time>
      </trkpt>
      <trkpt lat="54.684811010956764" lon="27.168810004368424">
        <ele>200.09</ele>
        <time>2011-08-19T11:26:58Z</time>
      </trkpt>
      <trkpt lat="54.685019971802831" lon="27.168429968878627">
        <ele>201.05000000000001</ele>
        <time>2011-08-19T11:27:12Z</time>
      </trkpt>
      <trkpt lat="54.685356002300978" lon="27.167948009446263">
        <ele>201.53</ele>
        <time>2011-08-19T11:27:27Z</time>
      </trkpt>
      <trkpt lat="54.685818012803793" lon="27.167239990085363">
        <ele>202.00999999999999</ele>
        <time>2011-08-19T11:27:43Z</time>
      </trkpt>
      <trkpt lat="54.686481021344662" lon="27.166331978514791">
        <ele>202.00999999999999</ele>
        <time>2011-08-19T11:28:03Z</time>
      </trkpt>
      <trkpt lat="54.687099019065499" lon="27.165504014119506">
        <ele>201.53</ele>
        <time>2011-08-19T11:28:20Z</time>
      </trkpt>
      <trkpt lat="54.687739983201027" lon="27.164607988670468">
        <ele>201.53</ele>
        <time>2011-08-19T11:28:37Z</time>
      </trkpt>
      <trkpt lat="54.687817012891173" lon="27.164515033364296">
        <ele>201.53</ele>
        <time>2011-08-19T11:28:39Z</time>
      </trkpt>
      <trkpt lat="54.68785498291254" lon="27.164469016715884">
        <ele>201.05000000000001</ele>
        <time>2011-08-19T11:28:40Z</time>
      </trkpt>
      <trkpt lat="54.688381031155586" lon="27.163754962384701">
        <ele>202.00999999999999</ele>
        <time>2011-08-19T11:28:55Z</time>
      </trkpt>
      <trkpt lat="54.688507011160254" lon="27.163569973781705">
        <ele>202.49000000000001</ele>
        <time>2011-08-19T11:28:59Z</time>
      </trkpt>
      <trkpt lat="54.688568031415343" lon="27.163482969626784">
        <ele>202.97999999999999</ele>
        <time>2011-08-19T11:29:01Z</time>
      </trkpt>
      <trkpt lat="54.689036998897791" lon="27.16278500854969">
        <ele>204.90000000000001</ele>
        <time>2011-08-19T11:29:18Z</time>
      </trkpt>
      <trkpt lat="54.68894999474287" lon="27.162402961403131">
        <ele>203.94</ele>
        <time>2011-08-19T11:29:27Z</time>
      </trkpt>
      <trkpt lat="54.688743967562914" lon="27.162034995853901">
        <ele>204.41999999999999</ele>
        <time>2011-08-19T11:29:38Z</time>
      </trkpt>
      <trkpt lat="54.688740028068423" lon="27.161982022225857">
        <ele>203.94</ele>
        <time>2011-08-19T11:29:48Z</time>
      </trkpt>
      <trkpt lat="54.688736004754901" lon="27.161983028054237">
        <ele>204.41999999999999</ele>
        <time>2011-08-19T11:30:06Z</time>
      </trkpt>
    </trkseg>
  </trk>

</gpx>
